<?xml version="1.0" encoding="UTF-8" standalone="no" ?>
<gpx xmlns="http://www.topografix.com/GPX/1/1" xmlns:xsi="http://www.w3.org/2001/XMLSchema-instance" xsi:schemaLocation="http://www.topografix.com/GPX/1/1 http://www.topografix.com/GPX/1/1/gpx.xsd" version="1.1" creator="VisuGPX - https://www.visugpx.com">
  <metadata>
    <name>2 p'tits tours et puis s'en vont</name>
    <desc><![CDATA[2 spéciales sur la bute de Mandeure ]]></desc>
  </metadata>
  <wpt lat="47.48647" lon="6.77105">
    <ele>367.5</ele>
    <name><![CDATA[Point de cheminement 1]]></name>
    <desc><![CDATA[]]></desc>
  </wpt>
  <wpt lat="47.46338" lon="6.78446">
    <ele>433.8</ele>
    <name><![CDATA[Point de cheminement 2]]></name>
    <desc><![CDATA[]]></desc>
  </wpt>
  <wpt lat="47.43189" lon="6.79572">
    <ele>528.9</ele>
    <name><![CDATA[Point de cheminement 3]]></name>
    <desc><![CDATA[]]></desc>
  </wpt>
  <wpt lat="47.42852" lon="6.8064">
    <ele>458.5</ele>
    <name><![CDATA[Point de cheminement 4]]></name>
    <desc><![CDATA[]]></desc>
  </wpt>
  <wpt lat="47.44534" lon="6.7992">
    <ele>418.2</ele>
    <name><![CDATA[Point de cheminement 5]]></name>
    <desc><![CDATA[]]></desc>
  </wpt>
  <wpt lat="47.47623" lon="6.78409">
    <ele>392.9</ele>
    <name><![CDATA[Point de cheminement 6]]></name>
    <desc><![CDATA[]]></desc>
  </wpt>
  <wpt lat="47.5037" lon="6.77384">
    <ele>353</ele>
    <name><![CDATA[Point de cheminement 7]]></name>
    <desc><![CDATA[]]></desc>
  </wpt>
  <trk>
    <name><![CDATA[18 Rue Antoine Coysevox]]></name>
    <desc><![CDATA[]]></desc>
    <trkseg>
      <trkpt lat="47.50997" lon="6.76932">
        <ele>430.3</ele>
        <time>2017-03-26T06:55:49.675Z</time>
      </trkpt>
      <trkpt lat="47.50993" lon="6.76927">
        <ele>430</ele>
        <time>2017-03-26T06:55:50.676Z</time>
      </trkpt>
      <trkpt lat="47.5099" lon="6.76923">
        <ele>428.7</ele>
        <time>2017-03-26T06:55:51.675Z</time>
      </trkpt>
      <trkpt lat="47.50987" lon="6.76916">
        <ele>432.5</ele>
        <time>2017-03-26T06:55:52.676Z</time>
      </trkpt>
      <trkpt lat="47.50984" lon="6.76911">
        <ele>432</ele>
        <time>2017-03-26T06:55:53.676Z</time>
      </trkpt>
      <trkpt lat="47.5098" lon="6.76908">
        <ele>433</ele>
        <time>2017-03-26T06:55:54.679Z</time>
      </trkpt>
      <trkpt lat="47.50975" lon="6.76906">
        <ele>434.6</ele>
        <time>2017-03-26T06:55:55.679Z</time>
      </trkpt>
      <trkpt lat="47.5097" lon="6.76906">
        <ele>435.5</ele>
        <time>2017-03-26T06:55:57.000Z</time>
      </trkpt>
      <trkpt lat="47.50966" lon="6.76902">
        <ele>435.5</ele>
        <time>2017-03-26T06:55:58.000Z</time>
      </trkpt>
      <trkpt lat="47.50961" lon="6.76898">
        <ele>433.6</ele>
        <time>2017-03-26T06:55:59.000Z</time>
      </trkpt>
      <trkpt lat="47.5096" lon="6.76895">
        <ele>431.9</ele>
        <time>2017-03-26T06:56:00.000Z</time>
      </trkpt>
      <trkpt lat="47.50956" lon="6.76891">
        <ele>430.5</ele>
        <time>2017-03-26T06:56:01.000Z</time>
      </trkpt>
      <trkpt lat="47.50953" lon="6.76885">
        <ele>431.2</ele>
        <time>2017-03-26T06:56:02.000Z</time>
      </trkpt>
      <trkpt lat="47.50948" lon="6.76881">
        <ele>432.4</ele>
        <time>2017-03-26T06:56:03.000Z</time>
      </trkpt>
      <trkpt lat="47.50944" lon="6.76879">
        <ele>429.1</ele>
        <time>2017-03-26T06:56:04.000Z</time>
      </trkpt>
      <trkpt lat="47.5094" lon="6.76875">
        <ele>431.8</ele>
        <time>2017-03-26T06:56:05.000Z</time>
      </trkpt>
      <trkpt lat="47.50937" lon="6.76871">
        <ele>432.5</ele>
        <time>2017-03-26T06:56:06.000Z</time>
      </trkpt>
      <trkpt lat="47.50933" lon="6.76867">
        <ele>435.6</ele>
        <time>2017-03-26T06:56:07.000Z</time>
      </trkpt>
      <trkpt lat="47.5093" lon="6.76862">
        <ele>430.4</ele>
        <time>2017-03-26T06:56:08.000Z</time>
      </trkpt>
      <trkpt lat="47.50928" lon="6.76858">
        <ele>432.2</ele>
        <time>2017-03-26T06:56:09.000Z</time>
      </trkpt>
      <trkpt lat="47.50926" lon="6.76853">
        <ele>431.7</ele>
        <time>2017-03-26T06:56:10.000Z</time>
      </trkpt>
      <trkpt lat="47.50923" lon="6.76847">
        <ele>432.6</ele>
        <time>2017-03-26T06:56:11.000Z</time>
      </trkpt>
      <trkpt lat="47.5092" lon="6.7684">
        <ele>434.9</ele>
        <time>2017-03-26T06:56:12.000Z</time>
      </trkpt>
      <trkpt lat="47.50917" lon="6.76835">
        <ele>437.3</ele>
        <time>2017-03-26T06:56:13.000Z</time>
      </trkpt>
      <trkpt lat="47.50914" lon="6.7683">
        <ele>439</ele>
        <time>2017-03-26T06:56:14.000Z</time>
      </trkpt>
      <trkpt lat="47.50912" lon="6.76824">
        <ele>439.6</ele>
        <time>2017-03-26T06:56:15.000Z</time>
      </trkpt>
      <trkpt lat="47.50912" lon="6.76819">
        <ele>438.3</ele>
        <time>2017-03-26T06:56:16.000Z</time>
      </trkpt>
      <trkpt lat="47.50908" lon="6.76812">
        <ele>437.5</ele>
        <time>2017-03-26T06:56:17.000Z</time>
      </trkpt>
      <trkpt lat="47.50906" lon="6.76807">
        <ele>437.7</ele>
        <time>2017-03-26T06:56:18.000Z</time>
      </trkpt>
      <trkpt lat="47.50904" lon="6.76802">
        <ele>438.7</ele>
        <time>2017-03-26T06:56:19.000Z</time>
      </trkpt>
      <trkpt lat="47.50901" lon="6.76796">
        <ele>438.1</ele>
        <time>2017-03-26T06:56:20.000Z</time>
      </trkpt>
      <trkpt lat="47.509" lon="6.76792">
        <ele>438.3</ele>
        <time>2017-03-26T06:56:21.000Z</time>
      </trkpt>
      <trkpt lat="47.50897" lon="6.76787">
        <ele>438.4</ele>
        <time>2017-03-26T06:56:22.000Z</time>
      </trkpt>
      <trkpt lat="47.50895" lon="6.76782">
        <ele>438.7</ele>
        <time>2017-03-26T06:56:23.000Z</time>
      </trkpt>
      <trkpt lat="47.50893" lon="6.76777">
        <ele>438.7</ele>
        <time>2017-03-26T06:56:24.000Z</time>
      </trkpt>
      <trkpt lat="47.50891" lon="6.76773">
        <ele>438.8</ele>
        <time>2017-03-26T06:56:25.000Z</time>
      </trkpt>
      <trkpt lat="47.50889" lon="6.76767">
        <ele>438.3</ele>
        <time>2017-03-26T06:56:26.000Z</time>
      </trkpt>
      <trkpt lat="47.50888" lon="6.76762">
        <ele>438.3</ele>
        <time>2017-03-26T06:56:27.000Z</time>
      </trkpt>
      <trkpt lat="47.50887" lon="6.76756">
        <ele>438.3</ele>
        <time>2017-03-26T06:56:28.000Z</time>
      </trkpt>
      <trkpt lat="47.50886" lon="6.76751">
        <ele>438.3</ele>
        <time>2017-03-26T06:56:29.000Z</time>
      </trkpt>
      <trkpt lat="47.50884" lon="6.76746">
        <ele>438.4</ele>
        <time>2017-03-26T06:56:30.000Z</time>
      </trkpt>
      <trkpt lat="47.50882" lon="6.7674">
        <ele>438.4</ele>
        <time>2017-03-26T06:56:31.000Z</time>
      </trkpt>
      <trkpt lat="47.5088" lon="6.76735">
        <ele>438.5</ele>
        <time>2017-03-26T06:56:32.000Z</time>
      </trkpt>
      <trkpt lat="47.50878" lon="6.76729">
        <ele>438.5</ele>
        <time>2017-03-26T06:56:33.000Z</time>
      </trkpt>
      <trkpt lat="47.50876" lon="6.76725">
        <ele>438.6</ele>
        <time>2017-03-26T06:56:34.000Z</time>
      </trkpt>
      <trkpt lat="47.50875" lon="6.76721">
        <ele>438.6</ele>
        <time>2017-03-26T06:56:35.000Z</time>
      </trkpt>
      <trkpt lat="47.50874" lon="6.76716">
        <ele>438.6</ele>
        <time>2017-03-26T06:56:36.000Z</time>
      </trkpt>
      <trkpt lat="47.50872" lon="6.76712">
        <ele>438.7</ele>
        <time>2017-03-26T06:56:37.000Z</time>
      </trkpt>
      <trkpt lat="47.5087" lon="6.76708">
        <ele>438.7</ele>
        <time>2017-03-26T06:56:38.000Z</time>
      </trkpt>
      <trkpt lat="47.50869" lon="6.76703">
        <ele>438.7</ele>
        <time>2017-03-26T06:56:39.000Z</time>
      </trkpt>
      <trkpt lat="47.50867" lon="6.76698">
        <ele>438.7</ele>
        <time>2017-03-26T06:56:40.000Z</time>
      </trkpt>
      <trkpt lat="47.50865" lon="6.76695">
        <ele>438.7</ele>
        <time>2017-03-26T06:56:41.000Z</time>
      </trkpt>
      <trkpt lat="47.50863" lon="6.7669">
        <ele>438.6</ele>
        <time>2017-03-26T06:56:42.000Z</time>
      </trkpt>
      <trkpt lat="47.50861" lon="6.76685">
        <ele>438.6</ele>
        <time>2017-03-26T06:56:43.000Z</time>
      </trkpt>
      <trkpt lat="47.50859" lon="6.76681">
        <ele>438.6</ele>
        <time>2017-03-26T06:56:44.000Z</time>
      </trkpt>
      <trkpt lat="47.50857" lon="6.76676">
        <ele>438.6</ele>
        <time>2017-03-26T06:56:45.000Z</time>
      </trkpt>
      <trkpt lat="47.50856" lon="6.76672">
        <ele>438.6</ele>
        <time>2017-03-26T06:56:46.000Z</time>
      </trkpt>
      <trkpt lat="47.50852" lon="6.76663">
        <ele>438.7</ele>
        <time>2017-03-26T06:56:48.000Z</time>
      </trkpt>
      <trkpt lat="47.5085" lon="6.76659">
        <ele>438.7</ele>
        <time>2017-03-26T06:56:49.000Z</time>
      </trkpt>
      <trkpt lat="47.50848" lon="6.76654">
        <ele>438.7</ele>
        <time>2017-03-26T06:56:50.000Z</time>
      </trkpt>
      <trkpt lat="47.50846" lon="6.7665">
        <ele>438.8</ele>
        <time>2017-03-26T06:56:51.000Z</time>
      </trkpt>
      <trkpt lat="47.50844" lon="6.76645">
        <ele>438.8</ele>
        <time>2017-03-26T06:56:52.000Z</time>
      </trkpt>
      <trkpt lat="47.50842" lon="6.76641">
        <ele>438.9</ele>
        <time>2017-03-26T06:56:53.000Z</time>
      </trkpt>
      <trkpt lat="47.50841" lon="6.76638">
        <ele>438.9</ele>
        <time>2017-03-26T06:56:54.000Z</time>
      </trkpt>
      <trkpt lat="47.50839" lon="6.76635">
        <ele>439</ele>
        <time>2017-03-26T06:56:55.000Z</time>
      </trkpt>
      <trkpt lat="47.50838" lon="6.76632">
        <ele>439.1</ele>
        <time>2017-03-26T06:56:56.000Z</time>
      </trkpt>
      <trkpt lat="47.50836" lon="6.76628">
        <ele>439.1</ele>
        <time>2017-03-26T06:56:57.000Z</time>
      </trkpt>
      <trkpt lat="47.50835" lon="6.76624">
        <ele>439.2</ele>
        <time>2017-03-26T06:56:58.000Z</time>
      </trkpt>
      <trkpt lat="47.50833" lon="6.76619">
        <ele>439.4</ele>
        <time>2017-03-26T06:57:00.000Z</time>
      </trkpt>
      <trkpt lat="47.50831" lon="6.76615">
        <ele>439.5</ele>
        <time>2017-03-26T06:57:01.000Z</time>
      </trkpt>
      <trkpt lat="47.50831" lon="6.7661">
        <ele>439.6</ele>
        <time>2017-03-26T06:57:02.000Z</time>
      </trkpt>
      <trkpt lat="47.50829" lon="6.76607">
        <ele>439.7</ele>
        <time>2017-03-26T06:57:03.000Z</time>
      </trkpt>
      <trkpt lat="47.50827" lon="6.76602">
        <ele>439.8</ele>
        <time>2017-03-26T06:57:04.000Z</time>
      </trkpt>
      <trkpt lat="47.50826" lon="6.76597">
        <ele>439.8</ele>
        <time>2017-03-26T06:57:05.000Z</time>
      </trkpt>
      <trkpt lat="47.50822" lon="6.76596">
        <ele>440</ele>
        <time>2017-03-26T06:57:07.000Z</time>
      </trkpt>
      <trkpt lat="47.50819" lon="6.76599">
        <ele>440.1</ele>
        <time>2017-03-26T06:57:08.000Z</time>
      </trkpt>
      <trkpt lat="47.50816" lon="6.766">
        <ele>440.2</ele>
        <time>2017-03-26T06:57:09.000Z</time>
      </trkpt>
      <trkpt lat="47.50813" lon="6.76597">
        <ele>440.3</ele>
        <time>2017-03-26T06:57:10.000Z</time>
      </trkpt>
      <trkpt lat="47.50811" lon="6.76594">
        <ele>440.4</ele>
        <time>2017-03-26T06:57:11.000Z</time>
      </trkpt>
      <trkpt lat="47.50809" lon="6.7659">
        <ele>440.5</ele>
        <time>2017-03-26T06:57:12.000Z</time>
      </trkpt>
      <trkpt lat="47.50806" lon="6.76588">
        <ele>440.7</ele>
        <time>2017-03-26T06:57:14.000Z</time>
      </trkpt>
      <trkpt lat="47.50804" lon="6.76589">
        <ele>440.8</ele>
        <time>2017-03-26T06:57:15.000Z</time>
      </trkpt>
      <trkpt lat="47.50801" lon="6.7659">
        <ele>440.9</ele>
        <time>2017-03-26T06:57:16.000Z</time>
      </trkpt>
      <trkpt lat="47.50798" lon="6.7659">
        <ele>441</ele>
        <time>2017-03-26T06:57:17.000Z</time>
      </trkpt>
      <trkpt lat="47.50795" lon="6.76591">
        <ele>441.1</ele>
        <time>2017-03-26T06:57:18.000Z</time>
      </trkpt>
      <trkpt lat="47.50792" lon="6.76591">
        <ele>441.3</ele>
        <time>2017-03-26T06:57:19.000Z</time>
      </trkpt>
      <trkpt lat="47.50788" lon="6.7659">
        <ele>442</ele>
        <time>2017-03-26T06:57:28.000Z</time>
      </trkpt>
      <trkpt lat="47.50787" lon="6.7659">
        <ele>442.2</ele>
        <time>2017-03-26T06:57:29.000Z</time>
      </trkpt>
      <trkpt lat="47.50783" lon="6.76591">
        <ele>442.9</ele>
        <time>2017-03-26T06:57:38.000Z</time>
      </trkpt>
      <trkpt lat="47.50783" lon="6.76591">
        <ele>443</ele>
        <time>2017-03-26T06:57:39.000Z</time>
      </trkpt>
      <trkpt lat="47.5078" lon="6.76592">
        <ele>443.4</ele>
        <time>2017-03-26T06:57:44.000Z</time>
      </trkpt>
      <trkpt lat="47.50778" lon="6.76593">
        <ele>443.5</ele>
        <time>2017-03-26T06:57:45.000Z</time>
      </trkpt>
      <trkpt lat="47.50774" lon="6.76594">
        <ele>443.6</ele>
        <time>2017-03-26T06:57:46.000Z</time>
      </trkpt>
      <trkpt lat="47.50767" lon="6.76597">
        <ele>443.7</ele>
        <time>2017-03-26T06:57:48.000Z</time>
      </trkpt>
      <trkpt lat="47.50765" lon="6.76597">
        <ele>443.7</ele>
        <time>2017-03-26T06:57:49.000Z</time>
      </trkpt>
      <trkpt lat="47.50762" lon="6.76597">
        <ele>443.8</ele>
        <time>2017-03-26T06:57:50.000Z</time>
      </trkpt>
      <trkpt lat="47.50759" lon="6.76597">
        <ele>443.9</ele>
        <time>2017-03-26T06:57:51.000Z</time>
      </trkpt>
      <trkpt lat="47.50755" lon="6.76597">
        <ele>444</ele>
        <time>2017-03-26T06:57:52.000Z</time>
      </trkpt>
      <trkpt lat="47.50752" lon="6.76597">
        <ele>444.1</ele>
        <time>2017-03-26T06:57:53.000Z</time>
      </trkpt>
      <trkpt lat="47.5075" lon="6.76596">
        <ele>444.2</ele>
        <time>2017-03-26T06:57:54.000Z</time>
      </trkpt>
      <trkpt lat="47.50746" lon="6.76596">
        <ele>444.3</ele>
        <time>2017-03-26T06:57:55.000Z</time>
      </trkpt>
      <trkpt lat="47.50742" lon="6.76596">
        <ele>444.4</ele>
        <time>2017-03-26T06:57:56.000Z</time>
      </trkpt>
      <trkpt lat="47.50738" lon="6.76596">
        <ele>444.6</ele>
        <time>2017-03-26T06:57:57.000Z</time>
      </trkpt>
      <trkpt lat="47.50735" lon="6.76596">
        <ele>444.7</ele>
        <time>2017-03-26T06:57:58.000Z</time>
      </trkpt>
      <trkpt lat="47.50731" lon="6.76596">
        <ele>444.7</ele>
        <time>2017-03-26T06:57:59.000Z</time>
      </trkpt>
      <trkpt lat="47.50728" lon="6.76596">
        <ele>444.7</ele>
        <time>2017-03-26T06:58:00.000Z</time>
      </trkpt>
      <trkpt lat="47.50725" lon="6.76596">
        <ele>444.7</ele>
        <time>2017-03-26T06:58:01.000Z</time>
      </trkpt>
      <trkpt lat="47.50722" lon="6.76595">
        <ele>444.7</ele>
        <time>2017-03-26T06:58:02.000Z</time>
      </trkpt>
      <trkpt lat="47.50718" lon="6.76594">
        <ele>444.8</ele>
        <time>2017-03-26T06:58:03.000Z</time>
      </trkpt>
      <trkpt lat="47.50714" lon="6.76593">
        <ele>444.8</ele>
        <time>2017-03-26T06:58:04.000Z</time>
      </trkpt>
      <trkpt lat="47.50711" lon="6.76592">
        <ele>444.8</ele>
        <time>2017-03-26T06:58:05.000Z</time>
      </trkpt>
      <trkpt lat="47.50708" lon="6.76591">
        <ele>444.8</ele>
        <time>2017-03-26T06:58:06.000Z</time>
      </trkpt>
      <trkpt lat="47.50705" lon="6.76591">
        <ele>444.8</ele>
        <time>2017-03-26T06:58:07.000Z</time>
      </trkpt>
      <trkpt lat="47.50702" lon="6.7659">
        <ele>444.9</ele>
        <time>2017-03-26T06:58:08.000Z</time>
      </trkpt>
      <trkpt lat="47.50698" lon="6.7659">
        <ele>444.9</ele>
        <time>2017-03-26T06:58:09.000Z</time>
      </trkpt>
      <trkpt lat="47.50696" lon="6.7659">
        <ele>444.9</ele>
        <time>2017-03-26T06:58:10.000Z</time>
      </trkpt>
      <trkpt lat="47.50693" lon="6.7659">
        <ele>445</ele>
        <time>2017-03-26T06:58:11.000Z</time>
      </trkpt>
      <trkpt lat="47.5069" lon="6.76591">
        <ele>445</ele>
        <time>2017-03-26T06:58:12.000Z</time>
      </trkpt>
      <trkpt lat="47.50686" lon="6.76591">
        <ele>445</ele>
        <time>2017-03-26T06:58:13.000Z</time>
      </trkpt>
      <trkpt lat="47.50682" lon="6.76592">
        <ele>445</ele>
        <time>2017-03-26T06:58:14.000Z</time>
      </trkpt>
      <trkpt lat="47.50678" lon="6.76593">
        <ele>445</ele>
        <time>2017-03-26T06:58:15.000Z</time>
      </trkpt>
      <trkpt lat="47.50675" lon="6.76593">
        <ele>445.1</ele>
        <time>2017-03-26T06:58:16.000Z</time>
      </trkpt>
      <trkpt lat="47.50672" lon="6.76593">
        <ele>445</ele>
        <time>2017-03-26T06:58:17.000Z</time>
      </trkpt>
      <trkpt lat="47.50669" lon="6.76595">
        <ele>445</ele>
        <time>2017-03-26T06:58:18.000Z</time>
      </trkpt>
      <trkpt lat="47.50667" lon="6.76598">
        <ele>445</ele>
        <time>2017-03-26T06:58:19.000Z</time>
      </trkpt>
      <trkpt lat="47.50664" lon="6.76598">
        <ele>445</ele>
        <time>2017-03-26T06:58:20.000Z</time>
      </trkpt>
      <trkpt lat="47.50661" lon="6.76599">
        <ele>444.8</ele>
        <time>2017-03-26T06:58:21.000Z</time>
      </trkpt>
      <trkpt lat="47.50658" lon="6.766">
        <ele>444.6</ele>
        <time>2017-03-26T06:58:22.000Z</time>
      </trkpt>
      <trkpt lat="47.50656" lon="6.766">
        <ele>444.5</ele>
        <time>2017-03-26T06:58:23.000Z</time>
      </trkpt>
      <trkpt lat="47.50653" lon="6.766">
        <ele>444.4</ele>
        <time>2017-03-26T06:58:24.000Z</time>
      </trkpt>
      <trkpt lat="47.50651" lon="6.766">
        <ele>444.4</ele>
        <time>2017-03-26T06:58:25.000Z</time>
      </trkpt>
      <trkpt lat="47.50649" lon="6.76601">
        <ele>444.4</ele>
        <time>2017-03-26T06:58:26.000Z</time>
      </trkpt>
      <trkpt lat="47.50646" lon="6.76602">
        <ele>444.5</ele>
        <time>2017-03-26T06:58:27.000Z</time>
      </trkpt>
      <trkpt lat="47.50643" lon="6.76603">
        <ele>444.5</ele>
        <time>2017-03-26T06:58:28.000Z</time>
      </trkpt>
      <trkpt lat="47.5064" lon="6.76605">
        <ele>444.6</ele>
        <time>2017-03-26T06:58:29.000Z</time>
      </trkpt>
      <trkpt lat="47.50636" lon="6.76607">
        <ele>444.6</ele>
        <time>2017-03-26T06:58:30.000Z</time>
      </trkpt>
      <trkpt lat="47.50633" lon="6.76609">
        <ele>444.7</ele>
        <time>2017-03-26T06:58:31.000Z</time>
      </trkpt>
      <trkpt lat="47.5063" lon="6.7661">
        <ele>444.7</ele>
        <time>2017-03-26T06:58:32.000Z</time>
      </trkpt>
      <trkpt lat="47.50627" lon="6.76612">
        <ele>444.7</ele>
        <time>2017-03-26T06:58:33.000Z</time>
      </trkpt>
      <trkpt lat="47.50625" lon="6.76614">
        <ele>444.8</ele>
        <time>2017-03-26T06:58:34.000Z</time>
      </trkpt>
      <trkpt lat="47.50622" lon="6.76615">
        <ele>444.7</ele>
        <time>2017-03-26T06:58:35.000Z</time>
      </trkpt>
      <trkpt lat="47.50619" lon="6.76616">
        <ele>444.8</ele>
        <time>2017-03-26T06:58:36.000Z</time>
      </trkpt>
      <trkpt lat="47.50616" lon="6.76618">
        <ele>444.9</ele>
        <time>2017-03-26T06:58:37.000Z</time>
      </trkpt>
      <trkpt lat="47.50613" lon="6.76619">
        <ele>445</ele>
        <time>2017-03-26T06:58:38.000Z</time>
      </trkpt>
      <trkpt lat="47.5061" lon="6.7662">
        <ele>445.2</ele>
        <time>2017-03-26T06:58:39.000Z</time>
      </trkpt>
      <trkpt lat="47.50608" lon="6.76621">
        <ele>445.4</ele>
        <time>2017-03-26T06:58:40.000Z</time>
      </trkpt>
      <trkpt lat="47.50604" lon="6.76623">
        <ele>445.6</ele>
        <time>2017-03-26T06:58:41.000Z</time>
      </trkpt>
      <trkpt lat="47.50601" lon="6.76625">
        <ele>445.8</ele>
        <time>2017-03-26T06:58:42.000Z</time>
      </trkpt>
      <trkpt lat="47.50597" lon="6.76626">
        <ele>446</ele>
        <time>2017-03-26T06:58:43.000Z</time>
      </trkpt>
      <trkpt lat="47.50594" lon="6.76627">
        <ele>446.3</ele>
        <time>2017-03-26T06:58:44.000Z</time>
      </trkpt>
      <trkpt lat="47.50591" lon="6.76628">
        <ele>446.5</ele>
        <time>2017-03-26T06:58:45.000Z</time>
      </trkpt>
      <trkpt lat="47.50588" lon="6.76629">
        <ele>446.8</ele>
        <time>2017-03-26T06:58:46.000Z</time>
      </trkpt>
      <trkpt lat="47.50585" lon="6.7663">
        <ele>447</ele>
        <time>2017-03-26T06:58:47.000Z</time>
      </trkpt>
      <trkpt lat="47.50582" lon="6.76631">
        <ele>447.2</ele>
        <time>2017-03-26T06:58:48.000Z</time>
      </trkpt>
      <trkpt lat="47.50578" lon="6.76632">
        <ele>447.3</ele>
        <time>2017-03-26T06:58:49.000Z</time>
      </trkpt>
      <trkpt lat="47.50574" lon="6.76632">
        <ele>447.4</ele>
        <time>2017-03-26T06:58:50.000Z</time>
      </trkpt>
      <trkpt lat="47.50572" lon="6.76633">
        <ele>447.6</ele>
        <time>2017-03-26T06:58:51.000Z</time>
      </trkpt>
      <trkpt lat="47.50569" lon="6.76634">
        <ele>447.7</ele>
        <time>2017-03-26T06:58:52.000Z</time>
      </trkpt>
      <trkpt lat="47.50565" lon="6.76635">
        <ele>447.8</ele>
        <time>2017-03-26T06:58:53.000Z</time>
      </trkpt>
      <trkpt lat="47.50563" lon="6.76636">
        <ele>448</ele>
        <time>2017-03-26T06:58:54.000Z</time>
      </trkpt>
      <trkpt lat="47.50559" lon="6.76637">
        <ele>448.1</ele>
        <time>2017-03-26T06:58:55.000Z</time>
      </trkpt>
      <trkpt lat="47.50556" lon="6.76638">
        <ele>448.2</ele>
        <time>2017-03-26T06:58:56.000Z</time>
      </trkpt>
      <trkpt lat="47.50553" lon="6.76639">
        <ele>448.3</ele>
        <time>2017-03-26T06:58:57.000Z</time>
      </trkpt>
      <trkpt lat="47.5055" lon="6.7664">
        <ele>448.5</ele>
        <time>2017-03-26T06:58:58.000Z</time>
      </trkpt>
      <trkpt lat="47.50547" lon="6.76641">
        <ele>448.7</ele>
        <time>2017-03-26T06:58:59.000Z</time>
      </trkpt>
      <trkpt lat="47.50543" lon="6.76642">
        <ele>448.8</ele>
        <time>2017-03-26T06:59:00.000Z</time>
      </trkpt>
      <trkpt lat="47.50539" lon="6.76643">
        <ele>448.9</ele>
        <time>2017-03-26T06:59:01.000Z</time>
      </trkpt>
      <trkpt lat="47.50536" lon="6.76644">
        <ele>449</ele>
        <time>2017-03-26T06:59:02.000Z</time>
      </trkpt>
      <trkpt lat="47.50531" lon="6.76645">
        <ele>449.8</ele>
        <time>2017-03-26T06:59:03.000Z</time>
      </trkpt>
      <trkpt lat="47.50526" lon="6.76647">
        <ele>450.4</ele>
        <time>2017-03-26T06:59:04.000Z</time>
      </trkpt>
      <trkpt lat="47.50521" lon="6.76648">
        <ele>450.7</ele>
        <time>2017-03-26T06:59:05.000Z</time>
      </trkpt>
      <trkpt lat="47.50516" lon="6.76648">
        <ele>451</ele>
        <time>2017-03-26T06:59:06.000Z</time>
      </trkpt>
      <trkpt lat="47.50512" lon="6.76649">
        <ele>452.3</ele>
        <time>2017-03-26T06:59:07.000Z</time>
      </trkpt>
      <trkpt lat="47.50507" lon="6.7665">
        <ele>453.1</ele>
        <time>2017-03-26T06:59:08.000Z</time>
      </trkpt>
      <trkpt lat="47.50503" lon="6.76652">
        <ele>453.6</ele>
        <time>2017-03-26T06:59:09.000Z</time>
      </trkpt>
      <trkpt lat="47.50498" lon="6.76654">
        <ele>454</ele>
        <time>2017-03-26T06:59:10.000Z</time>
      </trkpt>
      <trkpt lat="47.50493" lon="6.76655">
        <ele>454.2</ele>
        <time>2017-03-26T06:59:11.000Z</time>
      </trkpt>
      <trkpt lat="47.50487" lon="6.76657">
        <ele>454</ele>
        <time>2017-03-26T06:59:12.000Z</time>
      </trkpt>
      <trkpt lat="47.50483" lon="6.76659">
        <ele>453.6</ele>
        <time>2017-03-26T06:59:13.000Z</time>
      </trkpt>
      <trkpt lat="47.50477" lon="6.76661">
        <ele>453.9</ele>
        <time>2017-03-26T06:59:14.000Z</time>
      </trkpt>
      <trkpt lat="47.50472" lon="6.76664">
        <ele>454.5</ele>
        <time>2017-03-26T06:59:15.000Z</time>
      </trkpt>
      <trkpt lat="47.50467" lon="6.76666">
        <ele>455.2</ele>
        <time>2017-03-26T06:59:16.000Z</time>
      </trkpt>
      <trkpt lat="47.50462" lon="6.76668">
        <ele>455.6</ele>
        <time>2017-03-26T06:59:17.000Z</time>
      </trkpt>
      <trkpt lat="47.50458" lon="6.7667">
        <ele>455.3</ele>
        <time>2017-03-26T06:59:18.000Z</time>
      </trkpt>
      <trkpt lat="47.50452" lon="6.76672">
        <ele>454.9</ele>
        <time>2017-03-26T06:59:19.000Z</time>
      </trkpt>
      <trkpt lat="47.50447" lon="6.76674">
        <ele>454.2</ele>
        <time>2017-03-26T06:59:20.000Z</time>
      </trkpt>
      <trkpt lat="47.50443" lon="6.76675">
        <ele>453</ele>
        <time>2017-03-26T06:59:21.000Z</time>
      </trkpt>
      <trkpt lat="47.50439" lon="6.76677">
        <ele>452.3</ele>
        <time>2017-03-26T06:59:22.000Z</time>
      </trkpt>
      <trkpt lat="47.50434" lon="6.76679">
        <ele>451.2</ele>
        <time>2017-03-26T06:59:23.000Z</time>
      </trkpt>
      <trkpt lat="47.50429" lon="6.76681">
        <ele>449.5</ele>
        <time>2017-03-26T06:59:24.000Z</time>
      </trkpt>
      <trkpt lat="47.50425" lon="6.76683">
        <ele>448.4</ele>
        <time>2017-03-26T06:59:25.000Z</time>
      </trkpt>
      <trkpt lat="47.5042" lon="6.76685">
        <ele>447.9</ele>
        <time>2017-03-26T06:59:26.000Z</time>
      </trkpt>
      <trkpt lat="47.50415" lon="6.76686">
        <ele>446.8</ele>
        <time>2017-03-26T06:59:27.000Z</time>
      </trkpt>
      <trkpt lat="47.5041" lon="6.76688">
        <ele>446.5</ele>
        <time>2017-03-26T06:59:28.000Z</time>
      </trkpt>
      <trkpt lat="47.50406" lon="6.7669">
        <ele>446.3</ele>
        <time>2017-03-26T06:59:29.000Z</time>
      </trkpt>
      <trkpt lat="47.50401" lon="6.76692">
        <ele>445.1</ele>
        <time>2017-03-26T06:59:30.000Z</time>
      </trkpt>
      <trkpt lat="47.50396" lon="6.76694">
        <ele>444.2</ele>
        <time>2017-03-26T06:59:31.000Z</time>
      </trkpt>
      <trkpt lat="47.50392" lon="6.76697">
        <ele>444</ele>
        <time>2017-03-26T06:59:32.000Z</time>
      </trkpt>
      <trkpt lat="47.50388" lon="6.76699">
        <ele>444.5</ele>
        <time>2017-03-26T06:59:33.000Z</time>
      </trkpt>
      <trkpt lat="47.50383" lon="6.767">
        <ele>444.7</ele>
        <time>2017-03-26T06:59:34.000Z</time>
      </trkpt>
      <trkpt lat="47.50378" lon="6.76702">
        <ele>444.9</ele>
        <time>2017-03-26T06:59:35.000Z</time>
      </trkpt>
      <trkpt lat="47.50373" lon="6.76705">
        <ele>445.3</ele>
        <time>2017-03-26T06:59:36.000Z</time>
      </trkpt>
      <trkpt lat="47.50369" lon="6.76707">
        <ele>445.1</ele>
        <time>2017-03-26T06:59:37.000Z</time>
      </trkpt>
      <trkpt lat="47.50366" lon="6.76708">
        <ele>445.3</ele>
        <time>2017-03-26T06:59:38.000Z</time>
      </trkpt>
      <trkpt lat="47.50362" lon="6.7671">
        <ele>445.3</ele>
        <time>2017-03-26T06:59:39.000Z</time>
      </trkpt>
      <trkpt lat="47.50357" lon="6.76712">
        <ele>446.3</ele>
        <time>2017-03-26T06:59:40.000Z</time>
      </trkpt>
      <trkpt lat="47.50353" lon="6.76714">
        <ele>447.1</ele>
        <time>2017-03-26T06:59:41.000Z</time>
      </trkpt>
      <trkpt lat="47.50349" lon="6.76716">
        <ele>447.3</ele>
        <time>2017-03-26T06:59:42.000Z</time>
      </trkpt>
      <trkpt lat="47.50345" lon="6.76717">
        <ele>447.3</ele>
        <time>2017-03-26T06:59:43.000Z</time>
      </trkpt>
      <trkpt lat="47.5034" lon="6.76719">
        <ele>447.2</ele>
        <time>2017-03-26T06:59:44.000Z</time>
      </trkpt>
      <trkpt lat="47.50336" lon="6.76721">
        <ele>446.7</ele>
        <time>2017-03-26T06:59:45.000Z</time>
      </trkpt>
      <trkpt lat="47.5033" lon="6.76723">
        <ele>446.6</ele>
        <time>2017-03-26T06:59:46.000Z</time>
      </trkpt>
      <trkpt lat="47.50323" lon="6.76728">
        <ele>448</ele>
        <time>2017-03-26T06:59:48.000Z</time>
      </trkpt>
      <trkpt lat="47.5032" lon="6.7673">
        <ele>449.1</ele>
        <time>2017-03-26T06:59:49.000Z</time>
      </trkpt>
      <trkpt lat="47.50315" lon="6.76732">
        <ele>449</ele>
        <time>2017-03-26T06:59:50.000Z</time>
      </trkpt>
      <trkpt lat="47.50311" lon="6.76734">
        <ele>448.5</ele>
        <time>2017-03-26T06:59:51.000Z</time>
      </trkpt>
      <trkpt lat="47.50307" lon="6.76735">
        <ele>448.4</ele>
        <time>2017-03-26T06:59:52.000Z</time>
      </trkpt>
      <trkpt lat="47.50303" lon="6.76737">
        <ele>448.4</ele>
        <time>2017-03-26T06:59:53.000Z</time>
      </trkpt>
      <trkpt lat="47.50298" lon="6.76739">
        <ele>448.4</ele>
        <time>2017-03-26T06:59:54.000Z</time>
      </trkpt>
      <trkpt lat="47.50293" lon="6.7674">
        <ele>448.3</ele>
        <time>2017-03-26T06:59:55.000Z</time>
      </trkpt>
      <trkpt lat="47.50288" lon="6.7674">
        <ele>448.2</ele>
        <time>2017-03-26T06:59:56.000Z</time>
      </trkpt>
      <trkpt lat="47.50284" lon="6.7674">
        <ele>447.8</ele>
        <time>2017-03-26T06:59:57.000Z</time>
      </trkpt>
      <trkpt lat="47.50281" lon="6.7674">
        <ele>448.3</ele>
        <time>2017-03-26T06:59:58.000Z</time>
      </trkpt>
      <trkpt lat="47.50277" lon="6.76741">
        <ele>449.2</ele>
        <time>2017-03-26T06:59:59.000Z</time>
      </trkpt>
      <trkpt lat="47.50273" lon="6.76742">
        <ele>449.5</ele>
        <time>2017-03-26T07:00:00.000Z</time>
      </trkpt>
      <trkpt lat="47.50269" lon="6.76742">
        <ele>449.6</ele>
        <time>2017-03-26T07:00:01.000Z</time>
      </trkpt>
      <trkpt lat="47.50265" lon="6.76744">
        <ele>449.5</ele>
        <time>2017-03-26T07:00:02.000Z</time>
      </trkpt>
      <trkpt lat="47.50262" lon="6.76744">
        <ele>449.5</ele>
        <time>2017-03-26T07:00:03.000Z</time>
      </trkpt>
      <trkpt lat="47.50259" lon="6.76746">
        <ele>449.5</ele>
        <time>2017-03-26T07:00:04.000Z</time>
      </trkpt>
      <trkpt lat="47.50255" lon="6.76746">
        <ele>449.5</ele>
        <time>2017-03-26T07:00:05.000Z</time>
      </trkpt>
      <trkpt lat="47.50251" lon="6.76746">
        <ele>449.6</ele>
        <time>2017-03-26T07:00:06.000Z</time>
      </trkpt>
      <trkpt lat="47.50248" lon="6.76744">
        <ele>449.8</ele>
        <time>2017-03-26T07:00:07.000Z</time>
      </trkpt>
      <trkpt lat="47.50246" lon="6.76742">
        <ele>449.8</ele>
        <time>2017-03-26T07:00:08.000Z</time>
      </trkpt>
      <trkpt lat="47.50244" lon="6.76738">
        <ele>449.8</ele>
        <time>2017-03-26T07:00:09.000Z</time>
      </trkpt>
      <trkpt lat="47.50242" lon="6.76734">
        <ele>449.8</ele>
        <time>2017-03-26T07:00:10.000Z</time>
      </trkpt>
      <trkpt lat="47.5024" lon="6.7673">
        <ele>449.9</ele>
        <time>2017-03-26T07:00:11.000Z</time>
      </trkpt>
      <trkpt lat="47.50238" lon="6.76726">
        <ele>449.8</ele>
        <time>2017-03-26T07:00:12.000Z</time>
      </trkpt>
      <trkpt lat="47.50236" lon="6.76721">
        <ele>449.8</ele>
        <time>2017-03-26T07:00:13.000Z</time>
      </trkpt>
      <trkpt lat="47.50234" lon="6.76716">
        <ele>449.8</ele>
        <time>2017-03-26T07:00:14.000Z</time>
      </trkpt>
      <trkpt lat="47.50232" lon="6.76711">
        <ele>449.7</ele>
        <time>2017-03-26T07:00:15.000Z</time>
      </trkpt>
      <trkpt lat="47.50231" lon="6.76707">
        <ele>449.7</ele>
        <time>2017-03-26T07:00:16.000Z</time>
      </trkpt>
      <trkpt lat="47.50228" lon="6.76702">
        <ele>449.8</ele>
        <time>2017-03-26T07:00:17.000Z</time>
      </trkpt>
      <trkpt lat="47.50226" lon="6.76697">
        <ele>449.9</ele>
        <time>2017-03-26T07:00:18.000Z</time>
      </trkpt>
      <trkpt lat="47.50224" lon="6.76693">
        <ele>451.1</ele>
        <time>2017-03-26T07:00:19.000Z</time>
      </trkpt>
      <trkpt lat="47.50223" lon="6.76687">
        <ele>451.8</ele>
        <time>2017-03-26T07:00:20.000Z</time>
      </trkpt>
      <trkpt lat="47.50221" lon="6.76681">
        <ele>452.1</ele>
        <time>2017-03-26T07:00:21.000Z</time>
      </trkpt>
      <trkpt lat="47.50219" lon="6.76676">
        <ele>452</ele>
        <time>2017-03-26T07:00:22.000Z</time>
      </trkpt>
      <trkpt lat="47.50217" lon="6.76668">
        <ele>451.8</ele>
        <time>2017-03-26T07:00:23.000Z</time>
      </trkpt>
      <trkpt lat="47.50215" lon="6.76662">
        <ele>451.9</ele>
        <time>2017-03-26T07:00:24.000Z</time>
      </trkpt>
      <trkpt lat="47.50213" lon="6.76655">
        <ele>452.3</ele>
        <time>2017-03-26T07:00:25.000Z</time>
      </trkpt>
      <trkpt lat="47.50211" lon="6.76649">
        <ele>452.3</ele>
        <time>2017-03-26T07:00:26.000Z</time>
      </trkpt>
      <trkpt lat="47.50209" lon="6.76644">
        <ele>451.8</ele>
        <time>2017-03-26T07:00:27.000Z</time>
      </trkpt>
      <trkpt lat="47.50207" lon="6.76638">
        <ele>451.6</ele>
        <time>2017-03-26T07:00:28.000Z</time>
      </trkpt>
      <trkpt lat="47.50204" lon="6.76631">
        <ele>451</ele>
        <time>2017-03-26T07:00:29.000Z</time>
      </trkpt>
      <trkpt lat="47.50203" lon="6.76625">
        <ele>451</ele>
        <time>2017-03-26T07:00:30.000Z</time>
      </trkpt>
      <trkpt lat="47.50201" lon="6.7662">
        <ele>451.2</ele>
        <time>2017-03-26T07:00:31.000Z</time>
      </trkpt>
      <trkpt lat="47.50199" lon="6.76613">
        <ele>450.7</ele>
        <time>2017-03-26T07:00:32.000Z</time>
      </trkpt>
      <trkpt lat="47.50196" lon="6.76605">
        <ele>450.4</ele>
        <time>2017-03-26T07:00:33.000Z</time>
      </trkpt>
      <trkpt lat="47.50194" lon="6.76599">
        <ele>450.3</ele>
        <time>2017-03-26T07:00:34.000Z</time>
      </trkpt>
      <trkpt lat="47.50194" lon="6.76593">
        <ele>450.3</ele>
        <time>2017-03-26T07:00:35.000Z</time>
      </trkpt>
      <trkpt lat="47.50194" lon="6.76589">
        <ele>450.3</ele>
        <time>2017-03-26T07:00:36.000Z</time>
      </trkpt>
      <trkpt lat="47.50194" lon="6.76585">
        <ele>450.1</ele>
        <time>2017-03-26T07:00:37.000Z</time>
      </trkpt>
      <trkpt lat="47.50193" lon="6.7658">
        <ele>450</ele>
        <time>2017-03-26T07:00:38.000Z</time>
      </trkpt>
      <trkpt lat="47.50193" lon="6.76574">
        <ele>449.9</ele>
        <time>2017-03-26T07:00:39.000Z</time>
      </trkpt>
      <trkpt lat="47.50194" lon="6.76568">
        <ele>449.7</ele>
        <time>2017-03-26T07:00:40.000Z</time>
      </trkpt>
      <trkpt lat="47.50197" lon="6.76567">
        <ele>449.7</ele>
        <time>2017-03-26T07:00:41.000Z</time>
      </trkpt>
      <trkpt lat="47.502" lon="6.76567">
        <ele>447.9</ele>
        <time>2017-03-26T07:00:42.000Z</time>
      </trkpt>
      <trkpt lat="47.50203" lon="6.76566">
        <ele>447.8</ele>
        <time>2017-03-26T07:00:43.000Z</time>
      </trkpt>
      <trkpt lat="47.50206" lon="6.76566">
        <ele>447.1</ele>
        <time>2017-03-26T07:00:44.000Z</time>
      </trkpt>
      <trkpt lat="47.50209" lon="6.76565">
        <ele>447</ele>
        <time>2017-03-26T07:00:45.000Z</time>
      </trkpt>
      <trkpt lat="47.5021" lon="6.76565">
        <ele>446.9</ele>
        <time>2017-03-26T07:00:46.000Z</time>
      </trkpt>
      <trkpt lat="47.50215" lon="6.76562">
        <ele>446.8</ele>
        <time>2017-03-26T07:00:48.000Z</time>
      </trkpt>
      <trkpt lat="47.50217" lon="6.76558">
        <ele>446.3</ele>
        <time>2017-03-26T07:00:49.000Z</time>
      </trkpt>
      <trkpt lat="47.50218" lon="6.7655">
        <ele>446.2</ele>
        <time>2017-03-26T07:00:50.000Z</time>
      </trkpt>
      <trkpt lat="47.5022" lon="6.76542">
        <ele>446.1</ele>
        <time>2017-03-26T07:00:51.000Z</time>
      </trkpt>
      <trkpt lat="47.50219" lon="6.76538">
        <ele>446</ele>
        <time>2017-03-26T07:00:52.000Z</time>
      </trkpt>
      <trkpt lat="47.50217" lon="6.76532">
        <ele>446.1</ele>
        <time>2017-03-26T07:00:53.000Z</time>
      </trkpt>
      <trkpt lat="47.50217" lon="6.76525">
        <ele>446.2</ele>
        <time>2017-03-26T07:00:54.000Z</time>
      </trkpt>
      <trkpt lat="47.50216" lon="6.76519">
        <ele>445.9</ele>
        <time>2017-03-26T07:00:55.000Z</time>
      </trkpt>
      <trkpt lat="47.50214" lon="6.76513">
        <ele>445.1</ele>
        <time>2017-03-26T07:00:56.000Z</time>
      </trkpt>
      <trkpt lat="47.50212" lon="6.76507">
        <ele>445.3</ele>
        <time>2017-03-26T07:00:57.000Z</time>
      </trkpt>
      <trkpt lat="47.50209" lon="6.76499">
        <ele>445.3</ele>
        <time>2017-03-26T07:00:58.000Z</time>
      </trkpt>
      <trkpt lat="47.50207" lon="6.76493">
        <ele>445.7</ele>
        <time>2017-03-26T07:00:59.000Z</time>
      </trkpt>
      <trkpt lat="47.50204" lon="6.76487">
        <ele>446.1</ele>
        <time>2017-03-26T07:01:00.000Z</time>
      </trkpt>
      <trkpt lat="47.50202" lon="6.7648">
        <ele>446.6</ele>
        <time>2017-03-26T07:01:01.000Z</time>
      </trkpt>
      <trkpt lat="47.502" lon="6.76472">
        <ele>447.5</ele>
        <time>2017-03-26T07:01:02.000Z</time>
      </trkpt>
      <trkpt lat="47.50197" lon="6.76462">
        <ele>448.3</ele>
        <time>2017-03-26T07:01:03.000Z</time>
      </trkpt>
      <trkpt lat="47.50195" lon="6.76454">
        <ele>449.5</ele>
        <time>2017-03-26T07:01:04.000Z</time>
      </trkpt>
      <trkpt lat="47.50194" lon="6.76448">
        <ele>449.6</ele>
        <time>2017-03-26T07:01:05.000Z</time>
      </trkpt>
      <trkpt lat="47.50192" lon="6.76443">
        <ele>449.6</ele>
        <time>2017-03-26T07:01:06.000Z</time>
      </trkpt>
      <trkpt lat="47.5019" lon="6.76435">
        <ele>450.3</ele>
        <time>2017-03-26T07:01:07.000Z</time>
      </trkpt>
      <trkpt lat="47.50187" lon="6.76427">
        <ele>451</ele>
        <time>2017-03-26T07:01:08.000Z</time>
      </trkpt>
      <trkpt lat="47.50185" lon="6.7642">
        <ele>451.7</ele>
        <time>2017-03-26T07:01:09.000Z</time>
      </trkpt>
      <trkpt lat="47.50182" lon="6.76412">
        <ele>452</ele>
        <time>2017-03-26T07:01:10.000Z</time>
      </trkpt>
      <trkpt lat="47.50179" lon="6.76402">
        <ele>452.5</ele>
        <time>2017-03-26T07:01:11.000Z</time>
      </trkpt>
      <trkpt lat="47.50177" lon="6.76393">
        <ele>452.5</ele>
        <time>2017-03-26T07:01:12.000Z</time>
      </trkpt>
      <trkpt lat="47.50174" lon="6.76386">
        <ele>452.8</ele>
        <time>2017-03-26T07:01:13.000Z</time>
      </trkpt>
      <trkpt lat="47.50172" lon="6.76379">
        <ele>452.9</ele>
        <time>2017-03-26T07:01:14.000Z</time>
      </trkpt>
      <trkpt lat="47.50171" lon="6.76371">
        <ele>454.1</ele>
        <time>2017-03-26T07:01:15.000Z</time>
      </trkpt>
      <trkpt lat="47.5017" lon="6.76362">
        <ele>454.9</ele>
        <time>2017-03-26T07:01:16.000Z</time>
      </trkpt>
      <trkpt lat="47.50168" lon="6.76356">
        <ele>454.9</ele>
        <time>2017-03-26T07:01:17.000Z</time>
      </trkpt>
      <trkpt lat="47.50167" lon="6.76347">
        <ele>454</ele>
        <time>2017-03-26T07:01:18.000Z</time>
      </trkpt>
      <trkpt lat="47.50165" lon="6.76337">
        <ele>452.8</ele>
        <time>2017-03-26T07:01:19.000Z</time>
      </trkpt>
      <trkpt lat="47.50162" lon="6.76325">
        <ele>452.8</ele>
        <time>2017-03-26T07:01:20.000Z</time>
      </trkpt>
      <trkpt lat="47.50161" lon="6.76313">
        <ele>451.7</ele>
        <time>2017-03-26T07:01:21.000Z</time>
      </trkpt>
      <trkpt lat="47.5016" lon="6.76306">
        <ele>451.6</ele>
        <time>2017-03-26T07:01:22.000Z</time>
      </trkpt>
      <trkpt lat="47.50157" lon="6.76298">
        <ele>451.7</ele>
        <time>2017-03-26T07:01:23.000Z</time>
      </trkpt>
      <trkpt lat="47.50155" lon="6.76287">
        <ele>450.4</ele>
        <time>2017-03-26T07:01:24.000Z</time>
      </trkpt>
      <trkpt lat="47.50153" lon="6.76275">
        <ele>449.3</ele>
        <time>2017-03-26T07:01:25.000Z</time>
      </trkpt>
      <trkpt lat="47.5015" lon="6.7626">
        <ele>448.7</ele>
        <time>2017-03-26T07:01:26.000Z</time>
      </trkpt>
      <trkpt lat="47.5014" lon="6.76227">
        <ele>445.4</ele>
        <time>2017-03-26T07:01:27.000Z</time>
      </trkpt>
      <trkpt lat="47.50132" lon="6.76199">
        <ele>441.3</ele>
        <time>2017-03-26T07:01:28.000Z</time>
      </trkpt>
      <trkpt lat="47.50126" lon="6.76173">
        <ele>437.9</ele>
        <time>2017-03-26T07:01:29.000Z</time>
      </trkpt>
      <trkpt lat="47.50121" lon="6.76154">
        <ele>436</ele>
        <time>2017-03-26T07:01:30.000Z</time>
      </trkpt>
      <trkpt lat="47.50117" lon="6.76136">
        <ele>434</ele>
        <time>2017-03-26T07:01:31.000Z</time>
      </trkpt>
      <trkpt lat="47.50113" lon="6.76121">
        <ele>431.3</ele>
        <time>2017-03-26T07:01:32.000Z</time>
      </trkpt>
      <trkpt lat="47.50111" lon="6.76107">
        <ele>430</ele>
        <time>2017-03-26T07:01:33.000Z</time>
      </trkpt>
      <trkpt lat="47.50109" lon="6.76093">
        <ele>429.1</ele>
        <time>2017-03-26T07:01:34.000Z</time>
      </trkpt>
      <trkpt lat="47.50107" lon="6.76079">
        <ele>429</ele>
        <time>2017-03-26T07:01:35.000Z</time>
      </trkpt>
      <trkpt lat="47.50104" lon="6.76064">
        <ele>429.1</ele>
        <time>2017-03-26T07:01:36.000Z</time>
      </trkpt>
      <trkpt lat="47.50102" lon="6.76051">
        <ele>429.6</ele>
        <time>2017-03-26T07:01:37.000Z</time>
      </trkpt>
      <trkpt lat="47.501" lon="6.76038">
        <ele>430.4</ele>
        <time>2017-03-26T07:01:38.000Z</time>
      </trkpt>
      <trkpt lat="47.50096" lon="6.76023">
        <ele>430.6</ele>
        <time>2017-03-26T07:01:39.000Z</time>
      </trkpt>
      <trkpt lat="47.50091" lon="6.76009">
        <ele>431.1</ele>
        <time>2017-03-26T07:01:40.000Z</time>
      </trkpt>
      <trkpt lat="47.50085" lon="6.75994">
        <ele>430.6</ele>
        <time>2017-03-26T07:01:41.000Z</time>
      </trkpt>
      <trkpt lat="47.50077" lon="6.75978">
        <ele>429.7</ele>
        <time>2017-03-26T07:01:42.000Z</time>
      </trkpt>
      <trkpt lat="47.50073" lon="6.75966">
        <ele>428.7</ele>
        <time>2017-03-26T07:01:43.000Z</time>
      </trkpt>
      <trkpt lat="47.50068" lon="6.75955">
        <ele>428.2</ele>
        <time>2017-03-26T07:01:44.000Z</time>
      </trkpt>
      <trkpt lat="47.50064" lon="6.75948">
        <ele>427.4</ele>
        <time>2017-03-26T07:01:45.000Z</time>
      </trkpt>
      <trkpt lat="47.50058" lon="6.75936">
        <ele>426.5</ele>
        <time>2017-03-26T07:01:46.000Z</time>
      </trkpt>
      <trkpt lat="47.50053" lon="6.75927">
        <ele>426.1</ele>
        <time>2017-03-26T07:01:47.000Z</time>
      </trkpt>
      <trkpt lat="47.50047" lon="6.75919">
        <ele>425.3</ele>
        <time>2017-03-26T07:01:48.000Z</time>
      </trkpt>
      <trkpt lat="47.50041" lon="6.75913">
        <ele>425</ele>
        <time>2017-03-26T07:01:49.000Z</time>
      </trkpt>
      <trkpt lat="47.50037" lon="6.75906">
        <ele>424.7</ele>
        <time>2017-03-26T07:01:50.000Z</time>
      </trkpt>
      <trkpt lat="47.50033" lon="6.75901">
        <ele>425.2</ele>
        <time>2017-03-26T07:01:51.000Z</time>
      </trkpt>
      <trkpt lat="47.50028" lon="6.75895">
        <ele>424.9</ele>
        <time>2017-03-26T07:01:52.000Z</time>
      </trkpt>
      <trkpt lat="47.50024" lon="6.75891">
        <ele>425.6</ele>
        <time>2017-03-26T07:01:53.000Z</time>
      </trkpt>
      <trkpt lat="47.5002" lon="6.75883">
        <ele>425.8</ele>
        <time>2017-03-26T07:01:54.000Z</time>
      </trkpt>
      <trkpt lat="47.50015" lon="6.75873">
        <ele>426.5</ele>
        <time>2017-03-26T07:01:55.000Z</time>
      </trkpt>
      <trkpt lat="47.50012" lon="6.75866">
        <ele>427.9</ele>
        <time>2017-03-26T07:01:56.000Z</time>
      </trkpt>
      <trkpt lat="47.50007" lon="6.75857">
        <ele>428.9</ele>
        <time>2017-03-26T07:01:57.000Z</time>
      </trkpt>
      <trkpt lat="47.50001" lon="6.75847">
        <ele>429.2</ele>
        <time>2017-03-26T07:01:58.000Z</time>
      </trkpt>
      <trkpt lat="47.49995" lon="6.75837">
        <ele>429.6</ele>
        <time>2017-03-26T07:01:59.000Z</time>
      </trkpt>
      <trkpt lat="47.4999" lon="6.75829">
        <ele>428.7</ele>
        <time>2017-03-26T07:02:00.000Z</time>
      </trkpt>
      <trkpt lat="47.49984" lon="6.75819">
        <ele>427</ele>
        <time>2017-03-26T07:02:01.000Z</time>
      </trkpt>
      <trkpt lat="47.49978" lon="6.75808">
        <ele>426.1</ele>
        <time>2017-03-26T07:02:02.000Z</time>
      </trkpt>
      <trkpt lat="47.49972" lon="6.75806">
        <ele>426.3</ele>
        <time>2017-03-26T07:02:03.000Z</time>
      </trkpt>
      <trkpt lat="47.49966" lon="6.75797">
        <ele>425.2</ele>
        <time>2017-03-26T07:02:04.000Z</time>
      </trkpt>
      <trkpt lat="47.49955" lon="6.75774">
        <ele>422.3</ele>
        <time>2017-03-26T07:02:05.000Z</time>
      </trkpt>
      <trkpt lat="47.49945" lon="6.75755">
        <ele>421</ele>
        <time>2017-03-26T07:02:06.000Z</time>
      </trkpt>
      <trkpt lat="47.49938" lon="6.75744">
        <ele>418.3</ele>
        <time>2017-03-26T07:02:07.000Z</time>
      </trkpt>
      <trkpt lat="47.49931" lon="6.75734">
        <ele>417.9</ele>
        <time>2017-03-26T07:02:08.000Z</time>
      </trkpt>
      <trkpt lat="47.49924" lon="6.75723">
        <ele>417.9</ele>
        <time>2017-03-26T07:02:09.000Z</time>
      </trkpt>
      <trkpt lat="47.49916" lon="6.75708">
        <ele>417.7</ele>
        <time>2017-03-26T07:02:10.000Z</time>
      </trkpt>
      <trkpt lat="47.49909" lon="6.75706">
        <ele>419.3</ele>
        <time>2017-03-26T07:02:11.000Z</time>
      </trkpt>
      <trkpt lat="47.49898" lon="6.75709">
        <ele>420.5</ele>
        <time>2017-03-26T07:02:12.000Z</time>
      </trkpt>
      <trkpt lat="47.49891" lon="6.7571">
        <ele>421.2</ele>
        <time>2017-03-26T07:02:13.000Z</time>
      </trkpt>
      <trkpt lat="47.49884" lon="6.75713">
        <ele>421.5</ele>
        <time>2017-03-26T07:02:14.000Z</time>
      </trkpt>
      <trkpt lat="47.49875" lon="6.75717">
        <ele>421.6</ele>
        <time>2017-03-26T07:02:15.000Z</time>
      </trkpt>
      <trkpt lat="47.49865" lon="6.7572">
        <ele>421.3</ele>
        <time>2017-03-26T07:02:16.000Z</time>
      </trkpt>
      <trkpt lat="47.49855" lon="6.75723">
        <ele>420</ele>
        <time>2017-03-26T07:02:17.000Z</time>
      </trkpt>
      <trkpt lat="47.49844" lon="6.75725">
        <ele>418.2</ele>
        <time>2017-03-26T07:02:18.000Z</time>
      </trkpt>
      <trkpt lat="47.49837" lon="6.75725">
        <ele>418</ele>
        <time>2017-03-26T07:02:19.000Z</time>
      </trkpt>
      <trkpt lat="47.49829" lon="6.75729">
        <ele>418</ele>
        <time>2017-03-26T07:02:20.000Z</time>
      </trkpt>
      <trkpt lat="47.49821" lon="6.75733">
        <ele>416.2</ele>
        <time>2017-03-26T07:02:21.000Z</time>
      </trkpt>
      <trkpt lat="47.49811" lon="6.75739">
        <ele>414</ele>
        <time>2017-03-26T07:02:22.000Z</time>
      </trkpt>
      <trkpt lat="47.49803" lon="6.75742">
        <ele>411.1</ele>
        <time>2017-03-26T07:02:23.000Z</time>
      </trkpt>
      <trkpt lat="47.49794" lon="6.75746">
        <ele>407.9</ele>
        <time>2017-03-26T07:02:24.000Z</time>
      </trkpt>
      <trkpt lat="47.49782" lon="6.75753">
        <ele>405.7</ele>
        <time>2017-03-26T07:02:25.000Z</time>
      </trkpt>
      <trkpt lat="47.49766" lon="6.75758">
        <ele>403.5</ele>
        <time>2017-03-26T07:02:26.000Z</time>
      </trkpt>
      <trkpt lat="47.49752" lon="6.75761">
        <ele>401.7</ele>
        <time>2017-03-26T07:02:27.000Z</time>
      </trkpt>
      <trkpt lat="47.49739" lon="6.75766">
        <ele>399.7</ele>
        <time>2017-03-26T07:02:28.000Z</time>
      </trkpt>
      <trkpt lat="47.49729" lon="6.75771">
        <ele>396.6</ele>
        <time>2017-03-26T07:02:29.000Z</time>
      </trkpt>
      <trkpt lat="47.49719" lon="6.75775">
        <ele>394.6</ele>
        <time>2017-03-26T07:02:30.000Z</time>
      </trkpt>
      <trkpt lat="47.49712" lon="6.75779">
        <ele>392.8</ele>
        <time>2017-03-26T07:02:31.000Z</time>
      </trkpt>
      <trkpt lat="47.49703" lon="6.75783">
        <ele>392.3</ele>
        <time>2017-03-26T07:02:32.000Z</time>
      </trkpt>
      <trkpt lat="47.49694" lon="6.75786">
        <ele>392.1</ele>
        <time>2017-03-26T07:02:33.000Z</time>
      </trkpt>
      <trkpt lat="47.49686" lon="6.75788">
        <ele>391.8</ele>
        <time>2017-03-26T07:02:34.000Z</time>
      </trkpt>
      <trkpt lat="47.49679" lon="6.75789">
        <ele>391.3</ele>
        <time>2017-03-26T07:02:35.000Z</time>
      </trkpt>
      <trkpt lat="47.49672" lon="6.75792">
        <ele>390.6</ele>
        <time>2017-03-26T07:02:36.000Z</time>
      </trkpt>
      <trkpt lat="47.49665" lon="6.75794">
        <ele>390.1</ele>
        <time>2017-03-26T07:02:37.000Z</time>
      </trkpt>
      <trkpt lat="47.49658" lon="6.75796">
        <ele>388.7</ele>
        <time>2017-03-26T07:02:38.000Z</time>
      </trkpt>
      <trkpt lat="47.49652" lon="6.758">
        <ele>387.8</ele>
        <time>2017-03-26T07:02:39.000Z</time>
      </trkpt>
      <trkpt lat="47.49645" lon="6.75806">
        <ele>387.2</ele>
        <time>2017-03-26T07:02:40.000Z</time>
      </trkpt>
      <trkpt lat="47.49638" lon="6.75812">
        <ele>386.3</ele>
        <time>2017-03-26T07:02:41.000Z</time>
      </trkpt>
      <trkpt lat="47.49632" lon="6.75817">
        <ele>385.1</ele>
        <time>2017-03-26T07:02:42.000Z</time>
      </trkpt>
      <trkpt lat="47.49627" lon="6.75823">
        <ele>384</ele>
        <time>2017-03-26T07:02:43.000Z</time>
      </trkpt>
      <trkpt lat="47.49624" lon="6.75824">
        <ele>383.9</ele>
        <time>2017-03-26T07:02:44.000Z</time>
      </trkpt>
      <trkpt lat="47.49622" lon="6.75818">
        <ele>383.9</ele>
        <time>2017-03-26T07:02:45.000Z</time>
      </trkpt>
      <trkpt lat="47.49622" lon="6.75818">
        <ele>384.1</ele>
        <time>2017-03-26T07:02:48.000Z</time>
      </trkpt>
      <trkpt lat="47.49607" lon="6.75799">
        <ele>384.4</ele>
        <time>2017-03-26T07:02:49.000Z</time>
      </trkpt>
      <trkpt lat="47.49607" lon="6.75799">
        <ele>384.7</ele>
        <time>2017-03-26T07:02:50.000Z</time>
      </trkpt>
      <trkpt lat="47.49592" lon="6.75795">
        <ele>385</ele>
        <time>2017-03-26T07:02:51.000Z</time>
      </trkpt>
      <trkpt lat="47.49587" lon="6.75795">
        <ele>385.3</ele>
        <time>2017-03-26T07:02:52.000Z</time>
      </trkpt>
      <trkpt lat="47.49583" lon="6.75797">
        <ele>388.1</ele>
        <time>2017-03-26T07:02:53.000Z</time>
      </trkpt>
      <trkpt lat="47.49577" lon="6.75797">
        <ele>390.6</ele>
        <time>2017-03-26T07:02:54.000Z</time>
      </trkpt>
      <trkpt lat="47.49573" lon="6.75798">
        <ele>391.5</ele>
        <time>2017-03-26T07:02:55.000Z</time>
      </trkpt>
      <trkpt lat="47.49566" lon="6.75796">
        <ele>391.5</ele>
        <time>2017-03-26T07:02:56.000Z</time>
      </trkpt>
      <trkpt lat="47.49562" lon="6.75792">
        <ele>391.4</ele>
        <time>2017-03-26T07:02:57.000Z</time>
      </trkpt>
      <trkpt lat="47.49558" lon="6.75778">
        <ele>391.3</ele>
        <time>2017-03-26T07:02:58.000Z</time>
      </trkpt>
      <trkpt lat="47.49556" lon="6.75763">
        <ele>389.5</ele>
        <time>2017-03-26T07:02:59.000Z</time>
      </trkpt>
      <trkpt lat="47.49558" lon="6.75754">
        <ele>389.3</ele>
        <time>2017-03-26T07:03:00.000Z</time>
      </trkpt>
      <trkpt lat="47.49561" lon="6.7575">
        <ele>389.1</ele>
        <time>2017-03-26T07:03:01.000Z</time>
      </trkpt>
      <trkpt lat="47.49564" lon="6.75746">
        <ele>388.8</ele>
        <time>2017-03-26T07:03:02.000Z</time>
      </trkpt>
      <trkpt lat="47.49567" lon="6.75745">
        <ele>388.6</ele>
        <time>2017-03-26T07:03:03.000Z</time>
      </trkpt>
      <trkpt lat="47.49572" lon="6.75741">
        <ele>384.9</ele>
        <time>2017-03-26T07:03:04.000Z</time>
      </trkpt>
      <trkpt lat="47.49576" lon="6.75737">
        <ele>382</ele>
        <time>2017-03-26T07:03:05.000Z</time>
      </trkpt>
      <trkpt lat="47.49581" lon="6.75731">
        <ele>380</ele>
        <time>2017-03-26T07:03:06.000Z</time>
      </trkpt>
      <trkpt lat="47.49584" lon="6.75727">
        <ele>378</ele>
        <time>2017-03-26T07:03:07.000Z</time>
      </trkpt>
      <trkpt lat="47.49587" lon="6.75723">
        <ele>376.6</ele>
        <time>2017-03-26T07:03:08.000Z</time>
      </trkpt>
      <trkpt lat="47.49591" lon="6.75717">
        <ele>375.4</ele>
        <time>2017-03-26T07:03:09.000Z</time>
      </trkpt>
      <trkpt lat="47.49594" lon="6.75709">
        <ele>374.6</ele>
        <time>2017-03-26T07:03:10.000Z</time>
      </trkpt>
      <trkpt lat="47.49596" lon="6.75699">
        <ele>374.4</ele>
        <time>2017-03-26T07:03:11.000Z</time>
      </trkpt>
      <trkpt lat="47.49595" lon="6.75689">
        <ele>374.5</ele>
        <time>2017-03-26T07:03:12.000Z</time>
      </trkpt>
      <trkpt lat="47.49592" lon="6.75684">
        <ele>374.7</ele>
        <time>2017-03-26T07:03:13.000Z</time>
      </trkpt>
      <trkpt lat="47.49589" lon="6.75678">
        <ele>374.7</ele>
        <time>2017-03-26T07:03:14.000Z</time>
      </trkpt>
      <trkpt lat="47.49584" lon="6.75672">
        <ele>374.4</ele>
        <time>2017-03-26T07:03:15.000Z</time>
      </trkpt>
      <trkpt lat="47.49578" lon="6.75667">
        <ele>374.4</ele>
        <time>2017-03-26T07:03:16.000Z</time>
      </trkpt>
      <trkpt lat="47.49571" lon="6.75663">
        <ele>374.6</ele>
        <time>2017-03-26T07:03:17.000Z</time>
      </trkpt>
      <trkpt lat="47.49565" lon="6.7567">
        <ele>374.6</ele>
        <time>2017-03-26T07:03:18.000Z</time>
      </trkpt>
      <trkpt lat="47.49561" lon="6.75679">
        <ele>374.5</ele>
        <time>2017-03-26T07:03:19.000Z</time>
      </trkpt>
      <trkpt lat="47.49558" lon="6.75687">
        <ele>374</ele>
        <time>2017-03-26T07:03:20.000Z</time>
      </trkpt>
      <trkpt lat="47.49553" lon="6.75694">
        <ele>373.3</ele>
        <time>2017-03-26T07:03:21.000Z</time>
      </trkpt>
      <trkpt lat="47.49549" lon="6.757">
        <ele>372.4</ele>
        <time>2017-03-26T07:03:22.000Z</time>
      </trkpt>
      <trkpt lat="47.49544" lon="6.75706">
        <ele>372.1</ele>
        <time>2017-03-26T07:03:23.000Z</time>
      </trkpt>
      <trkpt lat="47.49538" lon="6.75712">
        <ele>372.1</ele>
        <time>2017-03-26T07:03:24.000Z</time>
      </trkpt>
      <trkpt lat="47.49533" lon="6.75717">
        <ele>372.4</ele>
        <time>2017-03-26T07:03:25.000Z</time>
      </trkpt>
      <trkpt lat="47.49527" lon="6.75719">
        <ele>372.7</ele>
        <time>2017-03-26T07:03:26.000Z</time>
      </trkpt>
      <trkpt lat="47.49522" lon="6.75723">
        <ele>372.7</ele>
        <time>2017-03-26T07:03:27.000Z</time>
      </trkpt>
      <trkpt lat="47.49516" lon="6.75727">
        <ele>373.1</ele>
        <time>2017-03-26T07:03:28.000Z</time>
      </trkpt>
      <trkpt lat="47.49511" lon="6.75731">
        <ele>373.6</ele>
        <time>2017-03-26T07:03:29.000Z</time>
      </trkpt>
      <trkpt lat="47.49506" lon="6.75736">
        <ele>372.6</ele>
        <time>2017-03-26T07:03:30.000Z</time>
      </trkpt>
      <trkpt lat="47.49502" lon="6.75738">
        <ele>371.3</ele>
        <time>2017-03-26T07:03:31.000Z</time>
      </trkpt>
      <trkpt lat="47.49497" lon="6.75741">
        <ele>370.9</ele>
        <time>2017-03-26T07:03:32.000Z</time>
      </trkpt>
      <trkpt lat="47.4949" lon="6.75742">
        <ele>370.2</ele>
        <time>2017-03-26T07:03:33.000Z</time>
      </trkpt>
      <trkpt lat="47.49484" lon="6.75737">
        <ele>370.2</ele>
        <time>2017-03-26T07:03:34.000Z</time>
      </trkpt>
      <trkpt lat="47.4948" lon="6.7573">
        <ele>370</ele>
        <time>2017-03-26T07:03:35.000Z</time>
      </trkpt>
      <trkpt lat="47.49477" lon="6.75722">
        <ele>370.4</ele>
        <time>2017-03-26T07:03:36.000Z</time>
      </trkpt>
      <trkpt lat="47.49474" lon="6.75713">
        <ele>370.1</ele>
        <time>2017-03-26T07:03:37.000Z</time>
      </trkpt>
      <trkpt lat="47.49471" lon="6.75705">
        <ele>369.7</ele>
        <time>2017-03-26T07:03:38.000Z</time>
      </trkpt>
      <trkpt lat="47.49468" lon="6.75698">
        <ele>369.5</ele>
        <time>2017-03-26T07:03:39.000Z</time>
      </trkpt>
      <trkpt lat="47.49464" lon="6.75694">
        <ele>369.1</ele>
        <time>2017-03-26T07:03:40.000Z</time>
      </trkpt>
      <trkpt lat="47.49458" lon="6.75693">
        <ele>368.6</ele>
        <time>2017-03-26T07:03:41.000Z</time>
      </trkpt>
      <trkpt lat="47.49454" lon="6.75695">
        <ele>368.4</ele>
        <time>2017-03-26T07:03:42.000Z</time>
      </trkpt>
      <trkpt lat="47.49449" lon="6.75698">
        <ele>368.3</ele>
        <time>2017-03-26T07:03:43.000Z</time>
      </trkpt>
      <trkpt lat="47.49445" lon="6.75698">
        <ele>368.9</ele>
        <time>2017-03-26T07:03:44.000Z</time>
      </trkpt>
      <trkpt lat="47.49441" lon="6.75693">
        <ele>368.5</ele>
        <time>2017-03-26T07:03:45.000Z</time>
      </trkpt>
      <trkpt lat="47.49439" lon="6.75687">
        <ele>368.4</ele>
        <time>2017-03-26T07:03:46.000Z</time>
      </trkpt>
      <trkpt lat="47.49435" lon="6.75673">
        <ele>367.3</ele>
        <time>2017-03-26T07:03:48.000Z</time>
      </trkpt>
      <trkpt lat="47.49431" lon="6.75669">
        <ele>366.5</ele>
        <time>2017-03-26T07:03:49.000Z</time>
      </trkpt>
      <trkpt lat="47.49426" lon="6.75668">
        <ele>365.8</ele>
        <time>2017-03-26T07:03:50.000Z</time>
      </trkpt>
      <trkpt lat="47.49423" lon="6.75667">
        <ele>365.8</ele>
        <time>2017-03-26T07:03:51.000Z</time>
      </trkpt>
      <trkpt lat="47.4942" lon="6.75668">
        <ele>365.8</ele>
        <time>2017-03-26T07:03:52.000Z</time>
      </trkpt>
      <trkpt lat="47.49416" lon="6.7567">
        <ele>365.7</ele>
        <time>2017-03-26T07:03:53.000Z</time>
      </trkpt>
      <trkpt lat="47.49413" lon="6.75674">
        <ele>364.7</ele>
        <time>2017-03-26T07:03:54.000Z</time>
      </trkpt>
      <trkpt lat="47.49408" lon="6.75678">
        <ele>363</ele>
        <time>2017-03-26T07:03:55.000Z</time>
      </trkpt>
      <trkpt lat="47.49403" lon="6.75684">
        <ele>361.3</ele>
        <time>2017-03-26T07:03:56.000Z</time>
      </trkpt>
      <trkpt lat="47.49397" lon="6.75688">
        <ele>360.1</ele>
        <time>2017-03-26T07:03:57.000Z</time>
      </trkpt>
      <trkpt lat="47.49393" lon="6.75692">
        <ele>358.6</ele>
        <time>2017-03-26T07:03:58.000Z</time>
      </trkpt>
      <trkpt lat="47.49388" lon="6.75696">
        <ele>357.4</ele>
        <time>2017-03-26T07:03:59.000Z</time>
      </trkpt>
      <trkpt lat="47.49384" lon="6.757">
        <ele>357.3</ele>
        <time>2017-03-26T07:04:00.000Z</time>
      </trkpt>
      <trkpt lat="47.49379" lon="6.75705">
        <ele>356</ele>
        <time>2017-03-26T07:04:01.000Z</time>
      </trkpt>
      <trkpt lat="47.49376" lon="6.75708">
        <ele>355.9</ele>
        <time>2017-03-26T07:04:02.000Z</time>
      </trkpt>
      <trkpt lat="47.4937" lon="6.75711">
        <ele>354.7</ele>
        <time>2017-03-26T07:04:03.000Z</time>
      </trkpt>
      <trkpt lat="47.49365" lon="6.75714">
        <ele>354.5</ele>
        <time>2017-03-26T07:04:04.000Z</time>
      </trkpt>
      <trkpt lat="47.49362" lon="6.75717">
        <ele>354.5</ele>
        <time>2017-03-26T07:04:05.000Z</time>
      </trkpt>
      <trkpt lat="47.49359" lon="6.75719">
        <ele>354.4</ele>
        <time>2017-03-26T07:04:06.000Z</time>
      </trkpt>
      <trkpt lat="47.49355" lon="6.7572">
        <ele>354.3</ele>
        <time>2017-03-26T07:04:07.000Z</time>
      </trkpt>
      <trkpt lat="47.49352" lon="6.75722">
        <ele>354.3</ele>
        <time>2017-03-26T07:04:08.000Z</time>
      </trkpt>
      <trkpt lat="47.49347" lon="6.75724">
        <ele>354.1</ele>
        <time>2017-03-26T07:04:09.000Z</time>
      </trkpt>
      <trkpt lat="47.49342" lon="6.7573">
        <ele>353.7</ele>
        <time>2017-03-26T07:04:10.000Z</time>
      </trkpt>
      <trkpt lat="47.49338" lon="6.75733">
        <ele>353.6</ele>
        <time>2017-03-26T07:04:11.000Z</time>
      </trkpt>
      <trkpt lat="47.49334" lon="6.75735">
        <ele>352.5</ele>
        <time>2017-03-26T07:04:12.000Z</time>
      </trkpt>
      <trkpt lat="47.4933" lon="6.75737">
        <ele>352.3</ele>
        <time>2017-03-26T07:04:13.000Z</time>
      </trkpt>
      <trkpt lat="47.49325" lon="6.7574">
        <ele>351.4</ele>
        <time>2017-03-26T07:04:14.000Z</time>
      </trkpt>
      <trkpt lat="47.4932" lon="6.75746">
        <ele>350.7</ele>
        <time>2017-03-26T07:04:15.000Z</time>
      </trkpt>
      <trkpt lat="47.49315" lon="6.75751">
        <ele>350.7</ele>
        <time>2017-03-26T07:04:16.000Z</time>
      </trkpt>
      <trkpt lat="47.49311" lon="6.75756">
        <ele>351.4</ele>
        <time>2017-03-26T07:04:17.000Z</time>
      </trkpt>
      <trkpt lat="47.49306" lon="6.75761">
        <ele>351.2</ele>
        <time>2017-03-26T07:04:18.000Z</time>
      </trkpt>
      <trkpt lat="47.49302" lon="6.75765">
        <ele>351.1</ele>
        <time>2017-03-26T07:04:19.000Z</time>
      </trkpt>
      <trkpt lat="47.49298" lon="6.75769">
        <ele>351.1</ele>
        <time>2017-03-26T07:04:20.000Z</time>
      </trkpt>
      <trkpt lat="47.49295" lon="6.75774">
        <ele>350.9</ele>
        <time>2017-03-26T07:04:21.000Z</time>
      </trkpt>
      <trkpt lat="47.4929" lon="6.7578">
        <ele>350.8</ele>
        <time>2017-03-26T07:04:22.000Z</time>
      </trkpt>
      <trkpt lat="47.49286" lon="6.75785">
        <ele>351.3</ele>
        <time>2017-03-26T07:04:23.000Z</time>
      </trkpt>
      <trkpt lat="47.49281" lon="6.75791">
        <ele>350.7</ele>
        <time>2017-03-26T07:04:24.000Z</time>
      </trkpt>
      <trkpt lat="47.49277" lon="6.75798">
        <ele>350.2</ele>
        <time>2017-03-26T07:04:25.000Z</time>
      </trkpt>
      <trkpt lat="47.49272" lon="6.75806">
        <ele>350.5</ele>
        <time>2017-03-26T07:04:26.000Z</time>
      </trkpt>
      <trkpt lat="47.49268" lon="6.75812">
        <ele>351.6</ele>
        <time>2017-03-26T07:04:27.000Z</time>
      </trkpt>
      <trkpt lat="47.49264" lon="6.7582">
        <ele>353.1</ele>
        <time>2017-03-26T07:04:28.000Z</time>
      </trkpt>
      <trkpt lat="47.4926" lon="6.75826">
        <ele>354.7</ele>
        <time>2017-03-26T07:04:29.000Z</time>
      </trkpt>
      <trkpt lat="47.49256" lon="6.75833">
        <ele>355.5</ele>
        <time>2017-03-26T07:04:30.000Z</time>
      </trkpt>
      <trkpt lat="47.49253" lon="6.75839">
        <ele>356</ele>
        <time>2017-03-26T07:04:31.000Z</time>
      </trkpt>
      <trkpt lat="47.49248" lon="6.75847">
        <ele>356.2</ele>
        <time>2017-03-26T07:04:32.000Z</time>
      </trkpt>
      <trkpt lat="47.49244" lon="6.75854">
        <ele>355.9</ele>
        <time>2017-03-26T07:04:33.000Z</time>
      </trkpt>
      <trkpt lat="47.49241" lon="6.7586">
        <ele>355.9</ele>
        <time>2017-03-26T07:04:34.000Z</time>
      </trkpt>
      <trkpt lat="47.49238" lon="6.75867">
        <ele>356.2</ele>
        <time>2017-03-26T07:04:35.000Z</time>
      </trkpt>
      <trkpt lat="47.49235" lon="6.75874">
        <ele>356.8</ele>
        <time>2017-03-26T07:04:36.000Z</time>
      </trkpt>
      <trkpt lat="47.49233" lon="6.7588">
        <ele>357.3</ele>
        <time>2017-03-26T07:04:37.000Z</time>
      </trkpt>
      <trkpt lat="47.49231" lon="6.75885">
        <ele>357.3</ele>
        <time>2017-03-26T07:04:38.000Z</time>
      </trkpt>
      <trkpt lat="47.49229" lon="6.75891">
        <ele>357.7</ele>
        <time>2017-03-26T07:04:39.000Z</time>
      </trkpt>
      <trkpt lat="47.49226" lon="6.75898">
        <ele>358.5</ele>
        <time>2017-03-26T07:04:40.000Z</time>
      </trkpt>
      <trkpt lat="47.49224" lon="6.75904">
        <ele>358.8</ele>
        <time>2017-03-26T07:04:41.000Z</time>
      </trkpt>
      <trkpt lat="47.49221" lon="6.7591">
        <ele>357.8</ele>
        <time>2017-03-26T07:04:42.000Z</time>
      </trkpt>
      <trkpt lat="47.49218" lon="6.75917">
        <ele>357</ele>
        <time>2017-03-26T07:04:43.000Z</time>
      </trkpt>
      <trkpt lat="47.49216" lon="6.75924">
        <ele>357.3</ele>
        <time>2017-03-26T07:04:44.000Z</time>
      </trkpt>
      <trkpt lat="47.49214" lon="6.7593">
        <ele>357.3</ele>
        <time>2017-03-26T07:04:45.000Z</time>
      </trkpt>
      <trkpt lat="47.49212" lon="6.75936">
        <ele>357.4</ele>
        <time>2017-03-26T07:04:46.000Z</time>
      </trkpt>
      <trkpt lat="47.49209" lon="6.75943">
        <ele>357.3</ele>
        <time>2017-03-26T07:04:47.000Z</time>
      </trkpt>
      <trkpt lat="47.49206" lon="6.7595">
        <ele>356.4</ele>
        <time>2017-03-26T07:04:48.000Z</time>
      </trkpt>
      <trkpt lat="47.49202" lon="6.75958">
        <ele>356.2</ele>
        <time>2017-03-26T07:04:49.000Z</time>
      </trkpt>
      <trkpt lat="47.49199" lon="6.75962">
        <ele>356.2</ele>
        <time>2017-03-26T07:04:50.000Z</time>
      </trkpt>
      <trkpt lat="47.49197" lon="6.75968">
        <ele>355</ele>
        <time>2017-03-26T07:04:51.000Z</time>
      </trkpt>
      <trkpt lat="47.49194" lon="6.75974">
        <ele>353.5</ele>
        <time>2017-03-26T07:04:52.000Z</time>
      </trkpt>
      <trkpt lat="47.49191" lon="6.7598">
        <ele>353.1</ele>
        <time>2017-03-26T07:04:53.000Z</time>
      </trkpt>
      <trkpt lat="47.49188" lon="6.75986">
        <ele>352.6</ele>
        <time>2017-03-26T07:04:54.000Z</time>
      </trkpt>
      <trkpt lat="47.49184" lon="6.75993">
        <ele>352.9</ele>
        <time>2017-03-26T07:04:55.000Z</time>
      </trkpt>
      <trkpt lat="47.49181" lon="6.76">
        <ele>354</ele>
        <time>2017-03-26T07:04:56.000Z</time>
      </trkpt>
      <trkpt lat="47.49179" lon="6.76004">
        <ele>354.1</ele>
        <time>2017-03-26T07:04:57.000Z</time>
      </trkpt>
      <trkpt lat="47.49177" lon="6.7601">
        <ele>355.5</ele>
        <time>2017-03-26T07:04:58.000Z</time>
      </trkpt>
      <trkpt lat="47.49174" lon="6.76017">
        <ele>356.4</ele>
        <time>2017-03-26T07:04:59.000Z</time>
      </trkpt>
      <trkpt lat="47.49172" lon="6.76025">
        <ele>356.4</ele>
        <time>2017-03-26T07:05:00.000Z</time>
      </trkpt>
      <trkpt lat="47.49167" lon="6.76037">
        <ele>356.2</ele>
        <time>2017-03-26T07:05:01.000Z</time>
      </trkpt>
      <trkpt lat="47.49164" lon="6.76046">
        <ele>356.9</ele>
        <time>2017-03-26T07:05:02.000Z</time>
      </trkpt>
      <trkpt lat="47.49161" lon="6.76053">
        <ele>357.2</ele>
        <time>2017-03-26T07:05:03.000Z</time>
      </trkpt>
      <trkpt lat="47.49158" lon="6.76062">
        <ele>357.3</ele>
        <time>2017-03-26T07:05:04.000Z</time>
      </trkpt>
      <trkpt lat="47.49155" lon="6.76068">
        <ele>356.8</ele>
        <time>2017-03-26T07:05:05.000Z</time>
      </trkpt>
      <trkpt lat="47.49152" lon="6.76077">
        <ele>356.1</ele>
        <time>2017-03-26T07:05:06.000Z</time>
      </trkpt>
      <trkpt lat="47.49149" lon="6.76086">
        <ele>355.8</ele>
        <time>2017-03-26T07:05:07.000Z</time>
      </trkpt>
      <trkpt lat="47.49146" lon="6.76095">
        <ele>355.7</ele>
        <time>2017-03-26T07:05:08.000Z</time>
      </trkpt>
      <trkpt lat="47.49144" lon="6.76103">
        <ele>356.2</ele>
        <time>2017-03-26T07:05:09.000Z</time>
      </trkpt>
      <trkpt lat="47.49143" lon="6.76112">
        <ele>357.5</ele>
        <time>2017-03-26T07:05:10.000Z</time>
      </trkpt>
      <trkpt lat="47.49141" lon="6.7612">
        <ele>358.2</ele>
        <time>2017-03-26T07:05:11.000Z</time>
      </trkpt>
      <trkpt lat="47.4914" lon="6.76128">
        <ele>358.6</ele>
        <time>2017-03-26T07:05:12.000Z</time>
      </trkpt>
      <trkpt lat="47.49139" lon="6.76134">
        <ele>358.9</ele>
        <time>2017-03-26T07:05:13.000Z</time>
      </trkpt>
      <trkpt lat="47.49137" lon="6.76142">
        <ele>358.9</ele>
        <time>2017-03-26T07:05:14.000Z</time>
      </trkpt>
      <trkpt lat="47.49135" lon="6.76151">
        <ele>358.5</ele>
        <time>2017-03-26T07:05:15.000Z</time>
      </trkpt>
      <trkpt lat="47.49134" lon="6.76159">
        <ele>358.6</ele>
        <time>2017-03-26T07:05:16.000Z</time>
      </trkpt>
      <trkpt lat="47.49132" lon="6.76167">
        <ele>358.5</ele>
        <time>2017-03-26T07:05:17.000Z</time>
      </trkpt>
      <trkpt lat="47.49131" lon="6.76176">
        <ele>358.6</ele>
        <time>2017-03-26T07:05:18.000Z</time>
      </trkpt>
      <trkpt lat="47.4913" lon="6.76183">
        <ele>359.5</ele>
        <time>2017-03-26T07:05:19.000Z</time>
      </trkpt>
      <trkpt lat="47.49128" lon="6.76191">
        <ele>359.9</ele>
        <time>2017-03-26T07:05:20.000Z</time>
      </trkpt>
      <trkpt lat="47.49127" lon="6.762">
        <ele>360.1</ele>
        <time>2017-03-26T07:05:21.000Z</time>
      </trkpt>
      <trkpt lat="47.49126" lon="6.76208">
        <ele>360.1</ele>
        <time>2017-03-26T07:05:22.000Z</time>
      </trkpt>
      <trkpt lat="47.49126" lon="6.76216">
        <ele>360.9</ele>
        <time>2017-03-26T07:05:23.000Z</time>
      </trkpt>
      <trkpt lat="47.49127" lon="6.76223">
        <ele>360.8</ele>
        <time>2017-03-26T07:05:24.000Z</time>
      </trkpt>
      <trkpt lat="47.49127" lon="6.7623">
        <ele>360.7</ele>
        <time>2017-03-26T07:05:25.000Z</time>
      </trkpt>
      <trkpt lat="47.49128" lon="6.76239">
        <ele>361</ele>
        <time>2017-03-26T07:05:26.000Z</time>
      </trkpt>
      <trkpt lat="47.49127" lon="6.76247">
        <ele>361.3</ele>
        <time>2017-03-26T07:05:27.000Z</time>
      </trkpt>
      <trkpt lat="47.49128" lon="6.76255">
        <ele>361</ele>
        <time>2017-03-26T07:05:28.000Z</time>
      </trkpt>
      <trkpt lat="47.49127" lon="6.76263">
        <ele>360.8</ele>
        <time>2017-03-26T07:05:29.000Z</time>
      </trkpt>
      <trkpt lat="47.49127" lon="6.76271">
        <ele>360.4</ele>
        <time>2017-03-26T07:05:30.000Z</time>
      </trkpt>
      <trkpt lat="47.49127" lon="6.76278">
        <ele>359.8</ele>
        <time>2017-03-26T07:05:31.000Z</time>
      </trkpt>
      <trkpt lat="47.49127" lon="6.76285">
        <ele>359.7</ele>
        <time>2017-03-26T07:05:32.000Z</time>
      </trkpt>
      <trkpt lat="47.49127" lon="6.76294">
        <ele>359.6</ele>
        <time>2017-03-26T07:05:33.000Z</time>
      </trkpt>
      <trkpt lat="47.49127" lon="6.76302">
        <ele>358.9</ele>
        <time>2017-03-26T07:05:34.000Z</time>
      </trkpt>
      <trkpt lat="47.49127" lon="6.76309">
        <ele>359</ele>
        <time>2017-03-26T07:05:35.000Z</time>
      </trkpt>
      <trkpt lat="47.49127" lon="6.76315">
        <ele>359</ele>
        <time>2017-03-26T07:05:36.000Z</time>
      </trkpt>
      <trkpt lat="47.49127" lon="6.76321">
        <ele>359</ele>
        <time>2017-03-26T07:05:37.000Z</time>
      </trkpt>
      <trkpt lat="47.49127" lon="6.76329">
        <ele>358</ele>
        <time>2017-03-26T07:05:38.000Z</time>
      </trkpt>
      <trkpt lat="47.49127" lon="6.76336">
        <ele>358</ele>
        <time>2017-03-26T07:05:39.000Z</time>
      </trkpt>
      <trkpt lat="47.49126" lon="6.76344">
        <ele>357.4</ele>
        <time>2017-03-26T07:05:40.000Z</time>
      </trkpt>
      <trkpt lat="47.49126" lon="6.76357">
        <ele>356.4</ele>
        <time>2017-03-26T07:05:41.000Z</time>
      </trkpt>
      <trkpt lat="47.49125" lon="6.76372">
        <ele>356.8</ele>
        <time>2017-03-26T07:05:42.000Z</time>
      </trkpt>
      <trkpt lat="47.49125" lon="6.76387">
        <ele>357.5</ele>
        <time>2017-03-26T07:05:43.000Z</time>
      </trkpt>
      <trkpt lat="47.49124" lon="6.764">
        <ele>358.8</ele>
        <time>2017-03-26T07:05:44.000Z</time>
      </trkpt>
      <trkpt lat="47.49124" lon="6.7641">
        <ele>359.4</ele>
        <time>2017-03-26T07:05:45.000Z</time>
      </trkpt>
      <trkpt lat="47.49124" lon="6.7642">
        <ele>359.9</ele>
        <time>2017-03-26T07:05:46.000Z</time>
      </trkpt>
      <trkpt lat="47.49123" lon="6.76429">
        <ele>360.3</ele>
        <time>2017-03-26T07:05:47.000Z</time>
      </trkpt>
      <trkpt lat="47.49123" lon="6.76439">
        <ele>360.4</ele>
        <time>2017-03-26T07:05:48.000Z</time>
      </trkpt>
      <trkpt lat="47.49123" lon="6.76447">
        <ele>359.8</ele>
        <time>2017-03-26T07:05:49.000Z</time>
      </trkpt>
      <trkpt lat="47.49122" lon="6.76455">
        <ele>359.4</ele>
        <time>2017-03-26T07:05:50.000Z</time>
      </trkpt>
      <trkpt lat="47.49121" lon="6.76466">
        <ele>358.8</ele>
        <time>2017-03-26T07:05:51.000Z</time>
      </trkpt>
      <trkpt lat="47.4912" lon="6.76475">
        <ele>359</ele>
        <time>2017-03-26T07:05:52.000Z</time>
      </trkpt>
      <trkpt lat="47.49118" lon="6.76484">
        <ele>358.8</ele>
        <time>2017-03-26T07:05:53.000Z</time>
      </trkpt>
      <trkpt lat="47.49117" lon="6.76493">
        <ele>359</ele>
        <time>2017-03-26T07:05:54.000Z</time>
      </trkpt>
      <trkpt lat="47.49117" lon="6.76503">
        <ele>360</ele>
        <time>2017-03-26T07:05:55.000Z</time>
      </trkpt>
      <trkpt lat="47.49121" lon="6.76509">
        <ele>360.9</ele>
        <time>2017-03-26T07:05:56.000Z</time>
      </trkpt>
      <trkpt lat="47.49126" lon="6.76516">
        <ele>362.3</ele>
        <time>2017-03-26T07:05:57.000Z</time>
      </trkpt>
      <trkpt lat="47.49132" lon="6.76517">
        <ele>363.1</ele>
        <time>2017-03-26T07:05:58.000Z</time>
      </trkpt>
      <trkpt lat="47.49137" lon="6.76516">
        <ele>363.1</ele>
        <time>2017-03-26T07:05:59.000Z</time>
      </trkpt>
      <trkpt lat="47.49142" lon="6.76516">
        <ele>362.8</ele>
        <time>2017-03-26T07:06:00.000Z</time>
      </trkpt>
      <trkpt lat="47.49146" lon="6.76515">
        <ele>362.5</ele>
        <time>2017-03-26T07:06:01.000Z</time>
      </trkpt>
      <trkpt lat="47.49151" lon="6.76514">
        <ele>362.8</ele>
        <time>2017-03-26T07:06:02.000Z</time>
      </trkpt>
      <trkpt lat="47.49156" lon="6.76515">
        <ele>363.8</ele>
        <time>2017-03-26T07:06:03.000Z</time>
      </trkpt>
      <trkpt lat="47.4916" lon="6.76515">
        <ele>364.1</ele>
        <time>2017-03-26T07:06:04.000Z</time>
      </trkpt>
      <trkpt lat="47.49163" lon="6.76514">
        <ele>364.2</ele>
        <time>2017-03-26T07:06:05.000Z</time>
      </trkpt>
      <trkpt lat="47.49166" lon="6.76513">
        <ele>364.4</ele>
        <time>2017-03-26T07:06:06.000Z</time>
      </trkpt>
      <trkpt lat="47.49169" lon="6.76511">
        <ele>364.4</ele>
        <time>2017-03-26T07:06:07.000Z</time>
      </trkpt>
      <trkpt lat="47.49173" lon="6.76508">
        <ele>364.5</ele>
        <time>2017-03-26T07:06:08.000Z</time>
      </trkpt>
      <trkpt lat="47.49177" lon="6.76505">
        <ele>364.5</ele>
        <time>2017-03-26T07:06:09.000Z</time>
      </trkpt>
      <trkpt lat="47.49179" lon="6.76499">
        <ele>364.6</ele>
        <time>2017-03-26T07:06:10.000Z</time>
      </trkpt>
      <trkpt lat="47.49177" lon="6.76493">
        <ele>364.6</ele>
        <time>2017-03-26T07:06:11.000Z</time>
      </trkpt>
      <trkpt lat="47.49175" lon="6.76489">
        <ele>364.6</ele>
        <time>2017-03-26T07:06:12.000Z</time>
      </trkpt>
      <trkpt lat="47.49172" lon="6.76488">
        <ele>366.7</ele>
        <time>2017-03-26T07:06:57.000Z</time>
      </trkpt>
      <trkpt lat="47.49177" lon="6.76505">
        <ele>366.7</ele>
        <time>2017-03-26T07:06:58.000Z</time>
      </trkpt>
      <trkpt lat="47.49175" lon="6.76507">
        <ele>366.7</ele>
        <time>2017-03-26T07:06:59.000Z</time>
      </trkpt>
      <trkpt lat="47.49173" lon="6.7651">
        <ele>366.7</ele>
        <time>2017-03-26T07:07:00.000Z</time>
      </trkpt>
      <trkpt lat="47.4917" lon="6.76512">
        <ele>366.6</ele>
        <time>2017-03-26T07:07:01.000Z</time>
      </trkpt>
      <trkpt lat="47.49167" lon="6.76513">
        <ele>366.6</ele>
        <time>2017-03-26T07:07:02.000Z</time>
      </trkpt>
      <trkpt lat="47.49162" lon="6.76514">
        <ele>366.6</ele>
        <time>2017-03-26T07:07:03.000Z</time>
      </trkpt>
      <trkpt lat="47.49157" lon="6.76517">
        <ele>366.3</ele>
        <time>2017-03-26T07:07:04.000Z</time>
      </trkpt>
      <trkpt lat="47.49154" lon="6.76519">
        <ele>366.2</ele>
        <time>2017-03-26T07:07:05.000Z</time>
      </trkpt>
      <trkpt lat="47.49151" lon="6.76521">
        <ele>366.2</ele>
        <time>2017-03-26T07:07:06.000Z</time>
      </trkpt>
      <trkpt lat="47.49148" lon="6.76523">
        <ele>366.3</ele>
        <time>2017-03-26T07:07:07.000Z</time>
      </trkpt>
      <trkpt lat="47.49145" lon="6.76523">
        <ele>366.3</ele>
        <time>2017-03-26T07:07:08.000Z</time>
      </trkpt>
      <trkpt lat="47.49142" lon="6.76523">
        <ele>366.5</ele>
        <time>2017-03-26T07:07:09.000Z</time>
      </trkpt>
      <trkpt lat="47.4914" lon="6.76522">
        <ele>366.6</ele>
        <time>2017-03-26T07:07:10.000Z</time>
      </trkpt>
      <trkpt lat="47.49136" lon="6.76522">
        <ele>366.7</ele>
        <time>2017-03-26T07:07:11.000Z</time>
      </trkpt>
      <trkpt lat="47.49131" lon="6.76521">
        <ele>366.8</ele>
        <time>2017-03-26T07:07:12.000Z</time>
      </trkpt>
      <trkpt lat="47.49128" lon="6.7652">
        <ele>367</ele>
        <time>2017-03-26T07:07:13.000Z</time>
      </trkpt>
      <trkpt lat="47.49125" lon="6.76519">
        <ele>367.1</ele>
        <time>2017-03-26T07:07:14.000Z</time>
      </trkpt>
      <trkpt lat="47.49122" lon="6.76517">
        <ele>367.2</ele>
        <time>2017-03-26T07:07:15.000Z</time>
      </trkpt>
      <trkpt lat="47.49119" lon="6.76516">
        <ele>367.2</ele>
        <time>2017-03-26T07:07:16.000Z</time>
      </trkpt>
      <trkpt lat="47.49116" lon="6.76518">
        <ele>367.3</ele>
        <time>2017-03-26T07:07:18.000Z</time>
      </trkpt>
      <trkpt lat="47.49116" lon="6.76524">
        <ele>367.4</ele>
        <time>2017-03-26T07:07:19.000Z</time>
      </trkpt>
      <trkpt lat="47.49117" lon="6.7653">
        <ele>367.5</ele>
        <time>2017-03-26T07:07:20.000Z</time>
      </trkpt>
      <trkpt lat="47.49119" lon="6.76538">
        <ele>367.5</ele>
        <time>2017-03-26T07:07:21.000Z</time>
      </trkpt>
      <trkpt lat="47.49119" lon="6.76545">
        <ele>367.4</ele>
        <time>2017-03-26T07:07:22.000Z</time>
      </trkpt>
      <trkpt lat="47.4912" lon="6.76552">
        <ele>367.4</ele>
        <time>2017-03-26T07:07:23.000Z</time>
      </trkpt>
      <trkpt lat="47.4912" lon="6.76558">
        <ele>367.4</ele>
        <time>2017-03-26T07:07:24.000Z</time>
      </trkpt>
      <trkpt lat="47.4912" lon="6.76563">
        <ele>367.3</ele>
        <time>2017-03-26T07:07:25.000Z</time>
      </trkpt>
      <trkpt lat="47.4912" lon="6.76569">
        <ele>367.3</ele>
        <time>2017-03-26T07:07:26.000Z</time>
      </trkpt>
      <trkpt lat="47.4912" lon="6.76575">
        <ele>367.2</ele>
        <time>2017-03-26T07:07:27.000Z</time>
      </trkpt>
      <trkpt lat="47.49121" lon="6.7658">
        <ele>367.2</ele>
        <time>2017-03-26T07:07:28.000Z</time>
      </trkpt>
      <trkpt lat="47.49122" lon="6.76586">
        <ele>366.6</ele>
        <time>2017-03-26T07:07:29.000Z</time>
      </trkpt>
      <trkpt lat="47.49123" lon="6.76591">
        <ele>366.3</ele>
        <time>2017-03-26T07:07:30.000Z</time>
      </trkpt>
      <trkpt lat="47.49123" lon="6.76596">
        <ele>365.3</ele>
        <time>2017-03-26T07:07:31.000Z</time>
      </trkpt>
      <trkpt lat="47.49124" lon="6.76602">
        <ele>364.9</ele>
        <time>2017-03-26T07:07:32.000Z</time>
      </trkpt>
      <trkpt lat="47.49126" lon="6.76608">
        <ele>364.6</ele>
        <time>2017-03-26T07:07:33.000Z</time>
      </trkpt>
      <trkpt lat="47.49127" lon="6.76614">
        <ele>364.3</ele>
        <time>2017-03-26T07:07:34.000Z</time>
      </trkpt>
      <trkpt lat="47.49128" lon="6.76619">
        <ele>364.2</ele>
        <time>2017-03-26T07:07:35.000Z</time>
      </trkpt>
      <trkpt lat="47.49129" lon="6.76625">
        <ele>364.2</ele>
        <time>2017-03-26T07:07:36.000Z</time>
      </trkpt>
      <trkpt lat="47.49129" lon="6.76635">
        <ele>364.2</ele>
        <time>2017-03-26T07:07:37.000Z</time>
      </trkpt>
      <trkpt lat="47.49129" lon="6.76642">
        <ele>364.2</ele>
        <time>2017-03-26T07:07:38.000Z</time>
      </trkpt>
      <trkpt lat="47.4913" lon="6.76649">
        <ele>364.1</ele>
        <time>2017-03-26T07:07:39.000Z</time>
      </trkpt>
      <trkpt lat="47.49131" lon="6.76656">
        <ele>364.1</ele>
        <time>2017-03-26T07:07:40.000Z</time>
      </trkpt>
      <trkpt lat="47.49132" lon="6.76662">
        <ele>364.1</ele>
        <time>2017-03-26T07:07:41.000Z</time>
      </trkpt>
      <trkpt lat="47.49132" lon="6.76672">
        <ele>364.1</ele>
        <time>2017-03-26T07:07:42.000Z</time>
      </trkpt>
      <trkpt lat="47.49133" lon="6.76677">
        <ele>364.1</ele>
        <time>2017-03-26T07:07:43.000Z</time>
      </trkpt>
      <trkpt lat="47.49134" lon="6.76682">
        <ele>364.1</ele>
        <time>2017-03-26T07:07:44.000Z</time>
      </trkpt>
      <trkpt lat="47.49134" lon="6.76687">
        <ele>364.1</ele>
        <time>2017-03-26T07:07:45.000Z</time>
      </trkpt>
      <trkpt lat="47.49136" lon="6.76693">
        <ele>364.1</ele>
        <time>2017-03-26T07:07:46.000Z</time>
      </trkpt>
      <trkpt lat="47.49138" lon="6.76706">
        <ele>364.1</ele>
        <time>2017-03-26T07:07:48.000Z</time>
      </trkpt>
      <trkpt lat="47.49139" lon="6.76711">
        <ele>364.1</ele>
        <time>2017-03-26T07:07:49.000Z</time>
      </trkpt>
      <trkpt lat="47.49139" lon="6.76716">
        <ele>364</ele>
        <time>2017-03-26T07:07:50.000Z</time>
      </trkpt>
      <trkpt lat="47.4914" lon="6.76723">
        <ele>363.7</ele>
        <time>2017-03-26T07:07:51.000Z</time>
      </trkpt>
      <trkpt lat="47.49141" lon="6.7673">
        <ele>363.6</ele>
        <time>2017-03-26T07:07:52.000Z</time>
      </trkpt>
      <trkpt lat="47.49142" lon="6.76737">
        <ele>363.4</ele>
        <time>2017-03-26T07:07:53.000Z</time>
      </trkpt>
      <trkpt lat="47.49142" lon="6.76743">
        <ele>361.9</ele>
        <time>2017-03-26T07:07:54.000Z</time>
      </trkpt>
      <trkpt lat="47.49142" lon="6.7675">
        <ele>361.7</ele>
        <time>2017-03-26T07:07:55.000Z</time>
      </trkpt>
      <trkpt lat="47.49142" lon="6.76756">
        <ele>360.2</ele>
        <time>2017-03-26T07:07:56.000Z</time>
      </trkpt>
      <trkpt lat="47.49142" lon="6.76763">
        <ele>360</ele>
        <time>2017-03-26T07:07:57.000Z</time>
      </trkpt>
      <trkpt lat="47.49143" lon="6.76773">
        <ele>359.9</ele>
        <time>2017-03-26T07:07:58.000Z</time>
      </trkpt>
      <trkpt lat="47.49143" lon="6.76783">
        <ele>358.5</ele>
        <time>2017-03-26T07:07:59.000Z</time>
      </trkpt>
      <trkpt lat="47.49144" lon="6.7679">
        <ele>358.4</ele>
        <time>2017-03-26T07:08:00.000Z</time>
      </trkpt>
      <trkpt lat="47.49144" lon="6.76797">
        <ele>358.3</ele>
        <time>2017-03-26T07:08:01.000Z</time>
      </trkpt>
      <trkpt lat="47.49144" lon="6.76801">
        <ele>358.2</ele>
        <time>2017-03-26T07:08:02.000Z</time>
      </trkpt>
      <trkpt lat="47.49144" lon="6.76805">
        <ele>358.2</ele>
        <time>2017-03-26T07:08:03.000Z</time>
      </trkpt>
      <trkpt lat="47.49143" lon="6.76811">
        <ele>358</ele>
        <time>2017-03-26T07:08:04.000Z</time>
      </trkpt>
      <trkpt lat="47.49143" lon="6.76815">
        <ele>358</ele>
        <time>2017-03-26T07:08:05.000Z</time>
      </trkpt>
      <trkpt lat="47.49142" lon="6.76823">
        <ele>357.8</ele>
        <time>2017-03-26T07:08:06.000Z</time>
      </trkpt>
      <trkpt lat="47.49142" lon="6.7683">
        <ele>357.7</ele>
        <time>2017-03-26T07:08:07.000Z</time>
      </trkpt>
      <trkpt lat="47.49142" lon="6.76838">
        <ele>357.6</ele>
        <time>2017-03-26T07:08:08.000Z</time>
      </trkpt>
      <trkpt lat="47.49142" lon="6.76845">
        <ele>357.4</ele>
        <time>2017-03-26T07:08:09.000Z</time>
      </trkpt>
      <trkpt lat="47.49141" lon="6.7685">
        <ele>357.3</ele>
        <time>2017-03-26T07:08:10.000Z</time>
      </trkpt>
      <trkpt lat="47.49142" lon="6.76859">
        <ele>357.2</ele>
        <time>2017-03-26T07:08:11.000Z</time>
      </trkpt>
      <trkpt lat="47.49143" lon="6.76868">
        <ele>357.1</ele>
        <time>2017-03-26T07:08:12.000Z</time>
      </trkpt>
      <trkpt lat="47.49144" lon="6.76876">
        <ele>355.2</ele>
        <time>2017-03-26T07:08:13.000Z</time>
      </trkpt>
      <trkpt lat="47.49144" lon="6.76883">
        <ele>355.1</ele>
        <time>2017-03-26T07:08:14.000Z</time>
      </trkpt>
      <trkpt lat="47.49144" lon="6.76889">
        <ele>355</ele>
        <time>2017-03-26T07:08:15.000Z</time>
      </trkpt>
      <trkpt lat="47.49144" lon="6.76898">
        <ele>354.9</ele>
        <time>2017-03-26T07:08:16.000Z</time>
      </trkpt>
      <trkpt lat="47.49143" lon="6.76905">
        <ele>354.8</ele>
        <time>2017-03-26T07:08:17.000Z</time>
      </trkpt>
      <trkpt lat="47.49141" lon="6.76912">
        <ele>354.6</ele>
        <time>2017-03-26T07:08:18.000Z</time>
      </trkpt>
      <trkpt lat="47.49141" lon="6.76919">
        <ele>354.5</ele>
        <time>2017-03-26T07:08:19.000Z</time>
      </trkpt>
      <trkpt lat="47.49139" lon="6.76923">
        <ele>354.5</ele>
        <time>2017-03-26T07:08:20.000Z</time>
      </trkpt>
      <trkpt lat="47.49138" lon="6.76927">
        <ele>354.4</ele>
        <time>2017-03-26T07:08:21.000Z</time>
      </trkpt>
      <trkpt lat="47.49139" lon="6.76931">
        <ele>354.3</ele>
        <time>2017-03-26T07:08:22.000Z</time>
      </trkpt>
      <trkpt lat="47.49141" lon="6.76936">
        <ele>354.3</ele>
        <time>2017-03-26T07:08:23.000Z</time>
      </trkpt>
      <trkpt lat="47.49143" lon="6.76941">
        <ele>354.2</ele>
        <time>2017-03-26T07:08:24.000Z</time>
      </trkpt>
      <trkpt lat="47.49143" lon="6.76941">
        <ele>354</ele>
        <time>2017-03-26T07:08:26.000Z</time>
      </trkpt>
      <trkpt lat="47.49147" lon="6.76961">
        <ele>353.9</ele>
        <time>2017-03-26T07:08:27.000Z</time>
      </trkpt>
      <trkpt lat="47.49147" lon="6.76961">
        <ele>353.3</ele>
        <time>2017-03-26T07:08:28.000Z</time>
      </trkpt>
      <trkpt lat="47.4915" lon="6.76982">
        <ele>352.2</ele>
        <time>2017-03-26T07:08:29.000Z</time>
      </trkpt>
      <trkpt lat="47.49153" lon="6.76991">
        <ele>351.9</ele>
        <time>2017-03-26T07:08:30.000Z</time>
      </trkpt>
      <trkpt lat="47.49157" lon="6.77">
        <ele>352.2</ele>
        <time>2017-03-26T07:08:31.000Z</time>
      </trkpt>
      <trkpt lat="47.49159" lon="6.77008">
        <ele>353.2</ele>
        <time>2017-03-26T07:08:32.000Z</time>
      </trkpt>
      <trkpt lat="47.49161" lon="6.77016">
        <ele>353.6</ele>
        <time>2017-03-26T07:08:33.000Z</time>
      </trkpt>
      <trkpt lat="47.49163" lon="6.77024">
        <ele>354</ele>
        <time>2017-03-26T07:08:34.000Z</time>
      </trkpt>
      <trkpt lat="47.49165" lon="6.77032">
        <ele>354.8</ele>
        <time>2017-03-26T07:08:35.000Z</time>
      </trkpt>
      <trkpt lat="47.49166" lon="6.7704">
        <ele>354.9</ele>
        <time>2017-03-26T07:08:36.000Z</time>
      </trkpt>
      <trkpt lat="47.49168" lon="6.77049">
        <ele>355.4</ele>
        <time>2017-03-26T07:08:37.000Z</time>
      </trkpt>
      <trkpt lat="47.49169" lon="6.77056">
        <ele>355.3</ele>
        <time>2017-03-26T07:08:38.000Z</time>
      </trkpt>
      <trkpt lat="47.4917" lon="6.77063">
        <ele>356.3</ele>
        <time>2017-03-26T07:08:39.000Z</time>
      </trkpt>
      <trkpt lat="47.4917" lon="6.7707">
        <ele>356.4</ele>
        <time>2017-03-26T07:08:40.000Z</time>
      </trkpt>
      <trkpt lat="47.49171" lon="6.77076">
        <ele>356.6</ele>
        <time>2017-03-26T07:08:41.000Z</time>
      </trkpt>
      <trkpt lat="47.49173" lon="6.77083">
        <ele>355.2</ele>
        <time>2017-03-26T07:08:42.000Z</time>
      </trkpt>
      <trkpt lat="47.49175" lon="6.77088">
        <ele>354.6</ele>
        <time>2017-03-26T07:08:43.000Z</time>
      </trkpt>
      <trkpt lat="47.49175" lon="6.77093">
        <ele>354.5</ele>
        <time>2017-03-26T07:08:44.000Z</time>
      </trkpt>
      <trkpt lat="47.49175" lon="6.77098">
        <ele>354.3</ele>
        <time>2017-03-26T07:08:45.000Z</time>
      </trkpt>
      <trkpt lat="47.49177" lon="6.77105">
        <ele>354.2</ele>
        <time>2017-03-26T07:08:46.000Z</time>
      </trkpt>
      <trkpt lat="47.4918" lon="6.77117">
        <ele>354</ele>
        <time>2017-03-26T07:08:48.000Z</time>
      </trkpt>
      <trkpt lat="47.49181" lon="6.77124">
        <ele>353.9</ele>
        <time>2017-03-26T07:08:49.000Z</time>
      </trkpt>
      <trkpt lat="47.49182" lon="6.7713">
        <ele>353.9</ele>
        <time>2017-03-26T07:08:50.000Z</time>
      </trkpt>
      <trkpt lat="47.49182" lon="6.77135">
        <ele>353.9</ele>
        <time>2017-03-26T07:08:51.000Z</time>
      </trkpt>
      <trkpt lat="47.49183" lon="6.77141">
        <ele>354</ele>
        <time>2017-03-26T07:08:52.000Z</time>
      </trkpt>
      <trkpt lat="47.49183" lon="6.77147">
        <ele>354.6</ele>
        <time>2017-03-26T07:08:53.000Z</time>
      </trkpt>
      <trkpt lat="47.49183" lon="6.77152">
        <ele>355.6</ele>
        <time>2017-03-26T07:08:54.000Z</time>
      </trkpt>
      <trkpt lat="47.49183" lon="6.77158">
        <ele>355.6</ele>
        <time>2017-03-26T07:08:55.000Z</time>
      </trkpt>
      <trkpt lat="47.49184" lon="6.77164">
        <ele>355.7</ele>
        <time>2017-03-26T07:08:56.000Z</time>
      </trkpt>
      <trkpt lat="47.49184" lon="6.7717">
        <ele>355.4</ele>
        <time>2017-03-26T07:08:57.000Z</time>
      </trkpt>
      <trkpt lat="47.49185" lon="6.77177">
        <ele>355.7</ele>
        <time>2017-03-26T07:08:58.000Z</time>
      </trkpt>
      <trkpt lat="47.49185" lon="6.77185">
        <ele>355.7</ele>
        <time>2017-03-26T07:08:59.000Z</time>
      </trkpt>
      <trkpt lat="47.49184" lon="6.77193">
        <ele>356.4</ele>
        <time>2017-03-26T07:09:00.000Z</time>
      </trkpt>
      <trkpt lat="47.49184" lon="6.772">
        <ele>356.5</ele>
        <time>2017-03-26T07:09:01.000Z</time>
      </trkpt>
      <trkpt lat="47.49185" lon="6.77207">
        <ele>357.2</ele>
        <time>2017-03-26T07:09:02.000Z</time>
      </trkpt>
      <trkpt lat="47.49185" lon="6.77214">
        <ele>357.4</ele>
        <time>2017-03-26T07:09:03.000Z</time>
      </trkpt>
      <trkpt lat="47.49185" lon="6.77222">
        <ele>357.3</ele>
        <time>2017-03-26T07:09:04.000Z</time>
      </trkpt>
      <trkpt lat="47.49186" lon="6.77229">
        <ele>357.1</ele>
        <time>2017-03-26T07:09:05.000Z</time>
      </trkpt>
      <trkpt lat="47.49186" lon="6.77237">
        <ele>357</ele>
        <time>2017-03-26T07:09:06.000Z</time>
      </trkpt>
      <trkpt lat="47.49187" lon="6.77245">
        <ele>357.4</ele>
        <time>2017-03-26T07:09:07.000Z</time>
      </trkpt>
      <trkpt lat="47.49187" lon="6.77252">
        <ele>358.1</ele>
        <time>2017-03-26T07:09:08.000Z</time>
      </trkpt>
      <trkpt lat="47.49186" lon="6.77258">
        <ele>358</ele>
        <time>2017-03-26T07:09:09.000Z</time>
      </trkpt>
      <trkpt lat="47.49186" lon="6.77267">
        <ele>358.1</ele>
        <time>2017-03-26T07:09:10.000Z</time>
      </trkpt>
      <trkpt lat="47.49185" lon="6.77275">
        <ele>358.1</ele>
        <time>2017-03-26T07:09:11.000Z</time>
      </trkpt>
      <trkpt lat="47.49184" lon="6.77284">
        <ele>358.3</ele>
        <time>2017-03-26T07:09:12.000Z</time>
      </trkpt>
      <trkpt lat="47.49184" lon="6.77294">
        <ele>358.7</ele>
        <time>2017-03-26T07:09:13.000Z</time>
      </trkpt>
      <trkpt lat="47.49184" lon="6.77302">
        <ele>359.3</ele>
        <time>2017-03-26T07:09:14.000Z</time>
      </trkpt>
      <trkpt lat="47.49184" lon="6.77311">
        <ele>360.1</ele>
        <time>2017-03-26T07:09:15.000Z</time>
      </trkpt>
      <trkpt lat="47.49183" lon="6.77318">
        <ele>360.4</ele>
        <time>2017-03-26T07:09:16.000Z</time>
      </trkpt>
      <trkpt lat="47.49181" lon="6.77325">
        <ele>361.1</ele>
        <time>2017-03-26T07:09:17.000Z</time>
      </trkpt>
      <trkpt lat="47.49178" lon="6.77333">
        <ele>361.2</ele>
        <time>2017-03-26T07:09:18.000Z</time>
      </trkpt>
      <trkpt lat="47.49175" lon="6.77336">
        <ele>361.2</ele>
        <time>2017-03-26T07:09:19.000Z</time>
      </trkpt>
      <trkpt lat="47.49173" lon="6.77338">
        <ele>361.3</ele>
        <time>2017-03-26T07:09:20.000Z</time>
      </trkpt>
      <trkpt lat="47.49169" lon="6.7734">
        <ele>361.2</ele>
        <time>2017-03-26T07:09:22.000Z</time>
      </trkpt>
      <trkpt lat="47.49166" lon="6.77346">
        <ele>360.7</ele>
        <time>2017-03-26T07:09:23.000Z</time>
      </trkpt>
      <trkpt lat="47.49163" lon="6.7735">
        <ele>360.9</ele>
        <time>2017-03-26T07:09:24.000Z</time>
      </trkpt>
      <trkpt lat="47.4916" lon="6.77354">
        <ele>361.2</ele>
        <time>2017-03-26T07:09:25.000Z</time>
      </trkpt>
      <trkpt lat="47.49156" lon="6.77358">
        <ele>361.2</ele>
        <time>2017-03-26T07:09:26.000Z</time>
      </trkpt>
      <trkpt lat="47.49153" lon="6.77362">
        <ele>361.5</ele>
        <time>2017-03-26T07:09:27.000Z</time>
      </trkpt>
      <trkpt lat="47.4915" lon="6.77365">
        <ele>361.5</ele>
        <time>2017-03-26T07:09:28.000Z</time>
      </trkpt>
      <trkpt lat="47.49148" lon="6.77368">
        <ele>361.5</ele>
        <time>2017-03-26T07:09:29.000Z</time>
      </trkpt>
      <trkpt lat="47.49145" lon="6.77371">
        <ele>361.4</ele>
        <time>2017-03-26T07:09:31.000Z</time>
      </trkpt>
      <trkpt lat="47.49144" lon="6.77372">
        <ele>361.4</ele>
        <time>2017-03-26T07:09:32.000Z</time>
      </trkpt>
      <trkpt lat="47.49141" lon="6.77374">
        <ele>361.6</ele>
        <time>2017-03-26T07:09:34.000Z</time>
      </trkpt>
      <trkpt lat="47.49139" lon="6.77378">
        <ele>361.6</ele>
        <time>2017-03-26T07:09:35.000Z</time>
      </trkpt>
      <trkpt lat="47.49137" lon="6.77382">
        <ele>361.5</ele>
        <time>2017-03-26T07:09:38.000Z</time>
      </trkpt>
      <trkpt lat="47.49134" lon="6.77384">
        <ele>361.4</ele>
        <time>2017-03-26T07:09:39.000Z</time>
      </trkpt>
      <trkpt lat="47.49132" lon="6.77385">
        <ele>361.3</ele>
        <time>2017-03-26T07:09:40.000Z</time>
      </trkpt>
      <trkpt lat="47.49129" lon="6.77386">
        <ele>361.2</ele>
        <time>2017-03-26T07:09:41.000Z</time>
      </trkpt>
      <trkpt lat="47.49126" lon="6.77388">
        <ele>361.2</ele>
        <time>2017-03-26T07:09:42.000Z</time>
      </trkpt>
      <trkpt lat="47.49124" lon="6.7739">
        <ele>361.2</ele>
        <time>2017-03-26T07:09:43.000Z</time>
      </trkpt>
      <trkpt lat="47.49122" lon="6.77391">
        <ele>361.2</ele>
        <time>2017-03-26T07:09:44.000Z</time>
      </trkpt>
      <trkpt lat="47.4912" lon="6.77393">
        <ele>361.3</ele>
        <time>2017-03-26T07:09:45.000Z</time>
      </trkpt>
      <trkpt lat="47.49116" lon="6.77396">
        <ele>361.3</ele>
        <time>2017-03-26T07:09:46.000Z</time>
      </trkpt>
      <trkpt lat="47.49109" lon="6.77402">
        <ele>360.9</ele>
        <time>2017-03-26T07:09:48.000Z</time>
      </trkpt>
      <trkpt lat="47.49105" lon="6.77406">
        <ele>359.6</ele>
        <time>2017-03-26T07:09:49.000Z</time>
      </trkpt>
      <trkpt lat="47.49101" lon="6.77408">
        <ele>358.2</ele>
        <time>2017-03-26T07:09:50.000Z</time>
      </trkpt>
      <trkpt lat="47.49096" lon="6.7741">
        <ele>357.6</ele>
        <time>2017-03-26T07:09:51.000Z</time>
      </trkpt>
      <trkpt lat="47.49092" lon="6.77411">
        <ele>356.5</ele>
        <time>2017-03-26T07:09:52.000Z</time>
      </trkpt>
      <trkpt lat="47.49087" lon="6.77414">
        <ele>354.9</ele>
        <time>2017-03-26T07:09:53.000Z</time>
      </trkpt>
      <trkpt lat="47.49083" lon="6.77415">
        <ele>353.8</ele>
        <time>2017-03-26T07:09:54.000Z</time>
      </trkpt>
      <trkpt lat="47.49079" lon="6.77417">
        <ele>353.7</ele>
        <time>2017-03-26T07:09:55.000Z</time>
      </trkpt>
      <trkpt lat="47.49074" lon="6.77419">
        <ele>352.9</ele>
        <time>2017-03-26T07:09:56.000Z</time>
      </trkpt>
      <trkpt lat="47.4907" lon="6.77421">
        <ele>352.6</ele>
        <time>2017-03-26T07:09:57.000Z</time>
      </trkpt>
      <trkpt lat="47.49065" lon="6.77423">
        <ele>352</ele>
        <time>2017-03-26T07:09:58.000Z</time>
      </trkpt>
      <trkpt lat="47.4906" lon="6.77424">
        <ele>350.7</ele>
        <time>2017-03-26T07:09:59.000Z</time>
      </trkpt>
      <trkpt lat="47.49054" lon="6.77426">
        <ele>350.5</ele>
        <time>2017-03-26T07:10:00.000Z</time>
      </trkpt>
      <trkpt lat="47.49049" lon="6.77428">
        <ele>348.3</ele>
        <time>2017-03-26T07:10:01.000Z</time>
      </trkpt>
      <trkpt lat="47.49045" lon="6.77429">
        <ele>346.1</ele>
        <time>2017-03-26T07:10:02.000Z</time>
      </trkpt>
      <trkpt lat="47.49042" lon="6.77431">
        <ele>345.1</ele>
        <time>2017-03-26T07:10:03.000Z</time>
      </trkpt>
      <trkpt lat="47.49038" lon="6.77435">
        <ele>344.7</ele>
        <time>2017-03-26T07:10:04.000Z</time>
      </trkpt>
      <trkpt lat="47.49035" lon="6.77437">
        <ele>344.7</ele>
        <time>2017-03-26T07:10:05.000Z</time>
      </trkpt>
      <trkpt lat="47.49032" lon="6.77439">
        <ele>344.6</ele>
        <time>2017-03-26T07:10:06.000Z</time>
      </trkpt>
      <trkpt lat="47.49029" lon="6.77441">
        <ele>344.6</ele>
        <time>2017-03-26T07:10:07.000Z</time>
      </trkpt>
      <trkpt lat="47.49026" lon="6.77445">
        <ele>344.7</ele>
        <time>2017-03-26T07:10:08.000Z</time>
      </trkpt>
      <trkpt lat="47.49022" lon="6.77448">
        <ele>344.8</ele>
        <time>2017-03-26T07:10:09.000Z</time>
      </trkpt>
      <trkpt lat="47.49019" lon="6.77451">
        <ele>344.9</ele>
        <time>2017-03-26T07:10:10.000Z</time>
      </trkpt>
      <trkpt lat="47.49017" lon="6.77451">
        <ele>345.1</ele>
        <time>2017-03-26T07:10:11.000Z</time>
      </trkpt>
      <trkpt lat="47.49013" lon="6.77451">
        <ele>345.3</ele>
        <time>2017-03-26T07:10:12.000Z</time>
      </trkpt>
      <trkpt lat="47.4901" lon="6.77447">
        <ele>345.6</ele>
        <time>2017-03-26T07:10:14.000Z</time>
      </trkpt>
      <trkpt lat="47.4901" lon="6.77444">
        <ele>345.6</ele>
        <time>2017-03-26T07:10:15.000Z</time>
      </trkpt>
      <trkpt lat="47.4901" lon="6.7744">
        <ele>345.8</ele>
        <time>2017-03-26T07:10:16.000Z</time>
      </trkpt>
      <trkpt lat="47.4901" lon="6.77434">
        <ele>346</ele>
        <time>2017-03-26T07:10:17.000Z</time>
      </trkpt>
      <trkpt lat="47.49011" lon="6.77429">
        <ele>346.2</ele>
        <time>2017-03-26T07:10:18.000Z</time>
      </trkpt>
      <trkpt lat="47.49011" lon="6.77422">
        <ele>346.5</ele>
        <time>2017-03-26T07:10:19.000Z</time>
      </trkpt>
      <trkpt lat="47.49012" lon="6.77414">
        <ele>346.6</ele>
        <time>2017-03-26T07:10:20.000Z</time>
      </trkpt>
      <trkpt lat="47.49013" lon="6.7741">
        <ele>346.7</ele>
        <time>2017-03-26T07:10:21.000Z</time>
      </trkpt>
      <trkpt lat="47.49014" lon="6.77405">
        <ele>346.7</ele>
        <time>2017-03-26T07:10:22.000Z</time>
      </trkpt>
      <trkpt lat="47.49014" lon="6.77401">
        <ele>346.7</ele>
        <time>2017-03-26T07:10:23.000Z</time>
      </trkpt>
      <trkpt lat="47.49013" lon="6.77398">
        <ele>346.7</ele>
        <time>2017-03-26T07:10:24.000Z</time>
      </trkpt>
      <trkpt lat="47.49015" lon="6.77393">
        <ele>346.7</ele>
        <time>2017-03-26T07:10:25.000Z</time>
      </trkpt>
      <trkpt lat="47.49016" lon="6.77388">
        <ele>346.9</ele>
        <time>2017-03-26T07:10:26.000Z</time>
      </trkpt>
      <trkpt lat="47.49017" lon="6.77384">
        <ele>347</ele>
        <time>2017-03-26T07:10:27.000Z</time>
      </trkpt>
      <trkpt lat="47.49017" lon="6.77378">
        <ele>347.1</ele>
        <time>2017-03-26T07:10:28.000Z</time>
      </trkpt>
      <trkpt lat="47.49018" lon="6.77373">
        <ele>347.2</ele>
        <time>2017-03-26T07:10:29.000Z</time>
      </trkpt>
      <trkpt lat="47.49018" lon="6.77368">
        <ele>347.3</ele>
        <time>2017-03-26T07:10:30.000Z</time>
      </trkpt>
      <trkpt lat="47.49019" lon="6.77364">
        <ele>347.4</ele>
        <time>2017-03-26T07:10:31.000Z</time>
      </trkpt>
      <trkpt lat="47.49019" lon="6.77358">
        <ele>347.4</ele>
        <time>2017-03-26T07:10:32.000Z</time>
      </trkpt>
      <trkpt lat="47.49019" lon="6.77353">
        <ele>347.5</ele>
        <time>2017-03-26T07:10:33.000Z</time>
      </trkpt>
      <trkpt lat="47.49018" lon="6.77349">
        <ele>347.6</ele>
        <time>2017-03-26T07:10:34.000Z</time>
      </trkpt>
      <trkpt lat="47.49016" lon="6.77343">
        <ele>348.9</ele>
        <time>2017-03-26T07:10:35.000Z</time>
      </trkpt>
      <trkpt lat="47.49014" lon="6.77336">
        <ele>350.5</ele>
        <time>2017-03-26T07:10:36.000Z</time>
      </trkpt>
      <trkpt lat="47.49011" lon="6.77332">
        <ele>350.6</ele>
        <time>2017-03-26T07:10:37.000Z</time>
      </trkpt>
      <trkpt lat="47.49008" lon="6.77327">
        <ele>350.9</ele>
        <time>2017-03-26T07:10:38.000Z</time>
      </trkpt>
      <trkpt lat="47.49005" lon="6.77324">
        <ele>351.5</ele>
        <time>2017-03-26T07:10:43.000Z</time>
      </trkpt>
      <trkpt lat="47.49002" lon="6.77323">
        <ele>351.7</ele>
        <time>2017-03-26T07:10:44.000Z</time>
      </trkpt>
      <trkpt lat="47.48998" lon="6.77321">
        <ele>351.9</ele>
        <time>2017-03-26T07:10:45.000Z</time>
      </trkpt>
      <trkpt lat="47.48994" lon="6.77321">
        <ele>352.1</ele>
        <time>2017-03-26T07:10:46.000Z</time>
      </trkpt>
      <trkpt lat="47.48987" lon="6.7732">
        <ele>352.6</ele>
        <time>2017-03-26T07:10:48.000Z</time>
      </trkpt>
      <trkpt lat="47.48985" lon="6.7732">
        <ele>352.9</ele>
        <time>2017-03-26T07:10:49.000Z</time>
      </trkpt>
      <trkpt lat="47.48983" lon="6.7732">
        <ele>353.1</ele>
        <time>2017-03-26T07:10:50.000Z</time>
      </trkpt>
      <trkpt lat="47.4898" lon="6.7732">
        <ele>353.3</ele>
        <time>2017-03-26T07:10:51.000Z</time>
      </trkpt>
      <trkpt lat="47.48976" lon="6.77319">
        <ele>353.5</ele>
        <time>2017-03-26T07:10:52.000Z</time>
      </trkpt>
      <trkpt lat="47.48972" lon="6.77318">
        <ele>353.6</ele>
        <time>2017-03-26T07:10:53.000Z</time>
      </trkpt>
      <trkpt lat="47.48967" lon="6.77318">
        <ele>353.8</ele>
        <time>2017-03-26T07:10:54.000Z</time>
      </trkpt>
      <trkpt lat="47.48964" lon="6.77318">
        <ele>354.1</ele>
        <time>2017-03-26T07:10:55.000Z</time>
      </trkpt>
      <trkpt lat="47.48961" lon="6.77317">
        <ele>354.3</ele>
        <time>2017-03-26T07:10:56.000Z</time>
      </trkpt>
      <trkpt lat="47.48958" lon="6.77316">
        <ele>354.6</ele>
        <time>2017-03-26T07:10:57.000Z</time>
      </trkpt>
      <trkpt lat="47.48954" lon="6.77316">
        <ele>354.8</ele>
        <time>2017-03-26T07:10:58.000Z</time>
      </trkpt>
      <trkpt lat="47.48951" lon="6.77315">
        <ele>355.1</ele>
        <time>2017-03-26T07:10:59.000Z</time>
      </trkpt>
      <trkpt lat="47.48948" lon="6.77315">
        <ele>355.3</ele>
        <time>2017-03-26T07:11:00.000Z</time>
      </trkpt>
      <trkpt lat="47.48945" lon="6.77314">
        <ele>355.6</ele>
        <time>2017-03-26T07:11:01.000Z</time>
      </trkpt>
      <trkpt lat="47.48941" lon="6.77312">
        <ele>358.3</ele>
        <time>2017-03-26T07:11:02.000Z</time>
      </trkpt>
      <trkpt lat="47.48937" lon="6.77309">
        <ele>359.5</ele>
        <time>2017-03-26T07:11:03.000Z</time>
      </trkpt>
      <trkpt lat="47.48933" lon="6.77308">
        <ele>360.5</ele>
        <time>2017-03-26T07:11:04.000Z</time>
      </trkpt>
      <trkpt lat="47.48929" lon="6.77306">
        <ele>360.9</ele>
        <time>2017-03-26T07:11:05.000Z</time>
      </trkpt>
      <trkpt lat="47.48924" lon="6.77305">
        <ele>361.2</ele>
        <time>2017-03-26T07:11:06.000Z</time>
      </trkpt>
      <trkpt lat="47.4892" lon="6.77303">
        <ele>361.5</ele>
        <time>2017-03-26T07:11:07.000Z</time>
      </trkpt>
      <trkpt lat="47.48916" lon="6.77302">
        <ele>361.6</ele>
        <time>2017-03-26T07:11:08.000Z</time>
      </trkpt>
      <trkpt lat="47.48911" lon="6.773">
        <ele>361.2</ele>
        <time>2017-03-26T07:11:09.000Z</time>
      </trkpt>
      <trkpt lat="47.48906" lon="6.77298">
        <ele>360.2</ele>
        <time>2017-03-26T07:11:10.000Z</time>
      </trkpt>
      <trkpt lat="47.48903" lon="6.77297">
        <ele>360.3</ele>
        <time>2017-03-26T07:11:11.000Z</time>
      </trkpt>
      <trkpt lat="47.48899" lon="6.77297">
        <ele>360.9</ele>
        <time>2017-03-26T07:11:12.000Z</time>
      </trkpt>
      <trkpt lat="47.48894" lon="6.77295">
        <ele>361.3</ele>
        <time>2017-03-26T07:11:13.000Z</time>
      </trkpt>
      <trkpt lat="47.4889" lon="6.77294">
        <ele>361.6</ele>
        <time>2017-03-26T07:11:14.000Z</time>
      </trkpt>
      <trkpt lat="47.48885" lon="6.77292">
        <ele>362.8</ele>
        <time>2017-03-26T07:11:15.000Z</time>
      </trkpt>
      <trkpt lat="47.4888" lon="6.7729">
        <ele>364.3</ele>
        <time>2017-03-26T07:11:16.000Z</time>
      </trkpt>
      <trkpt lat="47.48876" lon="6.77289">
        <ele>365.8</ele>
        <time>2017-03-26T07:11:17.000Z</time>
      </trkpt>
      <trkpt lat="47.48871" lon="6.77287">
        <ele>367</ele>
        <time>2017-03-26T07:11:18.000Z</time>
      </trkpt>
      <trkpt lat="47.48865" lon="6.77285">
        <ele>367.9</ele>
        <time>2017-03-26T07:11:19.000Z</time>
      </trkpt>
      <trkpt lat="47.48861" lon="6.77283">
        <ele>368.6</ele>
        <time>2017-03-26T07:11:20.000Z</time>
      </trkpt>
      <trkpt lat="47.48856" lon="6.77281">
        <ele>368.9</ele>
        <time>2017-03-26T07:11:21.000Z</time>
      </trkpt>
      <trkpt lat="47.48852" lon="6.77279">
        <ele>368.7</ele>
        <time>2017-03-26T07:11:22.000Z</time>
      </trkpt>
      <trkpt lat="47.48849" lon="6.77277">
        <ele>368.6</ele>
        <time>2017-03-26T07:11:23.000Z</time>
      </trkpt>
      <trkpt lat="47.48845" lon="6.77274">
        <ele>368.1</ele>
        <time>2017-03-26T07:11:24.000Z</time>
      </trkpt>
      <trkpt lat="47.48841" lon="6.77272">
        <ele>367.7</ele>
        <time>2017-03-26T07:11:25.000Z</time>
      </trkpt>
      <trkpt lat="47.48837" lon="6.77269">
        <ele>366.7</ele>
        <time>2017-03-26T07:11:26.000Z</time>
      </trkpt>
      <trkpt lat="47.48833" lon="6.77266">
        <ele>366.1</ele>
        <time>2017-03-26T07:11:27.000Z</time>
      </trkpt>
      <trkpt lat="47.48828" lon="6.77262">
        <ele>365.3</ele>
        <time>2017-03-26T07:11:28.000Z</time>
      </trkpt>
      <trkpt lat="47.48824" lon="6.77259">
        <ele>364.8</ele>
        <time>2017-03-26T07:11:29.000Z</time>
      </trkpt>
      <trkpt lat="47.4882" lon="6.77255">
        <ele>364</ele>
        <time>2017-03-26T07:11:30.000Z</time>
      </trkpt>
      <trkpt lat="47.48815" lon="6.7725">
        <ele>363.4</ele>
        <time>2017-03-26T07:11:31.000Z</time>
      </trkpt>
      <trkpt lat="47.4881" lon="6.77247">
        <ele>363.3</ele>
        <time>2017-03-26T07:11:32.000Z</time>
      </trkpt>
      <trkpt lat="47.48805" lon="6.77242">
        <ele>362.9</ele>
        <time>2017-03-26T07:11:33.000Z</time>
      </trkpt>
      <trkpt lat="47.48801" lon="6.77239">
        <ele>362.6</ele>
        <time>2017-03-26T07:11:34.000Z</time>
      </trkpt>
      <trkpt lat="47.48797" lon="6.77235">
        <ele>362.4</ele>
        <time>2017-03-26T07:11:35.000Z</time>
      </trkpt>
      <trkpt lat="47.48793" lon="6.77232">
        <ele>362.7</ele>
        <time>2017-03-26T07:11:36.000Z</time>
      </trkpt>
      <trkpt lat="47.48788" lon="6.77229">
        <ele>362.9</ele>
        <time>2017-03-26T07:11:37.000Z</time>
      </trkpt>
      <trkpt lat="47.48783" lon="6.77226">
        <ele>363.2</ele>
        <time>2017-03-26T07:11:38.000Z</time>
      </trkpt>
      <trkpt lat="47.48779" lon="6.77223">
        <ele>363.7</ele>
        <time>2017-03-26T07:11:39.000Z</time>
      </trkpt>
      <trkpt lat="47.48775" lon="6.7722">
        <ele>363.8</ele>
        <time>2017-03-26T07:11:40.000Z</time>
      </trkpt>
      <trkpt lat="47.48771" lon="6.77217">
        <ele>363.9</ele>
        <time>2017-03-26T07:11:41.000Z</time>
      </trkpt>
      <trkpt lat="47.48766" lon="6.77214">
        <ele>363.8</ele>
        <time>2017-03-26T07:11:42.000Z</time>
      </trkpt>
      <trkpt lat="47.48762" lon="6.77211">
        <ele>363.9</ele>
        <time>2017-03-26T07:11:43.000Z</time>
      </trkpt>
      <trkpt lat="47.48758" lon="6.77208">
        <ele>364.2</ele>
        <time>2017-03-26T07:11:44.000Z</time>
      </trkpt>
      <trkpt lat="47.48753" lon="6.77204">
        <ele>364.3</ele>
        <time>2017-03-26T07:11:45.000Z</time>
      </trkpt>
      <trkpt lat="47.48748" lon="6.772">
        <ele>364.5</ele>
        <time>2017-03-26T07:11:46.000Z</time>
      </trkpt>
      <trkpt lat="47.48741" lon="6.77194">
        <ele>365.1</ele>
        <time>2017-03-26T07:11:48.000Z</time>
      </trkpt>
      <trkpt lat="47.48737" lon="6.7719">
        <ele>365.2</ele>
        <time>2017-03-26T07:11:49.000Z</time>
      </trkpt>
      <trkpt lat="47.48733" lon="6.77187">
        <ele>365.7</ele>
        <time>2017-03-26T07:11:50.000Z</time>
      </trkpt>
      <trkpt lat="47.48728" lon="6.77184">
        <ele>366</ele>
        <time>2017-03-26T07:11:51.000Z</time>
      </trkpt>
      <trkpt lat="47.48724" lon="6.7718">
        <ele>365.9</ele>
        <time>2017-03-26T07:11:52.000Z</time>
      </trkpt>
      <trkpt lat="47.48719" lon="6.77177">
        <ele>366</ele>
        <time>2017-03-26T07:11:53.000Z</time>
      </trkpt>
      <trkpt lat="47.48715" lon="6.77174">
        <ele>365.9</ele>
        <time>2017-03-26T07:11:54.000Z</time>
      </trkpt>
      <trkpt lat="47.4871" lon="6.77171">
        <ele>365.5</ele>
        <time>2017-03-26T07:11:55.000Z</time>
      </trkpt>
      <trkpt lat="47.48706" lon="6.77168">
        <ele>365.5</ele>
        <time>2017-03-26T07:11:56.000Z</time>
      </trkpt>
      <trkpt lat="47.48702" lon="6.77165">
        <ele>365.4</ele>
        <time>2017-03-26T07:11:57.000Z</time>
      </trkpt>
      <trkpt lat="47.48698" lon="6.77161">
        <ele>364.9</ele>
        <time>2017-03-26T07:11:58.000Z</time>
      </trkpt>
      <trkpt lat="47.48694" lon="6.77156">
        <ele>364.6</ele>
        <time>2017-03-26T07:11:59.000Z</time>
      </trkpt>
      <trkpt lat="47.4869" lon="6.77151">
        <ele>364.7</ele>
        <time>2017-03-26T07:12:00.000Z</time>
      </trkpt>
      <trkpt lat="47.48685" lon="6.77146">
        <ele>364.5</ele>
        <time>2017-03-26T07:12:01.000Z</time>
      </trkpt>
      <trkpt lat="47.48682" lon="6.77143">
        <ele>364.7</ele>
        <time>2017-03-26T07:12:02.000Z</time>
      </trkpt>
      <trkpt lat="47.48679" lon="6.7714">
        <ele>365.2</ele>
        <time>2017-03-26T07:12:03.000Z</time>
      </trkpt>
      <trkpt lat="47.48675" lon="6.77136">
        <ele>365.9</ele>
        <time>2017-03-26T07:12:04.000Z</time>
      </trkpt>
      <trkpt lat="47.48671" lon="6.77132">
        <ele>366.4</ele>
        <time>2017-03-26T07:12:05.000Z</time>
      </trkpt>
      <trkpt lat="47.48667" lon="6.77128">
        <ele>366.6</ele>
        <time>2017-03-26T07:12:06.000Z</time>
      </trkpt>
      <trkpt lat="47.48663" lon="6.77123">
        <ele>366.4</ele>
        <time>2017-03-26T07:12:07.000Z</time>
      </trkpt>
      <trkpt lat="47.48659" lon="6.77118">
        <ele>366.4</ele>
        <time>2017-03-26T07:12:08.000Z</time>
      </trkpt>
      <trkpt lat="47.48655" lon="6.77114">
        <ele>366.7</ele>
        <time>2017-03-26T07:12:09.000Z</time>
      </trkpt>
      <trkpt lat="47.48651" lon="6.7711">
        <ele>367.1</ele>
        <time>2017-03-26T07:12:10.000Z</time>
      </trkpt>
      <trkpt lat="47.48647" lon="6.77105">
        <ele>367.5</ele>
        <time>2017-03-26T07:12:11.000Z</time>
      </trkpt>
      <trkpt lat="47.48643" lon="6.77101">
        <ele>367.5</ele>
        <time>2017-03-26T07:12:12.000Z</time>
      </trkpt>
      <trkpt lat="47.48639" lon="6.77097">
        <ele>366.9</ele>
        <time>2017-03-26T07:12:13.000Z</time>
      </trkpt>
      <trkpt lat="47.48635" lon="6.77093">
        <ele>366.6</ele>
        <time>2017-03-26T07:12:14.000Z</time>
      </trkpt>
      <trkpt lat="47.48631" lon="6.77088">
        <ele>366.2</ele>
        <time>2017-03-26T07:12:15.000Z</time>
      </trkpt>
      <trkpt lat="47.48627" lon="6.77085">
        <ele>366.2</ele>
        <time>2017-03-26T07:12:16.000Z</time>
      </trkpt>
      <trkpt lat="47.48623" lon="6.77082">
        <ele>366.2</ele>
        <time>2017-03-26T07:12:17.000Z</time>
      </trkpt>
      <trkpt lat="47.48618" lon="6.7708">
        <ele>366.3</ele>
        <time>2017-03-26T07:12:18.000Z</time>
      </trkpt>
      <trkpt lat="47.48613" lon="6.77078">
        <ele>366.2</ele>
        <time>2017-03-26T07:12:19.000Z</time>
      </trkpt>
      <trkpt lat="47.48609" lon="6.77076">
        <ele>365.2</ele>
        <time>2017-03-26T07:12:20.000Z</time>
      </trkpt>
      <trkpt lat="47.48605" lon="6.77072">
        <ele>364</ele>
        <time>2017-03-26T07:12:21.000Z</time>
      </trkpt>
      <trkpt lat="47.48601" lon="6.77069">
        <ele>363.2</ele>
        <time>2017-03-26T07:12:22.000Z</time>
      </trkpt>
      <trkpt lat="47.48597" lon="6.77065">
        <ele>363.1</ele>
        <time>2017-03-26T07:12:23.000Z</time>
      </trkpt>
      <trkpt lat="47.48594" lon="6.77062">
        <ele>362.2</ele>
        <time>2017-03-26T07:12:24.000Z</time>
      </trkpt>
      <trkpt lat="47.4859" lon="6.77059">
        <ele>362.3</ele>
        <time>2017-03-26T07:12:25.000Z</time>
      </trkpt>
      <trkpt lat="47.48585" lon="6.77057">
        <ele>363.2</ele>
        <time>2017-03-26T07:12:26.000Z</time>
      </trkpt>
      <trkpt lat="47.4858" lon="6.77053">
        <ele>364.1</ele>
        <time>2017-03-26T07:12:27.000Z</time>
      </trkpt>
      <trkpt lat="47.48575" lon="6.77051">
        <ele>364.2</ele>
        <time>2017-03-26T07:12:28.000Z</time>
      </trkpt>
      <trkpt lat="47.4857" lon="6.77049">
        <ele>364.3</ele>
        <time>2017-03-26T07:12:29.000Z</time>
      </trkpt>
      <trkpt lat="47.48565" lon="6.77048">
        <ele>365</ele>
        <time>2017-03-26T07:12:30.000Z</time>
      </trkpt>
      <trkpt lat="47.4856" lon="6.77047">
        <ele>365.2</ele>
        <time>2017-03-26T07:12:31.000Z</time>
      </trkpt>
      <trkpt lat="47.48555" lon="6.77046">
        <ele>365.3</ele>
        <time>2017-03-26T07:12:32.000Z</time>
      </trkpt>
      <trkpt lat="47.48549" lon="6.77044">
        <ele>365.3</ele>
        <time>2017-03-26T07:12:33.000Z</time>
      </trkpt>
      <trkpt lat="47.48543" lon="6.77041">
        <ele>365.8</ele>
        <time>2017-03-26T07:12:34.000Z</time>
      </trkpt>
      <trkpt lat="47.48537" lon="6.77037">
        <ele>365.9</ele>
        <time>2017-03-26T07:12:35.000Z</time>
      </trkpt>
      <trkpt lat="47.48532" lon="6.77032">
        <ele>365.4</ele>
        <time>2017-03-26T07:12:36.000Z</time>
      </trkpt>
      <trkpt lat="47.48526" lon="6.77027">
        <ele>364.6</ele>
        <time>2017-03-26T07:12:37.000Z</time>
      </trkpt>
      <trkpt lat="47.48521" lon="6.77022">
        <ele>364.2</ele>
        <time>2017-03-26T07:12:38.000Z</time>
      </trkpt>
      <trkpt lat="47.48516" lon="6.77018">
        <ele>363.9</ele>
        <time>2017-03-26T07:12:39.000Z</time>
      </trkpt>
      <trkpt lat="47.4851" lon="6.77014">
        <ele>363.3</ele>
        <time>2017-03-26T07:12:40.000Z</time>
      </trkpt>
      <trkpt lat="47.48504" lon="6.77009">
        <ele>362.7</ele>
        <time>2017-03-26T07:12:41.000Z</time>
      </trkpt>
      <trkpt lat="47.48499" lon="6.77005">
        <ele>362.5</ele>
        <time>2017-03-26T07:12:42.000Z</time>
      </trkpt>
      <trkpt lat="47.48493" lon="6.77001">
        <ele>362.2</ele>
        <time>2017-03-26T07:12:43.000Z</time>
      </trkpt>
      <trkpt lat="47.48488" lon="6.76997">
        <ele>361.7</ele>
        <time>2017-03-26T07:12:44.000Z</time>
      </trkpt>
      <trkpt lat="47.48483" lon="6.76994">
        <ele>361.9</ele>
        <time>2017-03-26T07:12:45.000Z</time>
      </trkpt>
      <trkpt lat="47.48478" lon="6.7699">
        <ele>362.1</ele>
        <time>2017-03-26T07:12:46.000Z</time>
      </trkpt>
      <trkpt lat="47.48468" lon="6.76984">
        <ele>362.7</ele>
        <time>2017-03-26T07:12:48.000Z</time>
      </trkpt>
      <trkpt lat="47.48462" lon="6.7698">
        <ele>362.9</ele>
        <time>2017-03-26T07:12:49.000Z</time>
      </trkpt>
      <trkpt lat="47.48457" lon="6.76976">
        <ele>363.4</ele>
        <time>2017-03-26T07:12:50.000Z</time>
      </trkpt>
      <trkpt lat="47.48453" lon="6.76974">
        <ele>363.7</ele>
        <time>2017-03-26T07:12:51.000Z</time>
      </trkpt>
      <trkpt lat="47.48448" lon="6.76971">
        <ele>363.7</ele>
        <time>2017-03-26T07:12:52.000Z</time>
      </trkpt>
      <trkpt lat="47.48442" lon="6.76967">
        <ele>363.7</ele>
        <time>2017-03-26T07:12:53.000Z</time>
      </trkpt>
      <trkpt lat="47.48438" lon="6.76965">
        <ele>363.9</ele>
        <time>2017-03-26T07:12:54.000Z</time>
      </trkpt>
      <trkpt lat="47.48433" lon="6.76962">
        <ele>364.4</ele>
        <time>2017-03-26T07:12:55.000Z</time>
      </trkpt>
      <trkpt lat="47.48428" lon="6.76959">
        <ele>364.3</ele>
        <time>2017-03-26T07:12:56.000Z</time>
      </trkpt>
      <trkpt lat="47.48422" lon="6.76956">
        <ele>363.7</ele>
        <time>2017-03-26T07:12:57.000Z</time>
      </trkpt>
      <trkpt lat="47.48417" lon="6.76954">
        <ele>363.9</ele>
        <time>2017-03-26T07:12:58.000Z</time>
      </trkpt>
      <trkpt lat="47.4841" lon="6.76951">
        <ele>363.9</ele>
        <time>2017-03-26T07:12:59.000Z</time>
      </trkpt>
      <trkpt lat="47.48403" lon="6.76948">
        <ele>363.6</ele>
        <time>2017-03-26T07:13:00.000Z</time>
      </trkpt>
      <trkpt lat="47.48398" lon="6.76945">
        <ele>363.7</ele>
        <time>2017-03-26T07:13:01.000Z</time>
      </trkpt>
      <trkpt lat="47.48392" lon="6.76941">
        <ele>363.3</ele>
        <time>2017-03-26T07:13:02.000Z</time>
      </trkpt>
      <trkpt lat="47.48387" lon="6.76938">
        <ele>363.1</ele>
        <time>2017-03-26T07:13:03.000Z</time>
      </trkpt>
      <trkpt lat="47.48381" lon="6.76935">
        <ele>363.1</ele>
        <time>2017-03-26T07:13:04.000Z</time>
      </trkpt>
      <trkpt lat="47.48376" lon="6.76931">
        <ele>363.3</ele>
        <time>2017-03-26T07:13:05.000Z</time>
      </trkpt>
      <trkpt lat="47.48371" lon="6.76928">
        <ele>363.9</ele>
        <time>2017-03-26T07:13:06.000Z</time>
      </trkpt>
      <trkpt lat="47.48366" lon="6.76924">
        <ele>364.4</ele>
        <time>2017-03-26T07:13:07.000Z</time>
      </trkpt>
      <trkpt lat="47.4836" lon="6.7692">
        <ele>364.4</ele>
        <time>2017-03-26T07:13:08.000Z</time>
      </trkpt>
      <trkpt lat="47.48354" lon="6.76917">
        <ele>363.5</ele>
        <time>2017-03-26T07:13:09.000Z</time>
      </trkpt>
      <trkpt lat="47.48349" lon="6.76914">
        <ele>363.2</ele>
        <time>2017-03-26T07:13:10.000Z</time>
      </trkpt>
      <trkpt lat="47.48344" lon="6.76911">
        <ele>363</ele>
        <time>2017-03-26T07:13:11.000Z</time>
      </trkpt>
      <trkpt lat="47.48339" lon="6.76909">
        <ele>363.2</ele>
        <time>2017-03-26T07:13:12.000Z</time>
      </trkpt>
      <trkpt lat="47.48333" lon="6.76905">
        <ele>362.5</ele>
        <time>2017-03-26T07:13:13.000Z</time>
      </trkpt>
      <trkpt lat="47.48327" lon="6.76901">
        <ele>361.4</ele>
        <time>2017-03-26T07:13:14.000Z</time>
      </trkpt>
      <trkpt lat="47.48322" lon="6.76898">
        <ele>360.5</ele>
        <time>2017-03-26T07:13:15.000Z</time>
      </trkpt>
      <trkpt lat="47.48316" lon="6.76893">
        <ele>359</ele>
        <time>2017-03-26T07:13:16.000Z</time>
      </trkpt>
      <trkpt lat="47.48312" lon="6.7689">
        <ele>358.3</ele>
        <time>2017-03-26T07:13:17.000Z</time>
      </trkpt>
      <trkpt lat="47.48306" lon="6.76885">
        <ele>357.8</ele>
        <time>2017-03-26T07:13:18.000Z</time>
      </trkpt>
      <trkpt lat="47.48302" lon="6.76881">
        <ele>357.5</ele>
        <time>2017-03-26T07:13:19.000Z</time>
      </trkpt>
      <trkpt lat="47.48296" lon="6.76876">
        <ele>356.9</ele>
        <time>2017-03-26T07:13:20.000Z</time>
      </trkpt>
      <trkpt lat="47.48291" lon="6.76872">
        <ele>355.8</ele>
        <time>2017-03-26T07:13:21.000Z</time>
      </trkpt>
      <trkpt lat="47.48287" lon="6.76867">
        <ele>355.1</ele>
        <time>2017-03-26T07:13:22.000Z</time>
      </trkpt>
      <trkpt lat="47.48282" lon="6.76863">
        <ele>354.3</ele>
        <time>2017-03-26T07:13:23.000Z</time>
      </trkpt>
      <trkpt lat="47.48279" lon="6.76857">
        <ele>354.1</ele>
        <time>2017-03-26T07:13:24.000Z</time>
      </trkpt>
      <trkpt lat="47.48275" lon="6.7685">
        <ele>354.6</ele>
        <time>2017-03-26T07:13:25.000Z</time>
      </trkpt>
      <trkpt lat="47.48271" lon="6.76844">
        <ele>355.1</ele>
        <time>2017-03-26T07:13:26.000Z</time>
      </trkpt>
      <trkpt lat="47.48267" lon="6.76837">
        <ele>355.7</ele>
        <time>2017-03-26T07:13:27.000Z</time>
      </trkpt>
      <trkpt lat="47.48263" lon="6.76831">
        <ele>356.8</ele>
        <time>2017-03-26T07:13:28.000Z</time>
      </trkpt>
      <trkpt lat="47.48259" lon="6.76825">
        <ele>358.2</ele>
        <time>2017-03-26T07:13:29.000Z</time>
      </trkpt>
      <trkpt lat="47.48254" lon="6.76818">
        <ele>359.1</ele>
        <time>2017-03-26T07:13:30.000Z</time>
      </trkpt>
      <trkpt lat="47.4825" lon="6.76811">
        <ele>359.8</ele>
        <time>2017-03-26T07:13:31.000Z</time>
      </trkpt>
      <trkpt lat="47.48246" lon="6.76805">
        <ele>360.3</ele>
        <time>2017-03-26T07:13:32.000Z</time>
      </trkpt>
      <trkpt lat="47.4824" lon="6.76798">
        <ele>360.1</ele>
        <time>2017-03-26T07:13:33.000Z</time>
      </trkpt>
      <trkpt lat="47.48235" lon="6.76793">
        <ele>359.9</ele>
        <time>2017-03-26T07:13:34.000Z</time>
      </trkpt>
      <trkpt lat="47.48231" lon="6.7679">
        <ele>360.1</ele>
        <time>2017-03-26T07:13:35.000Z</time>
      </trkpt>
      <trkpt lat="47.48225" lon="6.76787">
        <ele>359.8</ele>
        <time>2017-03-26T07:13:36.000Z</time>
      </trkpt>
      <trkpt lat="47.48221" lon="6.76785">
        <ele>360</ele>
        <time>2017-03-26T07:13:37.000Z</time>
      </trkpt>
      <trkpt lat="47.48216" lon="6.76783">
        <ele>360.1</ele>
        <time>2017-03-26T07:13:38.000Z</time>
      </trkpt>
      <trkpt lat="47.4821" lon="6.76781">
        <ele>360.5</ele>
        <time>2017-03-26T07:13:39.000Z</time>
      </trkpt>
      <trkpt lat="47.48205" lon="6.7678">
        <ele>361.4</ele>
        <time>2017-03-26T07:13:40.000Z</time>
      </trkpt>
      <trkpt lat="47.482" lon="6.76778">
        <ele>362.2</ele>
        <time>2017-03-26T07:13:41.000Z</time>
      </trkpt>
      <trkpt lat="47.48195" lon="6.76775">
        <ele>362.5</ele>
        <time>2017-03-26T07:13:42.000Z</time>
      </trkpt>
      <trkpt lat="47.48189" lon="6.76772">
        <ele>362.3</ele>
        <time>2017-03-26T07:13:43.000Z</time>
      </trkpt>
      <trkpt lat="47.48183" lon="6.76769">
        <ele>361.4</ele>
        <time>2017-03-26T07:13:44.000Z</time>
      </trkpt>
      <trkpt lat="47.48177" lon="6.76766">
        <ele>360.9</ele>
        <time>2017-03-26T07:13:45.000Z</time>
      </trkpt>
      <trkpt lat="47.48173" lon="6.76762">
        <ele>360.5</ele>
        <time>2017-03-26T07:13:46.000Z</time>
      </trkpt>
      <trkpt lat="47.48169" lon="6.76759">
        <ele>359.7</ele>
        <time>2017-03-26T07:13:47.000Z</time>
      </trkpt>
      <trkpt lat="47.48165" lon="6.76754">
        <ele>359.4</ele>
        <time>2017-03-26T07:13:48.000Z</time>
      </trkpt>
      <trkpt lat="47.48161" lon="6.76749">
        <ele>360.3</ele>
        <time>2017-03-26T07:13:49.000Z</time>
      </trkpt>
      <trkpt lat="47.48157" lon="6.76741">
        <ele>360.7</ele>
        <time>2017-03-26T07:13:50.000Z</time>
      </trkpt>
      <trkpt lat="47.48153" lon="6.76734">
        <ele>360.4</ele>
        <time>2017-03-26T07:13:51.000Z</time>
      </trkpt>
      <trkpt lat="47.4815" lon="6.76726">
        <ele>360</ele>
        <time>2017-03-26T07:13:52.000Z</time>
      </trkpt>
      <trkpt lat="47.48146" lon="6.76719">
        <ele>359.4</ele>
        <time>2017-03-26T07:13:53.000Z</time>
      </trkpt>
      <trkpt lat="47.48143" lon="6.76712">
        <ele>359.3</ele>
        <time>2017-03-26T07:13:54.000Z</time>
      </trkpt>
      <trkpt lat="47.4814" lon="6.76705">
        <ele>359.1</ele>
        <time>2017-03-26T07:13:55.000Z</time>
      </trkpt>
      <trkpt lat="47.48137" lon="6.76699">
        <ele>358.8</ele>
        <time>2017-03-26T07:13:56.000Z</time>
      </trkpt>
      <trkpt lat="47.48134" lon="6.76691">
        <ele>358.9</ele>
        <time>2017-03-26T07:13:57.000Z</time>
      </trkpt>
      <trkpt lat="47.4813" lon="6.76684">
        <ele>358.5</ele>
        <time>2017-03-26T07:13:58.000Z</time>
      </trkpt>
      <trkpt lat="47.48127" lon="6.76678">
        <ele>358.5</ele>
        <time>2017-03-26T07:13:59.000Z</time>
      </trkpt>
      <trkpt lat="47.48123" lon="6.76673">
        <ele>358.5</ele>
        <time>2017-03-26T07:14:00.000Z</time>
      </trkpt>
      <trkpt lat="47.4812" lon="6.76669">
        <ele>358.4</ele>
        <time>2017-03-26T07:14:01.000Z</time>
      </trkpt>
      <trkpt lat="47.48116" lon="6.76664">
        <ele>358.3</ele>
        <time>2017-03-26T07:14:02.000Z</time>
      </trkpt>
      <trkpt lat="47.48113" lon="6.7666">
        <ele>358.3</ele>
        <time>2017-03-26T07:14:03.000Z</time>
      </trkpt>
      <trkpt lat="47.48109" lon="6.76653">
        <ele>358.3</ele>
        <time>2017-03-26T07:14:04.000Z</time>
      </trkpt>
      <trkpt lat="47.48106" lon="6.76648">
        <ele>358.4</ele>
        <time>2017-03-26T07:14:05.000Z</time>
      </trkpt>
      <trkpt lat="47.48104" lon="6.76643">
        <ele>358.5</ele>
        <time>2017-03-26T07:14:06.000Z</time>
      </trkpt>
      <trkpt lat="47.48103" lon="6.76638">
        <ele>358.7</ele>
        <time>2017-03-26T07:14:07.000Z</time>
      </trkpt>
      <trkpt lat="47.48103" lon="6.76634">
        <ele>358.8</ele>
        <time>2017-03-26T07:14:08.000Z</time>
      </trkpt>
      <trkpt lat="47.48103" lon="6.76629">
        <ele>358.8</ele>
        <time>2017-03-26T07:14:09.000Z</time>
      </trkpt>
      <trkpt lat="47.48102" lon="6.76622">
        <ele>358.9</ele>
        <time>2017-03-26T07:14:10.000Z</time>
      </trkpt>
      <trkpt lat="47.48102" lon="6.76615">
        <ele>358.9</ele>
        <time>2017-03-26T07:14:11.000Z</time>
      </trkpt>
      <trkpt lat="47.48103" lon="6.76606">
        <ele>358.9</ele>
        <time>2017-03-26T07:14:12.000Z</time>
      </trkpt>
      <trkpt lat="47.48104" lon="6.76597">
        <ele>358.7</ele>
        <time>2017-03-26T07:14:13.000Z</time>
      </trkpt>
      <trkpt lat="47.48107" lon="6.76586">
        <ele>358.5</ele>
        <time>2017-03-26T07:14:14.000Z</time>
      </trkpt>
      <trkpt lat="47.4811" lon="6.76578">
        <ele>358.2</ele>
        <time>2017-03-26T07:14:15.000Z</time>
      </trkpt>
      <trkpt lat="47.48112" lon="6.76571">
        <ele>357.9</ele>
        <time>2017-03-26T07:14:16.000Z</time>
      </trkpt>
      <trkpt lat="47.48114" lon="6.76565">
        <ele>357.5</ele>
        <time>2017-03-26T07:14:17.000Z</time>
      </trkpt>
      <trkpt lat="47.48116" lon="6.76561">
        <ele>357.1</ele>
        <time>2017-03-26T07:14:18.000Z</time>
      </trkpt>
      <trkpt lat="47.48118" lon="6.76554">
        <ele>356.8</ele>
        <time>2017-03-26T07:14:19.000Z</time>
      </trkpt>
      <trkpt lat="47.48118" lon="6.7655">
        <ele>356.5</ele>
        <time>2017-03-26T07:14:20.000Z</time>
      </trkpt>
      <trkpt lat="47.48118" lon="6.76546">
        <ele>356.3</ele>
        <time>2017-03-26T07:14:21.000Z</time>
      </trkpt>
      <trkpt lat="47.48118" lon="6.76541">
        <ele>356.2</ele>
        <time>2017-03-26T07:14:22.000Z</time>
      </trkpt>
      <trkpt lat="47.48117" lon="6.76537">
        <ele>356</ele>
        <time>2017-03-26T07:14:23.000Z</time>
      </trkpt>
      <trkpt lat="47.48117" lon="6.76533">
        <ele>355.9</ele>
        <time>2017-03-26T07:14:24.000Z</time>
      </trkpt>
      <trkpt lat="47.48116" lon="6.76529">
        <ele>355.8</ele>
        <time>2017-03-26T07:14:25.000Z</time>
      </trkpt>
      <trkpt lat="47.48114" lon="6.76524">
        <ele>355.6</ele>
        <time>2017-03-26T07:14:26.000Z</time>
      </trkpt>
      <trkpt lat="47.48112" lon="6.76519">
        <ele>355.4</ele>
        <time>2017-03-26T07:14:27.000Z</time>
      </trkpt>
      <trkpt lat="47.4811" lon="6.76515">
        <ele>355.2</ele>
        <time>2017-03-26T07:14:28.000Z</time>
      </trkpt>
      <trkpt lat="47.48104" lon="6.76515">
        <ele>352.8</ele>
        <time>2017-03-26T07:14:29.000Z</time>
      </trkpt>
      <trkpt lat="47.481" lon="6.76519">
        <ele>351.3</ele>
        <time>2017-03-26T07:14:30.000Z</time>
      </trkpt>
      <trkpt lat="47.48096" lon="6.76522">
        <ele>350.7</ele>
        <time>2017-03-26T07:14:31.000Z</time>
      </trkpt>
      <trkpt lat="47.48091" lon="6.76526">
        <ele>350.6</ele>
        <time>2017-03-26T07:14:32.000Z</time>
      </trkpt>
      <trkpt lat="47.48087" lon="6.76529">
        <ele>350.6</ele>
        <time>2017-03-26T07:14:33.000Z</time>
      </trkpt>
      <trkpt lat="47.48082" lon="6.76532">
        <ele>351.3</ele>
        <time>2017-03-26T07:14:34.000Z</time>
      </trkpt>
      <trkpt lat="47.48078" lon="6.76535">
        <ele>351.2</ele>
        <time>2017-03-26T07:14:35.000Z</time>
      </trkpt>
      <trkpt lat="47.48075" lon="6.76537">
        <ele>351.8</ele>
        <time>2017-03-26T07:14:36.000Z</time>
      </trkpt>
      <trkpt lat="47.48071" lon="6.7654">
        <ele>352.2</ele>
        <time>2017-03-26T07:14:37.000Z</time>
      </trkpt>
      <trkpt lat="47.48066" lon="6.76544">
        <ele>352.8</ele>
        <time>2017-03-26T07:14:38.000Z</time>
      </trkpt>
      <trkpt lat="47.48063" lon="6.76547">
        <ele>353.3</ele>
        <time>2017-03-26T07:14:39.000Z</time>
      </trkpt>
      <trkpt lat="47.48059" lon="6.76551">
        <ele>353.9</ele>
        <time>2017-03-26T07:14:40.000Z</time>
      </trkpt>
      <trkpt lat="47.48056" lon="6.76554">
        <ele>355.4</ele>
        <time>2017-03-26T07:14:41.000Z</time>
      </trkpt>
      <trkpt lat="47.48053" lon="6.76556">
        <ele>357.1</ele>
        <time>2017-03-26T07:14:42.000Z</time>
      </trkpt>
      <trkpt lat="47.48049" lon="6.7656">
        <ele>358.8</ele>
        <time>2017-03-26T07:14:43.000Z</time>
      </trkpt>
      <trkpt lat="47.48046" lon="6.76563">
        <ele>360.5</ele>
        <time>2017-03-26T07:14:44.000Z</time>
      </trkpt>
      <trkpt lat="47.48042" lon="6.76566">
        <ele>362.2</ele>
        <time>2017-03-26T07:14:45.000Z</time>
      </trkpt>
      <trkpt lat="47.48038" lon="6.7657">
        <ele>363.5</ele>
        <time>2017-03-26T07:14:46.000Z</time>
      </trkpt>
      <trkpt lat="47.48033" lon="6.76574">
        <ele>363.9</ele>
        <time>2017-03-26T07:14:47.000Z</time>
      </trkpt>
      <trkpt lat="47.48029" lon="6.76578">
        <ele>364.3</ele>
        <time>2017-03-26T07:14:48.000Z</time>
      </trkpt>
      <trkpt lat="47.48024" lon="6.76582">
        <ele>365</ele>
        <time>2017-03-26T07:14:49.000Z</time>
      </trkpt>
      <trkpt lat="47.48019" lon="6.76586">
        <ele>365.9</ele>
        <time>2017-03-26T07:14:50.000Z</time>
      </trkpt>
      <trkpt lat="47.48015" lon="6.76589">
        <ele>366.5</ele>
        <time>2017-03-26T07:14:51.000Z</time>
      </trkpt>
      <trkpt lat="47.4801" lon="6.76592">
        <ele>367</ele>
        <time>2017-03-26T07:14:52.000Z</time>
      </trkpt>
      <trkpt lat="47.48006" lon="6.76594">
        <ele>367.8</ele>
        <time>2017-03-26T07:14:53.000Z</time>
      </trkpt>
      <trkpt lat="47.48002" lon="6.76597">
        <ele>369.2</ele>
        <time>2017-03-26T07:14:54.000Z</time>
      </trkpt>
      <trkpt lat="47.47997" lon="6.76599">
        <ele>370.1</ele>
        <time>2017-03-26T07:14:55.000Z</time>
      </trkpt>
      <trkpt lat="47.47992" lon="6.76602">
        <ele>371.5</ele>
        <time>2017-03-26T07:14:56.000Z</time>
      </trkpt>
      <trkpt lat="47.47987" lon="6.76604">
        <ele>372.3</ele>
        <time>2017-03-26T07:14:57.000Z</time>
      </trkpt>
      <trkpt lat="47.47983" lon="6.76607">
        <ele>373.2</ele>
        <time>2017-03-26T07:14:58.000Z</time>
      </trkpt>
      <trkpt lat="47.47979" lon="6.7661">
        <ele>373.7</ele>
        <time>2017-03-26T07:14:59.000Z</time>
      </trkpt>
      <trkpt lat="47.47974" lon="6.76612">
        <ele>374</ele>
        <time>2017-03-26T07:15:00.000Z</time>
      </trkpt>
      <trkpt lat="47.4797" lon="6.76614">
        <ele>373.8</ele>
        <time>2017-03-26T07:15:01.000Z</time>
      </trkpt>
      <trkpt lat="47.47966" lon="6.76616">
        <ele>373.7</ele>
        <time>2017-03-26T07:15:02.000Z</time>
      </trkpt>
      <trkpt lat="47.47962" lon="6.76618">
        <ele>373.9</ele>
        <time>2017-03-26T07:15:03.000Z</time>
      </trkpt>
      <trkpt lat="47.47956" lon="6.76619">
        <ele>373.6</ele>
        <time>2017-03-26T07:15:04.000Z</time>
      </trkpt>
      <trkpt lat="47.47953" lon="6.76619">
        <ele>373.6</ele>
        <time>2017-03-26T07:15:05.000Z</time>
      </trkpt>
      <trkpt lat="47.47949" lon="6.7662">
        <ele>373</ele>
        <time>2017-03-26T07:15:06.000Z</time>
      </trkpt>
      <trkpt lat="47.47944" lon="6.76621">
        <ele>371.7</ele>
        <time>2017-03-26T07:15:07.000Z</time>
      </trkpt>
      <trkpt lat="47.4794" lon="6.76623">
        <ele>370.6</ele>
        <time>2017-03-26T07:15:08.000Z</time>
      </trkpt>
      <trkpt lat="47.47935" lon="6.76626">
        <ele>369.7</ele>
        <time>2017-03-26T07:15:09.000Z</time>
      </trkpt>
      <trkpt lat="47.4793" lon="6.76629">
        <ele>369</ele>
        <time>2017-03-26T07:15:10.000Z</time>
      </trkpt>
      <trkpt lat="47.47925" lon="6.76632">
        <ele>368.3</ele>
        <time>2017-03-26T07:15:11.000Z</time>
      </trkpt>
      <trkpt lat="47.47919" lon="6.76636">
        <ele>367.1</ele>
        <time>2017-03-26T07:15:12.000Z</time>
      </trkpt>
      <trkpt lat="47.47913" lon="6.76641">
        <ele>366.6</ele>
        <time>2017-03-26T07:15:13.000Z</time>
      </trkpt>
      <trkpt lat="47.47907" lon="6.76647">
        <ele>365.3</ele>
        <time>2017-03-26T07:15:14.000Z</time>
      </trkpt>
      <trkpt lat="47.47902" lon="6.76653">
        <ele>364.2</ele>
        <time>2017-03-26T07:15:15.000Z</time>
      </trkpt>
      <trkpt lat="47.47898" lon="6.7666">
        <ele>364.1</ele>
        <time>2017-03-26T07:15:16.000Z</time>
      </trkpt>
      <trkpt lat="47.47893" lon="6.76667">
        <ele>363.6</ele>
        <time>2017-03-26T07:15:17.000Z</time>
      </trkpt>
      <trkpt lat="47.47888" lon="6.76674">
        <ele>363.5</ele>
        <time>2017-03-26T07:15:18.000Z</time>
      </trkpt>
      <trkpt lat="47.47884" lon="6.76683">
        <ele>363.7</ele>
        <time>2017-03-26T07:15:19.000Z</time>
      </trkpt>
      <trkpt lat="47.47881" lon="6.76691">
        <ele>364.3</ele>
        <time>2017-03-26T07:15:20.000Z</time>
      </trkpt>
      <trkpt lat="47.47877" lon="6.76699">
        <ele>364.8</ele>
        <time>2017-03-26T07:15:21.000Z</time>
      </trkpt>
      <trkpt lat="47.47874" lon="6.76707">
        <ele>365.2</ele>
        <time>2017-03-26T07:15:22.000Z</time>
      </trkpt>
      <trkpt lat="47.47871" lon="6.76714">
        <ele>366.2</ele>
        <time>2017-03-26T07:15:23.000Z</time>
      </trkpt>
      <trkpt lat="47.47868" lon="6.76721">
        <ele>367.1</ele>
        <time>2017-03-26T07:15:24.000Z</time>
      </trkpt>
      <trkpt lat="47.47865" lon="6.7673">
        <ele>367.5</ele>
        <time>2017-03-26T07:15:25.000Z</time>
      </trkpt>
      <trkpt lat="47.47861" lon="6.76739">
        <ele>367.2</ele>
        <time>2017-03-26T07:15:26.000Z</time>
      </trkpt>
      <trkpt lat="47.47858" lon="6.76746">
        <ele>366.6</ele>
        <time>2017-03-26T07:15:27.000Z</time>
      </trkpt>
      <trkpt lat="47.47855" lon="6.76753">
        <ele>366.2</ele>
        <time>2017-03-26T07:15:28.000Z</time>
      </trkpt>
      <trkpt lat="47.47851" lon="6.76759">
        <ele>365.5</ele>
        <time>2017-03-26T07:15:29.000Z</time>
      </trkpt>
      <trkpt lat="47.47847" lon="6.76766">
        <ele>365.1</ele>
        <time>2017-03-26T07:15:30.000Z</time>
      </trkpt>
      <trkpt lat="47.47844" lon="6.76773">
        <ele>365.4</ele>
        <time>2017-03-26T07:15:31.000Z</time>
      </trkpt>
      <trkpt lat="47.4784" lon="6.76781">
        <ele>366.2</ele>
        <time>2017-03-26T07:15:32.000Z</time>
      </trkpt>
      <trkpt lat="47.47837" lon="6.76787">
        <ele>366.4</ele>
        <time>2017-03-26T07:15:33.000Z</time>
      </trkpt>
      <trkpt lat="47.47833" lon="6.76793">
        <ele>367</ele>
        <time>2017-03-26T07:15:34.000Z</time>
      </trkpt>
      <trkpt lat="47.47829" lon="6.76797">
        <ele>367.4</ele>
        <time>2017-03-26T07:15:35.000Z</time>
      </trkpt>
      <trkpt lat="47.47824" lon="6.768">
        <ele>367.3</ele>
        <time>2017-03-26T07:15:36.000Z</time>
      </trkpt>
      <trkpt lat="47.47818" lon="6.76801">
        <ele>367.5</ele>
        <time>2017-03-26T07:15:37.000Z</time>
      </trkpt>
      <trkpt lat="47.47812" lon="6.768">
        <ele>367.7</ele>
        <time>2017-03-26T07:15:38.000Z</time>
      </trkpt>
      <trkpt lat="47.47807" lon="6.76799">
        <ele>367.9</ele>
        <time>2017-03-26T07:15:39.000Z</time>
      </trkpt>
      <trkpt lat="47.47802" lon="6.76798">
        <ele>367.2</ele>
        <time>2017-03-26T07:15:40.000Z</time>
      </trkpt>
      <trkpt lat="47.47797" lon="6.76797">
        <ele>366.5</ele>
        <time>2017-03-26T07:15:41.000Z</time>
      </trkpt>
      <trkpt lat="47.47792" lon="6.76795">
        <ele>365.8</ele>
        <time>2017-03-26T07:15:42.000Z</time>
      </trkpt>
      <trkpt lat="47.47786" lon="6.76794">
        <ele>364.9</ele>
        <time>2017-03-26T07:15:43.000Z</time>
      </trkpt>
      <trkpt lat="47.47781" lon="6.76792">
        <ele>364.7</ele>
        <time>2017-03-26T07:15:44.000Z</time>
      </trkpt>
      <trkpt lat="47.47776" lon="6.76791">
        <ele>364.7</ele>
        <time>2017-03-26T07:15:45.000Z</time>
      </trkpt>
      <trkpt lat="47.47771" lon="6.76789">
        <ele>363.9</ele>
        <time>2017-03-26T07:15:46.000Z</time>
      </trkpt>
      <trkpt lat="47.47763" lon="6.76787">
        <ele>362.7</ele>
        <time>2017-03-26T07:15:48.000Z</time>
      </trkpt>
      <trkpt lat="47.47759" lon="6.76786">
        <ele>362.7</ele>
        <time>2017-03-26T07:15:49.000Z</time>
      </trkpt>
      <trkpt lat="47.47754" lon="6.76785">
        <ele>363.2</ele>
        <time>2017-03-26T07:15:50.000Z</time>
      </trkpt>
      <trkpt lat="47.47751" lon="6.76784">
        <ele>364</ele>
        <time>2017-03-26T07:15:51.000Z</time>
      </trkpt>
      <trkpt lat="47.47746" lon="6.76783">
        <ele>364.6</ele>
        <time>2017-03-26T07:15:52.000Z</time>
      </trkpt>
      <trkpt lat="47.47742" lon="6.76783">
        <ele>364.7</ele>
        <time>2017-03-26T07:15:53.000Z</time>
      </trkpt>
      <trkpt lat="47.47737" lon="6.76785">
        <ele>364.5</ele>
        <time>2017-03-26T07:15:54.000Z</time>
      </trkpt>
      <trkpt lat="47.47733" lon="6.76788">
        <ele>364.5</ele>
        <time>2017-03-26T07:15:55.000Z</time>
      </trkpt>
      <trkpt lat="47.4773" lon="6.76793">
        <ele>364.8</ele>
        <time>2017-03-26T07:15:56.000Z</time>
      </trkpt>
      <trkpt lat="47.47727" lon="6.76799">
        <ele>364.9</ele>
        <time>2017-03-26T07:15:57.000Z</time>
      </trkpt>
      <trkpt lat="47.47724" lon="6.76807">
        <ele>364.9</ele>
        <time>2017-03-26T07:15:58.000Z</time>
      </trkpt>
      <trkpt lat="47.47721" lon="6.76817">
        <ele>365</ele>
        <time>2017-03-26T07:15:59.000Z</time>
      </trkpt>
      <trkpt lat="47.47717" lon="6.76826">
        <ele>364.7</ele>
        <time>2017-03-26T07:16:00.000Z</time>
      </trkpt>
      <trkpt lat="47.47714" lon="6.76835">
        <ele>364.3</ele>
        <time>2017-03-26T07:16:01.000Z</time>
      </trkpt>
      <trkpt lat="47.47711" lon="6.76843">
        <ele>363.6</ele>
        <time>2017-03-26T07:16:02.000Z</time>
      </trkpt>
      <trkpt lat="47.47708" lon="6.76851">
        <ele>363</ele>
        <time>2017-03-26T07:16:03.000Z</time>
      </trkpt>
      <trkpt lat="47.47706" lon="6.76857">
        <ele>362.7</ele>
        <time>2017-03-26T07:16:04.000Z</time>
      </trkpt>
      <trkpt lat="47.47704" lon="6.76863">
        <ele>362.9</ele>
        <time>2017-03-26T07:16:05.000Z</time>
      </trkpt>
      <trkpt lat="47.47703" lon="6.76868">
        <ele>362.2</ele>
        <time>2017-03-26T07:16:06.000Z</time>
      </trkpt>
      <trkpt lat="47.47701" lon="6.76874">
        <ele>362.2</ele>
        <time>2017-03-26T07:16:07.000Z</time>
      </trkpt>
      <trkpt lat="47.47699" lon="6.7688">
        <ele>361.9</ele>
        <time>2017-03-26T07:16:08.000Z</time>
      </trkpt>
      <trkpt lat="47.47697" lon="6.76887">
        <ele>361.6</ele>
        <time>2017-03-26T07:16:09.000Z</time>
      </trkpt>
      <trkpt lat="47.47695" lon="6.76893">
        <ele>361.2</ele>
        <time>2017-03-26T07:16:10.000Z</time>
      </trkpt>
      <trkpt lat="47.47693" lon="6.769">
        <ele>360</ele>
        <time>2017-03-26T07:16:11.000Z</time>
      </trkpt>
      <trkpt lat="47.47691" lon="6.76909">
        <ele>359.9</ele>
        <time>2017-03-26T07:16:12.000Z</time>
      </trkpt>
      <trkpt lat="47.47689" lon="6.76916">
        <ele>359.7</ele>
        <time>2017-03-26T07:16:13.000Z</time>
      </trkpt>
      <trkpt lat="47.47687" lon="6.76923">
        <ele>359.7</ele>
        <time>2017-03-26T07:16:14.000Z</time>
      </trkpt>
      <trkpt lat="47.47684" lon="6.76931">
        <ele>359</ele>
        <time>2017-03-26T07:16:15.000Z</time>
      </trkpt>
      <trkpt lat="47.47681" lon="6.76939">
        <ele>358.5</ele>
        <time>2017-03-26T07:16:16.000Z</time>
      </trkpt>
      <trkpt lat="47.47678" lon="6.76947">
        <ele>357.9</ele>
        <time>2017-03-26T07:16:17.000Z</time>
      </trkpt>
      <trkpt lat="47.47675" lon="6.76954">
        <ele>357.4</ele>
        <time>2017-03-26T07:16:18.000Z</time>
      </trkpt>
      <trkpt lat="47.47672" lon="6.76962">
        <ele>357.1</ele>
        <time>2017-03-26T07:16:19.000Z</time>
      </trkpt>
      <trkpt lat="47.4767" lon="6.76968">
        <ele>357.1</ele>
        <time>2017-03-26T07:16:20.000Z</time>
      </trkpt>
      <trkpt lat="47.47667" lon="6.76976">
        <ele>357.1</ele>
        <time>2017-03-26T07:16:21.000Z</time>
      </trkpt>
      <trkpt lat="47.47664" lon="6.76983">
        <ele>357.7</ele>
        <time>2017-03-26T07:16:22.000Z</time>
      </trkpt>
      <trkpt lat="47.47661" lon="6.7699">
        <ele>357.2</ele>
        <time>2017-03-26T07:16:23.000Z</time>
      </trkpt>
      <trkpt lat="47.47658" lon="6.76997">
        <ele>356.1</ele>
        <time>2017-03-26T07:16:24.000Z</time>
      </trkpt>
      <trkpt lat="47.47655" lon="6.77002">
        <ele>356.1</ele>
        <time>2017-03-26T07:16:25.000Z</time>
      </trkpt>
      <trkpt lat="47.47655" lon="6.77006">
        <ele>356.2</ele>
        <time>2017-03-26T07:16:26.000Z</time>
      </trkpt>
      <trkpt lat="47.47653" lon="6.77012">
        <ele>356.1</ele>
        <time>2017-03-26T07:16:27.000Z</time>
      </trkpt>
      <trkpt lat="47.47652" lon="6.77017">
        <ele>356.2</ele>
        <time>2017-03-26T07:16:28.000Z</time>
      </trkpt>
      <trkpt lat="47.47652" lon="6.77021">
        <ele>356.4</ele>
        <time>2017-03-26T07:16:29.000Z</time>
      </trkpt>
      <trkpt lat="47.47652" lon="6.77026">
        <ele>356.6</ele>
        <time>2017-03-26T07:16:30.000Z</time>
      </trkpt>
      <trkpt lat="47.47652" lon="6.7703">
        <ele>356.9</ele>
        <time>2017-03-26T07:16:31.000Z</time>
      </trkpt>
      <trkpt lat="47.47651" lon="6.77036">
        <ele>357</ele>
        <time>2017-03-26T07:16:32.000Z</time>
      </trkpt>
      <trkpt lat="47.4765" lon="6.77041">
        <ele>357.2</ele>
        <time>2017-03-26T07:16:33.000Z</time>
      </trkpt>
      <trkpt lat="47.4765" lon="6.77046">
        <ele>357.4</ele>
        <time>2017-03-26T07:16:34.000Z</time>
      </trkpt>
      <trkpt lat="47.4765" lon="6.7705">
        <ele>357.6</ele>
        <time>2017-03-26T07:16:35.000Z</time>
      </trkpt>
      <trkpt lat="47.47649" lon="6.77054">
        <ele>357.8</ele>
        <time>2017-03-26T07:16:36.000Z</time>
      </trkpt>
      <trkpt lat="47.47649" lon="6.77058">
        <ele>357.9</ele>
        <time>2017-03-26T07:16:37.000Z</time>
      </trkpt>
      <trkpt lat="47.47648" lon="6.77066">
        <ele>358.1</ele>
        <time>2017-03-26T07:16:38.000Z</time>
      </trkpt>
      <trkpt lat="47.47648" lon="6.77072">
        <ele>358.3</ele>
        <time>2017-03-26T07:16:39.000Z</time>
      </trkpt>
      <trkpt lat="47.47648" lon="6.77076">
        <ele>358.5</ele>
        <time>2017-03-26T07:16:40.000Z</time>
      </trkpt>
      <trkpt lat="47.47647" lon="6.7708">
        <ele>360.3</ele>
        <time>2017-03-26T07:16:41.000Z</time>
      </trkpt>
      <trkpt lat="47.47645" lon="6.77085">
        <ele>361.8</ele>
        <time>2017-03-26T07:16:42.000Z</time>
      </trkpt>
      <trkpt lat="47.47644" lon="6.77093">
        <ele>362.6</ele>
        <time>2017-03-26T07:16:43.000Z</time>
      </trkpt>
      <trkpt lat="47.47642" lon="6.771">
        <ele>363.2</ele>
        <time>2017-03-26T07:16:44.000Z</time>
      </trkpt>
      <trkpt lat="47.47641" lon="6.77107">
        <ele>362.4</ele>
        <time>2017-03-26T07:16:45.000Z</time>
      </trkpt>
      <trkpt lat="47.47639" lon="6.77115">
        <ele>362.4</ele>
        <time>2017-03-26T07:16:46.000Z</time>
      </trkpt>
      <trkpt lat="47.47636" lon="6.77134">
        <ele>361.1</ele>
        <time>2017-03-26T07:16:48.000Z</time>
      </trkpt>
      <trkpt lat="47.47632" lon="6.77144">
        <ele>360.7</ele>
        <time>2017-03-26T07:16:49.000Z</time>
      </trkpt>
      <trkpt lat="47.47628" lon="6.77152">
        <ele>360.2</ele>
        <time>2017-03-26T07:16:50.000Z</time>
      </trkpt>
      <trkpt lat="47.47625" lon="6.7716">
        <ele>359.7</ele>
        <time>2017-03-26T07:16:51.000Z</time>
      </trkpt>
      <trkpt lat="47.47621" lon="6.77169">
        <ele>358.8</ele>
        <time>2017-03-26T07:16:52.000Z</time>
      </trkpt>
      <trkpt lat="47.47616" lon="6.77179">
        <ele>358.2</ele>
        <time>2017-03-26T07:16:53.000Z</time>
      </trkpt>
      <trkpt lat="47.47609" lon="6.77185">
        <ele>357.6</ele>
        <time>2017-03-26T07:16:54.000Z</time>
      </trkpt>
      <trkpt lat="47.47603" lon="6.77187">
        <ele>356.8</ele>
        <time>2017-03-26T07:16:55.000Z</time>
      </trkpt>
      <trkpt lat="47.47595" lon="6.77183">
        <ele>356</ele>
        <time>2017-03-26T07:16:56.000Z</time>
      </trkpt>
      <trkpt lat="47.47588" lon="6.77178">
        <ele>355.5</ele>
        <time>2017-03-26T07:16:57.000Z</time>
      </trkpt>
      <trkpt lat="47.47583" lon="6.77174">
        <ele>355.9</ele>
        <time>2017-03-26T07:16:58.000Z</time>
      </trkpt>
      <trkpt lat="47.47578" lon="6.7717">
        <ele>356.3</ele>
        <time>2017-03-26T07:16:59.000Z</time>
      </trkpt>
      <trkpt lat="47.47572" lon="6.77166">
        <ele>357.1</ele>
        <time>2017-03-26T07:17:00.000Z</time>
      </trkpt>
      <trkpt lat="47.47567" lon="6.77161">
        <ele>357.6</ele>
        <time>2017-03-26T07:17:01.000Z</time>
      </trkpt>
      <trkpt lat="47.47562" lon="6.77157">
        <ele>358.4</ele>
        <time>2017-03-26T07:17:02.000Z</time>
      </trkpt>
      <trkpt lat="47.47557" lon="6.77153">
        <ele>359.1</ele>
        <time>2017-03-26T07:17:03.000Z</time>
      </trkpt>
      <trkpt lat="47.47552" lon="6.77149">
        <ele>359.3</ele>
        <time>2017-03-26T07:17:04.000Z</time>
      </trkpt>
      <trkpt lat="47.47546" lon="6.77145">
        <ele>359.1</ele>
        <time>2017-03-26T07:17:05.000Z</time>
      </trkpt>
      <trkpt lat="47.47541" lon="6.77141">
        <ele>358.7</ele>
        <time>2017-03-26T07:17:06.000Z</time>
      </trkpt>
      <trkpt lat="47.47535" lon="6.77138">
        <ele>358.6</ele>
        <time>2017-03-26T07:17:07.000Z</time>
      </trkpt>
      <trkpt lat="47.47529" lon="6.77139">
        <ele>359</ele>
        <time>2017-03-26T07:17:08.000Z</time>
      </trkpt>
      <trkpt lat="47.47525" lon="6.77142">
        <ele>359.2</ele>
        <time>2017-03-26T07:17:09.000Z</time>
      </trkpt>
      <trkpt lat="47.4752" lon="6.7715">
        <ele>358.6</ele>
        <time>2017-03-26T07:17:10.000Z</time>
      </trkpt>
      <trkpt lat="47.47515" lon="6.77156">
        <ele>357.6</ele>
        <time>2017-03-26T07:17:11.000Z</time>
      </trkpt>
      <trkpt lat="47.47515" lon="6.77156">
        <ele>357.6</ele>
        <time>2017-03-26T07:17:12.000Z</time>
      </trkpt>
      <trkpt lat="47.47517" lon="6.77165">
        <ele>357.4</ele>
        <time>2017-03-26T07:17:13.000Z</time>
      </trkpt>
      <trkpt lat="47.47518" lon="6.77175">
        <ele>357.3</ele>
        <time>2017-03-26T07:17:14.000Z</time>
      </trkpt>
      <trkpt lat="47.47522" lon="6.77182">
        <ele>357.6</ele>
        <time>2017-03-26T07:17:15.000Z</time>
      </trkpt>
      <trkpt lat="47.47527" lon="6.77188">
        <ele>357.6</ele>
        <time>2017-03-26T07:17:16.000Z</time>
      </trkpt>
      <trkpt lat="47.47531" lon="6.77192">
        <ele>357.7</ele>
        <time>2017-03-26T07:17:17.000Z</time>
      </trkpt>
      <trkpt lat="47.47536" lon="6.77195">
        <ele>357.9</ele>
        <time>2017-03-26T07:17:18.000Z</time>
      </trkpt>
      <trkpt lat="47.47542" lon="6.77198">
        <ele>356.5</ele>
        <time>2017-03-26T07:17:19.000Z</time>
      </trkpt>
      <trkpt lat="47.47548" lon="6.77201">
        <ele>355.8</ele>
        <time>2017-03-26T07:17:20.000Z</time>
      </trkpt>
      <trkpt lat="47.47553" lon="6.77205">
        <ele>355.5</ele>
        <time>2017-03-26T07:17:21.000Z</time>
      </trkpt>
      <trkpt lat="47.47559" lon="6.77209">
        <ele>355.5</ele>
        <time>2017-03-26T07:17:22.000Z</time>
      </trkpt>
      <trkpt lat="47.47564" lon="6.77213">
        <ele>356.1</ele>
        <time>2017-03-26T07:17:23.000Z</time>
      </trkpt>
      <trkpt lat="47.4757" lon="6.77218">
        <ele>356.4</ele>
        <time>2017-03-26T07:17:24.000Z</time>
      </trkpt>
      <trkpt lat="47.47575" lon="6.77223">
        <ele>355.4</ele>
        <time>2017-03-26T07:17:25.000Z</time>
      </trkpt>
      <trkpt lat="47.4758" lon="6.77227">
        <ele>355.5</ele>
        <time>2017-03-26T07:17:26.000Z</time>
      </trkpt>
      <trkpt lat="47.47586" lon="6.77232">
        <ele>355.4</ele>
        <time>2017-03-26T07:17:27.000Z</time>
      </trkpt>
      <trkpt lat="47.47591" lon="6.77237">
        <ele>356.8</ele>
        <time>2017-03-26T07:17:28.000Z</time>
      </trkpt>
      <trkpt lat="47.47596" lon="6.77241">
        <ele>358.3</ele>
        <time>2017-03-26T07:17:29.000Z</time>
      </trkpt>
      <trkpt lat="47.47602" lon="6.77247">
        <ele>359.8</ele>
        <time>2017-03-26T07:17:30.000Z</time>
      </trkpt>
      <trkpt lat="47.47607" lon="6.77251">
        <ele>360.8</ele>
        <time>2017-03-26T07:17:31.000Z</time>
      </trkpt>
      <trkpt lat="47.47612" lon="6.77256">
        <ele>361.4</ele>
        <time>2017-03-26T07:17:32.000Z</time>
      </trkpt>
      <trkpt lat="47.47616" lon="6.77259">
        <ele>362</ele>
        <time>2017-03-26T07:17:33.000Z</time>
      </trkpt>
      <trkpt lat="47.47621" lon="6.77264">
        <ele>361.4</ele>
        <time>2017-03-26T07:17:34.000Z</time>
      </trkpt>
      <trkpt lat="47.47626" lon="6.7727">
        <ele>360.4</ele>
        <time>2017-03-26T07:17:35.000Z</time>
      </trkpt>
      <trkpt lat="47.47631" lon="6.77276">
        <ele>359.8</ele>
        <time>2017-03-26T07:17:36.000Z</time>
      </trkpt>
      <trkpt lat="47.47634" lon="6.7728">
        <ele>359.5</ele>
        <time>2017-03-26T07:17:37.000Z</time>
      </trkpt>
      <trkpt lat="47.47637" lon="6.77287">
        <ele>359.7</ele>
        <time>2017-03-26T07:17:38.000Z</time>
      </trkpt>
      <trkpt lat="47.47638" lon="6.77294">
        <ele>359.7</ele>
        <time>2017-03-26T07:17:39.000Z</time>
      </trkpt>
      <trkpt lat="47.47638" lon="6.77301">
        <ele>360.2</ele>
        <time>2017-03-26T07:17:40.000Z</time>
      </trkpt>
      <trkpt lat="47.47637" lon="6.77307">
        <ele>360.3</ele>
        <time>2017-03-26T07:17:41.000Z</time>
      </trkpt>
      <trkpt lat="47.47636" lon="6.77314">
        <ele>360.9</ele>
        <time>2017-03-26T07:17:42.000Z</time>
      </trkpt>
      <trkpt lat="47.47634" lon="6.7732">
        <ele>361.2</ele>
        <time>2017-03-26T07:17:43.000Z</time>
      </trkpt>
      <trkpt lat="47.47632" lon="6.77327">
        <ele>361.1</ele>
        <time>2017-03-26T07:17:44.000Z</time>
      </trkpt>
      <trkpt lat="47.4763" lon="6.77334">
        <ele>361</ele>
        <time>2017-03-26T07:17:45.000Z</time>
      </trkpt>
      <trkpt lat="47.47628" lon="6.7734">
        <ele>361.3</ele>
        <time>2017-03-26T07:17:46.000Z</time>
      </trkpt>
      <trkpt lat="47.47626" lon="6.77346">
        <ele>361.1</ele>
        <time>2017-03-26T07:17:47.000Z</time>
      </trkpt>
      <trkpt lat="47.47625" lon="6.77351">
        <ele>360.5</ele>
        <time>2017-03-26T07:17:48.000Z</time>
      </trkpt>
      <trkpt lat="47.47623" lon="6.77357">
        <ele>359.2</ele>
        <time>2017-03-26T07:17:49.000Z</time>
      </trkpt>
      <trkpt lat="47.47622" lon="6.77362">
        <ele>358.6</ele>
        <time>2017-03-26T07:17:50.000Z</time>
      </trkpt>
      <trkpt lat="47.4762" lon="6.77368">
        <ele>358.1</ele>
        <time>2017-03-26T07:17:51.000Z</time>
      </trkpt>
      <trkpt lat="47.47619" lon="6.77374">
        <ele>357.4</ele>
        <time>2017-03-26T07:17:52.000Z</time>
      </trkpt>
      <trkpt lat="47.47618" lon="6.77379">
        <ele>357.4</ele>
        <time>2017-03-26T07:17:53.000Z</time>
      </trkpt>
      <trkpt lat="47.47618" lon="6.77384">
        <ele>357.3</ele>
        <time>2017-03-26T07:17:54.000Z</time>
      </trkpt>
      <trkpt lat="47.47616" lon="6.77388">
        <ele>357.4</ele>
        <time>2017-03-26T07:17:55.000Z</time>
      </trkpt>
      <trkpt lat="47.47613" lon="6.77394">
        <ele>357.4</ele>
        <time>2017-03-26T07:17:56.000Z</time>
      </trkpt>
      <trkpt lat="47.47611" lon="6.774">
        <ele>357.5</ele>
        <time>2017-03-26T07:17:57.000Z</time>
      </trkpt>
      <trkpt lat="47.47608" lon="6.77408">
        <ele>358.6</ele>
        <time>2017-03-26T07:17:58.000Z</time>
      </trkpt>
      <trkpt lat="47.47605" lon="6.77416">
        <ele>358.9</ele>
        <time>2017-03-26T07:17:59.000Z</time>
      </trkpt>
      <trkpt lat="47.47602" lon="6.77424">
        <ele>359.7</ele>
        <time>2017-03-26T07:18:00.000Z</time>
      </trkpt>
      <trkpt lat="47.47599" lon="6.77432">
        <ele>360.4</ele>
        <time>2017-03-26T07:18:01.000Z</time>
      </trkpt>
      <trkpt lat="47.47597" lon="6.77439">
        <ele>360.1</ele>
        <time>2017-03-26T07:18:02.000Z</time>
      </trkpt>
      <trkpt lat="47.47597" lon="6.77445">
        <ele>360</ele>
        <time>2017-03-26T07:18:03.000Z</time>
      </trkpt>
      <trkpt lat="47.47597" lon="6.77452">
        <ele>360.1</ele>
        <time>2017-03-26T07:18:04.000Z</time>
      </trkpt>
      <trkpt lat="47.47599" lon="6.77457">
        <ele>360.2</ele>
        <time>2017-03-26T07:18:05.000Z</time>
      </trkpt>
      <trkpt lat="47.47602" lon="6.77459">
        <ele>360.2</ele>
        <time>2017-03-26T07:18:06.000Z</time>
      </trkpt>
      <trkpt lat="47.47605" lon="6.77464">
        <ele>360.1</ele>
        <time>2017-03-26T07:18:07.000Z</time>
      </trkpt>
      <trkpt lat="47.47607" lon="6.77467">
        <ele>360</ele>
        <time>2017-03-26T07:18:08.000Z</time>
      </trkpt>
      <trkpt lat="47.47611" lon="6.77473">
        <ele>360.2</ele>
        <time>2017-03-26T07:18:09.000Z</time>
      </trkpt>
      <trkpt lat="47.47614" lon="6.77478">
        <ele>360.2</ele>
        <time>2017-03-26T07:18:10.000Z</time>
      </trkpt>
      <trkpt lat="47.47617" lon="6.77484">
        <ele>360.5</ele>
        <time>2017-03-26T07:18:11.000Z</time>
      </trkpt>
      <trkpt lat="47.47621" lon="6.7749">
        <ele>361</ele>
        <time>2017-03-26T07:18:12.000Z</time>
      </trkpt>
      <trkpt lat="47.47624" lon="6.77495">
        <ele>361.4</ele>
        <time>2017-03-26T07:18:13.000Z</time>
      </trkpt>
      <trkpt lat="47.47628" lon="6.77499">
        <ele>361.4</ele>
        <time>2017-03-26T07:18:14.000Z</time>
      </trkpt>
      <trkpt lat="47.47631" lon="6.77503">
        <ele>361.8</ele>
        <time>2017-03-26T07:18:15.000Z</time>
      </trkpt>
      <trkpt lat="47.47635" lon="6.77507">
        <ele>361.8</ele>
        <time>2017-03-26T07:18:16.000Z</time>
      </trkpt>
      <trkpt lat="47.47638" lon="6.77511">
        <ele>361.6</ele>
        <time>2017-03-26T07:18:17.000Z</time>
      </trkpt>
      <trkpt lat="47.47642" lon="6.77516">
        <ele>361.7</ele>
        <time>2017-03-26T07:18:18.000Z</time>
      </trkpt>
      <trkpt lat="47.47646" lon="6.77521">
        <ele>362.1</ele>
        <time>2017-03-26T07:18:19.000Z</time>
      </trkpt>
      <trkpt lat="47.47649" lon="6.77525">
        <ele>362.4</ele>
        <time>2017-03-26T07:18:20.000Z</time>
      </trkpt>
      <trkpt lat="47.47653" lon="6.77529">
        <ele>362.5</ele>
        <time>2017-03-26T07:18:21.000Z</time>
      </trkpt>
      <trkpt lat="47.47657" lon="6.77534">
        <ele>362.5</ele>
        <time>2017-03-26T07:18:22.000Z</time>
      </trkpt>
      <trkpt lat="47.4766" lon="6.77539">
        <ele>362.6</ele>
        <time>2017-03-26T07:18:23.000Z</time>
      </trkpt>
      <trkpt lat="47.47664" lon="6.77544">
        <ele>362.4</ele>
        <time>2017-03-26T07:18:24.000Z</time>
      </trkpt>
      <trkpt lat="47.47667" lon="6.77551">
        <ele>362.7</ele>
        <time>2017-03-26T07:18:25.000Z</time>
      </trkpt>
      <trkpt lat="47.47671" lon="6.77557">
        <ele>363</ele>
        <time>2017-03-26T07:18:26.000Z</time>
      </trkpt>
      <trkpt lat="47.47674" lon="6.77563">
        <ele>363.1</ele>
        <time>2017-03-26T07:18:27.000Z</time>
      </trkpt>
      <trkpt lat="47.47678" lon="6.77568">
        <ele>363.3</ele>
        <time>2017-03-26T07:18:28.000Z</time>
      </trkpt>
      <trkpt lat="47.47681" lon="6.77573">
        <ele>364.1</ele>
        <time>2017-03-26T07:18:29.000Z</time>
      </trkpt>
      <trkpt lat="47.47684" lon="6.7758">
        <ele>364.6</ele>
        <time>2017-03-26T07:18:30.000Z</time>
      </trkpt>
      <trkpt lat="47.47688" lon="6.77585">
        <ele>365</ele>
        <time>2017-03-26T07:18:31.000Z</time>
      </trkpt>
      <trkpt lat="47.47691" lon="6.77591">
        <ele>365</ele>
        <time>2017-03-26T07:18:32.000Z</time>
      </trkpt>
      <trkpt lat="47.47695" lon="6.77596">
        <ele>365.7</ele>
        <time>2017-03-26T07:18:33.000Z</time>
      </trkpt>
      <trkpt lat="47.47698" lon="6.77602">
        <ele>365.6</ele>
        <time>2017-03-26T07:18:34.000Z</time>
      </trkpt>
      <trkpt lat="47.477" lon="6.77607">
        <ele>365.8</ele>
        <time>2017-03-26T07:18:35.000Z</time>
      </trkpt>
      <trkpt lat="47.47702" lon="6.77613">
        <ele>365.8</ele>
        <time>2017-03-26T07:18:36.000Z</time>
      </trkpt>
      <trkpt lat="47.47704" lon="6.77619">
        <ele>365.8</ele>
        <time>2017-03-26T07:18:37.000Z</time>
      </trkpt>
      <trkpt lat="47.47705" lon="6.77624">
        <ele>365.7</ele>
        <time>2017-03-26T07:18:38.000Z</time>
      </trkpt>
      <trkpt lat="47.47706" lon="6.77631">
        <ele>366.2</ele>
        <time>2017-03-26T07:18:39.000Z</time>
      </trkpt>
      <trkpt lat="47.47707" lon="6.77638">
        <ele>366.8</ele>
        <time>2017-03-26T07:18:40.000Z</time>
      </trkpt>
      <trkpt lat="47.47708" lon="6.77644">
        <ele>367.3</ele>
        <time>2017-03-26T07:18:41.000Z</time>
      </trkpt>
      <trkpt lat="47.47709" lon="6.77653">
        <ele>366.9</ele>
        <time>2017-03-26T07:18:42.000Z</time>
      </trkpt>
      <trkpt lat="47.4771" lon="6.7766">
        <ele>366.7</ele>
        <time>2017-03-26T07:18:43.000Z</time>
      </trkpt>
      <trkpt lat="47.47711" lon="6.77665">
        <ele>366.5</ele>
        <time>2017-03-26T07:18:44.000Z</time>
      </trkpt>
      <trkpt lat="47.47712" lon="6.77672">
        <ele>366</ele>
        <time>2017-03-26T07:18:45.000Z</time>
      </trkpt>
      <trkpt lat="47.47714" lon="6.77679">
        <ele>365.8</ele>
        <time>2017-03-26T07:18:46.000Z</time>
      </trkpt>
      <trkpt lat="47.47716" lon="6.77684">
        <ele>365.8</ele>
        <time>2017-03-26T07:18:47.000Z</time>
      </trkpt>
      <trkpt lat="47.47718" lon="6.77691">
        <ele>365.6</ele>
        <time>2017-03-26T07:18:48.000Z</time>
      </trkpt>
      <trkpt lat="47.4772" lon="6.77696">
        <ele>365.6</ele>
        <time>2017-03-26T07:18:49.000Z</time>
      </trkpt>
      <trkpt lat="47.47722" lon="6.777">
        <ele>365.6</ele>
        <time>2017-03-26T07:18:50.000Z</time>
      </trkpt>
      <trkpt lat="47.47725" lon="6.77705">
        <ele>365.6</ele>
        <time>2017-03-26T07:18:51.000Z</time>
      </trkpt>
      <trkpt lat="47.47725" lon="6.77707">
        <ele>365.6</ele>
        <time>2017-03-26T07:18:52.000Z</time>
      </trkpt>
      <trkpt lat="47.47723" lon="6.7771">
        <ele>365.6</ele>
        <time>2017-03-26T07:18:54.000Z</time>
      </trkpt>
      <trkpt lat="47.47721" lon="6.77713">
        <ele>365.6</ele>
        <time>2017-03-26T07:18:55.000Z</time>
      </trkpt>
      <trkpt lat="47.47719" lon="6.77715">
        <ele>365.6</ele>
        <time>2017-03-26T07:18:56.000Z</time>
      </trkpt>
      <trkpt lat="47.47718" lon="6.77718">
        <ele>365.6</ele>
        <time>2017-03-26T07:18:57.000Z</time>
      </trkpt>
      <trkpt lat="47.47716" lon="6.77723">
        <ele>365.6</ele>
        <time>2017-03-26T07:18:58.000Z</time>
      </trkpt>
      <trkpt lat="47.47714" lon="6.77727">
        <ele>365.5</ele>
        <time>2017-03-26T07:18:59.000Z</time>
      </trkpt>
      <trkpt lat="47.47713" lon="6.77733">
        <ele>365.6</ele>
        <time>2017-03-26T07:19:01.000Z</time>
      </trkpt>
      <trkpt lat="47.47713" lon="6.77737">
        <ele>365.6</ele>
        <time>2017-03-26T07:19:02.000Z</time>
      </trkpt>
      <trkpt lat="47.47712" lon="6.77742">
        <ele>365.6</ele>
        <time>2017-03-26T07:19:03.000Z</time>
      </trkpt>
      <trkpt lat="47.47711" lon="6.77746">
        <ele>365.5</ele>
        <time>2017-03-26T07:19:04.000Z</time>
      </trkpt>
      <trkpt lat="47.47711" lon="6.77751">
        <ele>365.5</ele>
        <time>2017-03-26T07:19:05.000Z</time>
      </trkpt>
      <trkpt lat="47.47711" lon="6.77756">
        <ele>365.5</ele>
        <time>2017-03-26T07:19:06.000Z</time>
      </trkpt>
      <trkpt lat="47.47711" lon="6.77762">
        <ele>365.6</ele>
        <time>2017-03-26T07:19:07.000Z</time>
      </trkpt>
      <trkpt lat="47.47711" lon="6.77768">
        <ele>365.6</ele>
        <time>2017-03-26T07:19:08.000Z</time>
      </trkpt>
      <trkpt lat="47.47711" lon="6.77774">
        <ele>365.6</ele>
        <time>2017-03-26T07:19:09.000Z</time>
      </trkpt>
      <trkpt lat="47.47711" lon="6.77781">
        <ele>365.5</ele>
        <time>2017-03-26T07:19:10.000Z</time>
      </trkpt>
      <trkpt lat="47.4771" lon="6.77786">
        <ele>365.3</ele>
        <time>2017-03-26T07:19:11.000Z</time>
      </trkpt>
      <trkpt lat="47.4771" lon="6.77792">
        <ele>365.2</ele>
        <time>2017-03-26T07:19:12.000Z</time>
      </trkpt>
      <trkpt lat="47.47709" lon="6.77798">
        <ele>365.1</ele>
        <time>2017-03-26T07:19:13.000Z</time>
      </trkpt>
      <trkpt lat="47.47708" lon="6.77805">
        <ele>365</ele>
        <time>2017-03-26T07:19:14.000Z</time>
      </trkpt>
      <trkpt lat="47.47708" lon="6.77811">
        <ele>365</ele>
        <time>2017-03-26T07:19:15.000Z</time>
      </trkpt>
      <trkpt lat="47.47707" lon="6.77817">
        <ele>365</ele>
        <time>2017-03-26T07:19:16.000Z</time>
      </trkpt>
      <trkpt lat="47.47707" lon="6.77825">
        <ele>365.2</ele>
        <time>2017-03-26T07:19:17.000Z</time>
      </trkpt>
      <trkpt lat="47.47706" lon="6.77831">
        <ele>365.2</ele>
        <time>2017-03-26T07:19:18.000Z</time>
      </trkpt>
      <trkpt lat="47.47706" lon="6.77837">
        <ele>365.1</ele>
        <time>2017-03-26T07:19:19.000Z</time>
      </trkpt>
      <trkpt lat="47.47706" lon="6.77845">
        <ele>365.1</ele>
        <time>2017-03-26T07:19:20.000Z</time>
      </trkpt>
      <trkpt lat="47.47705" lon="6.77851">
        <ele>364.7</ele>
        <time>2017-03-26T07:19:21.000Z</time>
      </trkpt>
      <trkpt lat="47.47705" lon="6.77857">
        <ele>364.7</ele>
        <time>2017-03-26T07:19:22.000Z</time>
      </trkpt>
      <trkpt lat="47.47705" lon="6.77863">
        <ele>365</ele>
        <time>2017-03-26T07:19:23.000Z</time>
      </trkpt>
      <trkpt lat="47.47705" lon="6.77869">
        <ele>366.4</ele>
        <time>2017-03-26T07:19:24.000Z</time>
      </trkpt>
      <trkpt lat="47.47706" lon="6.77877">
        <ele>367.7</ele>
        <time>2017-03-26T07:19:25.000Z</time>
      </trkpt>
      <trkpt lat="47.47707" lon="6.77885">
        <ele>367.8</ele>
        <time>2017-03-26T07:19:26.000Z</time>
      </trkpt>
      <trkpt lat="47.47708" lon="6.77891">
        <ele>369</ele>
        <time>2017-03-26T07:19:27.000Z</time>
      </trkpt>
      <trkpt lat="47.47708" lon="6.77898">
        <ele>370.6</ele>
        <time>2017-03-26T07:19:28.000Z</time>
      </trkpt>
      <trkpt lat="47.47709" lon="6.77903">
        <ele>370.7</ele>
        <time>2017-03-26T07:19:29.000Z</time>
      </trkpt>
      <trkpt lat="47.4771" lon="6.77909">
        <ele>371.2</ele>
        <time>2017-03-26T07:19:30.000Z</time>
      </trkpt>
      <trkpt lat="47.47711" lon="6.77913">
        <ele>371.2</ele>
        <time>2017-03-26T07:19:31.000Z</time>
      </trkpt>
      <trkpt lat="47.47712" lon="6.77918">
        <ele>371.2</ele>
        <time>2017-03-26T07:19:32.000Z</time>
      </trkpt>
      <trkpt lat="47.47713" lon="6.77925">
        <ele>371.3</ele>
        <time>2017-03-26T07:19:33.000Z</time>
      </trkpt>
      <trkpt lat="47.47714" lon="6.77931">
        <ele>370.8</ele>
        <time>2017-03-26T07:19:34.000Z</time>
      </trkpt>
      <trkpt lat="47.47715" lon="6.77937">
        <ele>370.7</ele>
        <time>2017-03-26T07:19:35.000Z</time>
      </trkpt>
      <trkpt lat="47.47716" lon="6.77943">
        <ele>370.8</ele>
        <time>2017-03-26T07:19:36.000Z</time>
      </trkpt>
      <trkpt lat="47.47717" lon="6.77949">
        <ele>370.8</ele>
        <time>2017-03-26T07:19:37.000Z</time>
      </trkpt>
      <trkpt lat="47.47718" lon="6.77955">
        <ele>370.9</ele>
        <time>2017-03-26T07:19:38.000Z</time>
      </trkpt>
      <trkpt lat="47.47719" lon="6.77962">
        <ele>371.6</ele>
        <time>2017-03-26T07:19:39.000Z</time>
      </trkpt>
      <trkpt lat="47.4772" lon="6.77967">
        <ele>371.8</ele>
        <time>2017-03-26T07:19:40.000Z</time>
      </trkpt>
      <trkpt lat="47.47722" lon="6.77973">
        <ele>371.9</ele>
        <time>2017-03-26T07:19:41.000Z</time>
      </trkpt>
      <trkpt lat="47.47723" lon="6.77979">
        <ele>371.7</ele>
        <time>2017-03-26T07:19:42.000Z</time>
      </trkpt>
      <trkpt lat="47.47724" lon="6.77984">
        <ele>371.7</ele>
        <time>2017-03-26T07:19:43.000Z</time>
      </trkpt>
      <trkpt lat="47.47725" lon="6.77991">
        <ele>371.8</ele>
        <time>2017-03-26T07:19:44.000Z</time>
      </trkpt>
      <trkpt lat="47.47726" lon="6.77996">
        <ele>372.5</ele>
        <time>2017-03-26T07:19:45.000Z</time>
      </trkpt>
      <trkpt lat="47.47727" lon="6.78001">
        <ele>372.6</ele>
        <time>2017-03-26T07:19:46.000Z</time>
      </trkpt>
      <trkpt lat="47.47727" lon="6.78006">
        <ele>372.6</ele>
        <time>2017-03-26T07:19:47.000Z</time>
      </trkpt>
      <trkpt lat="47.47728" lon="6.78012">
        <ele>372.6</ele>
        <time>2017-03-26T07:19:48.000Z</time>
      </trkpt>
      <trkpt lat="47.47729" lon="6.78017">
        <ele>372.6</ele>
        <time>2017-03-26T07:19:49.000Z</time>
      </trkpt>
      <trkpt lat="47.47729" lon="6.78022">
        <ele>372.6</ele>
        <time>2017-03-26T07:19:50.000Z</time>
      </trkpt>
      <trkpt lat="47.4773" lon="6.78027">
        <ele>372.6</ele>
        <time>2017-03-26T07:19:51.000Z</time>
      </trkpt>
      <trkpt lat="47.47729" lon="6.78033">
        <ele>372.6</ele>
        <time>2017-03-26T07:19:52.000Z</time>
      </trkpt>
      <trkpt lat="47.47729" lon="6.78039">
        <ele>372.5</ele>
        <time>2017-03-26T07:19:52.999Z</time>
      </trkpt>
      <trkpt lat="47.47728" lon="6.78044">
        <ele>372.6</ele>
        <time>2017-03-26T07:19:53.999Z</time>
      </trkpt>
      <trkpt lat="47.47727" lon="6.7805">
        <ele>372.6</ele>
        <time>2017-03-26T07:19:54.999Z</time>
      </trkpt>
      <trkpt lat="47.47727" lon="6.78056">
        <ele>372.6</ele>
        <time>2017-03-26T07:19:55.999Z</time>
      </trkpt>
      <trkpt lat="47.47726" lon="6.78061">
        <ele>372.6</ele>
        <time>2017-03-26T07:19:56.999Z</time>
      </trkpt>
      <trkpt lat="47.47726" lon="6.78066">
        <ele>372.6</ele>
        <time>2017-03-26T07:19:57.999Z</time>
      </trkpt>
      <trkpt lat="47.47725" lon="6.78072">
        <ele>372.6</ele>
        <time>2017-03-26T07:19:58.999Z</time>
      </trkpt>
      <trkpt lat="47.47723" lon="6.78075">
        <ele>372.6</ele>
        <time>2017-03-26T07:19:59.999Z</time>
      </trkpt>
      <trkpt lat="47.47721" lon="6.7808">
        <ele>372.7</ele>
        <time>2017-03-26T07:20:00.999Z</time>
      </trkpt>
      <trkpt lat="47.4772" lon="6.78085">
        <ele>372.8</ele>
        <time>2017-03-26T07:20:01.999Z</time>
      </trkpt>
      <trkpt lat="47.47719" lon="6.78087">
        <ele>372.9</ele>
        <time>2017-03-26T07:20:02.999Z</time>
      </trkpt>
      <trkpt lat="47.47717" lon="6.78091">
        <ele>372.9</ele>
        <time>2017-03-26T07:20:03.999Z</time>
      </trkpt>
      <trkpt lat="47.47715" lon="6.78095">
        <ele>373</ele>
        <time>2017-03-26T07:20:04.999Z</time>
      </trkpt>
      <trkpt lat="47.47714" lon="6.78098">
        <ele>373.1</ele>
        <time>2017-03-26T07:20:05.999Z</time>
      </trkpt>
      <trkpt lat="47.47712" lon="6.78103">
        <ele>373.2</ele>
        <time>2017-03-26T07:20:06.999Z</time>
      </trkpt>
      <trkpt lat="47.47711" lon="6.78108">
        <ele>373.2</ele>
        <time>2017-03-26T07:20:07.999Z</time>
      </trkpt>
      <trkpt lat="47.4771" lon="6.78111">
        <ele>373.3</ele>
        <time>2017-03-26T07:20:08.999Z</time>
      </trkpt>
      <trkpt lat="47.47708" lon="6.78115">
        <ele>373.4</ele>
        <time>2017-03-26T07:20:09.999Z</time>
      </trkpt>
      <trkpt lat="47.47707" lon="6.78118">
        <ele>373.4</ele>
        <time>2017-03-26T07:20:10.999Z</time>
      </trkpt>
      <trkpt lat="47.47706" lon="6.78122">
        <ele>373.5</ele>
        <time>2017-03-26T07:20:11.999Z</time>
      </trkpt>
      <trkpt lat="47.47703" lon="6.78128">
        <ele>373.7</ele>
        <time>2017-03-26T07:20:13.999Z</time>
      </trkpt>
      <trkpt lat="47.47702" lon="6.78132">
        <ele>373.8</ele>
        <time>2017-03-26T07:20:14.999Z</time>
      </trkpt>
      <trkpt lat="47.47701" lon="6.78136">
        <ele>373.8</ele>
        <time>2017-03-26T07:20:15.999Z</time>
      </trkpt>
      <trkpt lat="47.477" lon="6.78139">
        <ele>373.9</ele>
        <time>2017-03-26T07:20:16.999Z</time>
      </trkpt>
      <trkpt lat="47.47698" lon="6.78145">
        <ele>374.1</ele>
        <time>2017-03-26T07:20:18.999Z</time>
      </trkpt>
      <trkpt lat="47.47697" lon="6.78147">
        <ele>374.2</ele>
        <time>2017-03-26T07:20:19.999Z</time>
      </trkpt>
      <trkpt lat="47.47695" lon="6.78151">
        <ele>374.2</ele>
        <time>2017-03-26T07:20:20.999Z</time>
      </trkpt>
      <trkpt lat="47.47694" lon="6.78156">
        <ele>374.3</ele>
        <time>2017-03-26T07:20:21.999Z</time>
      </trkpt>
      <trkpt lat="47.47694" lon="6.78161">
        <ele>374.4</ele>
        <time>2017-03-26T07:20:23.999Z</time>
      </trkpt>
      <trkpt lat="47.47693" lon="6.78164">
        <ele>374.5</ele>
        <time>2017-03-26T07:20:24.999Z</time>
      </trkpt>
      <trkpt lat="47.47693" lon="6.78168">
        <ele>374.6</ele>
        <time>2017-03-26T07:20:25.999Z</time>
      </trkpt>
      <trkpt lat="47.47693" lon="6.78172">
        <ele>374.6</ele>
        <time>2017-03-26T07:20:26.999Z</time>
      </trkpt>
      <trkpt lat="47.47692" lon="6.78176">
        <ele>374.7</ele>
        <time>2017-03-26T07:20:27.999Z</time>
      </trkpt>
      <trkpt lat="47.47692" lon="6.78179">
        <ele>374.8</ele>
        <time>2017-03-26T07:20:28.999Z</time>
      </trkpt>
      <trkpt lat="47.47692" lon="6.78184">
        <ele>374.9</ele>
        <time>2017-03-26T07:20:29.999Z</time>
      </trkpt>
      <trkpt lat="47.47691" lon="6.78189">
        <ele>375.1</ele>
        <time>2017-03-26T07:20:30.999Z</time>
      </trkpt>
      <trkpt lat="47.47691" lon="6.78193">
        <ele>375.2</ele>
        <time>2017-03-26T07:20:31.999Z</time>
      </trkpt>
      <trkpt lat="47.4769" lon="6.78196">
        <ele>375.4</ele>
        <time>2017-03-26T07:20:32.999Z</time>
      </trkpt>
      <trkpt lat="47.4769" lon="6.782">
        <ele>375.6</ele>
        <time>2017-03-26T07:20:33.999Z</time>
      </trkpt>
      <trkpt lat="47.4769" lon="6.78203">
        <ele>375.7</ele>
        <time>2017-03-26T07:20:34.999Z</time>
      </trkpt>
      <trkpt lat="47.47689" lon="6.78207">
        <ele>375.8</ele>
        <time>2017-03-26T07:20:35.999Z</time>
      </trkpt>
      <trkpt lat="47.47689" lon="6.78211">
        <ele>375.9</ele>
        <time>2017-03-26T07:20:36.999Z</time>
      </trkpt>
      <trkpt lat="47.47689" lon="6.78214">
        <ele>376</ele>
        <time>2017-03-26T07:20:37.999Z</time>
      </trkpt>
      <trkpt lat="47.4769" lon="6.78218">
        <ele>376.1</ele>
        <time>2017-03-26T07:20:38.999Z</time>
      </trkpt>
      <trkpt lat="47.47691" lon="6.78224">
        <ele>376.4</ele>
        <time>2017-03-26T07:20:40.999Z</time>
      </trkpt>
      <trkpt lat="47.47691" lon="6.78226">
        <ele>376.6</ele>
        <time>2017-03-26T07:20:41.999Z</time>
      </trkpt>
      <trkpt lat="47.47693" lon="6.78231">
        <ele>377.1</ele>
        <time>2017-03-26T07:20:43.999Z</time>
      </trkpt>
      <trkpt lat="47.47694" lon="6.78234">
        <ele>377.2</ele>
        <time>2017-03-26T07:20:44.999Z</time>
      </trkpt>
      <trkpt lat="47.47694" lon="6.78237">
        <ele>377.4</ele>
        <time>2017-03-26T07:20:45.999Z</time>
      </trkpt>
      <trkpt lat="47.47695" lon="6.78241">
        <ele>377.6</ele>
        <time>2017-03-26T07:20:46.999Z</time>
      </trkpt>
      <trkpt lat="47.47696" lon="6.78246">
        <ele>377.8</ele>
        <time>2017-03-26T07:20:47.999Z</time>
      </trkpt>
      <trkpt lat="47.47696" lon="6.78249">
        <ele>378.1</ele>
        <time>2017-03-26T07:20:48.999Z</time>
      </trkpt>
      <trkpt lat="47.47698" lon="6.78253">
        <ele>378.5</ele>
        <time>2017-03-26T07:20:50.999Z</time>
      </trkpt>
      <trkpt lat="47.47699" lon="6.78255">
        <ele>378.7</ele>
        <time>2017-03-26T07:20:51.999Z</time>
      </trkpt>
      <trkpt lat="47.47699" lon="6.7826">
        <ele>378.8</ele>
        <time>2017-03-26T07:20:52.999Z</time>
      </trkpt>
      <trkpt lat="47.477" lon="6.78262">
        <ele>378.9</ele>
        <time>2017-03-26T07:20:53.999Z</time>
      </trkpt>
      <trkpt lat="47.47702" lon="6.78268">
        <ele>379.1</ele>
        <time>2017-03-26T07:20:55.999Z</time>
      </trkpt>
      <trkpt lat="47.47703" lon="6.78272">
        <ele>379.2</ele>
        <time>2017-03-26T07:20:56.999Z</time>
      </trkpt>
      <trkpt lat="47.47705" lon="6.78275">
        <ele>379.4</ele>
        <time>2017-03-26T07:20:57.999Z</time>
      </trkpt>
      <trkpt lat="47.47706" lon="6.7828">
        <ele>379.5</ele>
        <time>2017-03-26T07:20:58.999Z</time>
      </trkpt>
      <trkpt lat="47.47707" lon="6.78285">
        <ele>379.6</ele>
        <time>2017-03-26T07:20:59.999Z</time>
      </trkpt>
      <trkpt lat="47.47708" lon="6.78289">
        <ele>379.8</ele>
        <time>2017-03-26T07:21:00.999Z</time>
      </trkpt>
      <trkpt lat="47.47708" lon="6.78292">
        <ele>380</ele>
        <time>2017-03-26T07:21:01.999Z</time>
      </trkpt>
      <trkpt lat="47.47709" lon="6.78296">
        <ele>380.2</ele>
        <time>2017-03-26T07:21:02.999Z</time>
      </trkpt>
      <trkpt lat="47.4771" lon="6.78301">
        <ele>380.6</ele>
        <time>2017-03-26T07:21:04.999Z</time>
      </trkpt>
      <trkpt lat="47.47711" lon="6.78304">
        <ele>380.8</ele>
        <time>2017-03-26T07:21:05.999Z</time>
      </trkpt>
      <trkpt lat="47.47711" lon="6.78308">
        <ele>381</ele>
        <time>2017-03-26T07:21:06.999Z</time>
      </trkpt>
      <trkpt lat="47.47711" lon="6.78312">
        <ele>381.2</ele>
        <time>2017-03-26T07:21:07.999Z</time>
      </trkpt>
      <trkpt lat="47.47711" lon="6.78318">
        <ele>381.6</ele>
        <time>2017-03-26T07:21:09.999Z</time>
      </trkpt>
      <trkpt lat="47.47711" lon="6.78321">
        <ele>381.8</ele>
        <time>2017-03-26T07:21:10.999Z</time>
      </trkpt>
      <trkpt lat="47.4771" lon="6.78327">
        <ele>382.3</ele>
        <time>2017-03-26T07:21:12.999Z</time>
      </trkpt>
      <trkpt lat="47.4771" lon="6.78331">
        <ele>382.5</ele>
        <time>2017-03-26T07:21:13.999Z</time>
      </trkpt>
      <trkpt lat="47.47709" lon="6.78335">
        <ele>382.7</ele>
        <time>2017-03-26T07:21:14.999Z</time>
      </trkpt>
      <trkpt lat="47.47709" lon="6.78338">
        <ele>382.9</ele>
        <time>2017-03-26T07:21:15.999Z</time>
      </trkpt>
      <trkpt lat="47.47707" lon="6.78344">
        <ele>383.2</ele>
        <time>2017-03-26T07:21:17.999Z</time>
      </trkpt>
      <trkpt lat="47.47706" lon="6.78346">
        <ele>383.4</ele>
        <time>2017-03-26T07:21:18.999Z</time>
      </trkpt>
      <trkpt lat="47.47704" lon="6.78352">
        <ele>383.7</ele>
        <time>2017-03-26T07:21:20.999Z</time>
      </trkpt>
      <trkpt lat="47.47703" lon="6.78355">
        <ele>383.8</ele>
        <time>2017-03-26T07:21:21.999Z</time>
      </trkpt>
      <trkpt lat="47.477" lon="6.78358">
        <ele>384</ele>
        <time>2017-03-26T07:21:22.999Z</time>
      </trkpt>
      <trkpt lat="47.47697" lon="6.78363">
        <ele>384.1</ele>
        <time>2017-03-26T07:21:23.999Z</time>
      </trkpt>
      <trkpt lat="47.47694" lon="6.78368">
        <ele>384.4</ele>
        <time>2017-03-26T07:21:25.999Z</time>
      </trkpt>
      <trkpt lat="47.47693" lon="6.78371">
        <ele>384.5</ele>
        <time>2017-03-26T07:21:26.999Z</time>
      </trkpt>
      <trkpt lat="47.47692" lon="6.78372">
        <ele>384.6</ele>
        <time>2017-03-26T07:21:27.999Z</time>
      </trkpt>
      <trkpt lat="47.47689" lon="6.78374">
        <ele>384.6</ele>
        <time>2017-03-26T07:21:28.999Z</time>
      </trkpt>
      <trkpt lat="47.47687" lon="6.78378">
        <ele>384.7</ele>
        <time>2017-03-26T07:21:29.999Z</time>
      </trkpt>
      <trkpt lat="47.47685" lon="6.78381">
        <ele>384.7</ele>
        <time>2017-03-26T07:21:30.999Z</time>
      </trkpt>
      <trkpt lat="47.47683" lon="6.78384">
        <ele>384.7</ele>
        <time>2017-03-26T07:21:31.999Z</time>
      </trkpt>
      <trkpt lat="47.47681" lon="6.78387">
        <ele>384.6</ele>
        <time>2017-03-26T07:21:32.999Z</time>
      </trkpt>
      <trkpt lat="47.4768" lon="6.7839">
        <ele>384.4</ele>
        <time>2017-03-26T07:21:33.999Z</time>
      </trkpt>
      <trkpt lat="47.47677" lon="6.78396">
        <ele>384.2</ele>
        <time>2017-03-26T07:21:34.999Z</time>
      </trkpt>
      <trkpt lat="47.47674" lon="6.78403">
        <ele>382.4</ele>
        <time>2017-03-26T07:21:35.999Z</time>
      </trkpt>
      <trkpt lat="47.47671" lon="6.78408">
        <ele>382.2</ele>
        <time>2017-03-26T07:21:36.999Z</time>
      </trkpt>
      <trkpt lat="47.47668" lon="6.78416">
        <ele>382.1</ele>
        <time>2017-03-26T07:21:37.999Z</time>
      </trkpt>
      <trkpt lat="47.47664" lon="6.78425">
        <ele>381.4</ele>
        <time>2017-03-26T07:21:38.999Z</time>
      </trkpt>
      <trkpt lat="47.47662" lon="6.78431">
        <ele>381.3</ele>
        <time>2017-03-26T07:21:39.999Z</time>
      </trkpt>
      <trkpt lat="47.47659" lon="6.78436">
        <ele>381.1</ele>
        <time>2017-03-26T07:21:40.999Z</time>
      </trkpt>
      <trkpt lat="47.47657" lon="6.78441">
        <ele>381.9</ele>
        <time>2017-03-26T07:21:41.999Z</time>
      </trkpt>
      <trkpt lat="47.47655" lon="6.78446">
        <ele>382</ele>
        <time>2017-03-26T07:21:42.999Z</time>
      </trkpt>
      <trkpt lat="47.47652" lon="6.78451">
        <ele>382.4</ele>
        <time>2017-03-26T07:21:43.999Z</time>
      </trkpt>
      <trkpt lat="47.47647" lon="6.78458">
        <ele>382.6</ele>
        <time>2017-03-26T07:21:44.999Z</time>
      </trkpt>
      <trkpt lat="47.47644" lon="6.78465">
        <ele>382.6</ele>
        <time>2017-03-26T07:21:45.999Z</time>
      </trkpt>
      <trkpt lat="47.47641" lon="6.78472">
        <ele>382.7</ele>
        <time>2017-03-26T07:21:46.999Z</time>
      </trkpt>
      <trkpt lat="47.47638" lon="6.78477">
        <ele>383</ele>
        <time>2017-03-26T07:21:47.999Z</time>
      </trkpt>
      <trkpt lat="47.47635" lon="6.78482">
        <ele>383.6</ele>
        <time>2017-03-26T07:21:48.999Z</time>
      </trkpt>
      <trkpt lat="47.47632" lon="6.78488">
        <ele>384.3</ele>
        <time>2017-03-26T07:21:49.999Z</time>
      </trkpt>
      <trkpt lat="47.4763" lon="6.78493">
        <ele>385</ele>
        <time>2017-03-26T07:21:50.999Z</time>
      </trkpt>
      <trkpt lat="47.47628" lon="6.78499">
        <ele>385.5</ele>
        <time>2017-03-26T07:21:51.999Z</time>
      </trkpt>
      <trkpt lat="47.47625" lon="6.78505">
        <ele>385.7</ele>
        <time>2017-03-26T07:21:52.999Z</time>
      </trkpt>
      <trkpt lat="47.47623" lon="6.7851">
        <ele>385.8</ele>
        <time>2017-03-26T07:21:53.999Z</time>
      </trkpt>
      <trkpt lat="47.47621" lon="6.78516">
        <ele>386.3</ele>
        <time>2017-03-26T07:21:54.999Z</time>
      </trkpt>
      <trkpt lat="47.47618" lon="6.78523">
        <ele>387</ele>
        <time>2017-03-26T07:21:55.999Z</time>
      </trkpt>
      <trkpt lat="47.47616" lon="6.78528">
        <ele>387.5</ele>
        <time>2017-03-26T07:21:56.999Z</time>
      </trkpt>
      <trkpt lat="47.47614" lon="6.78533">
        <ele>387.7</ele>
        <time>2017-03-26T07:21:57.999Z</time>
      </trkpt>
      <trkpt lat="47.47611" lon="6.78538">
        <ele>388.2</ele>
        <time>2017-03-26T07:21:58.999Z</time>
      </trkpt>
      <trkpt lat="47.47609" lon="6.78544">
        <ele>389</ele>
        <time>2017-03-26T07:21:59.999Z</time>
      </trkpt>
      <trkpt lat="47.47606" lon="6.7855">
        <ele>389.1</ele>
        <time>2017-03-26T07:22:00.999Z</time>
      </trkpt>
      <trkpt lat="47.47604" lon="6.78554">
        <ele>390.5</ele>
        <time>2017-03-26T07:22:01.999Z</time>
      </trkpt>
      <trkpt lat="47.47602" lon="6.7856">
        <ele>390.5</ele>
        <time>2017-03-26T07:22:02.999Z</time>
      </trkpt>
      <trkpt lat="47.476" lon="6.78566">
        <ele>390.6</ele>
        <time>2017-03-26T07:22:03.999Z</time>
      </trkpt>
      <trkpt lat="47.47597" lon="6.7857">
        <ele>390.7</ele>
        <time>2017-03-26T07:22:04.999Z</time>
      </trkpt>
      <trkpt lat="47.47594" lon="6.78575">
        <ele>390.8</ele>
        <time>2017-03-26T07:22:05.999Z</time>
      </trkpt>
      <trkpt lat="47.47592" lon="6.7858">
        <ele>390.9</ele>
        <time>2017-03-26T07:22:06.999Z</time>
      </trkpt>
      <trkpt lat="47.47589" lon="6.78585">
        <ele>391</ele>
        <time>2017-03-26T07:22:07.999Z</time>
      </trkpt>
      <trkpt lat="47.47588" lon="6.78589">
        <ele>391.1</ele>
        <time>2017-03-26T07:22:08.999Z</time>
      </trkpt>
      <trkpt lat="47.47586" lon="6.78592">
        <ele>391.1</ele>
        <time>2017-03-26T07:22:09.999Z</time>
      </trkpt>
      <trkpt lat="47.47584" lon="6.78596">
        <ele>391.1</ele>
        <time>2017-03-26T07:22:10.999Z</time>
      </trkpt>
      <trkpt lat="47.47583" lon="6.78601">
        <ele>391.2</ele>
        <time>2017-03-26T07:22:11.999Z</time>
      </trkpt>
      <trkpt lat="47.47583" lon="6.78603">
        <ele>391.2</ele>
        <time>2017-03-26T07:22:12.999Z</time>
      </trkpt>
      <trkpt lat="47.47581" lon="6.78607">
        <ele>391.3</ele>
        <time>2017-03-26T07:22:13.999Z</time>
      </trkpt>
      <trkpt lat="47.47579" lon="6.78611">
        <ele>391.4</ele>
        <time>2017-03-26T07:22:15.999Z</time>
      </trkpt>
      <trkpt lat="47.47578" lon="6.78613">
        <ele>391.5</ele>
        <time>2017-03-26T07:22:16.999Z</time>
      </trkpt>
      <trkpt lat="47.47575" lon="6.78618">
        <ele>391.5</ele>
        <time>2017-03-26T07:22:17.999Z</time>
      </trkpt>
      <trkpt lat="47.47573" lon="6.78621">
        <ele>391.7</ele>
        <time>2017-03-26T07:22:18.999Z</time>
      </trkpt>
      <trkpt lat="47.47571" lon="6.78626">
        <ele>391.6</ele>
        <time>2017-03-26T07:22:20.999Z</time>
      </trkpt>
      <trkpt lat="47.47569" lon="6.78631">
        <ele>391.6</ele>
        <time>2017-03-26T07:22:21.999Z</time>
      </trkpt>
      <trkpt lat="47.47568" lon="6.78635">
        <ele>391.6</ele>
        <time>2017-03-26T07:22:22.999Z</time>
      </trkpt>
      <trkpt lat="47.47565" lon="6.78641">
        <ele>391.7</ele>
        <time>2017-03-26T07:22:23.999Z</time>
      </trkpt>
      <trkpt lat="47.47564" lon="6.78645">
        <ele>391.7</ele>
        <time>2017-03-26T07:22:24.999Z</time>
      </trkpt>
      <trkpt lat="47.47564" lon="6.78649">
        <ele>391.8</ele>
        <time>2017-03-26T07:22:25.999Z</time>
      </trkpt>
      <trkpt lat="47.47563" lon="6.78651">
        <ele>391.8</ele>
        <time>2017-03-26T07:22:26.999Z</time>
      </trkpt>
      <trkpt lat="47.47562" lon="6.78656">
        <ele>391.9</ele>
        <time>2017-03-26T07:22:27.999Z</time>
      </trkpt>
      <trkpt lat="47.4756" lon="6.78661">
        <ele>391.9</ele>
        <time>2017-03-26T07:22:29.999Z</time>
      </trkpt>
      <trkpt lat="47.4756" lon="6.78662">
        <ele>392</ele>
        <time>2017-03-26T07:22:30.999Z</time>
      </trkpt>
      <trkpt lat="47.47558" lon="6.78666">
        <ele>392</ele>
        <time>2017-03-26T07:22:32.999Z</time>
      </trkpt>
      <trkpt lat="47.47557" lon="6.78668">
        <ele>392.1</ele>
        <time>2017-03-26T07:22:33.999Z</time>
      </trkpt>
      <trkpt lat="47.47555" lon="6.78673">
        <ele>392.3</ele>
        <time>2017-03-26T07:22:36.999Z</time>
      </trkpt>
      <trkpt lat="47.47554" lon="6.78674">
        <ele>392.2</ele>
        <time>2017-03-26T07:22:37.999Z</time>
      </trkpt>
      <trkpt lat="47.47553" lon="6.78678">
        <ele>392.2</ele>
        <time>2017-03-26T07:22:39.999Z</time>
      </trkpt>
      <trkpt lat="47.47553" lon="6.78681">
        <ele>392.2</ele>
        <time>2017-03-26T07:22:40.999Z</time>
      </trkpt>
      <trkpt lat="47.47553" lon="6.78685">
        <ele>392</ele>
        <time>2017-03-26T07:22:42.999Z</time>
      </trkpt>
      <trkpt lat="47.47552" lon="6.78688">
        <ele>392</ele>
        <time>2017-03-26T07:22:43.999Z</time>
      </trkpt>
      <trkpt lat="47.47551" lon="6.7869">
        <ele>391.9</ele>
        <time>2017-03-26T07:22:44.999Z</time>
      </trkpt>
      <trkpt lat="47.4755" lon="6.78694">
        <ele>391.8</ele>
        <time>2017-03-26T07:22:45.999Z</time>
      </trkpt>
      <trkpt lat="47.47549" lon="6.78698">
        <ele>391.8</ele>
        <time>2017-03-26T07:22:46.999Z</time>
      </trkpt>
      <trkpt lat="47.47549" lon="6.78702">
        <ele>391.9</ele>
        <time>2017-03-26T07:22:47.999Z</time>
      </trkpt>
      <trkpt lat="47.47548" lon="6.78706">
        <ele>392.1</ele>
        <time>2017-03-26T07:22:48.999Z</time>
      </trkpt>
      <trkpt lat="47.47547" lon="6.7871">
        <ele>392.4</ele>
        <time>2017-03-26T07:22:49.999Z</time>
      </trkpt>
      <trkpt lat="47.47546" lon="6.78714">
        <ele>392.6</ele>
        <time>2017-03-26T07:22:50.999Z</time>
      </trkpt>
      <trkpt lat="47.47544" lon="6.78717">
        <ele>392.8</ele>
        <time>2017-03-26T07:22:51.999Z</time>
      </trkpt>
      <trkpt lat="47.47543" lon="6.7872">
        <ele>393</ele>
        <time>2017-03-26T07:22:52.999Z</time>
      </trkpt>
      <trkpt lat="47.47541" lon="6.78725">
        <ele>393.3</ele>
        <time>2017-03-26T07:22:53.999Z</time>
      </trkpt>
      <trkpt lat="47.47539" lon="6.78731">
        <ele>393.5</ele>
        <time>2017-03-26T07:22:54.999Z</time>
      </trkpt>
      <trkpt lat="47.47537" lon="6.78734">
        <ele>393.7</ele>
        <time>2017-03-26T07:22:55.999Z</time>
      </trkpt>
      <trkpt lat="47.47536" lon="6.78734">
        <ele>394.6</ele>
        <time>2017-03-26T07:22:59.999Z</time>
      </trkpt>
      <trkpt lat="47.47533" lon="6.78736">
        <ele>395</ele>
        <time>2017-03-26T07:23:00.999Z</time>
      </trkpt>
      <trkpt lat="47.47529" lon="6.78736">
        <ele>395.3</ele>
        <time>2017-03-26T07:23:03.999Z</time>
      </trkpt>
      <trkpt lat="47.47528" lon="6.78735">
        <ele>395.4</ele>
        <time>2017-03-26T07:23:04.999Z</time>
      </trkpt>
      <trkpt lat="47.47524" lon="6.78734">
        <ele>395.7</ele>
        <time>2017-03-26T07:23:10.999Z</time>
      </trkpt>
      <trkpt lat="47.47523" lon="6.78731">
        <ele>395.7</ele>
        <time>2017-03-26T07:23:11.999Z</time>
      </trkpt>
      <trkpt lat="47.4752" lon="6.78727">
        <ele>395.9</ele>
        <time>2017-03-26T07:23:15.999Z</time>
      </trkpt>
      <trkpt lat="47.47518" lon="6.78725">
        <ele>395.9</ele>
        <time>2017-03-26T07:23:16.999Z</time>
      </trkpt>
      <trkpt lat="47.47517" lon="6.78723">
        <ele>395.9</ele>
        <time>2017-03-26T07:23:17.999Z</time>
      </trkpt>
      <trkpt lat="47.47514" lon="6.7872">
        <ele>396</ele>
        <time>2017-03-26T07:23:18.999Z</time>
      </trkpt>
      <trkpt lat="47.47512" lon="6.78718">
        <ele>396</ele>
        <time>2017-03-26T07:23:19.999Z</time>
      </trkpt>
      <trkpt lat="47.47511" lon="6.78716">
        <ele>396</ele>
        <time>2017-03-26T07:23:20.999Z</time>
      </trkpt>
      <trkpt lat="47.47508" lon="6.78713">
        <ele>396.3</ele>
        <time>2017-03-26T07:23:22.999Z</time>
      </trkpt>
      <trkpt lat="47.47507" lon="6.78712">
        <ele>396.4</ele>
        <time>2017-03-26T07:23:23.999Z</time>
      </trkpt>
      <trkpt lat="47.47504" lon="6.78709">
        <ele>396.7</ele>
        <time>2017-03-26T07:23:25.999Z</time>
      </trkpt>
      <trkpt lat="47.475" lon="6.78706">
        <ele>396.9</ele>
        <time>2017-03-26T07:23:26.999Z</time>
      </trkpt>
      <trkpt lat="47.47497" lon="6.78702">
        <ele>397.2</ele>
        <time>2017-03-26T07:23:29.999Z</time>
      </trkpt>
      <trkpt lat="47.47496" lon="6.78701">
        <ele>397.3</ele>
        <time>2017-03-26T07:23:30.999Z</time>
      </trkpt>
      <trkpt lat="47.47494" lon="6.78697">
        <ele>397.8</ele>
        <time>2017-03-26T07:23:34.999Z</time>
      </trkpt>
      <trkpt lat="47.47493" lon="6.78697">
        <ele>397.9</ele>
        <time>2017-03-26T07:23:35.999Z</time>
      </trkpt>
      <trkpt lat="47.47489" lon="6.78694">
        <ele>398.1</ele>
        <time>2017-03-26T07:23:39.999Z</time>
      </trkpt>
      <trkpt lat="47.47488" lon="6.78692">
        <ele>398.1</ele>
        <time>2017-03-26T07:23:40.999Z</time>
      </trkpt>
      <trkpt lat="47.47484" lon="6.7869">
        <ele>397.6</ele>
        <time>2017-03-26T07:23:44.999Z</time>
      </trkpt>
      <trkpt lat="47.47484" lon="6.78689">
        <ele>397.3</ele>
        <time>2017-03-26T07:23:45.999Z</time>
      </trkpt>
      <trkpt lat="47.47481" lon="6.78686">
        <ele>396.5</ele>
        <time>2017-03-26T07:23:48.999Z</time>
      </trkpt>
      <trkpt lat="47.47479" lon="6.78685">
        <ele>396.2</ele>
        <time>2017-03-26T07:23:49.999Z</time>
      </trkpt>
      <trkpt lat="47.47476" lon="6.7868">
        <ele>394.8</ele>
        <time>2017-03-26T07:23:54.999Z</time>
      </trkpt>
      <trkpt lat="47.47475" lon="6.7868">
        <ele>394.4</ele>
        <time>2017-03-26T07:23:55.999Z</time>
      </trkpt>
      <trkpt lat="47.47472" lon="6.78677">
        <ele>393.6</ele>
        <time>2017-03-26T07:23:57.999Z</time>
      </trkpt>
      <trkpt lat="47.47471" lon="6.78676">
        <ele>393.3</ele>
        <time>2017-03-26T07:23:58.999Z</time>
      </trkpt>
      <trkpt lat="47.47468" lon="6.78673">
        <ele>392.2</ele>
        <time>2017-03-26T07:24:02.999Z</time>
      </trkpt>
      <trkpt lat="47.47467" lon="6.7867">
        <ele>392</ele>
        <time>2017-03-26T07:24:03.999Z</time>
      </trkpt>
      <trkpt lat="47.47464" lon="6.78666">
        <ele>391.7</ele>
        <time>2017-03-26T07:24:05.999Z</time>
      </trkpt>
      <trkpt lat="47.47463" lon="6.78663">
        <ele>391.7</ele>
        <time>2017-03-26T07:24:06.999Z</time>
      </trkpt>
      <trkpt lat="47.47461" lon="6.78658">
        <ele>391.6</ele>
        <time>2017-03-26T07:24:08.999Z</time>
      </trkpt>
      <trkpt lat="47.47461" lon="6.78656">
        <ele>391.6</ele>
        <time>2017-03-26T07:24:09.999Z</time>
      </trkpt>
      <trkpt lat="47.47458" lon="6.78651">
        <ele>391.1</ele>
        <time>2017-03-26T07:24:12.999Z</time>
      </trkpt>
      <trkpt lat="47.47458" lon="6.7865">
        <ele>391</ele>
        <time>2017-03-26T07:24:13.999Z</time>
      </trkpt>
      <trkpt lat="47.47456" lon="6.78647">
        <ele>390</ele>
        <time>2017-03-26T07:24:17.999Z</time>
      </trkpt>
      <trkpt lat="47.47454" lon="6.78645">
        <ele>389.7</ele>
        <time>2017-03-26T07:24:18.999Z</time>
      </trkpt>
      <trkpt lat="47.47451" lon="6.78642">
        <ele>389.3</ele>
        <time>2017-03-26T07:24:20.999Z</time>
      </trkpt>
      <trkpt lat="47.47449" lon="6.78639">
        <ele>389</ele>
        <time>2017-03-26T07:24:21.999Z</time>
      </trkpt>
      <trkpt lat="47.47448" lon="6.78637">
        <ele>388.6</ele>
        <time>2017-03-26T07:24:22.999Z</time>
      </trkpt>
      <trkpt lat="47.47446" lon="6.78634">
        <ele>388.3</ele>
        <time>2017-03-26T07:24:23.999Z</time>
      </trkpt>
      <trkpt lat="47.47444" lon="6.7863">
        <ele>388</ele>
        <time>2017-03-26T07:24:25.999Z</time>
      </trkpt>
      <trkpt lat="47.47443" lon="6.78627">
        <ele>388</ele>
        <time>2017-03-26T07:24:26.999Z</time>
      </trkpt>
      <trkpt lat="47.47441" lon="6.78624">
        <ele>388</ele>
        <time>2017-03-26T07:24:27.999Z</time>
      </trkpt>
      <trkpt lat="47.4744" lon="6.7862">
        <ele>388</ele>
        <time>2017-03-26T07:24:28.999Z</time>
      </trkpt>
      <trkpt lat="47.47438" lon="6.78616">
        <ele>388.2</ele>
        <time>2017-03-26T07:24:29.999Z</time>
      </trkpt>
      <trkpt lat="47.47435" lon="6.78613">
        <ele>388.3</ele>
        <time>2017-03-26T07:24:30.999Z</time>
      </trkpt>
      <trkpt lat="47.47432" lon="6.7861">
        <ele>388.3</ele>
        <time>2017-03-26T07:24:31.999Z</time>
      </trkpt>
      <trkpt lat="47.47429" lon="6.78608">
        <ele>388.5</ele>
        <time>2017-03-26T07:24:32.999Z</time>
      </trkpt>
      <trkpt lat="47.47427" lon="6.78605">
        <ele>388.7</ele>
        <time>2017-03-26T07:24:33.999Z</time>
      </trkpt>
      <trkpt lat="47.47424" lon="6.78602">
        <ele>389</ele>
        <time>2017-03-26T07:24:34.999Z</time>
      </trkpt>
      <trkpt lat="47.47421" lon="6.786">
        <ele>389.3</ele>
        <time>2017-03-26T07:24:35.999Z</time>
      </trkpt>
      <trkpt lat="47.47418" lon="6.78597">
        <ele>389.7</ele>
        <time>2017-03-26T07:24:36.999Z</time>
      </trkpt>
      <trkpt lat="47.47416" lon="6.78595">
        <ele>390.1</ele>
        <time>2017-03-26T07:24:37.999Z</time>
      </trkpt>
      <trkpt lat="47.47413" lon="6.78592">
        <ele>390.5</ele>
        <time>2017-03-26T07:24:38.999Z</time>
      </trkpt>
      <trkpt lat="47.47411" lon="6.7859">
        <ele>390.9</ele>
        <time>2017-03-26T07:24:39.999Z</time>
      </trkpt>
      <trkpt lat="47.47408" lon="6.78588">
        <ele>391.3</ele>
        <time>2017-03-26T07:24:40.999Z</time>
      </trkpt>
      <trkpt lat="47.47405" lon="6.78587">
        <ele>391.6</ele>
        <time>2017-03-26T07:24:41.999Z</time>
      </trkpt>
      <trkpt lat="47.47403" lon="6.78585">
        <ele>391.9</ele>
        <time>2017-03-26T07:24:42.999Z</time>
      </trkpt>
      <trkpt lat="47.474" lon="6.78584">
        <ele>392.2</ele>
        <time>2017-03-26T07:24:43.999Z</time>
      </trkpt>
      <trkpt lat="47.47397" lon="6.78582">
        <ele>392.6</ele>
        <time>2017-03-26T07:24:44.999Z</time>
      </trkpt>
      <trkpt lat="47.47395" lon="6.7858">
        <ele>392.9</ele>
        <time>2017-03-26T07:24:45.999Z</time>
      </trkpt>
      <trkpt lat="47.47392" lon="6.78578">
        <ele>393.3</ele>
        <time>2017-03-26T07:24:46.999Z</time>
      </trkpt>
      <trkpt lat="47.47389" lon="6.78576">
        <ele>393.6</ele>
        <time>2017-03-26T07:24:47.999Z</time>
      </trkpt>
      <trkpt lat="47.47386" lon="6.78575">
        <ele>394</ele>
        <time>2017-03-26T07:24:48.999Z</time>
      </trkpt>
      <trkpt lat="47.47384" lon="6.78575">
        <ele>394.2</ele>
        <time>2017-03-26T07:24:49.999Z</time>
      </trkpt>
      <trkpt lat="47.47382" lon="6.78573">
        <ele>394.4</ele>
        <time>2017-03-26T07:24:50.999Z</time>
      </trkpt>
      <trkpt lat="47.47379" lon="6.78572">
        <ele>394.7</ele>
        <time>2017-03-26T07:24:51.999Z</time>
      </trkpt>
      <trkpt lat="47.47377" lon="6.78571">
        <ele>394.9</ele>
        <time>2017-03-26T07:24:52.999Z</time>
      </trkpt>
      <trkpt lat="47.47374" lon="6.7857">
        <ele>395.1</ele>
        <time>2017-03-26T07:24:53.999Z</time>
      </trkpt>
      <trkpt lat="47.47371" lon="6.78568">
        <ele>395.3</ele>
        <time>2017-03-26T07:24:54.999Z</time>
      </trkpt>
      <trkpt lat="47.47368" lon="6.78567">
        <ele>395.6</ele>
        <time>2017-03-26T07:24:55.999Z</time>
      </trkpt>
      <trkpt lat="47.47365" lon="6.78566">
        <ele>395.8</ele>
        <time>2017-03-26T07:24:56.999Z</time>
      </trkpt>
      <trkpt lat="47.4736" lon="6.78563">
        <ele>396.1</ele>
        <time>2017-03-26T07:24:57.999Z</time>
      </trkpt>
      <trkpt lat="47.47357" lon="6.7856">
        <ele>396.4</ele>
        <time>2017-03-26T07:24:58.999Z</time>
      </trkpt>
      <trkpt lat="47.47353" lon="6.78558">
        <ele>396.8</ele>
        <time>2017-03-26T07:24:59.999Z</time>
      </trkpt>
      <trkpt lat="47.47348" lon="6.78555">
        <ele>397</ele>
        <time>2017-03-26T07:25:00.999Z</time>
      </trkpt>
      <trkpt lat="47.47343" lon="6.78552">
        <ele>397.3</ele>
        <time>2017-03-26T07:25:01.999Z</time>
      </trkpt>
      <trkpt lat="47.47339" lon="6.7855">
        <ele>397.5</ele>
        <time>2017-03-26T07:25:02.999Z</time>
      </trkpt>
      <trkpt lat="47.47336" lon="6.78548">
        <ele>397.7</ele>
        <time>2017-03-26T07:25:03.999Z</time>
      </trkpt>
      <trkpt lat="47.47333" lon="6.78546">
        <ele>397.8</ele>
        <time>2017-03-26T07:25:04.999Z</time>
      </trkpt>
      <trkpt lat="47.47329" lon="6.78545">
        <ele>398</ele>
        <time>2017-03-26T07:25:05.999Z</time>
      </trkpt>
      <trkpt lat="47.47326" lon="6.78545">
        <ele>398.2</ele>
        <time>2017-03-26T07:25:06.999Z</time>
      </trkpt>
      <trkpt lat="47.47323" lon="6.78543">
        <ele>398.4</ele>
        <time>2017-03-26T07:25:07.999Z</time>
      </trkpt>
      <trkpt lat="47.47318" lon="6.78541">
        <ele>398.6</ele>
        <time>2017-03-26T07:25:08.999Z</time>
      </trkpt>
      <trkpt lat="47.47315" lon="6.78538">
        <ele>398.9</ele>
        <time>2017-03-26T07:25:09.999Z</time>
      </trkpt>
      <trkpt lat="47.47311" lon="6.78536">
        <ele>399</ele>
        <time>2017-03-26T07:25:10.999Z</time>
      </trkpt>
      <trkpt lat="47.47307" lon="6.78534">
        <ele>399.2</ele>
        <time>2017-03-26T07:25:11.999Z</time>
      </trkpt>
      <trkpt lat="47.47303" lon="6.78531">
        <ele>399.3</ele>
        <time>2017-03-26T07:25:12.999Z</time>
      </trkpt>
      <trkpt lat="47.47298" lon="6.78529">
        <ele>399.4</ele>
        <time>2017-03-26T07:25:13.999Z</time>
      </trkpt>
      <trkpt lat="47.47295" lon="6.78527">
        <ele>399.5</ele>
        <time>2017-03-26T07:25:14.999Z</time>
      </trkpt>
      <trkpt lat="47.47293" lon="6.78526">
        <ele>399.6</ele>
        <time>2017-03-26T07:25:15.999Z</time>
      </trkpt>
      <trkpt lat="47.47289" lon="6.78526">
        <ele>399.7</ele>
        <time>2017-03-26T07:25:16.999Z</time>
      </trkpt>
      <trkpt lat="47.47285" lon="6.78525">
        <ele>399.8</ele>
        <time>2017-03-26T07:25:17.999Z</time>
      </trkpt>
      <trkpt lat="47.47283" lon="6.78523">
        <ele>399.8</ele>
        <time>2017-03-26T07:25:18.999Z</time>
      </trkpt>
      <trkpt lat="47.47279" lon="6.78521">
        <ele>399.9</ele>
        <time>2017-03-26T07:25:19.999Z</time>
      </trkpt>
      <trkpt lat="47.47276" lon="6.78519">
        <ele>399.9</ele>
        <time>2017-03-26T07:25:20.999Z</time>
      </trkpt>
      <trkpt lat="47.47273" lon="6.78516">
        <ele>400</ele>
        <time>2017-03-26T07:25:21.999Z</time>
      </trkpt>
      <trkpt lat="47.47269" lon="6.78514">
        <ele>400.1</ele>
        <time>2017-03-26T07:25:22.999Z</time>
      </trkpt>
      <trkpt lat="47.47265" lon="6.78512">
        <ele>400.1</ele>
        <time>2017-03-26T07:25:23.999Z</time>
      </trkpt>
      <trkpt lat="47.4726" lon="6.7851">
        <ele>400.1</ele>
        <time>2017-03-26T07:25:24.999Z</time>
      </trkpt>
      <trkpt lat="47.47256" lon="6.78509">
        <ele>400.2</ele>
        <time>2017-03-26T07:25:25.999Z</time>
      </trkpt>
      <trkpt lat="47.4725" lon="6.78506">
        <ele>400.2</ele>
        <time>2017-03-26T07:25:26.999Z</time>
      </trkpt>
      <trkpt lat="47.47244" lon="6.78505">
        <ele>400.4</ele>
        <time>2017-03-26T07:25:27.999Z</time>
      </trkpt>
      <trkpt lat="47.4724" lon="6.78503">
        <ele>400.4</ele>
        <time>2017-03-26T07:25:28.999Z</time>
      </trkpt>
      <trkpt lat="47.47237" lon="6.78502">
        <ele>400.5</ele>
        <time>2017-03-26T07:25:29.999Z</time>
      </trkpt>
      <trkpt lat="47.47234" lon="6.785">
        <ele>400.6</ele>
        <time>2017-03-26T07:25:30.999Z</time>
      </trkpt>
      <trkpt lat="47.47232" lon="6.78498">
        <ele>400.8</ele>
        <time>2017-03-26T07:25:31.999Z</time>
      </trkpt>
      <trkpt lat="47.47229" lon="6.78496">
        <ele>401</ele>
        <time>2017-03-26T07:25:32.999Z</time>
      </trkpt>
      <trkpt lat="47.47226" lon="6.78492">
        <ele>401.2</ele>
        <time>2017-03-26T07:25:33.999Z</time>
      </trkpt>
      <trkpt lat="47.47223" lon="6.7849">
        <ele>401.3</ele>
        <time>2017-03-26T07:25:34.999Z</time>
      </trkpt>
      <trkpt lat="47.4722" lon="6.78487">
        <ele>401.5</ele>
        <time>2017-03-26T07:25:35.999Z</time>
      </trkpt>
      <trkpt lat="47.47217" lon="6.78485">
        <ele>401.6</ele>
        <time>2017-03-26T07:25:36.999Z</time>
      </trkpt>
      <trkpt lat="47.47213" lon="6.78483">
        <ele>401.8</ele>
        <time>2017-03-26T07:25:37.999Z</time>
      </trkpt>
      <trkpt lat="47.4721" lon="6.78482">
        <ele>401.9</ele>
        <time>2017-03-26T07:25:38.999Z</time>
      </trkpt>
      <trkpt lat="47.47207" lon="6.78481">
        <ele>402.1</ele>
        <time>2017-03-26T07:25:39.999Z</time>
      </trkpt>
      <trkpt lat="47.47205" lon="6.7848">
        <ele>402.2</ele>
        <time>2017-03-26T07:25:40.999Z</time>
      </trkpt>
      <trkpt lat="47.47201" lon="6.78479">
        <ele>402.4</ele>
        <time>2017-03-26T07:25:41.999Z</time>
      </trkpt>
      <trkpt lat="47.47198" lon="6.78478">
        <ele>402.7</ele>
        <time>2017-03-26T07:25:42.999Z</time>
      </trkpt>
      <trkpt lat="47.47194" lon="6.78477">
        <ele>402.8</ele>
        <time>2017-03-26T07:25:43.999Z</time>
      </trkpt>
      <trkpt lat="47.47191" lon="6.78475">
        <ele>402.9</ele>
        <time>2017-03-26T07:25:44.999Z</time>
      </trkpt>
      <trkpt lat="47.47187" lon="6.78472">
        <ele>403.1</ele>
        <time>2017-03-26T07:25:45.999Z</time>
      </trkpt>
      <trkpt lat="47.47184" lon="6.78471">
        <ele>403.2</ele>
        <time>2017-03-26T07:25:46.999Z</time>
      </trkpt>
      <trkpt lat="47.47181" lon="6.78469">
        <ele>403.3</ele>
        <time>2017-03-26T07:25:47.999Z</time>
      </trkpt>
      <trkpt lat="47.47177" lon="6.78467">
        <ele>403.4</ele>
        <time>2017-03-26T07:25:48.999Z</time>
      </trkpt>
      <trkpt lat="47.47174" lon="6.78465">
        <ele>403.5</ele>
        <time>2017-03-26T07:25:49.999Z</time>
      </trkpt>
      <trkpt lat="47.4717" lon="6.78464">
        <ele>403.5</ele>
        <time>2017-03-26T07:25:50.999Z</time>
      </trkpt>
      <trkpt lat="47.47166" lon="6.78462">
        <ele>403.5</ele>
        <time>2017-03-26T07:25:51.999Z</time>
      </trkpt>
      <trkpt lat="47.47161" lon="6.78462">
        <ele>403.5</ele>
        <time>2017-03-26T07:25:53.999Z</time>
      </trkpt>
      <trkpt lat="47.47157" lon="6.78462">
        <ele>403.4</ele>
        <time>2017-03-26T07:25:54.999Z</time>
      </trkpt>
      <trkpt lat="47.47153" lon="6.78462">
        <ele>403.3</ele>
        <time>2017-03-26T07:25:56.999Z</time>
      </trkpt>
      <trkpt lat="47.47152" lon="6.78464">
        <ele>403.3</ele>
        <time>2017-03-26T07:25:57.999Z</time>
      </trkpt>
      <trkpt lat="47.47151" lon="6.78466">
        <ele>403.3</ele>
        <time>2017-03-26T07:25:58.999Z</time>
      </trkpt>
      <trkpt lat="47.47148" lon="6.78468">
        <ele>403.3</ele>
        <time>2017-03-26T07:25:59.999Z</time>
      </trkpt>
      <trkpt lat="47.47145" lon="6.7847">
        <ele>403.1</ele>
        <time>2017-03-26T07:26:01.999Z</time>
      </trkpt>
      <trkpt lat="47.47142" lon="6.7847">
        <ele>403</ele>
        <time>2017-03-26T07:26:02.999Z</time>
      </trkpt>
      <trkpt lat="47.4714" lon="6.78472">
        <ele>402.8</ele>
        <time>2017-03-26T07:26:03.999Z</time>
      </trkpt>
      <trkpt lat="47.47136" lon="6.78474">
        <ele>402.6</ele>
        <time>2017-03-26T07:26:04.999Z</time>
      </trkpt>
      <trkpt lat="47.47133" lon="6.78475">
        <ele>402.5</ele>
        <time>2017-03-26T07:26:05.999Z</time>
      </trkpt>
      <trkpt lat="47.47131" lon="6.78476">
        <ele>402.4</ele>
        <time>2017-03-26T07:26:06.999Z</time>
      </trkpt>
      <trkpt lat="47.47128" lon="6.78476">
        <ele>402.1</ele>
        <time>2017-03-26T07:26:07.999Z</time>
      </trkpt>
      <trkpt lat="47.47124" lon="6.78476">
        <ele>401.9</ele>
        <time>2017-03-26T07:26:08.999Z</time>
      </trkpt>
      <trkpt lat="47.47121" lon="6.78474">
        <ele>401.7</ele>
        <time>2017-03-26T07:26:10.999Z</time>
      </trkpt>
      <trkpt lat="47.4712" lon="6.78473">
        <ele>401.5</ele>
        <time>2017-03-26T07:26:11.999Z</time>
      </trkpt>
      <trkpt lat="47.47116" lon="6.78473">
        <ele>401</ele>
        <time>2017-03-26T07:26:16.999Z</time>
      </trkpt>
      <trkpt lat="47.47115" lon="6.78472">
        <ele>400.9</ele>
        <time>2017-03-26T07:26:17.999Z</time>
      </trkpt>
      <trkpt lat="47.47112" lon="6.78473">
        <ele>401</ele>
        <time>2017-03-26T07:26:19.999Z</time>
      </trkpt>
      <trkpt lat="47.4711" lon="6.78474">
        <ele>401</ele>
        <time>2017-03-26T07:26:20.999Z</time>
      </trkpt>
      <trkpt lat="47.47107" lon="6.78473">
        <ele>401.1</ele>
        <time>2017-03-26T07:26:21.999Z</time>
      </trkpt>
      <trkpt lat="47.47104" lon="6.78472">
        <ele>401.2</ele>
        <time>2017-03-26T07:26:22.999Z</time>
      </trkpt>
      <trkpt lat="47.47093" lon="6.78469">
        <ele>401.3</ele>
        <time>2017-03-26T07:26:23.999Z</time>
      </trkpt>
      <trkpt lat="47.47085" lon="6.78468">
        <ele>401.4</ele>
        <time>2017-03-26T07:26:24.999Z</time>
      </trkpt>
      <trkpt lat="47.47078" lon="6.78468">
        <ele>401.6</ele>
        <time>2017-03-26T07:26:25.999Z</time>
      </trkpt>
      <trkpt lat="47.4707" lon="6.78476">
        <ele>401.5</ele>
        <time>2017-03-26T07:26:26.999Z</time>
      </trkpt>
      <trkpt lat="47.47067" lon="6.78478">
        <ele>401.4</ele>
        <time>2017-03-26T07:26:27.999Z</time>
      </trkpt>
      <trkpt lat="47.47063" lon="6.78482">
        <ele>401.4</ele>
        <time>2017-03-26T07:26:28.999Z</time>
      </trkpt>
      <trkpt lat="47.47063" lon="6.78482">
        <ele>401.4</ele>
        <time>2017-03-26T07:26:30.999Z</time>
      </trkpt>
      <trkpt lat="47.47058" lon="6.78489">
        <ele>401.4</ele>
        <time>2017-03-26T07:26:31.999Z</time>
      </trkpt>
      <trkpt lat="47.47051" lon="6.78496">
        <ele>401.5</ele>
        <time>2017-03-26T07:26:32.999Z</time>
      </trkpt>
      <trkpt lat="47.47028" lon="6.78525">
        <ele>401.6</ele>
        <time>2017-03-26T07:26:33.999Z</time>
      </trkpt>
      <trkpt lat="47.47021" lon="6.78533">
        <ele>401.4</ele>
        <time>2017-03-26T07:26:34.999Z</time>
      </trkpt>
      <trkpt lat="47.47015" lon="6.78541">
        <ele>401.3</ele>
        <time>2017-03-26T07:26:35.999Z</time>
      </trkpt>
      <trkpt lat="47.47009" lon="6.7855">
        <ele>401.2</ele>
        <time>2017-03-26T07:26:36.999Z</time>
      </trkpt>
      <trkpt lat="47.47" lon="6.78565">
        <ele>401.2</ele>
        <time>2017-03-26T07:26:37.999Z</time>
      </trkpt>
      <trkpt lat="47.46994" lon="6.78573">
        <ele>401.1</ele>
        <time>2017-03-26T07:26:38.999Z</time>
      </trkpt>
      <trkpt lat="47.46988" lon="6.78578">
        <ele>401</ele>
        <time>2017-03-26T07:26:39.999Z</time>
      </trkpt>
      <trkpt lat="47.46982" lon="6.78578">
        <ele>400.9</ele>
        <time>2017-03-26T07:26:40.999Z</time>
      </trkpt>
      <trkpt lat="47.46978" lon="6.7858">
        <ele>400.5</ele>
        <time>2017-03-26T07:26:41.999Z</time>
      </trkpt>
      <trkpt lat="47.46973" lon="6.78582">
        <ele>395.3</ele>
        <time>2017-03-26T07:26:42.999Z</time>
      </trkpt>
      <trkpt lat="47.46968" lon="6.78589">
        <ele>392.2</ele>
        <time>2017-03-26T07:26:43.999Z</time>
      </trkpt>
      <trkpt lat="47.46963" lon="6.78594">
        <ele>389.8</ele>
        <time>2017-03-26T07:26:44.999Z</time>
      </trkpt>
      <trkpt lat="47.46955" lon="6.78594">
        <ele>389.7</ele>
        <time>2017-03-26T07:26:45.999Z</time>
      </trkpt>
      <trkpt lat="47.46948" lon="6.78595">
        <ele>388.3</ele>
        <time>2017-03-26T07:26:46.999Z</time>
      </trkpt>
      <trkpt lat="47.46942" lon="6.78594">
        <ele>388.1</ele>
        <time>2017-03-26T07:26:47.999Z</time>
      </trkpt>
      <trkpt lat="47.46936" lon="6.78594">
        <ele>387.9</ele>
        <time>2017-03-26T07:26:48.999Z</time>
      </trkpt>
      <trkpt lat="47.46922" lon="6.78597">
        <ele>387.8</ele>
        <time>2017-03-26T07:26:49.999Z</time>
      </trkpt>
      <trkpt lat="47.46916" lon="6.78595">
        <ele>387.6</ele>
        <time>2017-03-26T07:26:50.999Z</time>
      </trkpt>
      <trkpt lat="47.46911" lon="6.7859">
        <ele>386</ele>
        <time>2017-03-26T07:26:51.999Z</time>
      </trkpt>
      <trkpt lat="47.46906" lon="6.78588">
        <ele>384.2</ele>
        <time>2017-03-26T07:26:52.999Z</time>
      </trkpt>
      <trkpt lat="47.46902" lon="6.78588">
        <ele>384.1</ele>
        <time>2017-03-26T07:26:53.999Z</time>
      </trkpt>
      <trkpt lat="47.46898" lon="6.78588">
        <ele>384</ele>
        <time>2017-03-26T07:26:54.999Z</time>
      </trkpt>
      <trkpt lat="47.46895" lon="6.78587">
        <ele>383.9</ele>
        <time>2017-03-26T07:26:55.999Z</time>
      </trkpt>
      <trkpt lat="47.46892" lon="6.78587">
        <ele>383.9</ele>
        <time>2017-03-26T07:26:56.999Z</time>
      </trkpt>
      <trkpt lat="47.46889" lon="6.78588">
        <ele>384</ele>
        <time>2017-03-26T07:26:58.999Z</time>
      </trkpt>
      <trkpt lat="47.46887" lon="6.78588">
        <ele>384.1</ele>
        <time>2017-03-26T07:26:59.999Z</time>
      </trkpt>
      <trkpt lat="47.46884" lon="6.78587">
        <ele>384.1</ele>
        <time>2017-03-26T07:27:00.999Z</time>
      </trkpt>
      <trkpt lat="47.46882" lon="6.78587">
        <ele>384.1</ele>
        <time>2017-03-26T07:27:01.999Z</time>
      </trkpt>
      <trkpt lat="47.46879" lon="6.78588">
        <ele>384.2</ele>
        <time>2017-03-26T07:27:03.999Z</time>
      </trkpt>
      <trkpt lat="47.46877" lon="6.78588">
        <ele>384.2</ele>
        <time>2017-03-26T07:27:04.999Z</time>
      </trkpt>
      <trkpt lat="47.46873" lon="6.78588">
        <ele>384.2</ele>
        <time>2017-03-26T07:27:07.999Z</time>
      </trkpt>
      <trkpt lat="47.46871" lon="6.78588">
        <ele>384.3</ele>
        <time>2017-03-26T07:27:08.999Z</time>
      </trkpt>
      <trkpt lat="47.46867" lon="6.78588">
        <ele>384.3</ele>
        <time>2017-03-26T07:27:12.999Z</time>
      </trkpt>
      <trkpt lat="47.46865" lon="6.78588">
        <ele>384.4</ele>
        <time>2017-03-26T07:27:13.999Z</time>
      </trkpt>
      <trkpt lat="47.46861" lon="6.78588">
        <ele>384.9</ele>
        <time>2017-03-26T07:27:16.999Z</time>
      </trkpt>
      <trkpt lat="47.46859" lon="6.78589">
        <ele>385.1</ele>
        <time>2017-03-26T07:27:17.999Z</time>
      </trkpt>
      <trkpt lat="47.46856" lon="6.7859">
        <ele>385.5</ele>
        <time>2017-03-26T07:27:20.999Z</time>
      </trkpt>
      <trkpt lat="47.46853" lon="6.7859">
        <ele>385.6</ele>
        <time>2017-03-26T07:27:21.999Z</time>
      </trkpt>
      <trkpt lat="47.4685" lon="6.78588">
        <ele>386.5</ele>
        <time>2017-03-26T07:27:26.999Z</time>
      </trkpt>
      <trkpt lat="47.46848" lon="6.78585">
        <ele>386.8</ele>
        <time>2017-03-26T07:27:27.999Z</time>
      </trkpt>
      <trkpt lat="47.46845" lon="6.78585">
        <ele>387</ele>
        <time>2017-03-26T07:27:31.999Z</time>
      </trkpt>
      <trkpt lat="47.46843" lon="6.78587">
        <ele>387</ele>
        <time>2017-03-26T07:27:32.999Z</time>
      </trkpt>
      <trkpt lat="47.46839" lon="6.78587">
        <ele>387.1</ele>
        <time>2017-03-26T07:27:34.999Z</time>
      </trkpt>
      <trkpt lat="47.46838" lon="6.78588">
        <ele>387.3</ele>
        <time>2017-03-26T07:27:35.999Z</time>
      </trkpt>
      <trkpt lat="47.46836" lon="6.78589">
        <ele>387.6</ele>
        <time>2017-03-26T07:27:36.999Z</time>
      </trkpt>
      <trkpt lat="47.46834" lon="6.78591">
        <ele>387.8</ele>
        <time>2017-03-26T07:27:37.999Z</time>
      </trkpt>
      <trkpt lat="47.46832" lon="6.78592">
        <ele>388.1</ele>
        <time>2017-03-26T07:27:38.999Z</time>
      </trkpt>
      <trkpt lat="47.4683" lon="6.78595">
        <ele>388.6</ele>
        <time>2017-03-26T07:27:39.999Z</time>
      </trkpt>
      <trkpt lat="47.46827" lon="6.78598">
        <ele>389.3</ele>
        <time>2017-03-26T07:27:41.999Z</time>
      </trkpt>
      <trkpt lat="47.46826" lon="6.786">
        <ele>389.7</ele>
        <time>2017-03-26T07:27:42.999Z</time>
      </trkpt>
      <trkpt lat="47.46823" lon="6.78603">
        <ele>391.5</ele>
        <time>2017-03-26T07:27:48.999Z</time>
      </trkpt>
      <trkpt lat="47.46822" lon="6.78603">
        <ele>392</ele>
        <time>2017-03-26T07:27:49.999Z</time>
      </trkpt>
      <trkpt lat="47.46819" lon="6.78605">
        <ele>392.7</ele>
        <time>2017-03-26T07:27:51.999Z</time>
      </trkpt>
      <trkpt lat="47.46817" lon="6.78605">
        <ele>393.1</ele>
        <time>2017-03-26T07:27:52.999Z</time>
      </trkpt>
      <trkpt lat="47.46815" lon="6.78608">
        <ele>394.1</ele>
        <time>2017-03-26T07:27:55.999Z</time>
      </trkpt>
      <trkpt lat="47.46813" lon="6.78611">
        <ele>394.4</ele>
        <time>2017-03-26T07:27:56.999Z</time>
      </trkpt>
      <trkpt lat="47.46811" lon="6.78616">
        <ele>395.2</ele>
        <time>2017-03-26T07:27:59.999Z</time>
      </trkpt>
      <trkpt lat="47.4681" lon="6.78619">
        <ele>395.6</ele>
        <time>2017-03-26T07:28:00.999Z</time>
      </trkpt>
      <trkpt lat="47.46808" lon="6.78624">
        <ele>396.3</ele>
        <time>2017-03-26T07:28:04.999Z</time>
      </trkpt>
      <trkpt lat="47.46807" lon="6.78627">
        <ele>396.5</ele>
        <time>2017-03-26T07:28:05.999Z</time>
      </trkpt>
      <trkpt lat="47.46805" lon="6.7863">
        <ele>396.9</ele>
        <time>2017-03-26T07:28:08.999Z</time>
      </trkpt>
      <trkpt lat="47.46803" lon="6.78633">
        <ele>397</ele>
        <time>2017-03-26T07:28:09.999Z</time>
      </trkpt>
      <trkpt lat="47.46801" lon="6.78637">
        <ele>397.1</ele>
        <time>2017-03-26T07:28:10.999Z</time>
      </trkpt>
      <trkpt lat="47.46799" lon="6.7864">
        <ele>397.2</ele>
        <time>2017-03-26T07:28:11.999Z</time>
      </trkpt>
      <trkpt lat="47.46798" lon="6.78644">
        <ele>397.3</ele>
        <time>2017-03-26T07:28:12.999Z</time>
      </trkpt>
      <trkpt lat="47.46796" lon="6.78647">
        <ele>397.3</ele>
        <time>2017-03-26T07:28:13.999Z</time>
      </trkpt>
      <trkpt lat="47.46794" lon="6.7865">
        <ele>397.5</ele>
        <time>2017-03-26T07:28:14.999Z</time>
      </trkpt>
      <trkpt lat="47.46792" lon="6.78653">
        <ele>397.7</ele>
        <time>2017-03-26T07:28:15.999Z</time>
      </trkpt>
      <trkpt lat="47.46789" lon="6.78657">
        <ele>398.2</ele>
        <time>2017-03-26T07:28:17.999Z</time>
      </trkpt>
      <trkpt lat="47.46787" lon="6.78659">
        <ele>398.4</ele>
        <time>2017-03-26T07:28:18.999Z</time>
      </trkpt>
      <trkpt lat="47.46784" lon="6.78662">
        <ele>399.4</ele>
        <time>2017-03-26T07:28:23.999Z</time>
      </trkpt>
      <trkpt lat="47.4678" lon="6.78661">
        <ele>399.4</ele>
        <time>2017-03-26T07:28:24.999Z</time>
      </trkpt>
      <trkpt lat="47.46777" lon="6.78661">
        <ele>399.4</ele>
        <time>2017-03-26T07:28:25.999Z</time>
      </trkpt>
      <trkpt lat="47.46774" lon="6.78661">
        <ele>399.3</ele>
        <time>2017-03-26T07:28:26.999Z</time>
      </trkpt>
      <trkpt lat="47.4677" lon="6.7866">
        <ele>399.3</ele>
        <time>2017-03-26T07:28:28.999Z</time>
      </trkpt>
      <trkpt lat="47.46768" lon="6.78659">
        <ele>399.3</ele>
        <time>2017-03-26T07:28:29.999Z</time>
      </trkpt>
      <trkpt lat="47.46764" lon="6.7866">
        <ele>399</ele>
        <time>2017-03-26T07:28:31.999Z</time>
      </trkpt>
      <trkpt lat="47.46763" lon="6.7866">
        <ele>399</ele>
        <time>2017-03-26T07:28:32.999Z</time>
      </trkpt>
      <trkpt lat="47.46763" lon="6.78667">
        <ele>399.1</ele>
        <time>2017-03-26T07:28:34.999Z</time>
      </trkpt>
      <trkpt lat="47.46762" lon="6.78668">
        <ele>399.3</ele>
        <time>2017-03-26T07:28:35.999Z</time>
      </trkpt>
      <trkpt lat="47.46761" lon="6.78674">
        <ele>399.7</ele>
        <time>2017-03-26T07:28:37.999Z</time>
      </trkpt>
      <trkpt lat="47.46761" lon="6.78675">
        <ele>399.9</ele>
        <time>2017-03-26T07:28:38.999Z</time>
      </trkpt>
      <trkpt lat="47.46761" lon="6.78681">
        <ele>400.7</ele>
        <time>2017-03-26T07:28:42.999Z</time>
      </trkpt>
      <trkpt lat="47.46761" lon="6.78682">
        <ele>400.9</ele>
        <time>2017-03-26T07:28:43.999Z</time>
      </trkpt>
      <trkpt lat="47.46762" lon="6.78688">
        <ele>401.5</ele>
        <time>2017-03-26T07:28:48.999Z</time>
      </trkpt>
      <trkpt lat="47.46762" lon="6.78689">
        <ele>401.6</ele>
        <time>2017-03-26T07:28:49.999Z</time>
      </trkpt>
      <trkpt lat="47.46759" lon="6.78694">
        <ele>402.1</ele>
        <time>2017-03-26T07:28:54.999Z</time>
      </trkpt>
      <trkpt lat="47.46758" lon="6.78694">
        <ele>402.2</ele>
        <time>2017-03-26T07:28:55.999Z</time>
      </trkpt>
      <trkpt lat="47.46757" lon="6.78695">
        <ele>402.2</ele>
        <time>2017-03-26T07:28:56.999Z</time>
      </trkpt>
      <trkpt lat="47.46753" lon="6.78695">
        <ele>402.2</ele>
        <time>2017-03-26T07:28:57.999Z</time>
      </trkpt>
      <trkpt lat="47.46751" lon="6.78696">
        <ele>402.1</ele>
        <time>2017-03-26T07:28:58.999Z</time>
      </trkpt>
      <trkpt lat="47.46747" lon="6.78696">
        <ele>402</ele>
        <time>2017-03-26T07:28:59.999Z</time>
      </trkpt>
      <trkpt lat="47.46744" lon="6.78695">
        <ele>402.1</ele>
        <time>2017-03-26T07:29:01.999Z</time>
      </trkpt>
      <trkpt lat="47.46742" lon="6.78695">
        <ele>402.2</ele>
        <time>2017-03-26T07:29:02.999Z</time>
      </trkpt>
      <trkpt lat="47.46738" lon="6.78697">
        <ele>402.3</ele>
        <time>2017-03-26T07:29:04.999Z</time>
      </trkpt>
      <trkpt lat="47.46736" lon="6.78697">
        <ele>402.4</ele>
        <time>2017-03-26T07:29:05.999Z</time>
      </trkpt>
      <trkpt lat="47.46732" lon="6.78697">
        <ele>403.3</ele>
        <time>2017-03-26T07:29:12.999Z</time>
      </trkpt>
      <trkpt lat="47.46731" lon="6.78699">
        <ele>403.5</ele>
        <time>2017-03-26T07:29:13.999Z</time>
      </trkpt>
      <trkpt lat="47.4673" lon="6.78702">
        <ele>403.8</ele>
        <time>2017-03-26T07:29:14.999Z</time>
      </trkpt>
      <trkpt lat="47.46727" lon="6.78709">
        <ele>404</ele>
        <time>2017-03-26T07:29:15.999Z</time>
      </trkpt>
      <trkpt lat="47.46723" lon="6.78712">
        <ele>404.6</ele>
        <time>2017-03-26T07:29:17.999Z</time>
      </trkpt>
      <trkpt lat="47.46722" lon="6.78713">
        <ele>404.8</ele>
        <time>2017-03-26T07:29:18.999Z</time>
      </trkpt>
      <trkpt lat="47.46718" lon="6.78712">
        <ele>405.3</ele>
        <time>2017-03-26T07:29:21.999Z</time>
      </trkpt>
      <trkpt lat="47.46716" lon="6.78712">
        <ele>405.5</ele>
        <time>2017-03-26T07:29:22.999Z</time>
      </trkpt>
      <trkpt lat="47.46713" lon="6.7871">
        <ele>405.8</ele>
        <time>2017-03-26T07:29:24.999Z</time>
      </trkpt>
      <trkpt lat="47.46711" lon="6.78709">
        <ele>405.9</ele>
        <time>2017-03-26T07:29:25.999Z</time>
      </trkpt>
      <trkpt lat="47.46708" lon="6.78706">
        <ele>406.2</ele>
        <time>2017-03-26T07:29:28.999Z</time>
      </trkpt>
      <trkpt lat="47.46707" lon="6.78706">
        <ele>406.3</ele>
        <time>2017-03-26T07:29:29.999Z</time>
      </trkpt>
      <trkpt lat="47.46703" lon="6.78705">
        <ele>406.7</ele>
        <time>2017-03-26T07:29:31.999Z</time>
      </trkpt>
      <trkpt lat="47.46702" lon="6.78704">
        <ele>406.8</ele>
        <time>2017-03-26T07:29:32.999Z</time>
      </trkpt>
      <trkpt lat="47.46698" lon="6.78704">
        <ele>407.1</ele>
        <time>2017-03-26T07:29:35.999Z</time>
      </trkpt>
      <trkpt lat="47.46697" lon="6.78704">
        <ele>407.2</ele>
        <time>2017-03-26T07:29:36.999Z</time>
      </trkpt>
      <trkpt lat="47.46694" lon="6.78706">
        <ele>407.5</ele>
        <time>2017-03-26T07:29:39.999Z</time>
      </trkpt>
      <trkpt lat="47.46692" lon="6.78707">
        <ele>407.6</ele>
        <time>2017-03-26T07:29:40.999Z</time>
      </trkpt>
      <trkpt lat="47.46689" lon="6.78708">
        <ele>407.8</ele>
        <time>2017-03-26T07:29:42.999Z</time>
      </trkpt>
      <trkpt lat="47.46687" lon="6.78709">
        <ele>407.9</ele>
        <time>2017-03-26T07:29:43.999Z</time>
      </trkpt>
      <trkpt lat="47.46684" lon="6.7871">
        <ele>408.2</ele>
        <time>2017-03-26T07:29:45.999Z</time>
      </trkpt>
      <trkpt lat="47.46682" lon="6.7871">
        <ele>408.3</ele>
        <time>2017-03-26T07:29:46.999Z</time>
      </trkpt>
      <trkpt lat="47.46678" lon="6.78709">
        <ele>408.5</ele>
        <time>2017-03-26T07:29:49.999Z</time>
      </trkpt>
      <trkpt lat="47.46677" lon="6.7871">
        <ele>408.5</ele>
        <time>2017-03-26T07:29:50.999Z</time>
      </trkpt>
      <trkpt lat="47.46673" lon="6.78709">
        <ele>408.4</ele>
        <time>2017-03-26T07:29:53.999Z</time>
      </trkpt>
      <trkpt lat="47.46671" lon="6.78709">
        <ele>408.3</ele>
        <time>2017-03-26T07:29:54.999Z</time>
      </trkpt>
      <trkpt lat="47.46667" lon="6.7871">
        <ele>408.3</ele>
        <time>2017-03-26T07:29:57.999Z</time>
      </trkpt>
      <trkpt lat="47.46666" lon="6.78709">
        <ele>408.4</ele>
        <time>2017-03-26T07:29:58.999Z</time>
      </trkpt>
      <trkpt lat="47.46661" lon="6.7871">
        <ele>408.5</ele>
        <time>2017-03-26T07:30:02.999Z</time>
      </trkpt>
      <trkpt lat="47.46659" lon="6.7871">
        <ele>408.5</ele>
        <time>2017-03-26T07:30:03.999Z</time>
      </trkpt>
      <trkpt lat="47.46654" lon="6.78711">
        <ele>408.3</ele>
        <time>2017-03-26T07:30:07.999Z</time>
      </trkpt>
      <trkpt lat="47.46653" lon="6.78711">
        <ele>408.2</ele>
        <time>2017-03-26T07:30:08.999Z</time>
      </trkpt>
      <trkpt lat="47.46651" lon="6.78712">
        <ele>407.9</ele>
        <time>2017-03-26T07:30:11.999Z</time>
      </trkpt>
      <trkpt lat="47.46647" lon="6.7871">
        <ele>407.7</ele>
        <time>2017-03-26T07:30:12.999Z</time>
      </trkpt>
      <trkpt lat="47.46643" lon="6.78708">
        <ele>407.6</ele>
        <time>2017-03-26T07:30:14.999Z</time>
      </trkpt>
      <trkpt lat="47.46641" lon="6.78706">
        <ele>407.6</ele>
        <time>2017-03-26T07:30:15.999Z</time>
      </trkpt>
      <trkpt lat="47.46637" lon="6.78707">
        <ele>407.6</ele>
        <time>2017-03-26T07:30:17.999Z</time>
      </trkpt>
      <trkpt lat="47.46636" lon="6.78707">
        <ele>407.6</ele>
        <time>2017-03-26T07:30:18.999Z</time>
      </trkpt>
      <trkpt lat="47.46632" lon="6.78708">
        <ele>407.7</ele>
        <time>2017-03-26T07:30:20.999Z</time>
      </trkpt>
      <trkpt lat="47.46631" lon="6.78708">
        <ele>407.8</ele>
        <time>2017-03-26T07:30:21.999Z</time>
      </trkpt>
      <trkpt lat="47.46627" lon="6.78709">
        <ele>408</ele>
        <time>2017-03-26T07:30:23.999Z</time>
      </trkpt>
      <trkpt lat="47.46626" lon="6.78709">
        <ele>408.1</ele>
        <time>2017-03-26T07:30:24.999Z</time>
      </trkpt>
      <trkpt lat="47.46623" lon="6.7871">
        <ele>408.5</ele>
        <time>2017-03-26T07:30:28.999Z</time>
      </trkpt>
      <trkpt lat="47.46622" lon="6.78709">
        <ele>408.6</ele>
        <time>2017-03-26T07:30:29.999Z</time>
      </trkpt>
      <trkpt lat="47.46618" lon="6.78709">
        <ele>408.9</ele>
        <time>2017-03-26T07:30:31.999Z</time>
      </trkpt>
      <trkpt lat="47.46617" lon="6.78709">
        <ele>409.1</ele>
        <time>2017-03-26T07:30:32.999Z</time>
      </trkpt>
      <trkpt lat="47.46613" lon="6.7871">
        <ele>409.4</ele>
        <time>2017-03-26T07:30:35.999Z</time>
      </trkpt>
      <trkpt lat="47.46611" lon="6.78709">
        <ele>409.5</ele>
        <time>2017-03-26T07:30:36.999Z</time>
      </trkpt>
      <trkpt lat="47.46607" lon="6.78709">
        <ele>409.8</ele>
        <time>2017-03-26T07:30:39.999Z</time>
      </trkpt>
      <trkpt lat="47.46605" lon="6.78708">
        <ele>410</ele>
        <time>2017-03-26T07:30:40.999Z</time>
      </trkpt>
      <trkpt lat="47.46601" lon="6.78708">
        <ele>410.4</ele>
        <time>2017-03-26T07:30:43.999Z</time>
      </trkpt>
      <trkpt lat="47.466" lon="6.78708">
        <ele>410.5</ele>
        <time>2017-03-26T07:30:44.999Z</time>
      </trkpt>
      <trkpt lat="47.46596" lon="6.78709">
        <ele>411</ele>
        <time>2017-03-26T07:30:47.999Z</time>
      </trkpt>
      <trkpt lat="47.46595" lon="6.78709">
        <ele>411.2</ele>
        <time>2017-03-26T07:30:48.999Z</time>
      </trkpt>
      <trkpt lat="47.46592" lon="6.78709">
        <ele>412</ele>
        <time>2017-03-26T07:30:51.999Z</time>
      </trkpt>
      <trkpt lat="47.46589" lon="6.7871">
        <ele>412.2</ele>
        <time>2017-03-26T07:30:52.999Z</time>
      </trkpt>
      <trkpt lat="47.46585" lon="6.78709">
        <ele>412.7</ele>
        <time>2017-03-26T07:30:54.999Z</time>
      </trkpt>
      <trkpt lat="47.46583" lon="6.78709">
        <ele>412.9</ele>
        <time>2017-03-26T07:30:55.999Z</time>
      </trkpt>
      <trkpt lat="47.4658" lon="6.78708">
        <ele>413.5</ele>
        <time>2017-03-26T07:30:57.999Z</time>
      </trkpt>
      <trkpt lat="47.46578" lon="6.78706">
        <ele>413.7</ele>
        <time>2017-03-26T07:30:58.999Z</time>
      </trkpt>
      <trkpt lat="47.46575" lon="6.78704">
        <ele>414</ele>
        <time>2017-03-26T07:31:00.999Z</time>
      </trkpt>
      <trkpt lat="47.46574" lon="6.78704">
        <ele>414.1</ele>
        <time>2017-03-26T07:31:01.999Z</time>
      </trkpt>
      <trkpt lat="47.4657" lon="6.78704">
        <ele>414.5</ele>
        <time>2017-03-26T07:31:04.999Z</time>
      </trkpt>
      <trkpt lat="47.46569" lon="6.78704">
        <ele>414.7</ele>
        <time>2017-03-26T07:31:05.999Z</time>
      </trkpt>
      <trkpt lat="47.46565" lon="6.78704">
        <ele>415.1</ele>
        <time>2017-03-26T07:31:08.999Z</time>
      </trkpt>
      <trkpt lat="47.46564" lon="6.78705">
        <ele>415.3</ele>
        <time>2017-03-26T07:31:09.999Z</time>
      </trkpt>
      <trkpt lat="47.4656" lon="6.78706">
        <ele>415.4</ele>
        <time>2017-03-26T07:31:13.999Z</time>
      </trkpt>
      <trkpt lat="47.46559" lon="6.78706">
        <ele>415.4</ele>
        <time>2017-03-26T07:31:14.999Z</time>
      </trkpt>
      <trkpt lat="47.46555" lon="6.78705">
        <ele>415.8</ele>
        <time>2017-03-26T07:31:17.999Z</time>
      </trkpt>
      <trkpt lat="47.46554" lon="6.78704">
        <ele>415.9</ele>
        <time>2017-03-26T07:31:18.999Z</time>
      </trkpt>
      <trkpt lat="47.46553" lon="6.787">
        <ele>416</ele>
        <time>2017-03-26T07:31:19.999Z</time>
      </trkpt>
      <trkpt lat="47.46553" lon="6.78697">
        <ele>416.1</ele>
        <time>2017-03-26T07:31:20.999Z</time>
      </trkpt>
      <trkpt lat="47.46552" lon="6.7869">
        <ele>416.3</ele>
        <time>2017-03-26T07:31:22.999Z</time>
      </trkpt>
      <trkpt lat="47.46553" lon="6.78686">
        <ele>416.4</ele>
        <time>2017-03-26T07:31:23.999Z</time>
      </trkpt>
      <trkpt lat="47.46553" lon="6.78682">
        <ele>416.5</ele>
        <time>2017-03-26T07:31:24.999Z</time>
      </trkpt>
      <trkpt lat="47.46554" lon="6.78675">
        <ele>416.5</ele>
        <time>2017-03-26T07:31:25.999Z</time>
      </trkpt>
      <trkpt lat="47.46554" lon="6.78669">
        <ele>416.6</ele>
        <time>2017-03-26T07:31:26.999Z</time>
      </trkpt>
      <trkpt lat="47.46554" lon="6.78663">
        <ele>416.7</ele>
        <time>2017-03-26T07:31:27.999Z</time>
      </trkpt>
      <trkpt lat="47.46554" lon="6.78658">
        <ele>416.7</ele>
        <time>2017-03-26T07:31:28.999Z</time>
      </trkpt>
      <trkpt lat="47.46554" lon="6.78653">
        <ele>416.6</ele>
        <time>2017-03-26T07:31:29.999Z</time>
      </trkpt>
      <trkpt lat="47.46554" lon="6.78648">
        <ele>416.6</ele>
        <time>2017-03-26T07:31:30.999Z</time>
      </trkpt>
      <trkpt lat="47.46553" lon="6.78642">
        <ele>416.5</ele>
        <time>2017-03-26T07:31:31.999Z</time>
      </trkpt>
      <trkpt lat="47.46553" lon="6.78635">
        <ele>416.5</ele>
        <time>2017-03-26T07:31:32.999Z</time>
      </trkpt>
      <trkpt lat="47.46552" lon="6.78628">
        <ele>416.4</ele>
        <time>2017-03-26T07:31:33.999Z</time>
      </trkpt>
      <trkpt lat="47.46552" lon="6.78622">
        <ele>416.4</ele>
        <time>2017-03-26T07:31:34.999Z</time>
      </trkpt>
      <trkpt lat="47.46551" lon="6.78617">
        <ele>416.5</ele>
        <time>2017-03-26T07:31:35.999Z</time>
      </trkpt>
      <trkpt lat="47.46551" lon="6.78612">
        <ele>416.5</ele>
        <time>2017-03-26T07:31:36.999Z</time>
      </trkpt>
      <trkpt lat="47.46551" lon="6.78606">
        <ele>416.5</ele>
        <time>2017-03-26T07:31:37.999Z</time>
      </trkpt>
      <trkpt lat="47.4655" lon="6.786">
        <ele>416.4</ele>
        <time>2017-03-26T07:31:38.999Z</time>
      </trkpt>
      <trkpt lat="47.4655" lon="6.78594">
        <ele>416.4</ele>
        <time>2017-03-26T07:31:39.999Z</time>
      </trkpt>
      <trkpt lat="47.4655" lon="6.78589">
        <ele>416.3</ele>
        <time>2017-03-26T07:31:40.999Z</time>
      </trkpt>
      <trkpt lat="47.4655" lon="6.78585">
        <ele>416.2</ele>
        <time>2017-03-26T07:31:41.999Z</time>
      </trkpt>
      <trkpt lat="47.46549" lon="6.7858">
        <ele>416.1</ele>
        <time>2017-03-26T07:31:42.999Z</time>
      </trkpt>
      <trkpt lat="47.46549" lon="6.78576">
        <ele>416</ele>
        <time>2017-03-26T07:31:43.999Z</time>
      </trkpt>
      <trkpt lat="47.46548" lon="6.78571">
        <ele>415.9</ele>
        <time>2017-03-26T07:31:44.999Z</time>
      </trkpt>
      <trkpt lat="47.46548" lon="6.78565">
        <ele>415.8</ele>
        <time>2017-03-26T07:31:45.999Z</time>
      </trkpt>
      <trkpt lat="47.46548" lon="6.78558">
        <ele>415.6</ele>
        <time>2017-03-26T07:31:46.999Z</time>
      </trkpt>
      <trkpt lat="47.46547" lon="6.78552">
        <ele>415.5</ele>
        <time>2017-03-26T07:31:47.999Z</time>
      </trkpt>
      <trkpt lat="47.46547" lon="6.78547">
        <ele>415.4</ele>
        <time>2017-03-26T07:31:48.999Z</time>
      </trkpt>
      <trkpt lat="47.46546" lon="6.78541">
        <ele>415.3</ele>
        <time>2017-03-26T07:31:49.999Z</time>
      </trkpt>
      <trkpt lat="47.46545" lon="6.78535">
        <ele>415.1</ele>
        <time>2017-03-26T07:31:50.999Z</time>
      </trkpt>
      <trkpt lat="47.46546" lon="6.78528">
        <ele>414.9</ele>
        <time>2017-03-26T07:31:51.999Z</time>
      </trkpt>
      <trkpt lat="47.46547" lon="6.78522">
        <ele>413.5</ele>
        <time>2017-03-26T07:31:52.999Z</time>
      </trkpt>
      <trkpt lat="47.46549" lon="6.78512">
        <ele>412.5</ele>
        <time>2017-03-26T07:31:53.999Z</time>
      </trkpt>
      <trkpt lat="47.4655" lon="6.78502">
        <ele>411.8</ele>
        <time>2017-03-26T07:31:54.999Z</time>
      </trkpt>
      <trkpt lat="47.46552" lon="6.78495">
        <ele>411.8</ele>
        <time>2017-03-26T07:31:55.999Z</time>
      </trkpt>
      <trkpt lat="47.46554" lon="6.78487">
        <ele>411.6</ele>
        <time>2017-03-26T07:31:56.999Z</time>
      </trkpt>
      <trkpt lat="47.46555" lon="6.78477">
        <ele>411.3</ele>
        <time>2017-03-26T07:31:57.999Z</time>
      </trkpt>
      <trkpt lat="47.46557" lon="6.78467">
        <ele>410.8</ele>
        <time>2017-03-26T07:31:58.999Z</time>
      </trkpt>
      <trkpt lat="47.46558" lon="6.78458">
        <ele>410.4</ele>
        <time>2017-03-26T07:31:59.999Z</time>
      </trkpt>
      <trkpt lat="47.46558" lon="6.78448">
        <ele>409.9</ele>
        <time>2017-03-26T07:32:00.999Z</time>
      </trkpt>
      <trkpt lat="47.46558" lon="6.78437">
        <ele>410.2</ele>
        <time>2017-03-26T07:32:01.999Z</time>
      </trkpt>
      <trkpt lat="47.46557" lon="6.78428">
        <ele>410.3</ele>
        <time>2017-03-26T07:32:02.999Z</time>
      </trkpt>
      <trkpt lat="47.46555" lon="6.7842">
        <ele>410.5</ele>
        <time>2017-03-26T07:32:03.999Z</time>
      </trkpt>
      <trkpt lat="47.46552" lon="6.78411">
        <ele>410.8</ele>
        <time>2017-03-26T07:32:04.999Z</time>
      </trkpt>
      <trkpt lat="47.46549" lon="6.78405">
        <ele>410.8</ele>
        <time>2017-03-26T07:32:05.999Z</time>
      </trkpt>
      <trkpt lat="47.46545" lon="6.784">
        <ele>410.3</ele>
        <time>2017-03-26T07:32:06.999Z</time>
      </trkpt>
      <trkpt lat="47.46541" lon="6.78397">
        <ele>410.1</ele>
        <time>2017-03-26T07:32:07.999Z</time>
      </trkpt>
      <trkpt lat="47.46537" lon="6.78394">
        <ele>410.2</ele>
        <time>2017-03-26T07:32:08.999Z</time>
      </trkpt>
      <trkpt lat="47.46532" lon="6.78389">
        <ele>409.7</ele>
        <time>2017-03-26T07:32:09.999Z</time>
      </trkpt>
      <trkpt lat="47.46528" lon="6.78387">
        <ele>409.5</ele>
        <time>2017-03-26T07:32:10.999Z</time>
      </trkpt>
      <trkpt lat="47.46523" lon="6.78383">
        <ele>409.3</ele>
        <time>2017-03-26T07:32:11.999Z</time>
      </trkpt>
      <trkpt lat="47.46518" lon="6.78378">
        <ele>409.7</ele>
        <time>2017-03-26T07:32:12.999Z</time>
      </trkpt>
      <trkpt lat="47.46511" lon="6.78371">
        <ele>410</ele>
        <time>2017-03-26T07:32:14.999Z</time>
      </trkpt>
      <trkpt lat="47.46508" lon="6.78368">
        <ele>410.1</ele>
        <time>2017-03-26T07:32:15.999Z</time>
      </trkpt>
      <trkpt lat="47.46504" lon="6.78365">
        <ele>410.1</ele>
        <time>2017-03-26T07:32:16.999Z</time>
      </trkpt>
      <trkpt lat="47.46501" lon="6.78362">
        <ele>410.1</ele>
        <time>2017-03-26T07:32:17.999Z</time>
      </trkpt>
      <trkpt lat="47.46498" lon="6.78357">
        <ele>410</ele>
        <time>2017-03-26T07:32:18.999Z</time>
      </trkpt>
      <trkpt lat="47.46495" lon="6.78354">
        <ele>410.1</ele>
        <time>2017-03-26T07:32:19.999Z</time>
      </trkpt>
      <trkpt lat="47.46492" lon="6.78351">
        <ele>410.1</ele>
        <time>2017-03-26T07:32:20.999Z</time>
      </trkpt>
      <trkpt lat="47.46491" lon="6.78348">
        <ele>410.2</ele>
        <time>2017-03-26T07:32:21.999Z</time>
      </trkpt>
      <trkpt lat="47.46488" lon="6.78345">
        <ele>410.3</ele>
        <time>2017-03-26T07:32:22.999Z</time>
      </trkpt>
      <trkpt lat="47.46485" lon="6.78341">
        <ele>410.4</ele>
        <time>2017-03-26T07:32:23.999Z</time>
      </trkpt>
      <trkpt lat="47.46482" lon="6.78338">
        <ele>410.4</ele>
        <time>2017-03-26T07:32:24.999Z</time>
      </trkpt>
      <trkpt lat="47.46479" lon="6.78334">
        <ele>410.5</ele>
        <time>2017-03-26T07:32:25.999Z</time>
      </trkpt>
      <trkpt lat="47.46475" lon="6.78331">
        <ele>410.6</ele>
        <time>2017-03-26T07:32:26.999Z</time>
      </trkpt>
      <trkpt lat="47.46472" lon="6.78329">
        <ele>410.7</ele>
        <time>2017-03-26T07:32:27.999Z</time>
      </trkpt>
      <trkpt lat="47.4647" lon="6.78326">
        <ele>410.8</ele>
        <time>2017-03-26T07:32:28.999Z</time>
      </trkpt>
      <trkpt lat="47.46467" lon="6.78325">
        <ele>410.9</ele>
        <time>2017-03-26T07:32:29.999Z</time>
      </trkpt>
      <trkpt lat="47.46464" lon="6.78323">
        <ele>411</ele>
        <time>2017-03-26T07:32:30.999Z</time>
      </trkpt>
      <trkpt lat="47.46461" lon="6.7832">
        <ele>411</ele>
        <time>2017-03-26T07:32:31.999Z</time>
      </trkpt>
      <trkpt lat="47.46458" lon="6.78319">
        <ele>411.1</ele>
        <time>2017-03-26T07:32:32.999Z</time>
      </trkpt>
      <trkpt lat="47.46456" lon="6.78317">
        <ele>411.2</ele>
        <time>2017-03-26T07:32:33.999Z</time>
      </trkpt>
      <trkpt lat="47.46452" lon="6.78315">
        <ele>411.2</ele>
        <time>2017-03-26T07:32:34.999Z</time>
      </trkpt>
      <trkpt lat="47.46449" lon="6.78315">
        <ele>411.3</ele>
        <time>2017-03-26T07:32:35.999Z</time>
      </trkpt>
      <trkpt lat="47.46447" lon="6.78315">
        <ele>411.4</ele>
        <time>2017-03-26T07:32:36.999Z</time>
      </trkpt>
      <trkpt lat="47.46445" lon="6.78319">
        <ele>411.7</ele>
        <time>2017-03-26T07:32:38.999Z</time>
      </trkpt>
      <trkpt lat="47.46444" lon="6.78322">
        <ele>411.9</ele>
        <time>2017-03-26T07:32:39.999Z</time>
      </trkpt>
      <trkpt lat="47.46442" lon="6.78324">
        <ele>412.2</ele>
        <time>2017-03-26T07:32:40.999Z</time>
      </trkpt>
      <trkpt lat="47.4644" lon="6.78326">
        <ele>412.4</ele>
        <time>2017-03-26T07:32:41.999Z</time>
      </trkpt>
      <trkpt lat="47.46438" lon="6.78327">
        <ele>412.6</ele>
        <time>2017-03-26T07:32:42.999Z</time>
      </trkpt>
      <trkpt lat="47.46435" lon="6.7833">
        <ele>412.8</ele>
        <time>2017-03-26T07:32:43.999Z</time>
      </trkpt>
      <trkpt lat="47.46432" lon="6.78333">
        <ele>413.4</ele>
        <time>2017-03-26T07:32:46.999Z</time>
      </trkpt>
      <trkpt lat="47.46431" lon="6.78335">
        <ele>413.6</ele>
        <time>2017-03-26T07:32:47.999Z</time>
      </trkpt>
      <trkpt lat="47.4643" lon="6.78339">
        <ele>414.1</ele>
        <time>2017-03-26T07:32:49.999Z</time>
      </trkpt>
      <trkpt lat="47.4643" lon="6.78345">
        <ele>414.4</ele>
        <time>2017-03-26T07:32:50.999Z</time>
      </trkpt>
      <trkpt lat="47.46431" lon="6.7835">
        <ele>414.8</ele>
        <time>2017-03-26T07:32:51.999Z</time>
      </trkpt>
      <trkpt lat="47.46431" lon="6.78353">
        <ele>415.2</ele>
        <time>2017-03-26T07:32:52.999Z</time>
      </trkpt>
      <trkpt lat="47.46431" lon="6.78357">
        <ele>415.6</ele>
        <time>2017-03-26T07:32:53.999Z</time>
      </trkpt>
      <trkpt lat="47.46432" lon="6.7836">
        <ele>415.9</ele>
        <time>2017-03-26T07:32:54.999Z</time>
      </trkpt>
      <trkpt lat="47.46433" lon="6.78364">
        <ele>416.2</ele>
        <time>2017-03-26T07:32:55.999Z</time>
      </trkpt>
      <trkpt lat="47.46433" lon="6.78367">
        <ele>416.5</ele>
        <time>2017-03-26T07:32:56.999Z</time>
      </trkpt>
      <trkpt lat="47.46431" lon="6.7837">
        <ele>417.7</ele>
        <time>2017-03-26T07:33:00.999Z</time>
      </trkpt>
      <trkpt lat="47.46428" lon="6.7837">
        <ele>417.8</ele>
        <time>2017-03-26T07:33:01.999Z</time>
      </trkpt>
      <trkpt lat="47.46425" lon="6.7837">
        <ele>418.1</ele>
        <time>2017-03-26T07:33:02.999Z</time>
      </trkpt>
      <trkpt lat="47.46422" lon="6.7837">
        <ele>418.2</ele>
        <time>2017-03-26T07:33:03.999Z</time>
      </trkpt>
      <trkpt lat="47.4642" lon="6.7837">
        <ele>418.4</ele>
        <time>2017-03-26T07:33:04.999Z</time>
      </trkpt>
      <trkpt lat="47.46417" lon="6.78369">
        <ele>418.6</ele>
        <time>2017-03-26T07:33:05.999Z</time>
      </trkpt>
      <trkpt lat="47.46414" lon="6.78369">
        <ele>418.9</ele>
        <time>2017-03-26T07:33:07.999Z</time>
      </trkpt>
      <trkpt lat="47.46412" lon="6.78368">
        <ele>419</ele>
        <time>2017-03-26T07:33:08.999Z</time>
      </trkpt>
      <trkpt lat="47.46409" lon="6.78365">
        <ele>419.9</ele>
        <time>2017-03-26T07:33:12.999Z</time>
      </trkpt>
      <trkpt lat="47.46408" lon="6.78364">
        <ele>420</ele>
        <time>2017-03-26T07:33:13.999Z</time>
      </trkpt>
      <trkpt lat="47.46404" lon="6.78364">
        <ele>420.6</ele>
        <time>2017-03-26T07:33:16.999Z</time>
      </trkpt>
      <trkpt lat="47.46401" lon="6.78364">
        <ele>420.7</ele>
        <time>2017-03-26T07:33:17.999Z</time>
      </trkpt>
      <trkpt lat="47.46399" lon="6.78367">
        <ele>421</ele>
        <time>2017-03-26T07:33:20.999Z</time>
      </trkpt>
      <trkpt lat="47.46398" lon="6.7837">
        <ele>421</ele>
        <time>2017-03-26T07:33:21.999Z</time>
      </trkpt>
      <trkpt lat="47.46397" lon="6.78374">
        <ele>421.3</ele>
        <time>2017-03-26T07:33:23.999Z</time>
      </trkpt>
      <trkpt lat="47.46397" lon="6.78376">
        <ele>421.6</ele>
        <time>2017-03-26T07:33:24.999Z</time>
      </trkpt>
      <trkpt lat="47.46394" lon="6.78379">
        <ele>422.3</ele>
        <time>2017-03-26T07:33:28.999Z</time>
      </trkpt>
      <trkpt lat="47.46392" lon="6.7838">
        <ele>422.5</ele>
        <time>2017-03-26T07:33:29.999Z</time>
      </trkpt>
      <trkpt lat="47.46389" lon="6.78382">
        <ele>422.7</ele>
        <time>2017-03-26T07:33:31.999Z</time>
      </trkpt>
      <trkpt lat="47.46388" lon="6.78383">
        <ele>422.8</ele>
        <time>2017-03-26T07:33:32.999Z</time>
      </trkpt>
      <trkpt lat="47.46386" lon="6.78388">
        <ele>423.4</ele>
        <time>2017-03-26T07:33:36.999Z</time>
      </trkpt>
      <trkpt lat="47.46385" lon="6.78391">
        <ele>423.7</ele>
        <time>2017-03-26T07:33:37.999Z</time>
      </trkpt>
      <trkpt lat="47.46384" lon="6.78396">
        <ele>424.7</ele>
        <time>2017-03-26T07:33:40.999Z</time>
      </trkpt>
      <trkpt lat="47.46384" lon="6.78398">
        <ele>425</ele>
        <time>2017-03-26T07:33:41.999Z</time>
      </trkpt>
      <trkpt lat="47.46383" lon="6.78404">
        <ele>425.9</ele>
        <time>2017-03-26T07:33:43.999Z</time>
      </trkpt>
      <trkpt lat="47.46383" lon="6.78405">
        <ele>426.3</ele>
        <time>2017-03-26T07:33:44.999Z</time>
      </trkpt>
      <trkpt lat="47.46385" lon="6.78411">
        <ele>427.5</ele>
        <time>2017-03-26T07:33:47.999Z</time>
      </trkpt>
      <trkpt lat="47.46385" lon="6.78412">
        <ele>427.9</ele>
        <time>2017-03-26T07:33:48.999Z</time>
      </trkpt>
      <trkpt lat="47.46386" lon="6.78418">
        <ele>431.3</ele>
        <time>2017-03-26T07:33:56.999Z</time>
      </trkpt>
      <trkpt lat="47.46386" lon="6.78419">
        <ele>431.7</ele>
        <time>2017-03-26T07:33:57.999Z</time>
      </trkpt>
      <trkpt lat="47.46387" lon="6.78424">
        <ele>433.2</ele>
        <time>2017-03-26T07:34:01.999Z</time>
      </trkpt>
      <trkpt lat="47.46387" lon="6.78426">
        <ele>433.6</ele>
        <time>2017-03-26T07:34:02.999Z</time>
      </trkpt>
      <trkpt lat="47.46384" lon="6.78427">
        <ele>434.1</ele>
        <time>2017-03-26T07:34:05.999Z</time>
      </trkpt>
      <trkpt lat="47.4638" lon="6.78427">
        <ele>434.1</ele>
        <time>2017-03-26T07:34:06.999Z</time>
      </trkpt>
      <trkpt lat="47.46376" lon="6.78429">
        <ele>434.1</ele>
        <time>2017-03-26T07:34:07.999Z</time>
      </trkpt>
      <trkpt lat="47.46373" lon="6.7843">
        <ele>434.1</ele>
        <time>2017-03-26T07:34:08.999Z</time>
      </trkpt>
      <trkpt lat="47.46369" lon="6.78432">
        <ele>434.1</ele>
        <time>2017-03-26T07:34:10.999Z</time>
      </trkpt>
      <trkpt lat="47.46368" lon="6.78433">
        <ele>434.1</ele>
        <time>2017-03-26T07:34:11.999Z</time>
      </trkpt>
      <trkpt lat="47.46365" lon="6.78435">
        <ele>434</ele>
        <time>2017-03-26T07:34:13.999Z</time>
      </trkpt>
      <trkpt lat="47.46363" lon="6.78436">
        <ele>434</ele>
        <time>2017-03-26T07:34:14.999Z</time>
      </trkpt>
      <trkpt lat="47.46359" lon="6.78437">
        <ele>433.8</ele>
        <time>2017-03-26T07:34:17.999Z</time>
      </trkpt>
      <trkpt lat="47.46357" lon="6.78438">
        <ele>433.7</ele>
        <time>2017-03-26T07:34:18.999Z</time>
      </trkpt>
      <trkpt lat="47.46353" lon="6.7844">
        <ele>433.7</ele>
        <time>2017-03-26T07:34:20.999Z</time>
      </trkpt>
      <trkpt lat="47.46351" lon="6.78441">
        <ele>433.6</ele>
        <time>2017-03-26T07:34:21.999Z</time>
      </trkpt>
      <trkpt lat="47.46348" lon="6.78444">
        <ele>433.7</ele>
        <time>2017-03-26T07:34:23.999Z</time>
      </trkpt>
      <trkpt lat="47.46346" lon="6.78444">
        <ele>433.7</ele>
        <time>2017-03-26T07:34:24.999Z</time>
      </trkpt>
      <trkpt lat="47.46342" lon="6.78444">
        <ele>433.7</ele>
        <time>2017-03-26T07:34:26.999Z</time>
      </trkpt>
      <trkpt lat="47.46341" lon="6.78444">
        <ele>433.7</ele>
        <time>2017-03-26T07:34:27.999Z</time>
      </trkpt>
      <trkpt lat="47.46338" lon="6.78446">
        <ele>433.8</ele>
        <time>2017-03-26T07:34:29.999Z</time>
      </trkpt>
      <trkpt lat="47.46336" lon="6.78448">
        <ele>433.8</ele>
        <time>2017-03-26T07:34:30.999Z</time>
      </trkpt>
      <trkpt lat="47.46335" lon="6.78449">
        <ele>433.9</ele>
        <time>2017-03-26T07:34:31.999Z</time>
      </trkpt>
      <trkpt lat="47.46332" lon="6.7845">
        <ele>433.9</ele>
        <time>2017-03-26T07:34:32.999Z</time>
      </trkpt>
      <trkpt lat="47.46328" lon="6.78451">
        <ele>433.8</ele>
        <time>2017-03-26T07:34:34.999Z</time>
      </trkpt>
      <trkpt lat="47.46325" lon="6.7845">
        <ele>433.7</ele>
        <time>2017-03-26T07:34:35.999Z</time>
      </trkpt>
      <trkpt lat="47.46321" lon="6.78451">
        <ele>433.5</ele>
        <time>2017-03-26T07:34:37.999Z</time>
      </trkpt>
      <trkpt lat="47.4632" lon="6.78451">
        <ele>433.3</ele>
        <time>2017-03-26T07:34:38.999Z</time>
      </trkpt>
      <trkpt lat="47.46317" lon="6.78452">
        <ele>433.3</ele>
        <time>2017-03-26T07:34:40.999Z</time>
      </trkpt>
      <trkpt lat="47.46315" lon="6.78452">
        <ele>433.1</ele>
        <time>2017-03-26T07:34:41.999Z</time>
      </trkpt>
      <trkpt lat="47.46311" lon="6.78453">
        <ele>432.9</ele>
        <time>2017-03-26T07:34:43.999Z</time>
      </trkpt>
      <trkpt lat="47.46307" lon="6.78457">
        <ele>432.8</ele>
        <time>2017-03-26T07:34:44.999Z</time>
      </trkpt>
      <trkpt lat="47.46304" lon="6.78459">
        <ele>432.8</ele>
        <time>2017-03-26T07:34:45.999Z</time>
      </trkpt>
      <trkpt lat="47.46299" lon="6.78461">
        <ele>432.7</ele>
        <time>2017-03-26T07:34:46.999Z</time>
      </trkpt>
      <trkpt lat="47.46294" lon="6.78463">
        <ele>432.7</ele>
        <time>2017-03-26T07:34:47.999Z</time>
      </trkpt>
      <trkpt lat="47.46292" lon="6.78463">
        <ele>432.7</ele>
        <time>2017-03-26T07:34:48.999Z</time>
      </trkpt>
      <trkpt lat="47.46289" lon="6.78464">
        <ele>432.7</ele>
        <time>2017-03-26T07:34:49.999Z</time>
      </trkpt>
      <trkpt lat="47.46285" lon="6.78465">
        <ele>432.7</ele>
        <time>2017-03-26T07:34:50.999Z</time>
      </trkpt>
      <trkpt lat="47.46283" lon="6.78465">
        <ele>432.7</ele>
        <time>2017-03-26T07:34:51.999Z</time>
      </trkpt>
      <trkpt lat="47.4628" lon="6.78466">
        <ele>432.8</ele>
        <time>2017-03-26T07:34:52.999Z</time>
      </trkpt>
      <trkpt lat="47.46278" lon="6.78467">
        <ele>432.8</ele>
        <time>2017-03-26T07:34:53.999Z</time>
      </trkpt>
      <trkpt lat="47.46274" lon="6.78469">
        <ele>432.9</ele>
        <time>2017-03-26T07:34:54.999Z</time>
      </trkpt>
      <trkpt lat="47.4627" lon="6.7847">
        <ele>432.9</ele>
        <time>2017-03-26T07:34:55.999Z</time>
      </trkpt>
      <trkpt lat="47.46267" lon="6.78472">
        <ele>432.9</ele>
        <time>2017-03-26T07:34:56.999Z</time>
      </trkpt>
      <trkpt lat="47.46263" lon="6.78473">
        <ele>433</ele>
        <time>2017-03-26T07:34:57.999Z</time>
      </trkpt>
      <trkpt lat="47.4626" lon="6.78474">
        <ele>433.1</ele>
        <time>2017-03-26T07:34:58.999Z</time>
      </trkpt>
      <trkpt lat="47.46257" lon="6.78474">
        <ele>433.1</ele>
        <time>2017-03-26T07:34:59.999Z</time>
      </trkpt>
      <trkpt lat="47.46255" lon="6.78475">
        <ele>433.1</ele>
        <time>2017-03-26T07:35:00.999Z</time>
      </trkpt>
      <trkpt lat="47.46253" lon="6.78476">
        <ele>433.1</ele>
        <time>2017-03-26T07:35:01.999Z</time>
      </trkpt>
      <trkpt lat="47.4625" lon="6.78476">
        <ele>433.2</ele>
        <time>2017-03-26T07:35:02.999Z</time>
      </trkpt>
      <trkpt lat="47.46245" lon="6.78473">
        <ele>433.4</ele>
        <time>2017-03-26T07:35:03.999Z</time>
      </trkpt>
      <trkpt lat="47.46241" lon="6.78473">
        <ele>433.7</ele>
        <time>2017-03-26T07:35:04.999Z</time>
      </trkpt>
      <trkpt lat="47.46239" lon="6.78475">
        <ele>433.9</ele>
        <time>2017-03-26T07:35:05.999Z</time>
      </trkpt>
      <trkpt lat="47.46235" lon="6.78476">
        <ele>435</ele>
        <time>2017-03-26T07:35:08.999Z</time>
      </trkpt>
      <trkpt lat="47.46232" lon="6.78478">
        <ele>435.2</ele>
        <time>2017-03-26T07:35:09.999Z</time>
      </trkpt>
      <trkpt lat="47.46229" lon="6.78479">
        <ele>435.4</ele>
        <time>2017-03-26T07:35:10.999Z</time>
      </trkpt>
      <trkpt lat="47.46226" lon="6.78481">
        <ele>435.6</ele>
        <time>2017-03-26T07:35:11.999Z</time>
      </trkpt>
      <trkpt lat="47.46222" lon="6.78483">
        <ele>436.2</ele>
        <time>2017-03-26T07:35:13.999Z</time>
      </trkpt>
      <trkpt lat="47.46221" lon="6.78483">
        <ele>436.4</ele>
        <time>2017-03-26T07:35:14.999Z</time>
      </trkpt>
      <trkpt lat="47.46218" lon="6.78485">
        <ele>436.8</ele>
        <time>2017-03-26T07:35:17.999Z</time>
      </trkpt>
      <trkpt lat="47.46216" lon="6.78488">
        <ele>436.8</ele>
        <time>2017-03-26T07:35:18.999Z</time>
      </trkpt>
      <trkpt lat="47.46213" lon="6.7849">
        <ele>436.6</ele>
        <time>2017-03-26T07:35:20.999Z</time>
      </trkpt>
      <trkpt lat="47.46212" lon="6.78491">
        <ele>436.5</ele>
        <time>2017-03-26T07:35:21.999Z</time>
      </trkpt>
      <trkpt lat="47.46208" lon="6.78492">
        <ele>436.5</ele>
        <time>2017-03-26T07:35:23.999Z</time>
      </trkpt>
      <trkpt lat="47.46207" lon="6.78492">
        <ele>436.6</ele>
        <time>2017-03-26T07:35:24.999Z</time>
      </trkpt>
      <trkpt lat="47.46204" lon="6.78491">
        <ele>435.9</ele>
        <time>2017-03-26T07:35:29.999Z</time>
      </trkpt>
      <trkpt lat="47.46202" lon="6.7849">
        <ele>435.7</ele>
        <time>2017-03-26T07:35:30.999Z</time>
      </trkpt>
      <trkpt lat="47.46198" lon="6.7849">
        <ele>435.5</ele>
        <time>2017-03-26T07:35:31.999Z</time>
      </trkpt>
      <trkpt lat="47.46195" lon="6.78492">
        <ele>435.5</ele>
        <time>2017-03-26T07:35:32.999Z</time>
      </trkpt>
      <trkpt lat="47.4619" lon="6.78494">
        <ele>435.4</ele>
        <time>2017-03-26T07:35:33.999Z</time>
      </trkpt>
      <trkpt lat="47.46187" lon="6.78494">
        <ele>435.4</ele>
        <time>2017-03-26T07:35:34.999Z</time>
      </trkpt>
      <trkpt lat="47.46185" lon="6.78494">
        <ele>435.4</ele>
        <time>2017-03-26T07:35:35.999Z</time>
      </trkpt>
      <trkpt lat="47.46182" lon="6.78494">
        <ele>435.5</ele>
        <time>2017-03-26T07:35:36.999Z</time>
      </trkpt>
      <trkpt lat="47.46178" lon="6.78496">
        <ele>435.5</ele>
        <time>2017-03-26T07:35:37.999Z</time>
      </trkpt>
      <trkpt lat="47.46175" lon="6.78497">
        <ele>435.6</ele>
        <time>2017-03-26T07:35:38.999Z</time>
      </trkpt>
      <trkpt lat="47.46172" lon="6.78498">
        <ele>435.6</ele>
        <time>2017-03-26T07:35:39.999Z</time>
      </trkpt>
      <trkpt lat="47.46168" lon="6.78499">
        <ele>436</ele>
        <time>2017-03-26T07:35:41.999Z</time>
      </trkpt>
      <trkpt lat="47.46162" lon="6.78501">
        <ele>436.1</ele>
        <time>2017-03-26T07:35:42.999Z</time>
      </trkpt>
      <trkpt lat="47.46157" lon="6.78504">
        <ele>436.2</ele>
        <time>2017-03-26T07:35:43.999Z</time>
      </trkpt>
      <trkpt lat="47.46152" lon="6.78507">
        <ele>436.1</ele>
        <time>2017-03-26T07:35:44.999Z</time>
      </trkpt>
      <trkpt lat="47.46147" lon="6.7851">
        <ele>436.1</ele>
        <time>2017-03-26T07:35:45.999Z</time>
      </trkpt>
      <trkpt lat="47.46144" lon="6.78512">
        <ele>436.1</ele>
        <time>2017-03-26T07:35:46.999Z</time>
      </trkpt>
      <trkpt lat="47.46142" lon="6.78513">
        <ele>436.1</ele>
        <time>2017-03-26T07:35:47.999Z</time>
      </trkpt>
      <trkpt lat="47.46139" lon="6.78513">
        <ele>436.2</ele>
        <time>2017-03-26T07:35:48.999Z</time>
      </trkpt>
      <trkpt lat="47.46137" lon="6.78515">
        <ele>436.3</ele>
        <time>2017-03-26T07:35:49.999Z</time>
      </trkpt>
      <trkpt lat="47.46134" lon="6.78516">
        <ele>436.5</ele>
        <time>2017-03-26T07:35:50.999Z</time>
      </trkpt>
      <trkpt lat="47.46131" lon="6.78517">
        <ele>436.6</ele>
        <time>2017-03-26T07:35:51.999Z</time>
      </trkpt>
      <trkpt lat="47.46128" lon="6.78519">
        <ele>436.7</ele>
        <time>2017-03-26T07:35:52.999Z</time>
      </trkpt>
      <trkpt lat="47.46126" lon="6.78519">
        <ele>436.8</ele>
        <time>2017-03-26T07:35:53.999Z</time>
      </trkpt>
      <trkpt lat="47.46122" lon="6.78517">
        <ele>436.6</ele>
        <time>2017-03-26T07:35:56.999Z</time>
      </trkpt>
      <trkpt lat="47.46119" lon="6.78517">
        <ele>436.6</ele>
        <time>2017-03-26T07:35:57.999Z</time>
      </trkpt>
      <trkpt lat="47.46116" lon="6.78517">
        <ele>436.5</ele>
        <time>2017-03-26T07:35:58.999Z</time>
      </trkpt>
      <trkpt lat="47.46112" lon="6.78518">
        <ele>436.4</ele>
        <time>2017-03-26T07:35:59.999Z</time>
      </trkpt>
      <trkpt lat="47.46108" lon="6.7852">
        <ele>436.4</ele>
        <time>2017-03-26T07:36:00.999Z</time>
      </trkpt>
      <trkpt lat="47.46106" lon="6.78523">
        <ele>436.5</ele>
        <time>2017-03-26T07:36:01.999Z</time>
      </trkpt>
      <trkpt lat="47.46102" lon="6.78525">
        <ele>436.5</ele>
        <time>2017-03-26T07:36:02.999Z</time>
      </trkpt>
      <trkpt lat="47.461" lon="6.78526">
        <ele>436.5</ele>
        <time>2017-03-26T07:36:03.999Z</time>
      </trkpt>
      <trkpt lat="47.46096" lon="6.78526">
        <ele>436.6</ele>
        <time>2017-03-26T07:36:04.999Z</time>
      </trkpt>
      <trkpt lat="47.46093" lon="6.78526">
        <ele>436.5</ele>
        <time>2017-03-26T07:36:05.999Z</time>
      </trkpt>
      <trkpt lat="47.46089" lon="6.78526">
        <ele>436.3</ele>
        <time>2017-03-26T07:36:06.999Z</time>
      </trkpt>
      <trkpt lat="47.46084" lon="6.78524">
        <ele>436.1</ele>
        <time>2017-03-26T07:36:07.999Z</time>
      </trkpt>
      <trkpt lat="47.4608" lon="6.78522">
        <ele>435.9</ele>
        <time>2017-03-26T07:36:08.999Z</time>
      </trkpt>
      <trkpt lat="47.46077" lon="6.78519">
        <ele>435.9</ele>
        <time>2017-03-26T07:36:09.999Z</time>
      </trkpt>
      <trkpt lat="47.46073" lon="6.78516">
        <ele>435.8</ele>
        <time>2017-03-26T07:36:10.999Z</time>
      </trkpt>
      <trkpt lat="47.46067" lon="6.7851">
        <ele>435.7</ele>
        <time>2017-03-26T07:36:11.999Z</time>
      </trkpt>
      <trkpt lat="47.46064" lon="6.78507">
        <ele>435.7</ele>
        <time>2017-03-26T07:36:12.999Z</time>
      </trkpt>
      <trkpt lat="47.46062" lon="6.78502">
        <ele>435.6</ele>
        <time>2017-03-26T07:36:13.999Z</time>
      </trkpt>
      <trkpt lat="47.46058" lon="6.78498">
        <ele>435.5</ele>
        <time>2017-03-26T07:36:14.999Z</time>
      </trkpt>
      <trkpt lat="47.46053" lon="6.78496">
        <ele>435.6</ele>
        <time>2017-03-26T07:36:15.999Z</time>
      </trkpt>
      <trkpt lat="47.4605" lon="6.78495">
        <ele>435.7</ele>
        <time>2017-03-26T07:36:16.999Z</time>
      </trkpt>
      <trkpt lat="47.46044" lon="6.78494">
        <ele>435.9</ele>
        <time>2017-03-26T07:36:17.999Z</time>
      </trkpt>
      <trkpt lat="47.4604" lon="6.78494">
        <ele>436.2</ele>
        <time>2017-03-26T07:36:18.999Z</time>
      </trkpt>
      <trkpt lat="47.46036" lon="6.78493">
        <ele>436.4</ele>
        <time>2017-03-26T07:36:19.999Z</time>
      </trkpt>
      <trkpt lat="47.46027" lon="6.78491">
        <ele>436.6</ele>
        <time>2017-03-26T07:36:20.999Z</time>
      </trkpt>
      <trkpt lat="47.46019" lon="6.78487">
        <ele>436.8</ele>
        <time>2017-03-26T07:36:21.999Z</time>
      </trkpt>
      <trkpt lat="47.46015" lon="6.78483">
        <ele>436.9</ele>
        <time>2017-03-26T07:36:22.999Z</time>
      </trkpt>
      <trkpt lat="47.46011" lon="6.78482">
        <ele>437.1</ele>
        <time>2017-03-26T07:36:23.999Z</time>
      </trkpt>
      <trkpt lat="47.46008" lon="6.78481">
        <ele>437.2</ele>
        <time>2017-03-26T07:36:24.999Z</time>
      </trkpt>
      <trkpt lat="47.46003" lon="6.78481">
        <ele>437.3</ele>
        <time>2017-03-26T07:36:25.999Z</time>
      </trkpt>
      <trkpt lat="47.45999" lon="6.78482">
        <ele>437.4</ele>
        <time>2017-03-26T07:36:26.999Z</time>
      </trkpt>
      <trkpt lat="47.45997" lon="6.78484">
        <ele>437.5</ele>
        <time>2017-03-26T07:36:27.999Z</time>
      </trkpt>
      <trkpt lat="47.45995" lon="6.78487">
        <ele>437.5</ele>
        <time>2017-03-26T07:36:28.999Z</time>
      </trkpt>
      <trkpt lat="47.45992" lon="6.78486">
        <ele>437.5</ele>
        <time>2017-03-26T07:36:29.999Z</time>
      </trkpt>
      <trkpt lat="47.4599" lon="6.78484">
        <ele>437.5</ele>
        <time>2017-03-26T07:36:30.999Z</time>
      </trkpt>
      <trkpt lat="47.45988" lon="6.78482">
        <ele>437.3</ele>
        <time>2017-03-26T07:36:31.999Z</time>
      </trkpt>
      <trkpt lat="47.45986" lon="6.78477">
        <ele>444.3</ele>
        <time>2017-03-26T07:39:47.999Z</time>
      </trkpt>
      <trkpt lat="47.45985" lon="6.78475">
        <ele>444.5</ele>
        <time>2017-03-26T07:39:48.999Z</time>
      </trkpt>
      <trkpt lat="47.45984" lon="6.78472">
        <ele>444.6</ele>
        <time>2017-03-26T07:39:49.999Z</time>
      </trkpt>
      <trkpt lat="47.45982" lon="6.78467">
        <ele>444.8</ele>
        <time>2017-03-26T07:39:50.999Z</time>
      </trkpt>
      <trkpt lat="47.45981" lon="6.78462">
        <ele>444.9</ele>
        <time>2017-03-26T07:39:51.999Z</time>
      </trkpt>
      <trkpt lat="47.4598" lon="6.78459">
        <ele>445</ele>
        <time>2017-03-26T07:39:52.999Z</time>
      </trkpt>
      <trkpt lat="47.45979" lon="6.78455">
        <ele>444.9</ele>
        <time>2017-03-26T07:39:53.999Z</time>
      </trkpt>
      <trkpt lat="47.45975" lon="6.78446">
        <ele>444.9</ele>
        <time>2017-03-26T07:39:54.999Z</time>
      </trkpt>
      <trkpt lat="47.45974" lon="6.7844">
        <ele>444.7</ele>
        <time>2017-03-26T07:39:55.999Z</time>
      </trkpt>
      <trkpt lat="47.45973" lon="6.78435">
        <ele>444.6</ele>
        <time>2017-03-26T07:39:56.999Z</time>
      </trkpt>
      <trkpt lat="47.4597" lon="6.78428">
        <ele>444.3</ele>
        <time>2017-03-26T07:39:57.999Z</time>
      </trkpt>
      <trkpt lat="47.45968" lon="6.78424">
        <ele>444</ele>
        <time>2017-03-26T07:39:58.999Z</time>
      </trkpt>
      <trkpt lat="47.45967" lon="6.78421">
        <ele>443.6</ele>
        <time>2017-03-26T07:39:59.999Z</time>
      </trkpt>
      <trkpt lat="47.45962" lon="6.7842">
        <ele>442.7</ele>
        <time>2017-03-26T07:40:01.999Z</time>
      </trkpt>
      <trkpt lat="47.4596" lon="6.78422">
        <ele>442.3</ele>
        <time>2017-03-26T07:40:02.999Z</time>
      </trkpt>
      <trkpt lat="47.45957" lon="6.78424">
        <ele>442.2</ele>
        <time>2017-03-26T07:40:03.999Z</time>
      </trkpt>
      <trkpt lat="47.45954" lon="6.78426">
        <ele>442.1</ele>
        <time>2017-03-26T07:40:04.999Z</time>
      </trkpt>
      <trkpt lat="47.45952" lon="6.78428">
        <ele>441.9</ele>
        <time>2017-03-26T07:40:05.999Z</time>
      </trkpt>
      <trkpt lat="47.45948" lon="6.78432">
        <ele>441.8</ele>
        <time>2017-03-26T07:40:06.999Z</time>
      </trkpt>
      <trkpt lat="47.45946" lon="6.78435">
        <ele>441.8</ele>
        <time>2017-03-26T07:40:07.999Z</time>
      </trkpt>
      <trkpt lat="47.45944" lon="6.7844">
        <ele>441.8</ele>
        <time>2017-03-26T07:40:08.999Z</time>
      </trkpt>
      <trkpt lat="47.45941" lon="6.7845">
        <ele>440</ele>
        <time>2017-03-26T07:40:09.999Z</time>
      </trkpt>
      <trkpt lat="47.45941" lon="6.78459">
        <ele>439</ele>
        <time>2017-03-26T07:40:10.999Z</time>
      </trkpt>
      <trkpt lat="47.45939" lon="6.78471">
        <ele>438.8</ele>
        <time>2017-03-26T07:40:11.999Z</time>
      </trkpt>
      <trkpt lat="47.45939" lon="6.78482">
        <ele>438.8</ele>
        <time>2017-03-26T07:40:12.999Z</time>
      </trkpt>
      <trkpt lat="47.45939" lon="6.78493">
        <ele>438.9</ele>
        <time>2017-03-26T07:40:13.999Z</time>
      </trkpt>
      <trkpt lat="47.45939" lon="6.78504">
        <ele>439.5</ele>
        <time>2017-03-26T07:40:14.999Z</time>
      </trkpt>
      <trkpt lat="47.45938" lon="6.78515">
        <ele>439.7</ele>
        <time>2017-03-26T07:40:15.999Z</time>
      </trkpt>
      <trkpt lat="47.45937" lon="6.78523">
        <ele>439.2</ele>
        <time>2017-03-26T07:40:16.999Z</time>
      </trkpt>
      <trkpt lat="47.45935" lon="6.78531">
        <ele>438.2</ele>
        <time>2017-03-26T07:40:17.999Z</time>
      </trkpt>
      <trkpt lat="47.45931" lon="6.78537">
        <ele>437.1</ele>
        <time>2017-03-26T07:40:18.999Z</time>
      </trkpt>
      <trkpt lat="47.45926" lon="6.78537">
        <ele>436.1</ele>
        <time>2017-03-26T07:40:19.999Z</time>
      </trkpt>
      <trkpt lat="47.4592" lon="6.78537">
        <ele>434.1</ele>
        <time>2017-03-26T07:40:20.999Z</time>
      </trkpt>
      <trkpt lat="47.45915" lon="6.78534">
        <ele>432.2</ele>
        <time>2017-03-26T07:40:21.999Z</time>
      </trkpt>
      <trkpt lat="47.4591" lon="6.7853">
        <ele>430.6</ele>
        <time>2017-03-26T07:40:22.999Z</time>
      </trkpt>
      <trkpt lat="47.45905" lon="6.78525">
        <ele>428.9</ele>
        <time>2017-03-26T07:40:23.999Z</time>
      </trkpt>
      <trkpt lat="47.459" lon="6.78519">
        <ele>426.9</ele>
        <time>2017-03-26T07:40:24.999Z</time>
      </trkpt>
      <trkpt lat="47.45894" lon="6.78511">
        <ele>424.7</ele>
        <time>2017-03-26T07:40:25.999Z</time>
      </trkpt>
      <trkpt lat="47.45888" lon="6.78504">
        <ele>423.6</ele>
        <time>2017-03-26T07:40:26.999Z</time>
      </trkpt>
      <trkpt lat="47.45882" lon="6.78496">
        <ele>423.3</ele>
        <time>2017-03-26T07:40:27.999Z</time>
      </trkpt>
      <trkpt lat="47.45876" lon="6.78488">
        <ele>422.6</ele>
        <time>2017-03-26T07:40:28.999Z</time>
      </trkpt>
      <trkpt lat="47.45869" lon="6.7848">
        <ele>421.7</ele>
        <time>2017-03-26T07:40:29.999Z</time>
      </trkpt>
      <trkpt lat="47.45862" lon="6.78472">
        <ele>421</ele>
        <time>2017-03-26T07:40:30.999Z</time>
      </trkpt>
      <trkpt lat="47.45853" lon="6.78463">
        <ele>420.9</ele>
        <time>2017-03-26T07:40:31.999Z</time>
      </trkpt>
      <trkpt lat="47.45845" lon="6.78455">
        <ele>419.7</ele>
        <time>2017-03-26T07:40:32.999Z</time>
      </trkpt>
      <trkpt lat="47.45836" lon="6.78447">
        <ele>418.7</ele>
        <time>2017-03-26T07:40:33.999Z</time>
      </trkpt>
      <trkpt lat="47.45827" lon="6.78439">
        <ele>418.1</ele>
        <time>2017-03-26T07:40:34.999Z</time>
      </trkpt>
      <trkpt lat="47.45819" lon="6.78432">
        <ele>417.6</ele>
        <time>2017-03-26T07:40:35.999Z</time>
      </trkpt>
      <trkpt lat="47.45811" lon="6.78423">
        <ele>416.6</ele>
        <time>2017-03-26T07:40:36.999Z</time>
      </trkpt>
      <trkpt lat="47.45803" lon="6.78416">
        <ele>416.1</ele>
        <time>2017-03-26T07:40:37.999Z</time>
      </trkpt>
      <trkpt lat="47.45795" lon="6.78408">
        <ele>415.3</ele>
        <time>2017-03-26T07:40:38.999Z</time>
      </trkpt>
      <trkpt lat="47.45785" lon="6.78401">
        <ele>414.7</ele>
        <time>2017-03-26T07:40:39.999Z</time>
      </trkpt>
      <trkpt lat="47.45776" lon="6.78395">
        <ele>414</ele>
        <time>2017-03-26T07:40:40.999Z</time>
      </trkpt>
      <trkpt lat="47.45767" lon="6.78389">
        <ele>412.8</ele>
        <time>2017-03-26T07:40:41.999Z</time>
      </trkpt>
      <trkpt lat="47.45757" lon="6.78384">
        <ele>412</ele>
        <time>2017-03-26T07:40:42.999Z</time>
      </trkpt>
      <trkpt lat="47.45747" lon="6.78383">
        <ele>411.3</ele>
        <time>2017-03-26T07:40:43.999Z</time>
      </trkpt>
      <trkpt lat="47.45735" lon="6.78382">
        <ele>410.7</ele>
        <time>2017-03-26T07:40:44.999Z</time>
      </trkpt>
      <trkpt lat="47.45724" lon="6.7838">
        <ele>410.5</ele>
        <time>2017-03-26T07:40:45.999Z</time>
      </trkpt>
      <trkpt lat="47.45713" lon="6.78379">
        <ele>410.6</ele>
        <time>2017-03-26T07:40:46.999Z</time>
      </trkpt>
      <trkpt lat="47.45703" lon="6.78379">
        <ele>410.2</ele>
        <time>2017-03-26T07:40:47.999Z</time>
      </trkpt>
      <trkpt lat="47.45692" lon="6.7838">
        <ele>410.2</ele>
        <time>2017-03-26T07:40:48.999Z</time>
      </trkpt>
      <trkpt lat="47.45684" lon="6.7838">
        <ele>410.3</ele>
        <time>2017-03-26T07:40:49.999Z</time>
      </trkpt>
      <trkpt lat="47.45678" lon="6.7838">
        <ele>409.9</ele>
        <time>2017-03-26T07:40:50.999Z</time>
      </trkpt>
      <trkpt lat="47.45674" lon="6.7838">
        <ele>409.7</ele>
        <time>2017-03-26T07:40:52.999Z</time>
      </trkpt>
      <trkpt lat="47.45673" lon="6.7838">
        <ele>409.6</ele>
        <time>2017-03-26T07:40:53.999Z</time>
      </trkpt>
      <trkpt lat="47.45673" lon="6.7838">
        <ele>409.1</ele>
        <time>2017-03-26T07:41:28.999Z</time>
      </trkpt>
      <trkpt lat="47.45667" lon="6.78382">
        <ele>408.9</ele>
        <time>2017-03-26T07:41:29.999Z</time>
      </trkpt>
      <trkpt lat="47.45663" lon="6.78383">
        <ele>406.6</ele>
        <time>2017-03-26T07:41:30.999Z</time>
      </trkpt>
      <trkpt lat="47.45658" lon="6.78386">
        <ele>406.5</ele>
        <time>2017-03-26T07:41:31.999Z</time>
      </trkpt>
      <trkpt lat="47.45655" lon="6.78387">
        <ele>406.4</ele>
        <time>2017-03-26T07:41:32.999Z</time>
      </trkpt>
      <trkpt lat="47.45652" lon="6.78388">
        <ele>406.3</ele>
        <time>2017-03-26T07:41:33.999Z</time>
      </trkpt>
      <trkpt lat="47.45648" lon="6.7839">
        <ele>405.1</ele>
        <time>2017-03-26T07:41:34.999Z</time>
      </trkpt>
      <trkpt lat="47.45645" lon="6.78391">
        <ele>404.3</ele>
        <time>2017-03-26T07:41:35.999Z</time>
      </trkpt>
      <trkpt lat="47.45641" lon="6.78393">
        <ele>403.6</ele>
        <time>2017-03-26T07:41:36.999Z</time>
      </trkpt>
      <trkpt lat="47.45637" lon="6.78394">
        <ele>403.2</ele>
        <time>2017-03-26T07:41:37.999Z</time>
      </trkpt>
      <trkpt lat="47.45633" lon="6.78397">
        <ele>403.1</ele>
        <time>2017-03-26T07:41:38.999Z</time>
      </trkpt>
      <trkpt lat="47.45631" lon="6.78397">
        <ele>403.1</ele>
        <time>2017-03-26T07:41:39.999Z</time>
      </trkpt>
      <trkpt lat="47.45628" lon="6.78397">
        <ele>403.1</ele>
        <time>2017-03-26T07:41:41.999Z</time>
      </trkpt>
      <trkpt lat="47.45625" lon="6.78398">
        <ele>402.9</ele>
        <time>2017-03-26T07:41:42.999Z</time>
      </trkpt>
      <trkpt lat="47.45622" lon="6.784">
        <ele>402.8</ele>
        <time>2017-03-26T07:41:43.999Z</time>
      </trkpt>
      <trkpt lat="47.45619" lon="6.78402">
        <ele>402.2</ele>
        <time>2017-03-26T07:41:44.999Z</time>
      </trkpt>
      <trkpt lat="47.45614" lon="6.78404">
        <ele>402</ele>
        <time>2017-03-26T07:41:45.999Z</time>
      </trkpt>
      <trkpt lat="47.4561" lon="6.78407">
        <ele>401.9</ele>
        <time>2017-03-26T07:41:46.999Z</time>
      </trkpt>
      <trkpt lat="47.45606" lon="6.78409">
        <ele>402.4</ele>
        <time>2017-03-26T07:41:47.999Z</time>
      </trkpt>
      <trkpt lat="47.45601" lon="6.78412">
        <ele>403</ele>
        <time>2017-03-26T07:41:48.999Z</time>
      </trkpt>
      <trkpt lat="47.45595" lon="6.78415">
        <ele>403.2</ele>
        <time>2017-03-26T07:41:49.999Z</time>
      </trkpt>
      <trkpt lat="47.4559" lon="6.78418">
        <ele>403.1</ele>
        <time>2017-03-26T07:41:50.999Z</time>
      </trkpt>
      <trkpt lat="47.45585" lon="6.78421">
        <ele>402.7</ele>
        <time>2017-03-26T07:41:51.999Z</time>
      </trkpt>
      <trkpt lat="47.4558" lon="6.78423">
        <ele>402.4</ele>
        <time>2017-03-26T07:41:52.999Z</time>
      </trkpt>
      <trkpt lat="47.45575" lon="6.78426">
        <ele>402.3</ele>
        <time>2017-03-26T07:41:53.999Z</time>
      </trkpt>
      <trkpt lat="47.45569" lon="6.78429">
        <ele>402</ele>
        <time>2017-03-26T07:41:54.999Z</time>
      </trkpt>
      <trkpt lat="47.45564" lon="6.78434">
        <ele>401.8</ele>
        <time>2017-03-26T07:41:55.999Z</time>
      </trkpt>
      <trkpt lat="47.4556" lon="6.7844">
        <ele>401.5</ele>
        <time>2017-03-26T07:41:56.999Z</time>
      </trkpt>
      <trkpt lat="47.45556" lon="6.78446">
        <ele>401.6</ele>
        <time>2017-03-26T07:41:57.999Z</time>
      </trkpt>
      <trkpt lat="47.45553" lon="6.78451">
        <ele>401.5</ele>
        <time>2017-03-26T07:41:58.999Z</time>
      </trkpt>
      <trkpt lat="47.4555" lon="6.78458">
        <ele>401.5</ele>
        <time>2017-03-26T07:41:59.999Z</time>
      </trkpt>
      <trkpt lat="47.45548" lon="6.78465">
        <ele>401.6</ele>
        <time>2017-03-26T07:42:00.999Z</time>
      </trkpt>
      <trkpt lat="47.45546" lon="6.78472">
        <ele>401.6</ele>
        <time>2017-03-26T07:42:01.999Z</time>
      </trkpt>
      <trkpt lat="47.45543" lon="6.78479">
        <ele>401</ele>
        <time>2017-03-26T07:42:02.999Z</time>
      </trkpt>
      <trkpt lat="47.45541" lon="6.78485">
        <ele>400.5</ele>
        <time>2017-03-26T07:42:03.999Z</time>
      </trkpt>
      <trkpt lat="47.45539" lon="6.78491">
        <ele>400.5</ele>
        <time>2017-03-26T07:42:04.999Z</time>
      </trkpt>
      <trkpt lat="47.45537" lon="6.78496">
        <ele>400.4</ele>
        <time>2017-03-26T07:42:05.999Z</time>
      </trkpt>
      <trkpt lat="47.45535" lon="6.78501">
        <ele>400.4</ele>
        <time>2017-03-26T07:42:06.999Z</time>
      </trkpt>
      <trkpt lat="47.45534" lon="6.78506">
        <ele>400</ele>
        <time>2017-03-26T07:42:07.999Z</time>
      </trkpt>
      <trkpt lat="47.45533" lon="6.78511">
        <ele>400</ele>
        <time>2017-03-26T07:42:08.999Z</time>
      </trkpt>
      <trkpt lat="47.45531" lon="6.78518">
        <ele>400.2</ele>
        <time>2017-03-26T07:42:09.999Z</time>
      </trkpt>
      <trkpt lat="47.4553" lon="6.78523">
        <ele>400.1</ele>
        <time>2017-03-26T07:42:10.999Z</time>
      </trkpt>
      <trkpt lat="47.45528" lon="6.78529">
        <ele>400.8</ele>
        <time>2017-03-26T07:42:11.999Z</time>
      </trkpt>
      <trkpt lat="47.45527" lon="6.78535">
        <ele>400.8</ele>
        <time>2017-03-26T07:42:12.999Z</time>
      </trkpt>
      <trkpt lat="47.45525" lon="6.78542">
        <ele>400.5</ele>
        <time>2017-03-26T07:42:13.999Z</time>
      </trkpt>
      <trkpt lat="47.45523" lon="6.78548">
        <ele>400.1</ele>
        <time>2017-03-26T07:42:14.999Z</time>
      </trkpt>
      <trkpt lat="47.45521" lon="6.78554">
        <ele>399.4</ele>
        <time>2017-03-26T07:42:15.999Z</time>
      </trkpt>
      <trkpt lat="47.45518" lon="6.7856">
        <ele>398.2</ele>
        <time>2017-03-26T07:42:16.999Z</time>
      </trkpt>
      <trkpt lat="47.45514" lon="6.78568">
        <ele>397.5</ele>
        <time>2017-03-26T07:42:17.999Z</time>
      </trkpt>
      <trkpt lat="47.4551" lon="6.78575">
        <ele>397.1</ele>
        <time>2017-03-26T07:42:18.999Z</time>
      </trkpt>
      <trkpt lat="47.45508" lon="6.7858">
        <ele>397.4</ele>
        <time>2017-03-26T07:42:19.999Z</time>
      </trkpt>
      <trkpt lat="47.45505" lon="6.78585">
        <ele>396.9</ele>
        <time>2017-03-26T07:42:20.999Z</time>
      </trkpt>
      <trkpt lat="47.45501" lon="6.78592">
        <ele>396.6</ele>
        <time>2017-03-26T07:42:21.999Z</time>
      </trkpt>
      <trkpt lat="47.45495" lon="6.786">
        <ele>396</ele>
        <time>2017-03-26T07:42:22.999Z</time>
      </trkpt>
      <trkpt lat="47.4549" lon="6.7861">
        <ele>395.9</ele>
        <time>2017-03-26T07:42:23.999Z</time>
      </trkpt>
      <trkpt lat="47.45486" lon="6.78622">
        <ele>395.1</ele>
        <time>2017-03-26T07:42:24.999Z</time>
      </trkpt>
      <trkpt lat="47.45483" lon="6.78636">
        <ele>394.2</ele>
        <time>2017-03-26T07:42:25.999Z</time>
      </trkpt>
      <trkpt lat="47.4548" lon="6.78651">
        <ele>393</ele>
        <time>2017-03-26T07:42:26.999Z</time>
      </trkpt>
      <trkpt lat="47.45478" lon="6.78665">
        <ele>392.1</ele>
        <time>2017-03-26T07:42:27.999Z</time>
      </trkpt>
      <trkpt lat="47.45476" lon="6.78678">
        <ele>391</ele>
        <time>2017-03-26T07:42:28.999Z</time>
      </trkpt>
      <trkpt lat="47.45475" lon="6.78689">
        <ele>390.1</ele>
        <time>2017-03-26T07:42:29.999Z</time>
      </trkpt>
      <trkpt lat="47.45475" lon="6.78698">
        <ele>389</ele>
        <time>2017-03-26T07:42:30.999Z</time>
      </trkpt>
      <trkpt lat="47.45474" lon="6.78707">
        <ele>388.2</ele>
        <time>2017-03-26T07:42:31.999Z</time>
      </trkpt>
      <trkpt lat="47.45473" lon="6.78713">
        <ele>386.9</ele>
        <time>2017-03-26T07:42:32.999Z</time>
      </trkpt>
      <trkpt lat="47.45474" lon="6.78719">
        <ele>386.9</ele>
        <time>2017-03-26T07:42:33.999Z</time>
      </trkpt>
      <trkpt lat="47.45473" lon="6.78724">
        <ele>386.9</ele>
        <time>2017-03-26T07:42:34.999Z</time>
      </trkpt>
      <trkpt lat="47.45473" lon="6.7873">
        <ele>386.8</ele>
        <time>2017-03-26T07:42:35.999Z</time>
      </trkpt>
      <trkpt lat="47.45474" lon="6.78735">
        <ele>386.7</ele>
        <time>2017-03-26T07:42:36.999Z</time>
      </trkpt>
      <trkpt lat="47.45475" lon="6.78741">
        <ele>385.6</ele>
        <time>2017-03-26T07:42:37.999Z</time>
      </trkpt>
      <trkpt lat="47.45478" lon="6.78746">
        <ele>385.4</ele>
        <time>2017-03-26T07:42:38.999Z</time>
      </trkpt>
      <trkpt lat="47.4548" lon="6.78751">
        <ele>385.4</ele>
        <time>2017-03-26T07:42:39.999Z</time>
      </trkpt>
      <trkpt lat="47.45483" lon="6.78758">
        <ele>385.3</ele>
        <time>2017-03-26T07:42:40.999Z</time>
      </trkpt>
      <trkpt lat="47.45483" lon="6.78764">
        <ele>385.2</ele>
        <time>2017-03-26T07:42:41.999Z</time>
      </trkpt>
      <trkpt lat="47.45481" lon="6.78769">
        <ele>385</ele>
        <time>2017-03-26T07:42:42.999Z</time>
      </trkpt>
      <trkpt lat="47.45478" lon="6.78773">
        <ele>384.8</ele>
        <time>2017-03-26T07:42:43.999Z</time>
      </trkpt>
      <trkpt lat="47.45474" lon="6.78777">
        <ele>385.1</ele>
        <time>2017-03-26T07:42:44.999Z</time>
      </trkpt>
      <trkpt lat="47.45468" lon="6.78782">
        <ele>384.9</ele>
        <time>2017-03-26T07:42:45.999Z</time>
      </trkpt>
      <trkpt lat="47.45463" lon="6.78785">
        <ele>384.4</ele>
        <time>2017-03-26T07:42:46.999Z</time>
      </trkpt>
      <trkpt lat="47.45458" lon="6.7879">
        <ele>383.9</ele>
        <time>2017-03-26T07:42:47.999Z</time>
      </trkpt>
      <trkpt lat="47.45454" lon="6.78795">
        <ele>384.3</ele>
        <time>2017-03-26T07:42:48.999Z</time>
      </trkpt>
      <trkpt lat="47.4545" lon="6.788">
        <ele>384.3</ele>
        <time>2017-03-26T07:42:49.999Z</time>
      </trkpt>
      <trkpt lat="47.45446" lon="6.78807">
        <ele>384.4</ele>
        <time>2017-03-26T07:42:50.999Z</time>
      </trkpt>
      <trkpt lat="47.45443" lon="6.78812">
        <ele>383.9</ele>
        <time>2017-03-26T07:42:51.999Z</time>
      </trkpt>
      <trkpt lat="47.45439" lon="6.78814">
        <ele>383.5</ele>
        <time>2017-03-26T07:42:52.999Z</time>
      </trkpt>
      <trkpt lat="47.45436" lon="6.78819">
        <ele>383.1</ele>
        <time>2017-03-26T07:42:53.999Z</time>
      </trkpt>
      <trkpt lat="47.45432" lon="6.78823">
        <ele>383</ele>
        <time>2017-03-26T07:42:54.999Z</time>
      </trkpt>
      <trkpt lat="47.45427" lon="6.78829">
        <ele>383.3</ele>
        <time>2017-03-26T07:42:55.999Z</time>
      </trkpt>
      <trkpt lat="47.45423" lon="6.78834">
        <ele>383.7</ele>
        <time>2017-03-26T07:42:56.999Z</time>
      </trkpt>
      <trkpt lat="47.45419" lon="6.7884">
        <ele>384.1</ele>
        <time>2017-03-26T07:42:57.999Z</time>
      </trkpt>
      <trkpt lat="47.45415" lon="6.78845">
        <ele>384.3</ele>
        <time>2017-03-26T07:42:58.999Z</time>
      </trkpt>
      <trkpt lat="47.45411" lon="6.78849">
        <ele>383.9</ele>
        <time>2017-03-26T07:42:59.999Z</time>
      </trkpt>
      <trkpt lat="47.45406" lon="6.78855">
        <ele>384.3</ele>
        <time>2017-03-26T07:43:00.999Z</time>
      </trkpt>
      <trkpt lat="47.45401" lon="6.7886">
        <ele>384.2</ele>
        <time>2017-03-26T07:43:01.999Z</time>
      </trkpt>
      <trkpt lat="47.45396" lon="6.78865">
        <ele>384.3</ele>
        <time>2017-03-26T07:43:02.999Z</time>
      </trkpt>
      <trkpt lat="47.45392" lon="6.7887">
        <ele>385.1</ele>
        <time>2017-03-26T07:43:03.999Z</time>
      </trkpt>
      <trkpt lat="47.45389" lon="6.78877">
        <ele>385.4</ele>
        <time>2017-03-26T07:43:04.999Z</time>
      </trkpt>
      <trkpt lat="47.45385" lon="6.78884">
        <ele>384.5</ele>
        <time>2017-03-26T07:43:05.999Z</time>
      </trkpt>
      <trkpt lat="47.45381" lon="6.78889">
        <ele>383.9</ele>
        <time>2017-03-26T07:43:06.999Z</time>
      </trkpt>
      <trkpt lat="47.45377" lon="6.78894">
        <ele>383.7</ele>
        <time>2017-03-26T07:43:07.999Z</time>
      </trkpt>
      <trkpt lat="47.45372" lon="6.78899">
        <ele>383.4</ele>
        <time>2017-03-26T07:43:08.999Z</time>
      </trkpt>
      <trkpt lat="47.45368" lon="6.78903">
        <ele>383.3</ele>
        <time>2017-03-26T07:43:09.999Z</time>
      </trkpt>
      <trkpt lat="47.45365" lon="6.78908">
        <ele>383.1</ele>
        <time>2017-03-26T07:43:10.999Z</time>
      </trkpt>
      <trkpt lat="47.45361" lon="6.78912">
        <ele>383.3</ele>
        <time>2017-03-26T07:43:11.999Z</time>
      </trkpt>
      <trkpt lat="47.45358" lon="6.78917">
        <ele>383.7</ele>
        <time>2017-03-26T07:43:12.999Z</time>
      </trkpt>
      <trkpt lat="47.45356" lon="6.78921">
        <ele>383.8</ele>
        <time>2017-03-26T07:43:13.999Z</time>
      </trkpt>
      <trkpt lat="47.45352" lon="6.78926">
        <ele>384.3</ele>
        <time>2017-03-26T07:43:14.999Z</time>
      </trkpt>
      <trkpt lat="47.45349" lon="6.7893">
        <ele>384</ele>
        <time>2017-03-26T07:43:15.999Z</time>
      </trkpt>
      <trkpt lat="47.45347" lon="6.78934">
        <ele>383.3</ele>
        <time>2017-03-26T07:43:16.999Z</time>
      </trkpt>
      <trkpt lat="47.45344" lon="6.78938">
        <ele>381.8</ele>
        <time>2017-03-26T07:43:17.999Z</time>
      </trkpt>
      <trkpt lat="47.4534" lon="6.78942">
        <ele>380.7</ele>
        <time>2017-03-26T07:43:18.999Z</time>
      </trkpt>
      <trkpt lat="47.45337" lon="6.78947">
        <ele>379.7</ele>
        <time>2017-03-26T07:43:19.999Z</time>
      </trkpt>
      <trkpt lat="47.45333" lon="6.78951">
        <ele>378.5</ele>
        <time>2017-03-26T07:43:20.999Z</time>
      </trkpt>
      <trkpt lat="47.45328" lon="6.78956">
        <ele>377.9</ele>
        <time>2017-03-26T07:43:21.999Z</time>
      </trkpt>
      <trkpt lat="47.45325" lon="6.7896">
        <ele>377.7</ele>
        <time>2017-03-26T07:43:22.999Z</time>
      </trkpt>
      <trkpt lat="47.45321" lon="6.78965">
        <ele>378.2</ele>
        <time>2017-03-26T07:43:23.999Z</time>
      </trkpt>
      <trkpt lat="47.45318" lon="6.7897">
        <ele>378.6</ele>
        <time>2017-03-26T07:43:24.999Z</time>
      </trkpt>
      <trkpt lat="47.45314" lon="6.78976">
        <ele>379.7</ele>
        <time>2017-03-26T07:43:25.999Z</time>
      </trkpt>
      <trkpt lat="47.4531" lon="6.78981">
        <ele>380.1</ele>
        <time>2017-03-26T07:43:26.999Z</time>
      </trkpt>
      <trkpt lat="47.45307" lon="6.78987">
        <ele>380.5</ele>
        <time>2017-03-26T07:43:27.999Z</time>
      </trkpt>
      <trkpt lat="47.45303" lon="6.78992">
        <ele>381</ele>
        <time>2017-03-26T07:43:28.999Z</time>
      </trkpt>
      <trkpt lat="47.453" lon="6.78997">
        <ele>381.4</ele>
        <time>2017-03-26T07:43:29.999Z</time>
      </trkpt>
      <trkpt lat="47.45296" lon="6.79003">
        <ele>381.7</ele>
        <time>2017-03-26T07:43:30.999Z</time>
      </trkpt>
      <trkpt lat="47.45293" lon="6.79008">
        <ele>382.2</ele>
        <time>2017-03-26T07:43:31.999Z</time>
      </trkpt>
      <trkpt lat="47.4529" lon="6.79013">
        <ele>382.3</ele>
        <time>2017-03-26T07:43:32.999Z</time>
      </trkpt>
      <trkpt lat="47.45288" lon="6.79016">
        <ele>382.3</ele>
        <time>2017-03-26T07:43:33.999Z</time>
      </trkpt>
      <trkpt lat="47.45285" lon="6.7902">
        <ele>382.3</ele>
        <time>2017-03-26T07:43:34.999Z</time>
      </trkpt>
      <trkpt lat="47.45283" lon="6.79024">
        <ele>382.3</ele>
        <time>2017-03-26T07:43:35.999Z</time>
      </trkpt>
      <trkpt lat="47.45281" lon="6.79028">
        <ele>381.6</ele>
        <time>2017-03-26T07:43:36.999Z</time>
      </trkpt>
      <trkpt lat="47.45278" lon="6.79034">
        <ele>381.6</ele>
        <time>2017-03-26T07:43:37.999Z</time>
      </trkpt>
      <trkpt lat="47.45276" lon="6.79038">
        <ele>381.7</ele>
        <time>2017-03-26T07:43:38.999Z</time>
      </trkpt>
      <trkpt lat="47.45275" lon="6.79044">
        <ele>381.7</ele>
        <time>2017-03-26T07:43:39.999Z</time>
      </trkpt>
      <trkpt lat="47.45274" lon="6.7905">
        <ele>381.3</ele>
        <time>2017-03-26T07:43:40.999Z</time>
      </trkpt>
      <trkpt lat="47.45273" lon="6.79056">
        <ele>381.3</ele>
        <time>2017-03-26T07:43:41.999Z</time>
      </trkpt>
      <trkpt lat="47.45271" lon="6.79064">
        <ele>381.7</ele>
        <time>2017-03-26T07:43:42.999Z</time>
      </trkpt>
      <trkpt lat="47.45269" lon="6.79071">
        <ele>381.7</ele>
        <time>2017-03-26T07:43:43.999Z</time>
      </trkpt>
      <trkpt lat="47.45267" lon="6.79078">
        <ele>382.4</ele>
        <time>2017-03-26T07:43:44.999Z</time>
      </trkpt>
      <trkpt lat="47.45266" lon="6.79083">
        <ele>382.4</ele>
        <time>2017-03-26T07:43:45.999Z</time>
      </trkpt>
      <trkpt lat="47.45264" lon="6.7909">
        <ele>382.3</ele>
        <time>2017-03-26T07:43:46.999Z</time>
      </trkpt>
      <trkpt lat="47.45262" lon="6.79095">
        <ele>382.5</ele>
        <time>2017-03-26T07:43:47.999Z</time>
      </trkpt>
      <trkpt lat="47.45261" lon="6.791">
        <ele>382.7</ele>
        <time>2017-03-26T07:43:48.999Z</time>
      </trkpt>
      <trkpt lat="47.45259" lon="6.79105">
        <ele>382.8</ele>
        <time>2017-03-26T07:43:49.999Z</time>
      </trkpt>
      <trkpt lat="47.45257" lon="6.79109">
        <ele>383</ele>
        <time>2017-03-26T07:43:50.999Z</time>
      </trkpt>
      <trkpt lat="47.45255" lon="6.79115">
        <ele>383</ele>
        <time>2017-03-26T07:43:51.999Z</time>
      </trkpt>
      <trkpt lat="47.45253" lon="6.79118">
        <ele>383</ele>
        <time>2017-03-26T07:43:52.999Z</time>
      </trkpt>
      <trkpt lat="47.4525" lon="6.79122">
        <ele>382.9</ele>
        <time>2017-03-26T07:43:53.999Z</time>
      </trkpt>
      <trkpt lat="47.45246" lon="6.79126">
        <ele>382.8</ele>
        <time>2017-03-26T07:43:54.999Z</time>
      </trkpt>
      <trkpt lat="47.45241" lon="6.79128">
        <ele>382.8</ele>
        <time>2017-03-26T07:43:55.999Z</time>
      </trkpt>
      <trkpt lat="47.45235" lon="6.7913">
        <ele>382.7</ele>
        <time>2017-03-26T07:43:56.999Z</time>
      </trkpt>
      <trkpt lat="47.45231" lon="6.79131">
        <ele>382.7</ele>
        <time>2017-03-26T07:43:57.999Z</time>
      </trkpt>
      <trkpt lat="47.45227" lon="6.79132">
        <ele>382.6</ele>
        <time>2017-03-26T07:43:58.999Z</time>
      </trkpt>
      <trkpt lat="47.45224" lon="6.79132">
        <ele>382.6</ele>
        <time>2017-03-26T07:43:59.999Z</time>
      </trkpt>
      <trkpt lat="47.45221" lon="6.79133">
        <ele>382.6</ele>
        <time>2017-03-26T07:44:00.999Z</time>
      </trkpt>
      <trkpt lat="47.45219" lon="6.79135">
        <ele>382.5</ele>
        <time>2017-03-26T07:44:01.999Z</time>
      </trkpt>
      <trkpt lat="47.45217" lon="6.79139">
        <ele>382.5</ele>
        <time>2017-03-26T07:44:02.999Z</time>
      </trkpt>
      <trkpt lat="47.45215" lon="6.79142">
        <ele>382.4</ele>
        <time>2017-03-26T07:44:03.999Z</time>
      </trkpt>
      <trkpt lat="47.45213" lon="6.79148">
        <ele>381.9</ele>
        <time>2017-03-26T07:44:04.999Z</time>
      </trkpt>
      <trkpt lat="47.45211" lon="6.79153">
        <ele>381.8</ele>
        <time>2017-03-26T07:44:05.999Z</time>
      </trkpt>
      <trkpt lat="47.45211" lon="6.79159">
        <ele>381.9</ele>
        <time>2017-03-26T07:44:06.999Z</time>
      </trkpt>
      <trkpt lat="47.4521" lon="6.79165">
        <ele>382.1</ele>
        <time>2017-03-26T07:44:07.999Z</time>
      </trkpt>
      <trkpt lat="47.45209" lon="6.7917">
        <ele>382.4</ele>
        <time>2017-03-26T07:44:08.999Z</time>
      </trkpt>
      <trkpt lat="47.45208" lon="6.79175">
        <ele>382.8</ele>
        <time>2017-03-26T07:44:09.999Z</time>
      </trkpt>
      <trkpt lat="47.45207" lon="6.79181">
        <ele>383.3</ele>
        <time>2017-03-26T07:44:10.999Z</time>
      </trkpt>
      <trkpt lat="47.45206" lon="6.79189">
        <ele>384.1</ele>
        <time>2017-03-26T07:44:11.999Z</time>
      </trkpt>
      <trkpt lat="47.45204" lon="6.79195">
        <ele>384.6</ele>
        <time>2017-03-26T07:44:12.999Z</time>
      </trkpt>
      <trkpt lat="47.45203" lon="6.79202">
        <ele>384.9</ele>
        <time>2017-03-26T07:44:13.999Z</time>
      </trkpt>
      <trkpt lat="47.45202" lon="6.79209">
        <ele>384.9</ele>
        <time>2017-03-26T07:44:14.999Z</time>
      </trkpt>
      <trkpt lat="47.452" lon="6.79216">
        <ele>384.5</ele>
        <time>2017-03-26T07:44:15.999Z</time>
      </trkpt>
      <trkpt lat="47.45198" lon="6.79224">
        <ele>384.5</ele>
        <time>2017-03-26T07:44:16.999Z</time>
      </trkpt>
      <trkpt lat="47.45197" lon="6.79231">
        <ele>384.7</ele>
        <time>2017-03-26T07:44:17.999Z</time>
      </trkpt>
      <trkpt lat="47.45195" lon="6.79238">
        <ele>384.8</ele>
        <time>2017-03-26T07:44:18.999Z</time>
      </trkpt>
      <trkpt lat="47.45194" lon="6.79245">
        <ele>385</ele>
        <time>2017-03-26T07:44:19.999Z</time>
      </trkpt>
      <trkpt lat="47.45193" lon="6.79251">
        <ele>384.4</ele>
        <time>2017-03-26T07:44:20.999Z</time>
      </trkpt>
      <trkpt lat="47.45191" lon="6.79258">
        <ele>383.6</ele>
        <time>2017-03-26T07:44:21.999Z</time>
      </trkpt>
      <trkpt lat="47.4519" lon="6.79264">
        <ele>383.2</ele>
        <time>2017-03-26T07:44:22.999Z</time>
      </trkpt>
      <trkpt lat="47.45189" lon="6.79271">
        <ele>382.9</ele>
        <time>2017-03-26T07:44:23.999Z</time>
      </trkpt>
      <trkpt lat="47.45188" lon="6.79279">
        <ele>382.2</ele>
        <time>2017-03-26T07:44:24.999Z</time>
      </trkpt>
      <trkpt lat="47.45186" lon="6.79287">
        <ele>382</ele>
        <time>2017-03-26T07:44:25.999Z</time>
      </trkpt>
      <trkpt lat="47.45185" lon="6.79295">
        <ele>382</ele>
        <time>2017-03-26T07:44:26.999Z</time>
      </trkpt>
      <trkpt lat="47.45183" lon="6.79302">
        <ele>381.7</ele>
        <time>2017-03-26T07:44:27.999Z</time>
      </trkpt>
      <trkpt lat="47.45182" lon="6.79309">
        <ele>381.4</ele>
        <time>2017-03-26T07:44:28.999Z</time>
      </trkpt>
      <trkpt lat="47.4518" lon="6.79317">
        <ele>380.9</ele>
        <time>2017-03-26T07:44:29.999Z</time>
      </trkpt>
      <trkpt lat="47.45178" lon="6.79324">
        <ele>380.8</ele>
        <time>2017-03-26T07:44:30.999Z</time>
      </trkpt>
      <trkpt lat="47.45176" lon="6.79332">
        <ele>380.8</ele>
        <time>2017-03-26T07:44:31.999Z</time>
      </trkpt>
      <trkpt lat="47.45174" lon="6.79339">
        <ele>380.3</ele>
        <time>2017-03-26T07:44:32.999Z</time>
      </trkpt>
      <trkpt lat="47.45172" lon="6.79348">
        <ele>380.3</ele>
        <time>2017-03-26T07:44:33.999Z</time>
      </trkpt>
      <trkpt lat="47.45172" lon="6.79353">
        <ele>380.3</ele>
        <time>2017-03-26T07:44:34.999Z</time>
      </trkpt>
      <trkpt lat="47.4517" lon="6.7936">
        <ele>380.2</ele>
        <time>2017-03-26T07:44:35.999Z</time>
      </trkpt>
      <trkpt lat="47.45168" lon="6.79369">
        <ele>380</ele>
        <time>2017-03-26T07:44:36.999Z</time>
      </trkpt>
      <trkpt lat="47.45167" lon="6.79375">
        <ele>380</ele>
        <time>2017-03-26T07:44:37.999Z</time>
      </trkpt>
      <trkpt lat="47.45165" lon="6.79381">
        <ele>379.5</ele>
        <time>2017-03-26T07:44:38.999Z</time>
      </trkpt>
      <trkpt lat="47.45163" lon="6.79388">
        <ele>378.7</ele>
        <time>2017-03-26T07:44:39.999Z</time>
      </trkpt>
      <trkpt lat="47.45161" lon="6.79395">
        <ele>378.3</ele>
        <time>2017-03-26T07:44:40.999Z</time>
      </trkpt>
      <trkpt lat="47.4516" lon="6.79401">
        <ele>377</ele>
        <time>2017-03-26T07:44:41.999Z</time>
      </trkpt>
      <trkpt lat="47.45158" lon="6.79409">
        <ele>377.4</ele>
        <time>2017-03-26T07:44:42.999Z</time>
      </trkpt>
      <trkpt lat="47.45154" lon="6.79415">
        <ele>378.2</ele>
        <time>2017-03-26T07:44:43.999Z</time>
      </trkpt>
      <trkpt lat="47.45152" lon="6.79422">
        <ele>378.3</ele>
        <time>2017-03-26T07:44:44.999Z</time>
      </trkpt>
      <trkpt lat="47.4515" lon="6.79428">
        <ele>379</ele>
        <time>2017-03-26T07:44:45.999Z</time>
      </trkpt>
      <trkpt lat="47.45147" lon="6.79436">
        <ele>379</ele>
        <time>2017-03-26T07:44:46.999Z</time>
      </trkpt>
      <trkpt lat="47.45144" lon="6.79442">
        <ele>379</ele>
        <time>2017-03-26T07:44:47.999Z</time>
      </trkpt>
      <trkpt lat="47.45142" lon="6.79447">
        <ele>379.1</ele>
        <time>2017-03-26T07:44:48.999Z</time>
      </trkpt>
      <trkpt lat="47.4514" lon="6.79453">
        <ele>379.1</ele>
        <time>2017-03-26T07:44:49.999Z</time>
      </trkpt>
      <trkpt lat="47.45138" lon="6.79461">
        <ele>379.2</ele>
        <time>2017-03-26T07:44:50.999Z</time>
      </trkpt>
      <trkpt lat="47.45137" lon="6.79466">
        <ele>379.3</ele>
        <time>2017-03-26T07:44:51.999Z</time>
      </trkpt>
      <trkpt lat="47.45136" lon="6.79472">
        <ele>379.3</ele>
        <time>2017-03-26T07:44:52.999Z</time>
      </trkpt>
      <trkpt lat="47.45135" lon="6.79479">
        <ele>379.4</ele>
        <time>2017-03-26T07:44:53.999Z</time>
      </trkpt>
      <trkpt lat="47.45134" lon="6.79485">
        <ele>379.5</ele>
        <time>2017-03-26T07:44:54.999Z</time>
      </trkpt>
      <trkpt lat="47.45133" lon="6.79492">
        <ele>380.3</ele>
        <time>2017-03-26T07:44:55.999Z</time>
      </trkpt>
      <trkpt lat="47.45132" lon="6.795">
        <ele>381</ele>
        <time>2017-03-26T07:44:56.999Z</time>
      </trkpt>
      <trkpt lat="47.45132" lon="6.79506">
        <ele>381.1</ele>
        <time>2017-03-26T07:44:57.999Z</time>
      </trkpt>
      <trkpt lat="47.45131" lon="6.79512">
        <ele>381.3</ele>
        <time>2017-03-26T07:44:58.999Z</time>
      </trkpt>
      <trkpt lat="47.4513" lon="6.7952">
        <ele>381.7</ele>
        <time>2017-03-26T07:44:59.999Z</time>
      </trkpt>
      <trkpt lat="47.45128" lon="6.79526">
        <ele>381.7</ele>
        <time>2017-03-26T07:45:00.999Z</time>
      </trkpt>
      <trkpt lat="47.45126" lon="6.79531">
        <ele>381.2</ele>
        <time>2017-03-26T07:45:01.999Z</time>
      </trkpt>
      <trkpt lat="47.45122" lon="6.79535">
        <ele>380.9</ele>
        <time>2017-03-26T07:45:02.999Z</time>
      </trkpt>
      <trkpt lat="47.45119" lon="6.7954">
        <ele>380.7</ele>
        <time>2017-03-26T07:45:03.999Z</time>
      </trkpt>
      <trkpt lat="47.45116" lon="6.79543">
        <ele>380.7</ele>
        <time>2017-03-26T07:45:04.999Z</time>
      </trkpt>
      <trkpt lat="47.45113" lon="6.79547">
        <ele>380.1</ele>
        <time>2017-03-26T07:45:05.999Z</time>
      </trkpt>
      <trkpt lat="47.45111" lon="6.79551">
        <ele>379.8</ele>
        <time>2017-03-26T07:45:06.999Z</time>
      </trkpt>
      <trkpt lat="47.45107" lon="6.79556">
        <ele>379.8</ele>
        <time>2017-03-26T07:45:07.999Z</time>
      </trkpt>
      <trkpt lat="47.45102" lon="6.79562">
        <ele>380.4</ele>
        <time>2017-03-26T07:45:08.999Z</time>
      </trkpt>
      <trkpt lat="47.45097" lon="6.7957">
        <ele>381</ele>
        <time>2017-03-26T07:45:09.999Z</time>
      </trkpt>
      <trkpt lat="47.45092" lon="6.79576">
        <ele>380.7</ele>
        <time>2017-03-26T07:45:10.999Z</time>
      </trkpt>
      <trkpt lat="47.45087" lon="6.79583">
        <ele>381</ele>
        <time>2017-03-26T07:45:11.999Z</time>
      </trkpt>
      <trkpt lat="47.45082" lon="6.7959">
        <ele>381.4</ele>
        <time>2017-03-26T07:45:12.999Z</time>
      </trkpt>
      <trkpt lat="47.45079" lon="6.79594">
        <ele>381.4</ele>
        <time>2017-03-26T07:45:13.999Z</time>
      </trkpt>
      <trkpt lat="47.45075" lon="6.79599">
        <ele>381.4</ele>
        <time>2017-03-26T07:45:14.999Z</time>
      </trkpt>
      <trkpt lat="47.45073" lon="6.79604">
        <ele>381.7</ele>
        <time>2017-03-26T07:45:15.999Z</time>
      </trkpt>
      <trkpt lat="47.45069" lon="6.79609">
        <ele>381.6</ele>
        <time>2017-03-26T07:45:16.999Z</time>
      </trkpt>
      <trkpt lat="47.45066" lon="6.79612">
        <ele>381.7</ele>
        <time>2017-03-26T07:45:17.999Z</time>
      </trkpt>
      <trkpt lat="47.45062" lon="6.79617">
        <ele>381.6</ele>
        <time>2017-03-26T07:45:18.999Z</time>
      </trkpt>
      <trkpt lat="47.4506" lon="6.7962">
        <ele>381.7</ele>
        <time>2017-03-26T07:45:19.999Z</time>
      </trkpt>
      <trkpt lat="47.45057" lon="6.79624">
        <ele>381.7</ele>
        <time>2017-03-26T07:45:20.999Z</time>
      </trkpt>
      <trkpt lat="47.45056" lon="6.79626">
        <ele>381.8</ele>
        <time>2017-03-26T07:45:21.999Z</time>
      </trkpt>
      <trkpt lat="47.45055" lon="6.7963">
        <ele>381.9</ele>
        <time>2017-03-26T07:45:22.999Z</time>
      </trkpt>
      <trkpt lat="47.45055" lon="6.79634">
        <ele>382</ele>
        <time>2017-03-26T07:45:23.999Z</time>
      </trkpt>
      <trkpt lat="47.45055" lon="6.79639">
        <ele>382</ele>
        <time>2017-03-26T07:45:24.999Z</time>
      </trkpt>
      <trkpt lat="47.45053" lon="6.79644">
        <ele>382.1</ele>
        <time>2017-03-26T07:45:25.999Z</time>
      </trkpt>
      <trkpt lat="47.45051" lon="6.79647">
        <ele>382.2</ele>
        <time>2017-03-26T07:45:26.999Z</time>
      </trkpt>
      <trkpt lat="47.45049" lon="6.79651">
        <ele>382.2</ele>
        <time>2017-03-26T07:45:27.999Z</time>
      </trkpt>
      <trkpt lat="47.45047" lon="6.79655">
        <ele>382.2</ele>
        <time>2017-03-26T07:45:28.999Z</time>
      </trkpt>
      <trkpt lat="47.45047" lon="6.79658">
        <ele>382.3</ele>
        <time>2017-03-26T07:45:29.999Z</time>
      </trkpt>
      <trkpt lat="47.45047" lon="6.79662">
        <ele>382.3</ele>
        <time>2017-03-26T07:45:30.999Z</time>
      </trkpt>
      <trkpt lat="47.45047" lon="6.79666">
        <ele>382.4</ele>
        <time>2017-03-26T07:45:31.999Z</time>
      </trkpt>
      <trkpt lat="47.45046" lon="6.79672">
        <ele>382.6</ele>
        <time>2017-03-26T07:45:32.999Z</time>
      </trkpt>
      <trkpt lat="47.45045" lon="6.7968">
        <ele>382.7</ele>
        <time>2017-03-26T07:45:33.999Z</time>
      </trkpt>
      <trkpt lat="47.45043" lon="6.79688">
        <ele>382.8</ele>
        <time>2017-03-26T07:45:34.999Z</time>
      </trkpt>
      <trkpt lat="47.45043" lon="6.79692">
        <ele>382.9</ele>
        <time>2017-03-26T07:45:35.999Z</time>
      </trkpt>
      <trkpt lat="47.45043" lon="6.79697">
        <ele>383</ele>
        <time>2017-03-26T07:45:36.999Z</time>
      </trkpt>
      <trkpt lat="47.45043" lon="6.79701">
        <ele>383.1</ele>
        <time>2017-03-26T07:45:37.999Z</time>
      </trkpt>
      <trkpt lat="47.45042" lon="6.79704">
        <ele>383.2</ele>
        <time>2017-03-26T07:45:38.999Z</time>
      </trkpt>
      <trkpt lat="47.45041" lon="6.79709">
        <ele>383.5</ele>
        <time>2017-03-26T07:45:41.999Z</time>
      </trkpt>
      <trkpt lat="47.4504" lon="6.79712">
        <ele>383.6</ele>
        <time>2017-03-26T07:45:42.999Z</time>
      </trkpt>
      <trkpt lat="47.45039" lon="6.79716">
        <ele>384.2</ele>
        <time>2017-03-26T07:45:45.999Z</time>
      </trkpt>
      <trkpt lat="47.45037" lon="6.79718">
        <ele>384.3</ele>
        <time>2017-03-26T07:45:46.999Z</time>
      </trkpt>
      <trkpt lat="47.45034" lon="6.7972">
        <ele>384.3</ele>
        <time>2017-03-26T07:45:48.999Z</time>
      </trkpt>
      <trkpt lat="47.45032" lon="6.79722">
        <ele>384.3</ele>
        <time>2017-03-26T07:45:49.999Z</time>
      </trkpt>
      <trkpt lat="47.45027" lon="6.79722">
        <ele>384.5</ele>
        <time>2017-03-26T07:45:57.999Z</time>
      </trkpt>
      <trkpt lat="47.45018" lon="6.79714">
        <ele>384.5</ele>
        <time>2017-03-26T07:45:58.999Z</time>
      </trkpt>
      <trkpt lat="47.45018" lon="6.79714">
        <ele>385</ele>
        <time>2017-03-26T07:46:03.999Z</time>
      </trkpt>
      <trkpt lat="47.45013" lon="6.79708">
        <ele>385.1</ele>
        <time>2017-03-26T07:46:04.999Z</time>
      </trkpt>
      <trkpt lat="47.45013" lon="6.79708">
        <ele>385.8</ele>
        <time>2017-03-26T07:46:09.999Z</time>
      </trkpt>
      <trkpt lat="47.45007" lon="6.79702">
        <ele>385.9</ele>
        <time>2017-03-26T07:46:10.999Z</time>
      </trkpt>
      <trkpt lat="47.45007" lon="6.79702">
        <ele>387.2</ele>
        <time>2017-03-26T07:46:18.999Z</time>
      </trkpt>
      <trkpt lat="47.44999" lon="6.79697">
        <ele>387.4</ele>
        <time>2017-03-26T07:46:19.999Z</time>
      </trkpt>
      <trkpt lat="47.44995" lon="6.79694">
        <ele>387.6</ele>
        <time>2017-03-26T07:46:22.999Z</time>
      </trkpt>
      <trkpt lat="47.44994" lon="6.79693">
        <ele>387.6</ele>
        <time>2017-03-26T07:46:23.999Z</time>
      </trkpt>
      <trkpt lat="47.4499" lon="6.7969">
        <ele>387.8</ele>
        <time>2017-03-26T07:46:27.999Z</time>
      </trkpt>
      <trkpt lat="47.4499" lon="6.7969">
        <ele>387.9</ele>
        <time>2017-03-26T07:46:28.999Z</time>
      </trkpt>
      <trkpt lat="47.44987" lon="6.79688">
        <ele>388.5</ele>
        <time>2017-03-26T07:46:31.999Z</time>
      </trkpt>
      <trkpt lat="47.44985" lon="6.79687">
        <ele>388.8</ele>
        <time>2017-03-26T07:46:32.999Z</time>
      </trkpt>
      <trkpt lat="47.44981" lon="6.79688">
        <ele>390</ele>
        <time>2017-03-26T07:46:37.999Z</time>
      </trkpt>
      <trkpt lat="47.4498" lon="6.79689">
        <ele>390.1</ele>
        <time>2017-03-26T07:46:38.999Z</time>
      </trkpt>
      <trkpt lat="47.44977" lon="6.7969">
        <ele>390.5</ele>
        <time>2017-03-26T07:46:41.999Z</time>
      </trkpt>
      <trkpt lat="47.44976" lon="6.7969">
        <ele>390.7</ele>
        <time>2017-03-26T07:46:42.999Z</time>
      </trkpt>
      <trkpt lat="47.44972" lon="6.79691">
        <ele>391.1</ele>
        <time>2017-03-26T07:46:45.999Z</time>
      </trkpt>
      <trkpt lat="47.44971" lon="6.79692">
        <ele>391.2</ele>
        <time>2017-03-26T07:46:46.999Z</time>
      </trkpt>
      <trkpt lat="47.44968" lon="6.79694">
        <ele>391.4</ele>
        <time>2017-03-26T07:46:48.999Z</time>
      </trkpt>
      <trkpt lat="47.44968" lon="6.79696">
        <ele>391.5</ele>
        <time>2017-03-26T07:46:49.999Z</time>
      </trkpt>
      <trkpt lat="47.44965" lon="6.79699">
        <ele>391.9</ele>
        <time>2017-03-26T07:46:53.999Z</time>
      </trkpt>
      <trkpt lat="47.44963" lon="6.797">
        <ele>392</ele>
        <time>2017-03-26T07:46:54.999Z</time>
      </trkpt>
      <trkpt lat="47.44962" lon="6.79706">
        <ele>392.8</ele>
        <time>2017-03-26T07:46:58.999Z</time>
      </trkpt>
      <trkpt lat="47.44962" lon="6.79707">
        <ele>393</ele>
        <time>2017-03-26T07:46:59.999Z</time>
      </trkpt>
      <trkpt lat="47.44962" lon="6.79707">
        <ele>394.5</ele>
        <time>2017-03-26T07:47:08.999Z</time>
      </trkpt>
      <trkpt lat="47.44956" lon="6.79717">
        <ele>394.7</ele>
        <time>2017-03-26T07:47:09.999Z</time>
      </trkpt>
      <trkpt lat="47.44954" lon="6.79719">
        <ele>395.1</ele>
        <time>2017-03-26T07:47:11.999Z</time>
      </trkpt>
      <trkpt lat="47.44953" lon="6.79721">
        <ele>395.2</ele>
        <time>2017-03-26T07:47:12.999Z</time>
      </trkpt>
      <trkpt lat="47.4495" lon="6.79721">
        <ele>395.4</ele>
        <time>2017-03-26T07:47:14.999Z</time>
      </trkpt>
      <trkpt lat="47.44947" lon="6.7972">
        <ele>395.5</ele>
        <time>2017-03-26T07:47:15.999Z</time>
      </trkpt>
      <trkpt lat="47.44943" lon="6.79722">
        <ele>395.7</ele>
        <time>2017-03-26T07:47:17.999Z</time>
      </trkpt>
      <trkpt lat="47.44941" lon="6.79723">
        <ele>395.9</ele>
        <time>2017-03-26T07:47:18.999Z</time>
      </trkpt>
      <trkpt lat="47.44937" lon="6.79725">
        <ele>396.3</ele>
        <time>2017-03-26T07:47:20.999Z</time>
      </trkpt>
      <trkpt lat="47.44936" lon="6.79725">
        <ele>396.4</ele>
        <time>2017-03-26T07:47:21.999Z</time>
      </trkpt>
      <trkpt lat="47.44932" lon="6.79727">
        <ele>396.6</ele>
        <time>2017-03-26T07:47:23.999Z</time>
      </trkpt>
      <trkpt lat="47.44931" lon="6.79728">
        <ele>396.7</ele>
        <time>2017-03-26T07:47:24.999Z</time>
      </trkpt>
      <trkpt lat="47.44928" lon="6.7973">
        <ele>396.9</ele>
        <time>2017-03-26T07:47:26.999Z</time>
      </trkpt>
      <trkpt lat="47.44927" lon="6.79731">
        <ele>397</ele>
        <time>2017-03-26T07:47:27.999Z</time>
      </trkpt>
      <trkpt lat="47.44923" lon="6.79734">
        <ele>397.4</ele>
        <time>2017-03-26T07:47:29.999Z</time>
      </trkpt>
      <trkpt lat="47.44921" lon="6.79735">
        <ele>397.6</ele>
        <time>2017-03-26T07:47:30.999Z</time>
      </trkpt>
      <trkpt lat="47.44918" lon="6.79737">
        <ele>398.1</ele>
        <time>2017-03-26T07:47:33.999Z</time>
      </trkpt>
      <trkpt lat="47.44917" lon="6.79737">
        <ele>398.2</ele>
        <time>2017-03-26T07:47:34.999Z</time>
      </trkpt>
      <trkpt lat="47.44913" lon="6.79739">
        <ele>398.4</ele>
        <time>2017-03-26T07:47:36.999Z</time>
      </trkpt>
      <trkpt lat="47.44911" lon="6.79739">
        <ele>398.4</ele>
        <time>2017-03-26T07:47:37.999Z</time>
      </trkpt>
      <trkpt lat="47.44909" lon="6.7974">
        <ele>398.4</ele>
        <time>2017-03-26T07:47:38.999Z</time>
      </trkpt>
      <trkpt lat="47.44906" lon="6.79741">
        <ele>398.6</ele>
        <time>2017-03-26T07:47:39.999Z</time>
      </trkpt>
      <trkpt lat="47.44904" lon="6.79741">
        <ele>398.6</ele>
        <time>2017-03-26T07:47:40.999Z</time>
      </trkpt>
      <trkpt lat="47.449" lon="6.79742">
        <ele>398.8</ele>
        <time>2017-03-26T07:47:41.999Z</time>
      </trkpt>
      <trkpt lat="47.44896" lon="6.79741">
        <ele>399</ele>
        <time>2017-03-26T07:47:43.999Z</time>
      </trkpt>
      <trkpt lat="47.44895" lon="6.7974">
        <ele>399</ele>
        <time>2017-03-26T07:47:44.999Z</time>
      </trkpt>
      <trkpt lat="47.4489" lon="6.79739">
        <ele>399.2</ele>
        <time>2017-03-26T07:47:46.999Z</time>
      </trkpt>
      <trkpt lat="47.44888" lon="6.79737">
        <ele>399.3</ele>
        <time>2017-03-26T07:47:47.999Z</time>
      </trkpt>
      <trkpt lat="47.44885" lon="6.79734">
        <ele>399.4</ele>
        <time>2017-03-26T07:47:49.999Z</time>
      </trkpt>
      <trkpt lat="47.44883" lon="6.79732">
        <ele>399.5</ele>
        <time>2017-03-26T07:47:50.999Z</time>
      </trkpt>
      <trkpt lat="47.44881" lon="6.7973">
        <ele>399.6</ele>
        <time>2017-03-26T07:47:51.999Z</time>
      </trkpt>
      <trkpt lat="47.44878" lon="6.79728">
        <ele>399.7</ele>
        <time>2017-03-26T07:47:52.999Z</time>
      </trkpt>
      <trkpt lat="47.44876" lon="6.79726">
        <ele>399.8</ele>
        <time>2017-03-26T07:47:53.999Z</time>
      </trkpt>
      <trkpt lat="47.44873" lon="6.79725">
        <ele>399.9</ele>
        <time>2017-03-26T07:47:54.999Z</time>
      </trkpt>
      <trkpt lat="47.4487" lon="6.79724">
        <ele>399.9</ele>
        <time>2017-03-26T07:47:55.999Z</time>
      </trkpt>
      <trkpt lat="47.44868" lon="6.79722">
        <ele>399.9</ele>
        <time>2017-03-26T07:47:56.999Z</time>
      </trkpt>
      <trkpt lat="47.44865" lon="6.7972">
        <ele>400</ele>
        <time>2017-03-26T07:47:57.999Z</time>
      </trkpt>
      <trkpt lat="47.44862" lon="6.7972">
        <ele>400.1</ele>
        <time>2017-03-26T07:47:58.999Z</time>
      </trkpt>
      <trkpt lat="47.4486" lon="6.7972">
        <ele>400.1</ele>
        <time>2017-03-26T07:47:59.999Z</time>
      </trkpt>
      <trkpt lat="47.44856" lon="6.7972">
        <ele>400.1</ele>
        <time>2017-03-26T07:48:00.999Z</time>
      </trkpt>
      <trkpt lat="47.44853" lon="6.7972">
        <ele>400.1</ele>
        <time>2017-03-26T07:48:01.999Z</time>
      </trkpt>
      <trkpt lat="47.4485" lon="6.7972">
        <ele>400.1</ele>
        <time>2017-03-26T07:48:02.999Z</time>
      </trkpt>
      <trkpt lat="47.44846" lon="6.7972">
        <ele>400</ele>
        <time>2017-03-26T07:48:03.999Z</time>
      </trkpt>
      <trkpt lat="47.44843" lon="6.7972">
        <ele>400</ele>
        <time>2017-03-26T07:48:04.999Z</time>
      </trkpt>
      <trkpt lat="47.4484" lon="6.7972">
        <ele>399.9</ele>
        <time>2017-03-26T07:48:05.999Z</time>
      </trkpt>
      <trkpt lat="47.44837" lon="6.79721">
        <ele>399.9</ele>
        <time>2017-03-26T07:48:06.999Z</time>
      </trkpt>
      <trkpt lat="47.44833" lon="6.79723">
        <ele>399.9</ele>
        <time>2017-03-26T07:48:07.999Z</time>
      </trkpt>
      <trkpt lat="47.44829" lon="6.79724">
        <ele>399.9</ele>
        <time>2017-03-26T07:48:08.999Z</time>
      </trkpt>
      <trkpt lat="47.44826" lon="6.79726">
        <ele>399.9</ele>
        <time>2017-03-26T07:48:09.999Z</time>
      </trkpt>
      <trkpt lat="47.44822" lon="6.79728">
        <ele>399.9</ele>
        <time>2017-03-26T07:48:10.999Z</time>
      </trkpt>
      <trkpt lat="47.4482" lon="6.79733">
        <ele>399.9</ele>
        <time>2017-03-26T07:48:11.999Z</time>
      </trkpt>
      <trkpt lat="47.44819" lon="6.79737">
        <ele>400</ele>
        <time>2017-03-26T07:48:12.999Z</time>
      </trkpt>
      <trkpt lat="47.44819" lon="6.79742">
        <ele>400</ele>
        <time>2017-03-26T07:48:13.999Z</time>
      </trkpt>
      <trkpt lat="47.44818" lon="6.79748">
        <ele>400</ele>
        <time>2017-03-26T07:48:14.999Z</time>
      </trkpt>
      <trkpt lat="47.44818" lon="6.79756">
        <ele>400.1</ele>
        <time>2017-03-26T07:48:15.999Z</time>
      </trkpt>
      <trkpt lat="47.44817" lon="6.79762">
        <ele>400.1</ele>
        <time>2017-03-26T07:48:16.999Z</time>
      </trkpt>
      <trkpt lat="47.44817" lon="6.79766">
        <ele>400.1</ele>
        <time>2017-03-26T07:48:17.999Z</time>
      </trkpt>
      <trkpt lat="47.44816" lon="6.79772">
        <ele>400.2</ele>
        <time>2017-03-26T07:48:18.999Z</time>
      </trkpt>
      <trkpt lat="47.44816" lon="6.79777">
        <ele>400.2</ele>
        <time>2017-03-26T07:48:19.999Z</time>
      </trkpt>
      <trkpt lat="47.44815" lon="6.79784">
        <ele>400.6</ele>
        <time>2017-03-26T07:48:20.999Z</time>
      </trkpt>
      <trkpt lat="47.44815" lon="6.79791">
        <ele>401</ele>
        <time>2017-03-26T07:48:21.999Z</time>
      </trkpt>
      <trkpt lat="47.44814" lon="6.79797">
        <ele>400.7</ele>
        <time>2017-03-26T07:48:22.999Z</time>
      </trkpt>
      <trkpt lat="47.44814" lon="6.79803">
        <ele>400.6</ele>
        <time>2017-03-26T07:48:23.999Z</time>
      </trkpt>
      <trkpt lat="47.44813" lon="6.7981">
        <ele>399.5</ele>
        <time>2017-03-26T07:48:24.999Z</time>
      </trkpt>
      <trkpt lat="47.44812" lon="6.79817">
        <ele>398.3</ele>
        <time>2017-03-26T07:48:25.999Z</time>
      </trkpt>
      <trkpt lat="47.44811" lon="6.79822">
        <ele>397.7</ele>
        <time>2017-03-26T07:48:26.999Z</time>
      </trkpt>
      <trkpt lat="47.4481" lon="6.79828">
        <ele>396.8</ele>
        <time>2017-03-26T07:48:27.999Z</time>
      </trkpt>
      <trkpt lat="47.44809" lon="6.79835">
        <ele>396.1</ele>
        <time>2017-03-26T07:48:28.999Z</time>
      </trkpt>
      <trkpt lat="47.44808" lon="6.7984">
        <ele>395.7</ele>
        <time>2017-03-26T07:48:29.999Z</time>
      </trkpt>
      <trkpt lat="47.44808" lon="6.79847">
        <ele>395.5</ele>
        <time>2017-03-26T07:48:30.999Z</time>
      </trkpt>
      <trkpt lat="47.44807" lon="6.79855">
        <ele>395.6</ele>
        <time>2017-03-26T07:48:31.999Z</time>
      </trkpt>
      <trkpt lat="47.44806" lon="6.79861">
        <ele>396.4</ele>
        <time>2017-03-26T07:48:32.999Z</time>
      </trkpt>
      <trkpt lat="47.44805" lon="6.79867">
        <ele>397.1</ele>
        <time>2017-03-26T07:48:33.999Z</time>
      </trkpt>
      <trkpt lat="47.44804" lon="6.79873">
        <ele>398</ele>
        <time>2017-03-26T07:48:34.999Z</time>
      </trkpt>
      <trkpt lat="47.44803" lon="6.79879">
        <ele>398.3</ele>
        <time>2017-03-26T07:48:35.999Z</time>
      </trkpt>
      <trkpt lat="47.44802" lon="6.79884">
        <ele>398.4</ele>
        <time>2017-03-26T07:48:36.999Z</time>
      </trkpt>
      <trkpt lat="47.44802" lon="6.79889">
        <ele>398.4</ele>
        <time>2017-03-26T07:48:37.999Z</time>
      </trkpt>
      <trkpt lat="47.44801" lon="6.79895">
        <ele>398.4</ele>
        <time>2017-03-26T07:48:38.999Z</time>
      </trkpt>
      <trkpt lat="47.44801" lon="6.79901">
        <ele>398.4</ele>
        <time>2017-03-26T07:48:39.999Z</time>
      </trkpt>
      <trkpt lat="47.448" lon="6.79905">
        <ele>398.4</ele>
        <time>2017-03-26T07:48:40.999Z</time>
      </trkpt>
      <trkpt lat="47.44799" lon="6.79911">
        <ele>398.5</ele>
        <time>2017-03-26T07:48:41.999Z</time>
      </trkpt>
      <trkpt lat="47.44798" lon="6.79916">
        <ele>398.5</ele>
        <time>2017-03-26T07:48:42.999Z</time>
      </trkpt>
      <trkpt lat="47.44798" lon="6.79921">
        <ele>398.5</ele>
        <time>2017-03-26T07:48:43.999Z</time>
      </trkpt>
      <trkpt lat="47.44797" lon="6.79925">
        <ele>398.5</ele>
        <time>2017-03-26T07:48:44.999Z</time>
      </trkpt>
      <trkpt lat="47.44796" lon="6.7993">
        <ele>398.5</ele>
        <time>2017-03-26T07:48:45.999Z</time>
      </trkpt>
      <trkpt lat="47.44796" lon="6.79934">
        <ele>398.6</ele>
        <time>2017-03-26T07:48:46.999Z</time>
      </trkpt>
      <trkpt lat="47.44795" lon="6.79939">
        <ele>398.5</ele>
        <time>2017-03-26T07:48:47.999Z</time>
      </trkpt>
      <trkpt lat="47.44794" lon="6.79943">
        <ele>398.5</ele>
        <time>2017-03-26T07:48:48.999Z</time>
      </trkpt>
      <trkpt lat="47.44794" lon="6.79949">
        <ele>398.4</ele>
        <time>2017-03-26T07:48:49.999Z</time>
      </trkpt>
      <trkpt lat="47.44793" lon="6.79954">
        <ele>398.4</ele>
        <time>2017-03-26T07:48:50.999Z</time>
      </trkpt>
      <trkpt lat="47.44792" lon="6.79958">
        <ele>398.4</ele>
        <time>2017-03-26T07:48:51.999Z</time>
      </trkpt>
      <trkpt lat="47.44791" lon="6.79962">
        <ele>398.4</ele>
        <time>2017-03-26T07:48:52.999Z</time>
      </trkpt>
      <trkpt lat="47.4479" lon="6.79965">
        <ele>398.4</ele>
        <time>2017-03-26T07:48:53.999Z</time>
      </trkpt>
      <trkpt lat="47.4479" lon="6.7997">
        <ele>398.5</ele>
        <time>2017-03-26T07:48:54.999Z</time>
      </trkpt>
      <trkpt lat="47.44789" lon="6.79974">
        <ele>398.4</ele>
        <time>2017-03-26T07:48:55.999Z</time>
      </trkpt>
      <trkpt lat="47.44788" lon="6.79978">
        <ele>398.4</ele>
        <time>2017-03-26T07:48:56.999Z</time>
      </trkpt>
      <trkpt lat="47.44787" lon="6.79981">
        <ele>398.4</ele>
        <time>2017-03-26T07:48:57.999Z</time>
      </trkpt>
      <trkpt lat="47.44787" lon="6.79986">
        <ele>398.5</ele>
        <time>2017-03-26T07:48:59.999Z</time>
      </trkpt>
      <trkpt lat="47.44784" lon="6.79986">
        <ele>398.5</ele>
        <time>2017-03-26T07:49:00.999Z</time>
      </trkpt>
      <trkpt lat="47.44782" lon="6.79985">
        <ele>398.6</ele>
        <time>2017-03-26T07:49:01.999Z</time>
      </trkpt>
      <trkpt lat="47.44778" lon="6.79983">
        <ele>398.6</ele>
        <time>2017-03-26T07:49:02.999Z</time>
      </trkpt>
      <trkpt lat="47.44776" lon="6.79982">
        <ele>398.7</ele>
        <time>2017-03-26T07:49:03.999Z</time>
      </trkpt>
      <trkpt lat="47.44772" lon="6.79981">
        <ele>398.8</ele>
        <time>2017-03-26T07:49:04.999Z</time>
      </trkpt>
      <trkpt lat="47.44769" lon="6.7998">
        <ele>398.9</ele>
        <time>2017-03-26T07:49:05.999Z</time>
      </trkpt>
      <trkpt lat="47.44766" lon="6.79978">
        <ele>399.1</ele>
        <time>2017-03-26T07:49:06.999Z</time>
      </trkpt>
      <trkpt lat="47.44764" lon="6.79978">
        <ele>399.2</ele>
        <time>2017-03-26T07:49:07.999Z</time>
      </trkpt>
      <trkpt lat="47.44761" lon="6.79978">
        <ele>399.3</ele>
        <time>2017-03-26T07:49:08.999Z</time>
      </trkpt>
      <trkpt lat="47.44758" lon="6.79977">
        <ele>399.4</ele>
        <time>2017-03-26T07:49:09.999Z</time>
      </trkpt>
      <trkpt lat="47.44755" lon="6.79977">
        <ele>399.4</ele>
        <time>2017-03-26T07:49:10.999Z</time>
      </trkpt>
      <trkpt lat="47.44751" lon="6.79976">
        <ele>399.5</ele>
        <time>2017-03-26T07:49:11.999Z</time>
      </trkpt>
      <trkpt lat="47.44749" lon="6.79975">
        <ele>399.6</ele>
        <time>2017-03-26T07:49:12.999Z</time>
      </trkpt>
      <trkpt lat="47.44746" lon="6.79974">
        <ele>399.7</ele>
        <time>2017-03-26T07:49:13.999Z</time>
      </trkpt>
      <trkpt lat="47.44744" lon="6.79974">
        <ele>399.7</ele>
        <time>2017-03-26T07:49:14.999Z</time>
      </trkpt>
      <trkpt lat="47.4474" lon="6.79973">
        <ele>399.7</ele>
        <time>2017-03-26T07:49:15.999Z</time>
      </trkpt>
      <trkpt lat="47.44737" lon="6.79972">
        <ele>399.7</ele>
        <time>2017-03-26T07:49:16.999Z</time>
      </trkpt>
      <trkpt lat="47.44734" lon="6.79972">
        <ele>399.8</ele>
        <time>2017-03-26T07:49:17.999Z</time>
      </trkpt>
      <trkpt lat="47.44731" lon="6.79972">
        <ele>399.9</ele>
        <time>2017-03-26T07:49:18.999Z</time>
      </trkpt>
      <trkpt lat="47.44726" lon="6.79971">
        <ele>400</ele>
        <time>2017-03-26T07:49:20.999Z</time>
      </trkpt>
      <trkpt lat="47.44723" lon="6.79971">
        <ele>400.1</ele>
        <time>2017-03-26T07:49:21.999Z</time>
      </trkpt>
      <trkpt lat="47.4472" lon="6.79971">
        <ele>400.1</ele>
        <time>2017-03-26T07:49:22.999Z</time>
      </trkpt>
      <trkpt lat="47.44717" lon="6.7997">
        <ele>400.2</ele>
        <time>2017-03-26T07:49:23.999Z</time>
      </trkpt>
      <trkpt lat="47.44713" lon="6.79969">
        <ele>400.3</ele>
        <time>2017-03-26T07:49:24.999Z</time>
      </trkpt>
      <trkpt lat="47.4471" lon="6.79969">
        <ele>400.4</ele>
        <time>2017-03-26T07:49:25.999Z</time>
      </trkpt>
      <trkpt lat="47.44707" lon="6.79968">
        <ele>400.6</ele>
        <time>2017-03-26T07:49:26.999Z</time>
      </trkpt>
      <trkpt lat="47.44704" lon="6.79968">
        <ele>400.7</ele>
        <time>2017-03-26T07:49:27.999Z</time>
      </trkpt>
      <trkpt lat="47.44702" lon="6.79967">
        <ele>400.9</ele>
        <time>2017-03-26T07:49:28.999Z</time>
      </trkpt>
      <trkpt lat="47.44698" lon="6.79967">
        <ele>401.1</ele>
        <time>2017-03-26T07:49:29.999Z</time>
      </trkpt>
      <trkpt lat="47.44694" lon="6.79966">
        <ele>401.3</ele>
        <time>2017-03-26T07:49:30.999Z</time>
      </trkpt>
      <trkpt lat="47.44692" lon="6.79965">
        <ele>401.4</ele>
        <time>2017-03-26T07:49:31.999Z</time>
      </trkpt>
      <trkpt lat="47.44689" lon="6.79965">
        <ele>401.6</ele>
        <time>2017-03-26T07:49:32.999Z</time>
      </trkpt>
      <trkpt lat="47.44686" lon="6.79964">
        <ele>401.7</ele>
        <time>2017-03-26T07:49:33.999Z</time>
      </trkpt>
      <trkpt lat="47.44683" lon="6.79964">
        <ele>401.9</ele>
        <time>2017-03-26T07:49:34.999Z</time>
      </trkpt>
      <trkpt lat="47.4468" lon="6.79964">
        <ele>402</ele>
        <time>2017-03-26T07:49:35.999Z</time>
      </trkpt>
      <trkpt lat="47.44678" lon="6.79963">
        <ele>402.1</ele>
        <time>2017-03-26T07:49:36.999Z</time>
      </trkpt>
      <trkpt lat="47.44675" lon="6.79961">
        <ele>402.1</ele>
        <time>2017-03-26T07:49:37.999Z</time>
      </trkpt>
      <trkpt lat="47.44672" lon="6.7996">
        <ele>402.2</ele>
        <time>2017-03-26T07:49:38.999Z</time>
      </trkpt>
      <trkpt lat="47.44668" lon="6.79959">
        <ele>402.3</ele>
        <time>2017-03-26T07:49:39.999Z</time>
      </trkpt>
      <trkpt lat="47.44666" lon="6.79957">
        <ele>402.4</ele>
        <time>2017-03-26T07:49:40.999Z</time>
      </trkpt>
      <trkpt lat="47.44663" lon="6.79957">
        <ele>402.5</ele>
        <time>2017-03-26T07:49:41.999Z</time>
      </trkpt>
      <trkpt lat="47.44659" lon="6.79956">
        <ele>402.6</ele>
        <time>2017-03-26T07:49:43.999Z</time>
      </trkpt>
      <trkpt lat="47.44655" lon="6.79956">
        <ele>402.6</ele>
        <time>2017-03-26T07:49:44.999Z</time>
      </trkpt>
      <trkpt lat="47.44652" lon="6.79955">
        <ele>402.7</ele>
        <time>2017-03-26T07:49:45.999Z</time>
      </trkpt>
      <trkpt lat="47.44648" lon="6.79954">
        <ele>402.7</ele>
        <time>2017-03-26T07:49:46.999Z</time>
      </trkpt>
      <trkpt lat="47.44644" lon="6.79953">
        <ele>402.8</ele>
        <time>2017-03-26T07:49:47.999Z</time>
      </trkpt>
      <trkpt lat="47.44642" lon="6.79953">
        <ele>402.9</ele>
        <time>2017-03-26T07:49:48.999Z</time>
      </trkpt>
      <trkpt lat="47.44639" lon="6.79952">
        <ele>403</ele>
        <time>2017-03-26T07:49:49.999Z</time>
      </trkpt>
      <trkpt lat="47.44636" lon="6.79952">
        <ele>403</ele>
        <time>2017-03-26T07:49:50.999Z</time>
      </trkpt>
      <trkpt lat="47.44632" lon="6.79952">
        <ele>403.1</ele>
        <time>2017-03-26T07:49:51.999Z</time>
      </trkpt>
      <trkpt lat="47.44629" lon="6.79952">
        <ele>403.1</ele>
        <time>2017-03-26T07:49:52.999Z</time>
      </trkpt>
      <trkpt lat="47.44625" lon="6.79951">
        <ele>403</ele>
        <time>2017-03-26T07:49:53.999Z</time>
      </trkpt>
      <trkpt lat="47.44622" lon="6.7995">
        <ele>403.1</ele>
        <time>2017-03-26T07:49:54.999Z</time>
      </trkpt>
      <trkpt lat="47.44619" lon="6.79949">
        <ele>403.1</ele>
        <time>2017-03-26T07:49:55.999Z</time>
      </trkpt>
      <trkpt lat="47.44616" lon="6.79947">
        <ele>403.1</ele>
        <time>2017-03-26T07:49:56.999Z</time>
      </trkpt>
      <trkpt lat="47.44613" lon="6.79946">
        <ele>403.2</ele>
        <time>2017-03-26T07:49:57.999Z</time>
      </trkpt>
      <trkpt lat="47.4461" lon="6.79945">
        <ele>403.2</ele>
        <time>2017-03-26T07:49:58.999Z</time>
      </trkpt>
      <trkpt lat="47.44606" lon="6.79943">
        <ele>403.3</ele>
        <time>2017-03-26T07:49:59.999Z</time>
      </trkpt>
      <trkpt lat="47.44602" lon="6.79942">
        <ele>403.4</ele>
        <time>2017-03-26T07:50:00.999Z</time>
      </trkpt>
      <trkpt lat="47.44599" lon="6.7994">
        <ele>403.5</ele>
        <time>2017-03-26T07:50:01.999Z</time>
      </trkpt>
      <trkpt lat="47.44596" lon="6.79939">
        <ele>403.5</ele>
        <time>2017-03-26T07:50:02.999Z</time>
      </trkpt>
      <trkpt lat="47.44593" lon="6.79938">
        <ele>403.6</ele>
        <time>2017-03-26T07:50:03.999Z</time>
      </trkpt>
      <trkpt lat="47.4459" lon="6.79937">
        <ele>403.6</ele>
        <time>2017-03-26T07:50:04.999Z</time>
      </trkpt>
      <trkpt lat="47.44586" lon="6.79937">
        <ele>403.7</ele>
        <time>2017-03-26T07:50:05.999Z</time>
      </trkpt>
      <trkpt lat="47.44582" lon="6.79936">
        <ele>403.8</ele>
        <time>2017-03-26T07:50:06.999Z</time>
      </trkpt>
      <trkpt lat="47.44579" lon="6.79935">
        <ele>403.9</ele>
        <time>2017-03-26T07:50:07.999Z</time>
      </trkpt>
      <trkpt lat="47.44575" lon="6.79934">
        <ele>404</ele>
        <time>2017-03-26T07:50:08.999Z</time>
      </trkpt>
      <trkpt lat="47.44571" lon="6.79932">
        <ele>404.2</ele>
        <time>2017-03-26T07:50:09.999Z</time>
      </trkpt>
      <trkpt lat="47.44568" lon="6.7993">
        <ele>404.3</ele>
        <time>2017-03-26T07:50:10.999Z</time>
      </trkpt>
      <trkpt lat="47.44564" lon="6.79929">
        <ele>404.5</ele>
        <time>2017-03-26T07:50:11.999Z</time>
      </trkpt>
      <trkpt lat="47.44561" lon="6.79928">
        <ele>404.7</ele>
        <time>2017-03-26T07:50:12.999Z</time>
      </trkpt>
      <trkpt lat="47.44559" lon="6.79927">
        <ele>404.8</ele>
        <time>2017-03-26T07:50:13.999Z</time>
      </trkpt>
      <trkpt lat="47.44555" lon="6.79927">
        <ele>405</ele>
        <time>2017-03-26T07:50:14.999Z</time>
      </trkpt>
      <trkpt lat="47.44552" lon="6.79926">
        <ele>405.1</ele>
        <time>2017-03-26T07:50:15.999Z</time>
      </trkpt>
      <trkpt lat="47.44548" lon="6.79925">
        <ele>405.2</ele>
        <time>2017-03-26T07:50:16.999Z</time>
      </trkpt>
      <trkpt lat="47.44546" lon="6.79925">
        <ele>405.3</ele>
        <time>2017-03-26T07:50:17.999Z</time>
      </trkpt>
      <trkpt lat="47.44543" lon="6.79924">
        <ele>405.4</ele>
        <time>2017-03-26T07:50:18.999Z</time>
      </trkpt>
      <trkpt lat="47.4454" lon="6.79923">
        <ele>405.5</ele>
        <time>2017-03-26T07:50:19.999Z</time>
      </trkpt>
      <trkpt lat="47.44538" lon="6.79922">
        <ele>405.6</ele>
        <time>2017-03-26T07:50:20.999Z</time>
      </trkpt>
      <trkpt lat="47.44535" lon="6.79921">
        <ele>405.6</ele>
        <time>2017-03-26T07:50:21.999Z</time>
      </trkpt>
      <trkpt lat="47.44531" lon="6.79919">
        <ele>405.7</ele>
        <time>2017-03-26T07:50:22.999Z</time>
      </trkpt>
      <trkpt lat="47.44528" lon="6.79917">
        <ele>405.9</ele>
        <time>2017-03-26T07:50:23.999Z</time>
      </trkpt>
      <trkpt lat="47.44525" lon="6.79916">
        <ele>406</ele>
        <time>2017-03-26T07:50:24.999Z</time>
      </trkpt>
      <trkpt lat="47.44522" lon="6.79915">
        <ele>406.2</ele>
        <time>2017-03-26T07:50:25.999Z</time>
      </trkpt>
      <trkpt lat="47.4452" lon="6.79914">
        <ele>406.3</ele>
        <time>2017-03-26T07:50:26.999Z</time>
      </trkpt>
      <trkpt lat="47.44517" lon="6.79913">
        <ele>406.4</ele>
        <time>2017-03-26T07:50:27.999Z</time>
      </trkpt>
      <trkpt lat="47.44514" lon="6.79913">
        <ele>406.6</ele>
        <time>2017-03-26T07:50:28.999Z</time>
      </trkpt>
      <trkpt lat="47.44511" lon="6.79913">
        <ele>406.8</ele>
        <time>2017-03-26T07:50:30.999Z</time>
      </trkpt>
      <trkpt lat="47.44508" lon="6.79912">
        <ele>406.9</ele>
        <time>2017-03-26T07:50:31.999Z</time>
      </trkpt>
      <trkpt lat="47.44505" lon="6.79911">
        <ele>407</ele>
        <time>2017-03-26T07:50:32.999Z</time>
      </trkpt>
      <trkpt lat="47.44503" lon="6.79911">
        <ele>407.1</ele>
        <time>2017-03-26T07:50:33.999Z</time>
      </trkpt>
      <trkpt lat="47.44501" lon="6.79911">
        <ele>407.2</ele>
        <time>2017-03-26T07:50:34.999Z</time>
      </trkpt>
      <trkpt lat="47.44498" lon="6.79912">
        <ele>407.3</ele>
        <time>2017-03-26T07:50:35.999Z</time>
      </trkpt>
      <trkpt lat="47.44496" lon="6.79912">
        <ele>407.4</ele>
        <time>2017-03-26T07:50:36.999Z</time>
      </trkpt>
      <trkpt lat="47.44493" lon="6.79912">
        <ele>407.6</ele>
        <time>2017-03-26T07:50:37.999Z</time>
      </trkpt>
      <trkpt lat="47.44491" lon="6.79912">
        <ele>407.7</ele>
        <time>2017-03-26T07:50:38.999Z</time>
      </trkpt>
      <trkpt lat="47.44488" lon="6.79912">
        <ele>407.9</ele>
        <time>2017-03-26T07:50:39.999Z</time>
      </trkpt>
      <trkpt lat="47.44484" lon="6.79912">
        <ele>408.2</ele>
        <time>2017-03-26T07:50:41.999Z</time>
      </trkpt>
      <trkpt lat="47.44482" lon="6.79911">
        <ele>408.3</ele>
        <time>2017-03-26T07:50:42.999Z</time>
      </trkpt>
      <trkpt lat="47.44479" lon="6.79911">
        <ele>408.5</ele>
        <time>2017-03-26T07:50:43.999Z</time>
      </trkpt>
      <trkpt lat="47.44476" lon="6.79911">
        <ele>408.7</ele>
        <time>2017-03-26T07:50:44.999Z</time>
      </trkpt>
      <trkpt lat="47.44474" lon="6.79909">
        <ele>409.2</ele>
        <time>2017-03-26T07:50:46.999Z</time>
      </trkpt>
      <trkpt lat="47.44471" lon="6.79908">
        <ele>409.4</ele>
        <time>2017-03-26T07:50:47.999Z</time>
      </trkpt>
      <trkpt lat="47.44469" lon="6.79906">
        <ele>409.6</ele>
        <time>2017-03-26T07:50:48.999Z</time>
      </trkpt>
      <trkpt lat="47.44467" lon="6.79905">
        <ele>409.7</ele>
        <time>2017-03-26T07:50:49.999Z</time>
      </trkpt>
      <trkpt lat="47.44462" lon="6.79902">
        <ele>410.1</ele>
        <time>2017-03-26T07:50:51.999Z</time>
      </trkpt>
      <trkpt lat="47.4446" lon="6.799">
        <ele>410.3</ele>
        <time>2017-03-26T07:50:52.999Z</time>
      </trkpt>
      <trkpt lat="47.44456" lon="6.79898">
        <ele>410.7</ele>
        <time>2017-03-26T07:50:54.999Z</time>
      </trkpt>
      <trkpt lat="47.44455" lon="6.79898">
        <ele>411</ele>
        <time>2017-03-26T07:50:55.999Z</time>
      </trkpt>
      <trkpt lat="47.4445" lon="6.79897">
        <ele>411.4</ele>
        <time>2017-03-26T07:50:57.999Z</time>
      </trkpt>
      <trkpt lat="47.44448" lon="6.79896">
        <ele>411.6</ele>
        <time>2017-03-26T07:50:58.999Z</time>
      </trkpt>
      <trkpt lat="47.44446" lon="6.79895">
        <ele>411.9</ele>
        <time>2017-03-26T07:51:00.999Z</time>
      </trkpt>
      <trkpt lat="47.44444" lon="6.79894">
        <ele>412.1</ele>
        <time>2017-03-26T07:51:01.999Z</time>
      </trkpt>
      <trkpt lat="47.44442" lon="6.79893">
        <ele>412.2</ele>
        <time>2017-03-26T07:51:02.999Z</time>
      </trkpt>
      <trkpt lat="47.44439" lon="6.79892">
        <ele>412.3</ele>
        <time>2017-03-26T07:51:03.999Z</time>
      </trkpt>
      <trkpt lat="47.44435" lon="6.7989">
        <ele>412.6</ele>
        <time>2017-03-26T07:51:05.999Z</time>
      </trkpt>
      <trkpt lat="47.44432" lon="6.79889">
        <ele>412.7</ele>
        <time>2017-03-26T07:51:06.999Z</time>
      </trkpt>
      <trkpt lat="47.4443" lon="6.79888">
        <ele>412.9</ele>
        <time>2017-03-26T07:51:07.999Z</time>
      </trkpt>
      <trkpt lat="47.44428" lon="6.79886">
        <ele>413.1</ele>
        <time>2017-03-26T07:51:08.999Z</time>
      </trkpt>
      <trkpt lat="47.44425" lon="6.79884">
        <ele>413.4</ele>
        <time>2017-03-26T07:51:10.999Z</time>
      </trkpt>
      <trkpt lat="47.44422" lon="6.79882">
        <ele>413.6</ele>
        <time>2017-03-26T07:51:11.999Z</time>
      </trkpt>
      <trkpt lat="47.4442" lon="6.79881">
        <ele>413.7</ele>
        <time>2017-03-26T07:51:12.999Z</time>
      </trkpt>
      <trkpt lat="47.44417" lon="6.79879">
        <ele>413.9</ele>
        <time>2017-03-26T07:51:13.999Z</time>
      </trkpt>
      <trkpt lat="47.44415" lon="6.79879">
        <ele>414.1</ele>
        <time>2017-03-26T07:51:14.999Z</time>
      </trkpt>
      <trkpt lat="47.44412" lon="6.79878">
        <ele>414.3</ele>
        <time>2017-03-26T07:51:15.999Z</time>
      </trkpt>
      <trkpt lat="47.44409" lon="6.79877">
        <ele>414.7</ele>
        <time>2017-03-26T07:51:17.999Z</time>
      </trkpt>
      <trkpt lat="47.44406" lon="6.79877">
        <ele>414.8</ele>
        <time>2017-03-26T07:51:18.999Z</time>
      </trkpt>
      <trkpt lat="47.44404" lon="6.79876">
        <ele>415</ele>
        <time>2017-03-26T07:51:19.999Z</time>
      </trkpt>
      <trkpt lat="47.44401" lon="6.79875">
        <ele>415.2</ele>
        <time>2017-03-26T07:51:20.999Z</time>
      </trkpt>
      <trkpt lat="47.44398" lon="6.79873">
        <ele>415.6</ele>
        <time>2017-03-26T07:51:22.999Z</time>
      </trkpt>
      <trkpt lat="47.44396" lon="6.79873">
        <ele>415.7</ele>
        <time>2017-03-26T07:51:23.999Z</time>
      </trkpt>
      <trkpt lat="47.44393" lon="6.7987">
        <ele>416.1</ele>
        <time>2017-03-26T07:51:25.999Z</time>
      </trkpt>
      <trkpt lat="47.44392" lon="6.79868">
        <ele>416.3</ele>
        <time>2017-03-26T07:51:26.999Z</time>
      </trkpt>
      <trkpt lat="47.44389" lon="6.79864">
        <ele>416.6</ele>
        <time>2017-03-26T07:51:27.999Z</time>
      </trkpt>
      <trkpt lat="47.44387" lon="6.7986">
        <ele>416.7</ele>
        <time>2017-03-26T07:51:28.999Z</time>
      </trkpt>
      <trkpt lat="47.44386" lon="6.79855">
        <ele>417.1</ele>
        <time>2017-03-26T07:51:30.999Z</time>
      </trkpt>
      <trkpt lat="47.44386" lon="6.79852">
        <ele>417.3</ele>
        <time>2017-03-26T07:51:31.999Z</time>
      </trkpt>
      <trkpt lat="47.44387" lon="6.79849">
        <ele>417.4</ele>
        <time>2017-03-26T07:51:32.999Z</time>
      </trkpt>
      <trkpt lat="47.44387" lon="6.79845">
        <ele>417.5</ele>
        <time>2017-03-26T07:51:33.999Z</time>
      </trkpt>
      <trkpt lat="47.44388" lon="6.7984">
        <ele>417.9</ele>
        <time>2017-03-26T07:51:35.999Z</time>
      </trkpt>
      <trkpt lat="47.4439" lon="6.79836">
        <ele>418.1</ele>
        <time>2017-03-26T07:51:36.999Z</time>
      </trkpt>
      <trkpt lat="47.44391" lon="6.79832">
        <ele>418.4</ele>
        <time>2017-03-26T07:51:38.999Z</time>
      </trkpt>
      <trkpt lat="47.44392" lon="6.7983">
        <ele>418.6</ele>
        <time>2017-03-26T07:51:39.999Z</time>
      </trkpt>
      <trkpt lat="47.44394" lon="6.79825">
        <ele>419.1</ele>
        <time>2017-03-26T07:51:42.999Z</time>
      </trkpt>
      <trkpt lat="47.44394" lon="6.79823">
        <ele>419.3</ele>
        <time>2017-03-26T07:51:43.999Z</time>
      </trkpt>
      <trkpt lat="47.44397" lon="6.79817">
        <ele>419.7</ele>
        <time>2017-03-26T07:51:45.999Z</time>
      </trkpt>
      <trkpt lat="47.44397" lon="6.79815">
        <ele>419.9</ele>
        <time>2017-03-26T07:51:46.999Z</time>
      </trkpt>
      <trkpt lat="47.44397" lon="6.7981">
        <ele>420</ele>
        <time>2017-03-26T07:51:48.999Z</time>
      </trkpt>
      <trkpt lat="47.44398" lon="6.79807">
        <ele>420.1</ele>
        <time>2017-03-26T07:51:49.999Z</time>
      </trkpt>
      <trkpt lat="47.44399" lon="6.798">
        <ele>420.3</ele>
        <time>2017-03-26T07:51:51.999Z</time>
      </trkpt>
      <trkpt lat="47.444" lon="6.79798">
        <ele>420.3</ele>
        <time>2017-03-26T07:51:52.999Z</time>
      </trkpt>
      <trkpt lat="47.44402" lon="6.79793">
        <ele>420.6</ele>
        <time>2017-03-26T07:51:55.999Z</time>
      </trkpt>
      <trkpt lat="47.44403" lon="6.79792">
        <ele>420.6</ele>
        <time>2017-03-26T07:51:56.999Z</time>
      </trkpt>
      <trkpt lat="47.444" lon="6.79787">
        <ele>420.4</ele>
        <time>2017-03-26T07:52:00.999Z</time>
      </trkpt>
      <trkpt lat="47.44399" lon="6.79786">
        <ele>420.4</ele>
        <time>2017-03-26T07:52:01.999Z</time>
      </trkpt>
      <trkpt lat="47.44395" lon="6.79783">
        <ele>420.3</ele>
        <time>2017-03-26T07:52:03.999Z</time>
      </trkpt>
      <trkpt lat="47.44393" lon="6.7978">
        <ele>420.4</ele>
        <time>2017-03-26T07:52:04.999Z</time>
      </trkpt>
      <trkpt lat="47.44388" lon="6.7978">
        <ele>421.5</ele>
        <time>2017-03-26T07:52:10.999Z</time>
      </trkpt>
      <trkpt lat="47.44387" lon="6.79781">
        <ele>421.8</ele>
        <time>2017-03-26T07:52:11.999Z</time>
      </trkpt>
      <trkpt lat="47.44384" lon="6.79784">
        <ele>422.9</ele>
        <time>2017-03-26T07:52:14.999Z</time>
      </trkpt>
      <trkpt lat="47.44383" lon="6.79786">
        <ele>423.3</ele>
        <time>2017-03-26T07:52:15.999Z</time>
      </trkpt>
      <trkpt lat="47.44381" lon="6.7979">
        <ele>424.7</ele>
        <time>2017-03-26T07:52:18.999Z</time>
      </trkpt>
      <trkpt lat="47.4438" lon="6.7979">
        <ele>425.1</ele>
        <time>2017-03-26T07:52:19.999Z</time>
      </trkpt>
      <trkpt lat="47.44377" lon="6.79793">
        <ele>426.7</ele>
        <time>2017-03-26T07:52:22.999Z</time>
      </trkpt>
      <trkpt lat="47.44376" lon="6.79795">
        <ele>427.3</ele>
        <time>2017-03-26T07:52:23.999Z</time>
      </trkpt>
      <trkpt lat="47.44372" lon="6.79797">
        <ele>428.5</ele>
        <time>2017-03-26T07:52:25.999Z</time>
      </trkpt>
      <trkpt lat="47.44371" lon="6.79799">
        <ele>429.1</ele>
        <time>2017-03-26T07:52:26.999Z</time>
      </trkpt>
      <trkpt lat="47.44367" lon="6.79801">
        <ele>430.2</ele>
        <time>2017-03-26T07:52:28.999Z</time>
      </trkpt>
      <trkpt lat="47.44367" lon="6.79802">
        <ele>430.7</ele>
        <time>2017-03-26T07:52:29.999Z</time>
      </trkpt>
      <trkpt lat="47.44363" lon="6.79805">
        <ele>433.2</ele>
        <time>2017-03-26T07:52:34.999Z</time>
      </trkpt>
      <trkpt lat="47.44362" lon="6.79806">
        <ele>433.7</ele>
        <time>2017-03-26T07:52:35.999Z</time>
      </trkpt>
      <trkpt lat="47.44359" lon="6.79808">
        <ele>435.3</ele>
        <time>2017-03-26T07:52:38.999Z</time>
      </trkpt>
      <trkpt lat="47.44358" lon="6.79809">
        <ele>435.8</ele>
        <time>2017-03-26T07:52:39.999Z</time>
      </trkpt>
      <trkpt lat="47.44353" lon="6.7981">
        <ele>436.9</ele>
        <time>2017-03-26T07:52:41.999Z</time>
      </trkpt>
      <trkpt lat="47.44351" lon="6.79811">
        <ele>437.3</ele>
        <time>2017-03-26T07:52:42.999Z</time>
      </trkpt>
      <trkpt lat="47.44347" lon="6.79815">
        <ele>438.7</ele>
        <time>2017-03-26T07:52:45.999Z</time>
      </trkpt>
      <trkpt lat="47.44346" lon="6.79815">
        <ele>439.2</ele>
        <time>2017-03-26T07:52:46.999Z</time>
      </trkpt>
      <trkpt lat="47.44343" lon="6.79819">
        <ele>441.1</ele>
        <time>2017-03-26T07:52:51.999Z</time>
      </trkpt>
      <trkpt lat="47.44342" lon="6.79821">
        <ele>441.4</ele>
        <time>2017-03-26T07:52:52.999Z</time>
      </trkpt>
      <trkpt lat="47.44339" lon="6.79826">
        <ele>442.1</ele>
        <time>2017-03-26T07:52:55.999Z</time>
      </trkpt>
      <trkpt lat="47.44338" lon="6.79828">
        <ele>442.3</ele>
        <time>2017-03-26T07:52:56.999Z</time>
      </trkpt>
      <trkpt lat="47.44336" lon="6.79832">
        <ele>443.1</ele>
        <time>2017-03-26T07:52:59.999Z</time>
      </trkpt>
      <trkpt lat="47.44335" lon="6.79833">
        <ele>443.4</ele>
        <time>2017-03-26T07:53:00.999Z</time>
      </trkpt>
      <trkpt lat="47.44332" lon="6.79837">
        <ele>444.2</ele>
        <time>2017-03-26T07:53:03.999Z</time>
      </trkpt>
      <trkpt lat="47.44331" lon="6.79838">
        <ele>444.5</ele>
        <time>2017-03-26T07:53:04.999Z</time>
      </trkpt>
      <trkpt lat="47.44329" lon="6.79841">
        <ele>445</ele>
        <time>2017-03-26T07:53:06.999Z</time>
      </trkpt>
      <trkpt lat="47.44326" lon="6.79845">
        <ele>445.2</ele>
        <time>2017-03-26T07:53:07.999Z</time>
      </trkpt>
      <trkpt lat="47.44323" lon="6.79849">
        <ele>446.3</ele>
        <time>2017-03-26T07:53:11.999Z</time>
      </trkpt>
      <trkpt lat="47.44323" lon="6.7985">
        <ele>446.6</ele>
        <time>2017-03-26T07:53:12.999Z</time>
      </trkpt>
      <trkpt lat="47.44319" lon="6.79853">
        <ele>448</ele>
        <time>2017-03-26T07:53:17.999Z</time>
      </trkpt>
      <trkpt lat="47.44319" lon="6.79855">
        <ele>448.3</ele>
        <time>2017-03-26T07:53:18.999Z</time>
      </trkpt>
      <trkpt lat="47.44317" lon="6.7986">
        <ele>449</ele>
        <time>2017-03-26T07:53:20.999Z</time>
      </trkpt>
      <trkpt lat="47.44317" lon="6.79861">
        <ele>449.2</ele>
        <time>2017-03-26T07:53:21.999Z</time>
      </trkpt>
      <trkpt lat="47.44315" lon="6.79865">
        <ele>450</ele>
        <time>2017-03-26T07:53:23.999Z</time>
      </trkpt>
      <trkpt lat="47.44313" lon="6.79866">
        <ele>450.5</ele>
        <time>2017-03-26T07:53:24.999Z</time>
      </trkpt>
      <trkpt lat="47.44312" lon="6.79869">
        <ele>451.4</ele>
        <time>2017-03-26T07:53:26.999Z</time>
      </trkpt>
      <trkpt lat="47.4431" lon="6.79872">
        <ele>451.8</ele>
        <time>2017-03-26T07:53:27.999Z</time>
      </trkpt>
      <trkpt lat="47.44308" lon="6.79876">
        <ele>454</ele>
        <time>2017-03-26T07:53:32.999Z</time>
      </trkpt>
      <trkpt lat="47.44307" lon="6.79878">
        <ele>454.4</ele>
        <time>2017-03-26T07:53:33.999Z</time>
      </trkpt>
      <trkpt lat="47.44304" lon="6.7988">
        <ele>455.6</ele>
        <time>2017-03-26T07:53:36.999Z</time>
      </trkpt>
      <trkpt lat="47.44303" lon="6.7988">
        <ele>456</ele>
        <time>2017-03-26T07:53:37.999Z</time>
      </trkpt>
      <trkpt lat="47.44299" lon="6.79882">
        <ele>458.4</ele>
        <time>2017-03-26T07:53:44.999Z</time>
      </trkpt>
      <trkpt lat="47.44298" lon="6.79882">
        <ele>458.7</ele>
        <time>2017-03-26T07:53:45.999Z</time>
      </trkpt>
      <trkpt lat="47.44295" lon="6.79883">
        <ele>460.3</ele>
        <time>2017-03-26T07:53:49.999Z</time>
      </trkpt>
      <trkpt lat="47.44293" lon="6.79883">
        <ele>460.6</ele>
        <time>2017-03-26T07:53:50.999Z</time>
      </trkpt>
      <trkpt lat="47.44289" lon="6.79885">
        <ele>461.5</ele>
        <time>2017-03-26T07:53:53.999Z</time>
      </trkpt>
      <trkpt lat="47.44288" lon="6.79886">
        <ele>461.8</ele>
        <time>2017-03-26T07:53:54.999Z</time>
      </trkpt>
      <trkpt lat="47.44283" lon="6.79887">
        <ele>463.2</ele>
        <time>2017-03-26T07:53:59.999Z</time>
      </trkpt>
      <trkpt lat="47.44282" lon="6.79888">
        <ele>463.5</ele>
        <time>2017-03-26T07:54:00.999Z</time>
      </trkpt>
      <trkpt lat="47.44278" lon="6.79888">
        <ele>465.2</ele>
        <time>2017-03-26T07:54:05.999Z</time>
      </trkpt>
      <trkpt lat="47.44277" lon="6.79888">
        <ele>465.5</ele>
        <time>2017-03-26T07:54:06.999Z</time>
      </trkpt>
      <trkpt lat="47.44273" lon="6.7989">
        <ele>466.5</ele>
        <time>2017-03-26T07:54:09.999Z</time>
      </trkpt>
      <trkpt lat="47.44272" lon="6.79891">
        <ele>466.9</ele>
        <time>2017-03-26T07:54:10.999Z</time>
      </trkpt>
      <trkpt lat="47.44268" lon="6.79892">
        <ele>468</ele>
        <time>2017-03-26T07:54:13.999Z</time>
      </trkpt>
      <trkpt lat="47.44267" lon="6.79892">
        <ele>468.3</ele>
        <time>2017-03-26T07:54:14.999Z</time>
      </trkpt>
      <trkpt lat="47.44263" lon="6.79893">
        <ele>468.9</ele>
        <time>2017-03-26T07:54:16.999Z</time>
      </trkpt>
      <trkpt lat="47.44262" lon="6.79893">
        <ele>469.2</ele>
        <time>2017-03-26T07:54:17.999Z</time>
      </trkpt>
      <trkpt lat="47.44258" lon="6.79896">
        <ele>470.4</ele>
        <time>2017-03-26T07:54:21.999Z</time>
      </trkpt>
      <trkpt lat="47.44258" lon="6.79896">
        <ele>470.6</ele>
        <time>2017-03-26T07:54:22.999Z</time>
      </trkpt>
      <trkpt lat="47.44254" lon="6.79899">
        <ele>472.2</ele>
        <time>2017-03-26T07:54:27.999Z</time>
      </trkpt>
      <trkpt lat="47.44253" lon="6.79899">
        <ele>472.6</ele>
        <time>2017-03-26T07:54:28.999Z</time>
      </trkpt>
      <trkpt lat="47.44249" lon="6.79901">
        <ele>473.9</ele>
        <time>2017-03-26T07:54:34.999Z</time>
      </trkpt>
      <trkpt lat="47.44248" lon="6.79901">
        <ele>474.1</ele>
        <time>2017-03-26T07:54:35.999Z</time>
      </trkpt>
      <trkpt lat="47.44244" lon="6.79903">
        <ele>474.8</ele>
        <time>2017-03-26T07:54:41.999Z</time>
      </trkpt>
      <trkpt lat="47.44244" lon="6.79904">
        <ele>474.9</ele>
        <time>2017-03-26T07:54:42.999Z</time>
      </trkpt>
      <trkpt lat="47.44241" lon="6.79907">
        <ele>475.3</ele>
        <time>2017-03-26T07:54:46.999Z</time>
      </trkpt>
      <trkpt lat="47.44239" lon="6.79908">
        <ele>475.3</ele>
        <time>2017-03-26T07:54:47.999Z</time>
      </trkpt>
      <trkpt lat="47.44235" lon="6.79911">
        <ele>475.4</ele>
        <time>2017-03-26T07:54:50.999Z</time>
      </trkpt>
      <trkpt lat="47.44234" lon="6.79911">
        <ele>475.4</ele>
        <time>2017-03-26T07:54:51.999Z</time>
      </trkpt>
      <trkpt lat="47.4423" lon="6.79913">
        <ele>475.6</ele>
        <time>2017-03-26T07:54:54.999Z</time>
      </trkpt>
      <trkpt lat="47.44228" lon="6.79914">
        <ele>475.7</ele>
        <time>2017-03-26T07:54:55.999Z</time>
      </trkpt>
      <trkpt lat="47.44225" lon="6.79917">
        <ele>475.8</ele>
        <time>2017-03-26T07:54:57.999Z</time>
      </trkpt>
      <trkpt lat="47.44224" lon="6.79918">
        <ele>476</ele>
        <time>2017-03-26T07:54:58.999Z</time>
      </trkpt>
      <trkpt lat="47.44221" lon="6.7992">
        <ele>476.1</ele>
        <time>2017-03-26T07:55:00.999Z</time>
      </trkpt>
      <trkpt lat="47.44219" lon="6.79922">
        <ele>476.1</ele>
        <time>2017-03-26T07:55:01.999Z</time>
      </trkpt>
      <trkpt lat="47.44216" lon="6.79924">
        <ele>476.2</ele>
        <time>2017-03-26T07:55:03.999Z</time>
      </trkpt>
      <trkpt lat="47.44214" lon="6.79925">
        <ele>476.2</ele>
        <time>2017-03-26T07:55:04.999Z</time>
      </trkpt>
      <trkpt lat="47.4421" lon="6.79927">
        <ele>476.3</ele>
        <time>2017-03-26T07:55:08.999Z</time>
      </trkpt>
      <trkpt lat="47.44209" lon="6.79927">
        <ele>476.4</ele>
        <time>2017-03-26T07:55:09.999Z</time>
      </trkpt>
      <trkpt lat="47.44206" lon="6.7993">
        <ele>476.7</ele>
        <time>2017-03-26T07:55:13.999Z</time>
      </trkpt>
      <trkpt lat="47.44204" lon="6.79931">
        <ele>476.7</ele>
        <time>2017-03-26T07:55:14.999Z</time>
      </trkpt>
      <trkpt lat="47.44199" lon="6.79933">
        <ele>477</ele>
        <time>2017-03-26T07:55:18.999Z</time>
      </trkpt>
      <trkpt lat="47.44198" lon="6.79932">
        <ele>477</ele>
        <time>2017-03-26T07:55:19.999Z</time>
      </trkpt>
      <trkpt lat="47.44196" lon="6.79927">
        <ele>476.6</ele>
        <time>2017-03-26T07:55:23.999Z</time>
      </trkpt>
      <trkpt lat="47.44196" lon="6.79926">
        <ele>476.4</ele>
        <time>2017-03-26T07:55:24.999Z</time>
      </trkpt>
      <trkpt lat="47.44194" lon="6.79921">
        <ele>475.7</ele>
        <time>2017-03-26T07:55:28.999Z</time>
      </trkpt>
      <trkpt lat="47.44193" lon="6.79918">
        <ele>475.4</ele>
        <time>2017-03-26T07:55:29.999Z</time>
      </trkpt>
      <trkpt lat="47.44193" lon="6.79912">
        <ele>474.4</ele>
        <time>2017-03-26T07:55:33.999Z</time>
      </trkpt>
      <trkpt lat="47.44194" lon="6.79911">
        <ele>474.3</ele>
        <time>2017-03-26T07:55:34.999Z</time>
      </trkpt>
      <trkpt lat="47.44194" lon="6.79908">
        <ele>474</ele>
        <time>2017-03-26T07:55:36.999Z</time>
      </trkpt>
      <trkpt lat="47.44194" lon="6.79902">
        <ele>473.7</ele>
        <time>2017-03-26T07:55:37.999Z</time>
      </trkpt>
      <trkpt lat="47.44196" lon="6.79897">
        <ele>473.4</ele>
        <time>2017-03-26T07:55:39.999Z</time>
      </trkpt>
      <trkpt lat="47.44197" lon="6.79895">
        <ele>473.3</ele>
        <time>2017-03-26T07:55:40.999Z</time>
      </trkpt>
      <trkpt lat="47.44196" lon="6.79889">
        <ele>472.6</ele>
        <time>2017-03-26T07:55:44.999Z</time>
      </trkpt>
      <trkpt lat="47.44196" lon="6.79887">
        <ele>472.3</ele>
        <time>2017-03-26T07:55:45.999Z</time>
      </trkpt>
      <trkpt lat="47.44195" lon="6.79882">
        <ele>471.4</ele>
        <time>2017-03-26T07:55:48.999Z</time>
      </trkpt>
      <trkpt lat="47.44195" lon="6.7988">
        <ele>471.1</ele>
        <time>2017-03-26T07:55:49.999Z</time>
      </trkpt>
      <trkpt lat="47.44195" lon="6.79874">
        <ele>470.3</ele>
        <time>2017-03-26T07:55:52.999Z</time>
      </trkpt>
      <trkpt lat="47.44194" lon="6.79872">
        <ele>470</ele>
        <time>2017-03-26T07:55:53.999Z</time>
      </trkpt>
      <trkpt lat="47.44193" lon="6.79867">
        <ele>469.5</ele>
        <time>2017-03-26T07:55:55.999Z</time>
      </trkpt>
      <trkpt lat="47.44193" lon="6.79864">
        <ele>469.1</ele>
        <time>2017-03-26T07:55:56.999Z</time>
      </trkpt>
      <trkpt lat="47.44192" lon="6.79858">
        <ele>468.5</ele>
        <time>2017-03-26T07:55:58.999Z</time>
      </trkpt>
      <trkpt lat="47.44192" lon="6.79856">
        <ele>468.1</ele>
        <time>2017-03-26T07:55:59.999Z</time>
      </trkpt>
      <trkpt lat="47.4419" lon="6.7985">
        <ele>467</ele>
        <time>2017-03-26T07:56:02.999Z</time>
      </trkpt>
      <trkpt lat="47.4419" lon="6.79848">
        <ele>466.7</ele>
        <time>2017-03-26T07:56:03.999Z</time>
      </trkpt>
      <trkpt lat="47.4419" lon="6.79842">
        <ele>466</ele>
        <time>2017-03-26T07:56:05.999Z</time>
      </trkpt>
      <trkpt lat="47.4419" lon="6.7984">
        <ele>465.8</ele>
        <time>2017-03-26T07:56:06.999Z</time>
      </trkpt>
      <trkpt lat="47.4419" lon="6.79834">
        <ele>464.7</ele>
        <time>2017-03-26T07:56:09.999Z</time>
      </trkpt>
      <trkpt lat="47.4419" lon="6.79831">
        <ele>464.4</ele>
        <time>2017-03-26T07:56:10.999Z</time>
      </trkpt>
      <trkpt lat="47.4419" lon="6.79826">
        <ele>463.8</ele>
        <time>2017-03-26T07:56:12.999Z</time>
      </trkpt>
      <trkpt lat="47.4419" lon="6.79824">
        <ele>463.6</ele>
        <time>2017-03-26T07:56:13.999Z</time>
      </trkpt>
      <trkpt lat="47.44189" lon="6.7982">
        <ele>463.4</ele>
        <time>2017-03-26T07:56:14.999Z</time>
      </trkpt>
      <trkpt lat="47.4419" lon="6.79817">
        <ele>463.2</ele>
        <time>2017-03-26T07:56:15.999Z</time>
      </trkpt>
      <trkpt lat="47.44191" lon="6.79811">
        <ele>462.8</ele>
        <time>2017-03-26T07:56:17.999Z</time>
      </trkpt>
      <trkpt lat="47.4419" lon="6.79809">
        <ele>462.6</ele>
        <time>2017-03-26T07:56:18.999Z</time>
      </trkpt>
      <trkpt lat="47.44191" lon="6.79804">
        <ele>461.9</ele>
        <time>2017-03-26T07:56:22.999Z</time>
      </trkpt>
      <trkpt lat="47.44191" lon="6.79801">
        <ele>461.7</ele>
        <time>2017-03-26T07:56:23.999Z</time>
      </trkpt>
      <trkpt lat="47.4419" lon="6.79797">
        <ele>461.6</ele>
        <time>2017-03-26T07:56:24.999Z</time>
      </trkpt>
      <trkpt lat="47.44189" lon="6.79791">
        <ele>461.6</ele>
        <time>2017-03-26T07:56:25.999Z</time>
      </trkpt>
      <trkpt lat="47.44188" lon="6.79785">
        <ele>461.7</ele>
        <time>2017-03-26T07:56:26.999Z</time>
      </trkpt>
      <trkpt lat="47.44188" lon="6.79779">
        <ele>461.8</ele>
        <time>2017-03-26T07:56:27.999Z</time>
      </trkpt>
      <trkpt lat="47.44188" lon="6.79776">
        <ele>462.1</ele>
        <time>2017-03-26T07:56:28.999Z</time>
      </trkpt>
      <trkpt lat="47.44188" lon="6.79771">
        <ele>462.3</ele>
        <time>2017-03-26T07:56:29.999Z</time>
      </trkpt>
      <trkpt lat="47.44188" lon="6.79766">
        <ele>462.6</ele>
        <time>2017-03-26T07:56:30.999Z</time>
      </trkpt>
      <trkpt lat="47.44188" lon="6.79763">
        <ele>462.7</ele>
        <time>2017-03-26T07:56:31.999Z</time>
      </trkpt>
      <trkpt lat="47.44188" lon="6.79759">
        <ele>463</ele>
        <time>2017-03-26T07:56:32.999Z</time>
      </trkpt>
      <trkpt lat="47.44189" lon="6.79755">
        <ele>463.2</ele>
        <time>2017-03-26T07:56:33.999Z</time>
      </trkpt>
      <trkpt lat="47.44189" lon="6.79751">
        <ele>463.4</ele>
        <time>2017-03-26T07:56:34.999Z</time>
      </trkpt>
      <trkpt lat="47.4419" lon="6.79746">
        <ele>463.5</ele>
        <time>2017-03-26T07:56:35.999Z</time>
      </trkpt>
      <trkpt lat="47.44191" lon="6.7974">
        <ele>463.6</ele>
        <time>2017-03-26T07:56:36.999Z</time>
      </trkpt>
      <trkpt lat="47.44192" lon="6.79737">
        <ele>463.8</ele>
        <time>2017-03-26T07:56:37.999Z</time>
      </trkpt>
      <trkpt lat="47.44192" lon="6.79734">
        <ele>463.9</ele>
        <time>2017-03-26T07:56:38.999Z</time>
      </trkpt>
      <trkpt lat="47.44192" lon="6.7973">
        <ele>464</ele>
        <time>2017-03-26T07:56:39.999Z</time>
      </trkpt>
      <trkpt lat="47.44193" lon="6.79725">
        <ele>464.4</ele>
        <time>2017-03-26T07:56:41.999Z</time>
      </trkpt>
      <trkpt lat="47.44193" lon="6.79723">
        <ele>464.5</ele>
        <time>2017-03-26T07:56:42.999Z</time>
      </trkpt>
      <trkpt lat="47.44193" lon="6.79717">
        <ele>464.6</ele>
        <time>2017-03-26T07:56:43.999Z</time>
      </trkpt>
      <trkpt lat="47.44195" lon="6.79713">
        <ele>464.8</ele>
        <time>2017-03-26T07:56:44.999Z</time>
      </trkpt>
      <trkpt lat="47.44195" lon="6.79709">
        <ele>464.9</ele>
        <time>2017-03-26T07:56:45.999Z</time>
      </trkpt>
      <trkpt lat="47.44196" lon="6.79706">
        <ele>464.9</ele>
        <time>2017-03-26T07:56:46.999Z</time>
      </trkpt>
      <trkpt lat="47.44197" lon="6.79702">
        <ele>465.1</ele>
        <time>2017-03-26T07:56:48.999Z</time>
      </trkpt>
      <trkpt lat="47.44197" lon="6.79698">
        <ele>465.1</ele>
        <time>2017-03-26T07:56:49.999Z</time>
      </trkpt>
      <trkpt lat="47.44198" lon="6.79692">
        <ele>465.1</ele>
        <time>2017-03-26T07:56:51.999Z</time>
      </trkpt>
      <trkpt lat="47.44198" lon="6.79689">
        <ele>465.1</ele>
        <time>2017-03-26T07:56:52.999Z</time>
      </trkpt>
      <trkpt lat="47.44197" lon="6.79682">
        <ele>465</ele>
        <time>2017-03-26T07:56:55.999Z</time>
      </trkpt>
      <trkpt lat="47.44195" lon="6.7968">
        <ele>465</ele>
        <time>2017-03-26T07:56:56.999Z</time>
      </trkpt>
      <trkpt lat="47.44192" lon="6.79676">
        <ele>465</ele>
        <time>2017-03-26T07:56:58.999Z</time>
      </trkpt>
      <trkpt lat="47.4419" lon="6.79674">
        <ele>465.1</ele>
        <time>2017-03-26T07:56:59.999Z</time>
      </trkpt>
      <trkpt lat="47.44187" lon="6.79671">
        <ele>465.1</ele>
        <time>2017-03-26T07:57:01.999Z</time>
      </trkpt>
      <trkpt lat="47.44185" lon="6.7967">
        <ele>465.1</ele>
        <time>2017-03-26T07:57:02.999Z</time>
      </trkpt>
      <trkpt lat="47.44181" lon="6.7967">
        <ele>465.2</ele>
        <time>2017-03-26T07:57:04.999Z</time>
      </trkpt>
      <trkpt lat="47.44179" lon="6.79671">
        <ele>465.3</ele>
        <time>2017-03-26T07:57:05.999Z</time>
      </trkpt>
      <trkpt lat="47.44175" lon="6.79671">
        <ele>465.5</ele>
        <time>2017-03-26T07:57:07.999Z</time>
      </trkpt>
      <trkpt lat="47.44173" lon="6.79671">
        <ele>465.7</ele>
        <time>2017-03-26T07:57:08.999Z</time>
      </trkpt>
      <trkpt lat="47.44169" lon="6.79668">
        <ele>466.1</ele>
        <time>2017-03-26T07:57:11.999Z</time>
      </trkpt>
      <trkpt lat="47.44168" lon="6.79668">
        <ele>466.3</ele>
        <time>2017-03-26T07:57:12.999Z</time>
      </trkpt>
      <trkpt lat="47.44164" lon="6.79665">
        <ele>466.7</ele>
        <time>2017-03-26T07:57:15.999Z</time>
      </trkpt>
      <trkpt lat="47.44162" lon="6.79664">
        <ele>466.8</ele>
        <time>2017-03-26T07:57:16.999Z</time>
      </trkpt>
      <trkpt lat="47.4416" lon="6.79662">
        <ele>466.9</ele>
        <time>2017-03-26T07:57:17.999Z</time>
      </trkpt>
      <trkpt lat="47.44158" lon="6.7966">
        <ele>466.9</ele>
        <time>2017-03-26T07:57:18.999Z</time>
      </trkpt>
      <trkpt lat="47.44155" lon="6.79657">
        <ele>467.1</ele>
        <time>2017-03-26T07:57:20.999Z</time>
      </trkpt>
      <trkpt lat="47.44154" lon="6.79656">
        <ele>467.1</ele>
        <time>2017-03-26T07:57:21.999Z</time>
      </trkpt>
      <trkpt lat="47.44151" lon="6.79654">
        <ele>467</ele>
        <time>2017-03-26T07:57:23.999Z</time>
      </trkpt>
      <trkpt lat="47.44148" lon="6.79653">
        <ele>467.1</ele>
        <time>2017-03-26T07:57:24.999Z</time>
      </trkpt>
      <trkpt lat="47.44146" lon="6.7965">
        <ele>467.1</ele>
        <time>2017-03-26T07:57:25.999Z</time>
      </trkpt>
      <trkpt lat="47.44144" lon="6.79649">
        <ele>467.1</ele>
        <time>2017-03-26T07:57:26.999Z</time>
      </trkpt>
      <trkpt lat="47.4414" lon="6.79648">
        <ele>467.5</ele>
        <time>2017-03-26T07:57:29.999Z</time>
      </trkpt>
      <trkpt lat="47.44137" lon="6.79646">
        <ele>467.6</ele>
        <time>2017-03-26T07:57:30.999Z</time>
      </trkpt>
      <trkpt lat="47.44134" lon="6.79644">
        <ele>467.7</ele>
        <time>2017-03-26T07:57:31.999Z</time>
      </trkpt>
      <trkpt lat="47.44132" lon="6.79643">
        <ele>467.8</ele>
        <time>2017-03-26T07:57:32.999Z</time>
      </trkpt>
      <trkpt lat="47.44131" lon="6.7964">
        <ele>468.2</ele>
        <time>2017-03-26T07:57:33.999Z</time>
      </trkpt>
      <trkpt lat="47.44128" lon="6.79636">
        <ele>468.7</ele>
        <time>2017-03-26T07:57:34.999Z</time>
      </trkpt>
      <trkpt lat="47.44125" lon="6.79632">
        <ele>469.2</ele>
        <time>2017-03-26T07:57:35.999Z</time>
      </trkpt>
      <trkpt lat="47.44123" lon="6.79628">
        <ele>469.7</ele>
        <time>2017-03-26T07:57:36.999Z</time>
      </trkpt>
      <trkpt lat="47.4412" lon="6.79624">
        <ele>470.3</ele>
        <time>2017-03-26T07:57:37.999Z</time>
      </trkpt>
      <trkpt lat="47.44117" lon="6.79621">
        <ele>470.9</ele>
        <time>2017-03-26T07:57:38.999Z</time>
      </trkpt>
      <trkpt lat="47.44114" lon="6.79618">
        <ele>471.5</ele>
        <time>2017-03-26T07:57:39.999Z</time>
      </trkpt>
      <trkpt lat="47.44112" lon="6.79616">
        <ele>472.1</ele>
        <time>2017-03-26T07:57:40.999Z</time>
      </trkpt>
      <trkpt lat="47.44108" lon="6.79613">
        <ele>473.3</ele>
        <time>2017-03-26T07:57:42.999Z</time>
      </trkpt>
      <trkpt lat="47.44106" lon="6.79611">
        <ele>473.8</ele>
        <time>2017-03-26T07:57:43.999Z</time>
      </trkpt>
      <trkpt lat="47.44103" lon="6.79611">
        <ele>474.4</ele>
        <time>2017-03-26T07:57:44.999Z</time>
      </trkpt>
      <trkpt lat="47.441" lon="6.7961">
        <ele>474.9</ele>
        <time>2017-03-26T07:57:45.999Z</time>
      </trkpt>
      <trkpt lat="47.44098" lon="6.79608">
        <ele>475.5</ele>
        <time>2017-03-26T07:57:46.999Z</time>
      </trkpt>
      <trkpt lat="47.44095" lon="6.79607">
        <ele>476</ele>
        <time>2017-03-26T07:57:47.999Z</time>
      </trkpt>
      <trkpt lat="47.44092" lon="6.79605">
        <ele>477</ele>
        <time>2017-03-26T07:57:49.999Z</time>
      </trkpt>
      <trkpt lat="47.44089" lon="6.79603">
        <ele>477.5</ele>
        <time>2017-03-26T07:57:50.999Z</time>
      </trkpt>
      <trkpt lat="47.44085" lon="6.79601">
        <ele>478.5</ele>
        <time>2017-03-26T07:57:52.999Z</time>
      </trkpt>
      <trkpt lat="47.44084" lon="6.79601">
        <ele>479.1</ele>
        <time>2017-03-26T07:57:54.000Z</time>
      </trkpt>
      <trkpt lat="47.44081" lon="6.79601">
        <ele>480.1</ele>
        <time>2017-03-26T07:57:55.999Z</time>
      </trkpt>
      <trkpt lat="47.44077" lon="6.796">
        <ele>480.6</ele>
        <time>2017-03-26T07:57:57.000Z</time>
      </trkpt>
      <trkpt lat="47.44073" lon="6.79599">
        <ele>481.6</ele>
        <time>2017-03-26T07:57:59.000Z</time>
      </trkpt>
      <trkpt lat="47.4407" lon="6.79598">
        <ele>482.1</ele>
        <time>2017-03-26T07:58:00.000Z</time>
      </trkpt>
      <trkpt lat="47.44066" lon="6.79595">
        <ele>483</ele>
        <time>2017-03-26T07:58:02.000Z</time>
      </trkpt>
      <trkpt lat="47.44065" lon="6.79594">
        <ele>483.4</ele>
        <time>2017-03-26T07:58:03.000Z</time>
      </trkpt>
      <trkpt lat="47.44063" lon="6.79592">
        <ele>483.8</ele>
        <time>2017-03-26T07:58:04.000Z</time>
      </trkpt>
      <trkpt lat="47.44061" lon="6.7959">
        <ele>484.1</ele>
        <time>2017-03-26T07:58:05.000Z</time>
      </trkpt>
      <trkpt lat="47.44058" lon="6.7959">
        <ele>484.3</ele>
        <time>2017-03-26T07:58:06.000Z</time>
      </trkpt>
      <trkpt lat="47.44055" lon="6.79587">
        <ele>484.6</ele>
        <time>2017-03-26T07:58:07.000Z</time>
      </trkpt>
      <trkpt lat="47.44053" lon="6.79586">
        <ele>484.8</ele>
        <time>2017-03-26T07:58:08.000Z</time>
      </trkpt>
      <trkpt lat="47.44051" lon="6.79586">
        <ele>485</ele>
        <time>2017-03-26T07:58:09.000Z</time>
      </trkpt>
      <trkpt lat="47.44048" lon="6.79586">
        <ele>485.3</ele>
        <time>2017-03-26T07:58:10.000Z</time>
      </trkpt>
      <trkpt lat="47.44046" lon="6.79585">
        <ele>485.5</ele>
        <time>2017-03-26T07:58:11.000Z</time>
      </trkpt>
      <trkpt lat="47.44043" lon="6.79585">
        <ele>486</ele>
        <time>2017-03-26T07:58:13.000Z</time>
      </trkpt>
      <trkpt lat="47.4404" lon="6.79584">
        <ele>486.4</ele>
        <time>2017-03-26T07:58:14.000Z</time>
      </trkpt>
      <trkpt lat="47.44038" lon="6.79583">
        <ele>486.6</ele>
        <time>2017-03-26T07:58:15.000Z</time>
      </trkpt>
      <trkpt lat="47.44035" lon="6.79583">
        <ele>487</ele>
        <time>2017-03-26T07:58:16.000Z</time>
      </trkpt>
      <trkpt lat="47.44031" lon="6.79582">
        <ele>487.7</ele>
        <time>2017-03-26T07:58:18.000Z</time>
      </trkpt>
      <trkpt lat="47.44028" lon="6.79582">
        <ele>488.1</ele>
        <time>2017-03-26T07:58:19.000Z</time>
      </trkpt>
      <trkpt lat="47.44024" lon="6.79582">
        <ele>489.1</ele>
        <time>2017-03-26T07:58:21.000Z</time>
      </trkpt>
      <trkpt lat="47.44023" lon="6.79582">
        <ele>489.5</ele>
        <time>2017-03-26T07:58:22.000Z</time>
      </trkpt>
      <trkpt lat="47.44019" lon="6.79581">
        <ele>490.2</ele>
        <time>2017-03-26T07:58:24.000Z</time>
      </trkpt>
      <trkpt lat="47.44016" lon="6.79581">
        <ele>490.6</ele>
        <time>2017-03-26T07:58:25.000Z</time>
      </trkpt>
      <trkpt lat="47.44012" lon="6.79579">
        <ele>491.5</ele>
        <time>2017-03-26T07:58:27.000Z</time>
      </trkpt>
      <trkpt lat="47.44011" lon="6.79578">
        <ele>491.9</ele>
        <time>2017-03-26T07:58:28.000Z</time>
      </trkpt>
      <trkpt lat="47.44007" lon="6.79577">
        <ele>492.6</ele>
        <time>2017-03-26T07:58:30.000Z</time>
      </trkpt>
      <trkpt lat="47.44004" lon="6.79576">
        <ele>492.9</ele>
        <time>2017-03-26T07:58:31.000Z</time>
      </trkpt>
      <trkpt lat="47.44002" lon="6.79575">
        <ele>493.5</ele>
        <time>2017-03-26T07:58:33.000Z</time>
      </trkpt>
      <trkpt lat="47.43999" lon="6.79575">
        <ele>493.8</ele>
        <time>2017-03-26T07:58:34.000Z</time>
      </trkpt>
      <trkpt lat="47.43995" lon="6.79574">
        <ele>494.6</ele>
        <time>2017-03-26T07:58:37.000Z</time>
      </trkpt>
      <trkpt lat="47.43994" lon="6.79574">
        <ele>494.8</ele>
        <time>2017-03-26T07:58:38.000Z</time>
      </trkpt>
      <trkpt lat="47.43991" lon="6.79574">
        <ele>495.3</ele>
        <time>2017-03-26T07:58:40.000Z</time>
      </trkpt>
      <trkpt lat="47.43988" lon="6.79574">
        <ele>495.6</ele>
        <time>2017-03-26T07:58:41.000Z</time>
      </trkpt>
      <trkpt lat="47.43984" lon="6.79576">
        <ele>496.2</ele>
        <time>2017-03-26T07:58:43.000Z</time>
      </trkpt>
      <trkpt lat="47.43983" lon="6.79577">
        <ele>496.5</ele>
        <time>2017-03-26T07:58:44.000Z</time>
      </trkpt>
      <trkpt lat="47.4398" lon="6.7958">
        <ele>497.1</ele>
        <time>2017-03-26T07:58:47.000Z</time>
      </trkpt>
      <trkpt lat="47.43978" lon="6.79582">
        <ele>497.4</ele>
        <time>2017-03-26T07:58:48.000Z</time>
      </trkpt>
      <trkpt lat="47.43975" lon="6.79585">
        <ele>498</ele>
        <time>2017-03-26T07:58:51.000Z</time>
      </trkpt>
      <trkpt lat="47.43973" lon="6.79587">
        <ele>498.1</ele>
        <time>2017-03-26T07:58:52.000Z</time>
      </trkpt>
      <trkpt lat="47.43968" lon="6.79591">
        <ele>498.4</ele>
        <time>2017-03-26T07:58:53.000Z</time>
      </trkpt>
      <trkpt lat="47.43965" lon="6.79593">
        <ele>499.1</ele>
        <time>2017-03-26T07:58:56.000Z</time>
      </trkpt>
      <trkpt lat="47.43963" lon="6.79594">
        <ele>499.3</ele>
        <time>2017-03-26T07:58:57.000Z</time>
      </trkpt>
      <trkpt lat="47.4396" lon="6.79594">
        <ele>499.5</ele>
        <time>2017-03-26T07:58:58.000Z</time>
      </trkpt>
      <trkpt lat="47.43953" lon="6.79596">
        <ele>499.6</ele>
        <time>2017-03-26T07:58:59.000Z</time>
      </trkpt>
      <trkpt lat="47.43948" lon="6.79597">
        <ele>499.8</ele>
        <time>2017-03-26T07:59:00.000Z</time>
      </trkpt>
      <trkpt lat="47.43944" lon="6.79597">
        <ele>500.2</ele>
        <time>2017-03-26T07:59:02.000Z</time>
      </trkpt>
      <trkpt lat="47.43944" lon="6.79596">
        <ele>500.5</ele>
        <time>2017-03-26T07:59:03.000Z</time>
      </trkpt>
      <trkpt lat="47.43942" lon="6.79596">
        <ele>500.8</ele>
        <time>2017-03-26T07:59:04.000Z</time>
      </trkpt>
      <trkpt lat="47.43938" lon="6.79592">
        <ele>501.1</ele>
        <time>2017-03-26T07:59:05.000Z</time>
      </trkpt>
      <trkpt lat="47.43934" lon="6.79591">
        <ele>501.5</ele>
        <time>2017-03-26T07:59:07.000Z</time>
      </trkpt>
      <trkpt lat="47.4393" lon="6.79591">
        <ele>501.7</ele>
        <time>2017-03-26T07:59:08.000Z</time>
      </trkpt>
      <trkpt lat="47.43927" lon="6.79591">
        <ele>501.9</ele>
        <time>2017-03-26T07:59:09.000Z</time>
      </trkpt>
      <trkpt lat="47.43925" lon="6.79592">
        <ele>502.2</ele>
        <time>2017-03-26T07:59:10.000Z</time>
      </trkpt>
      <trkpt lat="47.43921" lon="6.79592">
        <ele>502.4</ele>
        <time>2017-03-26T07:59:12.000Z</time>
      </trkpt>
      <trkpt lat="47.43919" lon="6.79591">
        <ele>502.5</ele>
        <time>2017-03-26T07:59:13.000Z</time>
      </trkpt>
      <trkpt lat="47.43915" lon="6.79591">
        <ele>502.6</ele>
        <time>2017-03-26T07:59:15.000Z</time>
      </trkpt>
      <trkpt lat="47.43914" lon="6.7959">
        <ele>502.7</ele>
        <time>2017-03-26T07:59:16.000Z</time>
      </trkpt>
      <trkpt lat="47.4391" lon="6.79588">
        <ele>502.6</ele>
        <time>2017-03-26T07:59:18.000Z</time>
      </trkpt>
      <trkpt lat="47.43909" lon="6.79587">
        <ele>502.5</ele>
        <time>2017-03-26T07:59:19.000Z</time>
      </trkpt>
      <trkpt lat="47.43907" lon="6.79586">
        <ele>502.3</ele>
        <time>2017-03-26T07:59:20.000Z</time>
      </trkpt>
      <trkpt lat="47.43904" lon="6.79583">
        <ele>502.2</ele>
        <time>2017-03-26T07:59:21.000Z</time>
      </trkpt>
      <trkpt lat="47.43902" lon="6.79581">
        <ele>502.1</ele>
        <time>2017-03-26T07:59:22.000Z</time>
      </trkpt>
      <trkpt lat="47.439" lon="6.7958">
        <ele>501.9</ele>
        <time>2017-03-26T07:59:23.000Z</time>
      </trkpt>
      <trkpt lat="47.43898" lon="6.79579">
        <ele>501.8</ele>
        <time>2017-03-26T07:59:24.000Z</time>
      </trkpt>
      <trkpt lat="47.43896" lon="6.79574">
        <ele>501.7</ele>
        <time>2017-03-26T07:59:25.000Z</time>
      </trkpt>
      <trkpt lat="47.43893" lon="6.79572">
        <ele>501.6</ele>
        <time>2017-03-26T07:59:26.000Z</time>
      </trkpt>
      <trkpt lat="47.43891" lon="6.79569">
        <ele>501.5</ele>
        <time>2017-03-26T07:59:27.000Z</time>
      </trkpt>
      <trkpt lat="47.4389" lon="6.79568">
        <ele>501.4</ele>
        <time>2017-03-26T07:59:28.000Z</time>
      </trkpt>
      <trkpt lat="47.43887" lon="6.79565">
        <ele>501.4</ele>
        <time>2017-03-26T07:59:29.000Z</time>
      </trkpt>
      <trkpt lat="47.43884" lon="6.79561">
        <ele>501.4</ele>
        <time>2017-03-26T07:59:30.000Z</time>
      </trkpt>
      <trkpt lat="47.43881" lon="6.79558">
        <ele>501.4</ele>
        <time>2017-03-26T07:59:31.000Z</time>
      </trkpt>
      <trkpt lat="47.43878" lon="6.79555">
        <ele>501.5</ele>
        <time>2017-03-26T07:59:32.000Z</time>
      </trkpt>
      <trkpt lat="47.43876" lon="6.79552">
        <ele>501.5</ele>
        <time>2017-03-26T07:59:33.000Z</time>
      </trkpt>
      <trkpt lat="47.43874" lon="6.79551">
        <ele>501.7</ele>
        <time>2017-03-26T07:59:34.000Z</time>
      </trkpt>
      <trkpt lat="47.43871" lon="6.7955">
        <ele>501.8</ele>
        <time>2017-03-26T07:59:35.000Z</time>
      </trkpt>
      <trkpt lat="47.43869" lon="6.79547">
        <ele>502</ele>
        <time>2017-03-26T07:59:36.000Z</time>
      </trkpt>
      <trkpt lat="47.43867" lon="6.79545">
        <ele>502.2</ele>
        <time>2017-03-26T07:59:38.000Z</time>
      </trkpt>
      <trkpt lat="47.43865" lon="6.79543">
        <ele>502.3</ele>
        <time>2017-03-26T07:59:39.000Z</time>
      </trkpt>
      <trkpt lat="47.43861" lon="6.79541">
        <ele>502.5</ele>
        <time>2017-03-26T07:59:41.000Z</time>
      </trkpt>
      <trkpt lat="47.43858" lon="6.79542">
        <ele>502.6</ele>
        <time>2017-03-26T07:59:42.000Z</time>
      </trkpt>
      <trkpt lat="47.43855" lon="6.79542">
        <ele>502.8</ele>
        <time>2017-03-26T07:59:43.000Z</time>
      </trkpt>
      <trkpt lat="47.43853" lon="6.79541">
        <ele>502.8</ele>
        <time>2017-03-26T07:59:44.000Z</time>
      </trkpt>
      <trkpt lat="47.43849" lon="6.79541">
        <ele>502.9</ele>
        <time>2017-03-26T07:59:45.000Z</time>
      </trkpt>
      <trkpt lat="47.43847" lon="6.79542">
        <ele>503.1</ele>
        <time>2017-03-26T07:59:46.000Z</time>
      </trkpt>
      <trkpt lat="47.43844" lon="6.79542">
        <ele>503.2</ele>
        <time>2017-03-26T07:59:47.000Z</time>
      </trkpt>
      <trkpt lat="47.43842" lon="6.79542">
        <ele>503.3</ele>
        <time>2017-03-26T07:59:48.000Z</time>
      </trkpt>
      <trkpt lat="47.43838" lon="6.7954">
        <ele>503.4</ele>
        <time>2017-03-26T07:59:50.000Z</time>
      </trkpt>
      <trkpt lat="47.43836" lon="6.7954">
        <ele>503.6</ele>
        <time>2017-03-26T07:59:51.000Z</time>
      </trkpt>
      <trkpt lat="47.43832" lon="6.79539">
        <ele>503.9</ele>
        <time>2017-03-26T07:59:53.000Z</time>
      </trkpt>
      <trkpt lat="47.4383" lon="6.79537">
        <ele>504</ele>
        <time>2017-03-26T07:59:54.000Z</time>
      </trkpt>
      <trkpt lat="47.43828" lon="6.79537">
        <ele>504.2</ele>
        <time>2017-03-26T07:59:55.000Z</time>
      </trkpt>
      <trkpt lat="47.43825" lon="6.79537">
        <ele>504.4</ele>
        <time>2017-03-26T07:59:56.000Z</time>
      </trkpt>
      <trkpt lat="47.43822" lon="6.79538">
        <ele>505</ele>
        <time>2017-03-26T07:59:59.000Z</time>
      </trkpt>
      <trkpt lat="47.4382" lon="6.79541">
        <ele>505.3</ele>
        <time>2017-03-26T08:00:00.000Z</time>
      </trkpt>
      <trkpt lat="47.43817" lon="6.79546">
        <ele>505.5</ele>
        <time>2017-03-26T08:00:01.000Z</time>
      </trkpt>
      <trkpt lat="47.43815" lon="6.79551">
        <ele>505.9</ele>
        <time>2017-03-26T08:00:02.000Z</time>
      </trkpt>
      <trkpt lat="47.43812" lon="6.79554">
        <ele>506.2</ele>
        <time>2017-03-26T08:00:03.000Z</time>
      </trkpt>
      <trkpt lat="47.4381" lon="6.79555">
        <ele>506.4</ele>
        <time>2017-03-26T08:00:04.000Z</time>
      </trkpt>
      <trkpt lat="47.43807" lon="6.79554">
        <ele>506.6</ele>
        <time>2017-03-26T08:00:06.000Z</time>
      </trkpt>
      <trkpt lat="47.43806" lon="6.79551">
        <ele>506.7</ele>
        <time>2017-03-26T08:00:07.000Z</time>
      </trkpt>
      <trkpt lat="47.43805" lon="6.79549">
        <ele>506.8</ele>
        <time>2017-03-26T08:00:08.000Z</time>
      </trkpt>
      <trkpt lat="47.43804" lon="6.79543">
        <ele>506.8</ele>
        <time>2017-03-26T08:00:09.000Z</time>
      </trkpt>
      <trkpt lat="47.43804" lon="6.7954">
        <ele>506.8</ele>
        <time>2017-03-26T08:00:10.000Z</time>
      </trkpt>
      <trkpt lat="47.43803" lon="6.79536">
        <ele>506.8</ele>
        <time>2017-03-26T08:00:11.000Z</time>
      </trkpt>
      <trkpt lat="47.43803" lon="6.79534">
        <ele>506.8</ele>
        <time>2017-03-26T08:00:12.000Z</time>
      </trkpt>
      <trkpt lat="47.43801" lon="6.79529">
        <ele>506.8</ele>
        <time>2017-03-26T08:00:13.000Z</time>
      </trkpt>
      <trkpt lat="47.43801" lon="6.79525">
        <ele>506.6</ele>
        <time>2017-03-26T08:00:14.000Z</time>
      </trkpt>
      <trkpt lat="47.438" lon="6.79519">
        <ele>506.5</ele>
        <time>2017-03-26T08:00:15.000Z</time>
      </trkpt>
      <trkpt lat="47.43798" lon="6.79509">
        <ele>506.5</ele>
        <time>2017-03-26T08:00:16.000Z</time>
      </trkpt>
      <trkpt lat="47.43797" lon="6.79503">
        <ele>506.4</ele>
        <time>2017-03-26T08:00:18.000Z</time>
      </trkpt>
      <trkpt lat="47.43797" lon="6.79501">
        <ele>506.4</ele>
        <time>2017-03-26T08:00:19.000Z</time>
      </trkpt>
      <trkpt lat="47.43799" lon="6.79502">
        <ele>506</ele>
        <time>2017-03-26T08:00:27.000Z</time>
      </trkpt>
      <trkpt lat="47.43801" lon="6.79508">
        <ele>505.8</ele>
        <time>2017-03-26T08:00:28.000Z</time>
      </trkpt>
      <trkpt lat="47.43802" lon="6.79511">
        <ele>505.6</ele>
        <time>2017-03-26T08:00:29.000Z</time>
      </trkpt>
      <trkpt lat="47.43801" lon="6.79517">
        <ele>505.4</ele>
        <time>2017-03-26T08:00:30.000Z</time>
      </trkpt>
      <trkpt lat="47.43801" lon="6.79523">
        <ele>505.1</ele>
        <time>2017-03-26T08:00:32.000Z</time>
      </trkpt>
      <trkpt lat="47.43801" lon="6.79525">
        <ele>505</ele>
        <time>2017-03-26T08:00:33.000Z</time>
      </trkpt>
      <trkpt lat="47.438" lon="6.79531">
        <ele>504.6</ele>
        <time>2017-03-26T08:00:35.000Z</time>
      </trkpt>
      <trkpt lat="47.43801" lon="6.79532">
        <ele>504.4</ele>
        <time>2017-03-26T08:00:36.000Z</time>
      </trkpt>
      <trkpt lat="47.43801" lon="6.79538">
        <ele>504</ele>
        <time>2017-03-26T08:00:39.000Z</time>
      </trkpt>
      <trkpt lat="47.43802" lon="6.79539">
        <ele>503.8</ele>
        <time>2017-03-26T08:00:40.000Z</time>
      </trkpt>
      <trkpt lat="47.438" lon="6.79534">
        <ele>507.9</ele>
        <time>2017-03-26T08:01:34.000Z</time>
      </trkpt>
      <trkpt lat="47.43799" lon="6.79531">
        <ele>508.2</ele>
        <time>2017-03-26T08:01:35.000Z</time>
      </trkpt>
      <trkpt lat="47.43798" lon="6.79528">
        <ele>508.3</ele>
        <time>2017-03-26T08:01:36.000Z</time>
      </trkpt>
      <trkpt lat="47.43798" lon="6.79523">
        <ele>508.3</ele>
        <time>2017-03-26T08:01:37.000Z</time>
      </trkpt>
      <trkpt lat="47.43798" lon="6.79518">
        <ele>508.3</ele>
        <time>2017-03-26T08:01:38.000Z</time>
      </trkpt>
      <trkpt lat="47.43797" lon="6.79513">
        <ele>508.4</ele>
        <time>2017-03-26T08:01:39.000Z</time>
      </trkpt>
      <trkpt lat="47.43795" lon="6.79507">
        <ele>508.4</ele>
        <time>2017-03-26T08:01:41.000Z</time>
      </trkpt>
      <trkpt lat="47.43794" lon="6.79502">
        <ele>508.5</ele>
        <time>2017-03-26T08:01:42.000Z</time>
      </trkpt>
      <trkpt lat="47.43793" lon="6.79497">
        <ele>508.6</ele>
        <time>2017-03-26T08:01:43.000Z</time>
      </trkpt>
      <trkpt lat="47.43793" lon="6.79494">
        <ele>508.8</ele>
        <time>2017-03-26T08:01:44.000Z</time>
      </trkpt>
      <trkpt lat="47.43792" lon="6.79486">
        <ele>508.9</ele>
        <time>2017-03-26T08:01:45.000Z</time>
      </trkpt>
      <trkpt lat="47.43791" lon="6.79479">
        <ele>509.2</ele>
        <time>2017-03-26T08:01:46.000Z</time>
      </trkpt>
      <trkpt lat="47.4379" lon="6.79474">
        <ele>509.5</ele>
        <time>2017-03-26T08:01:47.000Z</time>
      </trkpt>
      <trkpt lat="47.43789" lon="6.7947">
        <ele>509.8</ele>
        <time>2017-03-26T08:01:48.000Z</time>
      </trkpt>
      <trkpt lat="47.43789" lon="6.79467">
        <ele>510.1</ele>
        <time>2017-03-26T08:01:49.000Z</time>
      </trkpt>
      <trkpt lat="47.43791" lon="6.7946">
        <ele>510.4</ele>
        <time>2017-03-26T08:01:50.000Z</time>
      </trkpt>
      <trkpt lat="47.43789" lon="6.79455">
        <ele>510.6</ele>
        <time>2017-03-26T08:01:51.000Z</time>
      </trkpt>
      <trkpt lat="47.43788" lon="6.79451">
        <ele>510.8</ele>
        <time>2017-03-26T08:01:52.000Z</time>
      </trkpt>
      <trkpt lat="47.43788" lon="6.79447">
        <ele>511</ele>
        <time>2017-03-26T08:01:53.000Z</time>
      </trkpt>
      <trkpt lat="47.43787" lon="6.79443">
        <ele>511.1</ele>
        <time>2017-03-26T08:01:54.000Z</time>
      </trkpt>
      <trkpt lat="47.43786" lon="6.79439">
        <ele>511.1</ele>
        <time>2017-03-26T08:01:55.000Z</time>
      </trkpt>
      <trkpt lat="47.43785" lon="6.79436">
        <ele>511.2</ele>
        <time>2017-03-26T08:01:56.000Z</time>
      </trkpt>
      <trkpt lat="47.43784" lon="6.79432">
        <ele>511.2</ele>
        <time>2017-03-26T08:01:57.000Z</time>
      </trkpt>
      <trkpt lat="47.43782" lon="6.79428">
        <ele>511.2</ele>
        <time>2017-03-26T08:01:58.000Z</time>
      </trkpt>
      <trkpt lat="47.43779" lon="6.79422">
        <ele>511.3</ele>
        <time>2017-03-26T08:01:59.000Z</time>
      </trkpt>
      <trkpt lat="47.43777" lon="6.79419">
        <ele>511.4</ele>
        <time>2017-03-26T08:02:01.000Z</time>
      </trkpt>
      <trkpt lat="47.43775" lon="6.79418">
        <ele>511.5</ele>
        <time>2017-03-26T08:02:02.000Z</time>
      </trkpt>
      <trkpt lat="47.43772" lon="6.79418">
        <ele>511.9</ele>
        <time>2017-03-26T08:02:04.000Z</time>
      </trkpt>
      <trkpt lat="47.4377" lon="6.79418">
        <ele>512</ele>
        <time>2017-03-26T08:02:05.000Z</time>
      </trkpt>
      <trkpt lat="47.43766" lon="6.79419">
        <ele>512.1</ele>
        <time>2017-03-26T08:02:06.000Z</time>
      </trkpt>
      <trkpt lat="47.43764" lon="6.79419">
        <ele>512.3</ele>
        <time>2017-03-26T08:02:07.000Z</time>
      </trkpt>
      <trkpt lat="47.43762" lon="6.7942">
        <ele>512.4</ele>
        <time>2017-03-26T08:02:08.000Z</time>
      </trkpt>
      <trkpt lat="47.4376" lon="6.79422">
        <ele>512.6</ele>
        <time>2017-03-26T08:02:09.000Z</time>
      </trkpt>
      <trkpt lat="47.43757" lon="6.79425">
        <ele>512.6</ele>
        <time>2017-03-26T08:02:10.000Z</time>
      </trkpt>
      <trkpt lat="47.43754" lon="6.79426">
        <ele>512.7</ele>
        <time>2017-03-26T08:02:11.000Z</time>
      </trkpt>
      <trkpt lat="47.43752" lon="6.79428">
        <ele>512.8</ele>
        <time>2017-03-26T08:02:12.000Z</time>
      </trkpt>
      <trkpt lat="47.4375" lon="6.79428">
        <ele>512.9</ele>
        <time>2017-03-26T08:02:13.000Z</time>
      </trkpt>
      <trkpt lat="47.43747" lon="6.79429">
        <ele>513</ele>
        <time>2017-03-26T08:02:15.000Z</time>
      </trkpt>
      <trkpt lat="47.43745" lon="6.79429">
        <ele>513.2</ele>
        <time>2017-03-26T08:02:16.000Z</time>
      </trkpt>
      <trkpt lat="47.4374" lon="6.79429">
        <ele>513.7</ele>
        <time>2017-03-26T08:02:18.000Z</time>
      </trkpt>
      <trkpt lat="47.43738" lon="6.79428">
        <ele>513.9</ele>
        <time>2017-03-26T08:02:19.000Z</time>
      </trkpt>
      <trkpt lat="47.43735" lon="6.79428">
        <ele>514.2</ele>
        <time>2017-03-26T08:02:20.000Z</time>
      </trkpt>
      <trkpt lat="47.43733" lon="6.79427">
        <ele>514.4</ele>
        <time>2017-03-26T08:02:21.000Z</time>
      </trkpt>
      <trkpt lat="47.4373" lon="6.79427">
        <ele>514.6</ele>
        <time>2017-03-26T08:02:22.000Z</time>
      </trkpt>
      <trkpt lat="47.43727" lon="6.79427">
        <ele>514.9</ele>
        <time>2017-03-26T08:02:23.000Z</time>
      </trkpt>
      <trkpt lat="47.43723" lon="6.79425">
        <ele>515.1</ele>
        <time>2017-03-26T08:02:24.000Z</time>
      </trkpt>
      <trkpt lat="47.4372" lon="6.79423">
        <ele>515.4</ele>
        <time>2017-03-26T08:02:25.000Z</time>
      </trkpt>
      <trkpt lat="47.43717" lon="6.79422">
        <ele>515.8</ele>
        <time>2017-03-26T08:02:27.000Z</time>
      </trkpt>
      <trkpt lat="47.43715" lon="6.79422">
        <ele>516</ele>
        <time>2017-03-26T08:02:28.000Z</time>
      </trkpt>
      <trkpt lat="47.43713" lon="6.79423">
        <ele>516.1</ele>
        <time>2017-03-26T08:02:30.000Z</time>
      </trkpt>
      <trkpt lat="47.43711" lon="6.79424">
        <ele>516.2</ele>
        <time>2017-03-26T08:02:31.000Z</time>
      </trkpt>
      <trkpt lat="47.43708" lon="6.79426">
        <ele>516.3</ele>
        <time>2017-03-26T08:02:33.000Z</time>
      </trkpt>
      <trkpt lat="47.43706" lon="6.79427">
        <ele>516.3</ele>
        <time>2017-03-26T08:02:34.000Z</time>
      </trkpt>
      <trkpt lat="47.43704" lon="6.79428">
        <ele>516.3</ele>
        <time>2017-03-26T08:02:35.000Z</time>
      </trkpt>
      <trkpt lat="47.437" lon="6.79426">
        <ele>516.2</ele>
        <time>2017-03-26T08:02:36.000Z</time>
      </trkpt>
      <trkpt lat="47.43698" lon="6.79427">
        <ele>516.2</ele>
        <time>2017-03-26T08:02:37.000Z</time>
      </trkpt>
      <trkpt lat="47.43696" lon="6.79426">
        <ele>516.1</ele>
        <time>2017-03-26T08:02:38.000Z</time>
      </trkpt>
      <trkpt lat="47.43693" lon="6.79427">
        <ele>516</ele>
        <time>2017-03-26T08:02:39.000Z</time>
      </trkpt>
      <trkpt lat="47.43691" lon="6.79427">
        <ele>516</ele>
        <time>2017-03-26T08:02:40.000Z</time>
      </trkpt>
      <trkpt lat="47.43688" lon="6.79428">
        <ele>515.9</ele>
        <time>2017-03-26T08:02:41.000Z</time>
      </trkpt>
      <trkpt lat="47.43685" lon="6.79428">
        <ele>515.9</ele>
        <time>2017-03-26T08:02:42.000Z</time>
      </trkpt>
      <trkpt lat="47.43682" lon="6.79428">
        <ele>515.9</ele>
        <time>2017-03-26T08:02:43.000Z</time>
      </trkpt>
      <trkpt lat="47.4368" lon="6.79429">
        <ele>515.9</ele>
        <time>2017-03-26T08:02:44.000Z</time>
      </trkpt>
      <trkpt lat="47.43678" lon="6.79431">
        <ele>516</ele>
        <time>2017-03-26T08:02:45.000Z</time>
      </trkpt>
      <trkpt lat="47.43675" lon="6.79432">
        <ele>516</ele>
        <time>2017-03-26T08:02:46.000Z</time>
      </trkpt>
      <trkpt lat="47.43672" lon="6.79433">
        <ele>516.2</ele>
        <time>2017-03-26T08:02:47.000Z</time>
      </trkpt>
      <trkpt lat="47.43669" lon="6.79435">
        <ele>516.4</ele>
        <time>2017-03-26T08:02:48.000Z</time>
      </trkpt>
      <trkpt lat="47.43666" lon="6.79437">
        <ele>516.7</ele>
        <time>2017-03-26T08:02:49.000Z</time>
      </trkpt>
      <trkpt lat="47.43662" lon="6.79438">
        <ele>517</ele>
        <time>2017-03-26T08:02:50.000Z</time>
      </trkpt>
      <trkpt lat="47.43658" lon="6.79439">
        <ele>517.3</ele>
        <time>2017-03-26T08:02:51.000Z</time>
      </trkpt>
      <trkpt lat="47.43652" lon="6.79442">
        <ele>517.4</ele>
        <time>2017-03-26T08:02:52.000Z</time>
      </trkpt>
      <trkpt lat="47.43645" lon="6.79445">
        <ele>517.6</ele>
        <time>2017-03-26T08:02:53.000Z</time>
      </trkpt>
      <trkpt lat="47.43639" lon="6.79448">
        <ele>517.9</ele>
        <time>2017-03-26T08:02:54.000Z</time>
      </trkpt>
      <trkpt lat="47.43635" lon="6.7945">
        <ele>518.1</ele>
        <time>2017-03-26T08:02:55.000Z</time>
      </trkpt>
      <trkpt lat="47.43631" lon="6.79448">
        <ele>518.2</ele>
        <time>2017-03-26T08:02:56.000Z</time>
      </trkpt>
      <trkpt lat="47.43628" lon="6.79446">
        <ele>518.4</ele>
        <time>2017-03-26T08:02:57.000Z</time>
      </trkpt>
      <trkpt lat="47.43625" lon="6.79445">
        <ele>518.5</ele>
        <time>2017-03-26T08:02:58.000Z</time>
      </trkpt>
      <trkpt lat="47.43622" lon="6.79444">
        <ele>518.6</ele>
        <time>2017-03-26T08:02:59.000Z</time>
      </trkpt>
      <trkpt lat="47.4362" lon="6.79443">
        <ele>518.7</ele>
        <time>2017-03-26T08:03:00.000Z</time>
      </trkpt>
      <trkpt lat="47.43617" lon="6.79444">
        <ele>518.9</ele>
        <time>2017-03-26T08:03:01.000Z</time>
      </trkpt>
      <trkpt lat="47.43615" lon="6.79444">
        <ele>519.1</ele>
        <time>2017-03-26T08:03:02.000Z</time>
      </trkpt>
      <trkpt lat="47.43611" lon="6.79443">
        <ele>519.5</ele>
        <time>2017-03-26T08:03:04.000Z</time>
      </trkpt>
      <trkpt lat="47.43609" lon="6.79443">
        <ele>519.8</ele>
        <time>2017-03-26T08:03:05.000Z</time>
      </trkpt>
      <trkpt lat="47.43607" lon="6.79444">
        <ele>520</ele>
        <time>2017-03-26T08:03:06.000Z</time>
      </trkpt>
      <trkpt lat="47.43604" lon="6.79445">
        <ele>520.2</ele>
        <time>2017-03-26T08:03:07.000Z</time>
      </trkpt>
      <trkpt lat="47.43601" lon="6.79445">
        <ele>520.4</ele>
        <time>2017-03-26T08:03:08.000Z</time>
      </trkpt>
      <trkpt lat="47.43598" lon="6.79445">
        <ele>520.7</ele>
        <time>2017-03-26T08:03:09.000Z</time>
      </trkpt>
      <trkpt lat="47.43595" lon="6.79445">
        <ele>520.9</ele>
        <time>2017-03-26T08:03:10.000Z</time>
      </trkpt>
      <trkpt lat="47.4359" lon="6.79445">
        <ele>521</ele>
        <time>2017-03-26T08:03:11.000Z</time>
      </trkpt>
      <trkpt lat="47.43586" lon="6.79446">
        <ele>521.1</ele>
        <time>2017-03-26T08:03:12.000Z</time>
      </trkpt>
      <trkpt lat="47.43583" lon="6.79447">
        <ele>521.2</ele>
        <time>2017-03-26T08:03:13.000Z</time>
      </trkpt>
      <trkpt lat="47.43581" lon="6.79447">
        <ele>521.2</ele>
        <time>2017-03-26T08:03:14.000Z</time>
      </trkpt>
      <trkpt lat="47.43578" lon="6.79447">
        <ele>521.3</ele>
        <time>2017-03-26T08:03:15.000Z</time>
      </trkpt>
      <trkpt lat="47.43576" lon="6.79448">
        <ele>521.3</ele>
        <time>2017-03-26T08:03:16.000Z</time>
      </trkpt>
      <trkpt lat="47.43574" lon="6.79448">
        <ele>521.5</ele>
        <time>2017-03-26T08:03:17.000Z</time>
      </trkpt>
      <trkpt lat="47.4357" lon="6.79449">
        <ele>521.7</ele>
        <time>2017-03-26T08:03:19.000Z</time>
      </trkpt>
      <trkpt lat="47.43567" lon="6.79449">
        <ele>521.9</ele>
        <time>2017-03-26T08:03:20.000Z</time>
      </trkpt>
      <trkpt lat="47.43564" lon="6.7945">
        <ele>522</ele>
        <time>2017-03-26T08:03:21.000Z</time>
      </trkpt>
      <trkpt lat="47.43562" lon="6.79452">
        <ele>522.2</ele>
        <time>2017-03-26T08:03:22.000Z</time>
      </trkpt>
      <trkpt lat="47.4356" lon="6.79452">
        <ele>522.3</ele>
        <time>2017-03-26T08:03:23.000Z</time>
      </trkpt>
      <trkpt lat="47.43557" lon="6.79453">
        <ele>522.5</ele>
        <time>2017-03-26T08:03:24.000Z</time>
      </trkpt>
      <trkpt lat="47.43555" lon="6.79454">
        <ele>522.6</ele>
        <time>2017-03-26T08:03:25.000Z</time>
      </trkpt>
      <trkpt lat="47.43553" lon="6.79454">
        <ele>522.6</ele>
        <time>2017-03-26T08:03:26.000Z</time>
      </trkpt>
      <trkpt lat="47.4355" lon="6.79454">
        <ele>522.7</ele>
        <time>2017-03-26T08:03:27.000Z</time>
      </trkpt>
      <trkpt lat="47.43547" lon="6.79456">
        <ele>522.9</ele>
        <time>2017-03-26T08:03:28.000Z</time>
      </trkpt>
      <trkpt lat="47.43544" lon="6.79459">
        <ele>523.1</ele>
        <time>2017-03-26T08:03:29.000Z</time>
      </trkpt>
      <trkpt lat="47.43541" lon="6.79461">
        <ele>523.3</ele>
        <time>2017-03-26T08:03:30.000Z</time>
      </trkpt>
      <trkpt lat="47.43536" lon="6.79463">
        <ele>523.5</ele>
        <time>2017-03-26T08:03:31.000Z</time>
      </trkpt>
      <trkpt lat="47.43533" lon="6.79465">
        <ele>523.7</ele>
        <time>2017-03-26T08:03:32.000Z</time>
      </trkpt>
      <trkpt lat="47.43529" lon="6.79467">
        <ele>523.9</ele>
        <time>2017-03-26T08:03:33.000Z</time>
      </trkpt>
      <trkpt lat="47.43525" lon="6.79469">
        <ele>524</ele>
        <time>2017-03-26T08:03:34.000Z</time>
      </trkpt>
      <trkpt lat="47.43521" lon="6.79471">
        <ele>524.1</ele>
        <time>2017-03-26T08:03:35.000Z</time>
      </trkpt>
      <trkpt lat="47.43518" lon="6.79473">
        <ele>524.2</ele>
        <time>2017-03-26T08:03:36.000Z</time>
      </trkpt>
      <trkpt lat="47.43516" lon="6.79474">
        <ele>524.3</ele>
        <time>2017-03-26T08:03:37.000Z</time>
      </trkpt>
      <trkpt lat="47.4351" lon="6.79476">
        <ele>524.3</ele>
        <time>2017-03-26T08:03:38.000Z</time>
      </trkpt>
      <trkpt lat="47.43505" lon="6.7948">
        <ele>524.3</ele>
        <time>2017-03-26T08:03:39.000Z</time>
      </trkpt>
      <trkpt lat="47.43501" lon="6.79483">
        <ele>524.4</ele>
        <time>2017-03-26T08:03:40.000Z</time>
      </trkpt>
      <trkpt lat="47.43497" lon="6.79485">
        <ele>524.4</ele>
        <time>2017-03-26T08:03:41.000Z</time>
      </trkpt>
      <trkpt lat="47.43494" lon="6.79486">
        <ele>524.4</ele>
        <time>2017-03-26T08:03:42.000Z</time>
      </trkpt>
      <trkpt lat="47.43491" lon="6.79487">
        <ele>524.4</ele>
        <time>2017-03-26T08:03:43.000Z</time>
      </trkpt>
      <trkpt lat="47.43488" lon="6.79488">
        <ele>524.4</ele>
        <time>2017-03-26T08:03:44.000Z</time>
      </trkpt>
      <trkpt lat="47.43485" lon="6.79489">
        <ele>524.5</ele>
        <time>2017-03-26T08:03:45.000Z</time>
      </trkpt>
      <trkpt lat="47.43482" lon="6.79492">
        <ele>524.6</ele>
        <time>2017-03-26T08:03:46.000Z</time>
      </trkpt>
      <trkpt lat="47.43479" lon="6.79496">
        <ele>524.6</ele>
        <time>2017-03-26T08:03:47.000Z</time>
      </trkpt>
      <trkpt lat="47.43475" lon="6.79497">
        <ele>524.6</ele>
        <time>2017-03-26T08:03:48.000Z</time>
      </trkpt>
      <trkpt lat="47.4347" lon="6.795">
        <ele>524.7</ele>
        <time>2017-03-26T08:03:49.000Z</time>
      </trkpt>
      <trkpt lat="47.43467" lon="6.79504">
        <ele>524.7</ele>
        <time>2017-03-26T08:03:50.000Z</time>
      </trkpt>
      <trkpt lat="47.43465" lon="6.79506">
        <ele>524.8</ele>
        <time>2017-03-26T08:03:51.000Z</time>
      </trkpt>
      <trkpt lat="47.43461" lon="6.79507">
        <ele>524.9</ele>
        <time>2017-03-26T08:03:52.000Z</time>
      </trkpt>
      <trkpt lat="47.43457" lon="6.79509">
        <ele>524.8</ele>
        <time>2017-03-26T08:03:53.000Z</time>
      </trkpt>
      <trkpt lat="47.43454" lon="6.79513">
        <ele>524.8</ele>
        <time>2017-03-26T08:03:54.000Z</time>
      </trkpt>
      <trkpt lat="47.43448" lon="6.7952">
        <ele>524.7</ele>
        <time>2017-03-26T08:03:55.000Z</time>
      </trkpt>
      <trkpt lat="47.43442" lon="6.79523">
        <ele>524.5</ele>
        <time>2017-03-26T08:03:56.000Z</time>
      </trkpt>
      <trkpt lat="47.43436" lon="6.79525">
        <ele>524.3</ele>
        <time>2017-03-26T08:03:57.000Z</time>
      </trkpt>
      <trkpt lat="47.43429" lon="6.79527">
        <ele>524.2</ele>
        <time>2017-03-26T08:03:58.000Z</time>
      </trkpt>
      <trkpt lat="47.43424" lon="6.79527">
        <ele>524.1</ele>
        <time>2017-03-26T08:03:59.000Z</time>
      </trkpt>
      <trkpt lat="47.43419" lon="6.79527">
        <ele>523.9</ele>
        <time>2017-03-26T08:04:00.000Z</time>
      </trkpt>
      <trkpt lat="47.43415" lon="6.79527">
        <ele>523.8</ele>
        <time>2017-03-26T08:04:01.000Z</time>
      </trkpt>
      <trkpt lat="47.43411" lon="6.79527">
        <ele>523.6</ele>
        <time>2017-03-26T08:04:02.000Z</time>
      </trkpt>
      <trkpt lat="47.43406" lon="6.79528">
        <ele>523.5</ele>
        <time>2017-03-26T08:04:03.000Z</time>
      </trkpt>
      <trkpt lat="47.43403" lon="6.79529">
        <ele>523.4</ele>
        <time>2017-03-26T08:04:04.000Z</time>
      </trkpt>
      <trkpt lat="47.43399" lon="6.79529">
        <ele>523.3</ele>
        <time>2017-03-26T08:04:05.000Z</time>
      </trkpt>
      <trkpt lat="47.43396" lon="6.7953">
        <ele>523.3</ele>
        <time>2017-03-26T08:04:06.000Z</time>
      </trkpt>
      <trkpt lat="47.43393" lon="6.79533">
        <ele>523.3</ele>
        <time>2017-03-26T08:04:07.000Z</time>
      </trkpt>
      <trkpt lat="47.43388" lon="6.79536">
        <ele>523.2</ele>
        <time>2017-03-26T08:04:08.000Z</time>
      </trkpt>
      <trkpt lat="47.43384" lon="6.79538">
        <ele>523.2</ele>
        <time>2017-03-26T08:04:09.000Z</time>
      </trkpt>
      <trkpt lat="47.43382" lon="6.7954">
        <ele>523.2</ele>
        <time>2017-03-26T08:04:10.000Z</time>
      </trkpt>
      <trkpt lat="47.43379" lon="6.79543">
        <ele>523.2</ele>
        <time>2017-03-26T08:04:11.000Z</time>
      </trkpt>
      <trkpt lat="47.43377" lon="6.79544">
        <ele>523.2</ele>
        <time>2017-03-26T08:04:12.000Z</time>
      </trkpt>
      <trkpt lat="47.43374" lon="6.79546">
        <ele>523.4</ele>
        <time>2017-03-26T08:04:14.000Z</time>
      </trkpt>
      <trkpt lat="47.4337" lon="6.79547">
        <ele>523.4</ele>
        <time>2017-03-26T08:04:15.000Z</time>
      </trkpt>
      <trkpt lat="47.43366" lon="6.79548">
        <ele>523.4</ele>
        <time>2017-03-26T08:04:16.000Z</time>
      </trkpt>
      <trkpt lat="47.43362" lon="6.79549">
        <ele>523.4</ele>
        <time>2017-03-26T08:04:17.000Z</time>
      </trkpt>
      <trkpt lat="47.43358" lon="6.7955">
        <ele>523.5</ele>
        <time>2017-03-26T08:04:19.000Z</time>
      </trkpt>
      <trkpt lat="47.43357" lon="6.7955">
        <ele>523.5</ele>
        <time>2017-03-26T08:04:20.000Z</time>
      </trkpt>
      <trkpt lat="47.43355" lon="6.7955">
        <ele>523.5</ele>
        <time>2017-03-26T08:04:21.000Z</time>
      </trkpt>
      <trkpt lat="47.43351" lon="6.7955">
        <ele>523.6</ele>
        <time>2017-03-26T08:04:22.000Z</time>
      </trkpt>
      <trkpt lat="47.43348" lon="6.7955">
        <ele>523.6</ele>
        <time>2017-03-26T08:04:23.000Z</time>
      </trkpt>
      <trkpt lat="47.43346" lon="6.7955">
        <ele>523.6</ele>
        <time>2017-03-26T08:04:24.000Z</time>
      </trkpt>
      <trkpt lat="47.43342" lon="6.7955">
        <ele>523.9</ele>
        <time>2017-03-26T08:04:26.000Z</time>
      </trkpt>
      <trkpt lat="47.43341" lon="6.79551">
        <ele>524.1</ele>
        <time>2017-03-26T08:04:27.000Z</time>
      </trkpt>
      <trkpt lat="47.43337" lon="6.79553">
        <ele>524.8</ele>
        <time>2017-03-26T08:04:32.000Z</time>
      </trkpt>
      <trkpt lat="47.43337" lon="6.79552">
        <ele>525</ele>
        <time>2017-03-26T08:04:33.000Z</time>
      </trkpt>
      <trkpt lat="47.43332" lon="6.79552">
        <ele>525.6</ele>
        <time>2017-03-26T08:04:36.000Z</time>
      </trkpt>
      <trkpt lat="47.43331" lon="6.79552">
        <ele>525.8</ele>
        <time>2017-03-26T08:04:37.000Z</time>
      </trkpt>
      <trkpt lat="47.43328" lon="6.79553">
        <ele>526.6</ele>
        <time>2017-03-26T08:04:41.000Z</time>
      </trkpt>
      <trkpt lat="47.43327" lon="6.79553">
        <ele>526.9</ele>
        <time>2017-03-26T08:04:42.000Z</time>
      </trkpt>
      <trkpt lat="47.43324" lon="6.79555">
        <ele>527.2</ele>
        <time>2017-03-26T08:04:43.000Z</time>
      </trkpt>
      <trkpt lat="47.43321" lon="6.79556">
        <ele>527.4</ele>
        <time>2017-03-26T08:04:44.000Z</time>
      </trkpt>
      <trkpt lat="47.43317" lon="6.79557">
        <ele>528</ele>
        <time>2017-03-26T08:04:46.000Z</time>
      </trkpt>
      <trkpt lat="47.43314" lon="6.79557">
        <ele>528.2</ele>
        <time>2017-03-26T08:04:47.000Z</time>
      </trkpt>
      <trkpt lat="47.4331" lon="6.79558">
        <ele>528.5</ele>
        <time>2017-03-26T08:04:48.000Z</time>
      </trkpt>
      <trkpt lat="47.43306" lon="6.79559">
        <ele>528.8</ele>
        <time>2017-03-26T08:04:49.000Z</time>
      </trkpt>
      <trkpt lat="47.43302" lon="6.7956">
        <ele>529</ele>
        <time>2017-03-26T08:04:50.000Z</time>
      </trkpt>
      <trkpt lat="47.43297" lon="6.79561">
        <ele>529.2</ele>
        <time>2017-03-26T08:04:51.000Z</time>
      </trkpt>
      <trkpt lat="47.43293" lon="6.79562">
        <ele>529.4</ele>
        <time>2017-03-26T08:04:52.000Z</time>
      </trkpt>
      <trkpt lat="47.43286" lon="6.79567">
        <ele>529.6</ele>
        <time>2017-03-26T08:04:53.000Z</time>
      </trkpt>
      <trkpt lat="47.4328" lon="6.79569">
        <ele>529.7</ele>
        <time>2017-03-26T08:04:54.000Z</time>
      </trkpt>
      <trkpt lat="47.43273" lon="6.7957">
        <ele>529.7</ele>
        <time>2017-03-26T08:04:55.000Z</time>
      </trkpt>
      <trkpt lat="47.43265" lon="6.79568">
        <ele>529.7</ele>
        <time>2017-03-26T08:04:56.000Z</time>
      </trkpt>
      <trkpt lat="47.43259" lon="6.79568">
        <ele>529.7</ele>
        <time>2017-03-26T08:04:57.000Z</time>
      </trkpt>
      <trkpt lat="47.43253" lon="6.79569">
        <ele>529.7</ele>
        <time>2017-03-26T08:04:58.000Z</time>
      </trkpt>
      <trkpt lat="47.43248" lon="6.7957">
        <ele>529.8</ele>
        <time>2017-03-26T08:04:59.000Z</time>
      </trkpt>
      <trkpt lat="47.43245" lon="6.79573">
        <ele>529.8</ele>
        <time>2017-03-26T08:05:00.000Z</time>
      </trkpt>
      <trkpt lat="47.43243" lon="6.79575">
        <ele>529.9</ele>
        <time>2017-03-26T08:05:01.000Z</time>
      </trkpt>
      <trkpt lat="47.4324" lon="6.79577">
        <ele>529.8</ele>
        <time>2017-03-26T08:05:02.000Z</time>
      </trkpt>
      <trkpt lat="47.43237" lon="6.79578">
        <ele>529.8</ele>
        <time>2017-03-26T08:05:03.000Z</time>
      </trkpt>
      <trkpt lat="47.43233" lon="6.79579">
        <ele>529.8</ele>
        <time>2017-03-26T08:05:04.000Z</time>
      </trkpt>
      <trkpt lat="47.43229" lon="6.7958">
        <ele>529.7</ele>
        <time>2017-03-26T08:05:05.000Z</time>
      </trkpt>
      <trkpt lat="47.43225" lon="6.7958">
        <ele>529.6</ele>
        <time>2017-03-26T08:05:06.000Z</time>
      </trkpt>
      <trkpt lat="47.4322" lon="6.79578">
        <ele>529.6</ele>
        <time>2017-03-26T08:05:07.000Z</time>
      </trkpt>
      <trkpt lat="47.43217" lon="6.79577">
        <ele>529.5</ele>
        <time>2017-03-26T08:05:08.000Z</time>
      </trkpt>
      <trkpt lat="47.43214" lon="6.79575">
        <ele>529.4</ele>
        <time>2017-03-26T08:05:09.000Z</time>
      </trkpt>
      <trkpt lat="47.43211" lon="6.79575">
        <ele>529.3</ele>
        <time>2017-03-26T08:05:10.000Z</time>
      </trkpt>
      <trkpt lat="47.43207" lon="6.79575">
        <ele>529.2</ele>
        <time>2017-03-26T08:05:11.000Z</time>
      </trkpt>
      <trkpt lat="47.43205" lon="6.79574">
        <ele>529.1</ele>
        <time>2017-03-26T08:05:12.000Z</time>
      </trkpt>
      <trkpt lat="47.43202" lon="6.79574">
        <ele>529</ele>
        <time>2017-03-26T08:05:13.000Z</time>
      </trkpt>
      <trkpt lat="47.43198" lon="6.79573">
        <ele>528.9</ele>
        <time>2017-03-26T08:05:14.000Z</time>
      </trkpt>
      <trkpt lat="47.43195" lon="6.79573">
        <ele>528.9</ele>
        <time>2017-03-26T08:05:15.000Z</time>
      </trkpt>
      <trkpt lat="47.43192" lon="6.79572">
        <ele>528.9</ele>
        <time>2017-03-26T08:05:16.000Z</time>
      </trkpt>
      <trkpt lat="47.43189" lon="6.79572">
        <ele>528.9</ele>
        <time>2017-03-26T08:05:17.000Z</time>
      </trkpt>
      <trkpt lat="47.43187" lon="6.79572">
        <ele>529</ele>
        <time>2017-03-26T08:05:18.000Z</time>
      </trkpt>
      <trkpt lat="47.43184" lon="6.79571">
        <ele>529</ele>
        <time>2017-03-26T08:05:19.000Z</time>
      </trkpt>
      <trkpt lat="47.43181" lon="6.79572">
        <ele>529</ele>
        <time>2017-03-26T08:05:20.000Z</time>
      </trkpt>
      <trkpt lat="47.43179" lon="6.79572">
        <ele>529.1</ele>
        <time>2017-03-26T08:05:21.000Z</time>
      </trkpt>
      <trkpt lat="47.43176" lon="6.79573">
        <ele>529.1</ele>
        <time>2017-03-26T08:05:22.000Z</time>
      </trkpt>
      <trkpt lat="47.43174" lon="6.79574">
        <ele>529.2</ele>
        <time>2017-03-26T08:05:23.000Z</time>
      </trkpt>
      <trkpt lat="47.43171" lon="6.79579">
        <ele>529.2</ele>
        <time>2017-03-26T08:05:26.000Z</time>
      </trkpt>
      <trkpt lat="47.43169" lon="6.79581">
        <ele>529.2</ele>
        <time>2017-03-26T08:05:27.000Z</time>
      </trkpt>
      <trkpt lat="47.43169" lon="6.79584">
        <ele>529.2</ele>
        <time>2017-03-26T08:05:28.000Z</time>
      </trkpt>
      <trkpt lat="47.43167" lon="6.7959">
        <ele>529.1</ele>
        <time>2017-03-26T08:05:29.000Z</time>
      </trkpt>
      <trkpt lat="47.43166" lon="6.79595">
        <ele>529.1</ele>
        <time>2017-03-26T08:05:30.000Z</time>
      </trkpt>
      <trkpt lat="47.43166" lon="6.79597">
        <ele>529.1</ele>
        <time>2017-03-26T08:05:31.000Z</time>
      </trkpt>
      <trkpt lat="47.43165" lon="6.79601">
        <ele>529</ele>
        <time>2017-03-26T08:05:32.000Z</time>
      </trkpt>
      <trkpt lat="47.43163" lon="6.79605">
        <ele>528.9</ele>
        <time>2017-03-26T08:05:33.000Z</time>
      </trkpt>
      <trkpt lat="47.43162" lon="6.79608">
        <ele>529</ele>
        <time>2017-03-26T08:05:35.000Z</time>
      </trkpt>
      <trkpt lat="47.43159" lon="6.79609">
        <ele>529.2</ele>
        <time>2017-03-26T08:05:36.000Z</time>
      </trkpt>
      <trkpt lat="47.43157" lon="6.7961">
        <ele>529.4</ele>
        <time>2017-03-26T08:05:37.000Z</time>
      </trkpt>
      <trkpt lat="47.43155" lon="6.79612">
        <ele>529.4</ele>
        <time>2017-03-26T08:05:38.000Z</time>
      </trkpt>
      <trkpt lat="47.43152" lon="6.79615">
        <ele>529.8</ele>
        <time>2017-03-26T08:05:40.000Z</time>
      </trkpt>
      <trkpt lat="47.43148" lon="6.79614">
        <ele>529.9</ele>
        <time>2017-03-26T08:05:41.000Z</time>
      </trkpt>
      <trkpt lat="47.43145" lon="6.79613">
        <ele>530.1</ele>
        <time>2017-03-26T08:05:42.000Z</time>
      </trkpt>
      <trkpt lat="47.43143" lon="6.79612">
        <ele>530.3</ele>
        <time>2017-03-26T08:05:43.000Z</time>
      </trkpt>
      <trkpt lat="47.43141" lon="6.79611">
        <ele>530.5</ele>
        <time>2017-03-26T08:05:44.000Z</time>
      </trkpt>
      <trkpt lat="47.43137" lon="6.79609">
        <ele>530.6</ele>
        <time>2017-03-26T08:05:45.000Z</time>
      </trkpt>
      <trkpt lat="47.43134" lon="6.79607">
        <ele>530.7</ele>
        <time>2017-03-26T08:05:46.000Z</time>
      </trkpt>
      <trkpt lat="47.43132" lon="6.79606">
        <ele>530.8</ele>
        <time>2017-03-26T08:05:47.000Z</time>
      </trkpt>
      <trkpt lat="47.43128" lon="6.79603">
        <ele>531</ele>
        <time>2017-03-26T08:05:49.000Z</time>
      </trkpt>
      <trkpt lat="47.43126" lon="6.79601">
        <ele>531</ele>
        <time>2017-03-26T08:05:50.000Z</time>
      </trkpt>
      <trkpt lat="47.43124" lon="6.79598">
        <ele>531</ele>
        <time>2017-03-26T08:05:51.000Z</time>
      </trkpt>
      <trkpt lat="47.43124" lon="6.79595">
        <ele>531</ele>
        <time>2017-03-26T08:05:52.000Z</time>
      </trkpt>
      <trkpt lat="47.43121" lon="6.79592">
        <ele>531</ele>
        <time>2017-03-26T08:05:53.000Z</time>
      </trkpt>
      <trkpt lat="47.43119" lon="6.7959">
        <ele>531.1</ele>
        <time>2017-03-26T08:05:54.000Z</time>
      </trkpt>
      <trkpt lat="47.43116" lon="6.79588">
        <ele>531.2</ele>
        <time>2017-03-26T08:05:56.000Z</time>
      </trkpt>
      <trkpt lat="47.43115" lon="6.79588">
        <ele>531.3</ele>
        <time>2017-03-26T08:05:57.000Z</time>
      </trkpt>
      <trkpt lat="47.43112" lon="6.7959">
        <ele>531.3</ele>
        <time>2017-03-26T08:05:58.000Z</time>
      </trkpt>
      <trkpt lat="47.43109" lon="6.79589">
        <ele>531.4</ele>
        <time>2017-03-26T08:05:59.000Z</time>
      </trkpt>
      <trkpt lat="47.43107" lon="6.79589">
        <ele>531.5</ele>
        <time>2017-03-26T08:06:00.000Z</time>
      </trkpt>
      <trkpt lat="47.43104" lon="6.79589">
        <ele>531.6</ele>
        <time>2017-03-26T08:06:01.000Z</time>
      </trkpt>
      <trkpt lat="47.431" lon="6.7959">
        <ele>531.9</ele>
        <time>2017-03-26T08:06:03.000Z</time>
      </trkpt>
      <trkpt lat="47.43098" lon="6.79592">
        <ele>531.9</ele>
        <time>2017-03-26T08:06:04.000Z</time>
      </trkpt>
      <trkpt lat="47.43094" lon="6.79592">
        <ele>532</ele>
        <time>2017-03-26T08:06:05.000Z</time>
      </trkpt>
      <trkpt lat="47.43091" lon="6.79593">
        <ele>532.1</ele>
        <time>2017-03-26T08:06:06.000Z</time>
      </trkpt>
      <trkpt lat="47.43089" lon="6.79593">
        <ele>532.1</ele>
        <time>2017-03-26T08:06:07.000Z</time>
      </trkpt>
      <trkpt lat="47.43085" lon="6.79591">
        <ele>532.1</ele>
        <time>2017-03-26T08:06:08.000Z</time>
      </trkpt>
      <trkpt lat="47.43083" lon="6.79586">
        <ele>532.2</ele>
        <time>2017-03-26T08:06:10.000Z</time>
      </trkpt>
      <trkpt lat="47.43083" lon="6.79584">
        <ele>532.3</ele>
        <time>2017-03-26T08:06:11.000Z</time>
      </trkpt>
      <trkpt lat="47.43083" lon="6.79578">
        <ele>532.5</ele>
        <time>2017-03-26T08:06:14.000Z</time>
      </trkpt>
      <trkpt lat="47.43084" lon="6.79576">
        <ele>532.6</ele>
        <time>2017-03-26T08:06:15.000Z</time>
      </trkpt>
      <trkpt lat="47.43087" lon="6.79572">
        <ele>533.6</ele>
        <time>2017-03-26T08:06:23.000Z</time>
      </trkpt>
      <trkpt lat="47.43088" lon="6.79572">
        <ele>533.9</ele>
        <time>2017-03-26T08:06:24.000Z</time>
      </trkpt>
      <trkpt lat="47.43092" lon="6.79571">
        <ele>534.4</ele>
        <time>2017-03-26T08:06:30.000Z</time>
      </trkpt>
      <trkpt lat="47.43092" lon="6.79571">
        <ele>534.4</ele>
        <time>2017-03-26T08:06:31.000Z</time>
      </trkpt>
      <trkpt lat="47.43088" lon="6.79571">
        <ele>534.7</ele>
        <time>2017-03-26T08:06:52.000Z</time>
      </trkpt>
      <trkpt lat="47.43087" lon="6.7957">
        <ele>534.7</ele>
        <time>2017-03-26T08:06:53.000Z</time>
      </trkpt>
      <trkpt lat="47.43084" lon="6.79565">
        <ele>535.3</ele>
        <time>2017-03-26T08:07:14.000Z</time>
      </trkpt>
      <trkpt lat="47.43084" lon="6.79565">
        <ele>535.3</ele>
        <time>2017-03-26T08:07:15.000Z</time>
      </trkpt>
      <trkpt lat="47.43081" lon="6.79568">
        <ele>540.1</ele>
        <time>2017-03-26T08:11:24.000Z</time>
      </trkpt>
      <trkpt lat="47.43081" lon="6.79572">
        <ele>540.2</ele>
        <time>2017-03-26T08:11:25.000Z</time>
      </trkpt>
      <trkpt lat="47.43082" lon="6.79577">
        <ele>540</ele>
        <time>2017-03-26T08:11:32.000Z</time>
      </trkpt>
      <trkpt lat="47.43083" lon="6.7958">
        <ele>539.9</ele>
        <time>2017-03-26T08:11:33.000Z</time>
      </trkpt>
      <trkpt lat="47.43083" lon="6.79585">
        <ele>539.8</ele>
        <time>2017-03-26T08:11:34.000Z</time>
      </trkpt>
      <trkpt lat="47.43082" lon="6.7959">
        <ele>539.5</ele>
        <time>2017-03-26T08:11:35.000Z</time>
      </trkpt>
      <trkpt lat="47.43081" lon="6.79596">
        <ele>538.8</ele>
        <time>2017-03-26T08:11:37.000Z</time>
      </trkpt>
      <trkpt lat="47.4308" lon="6.79599">
        <ele>538.3</ele>
        <time>2017-03-26T08:11:38.000Z</time>
      </trkpt>
      <trkpt lat="47.43078" lon="6.79605">
        <ele>536.7</ele>
        <time>2017-03-26T08:11:43.000Z</time>
      </trkpt>
      <trkpt lat="47.43079" lon="6.79608">
        <ele>536.5</ele>
        <time>2017-03-26T08:11:44.000Z</time>
      </trkpt>
      <trkpt lat="47.43079" lon="6.79614">
        <ele>536.3</ele>
        <time>2017-03-26T08:11:47.000Z</time>
      </trkpt>
      <trkpt lat="47.43078" lon="6.79615">
        <ele>536.2</ele>
        <time>2017-03-26T08:11:48.000Z</time>
      </trkpt>
      <trkpt lat="47.43076" lon="6.79619">
        <ele>536.2</ele>
        <time>2017-03-26T08:11:50.000Z</time>
      </trkpt>
      <trkpt lat="47.43073" lon="6.79621">
        <ele>536.2</ele>
        <time>2017-03-26T08:11:51.000Z</time>
      </trkpt>
      <trkpt lat="47.4307" lon="6.79623">
        <ele>536.2</ele>
        <time>2017-03-26T08:11:53.000Z</time>
      </trkpt>
      <trkpt lat="47.43067" lon="6.79625">
        <ele>536.2</ele>
        <time>2017-03-26T08:11:54.000Z</time>
      </trkpt>
      <trkpt lat="47.43064" lon="6.79629">
        <ele>536</ele>
        <time>2017-03-26T08:11:56.000Z</time>
      </trkpt>
      <trkpt lat="47.43062" lon="6.79632">
        <ele>535.9</ele>
        <time>2017-03-26T08:11:57.000Z</time>
      </trkpt>
      <trkpt lat="47.4306" lon="6.79637">
        <ele>535.8</ele>
        <time>2017-03-26T08:11:58.000Z</time>
      </trkpt>
      <trkpt lat="47.43056" lon="6.79643">
        <ele>535.6</ele>
        <time>2017-03-26T08:11:59.000Z</time>
      </trkpt>
      <trkpt lat="47.43053" lon="6.79647">
        <ele>534.4</ele>
        <time>2017-03-26T08:12:00.000Z</time>
      </trkpt>
      <trkpt lat="47.43049" lon="6.79651">
        <ele>534.3</ele>
        <time>2017-03-26T08:12:01.000Z</time>
      </trkpt>
      <trkpt lat="47.43046" lon="6.79654">
        <ele>534.2</ele>
        <time>2017-03-26T08:12:02.000Z</time>
      </trkpt>
      <trkpt lat="47.43043" lon="6.79655">
        <ele>534.1</ele>
        <time>2017-03-26T08:12:03.000Z</time>
      </trkpt>
      <trkpt lat="47.4304" lon="6.79657">
        <ele>533.8</ele>
        <time>2017-03-26T08:12:04.000Z</time>
      </trkpt>
      <trkpt lat="47.43037" lon="6.79658">
        <ele>533.7</ele>
        <time>2017-03-26T08:12:05.000Z</time>
      </trkpt>
      <trkpt lat="47.43034" lon="6.79659">
        <ele>533.7</ele>
        <time>2017-03-26T08:12:06.000Z</time>
      </trkpt>
      <trkpt lat="47.43032" lon="6.79661">
        <ele>533.4</ele>
        <time>2017-03-26T08:12:07.000Z</time>
      </trkpt>
      <trkpt lat="47.43029" lon="6.79662">
        <ele>533.3</ele>
        <time>2017-03-26T08:12:08.000Z</time>
      </trkpt>
      <trkpt lat="47.43026" lon="6.79664">
        <ele>533.3</ele>
        <time>2017-03-26T08:12:09.000Z</time>
      </trkpt>
      <trkpt lat="47.43023" lon="6.79665">
        <ele>533.3</ele>
        <time>2017-03-26T08:12:10.000Z</time>
      </trkpt>
      <trkpt lat="47.4302" lon="6.79666">
        <ele>533.4</ele>
        <time>2017-03-26T08:12:11.000Z</time>
      </trkpt>
      <trkpt lat="47.43016" lon="6.79667">
        <ele>533.5</ele>
        <time>2017-03-26T08:12:12.000Z</time>
      </trkpt>
      <trkpt lat="47.43013" lon="6.7967">
        <ele>533.5</ele>
        <time>2017-03-26T08:12:13.000Z</time>
      </trkpt>
      <trkpt lat="47.43009" lon="6.79673">
        <ele>533.4</ele>
        <time>2017-03-26T08:12:14.000Z</time>
      </trkpt>
      <trkpt lat="47.43006" lon="6.79675">
        <ele>533.2</ele>
        <time>2017-03-26T08:12:15.000Z</time>
      </trkpt>
      <trkpt lat="47.43003" lon="6.79678">
        <ele>533.1</ele>
        <time>2017-03-26T08:12:16.000Z</time>
      </trkpt>
      <trkpt lat="47.43" lon="6.7968">
        <ele>533</ele>
        <time>2017-03-26T08:12:17.000Z</time>
      </trkpt>
      <trkpt lat="47.42997" lon="6.79682">
        <ele>533</ele>
        <time>2017-03-26T08:12:18.000Z</time>
      </trkpt>
      <trkpt lat="47.42994" lon="6.79683">
        <ele>532.9</ele>
        <time>2017-03-26T08:12:19.000Z</time>
      </trkpt>
      <trkpt lat="47.42992" lon="6.79685">
        <ele>532.8</ele>
        <time>2017-03-26T08:12:20.000Z</time>
      </trkpt>
      <trkpt lat="47.42989" lon="6.79686">
        <ele>532.7</ele>
        <time>2017-03-26T08:12:21.000Z</time>
      </trkpt>
      <trkpt lat="47.42986" lon="6.79687">
        <ele>532.6</ele>
        <time>2017-03-26T08:12:22.000Z</time>
      </trkpt>
      <trkpt lat="47.42984" lon="6.79688">
        <ele>532.6</ele>
        <time>2017-03-26T08:12:23.000Z</time>
      </trkpt>
      <trkpt lat="47.4298" lon="6.79689">
        <ele>532.6</ele>
        <time>2017-03-26T08:12:24.000Z</time>
      </trkpt>
      <trkpt lat="47.42977" lon="6.79691">
        <ele>532.5</ele>
        <time>2017-03-26T08:12:25.000Z</time>
      </trkpt>
      <trkpt lat="47.42974" lon="6.79693">
        <ele>532.5</ele>
        <time>2017-03-26T08:12:26.000Z</time>
      </trkpt>
      <trkpt lat="47.4297" lon="6.79696">
        <ele>532.5</ele>
        <time>2017-03-26T08:12:27.000Z</time>
      </trkpt>
      <trkpt lat="47.42967" lon="6.797">
        <ele>532.5</ele>
        <time>2017-03-26T08:12:28.000Z</time>
      </trkpt>
      <trkpt lat="47.42963" lon="6.79702">
        <ele>532.5</ele>
        <time>2017-03-26T08:12:29.000Z</time>
      </trkpt>
      <trkpt lat="47.42959" lon="6.79701">
        <ele>532.5</ele>
        <time>2017-03-26T08:12:30.000Z</time>
      </trkpt>
      <trkpt lat="47.42955" lon="6.79699">
        <ele>532.6</ele>
        <time>2017-03-26T08:12:31.000Z</time>
      </trkpt>
      <trkpt lat="47.42952" lon="6.79698">
        <ele>532.6</ele>
        <time>2017-03-26T08:12:32.000Z</time>
      </trkpt>
      <trkpt lat="47.42949" lon="6.79697">
        <ele>532.6</ele>
        <time>2017-03-26T08:12:33.000Z</time>
      </trkpt>
      <trkpt lat="47.42945" lon="6.79698">
        <ele>532.6</ele>
        <time>2017-03-26T08:12:34.000Z</time>
      </trkpt>
      <trkpt lat="47.42942" lon="6.79701">
        <ele>533.1</ele>
        <time>2017-03-26T08:12:35.000Z</time>
      </trkpt>
      <trkpt lat="47.42939" lon="6.79705">
        <ele>532.7</ele>
        <time>2017-03-26T08:12:36.000Z</time>
      </trkpt>
      <trkpt lat="47.42936" lon="6.79709">
        <ele>532.4</ele>
        <time>2017-03-26T08:12:37.000Z</time>
      </trkpt>
      <trkpt lat="47.42933" lon="6.79713">
        <ele>533.1</ele>
        <time>2017-03-26T08:12:38.000Z</time>
      </trkpt>
      <trkpt lat="47.42929" lon="6.79717">
        <ele>533.6</ele>
        <time>2017-03-26T08:12:39.000Z</time>
      </trkpt>
      <trkpt lat="47.42925" lon="6.79719">
        <ele>534.2</ele>
        <time>2017-03-26T08:12:40.000Z</time>
      </trkpt>
      <trkpt lat="47.42921" lon="6.79721">
        <ele>534.2</ele>
        <time>2017-03-26T08:12:41.000Z</time>
      </trkpt>
      <trkpt lat="47.42917" lon="6.79721">
        <ele>534.3</ele>
        <time>2017-03-26T08:12:42.000Z</time>
      </trkpt>
      <trkpt lat="47.42912" lon="6.7972">
        <ele>535</ele>
        <time>2017-03-26T08:12:43.000Z</time>
      </trkpt>
      <trkpt lat="47.42908" lon="6.79718">
        <ele>536.5</ele>
        <time>2017-03-26T08:12:44.000Z</time>
      </trkpt>
      <trkpt lat="47.42903" lon="6.79716">
        <ele>536.5</ele>
        <time>2017-03-26T08:12:45.000Z</time>
      </trkpt>
      <trkpt lat="47.42899" lon="6.79714">
        <ele>537</ele>
        <time>2017-03-26T08:12:46.000Z</time>
      </trkpt>
      <trkpt lat="47.42895" lon="6.79713">
        <ele>537.2</ele>
        <time>2017-03-26T08:12:47.000Z</time>
      </trkpt>
      <trkpt lat="47.42892" lon="6.79712">
        <ele>537.2</ele>
        <time>2017-03-26T08:12:48.000Z</time>
      </trkpt>
      <trkpt lat="47.4289" lon="6.79711">
        <ele>537.2</ele>
        <time>2017-03-26T08:12:49.000Z</time>
      </trkpt>
      <trkpt lat="47.42887" lon="6.7971">
        <ele>537.2</ele>
        <time>2017-03-26T08:12:50.000Z</time>
      </trkpt>
      <trkpt lat="47.42884" lon="6.79714">
        <ele>537.2</ele>
        <time>2017-03-26T08:12:51.000Z</time>
      </trkpt>
      <trkpt lat="47.42882" lon="6.79718">
        <ele>537.1</ele>
        <time>2017-03-26T08:12:52.000Z</time>
      </trkpt>
      <trkpt lat="47.42882" lon="6.79726">
        <ele>535.2</ele>
        <time>2017-03-26T08:12:53.000Z</time>
      </trkpt>
      <trkpt lat="47.42882" lon="6.79734">
        <ele>533.9</ele>
        <time>2017-03-26T08:12:54.000Z</time>
      </trkpt>
      <trkpt lat="47.42881" lon="6.7974">
        <ele>533.9</ele>
        <time>2017-03-26T08:12:55.000Z</time>
      </trkpt>
      <trkpt lat="47.4288" lon="6.79747">
        <ele>533.8</ele>
        <time>2017-03-26T08:12:56.000Z</time>
      </trkpt>
      <trkpt lat="47.42879" lon="6.79754">
        <ele>533.6</ele>
        <time>2017-03-26T08:12:57.000Z</time>
      </trkpt>
      <trkpt lat="47.42878" lon="6.7976">
        <ele>533.5</ele>
        <time>2017-03-26T08:12:58.000Z</time>
      </trkpt>
      <trkpt lat="47.42876" lon="6.79763">
        <ele>533.3</ele>
        <time>2017-03-26T08:12:59.000Z</time>
      </trkpt>
      <trkpt lat="47.42874" lon="6.79766">
        <ele>533.1</ele>
        <time>2017-03-26T08:13:00.000Z</time>
      </trkpt>
      <trkpt lat="47.42872" lon="6.79769">
        <ele>532.9</ele>
        <time>2017-03-26T08:13:01.000Z</time>
      </trkpt>
      <trkpt lat="47.42869" lon="6.79772">
        <ele>532.8</ele>
        <time>2017-03-26T08:13:02.000Z</time>
      </trkpt>
      <trkpt lat="47.42866" lon="6.79775">
        <ele>531.3</ele>
        <time>2017-03-26T08:13:03.000Z</time>
      </trkpt>
      <trkpt lat="47.42863" lon="6.79778">
        <ele>529.7</ele>
        <time>2017-03-26T08:13:04.000Z</time>
      </trkpt>
      <trkpt lat="47.42858" lon="6.79781">
        <ele>529.5</ele>
        <time>2017-03-26T08:13:05.000Z</time>
      </trkpt>
      <trkpt lat="47.42853" lon="6.79785">
        <ele>529.6</ele>
        <time>2017-03-26T08:13:06.000Z</time>
      </trkpt>
      <trkpt lat="47.42848" lon="6.79788">
        <ele>529.9</ele>
        <time>2017-03-26T08:13:07.000Z</time>
      </trkpt>
      <trkpt lat="47.42843" lon="6.79791">
        <ele>529.9</ele>
        <time>2017-03-26T08:13:08.000Z</time>
      </trkpt>
      <trkpt lat="47.42839" lon="6.79792">
        <ele>529.9</ele>
        <time>2017-03-26T08:13:09.000Z</time>
      </trkpt>
      <trkpt lat="47.42835" lon="6.79793">
        <ele>529.9</ele>
        <time>2017-03-26T08:13:10.000Z</time>
      </trkpt>
      <trkpt lat="47.4283" lon="6.79795">
        <ele>530</ele>
        <time>2017-03-26T08:13:11.000Z</time>
      </trkpt>
      <trkpt lat="47.42825" lon="6.79797">
        <ele>529.8</ele>
        <time>2017-03-26T08:13:12.000Z</time>
      </trkpt>
      <trkpt lat="47.42821" lon="6.79797">
        <ele>529.3</ele>
        <time>2017-03-26T08:13:13.000Z</time>
      </trkpt>
      <trkpt lat="47.42816" lon="6.79798">
        <ele>529.4</ele>
        <time>2017-03-26T08:13:14.000Z</time>
      </trkpt>
      <trkpt lat="47.42811" lon="6.79799">
        <ele>529.3</ele>
        <time>2017-03-26T08:13:15.000Z</time>
      </trkpt>
      <trkpt lat="47.42807" lon="6.798">
        <ele>529.3</ele>
        <time>2017-03-26T08:13:16.000Z</time>
      </trkpt>
      <trkpt lat="47.42802" lon="6.79801">
        <ele>529.2</ele>
        <time>2017-03-26T08:13:17.000Z</time>
      </trkpt>
      <trkpt lat="47.42798" lon="6.79802">
        <ele>529.1</ele>
        <time>2017-03-26T08:13:18.000Z</time>
      </trkpt>
      <trkpt lat="47.42795" lon="6.79803">
        <ele>529</ele>
        <time>2017-03-26T08:13:19.000Z</time>
      </trkpt>
      <trkpt lat="47.42791" lon="6.79804">
        <ele>529</ele>
        <time>2017-03-26T08:13:20.000Z</time>
      </trkpt>
      <trkpt lat="47.42787" lon="6.79805">
        <ele>529</ele>
        <time>2017-03-26T08:13:21.000Z</time>
      </trkpt>
      <trkpt lat="47.42782" lon="6.79806">
        <ele>528.9</ele>
        <time>2017-03-26T08:13:22.000Z</time>
      </trkpt>
      <trkpt lat="47.42779" lon="6.79808">
        <ele>528.8</ele>
        <time>2017-03-26T08:13:23.000Z</time>
      </trkpt>
      <trkpt lat="47.42777" lon="6.79808">
        <ele>528.7</ele>
        <time>2017-03-26T08:13:24.000Z</time>
      </trkpt>
      <trkpt lat="47.42773" lon="6.79809">
        <ele>528.7</ele>
        <time>2017-03-26T08:13:25.000Z</time>
      </trkpt>
      <trkpt lat="47.42771" lon="6.79811">
        <ele>528.6</ele>
        <time>2017-03-26T08:13:26.000Z</time>
      </trkpt>
      <trkpt lat="47.42768" lon="6.79812">
        <ele>528.5</ele>
        <time>2017-03-26T08:13:27.000Z</time>
      </trkpt>
      <trkpt lat="47.42764" lon="6.79814">
        <ele>528.5</ele>
        <time>2017-03-26T08:13:28.000Z</time>
      </trkpt>
      <trkpt lat="47.42762" lon="6.79815">
        <ele>528.5</ele>
        <time>2017-03-26T08:13:29.000Z</time>
      </trkpt>
      <trkpt lat="47.4276" lon="6.79817">
        <ele>528.5</ele>
        <time>2017-03-26T08:13:30.000Z</time>
      </trkpt>
      <trkpt lat="47.42758" lon="6.79819">
        <ele>528.5</ele>
        <time>2017-03-26T08:13:31.000Z</time>
      </trkpt>
      <trkpt lat="47.42755" lon="6.79819">
        <ele>528.4</ele>
        <time>2017-03-26T08:13:32.000Z</time>
      </trkpt>
      <trkpt lat="47.42752" lon="6.7982">
        <ele>528.4</ele>
        <time>2017-03-26T08:13:33.000Z</time>
      </trkpt>
      <trkpt lat="47.42749" lon="6.79821">
        <ele>528.3</ele>
        <time>2017-03-26T08:13:34.000Z</time>
      </trkpt>
      <trkpt lat="47.42745" lon="6.79821">
        <ele>528.3</ele>
        <time>2017-03-26T08:13:35.000Z</time>
      </trkpt>
      <trkpt lat="47.42742" lon="6.79821">
        <ele>528.2</ele>
        <time>2017-03-26T08:13:36.000Z</time>
      </trkpt>
      <trkpt lat="47.4274" lon="6.79822">
        <ele>528.2</ele>
        <time>2017-03-26T08:13:37.000Z</time>
      </trkpt>
      <trkpt lat="47.42738" lon="6.79823">
        <ele>528.2</ele>
        <time>2017-03-26T08:13:38.000Z</time>
      </trkpt>
      <trkpt lat="47.42735" lon="6.79824">
        <ele>528.4</ele>
        <time>2017-03-26T08:13:39.000Z</time>
      </trkpt>
      <trkpt lat="47.42732" lon="6.79826">
        <ele>528.7</ele>
        <time>2017-03-26T08:13:41.000Z</time>
      </trkpt>
      <trkpt lat="47.4273" lon="6.79826">
        <ele>528.8</ele>
        <time>2017-03-26T08:13:42.000Z</time>
      </trkpt>
      <trkpt lat="47.42727" lon="6.79827">
        <ele>528.9</ele>
        <time>2017-03-26T08:13:43.000Z</time>
      </trkpt>
      <trkpt lat="47.42725" lon="6.79828">
        <ele>528.9</ele>
        <time>2017-03-26T08:13:44.000Z</time>
      </trkpt>
      <trkpt lat="47.42723" lon="6.79829">
        <ele>529</ele>
        <time>2017-03-26T08:13:45.000Z</time>
      </trkpt>
      <trkpt lat="47.4272" lon="6.79829">
        <ele>529.1</ele>
        <time>2017-03-26T08:13:46.000Z</time>
      </trkpt>
      <trkpt lat="47.42716" lon="6.79829">
        <ele>529.5</ele>
        <time>2017-03-26T08:13:48.000Z</time>
      </trkpt>
      <trkpt lat="47.42714" lon="6.7983">
        <ele>529.6</ele>
        <time>2017-03-26T08:13:49.000Z</time>
      </trkpt>
      <trkpt lat="47.42711" lon="6.7983">
        <ele>529.8</ele>
        <time>2017-03-26T08:13:50.000Z</time>
      </trkpt>
      <trkpt lat="47.42707" lon="6.7983">
        <ele>530</ele>
        <time>2017-03-26T08:13:51.000Z</time>
      </trkpt>
      <trkpt lat="47.42704" lon="6.7983">
        <ele>530.3</ele>
        <time>2017-03-26T08:13:52.000Z</time>
      </trkpt>
      <trkpt lat="47.42701" lon="6.7983">
        <ele>530.5</ele>
        <time>2017-03-26T08:13:53.000Z</time>
      </trkpt>
      <trkpt lat="47.42697" lon="6.7983">
        <ele>531</ele>
        <time>2017-03-26T08:13:55.000Z</time>
      </trkpt>
      <trkpt lat="47.42695" lon="6.7983">
        <ele>531.3</ele>
        <time>2017-03-26T08:13:56.000Z</time>
      </trkpt>
      <trkpt lat="47.42692" lon="6.79831">
        <ele>531.6</ele>
        <time>2017-03-26T08:13:57.000Z</time>
      </trkpt>
      <trkpt lat="47.42689" lon="6.7983">
        <ele>531.9</ele>
        <time>2017-03-26T08:13:58.000Z</time>
      </trkpt>
      <trkpt lat="47.42686" lon="6.79828">
        <ele>532.6</ele>
        <time>2017-03-26T08:14:00.000Z</time>
      </trkpt>
      <trkpt lat="47.42684" lon="6.79828">
        <ele>532.9</ele>
        <time>2017-03-26T08:14:01.000Z</time>
      </trkpt>
      <trkpt lat="47.4268" lon="6.79827">
        <ele>533.6</ele>
        <time>2017-03-26T08:14:03.000Z</time>
      </trkpt>
      <trkpt lat="47.42679" lon="6.79826">
        <ele>533.8</ele>
        <time>2017-03-26T08:14:04.000Z</time>
      </trkpt>
      <trkpt lat="47.42675" lon="6.79827">
        <ele>534.5</ele>
        <time>2017-03-26T08:14:06.000Z</time>
      </trkpt>
      <trkpt lat="47.42672" lon="6.79827">
        <ele>534.7</ele>
        <time>2017-03-26T08:14:07.000Z</time>
      </trkpt>
      <trkpt lat="47.42668" lon="6.79827">
        <ele>535.2</ele>
        <time>2017-03-26T08:14:09.000Z</time>
      </trkpt>
      <trkpt lat="47.42666" lon="6.79827">
        <ele>535.5</ele>
        <time>2017-03-26T08:14:10.000Z</time>
      </trkpt>
      <trkpt lat="47.42663" lon="6.79827">
        <ele>535.8</ele>
        <time>2017-03-26T08:14:11.000Z</time>
      </trkpt>
      <trkpt lat="47.4266" lon="6.79828">
        <ele>536.1</ele>
        <time>2017-03-26T08:14:12.000Z</time>
      </trkpt>
      <trkpt lat="47.42657" lon="6.79829">
        <ele>536.4</ele>
        <time>2017-03-26T08:14:13.000Z</time>
      </trkpt>
      <trkpt lat="47.42654" lon="6.79829">
        <ele>536.7</ele>
        <time>2017-03-26T08:14:14.000Z</time>
      </trkpt>
      <trkpt lat="47.42651" lon="6.7983">
        <ele>536.9</ele>
        <time>2017-03-26T08:14:15.000Z</time>
      </trkpt>
      <trkpt lat="47.42647" lon="6.79831">
        <ele>537.2</ele>
        <time>2017-03-26T08:14:16.000Z</time>
      </trkpt>
      <trkpt lat="47.42644" lon="6.79831">
        <ele>537.4</ele>
        <time>2017-03-26T08:14:17.000Z</time>
      </trkpt>
      <trkpt lat="47.42642" lon="6.79831">
        <ele>537.7</ele>
        <time>2017-03-26T08:14:18.000Z</time>
      </trkpt>
      <trkpt lat="47.4264" lon="6.79831">
        <ele>538</ele>
        <time>2017-03-26T08:14:19.000Z</time>
      </trkpt>
      <trkpt lat="47.42638" lon="6.79832">
        <ele>538.3</ele>
        <time>2017-03-26T08:14:20.000Z</time>
      </trkpt>
      <trkpt lat="47.42635" lon="6.79832">
        <ele>538.6</ele>
        <time>2017-03-26T08:14:21.000Z</time>
      </trkpt>
      <trkpt lat="47.42633" lon="6.79833">
        <ele>538.9</ele>
        <time>2017-03-26T08:14:22.000Z</time>
      </trkpt>
      <trkpt lat="47.42629" lon="6.79833">
        <ele>539.3</ele>
        <time>2017-03-26T08:14:24.000Z</time>
      </trkpt>
      <trkpt lat="47.42628" lon="6.79833">
        <ele>539.5</ele>
        <time>2017-03-26T08:14:25.000Z</time>
      </trkpt>
      <trkpt lat="47.42624" lon="6.79833">
        <ele>539.9</ele>
        <time>2017-03-26T08:14:27.000Z</time>
      </trkpt>
      <trkpt lat="47.42621" lon="6.79833">
        <ele>540.2</ele>
        <time>2017-03-26T08:14:28.000Z</time>
      </trkpt>
      <trkpt lat="47.42618" lon="6.79834">
        <ele>540.4</ele>
        <time>2017-03-26T08:14:29.000Z</time>
      </trkpt>
      <trkpt lat="47.42615" lon="6.79834">
        <ele>540.7</ele>
        <time>2017-03-26T08:14:30.000Z</time>
      </trkpt>
      <trkpt lat="47.42612" lon="6.79835">
        <ele>540.9</ele>
        <time>2017-03-26T08:14:31.000Z</time>
      </trkpt>
      <trkpt lat="47.42609" lon="6.79835">
        <ele>541.1</ele>
        <time>2017-03-26T08:14:32.000Z</time>
      </trkpt>
      <trkpt lat="47.42605" lon="6.79835">
        <ele>541.3</ele>
        <time>2017-03-26T08:14:33.000Z</time>
      </trkpt>
      <trkpt lat="47.42602" lon="6.79834">
        <ele>541.5</ele>
        <time>2017-03-26T08:14:34.000Z</time>
      </trkpt>
      <trkpt lat="47.42599" lon="6.79834">
        <ele>541.7</ele>
        <time>2017-03-26T08:14:35.000Z</time>
      </trkpt>
      <trkpt lat="47.42596" lon="6.79835">
        <ele>541.8</ele>
        <time>2017-03-26T08:14:36.000Z</time>
      </trkpt>
      <trkpt lat="47.42594" lon="6.79835">
        <ele>541.9</ele>
        <time>2017-03-26T08:14:37.000Z</time>
      </trkpt>
      <trkpt lat="47.42592" lon="6.79833">
        <ele>542</ele>
        <time>2017-03-26T08:14:38.000Z</time>
      </trkpt>
      <trkpt lat="47.4259" lon="6.79833">
        <ele>542.2</ele>
        <time>2017-03-26T08:14:39.000Z</time>
      </trkpt>
      <trkpt lat="47.42587" lon="6.79833">
        <ele>542.4</ele>
        <time>2017-03-26T08:14:40.000Z</time>
      </trkpt>
      <trkpt lat="47.42584" lon="6.79832">
        <ele>542.6</ele>
        <time>2017-03-26T08:14:41.000Z</time>
      </trkpt>
      <trkpt lat="47.42582" lon="6.79832">
        <ele>542.8</ele>
        <time>2017-03-26T08:14:42.000Z</time>
      </trkpt>
      <trkpt lat="47.4258" lon="6.79831">
        <ele>542.8</ele>
        <time>2017-03-26T08:14:43.000Z</time>
      </trkpt>
      <trkpt lat="47.42578" lon="6.7983">
        <ele>542.8</ele>
        <time>2017-03-26T08:14:44.000Z</time>
      </trkpt>
      <trkpt lat="47.42575" lon="6.7983">
        <ele>543</ele>
        <time>2017-03-26T08:14:45.000Z</time>
      </trkpt>
      <trkpt lat="47.42572" lon="6.7983">
        <ele>543.1</ele>
        <time>2017-03-26T08:14:46.000Z</time>
      </trkpt>
      <trkpt lat="47.42571" lon="6.79829">
        <ele>543.2</ele>
        <time>2017-03-26T08:14:47.000Z</time>
      </trkpt>
      <trkpt lat="47.42568" lon="6.79829">
        <ele>543.4</ele>
        <time>2017-03-26T08:14:48.000Z</time>
      </trkpt>
      <trkpt lat="47.42564" lon="6.7983">
        <ele>543.6</ele>
        <time>2017-03-26T08:14:49.000Z</time>
      </trkpt>
      <trkpt lat="47.42562" lon="6.79829">
        <ele>543.8</ele>
        <time>2017-03-26T08:14:50.000Z</time>
      </trkpt>
      <trkpt lat="47.42559" lon="6.79829">
        <ele>543.9</ele>
        <time>2017-03-26T08:14:51.000Z</time>
      </trkpt>
      <trkpt lat="47.42557" lon="6.79829">
        <ele>544.2</ele>
        <time>2017-03-26T08:14:52.000Z</time>
      </trkpt>
      <trkpt lat="47.42552" lon="6.79829">
        <ele>544.7</ele>
        <time>2017-03-26T08:14:54.000Z</time>
      </trkpt>
      <trkpt lat="47.42549" lon="6.7983">
        <ele>544.8</ele>
        <time>2017-03-26T08:14:55.000Z</time>
      </trkpt>
      <trkpt lat="47.42547" lon="6.79831">
        <ele>545</ele>
        <time>2017-03-26T08:14:56.000Z</time>
      </trkpt>
      <trkpt lat="47.42543" lon="6.79832">
        <ele>545.1</ele>
        <time>2017-03-26T08:14:57.000Z</time>
      </trkpt>
      <trkpt lat="47.4254" lon="6.79835">
        <ele>545.1</ele>
        <time>2017-03-26T08:14:58.000Z</time>
      </trkpt>
      <trkpt lat="47.42537" lon="6.79836">
        <ele>545.2</ele>
        <time>2017-03-26T08:14:59.000Z</time>
      </trkpt>
      <trkpt lat="47.42534" lon="6.79837">
        <ele>545.3</ele>
        <time>2017-03-26T08:15:00.000Z</time>
      </trkpt>
      <trkpt lat="47.4253" lon="6.7984">
        <ele>545.5</ele>
        <time>2017-03-26T08:15:01.000Z</time>
      </trkpt>
      <trkpt lat="47.42528" lon="6.79841">
        <ele>545.7</ele>
        <time>2017-03-26T08:15:02.000Z</time>
      </trkpt>
      <trkpt lat="47.42526" lon="6.79841">
        <ele>546</ele>
        <time>2017-03-26T08:15:03.000Z</time>
      </trkpt>
      <trkpt lat="47.42522" lon="6.79841">
        <ele>546.3</ele>
        <time>2017-03-26T08:15:05.000Z</time>
      </trkpt>
      <trkpt lat="47.42519" lon="6.79841">
        <ele>546.4</ele>
        <time>2017-03-26T08:15:06.000Z</time>
      </trkpt>
      <trkpt lat="47.42516" lon="6.79841">
        <ele>546.9</ele>
        <time>2017-03-26T08:15:08.000Z</time>
      </trkpt>
      <trkpt lat="47.42514" lon="6.79841">
        <ele>547.1</ele>
        <time>2017-03-26T08:15:09.000Z</time>
      </trkpt>
      <trkpt lat="47.42509" lon="6.7984">
        <ele>547.5</ele>
        <time>2017-03-26T08:15:11.000Z</time>
      </trkpt>
      <trkpt lat="47.42505" lon="6.79841">
        <ele>547.7</ele>
        <time>2017-03-26T08:15:12.000Z</time>
      </trkpt>
      <trkpt lat="47.42501" lon="6.79842">
        <ele>547.8</ele>
        <time>2017-03-26T08:15:13.000Z</time>
      </trkpt>
      <trkpt lat="47.42498" lon="6.79843">
        <ele>548</ele>
        <time>2017-03-26T08:15:14.000Z</time>
      </trkpt>
      <trkpt lat="47.42495" lon="6.79844">
        <ele>548.2</ele>
        <time>2017-03-26T08:15:15.000Z</time>
      </trkpt>
      <trkpt lat="47.42492" lon="6.79846">
        <ele>548.4</ele>
        <time>2017-03-26T08:15:16.000Z</time>
      </trkpt>
      <trkpt lat="47.42488" lon="6.79848">
        <ele>548.8</ele>
        <time>2017-03-26T08:15:18.000Z</time>
      </trkpt>
      <trkpt lat="47.42487" lon="6.7985">
        <ele>549</ele>
        <time>2017-03-26T08:15:19.000Z</time>
      </trkpt>
      <trkpt lat="47.42483" lon="6.7985">
        <ele>549.3</ele>
        <time>2017-03-26T08:15:21.000Z</time>
      </trkpt>
      <trkpt lat="47.42481" lon="6.79849">
        <ele>549.5</ele>
        <time>2017-03-26T08:15:22.000Z</time>
      </trkpt>
      <trkpt lat="47.42478" lon="6.79848">
        <ele>549.7</ele>
        <time>2017-03-26T08:15:23.000Z</time>
      </trkpt>
      <trkpt lat="47.42476" lon="6.79848">
        <ele>549.8</ele>
        <time>2017-03-26T08:15:24.000Z</time>
      </trkpt>
      <trkpt lat="47.42473" lon="6.79847">
        <ele>550</ele>
        <time>2017-03-26T08:15:25.000Z</time>
      </trkpt>
      <trkpt lat="47.42471" lon="6.79847">
        <ele>550.2</ele>
        <time>2017-03-26T08:15:26.000Z</time>
      </trkpt>
      <trkpt lat="47.42468" lon="6.79846">
        <ele>550.4</ele>
        <time>2017-03-26T08:15:27.000Z</time>
      </trkpt>
      <trkpt lat="47.42465" lon="6.79846">
        <ele>550.7</ele>
        <time>2017-03-26T08:15:28.000Z</time>
      </trkpt>
      <trkpt lat="47.42461" lon="6.79846">
        <ele>551</ele>
        <time>2017-03-26T08:15:29.000Z</time>
      </trkpt>
      <trkpt lat="47.42459" lon="6.79845">
        <ele>551.3</ele>
        <time>2017-03-26T08:15:30.000Z</time>
      </trkpt>
      <trkpt lat="47.42456" lon="6.79844">
        <ele>551.6</ele>
        <time>2017-03-26T08:15:31.000Z</time>
      </trkpt>
      <trkpt lat="47.42454" lon="6.79844">
        <ele>551.8</ele>
        <time>2017-03-26T08:15:32.000Z</time>
      </trkpt>
      <trkpt lat="47.4245" lon="6.79843">
        <ele>552.4</ele>
        <time>2017-03-26T08:15:34.000Z</time>
      </trkpt>
      <trkpt lat="47.42448" lon="6.79843">
        <ele>552.7</ele>
        <time>2017-03-26T08:15:35.000Z</time>
      </trkpt>
      <trkpt lat="47.42446" lon="6.79843">
        <ele>553.1</ele>
        <time>2017-03-26T08:15:36.000Z</time>
      </trkpt>
      <trkpt lat="47.42443" lon="6.79843">
        <ele>553.3</ele>
        <time>2017-03-26T08:15:37.000Z</time>
      </trkpt>
      <trkpt lat="47.42441" lon="6.79843">
        <ele>553.7</ele>
        <time>2017-03-26T08:15:38.000Z</time>
      </trkpt>
      <trkpt lat="47.42438" lon="6.79844">
        <ele>553.9</ele>
        <time>2017-03-26T08:15:39.000Z</time>
      </trkpt>
      <trkpt lat="47.42435" lon="6.79845">
        <ele>554.2</ele>
        <time>2017-03-26T08:15:40.000Z</time>
      </trkpt>
      <trkpt lat="47.42432" lon="6.79846">
        <ele>554.5</ele>
        <time>2017-03-26T08:15:41.000Z</time>
      </trkpt>
      <trkpt lat="47.42429" lon="6.79847">
        <ele>554.7</ele>
        <time>2017-03-26T08:15:42.000Z</time>
      </trkpt>
      <trkpt lat="47.42426" lon="6.79848">
        <ele>555</ele>
        <time>2017-03-26T08:15:43.000Z</time>
      </trkpt>
      <trkpt lat="47.42424" lon="6.7985">
        <ele>555.2</ele>
        <time>2017-03-26T08:15:44.000Z</time>
      </trkpt>
      <trkpt lat="47.42421" lon="6.7985">
        <ele>555.4</ele>
        <time>2017-03-26T08:15:45.000Z</time>
      </trkpt>
      <trkpt lat="47.42418" lon="6.79851">
        <ele>555.6</ele>
        <time>2017-03-26T08:15:46.000Z</time>
      </trkpt>
      <trkpt lat="47.42416" lon="6.79852">
        <ele>555.7</ele>
        <time>2017-03-26T08:15:47.000Z</time>
      </trkpt>
      <trkpt lat="47.42413" lon="6.79853">
        <ele>555.8</ele>
        <time>2017-03-26T08:15:48.000Z</time>
      </trkpt>
      <trkpt lat="47.4241" lon="6.79853">
        <ele>555.8</ele>
        <time>2017-03-26T08:15:49.000Z</time>
      </trkpt>
      <trkpt lat="47.42407" lon="6.79855">
        <ele>555.8</ele>
        <time>2017-03-26T08:15:50.000Z</time>
      </trkpt>
      <trkpt lat="47.42405" lon="6.79856">
        <ele>555.9</ele>
        <time>2017-03-26T08:15:51.000Z</time>
      </trkpt>
      <trkpt lat="47.42402" lon="6.79859">
        <ele>555.9</ele>
        <time>2017-03-26T08:15:52.000Z</time>
      </trkpt>
      <trkpt lat="47.424" lon="6.79861">
        <ele>556</ele>
        <time>2017-03-26T08:15:53.000Z</time>
      </trkpt>
      <trkpt lat="47.42398" lon="6.79862">
        <ele>556</ele>
        <time>2017-03-26T08:15:54.000Z</time>
      </trkpt>
      <trkpt lat="47.42395" lon="6.79864">
        <ele>556</ele>
        <time>2017-03-26T08:15:55.000Z</time>
      </trkpt>
      <trkpt lat="47.42393" lon="6.79867">
        <ele>556.1</ele>
        <time>2017-03-26T08:15:56.000Z</time>
      </trkpt>
      <trkpt lat="47.4239" lon="6.7987">
        <ele>556.2</ele>
        <time>2017-03-26T08:15:57.000Z</time>
      </trkpt>
      <trkpt lat="47.42387" lon="6.79873">
        <ele>556.2</ele>
        <time>2017-03-26T08:15:58.000Z</time>
      </trkpt>
      <trkpt lat="47.42386" lon="6.79875">
        <ele>556.3</ele>
        <time>2017-03-26T08:15:59.000Z</time>
      </trkpt>
      <trkpt lat="47.42385" lon="6.79878">
        <ele>556.2</ele>
        <time>2017-03-26T08:16:00.000Z</time>
      </trkpt>
      <trkpt lat="47.42383" lon="6.7988">
        <ele>556.3</ele>
        <time>2017-03-26T08:16:01.000Z</time>
      </trkpt>
      <trkpt lat="47.4238" lon="6.79885">
        <ele>556.5</ele>
        <time>2017-03-26T08:16:03.000Z</time>
      </trkpt>
      <trkpt lat="47.42378" lon="6.79887">
        <ele>556.6</ele>
        <time>2017-03-26T08:16:04.000Z</time>
      </trkpt>
      <trkpt lat="47.42376" lon="6.79891">
        <ele>556.9</ele>
        <time>2017-03-26T08:16:06.000Z</time>
      </trkpt>
      <trkpt lat="47.42374" lon="6.79893">
        <ele>557.1</ele>
        <time>2017-03-26T08:16:07.000Z</time>
      </trkpt>
      <trkpt lat="47.42371" lon="6.79898">
        <ele>557.3</ele>
        <time>2017-03-26T08:16:09.000Z</time>
      </trkpt>
      <trkpt lat="47.4237" lon="6.79899">
        <ele>557.5</ele>
        <time>2017-03-26T08:16:10.000Z</time>
      </trkpt>
      <trkpt lat="47.42368" lon="6.79903">
        <ele>557.8</ele>
        <time>2017-03-26T08:16:12.000Z</time>
      </trkpt>
      <trkpt lat="47.42366" lon="6.79905">
        <ele>558</ele>
        <time>2017-03-26T08:16:13.000Z</time>
      </trkpt>
      <trkpt lat="47.42363" lon="6.79909">
        <ele>558.2</ele>
        <time>2017-03-26T08:16:15.000Z</time>
      </trkpt>
      <trkpt lat="47.42361" lon="6.79911">
        <ele>558.3</ele>
        <time>2017-03-26T08:16:16.000Z</time>
      </trkpt>
      <trkpt lat="47.42359" lon="6.79914">
        <ele>558.4</ele>
        <time>2017-03-26T08:16:17.000Z</time>
      </trkpt>
      <trkpt lat="47.42357" lon="6.79916">
        <ele>558.6</ele>
        <time>2017-03-26T08:16:18.000Z</time>
      </trkpt>
      <trkpt lat="47.42355" lon="6.7992">
        <ele>559</ele>
        <time>2017-03-26T08:16:20.000Z</time>
      </trkpt>
      <trkpt lat="47.42355" lon="6.79922">
        <ele>559.2</ele>
        <time>2017-03-26T08:16:21.000Z</time>
      </trkpt>
      <trkpt lat="47.42353" lon="6.79927">
        <ele>559.6</ele>
        <time>2017-03-26T08:16:23.000Z</time>
      </trkpt>
      <trkpt lat="47.4235" lon="6.79935">
        <ele>560</ele>
        <time>2017-03-26T08:16:25.000Z</time>
      </trkpt>
      <trkpt lat="47.42347" lon="6.7994">
        <ele>560.3</ele>
        <time>2017-03-26T08:16:27.000Z</time>
      </trkpt>
      <trkpt lat="47.42347" lon="6.79942">
        <ele>560.3</ele>
        <time>2017-03-26T08:16:28.000Z</time>
      </trkpt>
      <trkpt lat="47.42342" lon="6.7995">
        <ele>560.5</ele>
        <time>2017-03-26T08:16:29.000Z</time>
      </trkpt>
      <trkpt lat="47.42338" lon="6.79954">
        <ele>560.7</ele>
        <time>2017-03-26T08:16:30.000Z</time>
      </trkpt>
      <trkpt lat="47.42335" lon="6.79958">
        <ele>560.9</ele>
        <time>2017-03-26T08:16:31.000Z</time>
      </trkpt>
      <trkpt lat="47.42333" lon="6.7996">
        <ele>560.9</ele>
        <time>2017-03-26T08:16:32.000Z</time>
      </trkpt>
      <trkpt lat="47.42332" lon="6.79962">
        <ele>561</ele>
        <time>2017-03-26T08:16:33.000Z</time>
      </trkpt>
      <trkpt lat="47.42329" lon="6.79964">
        <ele>561.1</ele>
        <time>2017-03-26T08:16:34.000Z</time>
      </trkpt>
      <trkpt lat="47.42326" lon="6.79968">
        <ele>561.6</ele>
        <time>2017-03-26T08:16:36.000Z</time>
      </trkpt>
      <trkpt lat="47.42324" lon="6.79969">
        <ele>561.9</ele>
        <time>2017-03-26T08:16:37.000Z</time>
      </trkpt>
      <trkpt lat="47.42322" lon="6.79973">
        <ele>562.3</ele>
        <time>2017-03-26T08:16:39.000Z</time>
      </trkpt>
      <trkpt lat="47.42319" lon="6.79975">
        <ele>562.4</ele>
        <time>2017-03-26T08:16:40.000Z</time>
      </trkpt>
      <trkpt lat="47.4231" lon="6.79985">
        <ele>562.6</ele>
        <time>2017-03-26T08:16:41.000Z</time>
      </trkpt>
      <trkpt lat="47.42308" lon="6.79987">
        <ele>562.7</ele>
        <time>2017-03-26T08:16:43.000Z</time>
      </trkpt>
      <trkpt lat="47.42306" lon="6.79989">
        <ele>563</ele>
        <time>2017-03-26T08:16:44.000Z</time>
      </trkpt>
      <trkpt lat="47.42302" lon="6.79993">
        <ele>563.4</ele>
        <time>2017-03-26T08:16:45.000Z</time>
      </trkpt>
      <trkpt lat="47.42299" lon="6.79996">
        <ele>563.7</ele>
        <time>2017-03-26T08:16:46.000Z</time>
      </trkpt>
      <trkpt lat="47.42297" lon="6.8">
        <ele>564</ele>
        <time>2017-03-26T08:16:47.000Z</time>
      </trkpt>
      <trkpt lat="47.42295" lon="6.80002">
        <ele>564.2</ele>
        <time>2017-03-26T08:16:48.000Z</time>
      </trkpt>
      <trkpt lat="47.42292" lon="6.80006">
        <ele>564.4</ele>
        <time>2017-03-26T08:16:49.000Z</time>
      </trkpt>
      <trkpt lat="47.42289" lon="6.80009">
        <ele>564.5</ele>
        <time>2017-03-26T08:16:50.000Z</time>
      </trkpt>
      <trkpt lat="47.42284" lon="6.80017">
        <ele>564.7</ele>
        <time>2017-03-26T08:16:51.000Z</time>
      </trkpt>
      <trkpt lat="47.42278" lon="6.80023">
        <ele>564.9</ele>
        <time>2017-03-26T08:16:52.000Z</time>
      </trkpt>
      <trkpt lat="47.42274" lon="6.80026">
        <ele>565.1</ele>
        <time>2017-03-26T08:16:53.000Z</time>
      </trkpt>
      <trkpt lat="47.4227" lon="6.80029">
        <ele>565.3</ele>
        <time>2017-03-26T08:16:54.000Z</time>
      </trkpt>
      <trkpt lat="47.42266" lon="6.80031">
        <ele>565.6</ele>
        <time>2017-03-26T08:16:55.000Z</time>
      </trkpt>
      <trkpt lat="47.42263" lon="6.80033">
        <ele>565.9</ele>
        <time>2017-03-26T08:16:57.000Z</time>
      </trkpt>
      <trkpt lat="47.42262" lon="6.80034">
        <ele>566.2</ele>
        <time>2017-03-26T08:16:58.000Z</time>
      </trkpt>
      <trkpt lat="47.42259" lon="6.80036">
        <ele>566.4</ele>
        <time>2017-03-26T08:16:59.000Z</time>
      </trkpt>
      <trkpt lat="47.42258" lon="6.80039">
        <ele>566.6</ele>
        <time>2017-03-26T08:17:00.000Z</time>
      </trkpt>
      <trkpt lat="47.42255" lon="6.80042">
        <ele>566.8</ele>
        <time>2017-03-26T08:17:01.000Z</time>
      </trkpt>
      <trkpt lat="47.42252" lon="6.80044">
        <ele>567</ele>
        <time>2017-03-26T08:17:02.000Z</time>
      </trkpt>
      <trkpt lat="47.42249" lon="6.80048">
        <ele>567.5</ele>
        <time>2017-03-26T08:17:04.000Z</time>
      </trkpt>
      <trkpt lat="47.42248" lon="6.8005">
        <ele>567.9</ele>
        <time>2017-03-26T08:17:05.000Z</time>
      </trkpt>
      <trkpt lat="47.42245" lon="6.80054">
        <ele>568.7</ele>
        <time>2017-03-26T08:17:08.000Z</time>
      </trkpt>
      <trkpt lat="47.42242" lon="6.80057">
        <ele>569</ele>
        <time>2017-03-26T08:17:09.000Z</time>
      </trkpt>
      <trkpt lat="47.4224" lon="6.80059">
        <ele>569.3</ele>
        <time>2017-03-26T08:17:10.000Z</time>
      </trkpt>
      <trkpt lat="47.42237" lon="6.80063">
        <ele>569.4</ele>
        <time>2017-03-26T08:17:11.000Z</time>
      </trkpt>
      <trkpt lat="47.42236" lon="6.80066">
        <ele>569.5</ele>
        <time>2017-03-26T08:17:12.000Z</time>
      </trkpt>
      <trkpt lat="47.42233" lon="6.80069">
        <ele>569.6</ele>
        <time>2017-03-26T08:17:13.000Z</time>
      </trkpt>
      <trkpt lat="47.42228" lon="6.80072">
        <ele>569.5</ele>
        <time>2017-03-26T08:17:14.000Z</time>
      </trkpt>
      <trkpt lat="47.42227" lon="6.80074">
        <ele>569.6</ele>
        <time>2017-03-26T08:17:16.000Z</time>
      </trkpt>
      <trkpt lat="47.42225" lon="6.80077">
        <ele>569.6</ele>
        <time>2017-03-26T08:17:17.000Z</time>
      </trkpt>
      <trkpt lat="47.42221" lon="6.80081">
        <ele>569.5</ele>
        <time>2017-03-26T08:17:18.000Z</time>
      </trkpt>
      <trkpt lat="47.42211" lon="6.80089">
        <ele>569.6</ele>
        <time>2017-03-26T08:17:19.000Z</time>
      </trkpt>
      <trkpt lat="47.42205" lon="6.80093">
        <ele>569.6</ele>
        <time>2017-03-26T08:17:20.000Z</time>
      </trkpt>
      <trkpt lat="47.42196" lon="6.80098">
        <ele>569.7</ele>
        <time>2017-03-26T08:17:21.000Z</time>
      </trkpt>
      <trkpt lat="47.42194" lon="6.80101">
        <ele>569.8</ele>
        <time>2017-03-26T08:17:22.000Z</time>
      </trkpt>
      <trkpt lat="47.4219" lon="6.80103">
        <ele>570</ele>
        <time>2017-03-26T08:17:23.000Z</time>
      </trkpt>
      <trkpt lat="47.42185" lon="6.80107">
        <ele>570</ele>
        <time>2017-03-26T08:17:24.000Z</time>
      </trkpt>
      <trkpt lat="47.42182" lon="6.80109">
        <ele>570</ele>
        <time>2017-03-26T08:17:25.000Z</time>
      </trkpt>
      <trkpt lat="47.42181" lon="6.8011">
        <ele>570.1</ele>
        <time>2017-03-26T08:17:26.000Z</time>
      </trkpt>
      <trkpt lat="47.42177" lon="6.80112">
        <ele>570.4</ele>
        <time>2017-03-26T08:17:28.000Z</time>
      </trkpt>
      <trkpt lat="47.42175" lon="6.80114">
        <ele>570.5</ele>
        <time>2017-03-26T08:17:29.000Z</time>
      </trkpt>
      <trkpt lat="47.42172" lon="6.80118">
        <ele>570.7</ele>
        <time>2017-03-26T08:17:30.000Z</time>
      </trkpt>
      <trkpt lat="47.42169" lon="6.80121">
        <ele>570.9</ele>
        <time>2017-03-26T08:17:31.000Z</time>
      </trkpt>
      <trkpt lat="47.42167" lon="6.80123">
        <ele>571.1</ele>
        <time>2017-03-26T08:17:32.000Z</time>
      </trkpt>
      <trkpt lat="47.42164" lon="6.80125">
        <ele>571.4</ele>
        <time>2017-03-26T08:17:33.000Z</time>
      </trkpt>
      <trkpt lat="47.42161" lon="6.80127">
        <ele>571.5</ele>
        <time>2017-03-26T08:17:34.000Z</time>
      </trkpt>
      <trkpt lat="47.42159" lon="6.8013">
        <ele>571.7</ele>
        <time>2017-03-26T08:17:35.000Z</time>
      </trkpt>
      <trkpt lat="47.42156" lon="6.80132">
        <ele>571.8</ele>
        <time>2017-03-26T08:17:36.000Z</time>
      </trkpt>
      <trkpt lat="47.42153" lon="6.80135">
        <ele>571.9</ele>
        <time>2017-03-26T08:17:37.000Z</time>
      </trkpt>
      <trkpt lat="47.4215" lon="6.80136">
        <ele>572</ele>
        <time>2017-03-26T08:17:38.000Z</time>
      </trkpt>
      <trkpt lat="47.42147" lon="6.80136">
        <ele>572.2</ele>
        <time>2017-03-26T08:17:39.000Z</time>
      </trkpt>
      <trkpt lat="47.42145" lon="6.80138">
        <ele>572.3</ele>
        <time>2017-03-26T08:17:40.000Z</time>
      </trkpt>
      <trkpt lat="47.42142" lon="6.80139">
        <ele>572.4</ele>
        <time>2017-03-26T08:17:41.000Z</time>
      </trkpt>
      <trkpt lat="47.4214" lon="6.80141">
        <ele>572.5</ele>
        <time>2017-03-26T08:17:42.000Z</time>
      </trkpt>
      <trkpt lat="47.42138" lon="6.80144">
        <ele>572.6</ele>
        <time>2017-03-26T08:17:43.000Z</time>
      </trkpt>
      <trkpt lat="47.42135" lon="6.80146">
        <ele>572.7</ele>
        <time>2017-03-26T08:17:44.000Z</time>
      </trkpt>
      <trkpt lat="47.42133" lon="6.80148">
        <ele>572.9</ele>
        <time>2017-03-26T08:17:45.000Z</time>
      </trkpt>
      <trkpt lat="47.4213" lon="6.8015">
        <ele>573</ele>
        <time>2017-03-26T08:17:46.000Z</time>
      </trkpt>
      <trkpt lat="47.42128" lon="6.80152">
        <ele>573.2</ele>
        <time>2017-03-26T08:17:47.000Z</time>
      </trkpt>
      <trkpt lat="47.42125" lon="6.80156">
        <ele>573.3</ele>
        <time>2017-03-26T08:17:48.000Z</time>
      </trkpt>
      <trkpt lat="47.42122" lon="6.80158">
        <ele>573.4</ele>
        <time>2017-03-26T08:17:49.000Z</time>
      </trkpt>
      <trkpt lat="47.42119" lon="6.8016">
        <ele>573.5</ele>
        <time>2017-03-26T08:17:50.000Z</time>
      </trkpt>
      <trkpt lat="47.42116" lon="6.80163">
        <ele>573.6</ele>
        <time>2017-03-26T08:17:51.000Z</time>
      </trkpt>
      <trkpt lat="47.42113" lon="6.80166">
        <ele>573.7</ele>
        <time>2017-03-26T08:17:52.000Z</time>
      </trkpt>
      <trkpt lat="47.4211" lon="6.80168">
        <ele>573.9</ele>
        <time>2017-03-26T08:17:53.000Z</time>
      </trkpt>
      <trkpt lat="47.42107" lon="6.8017">
        <ele>574</ele>
        <time>2017-03-26T08:17:54.000Z</time>
      </trkpt>
      <trkpt lat="47.42105" lon="6.80173">
        <ele>574.2</ele>
        <time>2017-03-26T08:17:55.000Z</time>
      </trkpt>
      <trkpt lat="47.42103" lon="6.80177">
        <ele>574.3</ele>
        <time>2017-03-26T08:17:56.000Z</time>
      </trkpt>
      <trkpt lat="47.42103" lon="6.80183">
        <ele>574.3</ele>
        <time>2017-03-26T08:17:57.000Z</time>
      </trkpt>
      <trkpt lat="47.42105" lon="6.80189">
        <ele>574.3</ele>
        <time>2017-03-26T08:17:58.000Z</time>
      </trkpt>
      <trkpt lat="47.42106" lon="6.80195">
        <ele>574.2</ele>
        <time>2017-03-26T08:17:59.000Z</time>
      </trkpt>
      <trkpt lat="47.42108" lon="6.80201">
        <ele>574.1</ele>
        <time>2017-03-26T08:18:00.000Z</time>
      </trkpt>
      <trkpt lat="47.42109" lon="6.80207">
        <ele>574</ele>
        <time>2017-03-26T08:18:01.000Z</time>
      </trkpt>
      <trkpt lat="47.42112" lon="6.80214">
        <ele>572.4</ele>
        <time>2017-03-26T08:18:02.000Z</time>
      </trkpt>
      <trkpt lat="47.42113" lon="6.80217">
        <ele>572.3</ele>
        <time>2017-03-26T08:18:03.000Z</time>
      </trkpt>
      <trkpt lat="47.42115" lon="6.80223">
        <ele>572.4</ele>
        <time>2017-03-26T08:18:04.000Z</time>
      </trkpt>
      <trkpt lat="47.42119" lon="6.80227">
        <ele>572.3</ele>
        <time>2017-03-26T08:18:05.000Z</time>
      </trkpt>
      <trkpt lat="47.42121" lon="6.80232">
        <ele>572.2</ele>
        <time>2017-03-26T08:18:06.000Z</time>
      </trkpt>
      <trkpt lat="47.42124" lon="6.80236">
        <ele>572.1</ele>
        <time>2017-03-26T08:18:07.000Z</time>
      </trkpt>
      <trkpt lat="47.42125" lon="6.80239">
        <ele>572</ele>
        <time>2017-03-26T08:18:08.000Z</time>
      </trkpt>
      <trkpt lat="47.42127" lon="6.80242">
        <ele>571.9</ele>
        <time>2017-03-26T08:18:09.000Z</time>
      </trkpt>
      <trkpt lat="47.42129" lon="6.80247">
        <ele>571.8</ele>
        <time>2017-03-26T08:18:10.000Z</time>
      </trkpt>
      <trkpt lat="47.42131" lon="6.80252">
        <ele>571.7</ele>
        <time>2017-03-26T08:18:11.000Z</time>
      </trkpt>
      <trkpt lat="47.42133" lon="6.80256">
        <ele>571.6</ele>
        <time>2017-03-26T08:18:12.000Z</time>
      </trkpt>
      <trkpt lat="47.42135" lon="6.80261">
        <ele>571.6</ele>
        <time>2017-03-26T08:18:13.000Z</time>
      </trkpt>
      <trkpt lat="47.42138" lon="6.80264">
        <ele>571.5</ele>
        <time>2017-03-26T08:18:14.000Z</time>
      </trkpt>
      <trkpt lat="47.4214" lon="6.80269">
        <ele>571.4</ele>
        <time>2017-03-26T08:18:15.000Z</time>
      </trkpt>
      <trkpt lat="47.42141" lon="6.80273">
        <ele>571.3</ele>
        <time>2017-03-26T08:18:16.000Z</time>
      </trkpt>
      <trkpt lat="47.42143" lon="6.80279">
        <ele>571.2</ele>
        <time>2017-03-26T08:18:18.000Z</time>
      </trkpt>
      <trkpt lat="47.42144" lon="6.80282">
        <ele>571.2</ele>
        <time>2017-03-26T08:18:19.000Z</time>
      </trkpt>
      <trkpt lat="47.42146" lon="6.80287">
        <ele>571</ele>
        <time>2017-03-26T08:18:22.000Z</time>
      </trkpt>
      <trkpt lat="47.42147" lon="6.80291">
        <ele>570.8</ele>
        <time>2017-03-26T08:18:23.000Z</time>
      </trkpt>
      <trkpt lat="47.42149" lon="6.80296">
        <ele>570.6</ele>
        <time>2017-03-26T08:18:24.000Z</time>
      </trkpt>
      <trkpt lat="47.4215" lon="6.80299">
        <ele>570.5</ele>
        <time>2017-03-26T08:18:25.000Z</time>
      </trkpt>
      <trkpt lat="47.42153" lon="6.80303">
        <ele>570.4</ele>
        <time>2017-03-26T08:18:26.000Z</time>
      </trkpt>
      <trkpt lat="47.42156" lon="6.80307">
        <ele>570.2</ele>
        <time>2017-03-26T08:18:27.000Z</time>
      </trkpt>
      <trkpt lat="47.42159" lon="6.80312">
        <ele>570.1</ele>
        <time>2017-03-26T08:18:28.000Z</time>
      </trkpt>
      <trkpt lat="47.42162" lon="6.80318">
        <ele>569.9</ele>
        <time>2017-03-26T08:18:29.000Z</time>
      </trkpt>
      <trkpt lat="47.42165" lon="6.80322">
        <ele>569.8</ele>
        <time>2017-03-26T08:18:30.000Z</time>
      </trkpt>
      <trkpt lat="47.42167" lon="6.80327">
        <ele>569.7</ele>
        <time>2017-03-26T08:18:31.000Z</time>
      </trkpt>
      <trkpt lat="47.4217" lon="6.80335">
        <ele>569.5</ele>
        <time>2017-03-26T08:18:32.000Z</time>
      </trkpt>
      <trkpt lat="47.42174" lon="6.80342">
        <ele>569.4</ele>
        <time>2017-03-26T08:18:33.000Z</time>
      </trkpt>
      <trkpt lat="47.42177" lon="6.80348">
        <ele>569.1</ele>
        <time>2017-03-26T08:18:34.000Z</time>
      </trkpt>
      <trkpt lat="47.42181" lon="6.80355">
        <ele>568.8</ele>
        <time>2017-03-26T08:18:35.000Z</time>
      </trkpt>
      <trkpt lat="47.42185" lon="6.80361">
        <ele>568.5</ele>
        <time>2017-03-26T08:18:36.000Z</time>
      </trkpt>
      <trkpt lat="47.42188" lon="6.80367">
        <ele>566.1</ele>
        <time>2017-03-26T08:18:37.000Z</time>
      </trkpt>
      <trkpt lat="47.42188" lon="6.80374">
        <ele>565.8</ele>
        <time>2017-03-26T08:18:38.000Z</time>
      </trkpt>
      <trkpt lat="47.42191" lon="6.8038">
        <ele>564.1</ele>
        <time>2017-03-26T08:18:39.000Z</time>
      </trkpt>
      <trkpt lat="47.42195" lon="6.80387">
        <ele>561.9</ele>
        <time>2017-03-26T08:18:40.000Z</time>
      </trkpt>
      <trkpt lat="47.422" lon="6.80391">
        <ele>559.3</ele>
        <time>2017-03-26T08:18:41.000Z</time>
      </trkpt>
      <trkpt lat="47.42205" lon="6.80396">
        <ele>556.6</ele>
        <time>2017-03-26T08:18:42.000Z</time>
      </trkpt>
      <trkpt lat="47.42208" lon="6.80401">
        <ele>556.3</ele>
        <time>2017-03-26T08:18:43.000Z</time>
      </trkpt>
      <trkpt lat="47.42213" lon="6.80409">
        <ele>553.4</ele>
        <time>2017-03-26T08:18:44.000Z</time>
      </trkpt>
      <trkpt lat="47.42218" lon="6.80416">
        <ele>551.9</ele>
        <time>2017-03-26T08:18:45.000Z</time>
      </trkpt>
      <trkpt lat="47.42222" lon="6.80424">
        <ele>550.6</ele>
        <time>2017-03-26T08:18:46.000Z</time>
      </trkpt>
      <trkpt lat="47.42225" lon="6.80432">
        <ele>550.4</ele>
        <time>2017-03-26T08:18:47.000Z</time>
      </trkpt>
      <trkpt lat="47.4223" lon="6.80441">
        <ele>549.2</ele>
        <time>2017-03-26T08:18:48.000Z</time>
      </trkpt>
      <trkpt lat="47.42234" lon="6.80448">
        <ele>548.2</ele>
        <time>2017-03-26T08:18:49.000Z</time>
      </trkpt>
      <trkpt lat="47.42239" lon="6.80455">
        <ele>547.5</ele>
        <time>2017-03-26T08:18:50.000Z</time>
      </trkpt>
      <trkpt lat="47.42245" lon="6.80463">
        <ele>546.3</ele>
        <time>2017-03-26T08:18:51.000Z</time>
      </trkpt>
      <trkpt lat="47.42251" lon="6.80471">
        <ele>546.1</ele>
        <time>2017-03-26T08:18:52.000Z</time>
      </trkpt>
      <trkpt lat="47.42256" lon="6.8048">
        <ele>545.9</ele>
        <time>2017-03-26T08:18:53.000Z</time>
      </trkpt>
      <trkpt lat="47.42259" lon="6.80492">
        <ele>545.8</ele>
        <time>2017-03-26T08:18:54.000Z</time>
      </trkpt>
      <trkpt lat="47.42263" lon="6.80499">
        <ele>543.8</ele>
        <time>2017-03-26T08:18:55.000Z</time>
      </trkpt>
      <trkpt lat="47.42269" lon="6.80507">
        <ele>541.1</ele>
        <time>2017-03-26T08:18:56.000Z</time>
      </trkpt>
      <trkpt lat="47.42274" lon="6.80515">
        <ele>539.8</ele>
        <time>2017-03-26T08:18:57.000Z</time>
      </trkpt>
      <trkpt lat="47.42278" lon="6.80523">
        <ele>538.5</ele>
        <time>2017-03-26T08:18:58.000Z</time>
      </trkpt>
      <trkpt lat="47.42282" lon="6.80532">
        <ele>538.2</ele>
        <time>2017-03-26T08:18:59.000Z</time>
      </trkpt>
      <trkpt lat="47.42287" lon="6.80543">
        <ele>537.7</ele>
        <time>2017-03-26T08:19:00.000Z</time>
      </trkpt>
      <trkpt lat="47.42292" lon="6.80552">
        <ele>536.7</ele>
        <time>2017-03-26T08:19:01.000Z</time>
      </trkpt>
      <trkpt lat="47.42301" lon="6.80568">
        <ele>535.8</ele>
        <time>2017-03-26T08:19:02.000Z</time>
      </trkpt>
      <trkpt lat="47.42307" lon="6.80578">
        <ele>535.1</ele>
        <time>2017-03-26T08:19:03.000Z</time>
      </trkpt>
      <trkpt lat="47.42312" lon="6.80587">
        <ele>534.7</ele>
        <time>2017-03-26T08:19:04.000Z</time>
      </trkpt>
      <trkpt lat="47.42317" lon="6.80596">
        <ele>534.4</ele>
        <time>2017-03-26T08:19:05.000Z</time>
      </trkpt>
      <trkpt lat="47.42323" lon="6.80605">
        <ele>534.4</ele>
        <time>2017-03-26T08:19:06.000Z</time>
      </trkpt>
      <trkpt lat="47.42327" lon="6.80613">
        <ele>534.4</ele>
        <time>2017-03-26T08:19:07.000Z</time>
      </trkpt>
      <trkpt lat="47.42336" lon="6.80627">
        <ele>534.5</ele>
        <time>2017-03-26T08:19:08.000Z</time>
      </trkpt>
      <trkpt lat="47.4234" lon="6.80634">
        <ele>534.5</ele>
        <time>2017-03-26T08:19:09.000Z</time>
      </trkpt>
      <trkpt lat="47.42344" lon="6.8064">
        <ele>534.4</ele>
        <time>2017-03-26T08:19:10.000Z</time>
      </trkpt>
      <trkpt lat="47.42351" lon="6.80646">
        <ele>534.2</ele>
        <time>2017-03-26T08:19:11.000Z</time>
      </trkpt>
      <trkpt lat="47.42355" lon="6.80649">
        <ele>533.7</ele>
        <time>2017-03-26T08:19:13.000Z</time>
      </trkpt>
      <trkpt lat="47.42356" lon="6.80649">
        <ele>533.5</ele>
        <time>2017-03-26T08:19:14.000Z</time>
      </trkpt>
      <trkpt lat="47.42361" lon="6.80648">
        <ele>533.3</ele>
        <time>2017-03-26T08:19:15.000Z</time>
      </trkpt>
      <trkpt lat="47.42363" lon="6.80648">
        <ele>533.1</ele>
        <time>2017-03-26T08:19:17.000Z</time>
      </trkpt>
      <trkpt lat="47.42365" lon="6.8065">
        <ele>533</ele>
        <time>2017-03-26T08:19:18.000Z</time>
      </trkpt>
      <trkpt lat="47.42368" lon="6.80654">
        <ele>533</ele>
        <time>2017-03-26T08:19:19.000Z</time>
      </trkpt>
      <trkpt lat="47.42371" lon="6.80659">
        <ele>533.1</ele>
        <time>2017-03-26T08:19:20.000Z</time>
      </trkpt>
      <trkpt lat="47.42374" lon="6.80663">
        <ele>533.2</ele>
        <time>2017-03-26T08:19:21.000Z</time>
      </trkpt>
      <trkpt lat="47.42376" lon="6.80668">
        <ele>533.5</ele>
        <time>2017-03-26T08:19:22.000Z</time>
      </trkpt>
      <trkpt lat="47.42379" lon="6.80673">
        <ele>533.7</ele>
        <time>2017-03-26T08:19:23.000Z</time>
      </trkpt>
      <trkpt lat="47.42384" lon="6.80678">
        <ele>533.8</ele>
        <time>2017-03-26T08:19:24.000Z</time>
      </trkpt>
      <trkpt lat="47.42387" lon="6.80684">
        <ele>534</ele>
        <time>2017-03-26T08:19:25.000Z</time>
      </trkpt>
      <trkpt lat="47.42391" lon="6.8069">
        <ele>536</ele>
        <time>2017-03-26T08:19:26.000Z</time>
      </trkpt>
      <trkpt lat="47.42394" lon="6.80694">
        <ele>536.2</ele>
        <time>2017-03-26T08:19:27.000Z</time>
      </trkpt>
      <trkpt lat="47.42399" lon="6.807">
        <ele>536.4</ele>
        <time>2017-03-26T08:19:28.000Z</time>
      </trkpt>
      <trkpt lat="47.42403" lon="6.80707">
        <ele>536.7</ele>
        <time>2017-03-26T08:19:29.000Z</time>
      </trkpt>
      <trkpt lat="47.42412" lon="6.80721">
        <ele>537</ele>
        <time>2017-03-26T08:19:30.000Z</time>
      </trkpt>
      <trkpt lat="47.42417" lon="6.80728">
        <ele>540.9</ele>
        <time>2017-03-26T08:19:31.000Z</time>
      </trkpt>
      <trkpt lat="47.42422" lon="6.80734">
        <ele>544.2</ele>
        <time>2017-03-26T08:19:32.000Z</time>
      </trkpt>
      <trkpt lat="47.42427" lon="6.80739">
        <ele>546.7</ele>
        <time>2017-03-26T08:19:33.000Z</time>
      </trkpt>
      <trkpt lat="47.4243" lon="6.80744">
        <ele>546.9</ele>
        <time>2017-03-26T08:19:34.000Z</time>
      </trkpt>
      <trkpt lat="47.42435" lon="6.80749">
        <ele>548.2</ele>
        <time>2017-03-26T08:19:35.000Z</time>
      </trkpt>
      <trkpt lat="47.4244" lon="6.80754">
        <ele>549</ele>
        <time>2017-03-26T08:19:36.000Z</time>
      </trkpt>
      <trkpt lat="47.42443" lon="6.8076">
        <ele>548.8</ele>
        <time>2017-03-26T08:19:37.000Z</time>
      </trkpt>
      <trkpt lat="47.42445" lon="6.80768">
        <ele>547.9</ele>
        <time>2017-03-26T08:19:38.000Z</time>
      </trkpt>
      <trkpt lat="47.42448" lon="6.80775">
        <ele>547.2</ele>
        <time>2017-03-26T08:19:39.000Z</time>
      </trkpt>
      <trkpt lat="47.42452" lon="6.80781">
        <ele>546.9</ele>
        <time>2017-03-26T08:19:40.000Z</time>
      </trkpt>
      <trkpt lat="47.42456" lon="6.80783">
        <ele>546.6</ele>
        <time>2017-03-26T08:19:41.000Z</time>
      </trkpt>
      <trkpt lat="47.42459" lon="6.80785">
        <ele>546.4</ele>
        <time>2017-03-26T08:19:42.000Z</time>
      </trkpt>
      <trkpt lat="47.42465" lon="6.80787">
        <ele>544</ele>
        <time>2017-03-26T08:19:43.000Z</time>
      </trkpt>
      <trkpt lat="47.4247" lon="6.8079">
        <ele>542.1</ele>
        <time>2017-03-26T08:19:44.000Z</time>
      </trkpt>
      <trkpt lat="47.42476" lon="6.80796">
        <ele>540.5</ele>
        <time>2017-03-26T08:19:45.000Z</time>
      </trkpt>
      <trkpt lat="47.42483" lon="6.80804">
        <ele>538.7</ele>
        <time>2017-03-26T08:19:46.000Z</time>
      </trkpt>
      <trkpt lat="47.42489" lon="6.80813">
        <ele>537.4</ele>
        <time>2017-03-26T08:19:47.000Z</time>
      </trkpt>
      <trkpt lat="47.42495" lon="6.8082">
        <ele>536.2</ele>
        <time>2017-03-26T08:19:48.000Z</time>
      </trkpt>
      <trkpt lat="47.425" lon="6.80829">
        <ele>535.1</ele>
        <time>2017-03-26T08:19:49.000Z</time>
      </trkpt>
      <trkpt lat="47.42507" lon="6.80836">
        <ele>533.6</ele>
        <time>2017-03-26T08:19:50.000Z</time>
      </trkpt>
      <trkpt lat="47.42514" lon="6.80843">
        <ele>533.2</ele>
        <time>2017-03-26T08:19:51.000Z</time>
      </trkpt>
      <trkpt lat="47.42522" lon="6.80849">
        <ele>533.1</ele>
        <time>2017-03-26T08:19:52.000Z</time>
      </trkpt>
      <trkpt lat="47.42528" lon="6.80852">
        <ele>532</ele>
        <time>2017-03-26T08:19:53.000Z</time>
      </trkpt>
      <trkpt lat="47.42534" lon="6.80852">
        <ele>530.7</ele>
        <time>2017-03-26T08:19:54.000Z</time>
      </trkpt>
      <trkpt lat="47.42541" lon="6.80855">
        <ele>528.9</ele>
        <time>2017-03-26T08:19:55.000Z</time>
      </trkpt>
      <trkpt lat="47.42549" lon="6.80859">
        <ele>527.3</ele>
        <time>2017-03-26T08:19:56.000Z</time>
      </trkpt>
      <trkpt lat="47.42555" lon="6.80864">
        <ele>525.6</ele>
        <time>2017-03-26T08:19:57.000Z</time>
      </trkpt>
      <trkpt lat="47.42563" lon="6.80868">
        <ele>524</ele>
        <time>2017-03-26T08:19:58.000Z</time>
      </trkpt>
      <trkpt lat="47.4257" lon="6.80873">
        <ele>522.4</ele>
        <time>2017-03-26T08:19:59.000Z</time>
      </trkpt>
      <trkpt lat="47.42576" lon="6.80878">
        <ele>520.4</ele>
        <time>2017-03-26T08:20:00.000Z</time>
      </trkpt>
      <trkpt lat="47.42584" lon="6.80882">
        <ele>517.8</ele>
        <time>2017-03-26T08:20:01.000Z</time>
      </trkpt>
      <trkpt lat="47.4259" lon="6.80887">
        <ele>515.6</ele>
        <time>2017-03-26T08:20:02.000Z</time>
      </trkpt>
      <trkpt lat="47.42595" lon="6.80893">
        <ele>513.9</ele>
        <time>2017-03-26T08:20:03.000Z</time>
      </trkpt>
      <trkpt lat="47.42599" lon="6.80896">
        <ele>513.8</ele>
        <time>2017-03-26T08:20:04.000Z</time>
      </trkpt>
      <trkpt lat="47.42604" lon="6.80903">
        <ele>513.7</ele>
        <time>2017-03-26T08:20:05.000Z</time>
      </trkpt>
      <trkpt lat="47.42608" lon="6.80911">
        <ele>513</ele>
        <time>2017-03-26T08:20:06.000Z</time>
      </trkpt>
      <trkpt lat="47.42611" lon="6.80921">
        <ele>512.8</ele>
        <time>2017-03-26T08:20:07.000Z</time>
      </trkpt>
      <trkpt lat="47.42616" lon="6.80929">
        <ele>512.7</ele>
        <time>2017-03-26T08:20:08.000Z</time>
      </trkpt>
      <trkpt lat="47.42622" lon="6.80936">
        <ele>512.5</ele>
        <time>2017-03-26T08:20:09.000Z</time>
      </trkpt>
      <trkpt lat="47.42628" lon="6.80942">
        <ele>512.4</ele>
        <time>2017-03-26T08:20:10.000Z</time>
      </trkpt>
      <trkpt lat="47.42634" lon="6.80945">
        <ele>512.3</ele>
        <time>2017-03-26T08:20:11.000Z</time>
      </trkpt>
      <trkpt lat="47.42638" lon="6.80946">
        <ele>512.3</ele>
        <time>2017-03-26T08:20:12.000Z</time>
      </trkpt>
      <trkpt lat="47.42641" lon="6.80948">
        <ele>512.3</ele>
        <time>2017-03-26T08:20:13.000Z</time>
      </trkpt>
      <trkpt lat="47.42645" lon="6.80949">
        <ele>512.3</ele>
        <time>2017-03-26T08:20:14.000Z</time>
      </trkpt>
      <trkpt lat="47.42648" lon="6.8095">
        <ele>512.2</ele>
        <time>2017-03-26T08:20:15.000Z</time>
      </trkpt>
      <trkpt lat="47.42651" lon="6.80951">
        <ele>512.2</ele>
        <time>2017-03-26T08:20:16.000Z</time>
      </trkpt>
      <trkpt lat="47.42654" lon="6.80954">
        <ele>512.2</ele>
        <time>2017-03-26T08:20:17.000Z</time>
      </trkpt>
      <trkpt lat="47.42657" lon="6.80957">
        <ele>512.3</ele>
        <time>2017-03-26T08:20:20.000Z</time>
      </trkpt>
      <trkpt lat="47.4266" lon="6.80961">
        <ele>512.4</ele>
        <time>2017-03-26T08:20:21.000Z</time>
      </trkpt>
      <trkpt lat="47.42665" lon="6.80965">
        <ele>512.4</ele>
        <time>2017-03-26T08:20:22.000Z</time>
      </trkpt>
      <trkpt lat="47.42668" lon="6.80968">
        <ele>512.4</ele>
        <time>2017-03-26T08:20:23.000Z</time>
      </trkpt>
      <trkpt lat="47.42671" lon="6.80971">
        <ele>512.4</ele>
        <time>2017-03-26T08:20:24.000Z</time>
      </trkpt>
      <trkpt lat="47.42674" lon="6.80974">
        <ele>512.2</ele>
        <time>2017-03-26T08:20:25.000Z</time>
      </trkpt>
      <trkpt lat="47.42678" lon="6.80978">
        <ele>511.9</ele>
        <time>2017-03-26T08:20:26.000Z</time>
      </trkpt>
      <trkpt lat="47.42682" lon="6.80981">
        <ele>511.6</ele>
        <time>2017-03-26T08:20:27.000Z</time>
      </trkpt>
      <trkpt lat="47.42685" lon="6.80983">
        <ele>510.9</ele>
        <time>2017-03-26T08:20:29.000Z</time>
      </trkpt>
      <trkpt lat="47.42687" lon="6.80987">
        <ele>510.6</ele>
        <time>2017-03-26T08:20:30.000Z</time>
      </trkpt>
      <trkpt lat="47.42689" lon="6.8099">
        <ele>510.2</ele>
        <time>2017-03-26T08:20:31.000Z</time>
      </trkpt>
      <trkpt lat="47.42692" lon="6.80992">
        <ele>509.9</ele>
        <time>2017-03-26T08:20:32.000Z</time>
      </trkpt>
      <trkpt lat="47.42697" lon="6.80995">
        <ele>509.7</ele>
        <time>2017-03-26T08:20:33.000Z</time>
      </trkpt>
      <trkpt lat="47.427" lon="6.80999">
        <ele>509.5</ele>
        <time>2017-03-26T08:20:34.000Z</time>
      </trkpt>
      <trkpt lat="47.42705" lon="6.81003">
        <ele>509.2</ele>
        <time>2017-03-26T08:20:35.000Z</time>
      </trkpt>
      <trkpt lat="47.42708" lon="6.81005">
        <ele>507.7</ele>
        <time>2017-03-26T08:20:42.000Z</time>
      </trkpt>
      <trkpt lat="47.42709" lon="6.81004">
        <ele>507.8</ele>
        <time>2017-03-26T08:20:43.000Z</time>
      </trkpt>
      <trkpt lat="47.42711" lon="6.81005">
        <ele>508.1</ele>
        <time>2017-03-26T08:20:44.000Z</time>
      </trkpt>
      <trkpt lat="47.42714" lon="6.81006">
        <ele>508.5</ele>
        <time>2017-03-26T08:20:45.000Z</time>
      </trkpt>
      <trkpt lat="47.42717" lon="6.81008">
        <ele>509</ele>
        <time>2017-03-26T08:20:46.000Z</time>
      </trkpt>
      <trkpt lat="47.42721" lon="6.81011">
        <ele>509.2</ele>
        <time>2017-03-26T08:20:47.000Z</time>
      </trkpt>
      <trkpt lat="47.42721" lon="6.81012">
        <ele>510.1</ele>
        <time>2017-03-26T08:20:50.000Z</time>
      </trkpt>
      <trkpt lat="47.42725" lon="6.81019">
        <ele>510.5</ele>
        <time>2017-03-26T08:20:51.000Z</time>
      </trkpt>
      <trkpt lat="47.42727" lon="6.81025">
        <ele>510.8</ele>
        <time>2017-03-26T08:20:52.000Z</time>
      </trkpt>
      <trkpt lat="47.42728" lon="6.81028">
        <ele>511.2</ele>
        <time>2017-03-26T08:20:55.000Z</time>
      </trkpt>
      <trkpt lat="47.4273" lon="6.81035">
        <ele>511.4</ele>
        <time>2017-03-26T08:20:56.000Z</time>
      </trkpt>
      <trkpt lat="47.42731" lon="6.8104">
        <ele>511.5</ele>
        <time>2017-03-26T08:20:57.000Z</time>
      </trkpt>
      <trkpt lat="47.42734" lon="6.81045">
        <ele>511.5</ele>
        <time>2017-03-26T08:20:58.000Z</time>
      </trkpt>
      <trkpt lat="47.42743" lon="6.81052">
        <ele>511.6</ele>
        <time>2017-03-26T08:20:59.000Z</time>
      </trkpt>
      <trkpt lat="47.42751" lon="6.81057">
        <ele>511.8</ele>
        <time>2017-03-26T08:21:00.000Z</time>
      </trkpt>
      <trkpt lat="47.42756" lon="6.81062">
        <ele>512</ele>
        <time>2017-03-26T08:21:01.000Z</time>
      </trkpt>
      <trkpt lat="47.4276" lon="6.81065">
        <ele>512.1</ele>
        <time>2017-03-26T08:21:02.000Z</time>
      </trkpt>
      <trkpt lat="47.42764" lon="6.81067">
        <ele>512.1</ele>
        <time>2017-03-26T08:21:03.000Z</time>
      </trkpt>
      <trkpt lat="47.42765" lon="6.8107">
        <ele>512.1</ele>
        <time>2017-03-26T08:21:04.000Z</time>
      </trkpt>
      <trkpt lat="47.42767" lon="6.81077">
        <ele>512.1</ele>
        <time>2017-03-26T08:21:05.000Z</time>
      </trkpt>
      <trkpt lat="47.42769" lon="6.81081">
        <ele>512</ele>
        <time>2017-03-26T08:21:06.000Z</time>
      </trkpt>
      <trkpt lat="47.42773" lon="6.81085">
        <ele>511.9</ele>
        <time>2017-03-26T08:21:07.000Z</time>
      </trkpt>
      <trkpt lat="47.42777" lon="6.81087">
        <ele>511.7</ele>
        <time>2017-03-26T08:21:08.000Z</time>
      </trkpt>
      <trkpt lat="47.42779" lon="6.8109">
        <ele>511.5</ele>
        <time>2017-03-26T08:21:09.000Z</time>
      </trkpt>
      <trkpt lat="47.42782" lon="6.81094">
        <ele>511.2</ele>
        <time>2017-03-26T08:21:10.000Z</time>
      </trkpt>
      <trkpt lat="47.42785" lon="6.81097">
        <ele>510.9</ele>
        <time>2017-03-26T08:21:11.000Z</time>
      </trkpt>
      <trkpt lat="47.42788" lon="6.81102">
        <ele>510.5</ele>
        <time>2017-03-26T08:21:12.000Z</time>
      </trkpt>
      <trkpt lat="47.42791" lon="6.81105">
        <ele>510</ele>
        <time>2017-03-26T08:21:13.000Z</time>
      </trkpt>
      <trkpt lat="47.42794" lon="6.8111">
        <ele>509.6</ele>
        <time>2017-03-26T08:21:14.000Z</time>
      </trkpt>
      <trkpt lat="47.42797" lon="6.81115">
        <ele>509.2</ele>
        <time>2017-03-26T08:21:15.000Z</time>
      </trkpt>
      <trkpt lat="47.42802" lon="6.81121">
        <ele>508.7</ele>
        <time>2017-03-26T08:21:16.000Z</time>
      </trkpt>
      <trkpt lat="47.42807" lon="6.81125">
        <ele>508.3</ele>
        <time>2017-03-26T08:21:17.000Z</time>
      </trkpt>
      <trkpt lat="47.42812" lon="6.81131">
        <ele>507.8</ele>
        <time>2017-03-26T08:21:18.000Z</time>
      </trkpt>
      <trkpt lat="47.42817" lon="6.81137">
        <ele>507.4</ele>
        <time>2017-03-26T08:21:19.000Z</time>
      </trkpt>
      <trkpt lat="47.42822" lon="6.81142">
        <ele>507</ele>
        <time>2017-03-26T08:21:20.000Z</time>
      </trkpt>
      <trkpt lat="47.42827" lon="6.81147">
        <ele>506.5</ele>
        <time>2017-03-26T08:21:21.000Z</time>
      </trkpt>
      <trkpt lat="47.42832" lon="6.81151">
        <ele>506</ele>
        <time>2017-03-26T08:21:22.000Z</time>
      </trkpt>
      <trkpt lat="47.42837" lon="6.81157">
        <ele>505.6</ele>
        <time>2017-03-26T08:21:23.000Z</time>
      </trkpt>
      <trkpt lat="47.42845" lon="6.81165">
        <ele>505.1</ele>
        <time>2017-03-26T08:21:24.000Z</time>
      </trkpt>
      <trkpt lat="47.42849" lon="6.81174">
        <ele>504.7</ele>
        <time>2017-03-26T08:21:25.000Z</time>
      </trkpt>
      <trkpt lat="47.42854" lon="6.81181">
        <ele>504.2</ele>
        <time>2017-03-26T08:21:26.000Z</time>
      </trkpt>
      <trkpt lat="47.42857" lon="6.81189">
        <ele>503.7</ele>
        <time>2017-03-26T08:21:27.000Z</time>
      </trkpt>
      <trkpt lat="47.4286" lon="6.81193">
        <ele>503.3</ele>
        <time>2017-03-26T08:21:28.000Z</time>
      </trkpt>
      <trkpt lat="47.42865" lon="6.81201">
        <ele>502.8</ele>
        <time>2017-03-26T08:21:29.000Z</time>
      </trkpt>
      <trkpt lat="47.42867" lon="6.81205">
        <ele>502.3</ele>
        <time>2017-03-26T08:21:30.000Z</time>
      </trkpt>
      <trkpt lat="47.42869" lon="6.81211">
        <ele>502</ele>
        <time>2017-03-26T08:21:31.000Z</time>
      </trkpt>
      <trkpt lat="47.42872" lon="6.81216">
        <ele>501.8</ele>
        <time>2017-03-26T08:21:32.000Z</time>
      </trkpt>
      <trkpt lat="47.42874" lon="6.81221">
        <ele>501.5</ele>
        <time>2017-03-26T08:21:33.000Z</time>
      </trkpt>
      <trkpt lat="47.42879" lon="6.81232">
        <ele>501.1</ele>
        <time>2017-03-26T08:21:34.000Z</time>
      </trkpt>
      <trkpt lat="47.42883" lon="6.81241">
        <ele>500.7</ele>
        <time>2017-03-26T08:21:35.000Z</time>
      </trkpt>
      <trkpt lat="47.42884" lon="6.81245">
        <ele>500.4</ele>
        <time>2017-03-26T08:21:36.000Z</time>
      </trkpt>
      <trkpt lat="47.42886" lon="6.8125">
        <ele>500.1</ele>
        <time>2017-03-26T08:21:37.000Z</time>
      </trkpt>
      <trkpt lat="47.42888" lon="6.81257">
        <ele>499.9</ele>
        <time>2017-03-26T08:21:38.000Z</time>
      </trkpt>
      <trkpt lat="47.42889" lon="6.8126">
        <ele>499.8</ele>
        <time>2017-03-26T08:21:39.000Z</time>
      </trkpt>
      <trkpt lat="47.42891" lon="6.81263">
        <ele>499.6</ele>
        <time>2017-03-26T08:21:40.000Z</time>
      </trkpt>
      <trkpt lat="47.42893" lon="6.81268">
        <ele>499.3</ele>
        <time>2017-03-26T08:21:41.000Z</time>
      </trkpt>
      <trkpt lat="47.42895" lon="6.81272">
        <ele>498.8</ele>
        <time>2017-03-26T08:21:42.000Z</time>
      </trkpt>
      <trkpt lat="47.42899" lon="6.81275">
        <ele>498.4</ele>
        <time>2017-03-26T08:21:43.000Z</time>
      </trkpt>
      <trkpt lat="47.42901" lon="6.81278">
        <ele>497.9</ele>
        <time>2017-03-26T08:21:44.000Z</time>
      </trkpt>
      <trkpt lat="47.42903" lon="6.81281">
        <ele>497.4</ele>
        <time>2017-03-26T08:21:45.000Z</time>
      </trkpt>
      <trkpt lat="47.42906" lon="6.81285">
        <ele>497.1</ele>
        <time>2017-03-26T08:21:46.000Z</time>
      </trkpt>
      <trkpt lat="47.42909" lon="6.8129">
        <ele>496.8</ele>
        <time>2017-03-26T08:21:47.000Z</time>
      </trkpt>
      <trkpt lat="47.42917" lon="6.81301">
        <ele>496.6</ele>
        <time>2017-03-26T08:21:48.000Z</time>
      </trkpt>
      <trkpt lat="47.42922" lon="6.81311">
        <ele>496.4</ele>
        <time>2017-03-26T08:21:49.000Z</time>
      </trkpt>
      <trkpt lat="47.42926" lon="6.81316">
        <ele>496.2</ele>
        <time>2017-03-26T08:21:50.000Z</time>
      </trkpt>
      <trkpt lat="47.42928" lon="6.81321">
        <ele>496.7</ele>
        <time>2017-03-26T08:21:55.000Z</time>
      </trkpt>
      <trkpt lat="47.42928" lon="6.81324">
        <ele>496.7</ele>
        <time>2017-03-26T08:21:56.000Z</time>
      </trkpt>
      <trkpt lat="47.42928" lon="6.8133">
        <ele>497</ele>
        <time>2017-03-26T08:21:58.000Z</time>
      </trkpt>
      <trkpt lat="47.42929" lon="6.81333">
        <ele>497.3</ele>
        <time>2017-03-26T08:21:59.000Z</time>
      </trkpt>
      <trkpt lat="47.42932" lon="6.81336">
        <ele>498.5</ele>
        <time>2017-03-26T08:22:04.000Z</time>
      </trkpt>
      <trkpt lat="47.42934" lon="6.81337">
        <ele>498.7</ele>
        <time>2017-03-26T08:22:05.000Z</time>
      </trkpt>
      <trkpt lat="47.42935" lon="6.8134">
        <ele>501.2</ele>
        <time>2017-03-26T08:22:11.000Z</time>
      </trkpt>
      <trkpt lat="47.42936" lon="6.81342">
        <ele>501.6</ele>
        <time>2017-03-26T08:22:12.000Z</time>
      </trkpt>
      <trkpt lat="47.42938" lon="6.81345">
        <ele>502</ele>
        <time>2017-03-26T08:22:13.000Z</time>
      </trkpt>
      <trkpt lat="47.42939" lon="6.81349">
        <ele>502.2</ele>
        <time>2017-03-26T08:22:14.000Z</time>
      </trkpt>
      <trkpt lat="47.42941" lon="6.8136">
        <ele>502.5</ele>
        <time>2017-03-26T08:22:15.000Z</time>
      </trkpt>
      <trkpt lat="47.42945" lon="6.81365">
        <ele>502.7</ele>
        <time>2017-03-26T08:22:16.000Z</time>
      </trkpt>
      <trkpt lat="47.42949" lon="6.81367">
        <ele>502.8</ele>
        <time>2017-03-26T08:22:17.000Z</time>
      </trkpt>
      <trkpt lat="47.42952" lon="6.81369">
        <ele>503</ele>
        <time>2017-03-26T08:22:18.000Z</time>
      </trkpt>
      <trkpt lat="47.42956" lon="6.81372">
        <ele>503.5</ele>
        <time>2017-03-26T08:22:21.000Z</time>
      </trkpt>
      <trkpt lat="47.42957" lon="6.81373">
        <ele>503.8</ele>
        <time>2017-03-26T08:22:22.000Z</time>
      </trkpt>
      <trkpt lat="47.42959" lon="6.81377">
        <ele>503.9</ele>
        <time>2017-03-26T08:22:23.000Z</time>
      </trkpt>
      <trkpt lat="47.42961" lon="6.81379">
        <ele>503.9</ele>
        <time>2017-03-26T08:22:24.000Z</time>
      </trkpt>
      <trkpt lat="47.42964" lon="6.81384">
        <ele>504</ele>
        <time>2017-03-26T08:22:29.000Z</time>
      </trkpt>
      <trkpt lat="47.42964" lon="6.81385">
        <ele>504.1</ele>
        <time>2017-03-26T08:22:30.000Z</time>
      </trkpt>
      <trkpt lat="47.42967" lon="6.81388">
        <ele>504.1</ele>
        <time>2017-03-26T08:22:32.000Z</time>
      </trkpt>
      <trkpt lat="47.42969" lon="6.81389">
        <ele>504.1</ele>
        <time>2017-03-26T08:22:33.000Z</time>
      </trkpt>
      <trkpt lat="47.42972" lon="6.81392">
        <ele>504.3</ele>
        <time>2017-03-26T08:22:35.000Z</time>
      </trkpt>
      <trkpt lat="47.42975" lon="6.81395">
        <ele>504.4</ele>
        <time>2017-03-26T08:22:36.000Z</time>
      </trkpt>
      <trkpt lat="47.42977" lon="6.81397">
        <ele>504.4</ele>
        <time>2017-03-26T08:22:37.000Z</time>
      </trkpt>
      <trkpt lat="47.4298" lon="6.814">
        <ele>504.3</ele>
        <time>2017-03-26T08:22:38.000Z</time>
      </trkpt>
      <trkpt lat="47.42983" lon="6.81405">
        <ele>504.1</ele>
        <time>2017-03-26T08:22:39.000Z</time>
      </trkpt>
      <trkpt lat="47.42986" lon="6.81408">
        <ele>504.1</ele>
        <time>2017-03-26T08:22:40.000Z</time>
      </trkpt>
      <trkpt lat="47.42989" lon="6.81411">
        <ele>504</ele>
        <time>2017-03-26T08:22:41.000Z</time>
      </trkpt>
      <trkpt lat="47.42991" lon="6.81414">
        <ele>503.9</ele>
        <time>2017-03-26T08:22:42.000Z</time>
      </trkpt>
      <trkpt lat="47.42993" lon="6.81415">
        <ele>503.7</ele>
        <time>2017-03-26T08:22:43.000Z</time>
      </trkpt>
      <trkpt lat="47.42997" lon="6.81417">
        <ele>503.5</ele>
        <time>2017-03-26T08:22:44.000Z</time>
      </trkpt>
      <trkpt lat="47.43" lon="6.8142">
        <ele>503.2</ele>
        <time>2017-03-26T08:22:45.000Z</time>
      </trkpt>
      <trkpt lat="47.43003" lon="6.81423">
        <ele>503</ele>
        <time>2017-03-26T08:22:46.000Z</time>
      </trkpt>
      <trkpt lat="47.43007" lon="6.81427">
        <ele>502.6</ele>
        <time>2017-03-26T08:22:47.000Z</time>
      </trkpt>
      <trkpt lat="47.4301" lon="6.8143">
        <ele>502.3</ele>
        <time>2017-03-26T08:22:48.000Z</time>
      </trkpt>
      <trkpt lat="47.43014" lon="6.81435">
        <ele>501.9</ele>
        <time>2017-03-26T08:22:49.000Z</time>
      </trkpt>
      <trkpt lat="47.43018" lon="6.81438">
        <ele>501.4</ele>
        <time>2017-03-26T08:22:50.000Z</time>
      </trkpt>
      <trkpt lat="47.43023" lon="6.81442">
        <ele>500.9</ele>
        <time>2017-03-26T08:22:51.000Z</time>
      </trkpt>
      <trkpt lat="47.43027" lon="6.81448">
        <ele>500.4</ele>
        <time>2017-03-26T08:22:52.000Z</time>
      </trkpt>
      <trkpt lat="47.43031" lon="6.81453">
        <ele>500</ele>
        <time>2017-03-26T08:22:53.000Z</time>
      </trkpt>
      <trkpt lat="47.43036" lon="6.81459">
        <ele>499.7</ele>
        <time>2017-03-26T08:22:54.000Z</time>
      </trkpt>
      <trkpt lat="47.43042" lon="6.81463">
        <ele>496.6</ele>
        <time>2017-03-26T08:22:55.000Z</time>
      </trkpt>
      <trkpt lat="47.43047" lon="6.81468">
        <ele>496.3</ele>
        <time>2017-03-26T08:22:56.000Z</time>
      </trkpt>
      <trkpt lat="47.43052" lon="6.81473">
        <ele>496</ele>
        <time>2017-03-26T08:22:57.000Z</time>
      </trkpt>
      <trkpt lat="47.43055" lon="6.81477">
        <ele>495.7</ele>
        <time>2017-03-26T08:22:58.000Z</time>
      </trkpt>
      <trkpt lat="47.43059" lon="6.81483">
        <ele>495.3</ele>
        <time>2017-03-26T08:22:59.000Z</time>
      </trkpt>
      <trkpt lat="47.43063" lon="6.81488">
        <ele>494.9</ele>
        <time>2017-03-26T08:23:00.000Z</time>
      </trkpt>
      <trkpt lat="47.43065" lon="6.81496">
        <ele>494.5</ele>
        <time>2017-03-26T08:23:01.000Z</time>
      </trkpt>
      <trkpt lat="47.43065" lon="6.81504">
        <ele>494.1</ele>
        <time>2017-03-26T08:23:02.000Z</time>
      </trkpt>
      <trkpt lat="47.43064" lon="6.81511">
        <ele>490.1</ele>
        <time>2017-03-26T08:23:03.000Z</time>
      </trkpt>
      <trkpt lat="47.43062" lon="6.81516">
        <ele>489.7</ele>
        <time>2017-03-26T08:23:04.000Z</time>
      </trkpt>
      <trkpt lat="47.4306" lon="6.81517">
        <ele>489.5</ele>
        <time>2017-03-26T08:23:05.000Z</time>
      </trkpt>
      <trkpt lat="47.43058" lon="6.81518">
        <ele>488.9</ele>
        <time>2017-03-26T08:23:08.000Z</time>
      </trkpt>
      <trkpt lat="47.43056" lon="6.81519">
        <ele>488.8</ele>
        <time>2017-03-26T08:23:09.000Z</time>
      </trkpt>
      <trkpt lat="47.43051" lon="6.8152">
        <ele>488.7</ele>
        <time>2017-03-26T08:23:12.000Z</time>
      </trkpt>
      <trkpt lat="47.43049" lon="6.81521">
        <ele>488.7</ele>
        <time>2017-03-26T08:23:13.000Z</time>
      </trkpt>
      <trkpt lat="47.43048" lon="6.81526">
        <ele>493.2</ele>
        <time>2017-03-26T08:24:18.000Z</time>
      </trkpt>
      <trkpt lat="47.43047" lon="6.81527">
        <ele>493.2</ele>
        <time>2017-03-26T08:24:19.000Z</time>
      </trkpt>
      <trkpt lat="47.43047" lon="6.81532">
        <ele>496</ele>
        <time>2017-03-26T08:25:23.000Z</time>
      </trkpt>
      <trkpt lat="47.43048" lon="6.81536">
        <ele>496.3</ele>
        <time>2017-03-26T08:25:24.000Z</time>
      </trkpt>
      <trkpt lat="47.4305" lon="6.81541">
        <ele>496.6</ele>
        <time>2017-03-26T08:25:25.000Z</time>
      </trkpt>
      <trkpt lat="47.43051" lon="6.81543">
        <ele>496.9</ele>
        <time>2017-03-26T08:25:26.000Z</time>
      </trkpt>
      <trkpt lat="47.43054" lon="6.8155">
        <ele>497.2</ele>
        <time>2017-03-26T08:25:27.000Z</time>
      </trkpt>
      <trkpt lat="47.43057" lon="6.81554">
        <ele>497.5</ele>
        <time>2017-03-26T08:25:28.000Z</time>
      </trkpt>
      <trkpt lat="47.43059" lon="6.81558">
        <ele>497.7</ele>
        <time>2017-03-26T08:25:29.000Z</time>
      </trkpt>
      <trkpt lat="47.43064" lon="6.81562">
        <ele>498</ele>
        <time>2017-03-26T08:25:30.000Z</time>
      </trkpt>
      <trkpt lat="47.4307" lon="6.81568">
        <ele>498.2</ele>
        <time>2017-03-26T08:25:31.000Z</time>
      </trkpt>
      <trkpt lat="47.43078" lon="6.81572">
        <ele>501.3</ele>
        <time>2017-03-26T08:25:32.000Z</time>
      </trkpt>
      <trkpt lat="47.43083" lon="6.81576">
        <ele>502.5</ele>
        <time>2017-03-26T08:25:33.000Z</time>
      </trkpt>
      <trkpt lat="47.43087" lon="6.81579">
        <ele>502.6</ele>
        <time>2017-03-26T08:25:34.000Z</time>
      </trkpt>
      <trkpt lat="47.43093" lon="6.8158">
        <ele>502.9</ele>
        <time>2017-03-26T08:25:35.000Z</time>
      </trkpt>
      <trkpt lat="47.43097" lon="6.81582">
        <ele>502.4</ele>
        <time>2017-03-26T08:25:36.000Z</time>
      </trkpt>
      <trkpt lat="47.43103" lon="6.8158">
        <ele>501.8</ele>
        <time>2017-03-26T08:25:37.000Z</time>
      </trkpt>
      <trkpt lat="47.43112" lon="6.81579">
        <ele>501.1</ele>
        <time>2017-03-26T08:25:38.000Z</time>
      </trkpt>
      <trkpt lat="47.43116" lon="6.81581">
        <ele>500.9</ele>
        <time>2017-03-26T08:25:39.000Z</time>
      </trkpt>
      <trkpt lat="47.43123" lon="6.81584">
        <ele>500.7</ele>
        <time>2017-03-26T08:25:40.000Z</time>
      </trkpt>
      <trkpt lat="47.43129" lon="6.81586">
        <ele>497.4</ele>
        <time>2017-03-26T08:25:41.000Z</time>
      </trkpt>
      <trkpt lat="47.4314" lon="6.81587">
        <ele>494.3</ele>
        <time>2017-03-26T08:25:42.000Z</time>
      </trkpt>
      <trkpt lat="47.43148" lon="6.81588">
        <ele>492.3</ele>
        <time>2017-03-26T08:25:43.000Z</time>
      </trkpt>
      <trkpt lat="47.43156" lon="6.81588">
        <ele>490.2</ele>
        <time>2017-03-26T08:25:44.000Z</time>
      </trkpt>
      <trkpt lat="47.43165" lon="6.81589">
        <ele>488.5</ele>
        <time>2017-03-26T08:25:45.000Z</time>
      </trkpt>
      <trkpt lat="47.43174" lon="6.81592">
        <ele>487.3</ele>
        <time>2017-03-26T08:25:46.000Z</time>
      </trkpt>
      <trkpt lat="47.43183" lon="6.81594">
        <ele>486.7</ele>
        <time>2017-03-26T08:25:47.000Z</time>
      </trkpt>
      <trkpt lat="47.4319" lon="6.81597">
        <ele>486.1</ele>
        <time>2017-03-26T08:25:48.000Z</time>
      </trkpt>
      <trkpt lat="47.43198" lon="6.81598">
        <ele>485.9</ele>
        <time>2017-03-26T08:25:49.000Z</time>
      </trkpt>
      <trkpt lat="47.43204" lon="6.81599">
        <ele>485.6</ele>
        <time>2017-03-26T08:25:50.000Z</time>
      </trkpt>
      <trkpt lat="47.43211" lon="6.81601">
        <ele>485</ele>
        <time>2017-03-26T08:25:51.000Z</time>
      </trkpt>
      <trkpt lat="47.43218" lon="6.81603">
        <ele>485</ele>
        <time>2017-03-26T08:25:52.000Z</time>
      </trkpt>
      <trkpt lat="47.43225" lon="6.81605">
        <ele>484.4</ele>
        <time>2017-03-26T08:25:53.000Z</time>
      </trkpt>
      <trkpt lat="47.4323" lon="6.81607">
        <ele>482.8</ele>
        <time>2017-03-26T08:25:54.000Z</time>
      </trkpt>
      <trkpt lat="47.43235" lon="6.8161">
        <ele>481.7</ele>
        <time>2017-03-26T08:25:55.000Z</time>
      </trkpt>
      <trkpt lat="47.4324" lon="6.81614">
        <ele>480.9</ele>
        <time>2017-03-26T08:25:56.000Z</time>
      </trkpt>
      <trkpt lat="47.43242" lon="6.81619">
        <ele>480.9</ele>
        <time>2017-03-26T08:25:57.000Z</time>
      </trkpt>
      <trkpt lat="47.43243" lon="6.81627">
        <ele>480.9</ele>
        <time>2017-03-26T08:25:58.000Z</time>
      </trkpt>
      <trkpt lat="47.43245" lon="6.81637">
        <ele>480.8</ele>
        <time>2017-03-26T08:25:59.000Z</time>
      </trkpt>
      <trkpt lat="47.43248" lon="6.81645">
        <ele>480.7</ele>
        <time>2017-03-26T08:26:00.000Z</time>
      </trkpt>
      <trkpt lat="47.43251" lon="6.81652">
        <ele>480.1</ele>
        <time>2017-03-26T08:26:01.000Z</time>
      </trkpt>
      <trkpt lat="47.43254" lon="6.81657">
        <ele>480</ele>
        <time>2017-03-26T08:26:02.000Z</time>
      </trkpt>
      <trkpt lat="47.43258" lon="6.81664">
        <ele>480.2</ele>
        <time>2017-03-26T08:26:03.000Z</time>
      </trkpt>
      <trkpt lat="47.43264" lon="6.81671">
        <ele>480.3</ele>
        <time>2017-03-26T08:26:04.000Z</time>
      </trkpt>
      <trkpt lat="47.4327" lon="6.81678">
        <ele>480.5</ele>
        <time>2017-03-26T08:26:05.000Z</time>
      </trkpt>
      <trkpt lat="47.43274" lon="6.81683">
        <ele>481</ele>
        <time>2017-03-26T08:26:06.000Z</time>
      </trkpt>
      <trkpt lat="47.43277" lon="6.81685">
        <ele>481</ele>
        <time>2017-03-26T08:26:07.000Z</time>
      </trkpt>
      <trkpt lat="47.43282" lon="6.81687">
        <ele>480.7</ele>
        <time>2017-03-26T08:26:08.000Z</time>
      </trkpt>
      <trkpt lat="47.43287" lon="6.81688">
        <ele>480.4</ele>
        <time>2017-03-26T08:26:09.000Z</time>
      </trkpt>
      <trkpt lat="47.43291" lon="6.81688">
        <ele>480</ele>
        <time>2017-03-26T08:26:10.000Z</time>
      </trkpt>
      <trkpt lat="47.43294" lon="6.81688">
        <ele>479.6</ele>
        <time>2017-03-26T08:26:11.000Z</time>
      </trkpt>
      <trkpt lat="47.43297" lon="6.81692">
        <ele>479.2</ele>
        <time>2017-03-26T08:26:12.000Z</time>
      </trkpt>
      <trkpt lat="47.43303" lon="6.81695">
        <ele>475.7</ele>
        <time>2017-03-26T08:26:13.000Z</time>
      </trkpt>
      <trkpt lat="47.43309" lon="6.81698">
        <ele>473.8</ele>
        <time>2017-03-26T08:26:14.000Z</time>
      </trkpt>
      <trkpt lat="47.43314" lon="6.81702">
        <ele>472.5</ele>
        <time>2017-03-26T08:26:15.000Z</time>
      </trkpt>
      <trkpt lat="47.43318" lon="6.81707">
        <ele>470.8</ele>
        <time>2017-03-26T08:26:16.000Z</time>
      </trkpt>
      <trkpt lat="47.4332" lon="6.8171">
        <ele>470.7</ele>
        <time>2017-03-26T08:26:18.000Z</time>
      </trkpt>
      <trkpt lat="47.43323" lon="6.81711">
        <ele>470.7</ele>
        <time>2017-03-26T08:26:19.000Z</time>
      </trkpt>
      <trkpt lat="47.43326" lon="6.81711">
        <ele>470.8</ele>
        <time>2017-03-26T08:26:20.000Z</time>
      </trkpt>
      <trkpt lat="47.43331" lon="6.81711">
        <ele>470.7</ele>
        <time>2017-03-26T08:26:21.000Z</time>
      </trkpt>
      <trkpt lat="47.43334" lon="6.81716">
        <ele>470.5</ele>
        <time>2017-03-26T08:26:23.000Z</time>
      </trkpt>
      <trkpt lat="47.43337" lon="6.81714">
        <ele>470.4</ele>
        <time>2017-03-26T08:26:24.000Z</time>
      </trkpt>
      <trkpt lat="47.43342" lon="6.81713">
        <ele>470.5</ele>
        <time>2017-03-26T08:26:25.000Z</time>
      </trkpt>
      <trkpt lat="47.43346" lon="6.81712">
        <ele>470.3</ele>
        <time>2017-03-26T08:26:26.000Z</time>
      </trkpt>
      <trkpt lat="47.43351" lon="6.81713">
        <ele>470.3</ele>
        <time>2017-03-26T08:26:27.000Z</time>
      </trkpt>
      <trkpt lat="47.43356" lon="6.81717">
        <ele>470.2</ele>
        <time>2017-03-26T08:26:28.000Z</time>
      </trkpt>
      <trkpt lat="47.43361" lon="6.81723">
        <ele>470.2</ele>
        <time>2017-03-26T08:26:29.000Z</time>
      </trkpt>
      <trkpt lat="47.43367" lon="6.81728">
        <ele>469</ele>
        <time>2017-03-26T08:26:30.000Z</time>
      </trkpt>
      <trkpt lat="47.43374" lon="6.81735">
        <ele>467.9</ele>
        <time>2017-03-26T08:26:31.000Z</time>
      </trkpt>
      <trkpt lat="47.43381" lon="6.81744">
        <ele>466.2</ele>
        <time>2017-03-26T08:26:32.000Z</time>
      </trkpt>
      <trkpt lat="47.43387" lon="6.81753">
        <ele>464.9</ele>
        <time>2017-03-26T08:26:33.000Z</time>
      </trkpt>
      <trkpt lat="47.43393" lon="6.81764">
        <ele>463.4</ele>
        <time>2017-03-26T08:26:34.000Z</time>
      </trkpt>
      <trkpt lat="47.43398" lon="6.81765">
        <ele>460.7</ele>
        <time>2017-03-26T08:26:35.000Z</time>
      </trkpt>
      <trkpt lat="47.43401" lon="6.81763">
        <ele>460.5</ele>
        <time>2017-03-26T08:26:36.000Z</time>
      </trkpt>
      <trkpt lat="47.43403" lon="6.81762">
        <ele>460.2</ele>
        <time>2017-03-26T08:26:37.000Z</time>
      </trkpt>
      <trkpt lat="47.43405" lon="6.81762">
        <ele>459.9</ele>
        <time>2017-03-26T08:26:38.000Z</time>
      </trkpt>
      <trkpt lat="47.43409" lon="6.81762">
        <ele>459.6</ele>
        <time>2017-03-26T08:26:39.000Z</time>
      </trkpt>
      <trkpt lat="47.43412" lon="6.81761">
        <ele>459.3</ele>
        <time>2017-03-26T08:26:40.000Z</time>
      </trkpt>
      <trkpt lat="47.43418" lon="6.81759">
        <ele>459.1</ele>
        <time>2017-03-26T08:26:41.000Z</time>
      </trkpt>
      <trkpt lat="47.43424" lon="6.81756">
        <ele>458.8</ele>
        <time>2017-03-26T08:26:42.000Z</time>
      </trkpt>
      <trkpt lat="47.43429" lon="6.81754">
        <ele>458.5</ele>
        <time>2017-03-26T08:26:43.000Z</time>
      </trkpt>
      <trkpt lat="47.43433" lon="6.81754">
        <ele>458.2</ele>
        <time>2017-03-26T08:26:44.000Z</time>
      </trkpt>
      <trkpt lat="47.43437" lon="6.81757">
        <ele>458</ele>
        <time>2017-03-26T08:26:45.000Z</time>
      </trkpt>
      <trkpt lat="47.43443" lon="6.81758">
        <ele>455</ele>
        <time>2017-03-26T08:26:46.000Z</time>
      </trkpt>
      <trkpt lat="47.43447" lon="6.81759">
        <ele>454.7</ele>
        <time>2017-03-26T08:26:47.000Z</time>
      </trkpt>
      <trkpt lat="47.43453" lon="6.81759">
        <ele>451.2</ele>
        <time>2017-03-26T08:26:48.000Z</time>
      </trkpt>
      <trkpt lat="47.43458" lon="6.8176">
        <ele>449.2</ele>
        <time>2017-03-26T08:26:49.000Z</time>
      </trkpt>
      <trkpt lat="47.43465" lon="6.81764">
        <ele>447.7</ele>
        <time>2017-03-26T08:26:50.000Z</time>
      </trkpt>
      <trkpt lat="47.43472" lon="6.81768">
        <ele>446.2</ele>
        <time>2017-03-26T08:26:51.000Z</time>
      </trkpt>
      <trkpt lat="47.43481" lon="6.81769">
        <ele>444.4</ele>
        <time>2017-03-26T08:26:52.000Z</time>
      </trkpt>
      <trkpt lat="47.43491" lon="6.81769">
        <ele>442.4</ele>
        <time>2017-03-26T08:26:53.000Z</time>
      </trkpt>
      <trkpt lat="47.43499" lon="6.81769">
        <ele>440.3</ele>
        <time>2017-03-26T08:26:54.000Z</time>
      </trkpt>
      <trkpt lat="47.43504" lon="6.81767">
        <ele>438.6</ele>
        <time>2017-03-26T08:26:55.000Z</time>
      </trkpt>
      <trkpt lat="47.43506" lon="6.81764">
        <ele>438.5</ele>
        <time>2017-03-26T08:26:56.000Z</time>
      </trkpt>
      <trkpt lat="47.43509" lon="6.81761">
        <ele>438.4</ele>
        <time>2017-03-26T08:26:57.000Z</time>
      </trkpt>
      <trkpt lat="47.43511" lon="6.81762">
        <ele>438.1</ele>
        <time>2017-03-26T08:26:58.000Z</time>
      </trkpt>
      <trkpt lat="47.43516" lon="6.8176">
        <ele>437.9</ele>
        <time>2017-03-26T08:26:59.000Z</time>
      </trkpt>
      <trkpt lat="47.43523" lon="6.81757">
        <ele>436.2</ele>
        <time>2017-03-26T08:27:00.000Z</time>
      </trkpt>
      <trkpt lat="47.43529" lon="6.81756">
        <ele>434.8</ele>
        <time>2017-03-26T08:27:01.000Z</time>
      </trkpt>
      <trkpt lat="47.43534" lon="6.81757">
        <ele>434.7</ele>
        <time>2017-03-26T08:27:02.000Z</time>
      </trkpt>
      <trkpt lat="47.43539" lon="6.8176">
        <ele>434.6</ele>
        <time>2017-03-26T08:27:03.000Z</time>
      </trkpt>
      <trkpt lat="47.43545" lon="6.8176">
        <ele>432.5</ele>
        <time>2017-03-26T08:27:04.000Z</time>
      </trkpt>
      <trkpt lat="47.4355" lon="6.81761">
        <ele>432.4</ele>
        <time>2017-03-26T08:27:05.000Z</time>
      </trkpt>
      <trkpt lat="47.43557" lon="6.81762">
        <ele>432.2</ele>
        <time>2017-03-26T08:27:06.000Z</time>
      </trkpt>
      <trkpt lat="47.43562" lon="6.81764">
        <ele>432.1</ele>
        <time>2017-03-26T08:27:07.000Z</time>
      </trkpt>
      <trkpt lat="47.43567" lon="6.81765">
        <ele>431.1</ele>
        <time>2017-03-26T08:27:08.000Z</time>
      </trkpt>
      <trkpt lat="47.43572" lon="6.81765">
        <ele>429.7</ele>
        <time>2017-03-26T08:27:09.000Z</time>
      </trkpt>
      <trkpt lat="47.43575" lon="6.81763">
        <ele>429.5</ele>
        <time>2017-03-26T08:27:10.000Z</time>
      </trkpt>
      <trkpt lat="47.43579" lon="6.8176">
        <ele>429.5</ele>
        <time>2017-03-26T08:27:11.000Z</time>
      </trkpt>
      <trkpt lat="47.43585" lon="6.81759">
        <ele>429.4</ele>
        <time>2017-03-26T08:27:12.000Z</time>
      </trkpt>
      <trkpt lat="47.43591" lon="6.81756">
        <ele>428.2</ele>
        <time>2017-03-26T08:27:13.000Z</time>
      </trkpt>
      <trkpt lat="47.43599" lon="6.81752">
        <ele>427.4</ele>
        <time>2017-03-26T08:27:14.000Z</time>
      </trkpt>
      <trkpt lat="47.43604" lon="6.81748">
        <ele>427.4</ele>
        <time>2017-03-26T08:27:15.000Z</time>
      </trkpt>
      <trkpt lat="47.43609" lon="6.81745">
        <ele>427.3</ele>
        <time>2017-03-26T08:27:16.000Z</time>
      </trkpt>
      <trkpt lat="47.43611" lon="6.81743">
        <ele>427.2</ele>
        <time>2017-03-26T08:27:17.000Z</time>
      </trkpt>
      <trkpt lat="47.43613" lon="6.81742">
        <ele>427.1</ele>
        <time>2017-03-26T08:27:18.000Z</time>
      </trkpt>
      <trkpt lat="47.43616" lon="6.8174">
        <ele>427</ele>
        <time>2017-03-26T08:27:19.000Z</time>
      </trkpt>
      <trkpt lat="47.43618" lon="6.81739">
        <ele>426.9</ele>
        <time>2017-03-26T08:27:20.000Z</time>
      </trkpt>
      <trkpt lat="47.4362" lon="6.81737">
        <ele>426.8</ele>
        <time>2017-03-26T08:27:21.000Z</time>
      </trkpt>
      <trkpt lat="47.43621" lon="6.81733">
        <ele>426.6</ele>
        <time>2017-03-26T08:27:22.000Z</time>
      </trkpt>
      <trkpt lat="47.43624" lon="6.81724">
        <ele>423.9</ele>
        <time>2017-03-26T08:27:23.000Z</time>
      </trkpt>
      <trkpt lat="47.43626" lon="6.81717">
        <ele>420.5</ele>
        <time>2017-03-26T08:27:24.000Z</time>
      </trkpt>
      <trkpt lat="47.43628" lon="6.81708">
        <ele>420.2</ele>
        <time>2017-03-26T08:27:25.000Z</time>
      </trkpt>
      <trkpt lat="47.43627" lon="6.817">
        <ele>417.2</ele>
        <time>2017-03-26T08:27:26.000Z</time>
      </trkpt>
      <trkpt lat="47.43627" lon="6.81691">
        <ele>414.4</ele>
        <time>2017-03-26T08:27:27.000Z</time>
      </trkpt>
      <trkpt lat="47.43627" lon="6.81685">
        <ele>414.1</ele>
        <time>2017-03-26T08:27:28.000Z</time>
      </trkpt>
      <trkpt lat="47.43629" lon="6.81677">
        <ele>410.3</ele>
        <time>2017-03-26T08:27:29.000Z</time>
      </trkpt>
      <trkpt lat="47.43631" lon="6.81668">
        <ele>407.1</ele>
        <time>2017-03-26T08:27:30.000Z</time>
      </trkpt>
      <trkpt lat="47.4363" lon="6.81657">
        <ele>404.2</ele>
        <time>2017-03-26T08:27:31.000Z</time>
      </trkpt>
      <trkpt lat="47.4363" lon="6.81648">
        <ele>402.1</ele>
        <time>2017-03-26T08:27:32.000Z</time>
      </trkpt>
      <trkpt lat="47.43631" lon="6.8164">
        <ele>399.8</ele>
        <time>2017-03-26T08:27:33.000Z</time>
      </trkpt>
      <trkpt lat="47.43629" lon="6.81634">
        <ele>399.6</ele>
        <time>2017-03-26T08:27:36.000Z</time>
      </trkpt>
      <trkpt lat="47.43627" lon="6.8163">
        <ele>399.5</ele>
        <time>2017-03-26T08:27:37.000Z</time>
      </trkpt>
      <trkpt lat="47.43624" lon="6.81628">
        <ele>399.4</ele>
        <time>2017-03-26T08:27:38.000Z</time>
      </trkpt>
      <trkpt lat="47.43622" lon="6.81626">
        <ele>399.4</ele>
        <time>2017-03-26T08:27:39.000Z</time>
      </trkpt>
      <trkpt lat="47.43622" lon="6.81624">
        <ele>399.5</ele>
        <time>2017-03-26T08:27:43.000Z</time>
      </trkpt>
      <trkpt lat="47.43615" lon="6.81605">
        <ele>399.7</ele>
        <time>2017-03-26T08:27:44.000Z</time>
      </trkpt>
      <trkpt lat="47.43615" lon="6.81605">
        <ele>400.6</ele>
        <time>2017-03-26T08:27:51.000Z</time>
      </trkpt>
      <trkpt lat="47.43607" lon="6.81578">
        <ele>401</ele>
        <time>2017-03-26T08:27:52.000Z</time>
      </trkpt>
      <trkpt lat="47.43607" lon="6.81578">
        <ele>406.4</ele>
        <time>2017-03-26T08:28:06.000Z</time>
      </trkpt>
      <trkpt lat="47.43598" lon="6.81548">
        <ele>406.5</ele>
        <time>2017-03-26T08:28:07.000Z</time>
      </trkpt>
      <trkpt lat="47.43598" lon="6.81548">
        <ele>407.6</ele>
        <time>2017-03-26T08:28:15.000Z</time>
      </trkpt>
      <trkpt lat="47.43587" lon="6.81539">
        <ele>407.7</ele>
        <time>2017-03-26T08:28:16.000Z</time>
      </trkpt>
      <trkpt lat="47.43587" lon="6.81539">
        <ele>408.2</ele>
        <time>2017-03-26T08:28:22.000Z</time>
      </trkpt>
      <trkpt lat="47.43579" lon="6.81525">
        <ele>408.2</ele>
        <time>2017-03-26T08:28:23.000Z</time>
      </trkpt>
      <trkpt lat="47.43579" lon="6.81525">
        <ele>412.5</ele>
        <time>2017-03-26T08:28:43.000Z</time>
      </trkpt>
      <trkpt lat="47.43573" lon="6.81506">
        <ele>412.9</ele>
        <time>2017-03-26T08:28:44.000Z</time>
      </trkpt>
      <trkpt lat="47.43573" lon="6.81506">
        <ele>416.1</ele>
        <time>2017-03-26T08:28:53.000Z</time>
      </trkpt>
      <trkpt lat="47.43559" lon="6.81499">
        <ele>416.4</ele>
        <time>2017-03-26T08:28:54.000Z</time>
      </trkpt>
      <trkpt lat="47.43559" lon="6.81499">
        <ele>418</ele>
        <time>2017-03-26T08:29:00.000Z</time>
      </trkpt>
      <trkpt lat="47.43545" lon="6.81497">
        <ele>418.3</ele>
        <time>2017-03-26T08:29:01.000Z</time>
      </trkpt>
      <trkpt lat="47.43545" lon="6.81497">
        <ele>420</ele>
        <time>2017-03-26T08:29:08.000Z</time>
      </trkpt>
      <trkpt lat="47.43526" lon="6.81492">
        <ele>420.1</ele>
        <time>2017-03-26T08:29:09.000Z</time>
      </trkpt>
      <trkpt lat="47.43526" lon="6.81492">
        <ele>420.5</ele>
        <time>2017-03-26T08:29:13.000Z</time>
      </trkpt>
      <trkpt lat="47.43519" lon="6.8148">
        <ele>420.5</ele>
        <time>2017-03-26T08:29:14.000Z</time>
      </trkpt>
      <trkpt lat="47.43517" lon="6.81477">
        <ele>420.7</ele>
        <time>2017-03-26T08:29:18.000Z</time>
      </trkpt>
      <trkpt lat="47.43515" lon="6.81475">
        <ele>420.8</ele>
        <time>2017-03-26T08:29:19.000Z</time>
      </trkpt>
      <trkpt lat="47.43513" lon="6.81474">
        <ele>420.9</ele>
        <time>2017-03-26T08:29:20.000Z</time>
      </trkpt>
      <trkpt lat="47.43511" lon="6.81472">
        <ele>421.2</ele>
        <time>2017-03-26T08:29:21.000Z</time>
      </trkpt>
      <trkpt lat="47.43508" lon="6.81469">
        <ele>421.5</ele>
        <time>2017-03-26T08:29:23.000Z</time>
      </trkpt>
      <trkpt lat="47.43506" lon="6.81466">
        <ele>421.6</ele>
        <time>2017-03-26T08:29:24.000Z</time>
      </trkpt>
      <trkpt lat="47.43504" lon="6.81464">
        <ele>421.8</ele>
        <time>2017-03-26T08:29:25.000Z</time>
      </trkpt>
      <trkpt lat="47.43502" lon="6.81461">
        <ele>421.9</ele>
        <time>2017-03-26T08:29:26.000Z</time>
      </trkpt>
      <trkpt lat="47.43498" lon="6.81454">
        <ele>422.2</ele>
        <time>2017-03-26T08:29:27.000Z</time>
      </trkpt>
      <trkpt lat="47.43496" lon="6.81452">
        <ele>422.2</ele>
        <time>2017-03-26T08:29:28.000Z</time>
      </trkpt>
      <trkpt lat="47.43494" lon="6.81449">
        <ele>422.4</ele>
        <time>2017-03-26T08:29:29.000Z</time>
      </trkpt>
      <trkpt lat="47.43492" lon="6.81446">
        <ele>422.4</ele>
        <time>2017-03-26T08:29:30.000Z</time>
      </trkpt>
      <trkpt lat="47.4349" lon="6.81445">
        <ele>422.5</ele>
        <time>2017-03-26T08:29:31.000Z</time>
      </trkpt>
      <trkpt lat="47.43487" lon="6.81439">
        <ele>422.3</ele>
        <time>2017-03-26T08:29:34.000Z</time>
      </trkpt>
      <trkpt lat="47.43485" lon="6.81437">
        <ele>422.2</ele>
        <time>2017-03-26T08:29:35.000Z</time>
      </trkpt>
      <trkpt lat="47.43481" lon="6.81434">
        <ele>422.2</ele>
        <time>2017-03-26T08:29:37.000Z</time>
      </trkpt>
      <trkpt lat="47.4348" lon="6.81432">
        <ele>422.2</ele>
        <time>2017-03-26T08:29:38.000Z</time>
      </trkpt>
      <trkpt lat="47.43477" lon="6.81429">
        <ele>422.2</ele>
        <time>2017-03-26T08:29:45.000Z</time>
      </trkpt>
      <trkpt lat="47.43468" lon="6.8142">
        <ele>422.2</ele>
        <time>2017-03-26T08:29:46.000Z</time>
      </trkpt>
      <trkpt lat="47.43468" lon="6.8142">
        <ele>422.7</ele>
        <time>2017-03-26T08:29:49.000Z</time>
      </trkpt>
      <trkpt lat="47.43455" lon="6.81408">
        <ele>422.7</ele>
        <time>2017-03-26T08:29:50.000Z</time>
      </trkpt>
      <trkpt lat="47.43452" lon="6.81404">
        <ele>422.8</ele>
        <time>2017-03-26T08:29:51.000Z</time>
      </trkpt>
      <trkpt lat="47.43447" lon="6.81397">
        <ele>422.9</ele>
        <time>2017-03-26T08:29:52.000Z</time>
      </trkpt>
      <trkpt lat="47.43444" lon="6.81392">
        <ele>423</ele>
        <time>2017-03-26T08:29:53.000Z</time>
      </trkpt>
      <trkpt lat="47.43441" lon="6.8139">
        <ele>423.1</ele>
        <time>2017-03-26T08:29:54.000Z</time>
      </trkpt>
      <trkpt lat="47.43439" lon="6.81388">
        <ele>423.2</ele>
        <time>2017-03-26T08:29:55.000Z</time>
      </trkpt>
      <trkpt lat="47.43437" lon="6.81386">
        <ele>423.4</ele>
        <time>2017-03-26T08:29:56.000Z</time>
      </trkpt>
      <trkpt lat="47.43435" lon="6.81384">
        <ele>423.6</ele>
        <time>2017-03-26T08:29:57.000Z</time>
      </trkpt>
      <trkpt lat="47.43433" lon="6.81382">
        <ele>425.5</ele>
        <time>2017-03-26T08:30:04.000Z</time>
      </trkpt>
      <trkpt lat="47.43421" lon="6.81372">
        <ele>425.8</ele>
        <time>2017-03-26T08:30:05.000Z</time>
      </trkpt>
      <trkpt lat="47.43421" lon="6.81372">
        <ele>426</ele>
        <time>2017-03-26T08:30:06.000Z</time>
      </trkpt>
      <trkpt lat="47.43417" lon="6.81368">
        <ele>426.1</ele>
        <time>2017-03-26T08:30:07.000Z</time>
      </trkpt>
      <trkpt lat="47.43414" lon="6.81368">
        <ele>426.1</ele>
        <time>2017-03-26T08:30:09.000Z</time>
      </trkpt>
      <trkpt lat="47.43412" lon="6.81367">
        <ele>426.1</ele>
        <time>2017-03-26T08:30:10.000Z</time>
      </trkpt>
      <trkpt lat="47.4341" lon="6.81365">
        <ele>426.2</ele>
        <time>2017-03-26T08:30:11.000Z</time>
      </trkpt>
      <trkpt lat="47.43407" lon="6.81362">
        <ele>426.5</ele>
        <time>2017-03-26T08:30:12.000Z</time>
      </trkpt>
      <trkpt lat="47.43405" lon="6.81361">
        <ele>426.6</ele>
        <time>2017-03-26T08:30:13.000Z</time>
      </trkpt>
      <trkpt lat="47.43403" lon="6.81359">
        <ele>426.6</ele>
        <time>2017-03-26T08:30:14.000Z</time>
      </trkpt>
      <trkpt lat="47.434" lon="6.81356">
        <ele>426.6</ele>
        <time>2017-03-26T08:30:15.000Z</time>
      </trkpt>
      <trkpt lat="47.43398" lon="6.81354">
        <ele>426.6</ele>
        <time>2017-03-26T08:30:16.000Z</time>
      </trkpt>
      <trkpt lat="47.43396" lon="6.81351">
        <ele>426.7</ele>
        <time>2017-03-26T08:30:17.000Z</time>
      </trkpt>
      <trkpt lat="47.43394" lon="6.81347">
        <ele>426.7</ele>
        <time>2017-03-26T08:30:18.000Z</time>
      </trkpt>
      <trkpt lat="47.43391" lon="6.81345">
        <ele>426.5</ele>
        <time>2017-03-26T08:30:19.000Z</time>
      </trkpt>
      <trkpt lat="47.43389" lon="6.81343">
        <ele>426.4</ele>
        <time>2017-03-26T08:30:20.000Z</time>
      </trkpt>
      <trkpt lat="47.43386" lon="6.81341">
        <ele>426.3</ele>
        <time>2017-03-26T08:30:21.000Z</time>
      </trkpt>
      <trkpt lat="47.43384" lon="6.81339">
        <ele>426.2</ele>
        <time>2017-03-26T08:30:22.000Z</time>
      </trkpt>
      <trkpt lat="47.43381" lon="6.81338">
        <ele>426.1</ele>
        <time>2017-03-26T08:30:23.000Z</time>
      </trkpt>
      <trkpt lat="47.43378" lon="6.81337">
        <ele>425.9</ele>
        <time>2017-03-26T08:30:24.000Z</time>
      </trkpt>
      <trkpt lat="47.43376" lon="6.81337">
        <ele>425.8</ele>
        <time>2017-03-26T08:30:25.000Z</time>
      </trkpt>
      <trkpt lat="47.43373" lon="6.81335">
        <ele>425.6</ele>
        <time>2017-03-26T08:30:26.000Z</time>
      </trkpt>
      <trkpt lat="47.4337" lon="6.81333">
        <ele>425.5</ele>
        <time>2017-03-26T08:30:27.000Z</time>
      </trkpt>
      <trkpt lat="47.43367" lon="6.8133">
        <ele>425.3</ele>
        <time>2017-03-26T08:30:28.000Z</time>
      </trkpt>
      <trkpt lat="47.43364" lon="6.81328">
        <ele>425.1</ele>
        <time>2017-03-26T08:30:29.000Z</time>
      </trkpt>
      <trkpt lat="47.43361" lon="6.81326">
        <ele>424.9</ele>
        <time>2017-03-26T08:30:30.000Z</time>
      </trkpt>
      <trkpt lat="47.43359" lon="6.81324">
        <ele>424.2</ele>
        <time>2017-03-26T08:30:34.000Z</time>
      </trkpt>
      <trkpt lat="47.43348" lon="6.81313">
        <ele>424</ele>
        <time>2017-03-26T08:30:35.000Z</time>
      </trkpt>
      <trkpt lat="47.43346" lon="6.8131">
        <ele>423.8</ele>
        <time>2017-03-26T08:30:36.000Z</time>
      </trkpt>
      <trkpt lat="47.43343" lon="6.81309">
        <ele>423.5</ele>
        <time>2017-03-26T08:30:37.000Z</time>
      </trkpt>
      <trkpt lat="47.43341" lon="6.81307">
        <ele>423.3</ele>
        <time>2017-03-26T08:30:38.000Z</time>
      </trkpt>
      <trkpt lat="47.43338" lon="6.81305">
        <ele>423.1</ele>
        <time>2017-03-26T08:30:39.000Z</time>
      </trkpt>
      <trkpt lat="47.43335" lon="6.81303">
        <ele>423.1</ele>
        <time>2017-03-26T08:30:40.000Z</time>
      </trkpt>
      <trkpt lat="47.43332" lon="6.81301">
        <ele>423</ele>
        <time>2017-03-26T08:30:41.000Z</time>
      </trkpt>
      <trkpt lat="47.43329" lon="6.81298">
        <ele>423</ele>
        <time>2017-03-26T08:30:42.000Z</time>
      </trkpt>
      <trkpt lat="47.43327" lon="6.81294">
        <ele>423</ele>
        <time>2017-03-26T08:30:43.000Z</time>
      </trkpt>
      <trkpt lat="47.43325" lon="6.81293">
        <ele>423.1</ele>
        <time>2017-03-26T08:30:44.000Z</time>
      </trkpt>
      <trkpt lat="47.43322" lon="6.81292">
        <ele>423.3</ele>
        <time>2017-03-26T08:30:45.000Z</time>
      </trkpt>
      <trkpt lat="47.4332" lon="6.81289">
        <ele>423.4</ele>
        <time>2017-03-26T08:30:46.000Z</time>
      </trkpt>
      <trkpt lat="47.43317" lon="6.81288">
        <ele>423.7</ele>
        <time>2017-03-26T08:30:47.000Z</time>
      </trkpt>
      <trkpt lat="47.43315" lon="6.81287">
        <ele>423.9</ele>
        <time>2017-03-26T08:30:48.000Z</time>
      </trkpt>
      <trkpt lat="47.43312" lon="6.81286">
        <ele>424.1</ele>
        <time>2017-03-26T08:30:49.000Z</time>
      </trkpt>
      <trkpt lat="47.43309" lon="6.81284">
        <ele>424.4</ele>
        <time>2017-03-26T08:30:51.000Z</time>
      </trkpt>
      <trkpt lat="47.43306" lon="6.81282">
        <ele>424.5</ele>
        <time>2017-03-26T08:30:52.000Z</time>
      </trkpt>
      <trkpt lat="47.43304" lon="6.8128">
        <ele>424.5</ele>
        <time>2017-03-26T08:30:53.000Z</time>
      </trkpt>
      <trkpt lat="47.433" lon="6.81278">
        <ele>424.6</ele>
        <time>2017-03-26T08:30:54.000Z</time>
      </trkpt>
      <trkpt lat="47.43297" lon="6.81276">
        <ele>424.8</ele>
        <time>2017-03-26T08:30:55.000Z</time>
      </trkpt>
      <trkpt lat="47.43295" lon="6.81274">
        <ele>425.1</ele>
        <time>2017-03-26T08:30:56.000Z</time>
      </trkpt>
      <trkpt lat="47.43292" lon="6.81271">
        <ele>425.5</ele>
        <time>2017-03-26T08:30:59.000Z</time>
      </trkpt>
      <trkpt lat="47.4329" lon="6.8127">
        <ele>425.9</ele>
        <time>2017-03-26T08:31:00.000Z</time>
      </trkpt>
      <trkpt lat="47.43289" lon="6.81268">
        <ele>426.1</ele>
        <time>2017-03-26T08:31:01.000Z</time>
      </trkpt>
      <trkpt lat="47.43286" lon="6.81266">
        <ele>426.3</ele>
        <time>2017-03-26T08:31:02.000Z</time>
      </trkpt>
      <trkpt lat="47.43283" lon="6.81264">
        <ele>426.4</ele>
        <time>2017-03-26T08:31:03.000Z</time>
      </trkpt>
      <trkpt lat="47.43281" lon="6.81261">
        <ele>426.7</ele>
        <time>2017-03-26T08:31:04.000Z</time>
      </trkpt>
      <trkpt lat="47.43278" lon="6.81259">
        <ele>426.9</ele>
        <time>2017-03-26T08:31:05.000Z</time>
      </trkpt>
      <trkpt lat="47.43276" lon="6.81257">
        <ele>427.1</ele>
        <time>2017-03-26T08:31:06.000Z</time>
      </trkpt>
      <trkpt lat="47.43274" lon="6.81255">
        <ele>428.1</ele>
        <time>2017-03-26T08:31:13.000Z</time>
      </trkpt>
      <trkpt lat="47.43267" lon="6.81244">
        <ele>428.3</ele>
        <time>2017-03-26T08:31:14.000Z</time>
      </trkpt>
      <trkpt lat="47.43263" lon="6.8124">
        <ele>428.5</ele>
        <time>2017-03-26T08:31:15.000Z</time>
      </trkpt>
      <trkpt lat="47.4326" lon="6.81238">
        <ele>428.8</ele>
        <time>2017-03-26T08:31:16.000Z</time>
      </trkpt>
      <trkpt lat="47.43258" lon="6.81236">
        <ele>429.5</ele>
        <time>2017-03-26T08:31:18.000Z</time>
      </trkpt>
      <trkpt lat="47.43256" lon="6.81233">
        <ele>429.8</ele>
        <time>2017-03-26T08:31:19.000Z</time>
      </trkpt>
      <trkpt lat="47.43253" lon="6.81231">
        <ele>431.4</ele>
        <time>2017-03-26T08:31:24.000Z</time>
      </trkpt>
      <trkpt lat="47.43246" lon="6.81225">
        <ele>431.7</ele>
        <time>2017-03-26T08:31:25.000Z</time>
      </trkpt>
      <trkpt lat="47.43243" lon="6.81222">
        <ele>431.9</ele>
        <time>2017-03-26T08:31:26.000Z</time>
      </trkpt>
      <trkpt lat="47.4324" lon="6.8122">
        <ele>431.9</ele>
        <time>2017-03-26T08:31:27.000Z</time>
      </trkpt>
      <trkpt lat="47.43237" lon="6.81217">
        <ele>431.9</ele>
        <time>2017-03-26T08:31:28.000Z</time>
      </trkpt>
      <trkpt lat="47.43234" lon="6.81215">
        <ele>432</ele>
        <time>2017-03-26T08:31:29.000Z</time>
      </trkpt>
      <trkpt lat="47.4323" lon="6.81213">
        <ele>432.1</ele>
        <time>2017-03-26T08:31:30.000Z</time>
      </trkpt>
      <trkpt lat="47.43227" lon="6.81211">
        <ele>432.2</ele>
        <time>2017-03-26T08:31:31.000Z</time>
      </trkpt>
      <trkpt lat="47.43224" lon="6.8121">
        <ele>433.4</ele>
        <time>2017-03-26T08:31:37.000Z</time>
      </trkpt>
      <trkpt lat="47.43214" lon="6.81203">
        <ele>433.7</ele>
        <time>2017-03-26T08:31:38.000Z</time>
      </trkpt>
      <trkpt lat="47.43211" lon="6.812">
        <ele>434</ele>
        <time>2017-03-26T08:31:39.000Z</time>
      </trkpt>
      <trkpt lat="47.43209" lon="6.81196">
        <ele>434.4</ele>
        <time>2017-03-26T08:31:40.000Z</time>
      </trkpt>
      <trkpt lat="47.43206" lon="6.81194">
        <ele>434.8</ele>
        <time>2017-03-26T08:31:41.000Z</time>
      </trkpt>
      <trkpt lat="47.43202" lon="6.81191">
        <ele>435.2</ele>
        <time>2017-03-26T08:31:42.000Z</time>
      </trkpt>
      <trkpt lat="47.43199" lon="6.81189">
        <ele>435.7</ele>
        <time>2017-03-26T08:31:43.000Z</time>
      </trkpt>
      <trkpt lat="47.43196" lon="6.81187">
        <ele>435.9</ele>
        <time>2017-03-26T08:31:44.000Z</time>
      </trkpt>
      <trkpt lat="47.43192" lon="6.81183">
        <ele>436.1</ele>
        <time>2017-03-26T08:31:45.000Z</time>
      </trkpt>
      <trkpt lat="47.43186" lon="6.81178">
        <ele>436.4</ele>
        <time>2017-03-26T08:31:46.000Z</time>
      </trkpt>
      <trkpt lat="47.43183" lon="6.81176">
        <ele>436.6</ele>
        <time>2017-03-26T08:31:47.000Z</time>
      </trkpt>
      <trkpt lat="47.43179" lon="6.81174">
        <ele>437</ele>
        <time>2017-03-26T08:31:48.000Z</time>
      </trkpt>
      <trkpt lat="47.43175" lon="6.81172">
        <ele>437.2</ele>
        <time>2017-03-26T08:31:49.000Z</time>
      </trkpt>
      <trkpt lat="47.43172" lon="6.8117">
        <ele>437.4</ele>
        <time>2017-03-26T08:31:50.000Z</time>
      </trkpt>
      <trkpt lat="47.4317" lon="6.81168">
        <ele>437.6</ele>
        <time>2017-03-26T08:31:51.000Z</time>
      </trkpt>
      <trkpt lat="47.43168" lon="6.81165">
        <ele>437.9</ele>
        <time>2017-03-26T08:31:52.000Z</time>
      </trkpt>
      <trkpt lat="47.43165" lon="6.81162">
        <ele>438.3</ele>
        <time>2017-03-26T08:31:53.000Z</time>
      </trkpt>
      <trkpt lat="47.43163" lon="6.81159">
        <ele>438.7</ele>
        <time>2017-03-26T08:31:54.000Z</time>
      </trkpt>
      <trkpt lat="47.4316" lon="6.81157">
        <ele>439.1</ele>
        <time>2017-03-26T08:31:55.000Z</time>
      </trkpt>
      <trkpt lat="47.43158" lon="6.81155">
        <ele>439.5</ele>
        <time>2017-03-26T08:31:56.000Z</time>
      </trkpt>
      <trkpt lat="47.43155" lon="6.81153">
        <ele>439.9</ele>
        <time>2017-03-26T08:31:57.000Z</time>
      </trkpt>
      <trkpt lat="47.43152" lon="6.81151">
        <ele>440.2</ele>
        <time>2017-03-26T08:31:58.000Z</time>
      </trkpt>
      <trkpt lat="47.43149" lon="6.81148">
        <ele>440.7</ele>
        <time>2017-03-26T08:32:00.000Z</time>
      </trkpt>
      <trkpt lat="47.43147" lon="6.81146">
        <ele>440.9</ele>
        <time>2017-03-26T08:32:01.000Z</time>
      </trkpt>
      <trkpt lat="47.43144" lon="6.81144">
        <ele>441.3</ele>
        <time>2017-03-26T08:32:02.000Z</time>
      </trkpt>
      <trkpt lat="47.43142" lon="6.81141">
        <ele>441.6</ele>
        <time>2017-03-26T08:32:03.000Z</time>
      </trkpt>
      <trkpt lat="47.4314" lon="6.81139">
        <ele>441.9</ele>
        <time>2017-03-26T08:32:04.000Z</time>
      </trkpt>
      <trkpt lat="47.43138" lon="6.81137">
        <ele>442.1</ele>
        <time>2017-03-26T08:32:05.000Z</time>
      </trkpt>
      <trkpt lat="47.43136" lon="6.81135">
        <ele>442.3</ele>
        <time>2017-03-26T08:32:06.000Z</time>
      </trkpt>
      <trkpt lat="47.43134" lon="6.81133">
        <ele>442.4</ele>
        <time>2017-03-26T08:32:07.000Z</time>
      </trkpt>
      <trkpt lat="47.43131" lon="6.81129">
        <ele>442.7</ele>
        <time>2017-03-26T08:32:09.000Z</time>
      </trkpt>
      <trkpt lat="47.4313" lon="6.81126">
        <ele>442.8</ele>
        <time>2017-03-26T08:32:10.000Z</time>
      </trkpt>
      <trkpt lat="47.43128" lon="6.81124">
        <ele>442.9</ele>
        <time>2017-03-26T08:32:11.000Z</time>
      </trkpt>
      <trkpt lat="47.43126" lon="6.8112">
        <ele>442.9</ele>
        <time>2017-03-26T08:32:12.000Z</time>
      </trkpt>
      <trkpt lat="47.43121" lon="6.81114">
        <ele>442.9</ele>
        <time>2017-03-26T08:32:13.000Z</time>
      </trkpt>
      <trkpt lat="47.43117" lon="6.81115">
        <ele>442.8</ele>
        <time>2017-03-26T08:32:19.000Z</time>
      </trkpt>
      <trkpt lat="47.43115" lon="6.81113">
        <ele>442.7</ele>
        <time>2017-03-26T08:32:20.000Z</time>
      </trkpt>
      <trkpt lat="47.43111" lon="6.81111">
        <ele>442.7</ele>
        <time>2017-03-26T08:32:21.000Z</time>
      </trkpt>
      <trkpt lat="47.43109" lon="6.81108">
        <ele>442.5</ele>
        <time>2017-03-26T08:32:22.000Z</time>
      </trkpt>
      <trkpt lat="47.43107" lon="6.81103">
        <ele>442.4</ele>
        <time>2017-03-26T08:32:23.000Z</time>
      </trkpt>
      <trkpt lat="47.43105" lon="6.81099">
        <ele>442.3</ele>
        <time>2017-03-26T08:32:24.000Z</time>
      </trkpt>
      <trkpt lat="47.43103" lon="6.81096">
        <ele>442.3</ele>
        <time>2017-03-26T08:32:25.000Z</time>
      </trkpt>
      <trkpt lat="47.43101" lon="6.81092">
        <ele>442.3</ele>
        <time>2017-03-26T08:32:26.000Z</time>
      </trkpt>
      <trkpt lat="47.43098" lon="6.81087">
        <ele>442</ele>
        <time>2017-03-26T08:32:29.000Z</time>
      </trkpt>
      <trkpt lat="47.43097" lon="6.81085">
        <ele>441.9</ele>
        <time>2017-03-26T08:32:30.000Z</time>
      </trkpt>
      <trkpt lat="47.43094" lon="6.8108">
        <ele>441.9</ele>
        <time>2017-03-26T08:32:32.000Z</time>
      </trkpt>
      <trkpt lat="47.43093" lon="6.81078">
        <ele>441.9</ele>
        <time>2017-03-26T08:32:33.000Z</time>
      </trkpt>
      <trkpt lat="47.43091" lon="6.81075">
        <ele>441.8</ele>
        <time>2017-03-26T08:32:34.000Z</time>
      </trkpt>
      <trkpt lat="47.43089" lon="6.8107">
        <ele>441.8</ele>
        <time>2017-03-26T08:32:35.000Z</time>
      </trkpt>
      <trkpt lat="47.43088" lon="6.81066">
        <ele>441.8</ele>
        <time>2017-03-26T08:32:36.000Z</time>
      </trkpt>
      <trkpt lat="47.43086" lon="6.81061">
        <ele>441.8</ele>
        <time>2017-03-26T08:32:37.000Z</time>
      </trkpt>
      <trkpt lat="47.43083" lon="6.81053">
        <ele>442.1</ele>
        <time>2017-03-26T08:32:38.000Z</time>
      </trkpt>
      <trkpt lat="47.43081" lon="6.81047">
        <ele>442.2</ele>
        <time>2017-03-26T08:32:39.000Z</time>
      </trkpt>
      <trkpt lat="47.43078" lon="6.81042">
        <ele>442.3</ele>
        <time>2017-03-26T08:32:40.000Z</time>
      </trkpt>
      <trkpt lat="47.43076" lon="6.81039">
        <ele>442.5</ele>
        <time>2017-03-26T08:32:41.000Z</time>
      </trkpt>
      <trkpt lat="47.43073" lon="6.81035">
        <ele>442.6</ele>
        <time>2017-03-26T08:32:42.000Z</time>
      </trkpt>
      <trkpt lat="47.4307" lon="6.81032">
        <ele>442.6</ele>
        <time>2017-03-26T08:32:43.000Z</time>
      </trkpt>
      <trkpt lat="47.43069" lon="6.81028">
        <ele>442.8</ele>
        <time>2017-03-26T08:32:44.000Z</time>
      </trkpt>
      <trkpt lat="47.43067" lon="6.81026">
        <ele>442.8</ele>
        <time>2017-03-26T08:32:45.000Z</time>
      </trkpt>
      <trkpt lat="47.43065" lon="6.81023">
        <ele>442.9</ele>
        <time>2017-03-26T08:32:46.000Z</time>
      </trkpt>
      <trkpt lat="47.43063" lon="6.8102">
        <ele>443</ele>
        <time>2017-03-26T08:32:47.000Z</time>
      </trkpt>
      <trkpt lat="47.43061" lon="6.81016">
        <ele>443.1</ele>
        <time>2017-03-26T08:32:49.000Z</time>
      </trkpt>
      <trkpt lat="47.43059" lon="6.81013">
        <ele>443.2</ele>
        <time>2017-03-26T08:32:50.000Z</time>
      </trkpt>
      <trkpt lat="47.43057" lon="6.81007">
        <ele>443.3</ele>
        <time>2017-03-26T08:32:51.000Z</time>
      </trkpt>
      <trkpt lat="47.43055" lon="6.81001">
        <ele>443.6</ele>
        <time>2017-03-26T08:32:52.000Z</time>
      </trkpt>
      <trkpt lat="47.43052" lon="6.80997">
        <ele>443.9</ele>
        <time>2017-03-26T08:32:53.000Z</time>
      </trkpt>
      <trkpt lat="47.43049" lon="6.80992">
        <ele>444</ele>
        <time>2017-03-26T08:32:54.000Z</time>
      </trkpt>
      <trkpt lat="47.43047" lon="6.80987">
        <ele>444</ele>
        <time>2017-03-26T08:32:55.000Z</time>
      </trkpt>
      <trkpt lat="47.43044" lon="6.80982">
        <ele>444.1</ele>
        <time>2017-03-26T08:32:56.000Z</time>
      </trkpt>
      <trkpt lat="47.43042" lon="6.80979">
        <ele>444.2</ele>
        <time>2017-03-26T08:32:57.000Z</time>
      </trkpt>
      <trkpt lat="47.43039" lon="6.80975">
        <ele>444.2</ele>
        <time>2017-03-26T08:32:58.000Z</time>
      </trkpt>
      <trkpt lat="47.43037" lon="6.80973">
        <ele>444.3</ele>
        <time>2017-03-26T08:32:59.000Z</time>
      </trkpt>
      <trkpt lat="47.43036" lon="6.8097">
        <ele>444.4</ele>
        <time>2017-03-26T08:33:00.000Z</time>
      </trkpt>
      <trkpt lat="47.43032" lon="6.80965">
        <ele>444.3</ele>
        <time>2017-03-26T08:33:02.000Z</time>
      </trkpt>
      <trkpt lat="47.4303" lon="6.80963">
        <ele>444.2</ele>
        <time>2017-03-26T08:33:03.000Z</time>
      </trkpt>
      <trkpt lat="47.43028" lon="6.80958">
        <ele>444.1</ele>
        <time>2017-03-26T08:33:05.000Z</time>
      </trkpt>
      <trkpt lat="47.43026" lon="6.80956">
        <ele>444.1</ele>
        <time>2017-03-26T08:33:06.000Z</time>
      </trkpt>
      <trkpt lat="47.43024" lon="6.80953">
        <ele>444.1</ele>
        <time>2017-03-26T08:33:07.000Z</time>
      </trkpt>
      <trkpt lat="47.43022" lon="6.80949">
        <ele>444.1</ele>
        <time>2017-03-26T08:33:08.000Z</time>
      </trkpt>
      <trkpt lat="47.43021" lon="6.80945">
        <ele>444.1</ele>
        <time>2017-03-26T08:33:09.000Z</time>
      </trkpt>
      <trkpt lat="47.43019" lon="6.80942">
        <ele>444.1</ele>
        <time>2017-03-26T08:33:10.000Z</time>
      </trkpt>
      <trkpt lat="47.43017" lon="6.80937">
        <ele>444.2</ele>
        <time>2017-03-26T08:33:12.000Z</time>
      </trkpt>
      <trkpt lat="47.43015" lon="6.80934">
        <ele>444.2</ele>
        <time>2017-03-26T08:33:13.000Z</time>
      </trkpt>
      <trkpt lat="47.43014" lon="6.80931">
        <ele>444.2</ele>
        <time>2017-03-26T08:33:14.000Z</time>
      </trkpt>
      <trkpt lat="47.43012" lon="6.80929">
        <ele>444.3</ele>
        <time>2017-03-26T08:33:15.000Z</time>
      </trkpt>
      <trkpt lat="47.4301" lon="6.80926">
        <ele>444.3</ele>
        <time>2017-03-26T08:33:16.000Z</time>
      </trkpt>
      <trkpt lat="47.43008" lon="6.80923">
        <ele>444.4</ele>
        <time>2017-03-26T08:33:17.000Z</time>
      </trkpt>
      <trkpt lat="47.43006" lon="6.80919">
        <ele>444.5</ele>
        <time>2017-03-26T08:33:18.000Z</time>
      </trkpt>
      <trkpt lat="47.43004" lon="6.80916">
        <ele>444.6</ele>
        <time>2017-03-26T08:33:19.000Z</time>
      </trkpt>
      <trkpt lat="47.43002" lon="6.80911">
        <ele>444.7</ele>
        <time>2017-03-26T08:33:21.000Z</time>
      </trkpt>
      <trkpt lat="47.43001" lon="6.80909">
        <ele>444.6</ele>
        <time>2017-03-26T08:33:22.000Z</time>
      </trkpt>
      <trkpt lat="47.42998" lon="6.80904">
        <ele>444.5</ele>
        <time>2017-03-26T08:33:24.000Z</time>
      </trkpt>
      <trkpt lat="47.42998" lon="6.80903">
        <ele>444.4</ele>
        <time>2017-03-26T08:33:25.000Z</time>
      </trkpt>
      <trkpt lat="47.42997" lon="6.80898">
        <ele>444.2</ele>
        <time>2017-03-26T08:33:27.000Z</time>
      </trkpt>
      <trkpt lat="47.42997" lon="6.80896">
        <ele>444.2</ele>
        <time>2017-03-26T08:33:28.000Z</time>
      </trkpt>
      <trkpt lat="47.42997" lon="6.80891">
        <ele>444.2</ele>
        <time>2017-03-26T08:33:29.000Z</time>
      </trkpt>
      <trkpt lat="47.42994" lon="6.80887">
        <ele>444.3</ele>
        <time>2017-03-26T08:33:30.000Z</time>
      </trkpt>
      <trkpt lat="47.42991" lon="6.80883">
        <ele>444.4</ele>
        <time>2017-03-26T08:33:31.000Z</time>
      </trkpt>
      <trkpt lat="47.42989" lon="6.80878">
        <ele>444.6</ele>
        <time>2017-03-26T08:33:32.000Z</time>
      </trkpt>
      <trkpt lat="47.42988" lon="6.80874">
        <ele>444.8</ele>
        <time>2017-03-26T08:33:33.000Z</time>
      </trkpt>
      <trkpt lat="47.42986" lon="6.8087">
        <ele>444.9</ele>
        <time>2017-03-26T08:33:34.000Z</time>
      </trkpt>
      <trkpt lat="47.42984" lon="6.80868">
        <ele>445.1</ele>
        <time>2017-03-26T08:33:35.000Z</time>
      </trkpt>
      <trkpt lat="47.42982" lon="6.80866">
        <ele>445.2</ele>
        <time>2017-03-26T08:33:36.000Z</time>
      </trkpt>
      <trkpt lat="47.4298" lon="6.80863">
        <ele>445.3</ele>
        <time>2017-03-26T08:33:37.000Z</time>
      </trkpt>
      <trkpt lat="47.42978" lon="6.8086">
        <ele>445.5</ele>
        <time>2017-03-26T08:33:38.000Z</time>
      </trkpt>
      <trkpt lat="47.42975" lon="6.80856">
        <ele>445.8</ele>
        <time>2017-03-26T08:33:39.000Z</time>
      </trkpt>
      <trkpt lat="47.42972" lon="6.80853">
        <ele>446.2</ele>
        <time>2017-03-26T08:33:40.000Z</time>
      </trkpt>
      <trkpt lat="47.42969" lon="6.80849">
        <ele>446.4</ele>
        <time>2017-03-26T08:33:41.000Z</time>
      </trkpt>
      <trkpt lat="47.42967" lon="6.80846">
        <ele>446.8</ele>
        <time>2017-03-26T08:33:42.000Z</time>
      </trkpt>
      <trkpt lat="47.42964" lon="6.80843">
        <ele>447.1</ele>
        <time>2017-03-26T08:33:43.000Z</time>
      </trkpt>
      <trkpt lat="47.42962" lon="6.8084">
        <ele>447.3</ele>
        <time>2017-03-26T08:33:44.000Z</time>
      </trkpt>
      <trkpt lat="47.42959" lon="6.80837">
        <ele>447.5</ele>
        <time>2017-03-26T08:33:45.000Z</time>
      </trkpt>
      <trkpt lat="47.42957" lon="6.80834">
        <ele>447.7</ele>
        <time>2017-03-26T08:33:46.000Z</time>
      </trkpt>
      <trkpt lat="47.42953" lon="6.8083">
        <ele>448</ele>
        <time>2017-03-26T08:33:48.000Z</time>
      </trkpt>
      <trkpt lat="47.42952" lon="6.80827">
        <ele>448.3</ele>
        <time>2017-03-26T08:33:49.000Z</time>
      </trkpt>
      <trkpt lat="47.4295" lon="6.80823">
        <ele>448.4</ele>
        <time>2017-03-26T08:33:50.000Z</time>
      </trkpt>
      <trkpt lat="47.42949" lon="6.80819">
        <ele>448.6</ele>
        <time>2017-03-26T08:33:51.000Z</time>
      </trkpt>
      <trkpt lat="47.42948" lon="6.80814">
        <ele>448.7</ele>
        <time>2017-03-26T08:33:52.000Z</time>
      </trkpt>
      <trkpt lat="47.42948" lon="6.80811">
        <ele>448.8</ele>
        <time>2017-03-26T08:33:53.000Z</time>
      </trkpt>
      <trkpt lat="47.42946" lon="6.80806">
        <ele>449</ele>
        <time>2017-03-26T08:33:55.000Z</time>
      </trkpt>
      <trkpt lat="47.42945" lon="6.80803">
        <ele>449</ele>
        <time>2017-03-26T08:33:56.000Z</time>
      </trkpt>
      <trkpt lat="47.42945" lon="6.80799">
        <ele>449.4</ele>
        <time>2017-03-26T08:33:58.000Z</time>
      </trkpt>
      <trkpt lat="47.42944" lon="6.80795">
        <ele>449.6</ele>
        <time>2017-03-26T08:33:59.000Z</time>
      </trkpt>
      <trkpt lat="47.42943" lon="6.80792">
        <ele>449.9</ele>
        <time>2017-03-26T08:34:00.000Z</time>
      </trkpt>
      <trkpt lat="47.42941" lon="6.80788">
        <ele>450.2</ele>
        <time>2017-03-26T08:34:01.000Z</time>
      </trkpt>
      <trkpt lat="47.4294" lon="6.80784">
        <ele>450.4</ele>
        <time>2017-03-26T08:34:02.000Z</time>
      </trkpt>
      <trkpt lat="47.42939" lon="6.80777">
        <ele>450.7</ele>
        <time>2017-03-26T08:34:03.000Z</time>
      </trkpt>
      <trkpt lat="47.42936" lon="6.8077">
        <ele>451</ele>
        <time>2017-03-26T08:34:04.000Z</time>
      </trkpt>
      <trkpt lat="47.42934" lon="6.80765">
        <ele>451.3</ele>
        <time>2017-03-26T08:34:05.000Z</time>
      </trkpt>
      <trkpt lat="47.42933" lon="6.80761">
        <ele>451.5</ele>
        <time>2017-03-26T08:34:06.000Z</time>
      </trkpt>
      <trkpt lat="47.42931" lon="6.80758">
        <ele>451.8</ele>
        <time>2017-03-26T08:34:07.000Z</time>
      </trkpt>
      <trkpt lat="47.42929" lon="6.80755">
        <ele>452</ele>
        <time>2017-03-26T08:34:08.000Z</time>
      </trkpt>
      <trkpt lat="47.42927" lon="6.80752">
        <ele>452.3</ele>
        <time>2017-03-26T08:34:09.000Z</time>
      </trkpt>
      <trkpt lat="47.42925" lon="6.80749">
        <ele>452.6</ele>
        <time>2017-03-26T08:34:10.000Z</time>
      </trkpt>
      <trkpt lat="47.42924" lon="6.80746">
        <ele>452.7</ele>
        <time>2017-03-26T08:34:11.000Z</time>
      </trkpt>
      <trkpt lat="47.42922" lon="6.80742">
        <ele>452.7</ele>
        <time>2017-03-26T08:34:12.000Z</time>
      </trkpt>
      <trkpt lat="47.42921" lon="6.80739">
        <ele>452.8</ele>
        <time>2017-03-26T08:34:13.000Z</time>
      </trkpt>
      <trkpt lat="47.42919" lon="6.80735">
        <ele>452.9</ele>
        <time>2017-03-26T08:34:14.000Z</time>
      </trkpt>
      <trkpt lat="47.42917" lon="6.80734">
        <ele>452.9</ele>
        <time>2017-03-26T08:34:15.000Z</time>
      </trkpt>
      <trkpt lat="47.42915" lon="6.80731">
        <ele>452.8</ele>
        <time>2017-03-26T08:34:16.000Z</time>
      </trkpt>
      <trkpt lat="47.42913" lon="6.80728">
        <ele>452.6</ele>
        <time>2017-03-26T08:34:18.000Z</time>
      </trkpt>
      <trkpt lat="47.42912" lon="6.80726">
        <ele>452.5</ele>
        <time>2017-03-26T08:34:19.000Z</time>
      </trkpt>
      <trkpt lat="47.4291" lon="6.80723">
        <ele>452.3</ele>
        <time>2017-03-26T08:34:21.000Z</time>
      </trkpt>
      <trkpt lat="47.42909" lon="6.80719">
        <ele>452.2</ele>
        <time>2017-03-26T08:34:22.000Z</time>
      </trkpt>
      <trkpt lat="47.42908" lon="6.80713">
        <ele>451.8</ele>
        <time>2017-03-26T08:34:24.000Z</time>
      </trkpt>
      <trkpt lat="47.42907" lon="6.80711">
        <ele>451.7</ele>
        <time>2017-03-26T08:34:25.000Z</time>
      </trkpt>
      <trkpt lat="47.42905" lon="6.80707">
        <ele>451.4</ele>
        <time>2017-03-26T08:34:27.000Z</time>
      </trkpt>
      <trkpt lat="47.42904" lon="6.80705">
        <ele>451.4</ele>
        <time>2017-03-26T08:34:28.000Z</time>
      </trkpt>
      <trkpt lat="47.42903" lon="6.80703">
        <ele>451.2</ele>
        <time>2017-03-26T08:34:29.000Z</time>
      </trkpt>
      <trkpt lat="47.42901" lon="6.80697">
        <ele>451.2</ele>
        <time>2017-03-26T08:34:30.000Z</time>
      </trkpt>
      <trkpt lat="47.42899" lon="6.80691">
        <ele>451.4</ele>
        <time>2017-03-26T08:34:31.000Z</time>
      </trkpt>
      <trkpt lat="47.42897" lon="6.80684">
        <ele>451.8</ele>
        <time>2017-03-26T08:34:32.000Z</time>
      </trkpt>
      <trkpt lat="47.42894" lon="6.8068">
        <ele>452</ele>
        <time>2017-03-26T08:34:33.000Z</time>
      </trkpt>
      <trkpt lat="47.42892" lon="6.80676">
        <ele>452.3</ele>
        <time>2017-03-26T08:34:34.000Z</time>
      </trkpt>
      <trkpt lat="47.4289" lon="6.80673">
        <ele>452.5</ele>
        <time>2017-03-26T08:34:35.000Z</time>
      </trkpt>
      <trkpt lat="47.42889" lon="6.80669">
        <ele>452.8</ele>
        <time>2017-03-26T08:34:36.000Z</time>
      </trkpt>
      <trkpt lat="47.42886" lon="6.80664">
        <ele>453.2</ele>
        <time>2017-03-26T08:34:38.000Z</time>
      </trkpt>
      <trkpt lat="47.42885" lon="6.80662">
        <ele>453.5</ele>
        <time>2017-03-26T08:34:39.000Z</time>
      </trkpt>
      <trkpt lat="47.42882" lon="6.80657">
        <ele>454</ele>
        <time>2017-03-26T08:34:41.000Z</time>
      </trkpt>
      <trkpt lat="47.42881" lon="6.80655">
        <ele>454.1</ele>
        <time>2017-03-26T08:34:42.000Z</time>
      </trkpt>
      <trkpt lat="47.42879" lon="6.80651">
        <ele>454.4</ele>
        <time>2017-03-26T08:34:44.000Z</time>
      </trkpt>
      <trkpt lat="47.42877" lon="6.80649">
        <ele>454.6</ele>
        <time>2017-03-26T08:34:45.000Z</time>
      </trkpt>
      <trkpt lat="47.42875" lon="6.80646">
        <ele>454.8</ele>
        <time>2017-03-26T08:34:46.000Z</time>
      </trkpt>
      <trkpt lat="47.42873" lon="6.80643">
        <ele>455.1</ele>
        <time>2017-03-26T08:34:47.000Z</time>
      </trkpt>
      <trkpt lat="47.4287" lon="6.8064">
        <ele>455.9</ele>
        <time>2017-03-26T08:34:50.000Z</time>
      </trkpt>
      <trkpt lat="47.42869" lon="6.80639">
        <ele>456.2</ele>
        <time>2017-03-26T08:34:51.000Z</time>
      </trkpt>
      <trkpt lat="47.42866" lon="6.80641">
        <ele>457.7</ele>
        <time>2017-03-26T08:34:59.000Z</time>
      </trkpt>
      <trkpt lat="47.42861" lon="6.80641">
        <ele>457.9</ele>
        <time>2017-03-26T08:35:00.000Z</time>
      </trkpt>
      <trkpt lat="47.42856" lon="6.8064">
        <ele>458.2</ele>
        <time>2017-03-26T08:35:01.000Z</time>
      </trkpt>
      <trkpt lat="47.42852" lon="6.8064">
        <ele>458.5</ele>
        <time>2017-03-26T08:35:02.000Z</time>
      </trkpt>
      <trkpt lat="47.42848" lon="6.80639">
        <ele>458.9</ele>
        <time>2017-03-26T08:35:03.000Z</time>
      </trkpt>
      <trkpt lat="47.42845" lon="6.80637">
        <ele>459.1</ele>
        <time>2017-03-26T08:35:03.999Z</time>
      </trkpt>
      <trkpt lat="47.42843" lon="6.80636">
        <ele>459.3</ele>
        <time>2017-03-26T08:35:04.999Z</time>
      </trkpt>
      <trkpt lat="47.4284" lon="6.80634">
        <ele>459.6</ele>
        <time>2017-03-26T08:35:05.999Z</time>
      </trkpt>
      <trkpt lat="47.42837" lon="6.80634">
        <ele>459.8</ele>
        <time>2017-03-26T08:35:06.999Z</time>
      </trkpt>
      <trkpt lat="47.42834" lon="6.80633">
        <ele>460.1</ele>
        <time>2017-03-26T08:35:08.999Z</time>
      </trkpt>
      <trkpt lat="47.42832" lon="6.80633">
        <ele>460.2</ele>
        <time>2017-03-26T08:35:09.999Z</time>
      </trkpt>
      <trkpt lat="47.42828" lon="6.80632">
        <ele>460.3</ele>
        <time>2017-03-26T08:35:11.999Z</time>
      </trkpt>
      <trkpt lat="47.42826" lon="6.80632">
        <ele>460.4</ele>
        <time>2017-03-26T08:35:12.999Z</time>
      </trkpt>
      <trkpt lat="47.42822" lon="6.80633">
        <ele>460.6</ele>
        <time>2017-03-26T08:35:14.999Z</time>
      </trkpt>
      <trkpt lat="47.42821" lon="6.80633">
        <ele>460.8</ele>
        <time>2017-03-26T08:35:15.999Z</time>
      </trkpt>
      <trkpt lat="47.42817" lon="6.80633">
        <ele>461.2</ele>
        <time>2017-03-26T08:35:17.999Z</time>
      </trkpt>
      <trkpt lat="47.42814" lon="6.80633">
        <ele>461.4</ele>
        <time>2017-03-26T08:35:18.999Z</time>
      </trkpt>
      <trkpt lat="47.4281" lon="6.80632">
        <ele>461.9</ele>
        <time>2017-03-26T08:35:20.999Z</time>
      </trkpt>
      <trkpt lat="47.42809" lon="6.80633">
        <ele>462.2</ele>
        <time>2017-03-26T08:35:21.999Z</time>
      </trkpt>
      <trkpt lat="47.42805" lon="6.80634">
        <ele>462.5</ele>
        <time>2017-03-26T08:35:22.999Z</time>
      </trkpt>
      <trkpt lat="47.42803" lon="6.80634">
        <ele>462.8</ele>
        <time>2017-03-26T08:35:23.999Z</time>
      </trkpt>
      <trkpt lat="47.42799" lon="6.80633">
        <ele>464</ele>
        <time>2017-03-26T08:35:27.999Z</time>
      </trkpt>
      <trkpt lat="47.42797" lon="6.80633">
        <ele>464.6</ele>
        <time>2017-03-26T08:35:28.999Z</time>
      </trkpt>
      <trkpt lat="47.42794" lon="6.80633">
        <ele>465.7</ele>
        <time>2017-03-26T08:35:30.999Z</time>
      </trkpt>
      <trkpt lat="47.42792" lon="6.80632">
        <ele>466.2</ele>
        <time>2017-03-26T08:35:31.999Z</time>
      </trkpt>
      <trkpt lat="47.42788" lon="6.8063">
        <ele>467</ele>
        <time>2017-03-26T08:35:33.999Z</time>
      </trkpt>
      <trkpt lat="47.42787" lon="6.8063">
        <ele>467.2</ele>
        <time>2017-03-26T08:35:34.999Z</time>
      </trkpt>
      <trkpt lat="47.42783" lon="6.8063">
        <ele>468</ele>
        <time>2017-03-26T08:35:37.999Z</time>
      </trkpt>
      <trkpt lat="47.42777" lon="6.80631">
        <ele>468.4</ele>
        <time>2017-03-26T08:35:38.999Z</time>
      </trkpt>
      <trkpt lat="47.42773" lon="6.80633">
        <ele>468.8</ele>
        <time>2017-03-26T08:35:39.999Z</time>
      </trkpt>
      <trkpt lat="47.42768" lon="6.80632">
        <ele>469.1</ele>
        <time>2017-03-26T08:35:40.999Z</time>
      </trkpt>
      <trkpt lat="47.42766" lon="6.80632">
        <ele>469.4</ele>
        <time>2017-03-26T08:35:41.999Z</time>
      </trkpt>
      <trkpt lat="47.42763" lon="6.80632">
        <ele>469.6</ele>
        <time>2017-03-26T08:35:42.999Z</time>
      </trkpt>
      <trkpt lat="47.4276" lon="6.80631">
        <ele>469.8</ele>
        <time>2017-03-26T08:35:43.999Z</time>
      </trkpt>
      <trkpt lat="47.42758" lon="6.8063">
        <ele>470.1</ele>
        <time>2017-03-26T08:35:44.999Z</time>
      </trkpt>
      <trkpt lat="47.42753" lon="6.80627">
        <ele>470.2</ele>
        <time>2017-03-26T08:35:45.999Z</time>
      </trkpt>
      <trkpt lat="47.42749" lon="6.80625">
        <ele>470.5</ele>
        <time>2017-03-26T08:35:52.999Z</time>
      </trkpt>
      <trkpt lat="47.42747" lon="6.80624">
        <ele>470.7</ele>
        <time>2017-03-26T08:35:53.999Z</time>
      </trkpt>
      <trkpt lat="47.42744" lon="6.80623">
        <ele>471</ele>
        <time>2017-03-26T08:35:56.999Z</time>
      </trkpt>
      <trkpt lat="47.42742" lon="6.80623">
        <ele>471.2</ele>
        <time>2017-03-26T08:35:57.999Z</time>
      </trkpt>
      <trkpt lat="47.42738" lon="6.8062">
        <ele>472.8</ele>
        <time>2017-03-26T08:36:02.999Z</time>
      </trkpt>
      <trkpt lat="47.42737" lon="6.80621">
        <ele>473.2</ele>
        <time>2017-03-26T08:36:03.999Z</time>
      </trkpt>
      <trkpt lat="47.42733" lon="6.80621">
        <ele>473.8</ele>
        <time>2017-03-26T08:36:07.999Z</time>
      </trkpt>
      <trkpt lat="47.42731" lon="6.8062">
        <ele>474</ele>
        <time>2017-03-26T08:36:08.999Z</time>
      </trkpt>
      <trkpt lat="47.42726" lon="6.80618">
        <ele>474.5</ele>
        <time>2017-03-26T08:36:10.999Z</time>
      </trkpt>
      <trkpt lat="47.42724" lon="6.80617">
        <ele>474.7</ele>
        <time>2017-03-26T08:36:11.999Z</time>
      </trkpt>
      <trkpt lat="47.42722" lon="6.80618">
        <ele>474.9</ele>
        <time>2017-03-26T08:36:12.999Z</time>
      </trkpt>
      <trkpt lat="47.42716" lon="6.80615">
        <ele>475.2</ele>
        <time>2017-03-26T08:36:13.999Z</time>
      </trkpt>
      <trkpt lat="47.42714" lon="6.80616">
        <ele>475.6</ele>
        <time>2017-03-26T08:36:15.999Z</time>
      </trkpt>
      <trkpt lat="47.42711" lon="6.80616">
        <ele>476</ele>
        <time>2017-03-26T08:36:16.999Z</time>
      </trkpt>
      <trkpt lat="47.42707" lon="6.80616">
        <ele>476.2</ele>
        <time>2017-03-26T08:36:17.999Z</time>
      </trkpt>
      <trkpt lat="47.42706" lon="6.80616">
        <ele>476.5</ele>
        <time>2017-03-26T08:36:18.999Z</time>
      </trkpt>
      <trkpt lat="47.42702" lon="6.80614">
        <ele>477</ele>
        <time>2017-03-26T08:36:20.999Z</time>
      </trkpt>
      <trkpt lat="47.427" lon="6.80612">
        <ele>477.3</ele>
        <time>2017-03-26T08:36:21.999Z</time>
      </trkpt>
      <trkpt lat="47.42695" lon="6.80611">
        <ele>477.9</ele>
        <time>2017-03-26T08:36:23.999Z</time>
      </trkpt>
      <trkpt lat="47.42694" lon="6.8061">
        <ele>478.1</ele>
        <time>2017-03-26T08:36:24.999Z</time>
      </trkpt>
      <trkpt lat="47.42691" lon="6.80607">
        <ele>479</ele>
        <time>2017-03-26T08:36:28.999Z</time>
      </trkpt>
      <trkpt lat="47.4269" lon="6.80605">
        <ele>479.1</ele>
        <time>2017-03-26T08:36:29.999Z</time>
      </trkpt>
      <trkpt lat="47.42687" lon="6.80602">
        <ele>479.3</ele>
        <time>2017-03-26T08:36:31.999Z</time>
      </trkpt>
      <trkpt lat="47.42686" lon="6.80602">
        <ele>479.6</ele>
        <time>2017-03-26T08:36:32.999Z</time>
      </trkpt>
      <trkpt lat="47.42683" lon="6.80599">
        <ele>480.6</ele>
        <time>2017-03-26T08:36:36.999Z</time>
      </trkpt>
      <trkpt lat="47.42681" lon="6.80598">
        <ele>481</ele>
        <time>2017-03-26T08:36:37.999Z</time>
      </trkpt>
      <trkpt lat="47.42678" lon="6.80596">
        <ele>482.4</ele>
        <time>2017-03-26T08:36:40.999Z</time>
      </trkpt>
      <trkpt lat="47.42676" lon="6.80594">
        <ele>482.9</ele>
        <time>2017-03-26T08:36:41.999Z</time>
      </trkpt>
      <trkpt lat="47.42674" lon="6.80593">
        <ele>483.4</ele>
        <time>2017-03-26T08:36:42.999Z</time>
      </trkpt>
      <trkpt lat="47.42671" lon="6.8059">
        <ele>483.8</ele>
        <time>2017-03-26T08:36:43.999Z</time>
      </trkpt>
      <trkpt lat="47.42669" lon="6.80588">
        <ele>484.3</ele>
        <time>2017-03-26T08:36:44.999Z</time>
      </trkpt>
      <trkpt lat="47.42667" lon="6.80587">
        <ele>484.9</ele>
        <time>2017-03-26T08:36:45.999Z</time>
      </trkpt>
      <trkpt lat="47.42664" lon="6.80583">
        <ele>485.5</ele>
        <time>2017-03-26T08:36:47.999Z</time>
      </trkpt>
      <trkpt lat="47.42663" lon="6.80579">
        <ele>485.8</ele>
        <time>2017-03-26T08:36:48.999Z</time>
      </trkpt>
      <trkpt lat="47.42654" lon="6.80574">
        <ele>486.1</ele>
        <time>2017-03-26T08:36:49.999Z</time>
      </trkpt>
      <trkpt lat="47.4265" lon="6.80569">
        <ele>486.4</ele>
        <time>2017-03-26T08:36:50.999Z</time>
      </trkpt>
      <trkpt lat="47.42645" lon="6.80563">
        <ele>486.7</ele>
        <time>2017-03-26T08:36:51.999Z</time>
      </trkpt>
      <trkpt lat="47.42642" lon="6.80559">
        <ele>487</ele>
        <time>2017-03-26T08:36:52.999Z</time>
      </trkpt>
      <trkpt lat="47.4264" lon="6.80556">
        <ele>487.2</ele>
        <time>2017-03-26T08:36:53.999Z</time>
      </trkpt>
      <trkpt lat="47.42638" lon="6.80553">
        <ele>487.4</ele>
        <time>2017-03-26T08:36:55.999Z</time>
      </trkpt>
      <trkpt lat="47.42636" lon="6.80552">
        <ele>487.6</ele>
        <time>2017-03-26T08:36:56.999Z</time>
      </trkpt>
      <trkpt lat="47.42632" lon="6.80548">
        <ele>487.6</ele>
        <time>2017-03-26T08:36:59.999Z</time>
      </trkpt>
      <trkpt lat="47.42631" lon="6.80546">
        <ele>487.4</ele>
        <time>2017-03-26T08:37:00.999Z</time>
      </trkpt>
      <trkpt lat="47.42629" lon="6.80543">
        <ele>487.3</ele>
        <time>2017-03-26T08:37:02.999Z</time>
      </trkpt>
      <trkpt lat="47.42628" lon="6.80541">
        <ele>487.3</ele>
        <time>2017-03-26T08:37:03.999Z</time>
      </trkpt>
      <trkpt lat="47.42626" lon="6.80537">
        <ele>487.6</ele>
        <time>2017-03-26T08:37:06.999Z</time>
      </trkpt>
      <trkpt lat="47.42624" lon="6.80535">
        <ele>487.7</ele>
        <time>2017-03-26T08:37:07.999Z</time>
      </trkpt>
      <trkpt lat="47.42622" lon="6.8053">
        <ele>488.2</ele>
        <time>2017-03-26T08:37:11.999Z</time>
      </trkpt>
      <trkpt lat="47.42621" lon="6.80527">
        <ele>488.3</ele>
        <time>2017-03-26T08:37:12.999Z</time>
      </trkpt>
      <trkpt lat="47.42618" lon="6.80523">
        <ele>488.7</ele>
        <time>2017-03-26T08:37:15.999Z</time>
      </trkpt>
      <trkpt lat="47.42616" lon="6.80522">
        <ele>488.8</ele>
        <time>2017-03-26T08:37:16.999Z</time>
      </trkpt>
      <trkpt lat="47.42613" lon="6.80517">
        <ele>489.2</ele>
        <time>2017-03-26T08:37:20.999Z</time>
      </trkpt>
      <trkpt lat="47.42612" lon="6.80517">
        <ele>489.3</ele>
        <time>2017-03-26T08:37:21.999Z</time>
      </trkpt>
      <trkpt lat="47.42609" lon="6.80513">
        <ele>489.6</ele>
        <time>2017-03-26T08:37:28.999Z</time>
      </trkpt>
      <trkpt lat="47.42608" lon="6.80512">
        <ele>489.6</ele>
        <time>2017-03-26T08:37:29.999Z</time>
      </trkpt>
      <trkpt lat="47.42606" lon="6.80507">
        <ele>489.9</ele>
        <time>2017-03-26T08:37:32.999Z</time>
      </trkpt>
      <trkpt lat="47.42606" lon="6.80503">
        <ele>490</ele>
        <time>2017-03-26T08:37:33.999Z</time>
      </trkpt>
      <trkpt lat="47.42606" lon="6.80499">
        <ele>490.1</ele>
        <time>2017-03-26T08:37:34.999Z</time>
      </trkpt>
      <trkpt lat="47.42605" lon="6.80495">
        <ele>490.2</ele>
        <time>2017-03-26T08:37:35.999Z</time>
      </trkpt>
      <trkpt lat="47.42603" lon="6.80491">
        <ele>490.2</ele>
        <time>2017-03-26T08:37:36.999Z</time>
      </trkpt>
      <trkpt lat="47.42602" lon="6.80489">
        <ele>490.2</ele>
        <time>2017-03-26T08:37:37.999Z</time>
      </trkpt>
      <trkpt lat="47.42601" lon="6.80484">
        <ele>489.9</ele>
        <time>2017-03-26T08:37:39.999Z</time>
      </trkpt>
      <trkpt lat="47.42603" lon="6.80478">
        <ele>489.8</ele>
        <time>2017-03-26T08:37:40.999Z</time>
      </trkpt>
      <trkpt lat="47.42604" lon="6.80474">
        <ele>489.7</ele>
        <time>2017-03-26T08:37:42.999Z</time>
      </trkpt>
      <trkpt lat="47.42603" lon="6.8047">
        <ele>489.6</ele>
        <time>2017-03-26T08:37:43.999Z</time>
      </trkpt>
      <trkpt lat="47.42602" lon="6.80464">
        <ele>489.5</ele>
        <time>2017-03-26T08:37:44.999Z</time>
      </trkpt>
      <trkpt lat="47.42602" lon="6.80462">
        <ele>489.4</ele>
        <time>2017-03-26T08:37:45.999Z</time>
      </trkpt>
      <trkpt lat="47.42601" lon="6.80457">
        <ele>489.5</ele>
        <time>2017-03-26T08:37:49.999Z</time>
      </trkpt>
      <trkpt lat="47.42601" lon="6.80455">
        <ele>489.5</ele>
        <time>2017-03-26T08:37:50.999Z</time>
      </trkpt>
      <trkpt lat="47.42602" lon="6.8045">
        <ele>490.2</ele>
        <time>2017-03-26T08:37:54.999Z</time>
      </trkpt>
      <trkpt lat="47.42601" lon="6.80448">
        <ele>490.5</ele>
        <time>2017-03-26T08:37:55.999Z</time>
      </trkpt>
      <trkpt lat="47.426" lon="6.80444">
        <ele>490.9</ele>
        <time>2017-03-26T08:37:58.999Z</time>
      </trkpt>
      <trkpt lat="47.42598" lon="6.80442">
        <ele>491</ele>
        <time>2017-03-26T08:37:59.999Z</time>
      </trkpt>
      <trkpt lat="47.42596" lon="6.80437">
        <ele>491.7</ele>
        <time>2017-03-26T08:38:02.999Z</time>
      </trkpt>
      <trkpt lat="47.42595" lon="6.80434">
        <ele>492</ele>
        <time>2017-03-26T08:38:03.999Z</time>
      </trkpt>
      <trkpt lat="47.42594" lon="6.80428">
        <ele>492.5</ele>
        <time>2017-03-26T08:38:05.999Z</time>
      </trkpt>
      <trkpt lat="47.42593" lon="6.80425">
        <ele>492.9</ele>
        <time>2017-03-26T08:38:06.999Z</time>
      </trkpt>
      <trkpt lat="47.42592" lon="6.80421">
        <ele>493.2</ele>
        <time>2017-03-26T08:38:07.999Z</time>
      </trkpt>
      <trkpt lat="47.42591" lon="6.80418">
        <ele>493.5</ele>
        <time>2017-03-26T08:38:08.999Z</time>
      </trkpt>
      <trkpt lat="47.42591" lon="6.80414">
        <ele>494.3</ele>
        <time>2017-03-26T08:38:12.999Z</time>
      </trkpt>
      <trkpt lat="47.4259" lon="6.8041">
        <ele>494.4</ele>
        <time>2017-03-26T08:38:13.999Z</time>
      </trkpt>
      <trkpt lat="47.42589" lon="6.80407">
        <ele>494.5</ele>
        <time>2017-03-26T08:38:14.999Z</time>
      </trkpt>
      <trkpt lat="47.42588" lon="6.80403">
        <ele>494.5</ele>
        <time>2017-03-26T08:38:15.999Z</time>
      </trkpt>
      <trkpt lat="47.42587" lon="6.80398">
        <ele>495.3</ele>
        <time>2017-03-26T08:38:18.999Z</time>
      </trkpt>
      <trkpt lat="47.42588" lon="6.80396">
        <ele>495.6</ele>
        <time>2017-03-26T08:38:19.999Z</time>
      </trkpt>
      <trkpt lat="47.42587" lon="6.80389">
        <ele>495.9</ele>
        <time>2017-03-26T08:38:20.999Z</time>
      </trkpt>
      <trkpt lat="47.42585" lon="6.80383">
        <ele>496.2</ele>
        <time>2017-03-26T08:38:21.999Z</time>
      </trkpt>
      <trkpt lat="47.42584" lon="6.8038">
        <ele>496.5</ele>
        <time>2017-03-26T08:38:22.999Z</time>
      </trkpt>
      <trkpt lat="47.42583" lon="6.80377">
        <ele>496.8</ele>
        <time>2017-03-26T08:38:23.999Z</time>
      </trkpt>
      <trkpt lat="47.42582" lon="6.80373">
        <ele>497.2</ele>
        <time>2017-03-26T08:38:24.999Z</time>
      </trkpt>
      <trkpt lat="47.4258" lon="6.80368">
        <ele>498.1</ele>
        <time>2017-03-26T08:38:26.999Z</time>
      </trkpt>
      <trkpt lat="47.42579" lon="6.80366">
        <ele>498.6</ele>
        <time>2017-03-26T08:38:27.999Z</time>
      </trkpt>
      <trkpt lat="47.42578" lon="6.80361">
        <ele>499.4</ele>
        <time>2017-03-26T08:38:29.999Z</time>
      </trkpt>
      <trkpt lat="47.42578" lon="6.8036">
        <ele>499.8</ele>
        <time>2017-03-26T08:38:30.999Z</time>
      </trkpt>
      <trkpt lat="47.42576" lon="6.80354">
        <ele>500.3</ele>
        <time>2017-03-26T08:38:32.999Z</time>
      </trkpt>
      <trkpt lat="47.42575" lon="6.80352">
        <ele>500.7</ele>
        <time>2017-03-26T08:38:33.999Z</time>
      </trkpt>
      <trkpt lat="47.42576" lon="6.80349">
        <ele>501.2</ele>
        <time>2017-03-26T08:38:34.999Z</time>
      </trkpt>
      <trkpt lat="47.42575" lon="6.80345">
        <ele>501.5</ele>
        <time>2017-03-26T08:38:35.999Z</time>
      </trkpt>
      <trkpt lat="47.42574" lon="6.80341">
        <ele>501.9</ele>
        <time>2017-03-26T08:38:36.999Z</time>
      </trkpt>
      <trkpt lat="47.42572" lon="6.80338">
        <ele>502.2</ele>
        <time>2017-03-26T08:38:37.999Z</time>
      </trkpt>
      <trkpt lat="47.42571" lon="6.80333">
        <ele>502.9</ele>
        <time>2017-03-26T08:38:40.999Z</time>
      </trkpt>
      <trkpt lat="47.4257" lon="6.80331">
        <ele>503.3</ele>
        <time>2017-03-26T08:38:41.999Z</time>
      </trkpt>
      <trkpt lat="47.42569" lon="6.80325">
        <ele>503.9</ele>
        <time>2017-03-26T08:38:43.999Z</time>
      </trkpt>
      <trkpt lat="47.42569" lon="6.80322">
        <ele>504.3</ele>
        <time>2017-03-26T08:38:44.999Z</time>
      </trkpt>
      <trkpt lat="47.42568" lon="6.80318">
        <ele>505.6</ele>
        <time>2017-03-26T08:38:48.999Z</time>
      </trkpt>
      <trkpt lat="47.42568" lon="6.80315">
        <ele>506</ele>
        <time>2017-03-26T08:38:49.999Z</time>
      </trkpt>
      <trkpt lat="47.42567" lon="6.8031">
        <ele>506.7</ele>
        <time>2017-03-26T08:38:51.999Z</time>
      </trkpt>
      <trkpt lat="47.42567" lon="6.80308">
        <ele>507</ele>
        <time>2017-03-26T08:38:52.999Z</time>
      </trkpt>
      <trkpt lat="47.42565" lon="6.80304">
        <ele>507.9</ele>
        <time>2017-03-26T08:38:55.999Z</time>
      </trkpt>
      <trkpt lat="47.42563" lon="6.80302">
        <ele>508.2</ele>
        <time>2017-03-26T08:38:56.999Z</time>
      </trkpt>
      <trkpt lat="47.42563" lon="6.803">
        <ele>508.4</ele>
        <time>2017-03-26T08:38:57.999Z</time>
      </trkpt>
      <trkpt lat="47.42565" lon="6.80295">
        <ele>508.6</ele>
        <time>2017-03-26T08:38:58.999Z</time>
      </trkpt>
      <trkpt lat="47.42564" lon="6.8029">
        <ele>508.8</ele>
        <time>2017-03-26T08:38:59.999Z</time>
      </trkpt>
      <trkpt lat="47.42563" lon="6.80284">
        <ele>509</ele>
        <time>2017-03-26T08:39:00.999Z</time>
      </trkpt>
      <trkpt lat="47.42561" lon="6.80281">
        <ele>509.8</ele>
        <time>2017-03-26T08:39:02.999Z</time>
      </trkpt>
      <trkpt lat="47.42561" lon="6.80278">
        <ele>510.1</ele>
        <time>2017-03-26T08:39:03.999Z</time>
      </trkpt>
      <trkpt lat="47.42561" lon="6.80272">
        <ele>510.7</ele>
        <time>2017-03-26T08:39:05.999Z</time>
      </trkpt>
      <trkpt lat="47.42561" lon="6.80269">
        <ele>511.1</ele>
        <time>2017-03-26T08:39:06.999Z</time>
      </trkpt>
      <trkpt lat="47.42562" lon="6.80265">
        <ele>511.5</ele>
        <time>2017-03-26T08:39:07.999Z</time>
      </trkpt>
      <trkpt lat="47.42563" lon="6.80262">
        <ele>511.9</ele>
        <time>2017-03-26T08:39:08.999Z</time>
      </trkpt>
      <trkpt lat="47.42564" lon="6.80256">
        <ele>512.7</ele>
        <time>2017-03-26T08:39:10.999Z</time>
      </trkpt>
      <trkpt lat="47.42567" lon="6.80249">
        <ele>513.1</ele>
        <time>2017-03-26T08:39:11.999Z</time>
      </trkpt>
      <trkpt lat="47.42571" lon="6.80247">
        <ele>515.2</ele>
        <time>2017-03-26T08:39:18.999Z</time>
      </trkpt>
      <trkpt lat="47.42571" lon="6.80248">
        <ele>515.5</ele>
        <time>2017-03-26T08:39:19.999Z</time>
      </trkpt>
      <trkpt lat="47.42574" lon="6.80247">
        <ele>515.6</ele>
        <time>2017-03-26T08:39:20.999Z</time>
      </trkpt>
      <trkpt lat="47.42576" lon="6.80247">
        <ele>515.7</ele>
        <time>2017-03-26T08:39:21.999Z</time>
      </trkpt>
      <trkpt lat="47.42578" lon="6.80249">
        <ele>515.7</ele>
        <time>2017-03-26T08:39:23.999Z</time>
      </trkpt>
      <trkpt lat="47.4258" lon="6.80251">
        <ele>515.7</ele>
        <time>2017-03-26T08:39:24.999Z</time>
      </trkpt>
      <trkpt lat="47.42584" lon="6.80254">
        <ele>515.4</ele>
        <time>2017-03-26T08:39:26.999Z</time>
      </trkpt>
      <trkpt lat="47.42586" lon="6.80255">
        <ele>515.3</ele>
        <time>2017-03-26T08:39:27.999Z</time>
      </trkpt>
      <trkpt lat="47.4259" lon="6.80258">
        <ele>515</ele>
        <time>2017-03-26T08:39:30.999Z</time>
      </trkpt>
      <trkpt lat="47.42593" lon="6.80259">
        <ele>514.8</ele>
        <time>2017-03-26T08:39:31.999Z</time>
      </trkpt>
      <trkpt lat="47.42595" lon="6.8026">
        <ele>514.7</ele>
        <time>2017-03-26T08:39:32.999Z</time>
      </trkpt>
      <trkpt lat="47.42597" lon="6.8026">
        <ele>514.7</ele>
        <time>2017-03-26T08:39:33.999Z</time>
      </trkpt>
      <trkpt lat="47.426" lon="6.80261">
        <ele>514.7</ele>
        <time>2017-03-26T08:39:34.999Z</time>
      </trkpt>
      <trkpt lat="47.42603" lon="6.80261">
        <ele>514.6</ele>
        <time>2017-03-26T08:39:35.999Z</time>
      </trkpt>
      <trkpt lat="47.42605" lon="6.80261">
        <ele>514.6</ele>
        <time>2017-03-26T08:39:36.999Z</time>
      </trkpt>
      <trkpt lat="47.42607" lon="6.80261">
        <ele>514.5</ele>
        <time>2017-03-26T08:39:37.999Z</time>
      </trkpt>
      <trkpt lat="47.42611" lon="6.80264">
        <ele>514.2</ele>
        <time>2017-03-26T08:39:38.999Z</time>
      </trkpt>
      <trkpt lat="47.42613" lon="6.80265">
        <ele>514.1</ele>
        <time>2017-03-26T08:39:39.999Z</time>
      </trkpt>
      <trkpt lat="47.42617" lon="6.80266">
        <ele>513.5</ele>
        <time>2017-03-26T08:39:42.999Z</time>
      </trkpt>
      <trkpt lat="47.42619" lon="6.80266">
        <ele>513.2</ele>
        <time>2017-03-26T08:39:43.999Z</time>
      </trkpt>
      <trkpt lat="47.42623" lon="6.80268">
        <ele>512.8</ele>
        <time>2017-03-26T08:39:45.999Z</time>
      </trkpt>
      <trkpt lat="47.42625" lon="6.80268">
        <ele>512.7</ele>
        <time>2017-03-26T08:39:46.999Z</time>
      </trkpt>
      <trkpt lat="47.42628" lon="6.80269">
        <ele>512.7</ele>
        <time>2017-03-26T08:39:47.999Z</time>
      </trkpt>
      <trkpt lat="47.42631" lon="6.8027">
        <ele>512.5</ele>
        <time>2017-03-26T08:39:48.999Z</time>
      </trkpt>
      <trkpt lat="47.42634" lon="6.80272">
        <ele>512.4</ele>
        <time>2017-03-26T08:39:49.999Z</time>
      </trkpt>
      <trkpt lat="47.42637" lon="6.80274">
        <ele>512.1</ele>
        <time>2017-03-26T08:39:50.999Z</time>
      </trkpt>
      <trkpt lat="47.4264" lon="6.80276">
        <ele>511.8</ele>
        <time>2017-03-26T08:39:51.999Z</time>
      </trkpt>
      <trkpt lat="47.42644" lon="6.80278">
        <ele>511.7</ele>
        <time>2017-03-26T08:39:52.999Z</time>
      </trkpt>
      <trkpt lat="47.42647" lon="6.8028">
        <ele>511.6</ele>
        <time>2017-03-26T08:39:53.999Z</time>
      </trkpt>
      <trkpt lat="47.42649" lon="6.80281">
        <ele>511.5</ele>
        <time>2017-03-26T08:39:54.999Z</time>
      </trkpt>
      <trkpt lat="47.42653" lon="6.8028">
        <ele>511.3</ele>
        <time>2017-03-26T08:39:57.999Z</time>
      </trkpt>
      <trkpt lat="47.42655" lon="6.80282">
        <ele>511.4</ele>
        <time>2017-03-26T08:39:58.999Z</time>
      </trkpt>
      <trkpt lat="47.4266" lon="6.80283">
        <ele>511.5</ele>
        <time>2017-03-26T08:39:59.999Z</time>
      </trkpt>
      <trkpt lat="47.42664" lon="6.80285">
        <ele>511.5</ele>
        <time>2017-03-26T08:40:00.999Z</time>
      </trkpt>
      <trkpt lat="47.42667" lon="6.80286">
        <ele>511.7</ele>
        <time>2017-03-26T08:40:01.999Z</time>
      </trkpt>
      <trkpt lat="47.42669" lon="6.80287">
        <ele>511.8</ele>
        <time>2017-03-26T08:40:02.999Z</time>
      </trkpt>
      <trkpt lat="47.42672" lon="6.80288">
        <ele>511.8</ele>
        <time>2017-03-26T08:40:03.999Z</time>
      </trkpt>
      <trkpt lat="47.42675" lon="6.80289">
        <ele>511.8</ele>
        <time>2017-03-26T08:40:04.999Z</time>
      </trkpt>
      <trkpt lat="47.42678" lon="6.80289">
        <ele>511.8</ele>
        <time>2017-03-26T08:40:05.999Z</time>
      </trkpt>
      <trkpt lat="47.42681" lon="6.8029">
        <ele>511.8</ele>
        <time>2017-03-26T08:40:06.999Z</time>
      </trkpt>
      <trkpt lat="47.42684" lon="6.8029">
        <ele>511.8</ele>
        <time>2017-03-26T08:40:07.999Z</time>
      </trkpt>
      <trkpt lat="47.42687" lon="6.80289">
        <ele>511.8</ele>
        <time>2017-03-26T08:40:08.999Z</time>
      </trkpt>
      <trkpt lat="47.42691" lon="6.80288">
        <ele>512</ele>
        <time>2017-03-26T08:40:10.999Z</time>
      </trkpt>
      <trkpt lat="47.42693" lon="6.80286">
        <ele>512.2</ele>
        <time>2017-03-26T08:40:11.999Z</time>
      </trkpt>
      <trkpt lat="47.42697" lon="6.80283">
        <ele>512.5</ele>
        <time>2017-03-26T08:40:13.999Z</time>
      </trkpt>
      <trkpt lat="47.42699" lon="6.80282">
        <ele>512.5</ele>
        <time>2017-03-26T08:40:14.999Z</time>
      </trkpt>
      <trkpt lat="47.42701" lon="6.80281">
        <ele>512.6</ele>
        <time>2017-03-26T08:40:15.999Z</time>
      </trkpt>
      <trkpt lat="47.42704" lon="6.8028">
        <ele>512.6</ele>
        <time>2017-03-26T08:40:16.999Z</time>
      </trkpt>
      <trkpt lat="47.42706" lon="6.80279">
        <ele>512.6</ele>
        <time>2017-03-26T08:40:17.999Z</time>
      </trkpt>
      <trkpt lat="47.42708" lon="6.80278">
        <ele>512.7</ele>
        <time>2017-03-26T08:40:18.999Z</time>
      </trkpt>
      <trkpt lat="47.42711" lon="6.80276">
        <ele>512.8</ele>
        <time>2017-03-26T08:40:19.999Z</time>
      </trkpt>
      <trkpt lat="47.42712" lon="6.80274">
        <ele>512.9</ele>
        <time>2017-03-26T08:40:20.999Z</time>
      </trkpt>
      <trkpt lat="47.42715" lon="6.80271">
        <ele>513.1</ele>
        <time>2017-03-26T08:40:22.999Z</time>
      </trkpt>
      <trkpt lat="47.42716" lon="6.80269">
        <ele>513.2</ele>
        <time>2017-03-26T08:40:23.999Z</time>
      </trkpt>
      <trkpt lat="47.42719" lon="6.80267">
        <ele>513.5</ele>
        <time>2017-03-26T08:40:25.999Z</time>
      </trkpt>
      <trkpt lat="47.42721" lon="6.80265">
        <ele>513.5</ele>
        <time>2017-03-26T08:40:26.999Z</time>
      </trkpt>
      <trkpt lat="47.42723" lon="6.80263">
        <ele>513.6</ele>
        <time>2017-03-26T08:40:27.999Z</time>
      </trkpt>
      <trkpt lat="47.42725" lon="6.80261">
        <ele>513.8</ele>
        <time>2017-03-26T08:40:28.999Z</time>
      </trkpt>
      <trkpt lat="47.42729" lon="6.80258">
        <ele>513.9</ele>
        <time>2017-03-26T08:40:29.999Z</time>
      </trkpt>
      <trkpt lat="47.42732" lon="6.80254">
        <ele>514.1</ele>
        <time>2017-03-26T08:40:30.999Z</time>
      </trkpt>
      <trkpt lat="47.42735" lon="6.80251">
        <ele>514.3</ele>
        <time>2017-03-26T08:40:31.999Z</time>
      </trkpt>
      <trkpt lat="47.42739" lon="6.80246">
        <ele>514.4</ele>
        <time>2017-03-26T08:40:32.999Z</time>
      </trkpt>
      <trkpt lat="47.42741" lon="6.8024">
        <ele>514.6</ele>
        <time>2017-03-26T08:40:33.999Z</time>
      </trkpt>
      <trkpt lat="47.42744" lon="6.80234">
        <ele>514.7</ele>
        <time>2017-03-26T08:40:34.999Z</time>
      </trkpt>
      <trkpt lat="47.42746" lon="6.80228">
        <ele>514.8</ele>
        <time>2017-03-26T08:40:35.999Z</time>
      </trkpt>
      <trkpt lat="47.42747" lon="6.8022">
        <ele>514.9</ele>
        <time>2017-03-26T08:40:36.999Z</time>
      </trkpt>
      <trkpt lat="47.42749" lon="6.80214">
        <ele>515.2</ele>
        <time>2017-03-26T08:40:37.999Z</time>
      </trkpt>
      <trkpt lat="47.42751" lon="6.80207">
        <ele>515.5</ele>
        <time>2017-03-26T08:40:38.999Z</time>
      </trkpt>
      <trkpt lat="47.42753" lon="6.80201">
        <ele>515.8</ele>
        <time>2017-03-26T08:40:39.999Z</time>
      </trkpt>
      <trkpt lat="47.42753" lon="6.80195">
        <ele>516.2</ele>
        <time>2017-03-26T08:40:40.999Z</time>
      </trkpt>
      <trkpt lat="47.42754" lon="6.80189">
        <ele>516.6</ele>
        <time>2017-03-26T08:40:41.999Z</time>
      </trkpt>
      <trkpt lat="47.42755" lon="6.80183">
        <ele>517</ele>
        <time>2017-03-26T08:40:42.999Z</time>
      </trkpt>
      <trkpt lat="47.42756" lon="6.80177">
        <ele>517.3</ele>
        <time>2017-03-26T08:40:43.999Z</time>
      </trkpt>
      <trkpt lat="47.42757" lon="6.80171">
        <ele>517.6</ele>
        <time>2017-03-26T08:40:44.999Z</time>
      </trkpt>
      <trkpt lat="47.42757" lon="6.80165">
        <ele>518</ele>
        <time>2017-03-26T08:40:45.999Z</time>
      </trkpt>
      <trkpt lat="47.42759" lon="6.80151">
        <ele>518.4</ele>
        <time>2017-03-26T08:40:46.999Z</time>
      </trkpt>
      <trkpt lat="47.4276" lon="6.80141">
        <ele>518.8</ele>
        <time>2017-03-26T08:40:47.999Z</time>
      </trkpt>
      <trkpt lat="47.4276" lon="6.80136">
        <ele>519.2</ele>
        <time>2017-03-26T08:40:48.999Z</time>
      </trkpt>
      <trkpt lat="47.42761" lon="6.80131">
        <ele>519.7</ele>
        <time>2017-03-26T08:40:49.999Z</time>
      </trkpt>
      <trkpt lat="47.42761" lon="6.80126">
        <ele>520.1</ele>
        <time>2017-03-26T08:40:50.999Z</time>
      </trkpt>
      <trkpt lat="47.42762" lon="6.8012">
        <ele>520.5</ele>
        <time>2017-03-26T08:40:51.999Z</time>
      </trkpt>
      <trkpt lat="47.42762" lon="6.80115">
        <ele>520.9</ele>
        <time>2017-03-26T08:40:52.999Z</time>
      </trkpt>
      <trkpt lat="47.42762" lon="6.80111">
        <ele>521.3</ele>
        <time>2017-03-26T08:40:53.999Z</time>
      </trkpt>
      <trkpt lat="47.42762" lon="6.80108">
        <ele>521.7</ele>
        <time>2017-03-26T08:40:54.999Z</time>
      </trkpt>
      <trkpt lat="47.42762" lon="6.80103">
        <ele>522</ele>
        <time>2017-03-26T08:40:55.999Z</time>
      </trkpt>
      <trkpt lat="47.42763" lon="6.801">
        <ele>522.3</ele>
        <time>2017-03-26T08:40:56.999Z</time>
      </trkpt>
      <trkpt lat="47.42763" lon="6.80096">
        <ele>522.6</ele>
        <time>2017-03-26T08:40:57.999Z</time>
      </trkpt>
      <trkpt lat="47.42764" lon="6.80091">
        <ele>522.8</ele>
        <time>2017-03-26T08:40:58.999Z</time>
      </trkpt>
      <trkpt lat="47.42765" lon="6.80086">
        <ele>523.1</ele>
        <time>2017-03-26T08:40:59.999Z</time>
      </trkpt>
      <trkpt lat="47.42765" lon="6.8008">
        <ele>523.4</ele>
        <time>2017-03-26T08:41:01.999Z</time>
      </trkpt>
      <trkpt lat="47.42766" lon="6.80076">
        <ele>523.6</ele>
        <time>2017-03-26T08:41:02.999Z</time>
      </trkpt>
      <trkpt lat="47.42766" lon="6.80071">
        <ele>523.8</ele>
        <time>2017-03-26T08:41:03.999Z</time>
      </trkpt>
      <trkpt lat="47.42766" lon="6.80065">
        <ele>523.9</ele>
        <time>2017-03-26T08:41:04.999Z</time>
      </trkpt>
      <trkpt lat="47.42767" lon="6.80061">
        <ele>524</ele>
        <time>2017-03-26T08:41:05.999Z</time>
      </trkpt>
      <trkpt lat="47.42767" lon="6.80056">
        <ele>524.1</ele>
        <time>2017-03-26T08:41:06.999Z</time>
      </trkpt>
      <trkpt lat="47.42767" lon="6.80049">
        <ele>524.3</ele>
        <time>2017-03-26T08:41:07.999Z</time>
      </trkpt>
      <trkpt lat="47.42768" lon="6.80044">
        <ele>524.4</ele>
        <time>2017-03-26T08:41:08.999Z</time>
      </trkpt>
      <trkpt lat="47.42768" lon="6.80039">
        <ele>524.6</ele>
        <time>2017-03-26T08:41:09.999Z</time>
      </trkpt>
      <trkpt lat="47.42769" lon="6.80035">
        <ele>524.7</ele>
        <time>2017-03-26T08:41:10.999Z</time>
      </trkpt>
      <trkpt lat="47.42769" lon="6.80031">
        <ele>524.8</ele>
        <time>2017-03-26T08:41:11.999Z</time>
      </trkpt>
      <trkpt lat="47.4277" lon="6.80026">
        <ele>524.9</ele>
        <time>2017-03-26T08:41:12.999Z</time>
      </trkpt>
      <trkpt lat="47.4277" lon="6.80021">
        <ele>525</ele>
        <time>2017-03-26T08:41:13.999Z</time>
      </trkpt>
      <trkpt lat="47.42771" lon="6.80017">
        <ele>525</ele>
        <time>2017-03-26T08:41:14.999Z</time>
      </trkpt>
      <trkpt lat="47.42771" lon="6.80011">
        <ele>525</ele>
        <time>2017-03-26T08:41:15.999Z</time>
      </trkpt>
      <trkpt lat="47.42771" lon="6.80004">
        <ele>525</ele>
        <time>2017-03-26T08:41:16.999Z</time>
      </trkpt>
      <trkpt lat="47.42771" lon="6.79997">
        <ele>525.1</ele>
        <time>2017-03-26T08:41:17.999Z</time>
      </trkpt>
      <trkpt lat="47.42772" lon="6.79991">
        <ele>525.1</ele>
        <time>2017-03-26T08:41:18.999Z</time>
      </trkpt>
      <trkpt lat="47.42772" lon="6.79986">
        <ele>525.1</ele>
        <time>2017-03-26T08:41:19.999Z</time>
      </trkpt>
      <trkpt lat="47.42772" lon="6.79983">
        <ele>525.1</ele>
        <time>2017-03-26T08:41:20.999Z</time>
      </trkpt>
      <trkpt lat="47.42772" lon="6.79979">
        <ele>525.2</ele>
        <time>2017-03-26T08:41:21.999Z</time>
      </trkpt>
      <trkpt lat="47.42771" lon="6.79974">
        <ele>525.3</ele>
        <time>2017-03-26T08:41:22.999Z</time>
      </trkpt>
      <trkpt lat="47.42772" lon="6.79969">
        <ele>525.5</ele>
        <time>2017-03-26T08:41:23.999Z</time>
      </trkpt>
      <trkpt lat="47.42773" lon="6.79963">
        <ele>525.5</ele>
        <time>2017-03-26T08:41:24.999Z</time>
      </trkpt>
      <trkpt lat="47.42771" lon="6.79958">
        <ele>525.6</ele>
        <time>2017-03-26T08:41:25.999Z</time>
      </trkpt>
      <trkpt lat="47.4277" lon="6.79953">
        <ele>525.7</ele>
        <time>2017-03-26T08:41:26.999Z</time>
      </trkpt>
      <trkpt lat="47.4277" lon="6.79949">
        <ele>525.9</ele>
        <time>2017-03-26T08:41:27.999Z</time>
      </trkpt>
      <trkpt lat="47.4277" lon="6.79945">
        <ele>526</ele>
        <time>2017-03-26T08:41:28.999Z</time>
      </trkpt>
      <trkpt lat="47.4277" lon="6.7994">
        <ele>526.1</ele>
        <time>2017-03-26T08:41:29.999Z</time>
      </trkpt>
      <trkpt lat="47.42772" lon="6.79935">
        <ele>526.1</ele>
        <time>2017-03-26T08:41:30.999Z</time>
      </trkpt>
      <trkpt lat="47.42772" lon="6.79931">
        <ele>526.2</ele>
        <time>2017-03-26T08:41:31.999Z</time>
      </trkpt>
      <trkpt lat="47.42773" lon="6.79927">
        <ele>526.2</ele>
        <time>2017-03-26T08:41:32.999Z</time>
      </trkpt>
      <trkpt lat="47.42772" lon="6.79921">
        <ele>526.3</ele>
        <time>2017-03-26T08:41:33.999Z</time>
      </trkpt>
      <trkpt lat="47.42773" lon="6.79915">
        <ele>526.4</ele>
        <time>2017-03-26T08:41:34.999Z</time>
      </trkpt>
      <trkpt lat="47.42772" lon="6.79908">
        <ele>526.4</ele>
        <time>2017-03-26T08:41:35.999Z</time>
      </trkpt>
      <trkpt lat="47.42773" lon="6.79902">
        <ele>526.4</ele>
        <time>2017-03-26T08:41:36.999Z</time>
      </trkpt>
      <trkpt lat="47.42774" lon="6.79898">
        <ele>526.4</ele>
        <time>2017-03-26T08:41:37.999Z</time>
      </trkpt>
      <trkpt lat="47.42775" lon="6.79894">
        <ele>526.4</ele>
        <time>2017-03-26T08:41:38.999Z</time>
      </trkpt>
      <trkpt lat="47.42775" lon="6.79889">
        <ele>526.3</ele>
        <time>2017-03-26T08:41:39.999Z</time>
      </trkpt>
      <trkpt lat="47.42776" lon="6.79884">
        <ele>526.2</ele>
        <time>2017-03-26T08:41:40.999Z</time>
      </trkpt>
      <trkpt lat="47.42777" lon="6.79878">
        <ele>525.1</ele>
        <time>2017-03-26T08:41:41.999Z</time>
      </trkpt>
      <trkpt lat="47.42778" lon="6.79874">
        <ele>524.9</ele>
        <time>2017-03-26T08:41:42.999Z</time>
      </trkpt>
      <trkpt lat="47.42779" lon="6.79869">
        <ele>524.9</ele>
        <time>2017-03-26T08:41:43.999Z</time>
      </trkpt>
      <trkpt lat="47.4278" lon="6.79863">
        <ele>524.8</ele>
        <time>2017-03-26T08:41:44.999Z</time>
      </trkpt>
      <trkpt lat="47.4278" lon="6.79858">
        <ele>524.7</ele>
        <time>2017-03-26T08:41:45.999Z</time>
      </trkpt>
      <trkpt lat="47.42782" lon="6.79854">
        <ele>524.7</ele>
        <time>2017-03-26T08:41:46.999Z</time>
      </trkpt>
      <trkpt lat="47.42784" lon="6.7985">
        <ele>524.7</ele>
        <time>2017-03-26T08:41:47.999Z</time>
      </trkpt>
      <trkpt lat="47.42786" lon="6.79846">
        <ele>524.6</ele>
        <time>2017-03-26T08:41:48.999Z</time>
      </trkpt>
      <trkpt lat="47.42788" lon="6.79842">
        <ele>524.7</ele>
        <time>2017-03-26T08:41:49.999Z</time>
      </trkpt>
      <trkpt lat="47.42791" lon="6.79837">
        <ele>524.8</ele>
        <time>2017-03-26T08:41:50.999Z</time>
      </trkpt>
      <trkpt lat="47.42794" lon="6.79834">
        <ele>524.9</ele>
        <time>2017-03-26T08:41:51.999Z</time>
      </trkpt>
      <trkpt lat="47.42797" lon="6.7983">
        <ele>524.9</ele>
        <time>2017-03-26T08:41:52.999Z</time>
      </trkpt>
      <trkpt lat="47.42799" lon="6.79825">
        <ele>525.1</ele>
        <time>2017-03-26T08:41:53.999Z</time>
      </trkpt>
      <trkpt lat="47.42802" lon="6.79821">
        <ele>525.3</ele>
        <time>2017-03-26T08:41:54.999Z</time>
      </trkpt>
      <trkpt lat="47.42806" lon="6.79818">
        <ele>525.5</ele>
        <time>2017-03-26T08:41:55.999Z</time>
      </trkpt>
      <trkpt lat="47.42809" lon="6.79815">
        <ele>525.8</ele>
        <time>2017-03-26T08:41:56.999Z</time>
      </trkpt>
      <trkpt lat="47.42812" lon="6.79812">
        <ele>526</ele>
        <time>2017-03-26T08:41:57.999Z</time>
      </trkpt>
      <trkpt lat="47.42815" lon="6.79809">
        <ele>526.3</ele>
        <time>2017-03-26T08:41:58.999Z</time>
      </trkpt>
      <trkpt lat="47.42818" lon="6.79806">
        <ele>526.5</ele>
        <time>2017-03-26T08:41:59.999Z</time>
      </trkpt>
      <trkpt lat="47.42821" lon="6.79803">
        <ele>526.8</ele>
        <time>2017-03-26T08:42:00.999Z</time>
      </trkpt>
      <trkpt lat="47.42824" lon="6.798">
        <ele>527</ele>
        <time>2017-03-26T08:42:01.999Z</time>
      </trkpt>
      <trkpt lat="47.42827" lon="6.79797">
        <ele>527.2</ele>
        <time>2017-03-26T08:42:02.999Z</time>
      </trkpt>
      <trkpt lat="47.42831" lon="6.79796">
        <ele>527.5</ele>
        <time>2017-03-26T08:42:03.999Z</time>
      </trkpt>
      <trkpt lat="47.42834" lon="6.79793">
        <ele>527.7</ele>
        <time>2017-03-26T08:42:04.999Z</time>
      </trkpt>
      <trkpt lat="47.42837" lon="6.7979">
        <ele>527.9</ele>
        <time>2017-03-26T08:42:05.999Z</time>
      </trkpt>
      <trkpt lat="47.42839" lon="6.79788">
        <ele>528.1</ele>
        <time>2017-03-26T08:42:06.999Z</time>
      </trkpt>
      <trkpt lat="47.42841" lon="6.79786">
        <ele>528.3</ele>
        <time>2017-03-26T08:42:07.999Z</time>
      </trkpt>
      <trkpt lat="47.42844" lon="6.79785">
        <ele>528.7</ele>
        <time>2017-03-26T08:42:11.999Z</time>
      </trkpt>
      <trkpt lat="47.42846" lon="6.79785">
        <ele>528.8</ele>
        <time>2017-03-26T08:42:12.999Z</time>
      </trkpt>
      <trkpt lat="47.42846" lon="6.7979">
        <ele>528.9</ele>
        <time>2017-03-26T08:42:25.999Z</time>
      </trkpt>
      <trkpt lat="47.42846" lon="6.79792">
        <ele>528.9</ele>
        <time>2017-03-26T08:42:26.999Z</time>
      </trkpt>
      <trkpt lat="47.42844" lon="6.79786">
        <ele>529.9</ele>
        <time>2017-03-26T08:42:35.999Z</time>
      </trkpt>
      <trkpt lat="47.42843" lon="6.79786">
        <ele>530</ele>
        <time>2017-03-26T08:42:36.999Z</time>
      </trkpt>
      <trkpt lat="47.42839" lon="6.79789">
        <ele>530.1</ele>
        <time>2017-03-26T08:42:39.999Z</time>
      </trkpt>
      <trkpt lat="47.42837" lon="6.7979">
        <ele>530.1</ele>
        <time>2017-03-26T08:42:40.999Z</time>
      </trkpt>
      <trkpt lat="47.42835" lon="6.79795">
        <ele>530.1</ele>
        <time>2017-03-26T08:42:42.999Z</time>
      </trkpt>
      <trkpt lat="47.42835" lon="6.79797">
        <ele>530</ele>
        <time>2017-03-26T08:42:43.999Z</time>
      </trkpt>
      <trkpt lat="47.42839" lon="6.79794">
        <ele>530</ele>
        <time>2017-03-26T08:42:46.999Z</time>
      </trkpt>
      <trkpt lat="47.42839" lon="6.79793">
        <ele>530.1</ele>
        <time>2017-03-26T08:42:47.999Z</time>
      </trkpt>
      <trkpt lat="47.42839" lon="6.79786">
        <ele>530.5</ele>
        <time>2017-03-26T08:42:50.999Z</time>
      </trkpt>
      <trkpt lat="47.42838" lon="6.79786">
        <ele>530.5</ele>
        <time>2017-03-26T08:42:51.999Z</time>
      </trkpt>
      <trkpt lat="47.42838" lon="6.79792">
        <ele>530.3</ele>
        <time>2017-03-26T08:42:59.999Z</time>
      </trkpt>
      <trkpt lat="47.42839" lon="6.79795">
        <ele>530.3</ele>
        <time>2017-03-26T08:43:00.999Z</time>
      </trkpt>
      <trkpt lat="47.42842" lon="6.79796">
        <ele>530.2</ele>
        <time>2017-03-26T08:43:02.999Z</time>
      </trkpt>
      <trkpt lat="47.42844" lon="6.79796">
        <ele>530.2</ele>
        <time>2017-03-26T08:43:03.999Z</time>
      </trkpt>
      <trkpt lat="47.42848" lon="6.79798">
        <ele>530.1</ele>
        <time>2017-03-26T08:43:05.999Z</time>
      </trkpt>
      <trkpt lat="47.42849" lon="6.79804">
        <ele>529</ele>
        <time>2017-03-26T08:43:06.999Z</time>
      </trkpt>
      <trkpt lat="47.42851" lon="6.79813">
        <ele>527.2</ele>
        <time>2017-03-26T08:43:07.999Z</time>
      </trkpt>
      <trkpt lat="47.42854" lon="6.79818">
        <ele>525.6</ele>
        <time>2017-03-26T08:43:08.999Z</time>
      </trkpt>
      <trkpt lat="47.42858" lon="6.79824">
        <ele>524.9</ele>
        <time>2017-03-26T08:43:09.999Z</time>
      </trkpt>
      <trkpt lat="47.4286" lon="6.79832">
        <ele>522.9</ele>
        <time>2017-03-26T08:43:10.999Z</time>
      </trkpt>
      <trkpt lat="47.42856" lon="6.79836">
        <ele>521.1</ele>
        <time>2017-03-26T08:43:11.999Z</time>
      </trkpt>
      <trkpt lat="47.42854" lon="6.79839">
        <ele>520.9</ele>
        <time>2017-03-26T08:43:12.999Z</time>
      </trkpt>
      <trkpt lat="47.42856" lon="6.79843">
        <ele>520.7</ele>
        <time>2017-03-26T08:43:13.999Z</time>
      </trkpt>
      <trkpt lat="47.42859" lon="6.79845">
        <ele>520.5</ele>
        <time>2017-03-26T08:43:14.999Z</time>
      </trkpt>
      <trkpt lat="47.42862" lon="6.79846">
        <ele>520.4</ele>
        <time>2017-03-26T08:43:15.999Z</time>
      </trkpt>
      <trkpt lat="47.42865" lon="6.79848">
        <ele>520.2</ele>
        <time>2017-03-26T08:43:16.999Z</time>
      </trkpt>
      <trkpt lat="47.42866" lon="6.7985">
        <ele>520</ele>
        <time>2017-03-26T08:43:17.999Z</time>
      </trkpt>
      <trkpt lat="47.42867" lon="6.79858">
        <ele>519.9</ele>
        <time>2017-03-26T08:43:18.999Z</time>
      </trkpt>
      <trkpt lat="47.42867" lon="6.79867">
        <ele>519.6</ele>
        <time>2017-03-26T08:43:19.999Z</time>
      </trkpt>
      <trkpt lat="47.42867" lon="6.79876">
        <ele>516.7</ele>
        <time>2017-03-26T08:43:20.999Z</time>
      </trkpt>
      <trkpt lat="47.42867" lon="6.79885">
        <ele>514.2</ele>
        <time>2017-03-26T08:43:21.999Z</time>
      </trkpt>
      <trkpt lat="47.42866" lon="6.79893">
        <ele>512.4</ele>
        <time>2017-03-26T08:43:22.999Z</time>
      </trkpt>
      <trkpt lat="47.42864" lon="6.79899">
        <ele>512.3</ele>
        <time>2017-03-26T08:43:23.999Z</time>
      </trkpt>
      <trkpt lat="47.42865" lon="6.79904">
        <ele>512</ele>
        <time>2017-03-26T08:43:24.999Z</time>
      </trkpt>
      <trkpt lat="47.42866" lon="6.79906">
        <ele>511.7</ele>
        <time>2017-03-26T08:43:25.999Z</time>
      </trkpt>
      <trkpt lat="47.42867" lon="6.79908">
        <ele>511.5</ele>
        <time>2017-03-26T08:43:26.999Z</time>
      </trkpt>
      <trkpt lat="47.4287" lon="6.79914">
        <ele>511.5</ele>
        <time>2017-03-26T08:43:27.999Z</time>
      </trkpt>
      <trkpt lat="47.42869" lon="6.79922">
        <ele>511.3</ele>
        <time>2017-03-26T08:43:28.999Z</time>
      </trkpt>
      <trkpt lat="47.4287" lon="6.79928">
        <ele>511.2</ele>
        <time>2017-03-26T08:43:29.999Z</time>
      </trkpt>
      <trkpt lat="47.42872" lon="6.79935">
        <ele>510</ele>
        <time>2017-03-26T08:43:30.999Z</time>
      </trkpt>
      <trkpt lat="47.42873" lon="6.79941">
        <ele>509.8</ele>
        <time>2017-03-26T08:43:31.999Z</time>
      </trkpt>
      <trkpt lat="47.42874" lon="6.79946">
        <ele>509.7</ele>
        <time>2017-03-26T08:43:32.999Z</time>
      </trkpt>
      <trkpt lat="47.42876" lon="6.79952">
        <ele>509.6</ele>
        <time>2017-03-26T08:43:33.999Z</time>
      </trkpt>
      <trkpt lat="47.42879" lon="6.79953">
        <ele>509.8</ele>
        <time>2017-03-26T08:43:35.999Z</time>
      </trkpt>
      <trkpt lat="47.42881" lon="6.79956">
        <ele>509.8</ele>
        <time>2017-03-26T08:43:36.999Z</time>
      </trkpt>
      <trkpt lat="47.42884" lon="6.79968">
        <ele>509.7</ele>
        <time>2017-03-26T08:43:37.999Z</time>
      </trkpt>
      <trkpt lat="47.42883" lon="6.79977">
        <ele>509.6</ele>
        <time>2017-03-26T08:43:38.999Z</time>
      </trkpt>
      <trkpt lat="47.42881" lon="6.79985">
        <ele>509.4</ele>
        <time>2017-03-26T08:43:39.999Z</time>
      </trkpt>
      <trkpt lat="47.4288" lon="6.79992">
        <ele>509.1</ele>
        <time>2017-03-26T08:43:40.999Z</time>
      </trkpt>
      <trkpt lat="47.42876" lon="6.79998">
        <ele>506.1</ele>
        <time>2017-03-26T08:43:41.999Z</time>
      </trkpt>
      <trkpt lat="47.42873" lon="6.80006">
        <ele>503.9</ele>
        <time>2017-03-26T08:43:42.999Z</time>
      </trkpt>
      <trkpt lat="47.42872" lon="6.80012">
        <ele>503.7</ele>
        <time>2017-03-26T08:43:43.999Z</time>
      </trkpt>
      <trkpt lat="47.4287" lon="6.80019">
        <ele>503.6</ele>
        <time>2017-03-26T08:43:44.999Z</time>
      </trkpt>
      <trkpt lat="47.42869" lon="6.80028">
        <ele>503.5</ele>
        <time>2017-03-26T08:43:45.999Z</time>
      </trkpt>
      <trkpt lat="47.42868" lon="6.80036">
        <ele>503.4</ele>
        <time>2017-03-26T08:43:46.999Z</time>
      </trkpt>
      <trkpt lat="47.42867" lon="6.80044">
        <ele>503.5</ele>
        <time>2017-03-26T08:43:47.999Z</time>
      </trkpt>
      <trkpt lat="47.42867" lon="6.8005">
        <ele>503.9</ele>
        <time>2017-03-26T08:43:49.999Z</time>
      </trkpt>
      <trkpt lat="47.42867" lon="6.80053">
        <ele>504</ele>
        <time>2017-03-26T08:43:50.999Z</time>
      </trkpt>
      <trkpt lat="47.42865" lon="6.8007">
        <ele>504.2</ele>
        <time>2017-03-26T08:43:51.999Z</time>
      </trkpt>
      <trkpt lat="47.42863" lon="6.80078">
        <ele>504.3</ele>
        <time>2017-03-26T08:43:52.999Z</time>
      </trkpt>
      <trkpt lat="47.42861" lon="6.80086">
        <ele>504.3</ele>
        <time>2017-03-26T08:43:53.999Z</time>
      </trkpt>
      <trkpt lat="47.42861" lon="6.80092">
        <ele>504.2</ele>
        <time>2017-03-26T08:43:54.999Z</time>
      </trkpt>
      <trkpt lat="47.42862" lon="6.80097">
        <ele>504.1</ele>
        <time>2017-03-26T08:43:55.999Z</time>
      </trkpt>
      <trkpt lat="47.42866" lon="6.801">
        <ele>504.1</ele>
        <time>2017-03-26T08:43:56.999Z</time>
      </trkpt>
      <trkpt lat="47.42868" lon="6.80105">
        <ele>504.1</ele>
        <time>2017-03-26T08:43:57.999Z</time>
      </trkpt>
      <trkpt lat="47.42874" lon="6.80108">
        <ele>504.8</ele>
        <time>2017-03-26T08:43:58.999Z</time>
      </trkpt>
      <trkpt lat="47.42878" lon="6.8011">
        <ele>504.9</ele>
        <time>2017-03-26T08:43:59.999Z</time>
      </trkpt>
      <trkpt lat="47.42883" lon="6.80112">
        <ele>504.9</ele>
        <time>2017-03-26T08:44:00.999Z</time>
      </trkpt>
      <trkpt lat="47.42886" lon="6.80115">
        <ele>504.9</ele>
        <time>2017-03-26T08:44:01.999Z</time>
      </trkpt>
      <trkpt lat="47.42889" lon="6.80118">
        <ele>504.9</ele>
        <time>2017-03-26T08:44:02.999Z</time>
      </trkpt>
      <trkpt lat="47.42889" lon="6.80123">
        <ele>504.8</ele>
        <time>2017-03-26T08:44:03.999Z</time>
      </trkpt>
      <trkpt lat="47.4289" lon="6.80129">
        <ele>504.8</ele>
        <time>2017-03-26T08:44:04.999Z</time>
      </trkpt>
      <trkpt lat="47.42893" lon="6.80133">
        <ele>504.7</ele>
        <time>2017-03-26T08:44:05.999Z</time>
      </trkpt>
      <trkpt lat="47.42898" lon="6.80141">
        <ele>504.7</ele>
        <time>2017-03-26T08:44:06.999Z</time>
      </trkpt>
      <trkpt lat="47.429" lon="6.80153">
        <ele>504.7</ele>
        <time>2017-03-26T08:44:07.999Z</time>
      </trkpt>
      <trkpt lat="47.42902" lon="6.80159">
        <ele>504.7</ele>
        <time>2017-03-26T08:44:08.999Z</time>
      </trkpt>
      <trkpt lat="47.42902" lon="6.80162">
        <ele>504.7</ele>
        <time>2017-03-26T08:44:09.999Z</time>
      </trkpt>
      <trkpt lat="47.42902" lon="6.80167">
        <ele>504.5</ele>
        <time>2017-03-26T08:44:10.999Z</time>
      </trkpt>
      <trkpt lat="47.429" lon="6.80173">
        <ele>504.3</ele>
        <time>2017-03-26T08:44:11.999Z</time>
      </trkpt>
      <trkpt lat="47.42898" lon="6.80179">
        <ele>504.1</ele>
        <time>2017-03-26T08:44:12.999Z</time>
      </trkpt>
      <trkpt lat="47.42895" lon="6.80185">
        <ele>503.9</ele>
        <time>2017-03-26T08:44:13.999Z</time>
      </trkpt>
      <trkpt lat="47.42895" lon="6.80189">
        <ele>503.7</ele>
        <time>2017-03-26T08:44:14.999Z</time>
      </trkpt>
      <trkpt lat="47.42894" lon="6.80194">
        <ele>503.3</ele>
        <time>2017-03-26T08:44:15.999Z</time>
      </trkpt>
      <trkpt lat="47.42894" lon="6.802">
        <ele>503</ele>
        <time>2017-03-26T08:44:16.999Z</time>
      </trkpt>
      <trkpt lat="47.42893" lon="6.80206">
        <ele>502.7</ele>
        <time>2017-03-26T08:44:17.999Z</time>
      </trkpt>
      <trkpt lat="47.42894" lon="6.8021">
        <ele>502.3</ele>
        <time>2017-03-26T08:44:18.999Z</time>
      </trkpt>
      <trkpt lat="47.42895" lon="6.80216">
        <ele>502</ele>
        <time>2017-03-26T08:44:19.999Z</time>
      </trkpt>
      <trkpt lat="47.42894" lon="6.80223">
        <ele>501.7</ele>
        <time>2017-03-26T08:44:20.999Z</time>
      </trkpt>
      <trkpt lat="47.42895" lon="6.80229">
        <ele>501.4</ele>
        <time>2017-03-26T08:44:21.999Z</time>
      </trkpt>
      <trkpt lat="47.42896" lon="6.80235">
        <ele>497.3</ele>
        <time>2017-03-26T08:44:22.999Z</time>
      </trkpt>
      <trkpt lat="47.42897" lon="6.8024">
        <ele>497</ele>
        <time>2017-03-26T08:44:23.999Z</time>
      </trkpt>
      <trkpt lat="47.42897" lon="6.80248">
        <ele>496.6</ele>
        <time>2017-03-26T08:44:24.999Z</time>
      </trkpt>
      <trkpt lat="47.42897" lon="6.80257">
        <ele>496.2</ele>
        <time>2017-03-26T08:44:25.999Z</time>
      </trkpt>
      <trkpt lat="47.42897" lon="6.80264">
        <ele>495.6</ele>
        <time>2017-03-26T08:44:26.999Z</time>
      </trkpt>
      <trkpt lat="47.42898" lon="6.80269">
        <ele>494.9</ele>
        <time>2017-03-26T08:44:27.999Z</time>
      </trkpt>
      <trkpt lat="47.42899" lon="6.80277">
        <ele>494.2</ele>
        <time>2017-03-26T08:44:28.999Z</time>
      </trkpt>
      <trkpt lat="47.42899" lon="6.80283">
        <ele>493.5</ele>
        <time>2017-03-26T08:44:29.999Z</time>
      </trkpt>
      <trkpt lat="47.429" lon="6.80287">
        <ele>493</ele>
        <time>2017-03-26T08:44:30.999Z</time>
      </trkpt>
      <trkpt lat="47.42899" lon="6.80296">
        <ele>492.5</ele>
        <time>2017-03-26T08:44:31.999Z</time>
      </trkpt>
      <trkpt lat="47.42898" lon="6.80305">
        <ele>492.1</ele>
        <time>2017-03-26T08:44:32.999Z</time>
      </trkpt>
      <trkpt lat="47.42898" lon="6.80314">
        <ele>488.2</ele>
        <time>2017-03-26T08:44:33.999Z</time>
      </trkpt>
      <trkpt lat="47.42898" lon="6.80323">
        <ele>484.2</ele>
        <time>2017-03-26T08:44:34.999Z</time>
      </trkpt>
      <trkpt lat="47.42898" lon="6.80331">
        <ele>481</ele>
        <time>2017-03-26T08:44:35.999Z</time>
      </trkpt>
      <trkpt lat="47.42899" lon="6.80339">
        <ele>477.5</ele>
        <time>2017-03-26T08:44:36.999Z</time>
      </trkpt>
      <trkpt lat="47.429" lon="6.80343">
        <ele>477.1</ele>
        <time>2017-03-26T08:44:37.999Z</time>
      </trkpt>
      <trkpt lat="47.42901" lon="6.80346">
        <ele>476.7</ele>
        <time>2017-03-26T08:44:38.999Z</time>
      </trkpt>
      <trkpt lat="47.42901" lon="6.80352">
        <ele>476.3</ele>
        <time>2017-03-26T08:44:39.999Z</time>
      </trkpt>
      <trkpt lat="47.42902" lon="6.80362">
        <ele>475.9</ele>
        <time>2017-03-26T08:44:40.999Z</time>
      </trkpt>
      <trkpt lat="47.42901" lon="6.80367">
        <ele>475.5</ele>
        <time>2017-03-26T08:44:41.999Z</time>
      </trkpt>
      <trkpt lat="47.42902" lon="6.80374">
        <ele>475.2</ele>
        <time>2017-03-26T08:44:42.999Z</time>
      </trkpt>
      <trkpt lat="47.42901" lon="6.80381">
        <ele>475</ele>
        <time>2017-03-26T08:44:43.999Z</time>
      </trkpt>
      <trkpt lat="47.42898" lon="6.80393">
        <ele>474.8</ele>
        <time>2017-03-26T08:44:44.999Z</time>
      </trkpt>
      <trkpt lat="47.42895" lon="6.80401">
        <ele>473.3</ele>
        <time>2017-03-26T08:44:45.999Z</time>
      </trkpt>
      <trkpt lat="47.42896" lon="6.80409">
        <ele>472.8</ele>
        <time>2017-03-26T08:44:46.999Z</time>
      </trkpt>
      <trkpt lat="47.42899" lon="6.80416">
        <ele>471.9</ele>
        <time>2017-03-26T08:44:47.999Z</time>
      </trkpt>
      <trkpt lat="47.42903" lon="6.8042">
        <ele>471.9</ele>
        <time>2017-03-26T08:44:48.999Z</time>
      </trkpt>
      <trkpt lat="47.42903" lon="6.80426">
        <ele>471.7</ele>
        <time>2017-03-26T08:44:49.999Z</time>
      </trkpt>
      <trkpt lat="47.42902" lon="6.80431">
        <ele>471.5</ele>
        <time>2017-03-26T08:44:50.999Z</time>
      </trkpt>
      <trkpt lat="47.42902" lon="6.80438">
        <ele>471.3</ele>
        <time>2017-03-26T08:44:51.999Z</time>
      </trkpt>
      <trkpt lat="47.42901" lon="6.80445">
        <ele>471.3</ele>
        <time>2017-03-26T08:44:52.999Z</time>
      </trkpt>
      <trkpt lat="47.429" lon="6.80453">
        <ele>471.1</ele>
        <time>2017-03-26T08:44:53.999Z</time>
      </trkpt>
      <trkpt lat="47.42902" lon="6.8046">
        <ele>470.9</ele>
        <time>2017-03-26T08:44:54.999Z</time>
      </trkpt>
      <trkpt lat="47.42904" lon="6.80464">
        <ele>470.8</ele>
        <time>2017-03-26T08:44:55.999Z</time>
      </trkpt>
      <trkpt lat="47.42903" lon="6.80469">
        <ele>470.7</ele>
        <time>2017-03-26T08:44:56.999Z</time>
      </trkpt>
      <trkpt lat="47.42903" lon="6.80473">
        <ele>470.5</ele>
        <time>2017-03-26T08:44:57.999Z</time>
      </trkpt>
      <trkpt lat="47.42903" lon="6.80478">
        <ele>470.3</ele>
        <time>2017-03-26T08:44:58.999Z</time>
      </trkpt>
      <trkpt lat="47.42902" lon="6.80485">
        <ele>470.3</ele>
        <time>2017-03-26T08:44:59.999Z</time>
      </trkpt>
      <trkpt lat="47.42899" lon="6.80492">
        <ele>470.3</ele>
        <time>2017-03-26T08:45:00.999Z</time>
      </trkpt>
      <trkpt lat="47.42897" lon="6.80499">
        <ele>470.4</ele>
        <time>2017-03-26T08:45:01.999Z</time>
      </trkpt>
      <trkpt lat="47.42896" lon="6.80507">
        <ele>470.4</ele>
        <time>2017-03-26T08:45:02.999Z</time>
      </trkpt>
      <trkpt lat="47.42895" lon="6.80515">
        <ele>470.4</ele>
        <time>2017-03-26T08:45:03.999Z</time>
      </trkpt>
      <trkpt lat="47.42893" lon="6.80523">
        <ele>470.5</ele>
        <time>2017-03-26T08:45:04.999Z</time>
      </trkpt>
      <trkpt lat="47.42892" lon="6.8053">
        <ele>470.5</ele>
        <time>2017-03-26T08:45:05.999Z</time>
      </trkpt>
      <trkpt lat="47.42892" lon="6.80536">
        <ele>470.5</ele>
        <time>2017-03-26T08:45:06.999Z</time>
      </trkpt>
      <trkpt lat="47.42894" lon="6.80542">
        <ele>470.4</ele>
        <time>2017-03-26T08:45:07.999Z</time>
      </trkpt>
      <trkpt lat="47.42895" lon="6.80546">
        <ele>470.4</ele>
        <time>2017-03-26T08:45:08.999Z</time>
      </trkpt>
      <trkpt lat="47.42895" lon="6.80548">
        <ele>470.3</ele>
        <time>2017-03-26T08:45:09.999Z</time>
      </trkpt>
      <trkpt lat="47.42895" lon="6.80552">
        <ele>470.2</ele>
        <time>2017-03-26T08:45:10.999Z</time>
      </trkpt>
      <trkpt lat="47.42894" lon="6.80556">
        <ele>469.9</ele>
        <time>2017-03-26T08:45:11.999Z</time>
      </trkpt>
      <trkpt lat="47.42892" lon="6.80561">
        <ele>467.9</ele>
        <time>2017-03-26T08:45:12.999Z</time>
      </trkpt>
      <trkpt lat="47.42891" lon="6.80567">
        <ele>467.6</ele>
        <time>2017-03-26T08:45:13.999Z</time>
      </trkpt>
      <trkpt lat="47.42893" lon="6.80572">
        <ele>467.3</ele>
        <time>2017-03-26T08:45:14.999Z</time>
      </trkpt>
      <trkpt lat="47.42893" lon="6.80578">
        <ele>467.2</ele>
        <time>2017-03-26T08:45:15.999Z</time>
      </trkpt>
      <trkpt lat="47.42895" lon="6.80584">
        <ele>467.1</ele>
        <time>2017-03-26T08:45:16.999Z</time>
      </trkpt>
      <trkpt lat="47.42897" lon="6.80588">
        <ele>466.9</ele>
        <time>2017-03-26T08:45:17.999Z</time>
      </trkpt>
      <trkpt lat="47.42901" lon="6.80596">
        <ele>466.7</ele>
        <time>2017-03-26T08:45:18.999Z</time>
      </trkpt>
      <trkpt lat="47.429" lon="6.80606">
        <ele>466.5</ele>
        <time>2017-03-26T08:45:19.999Z</time>
      </trkpt>
      <trkpt lat="47.429" lon="6.80613">
        <ele>466.3</ele>
        <time>2017-03-26T08:45:20.999Z</time>
      </trkpt>
      <trkpt lat="47.429" lon="6.80619">
        <ele>463.2</ele>
        <time>2017-03-26T08:45:21.999Z</time>
      </trkpt>
      <trkpt lat="47.42902" lon="6.80626">
        <ele>461.4</ele>
        <time>2017-03-26T08:45:22.999Z</time>
      </trkpt>
      <trkpt lat="47.42906" lon="6.80633">
        <ele>458</ele>
        <time>2017-03-26T08:45:23.999Z</time>
      </trkpt>
      <trkpt lat="47.42907" lon="6.80638">
        <ele>457.9</ele>
        <time>2017-03-26T08:45:24.999Z</time>
      </trkpt>
      <trkpt lat="47.42909" lon="6.80642">
        <ele>457.7</ele>
        <time>2017-03-26T08:45:25.999Z</time>
      </trkpt>
      <trkpt lat="47.4291" lon="6.80647">
        <ele>457.6</ele>
        <time>2017-03-26T08:45:26.999Z</time>
      </trkpt>
      <trkpt lat="47.4291" lon="6.80653">
        <ele>457.5</ele>
        <time>2017-03-26T08:45:27.999Z</time>
      </trkpt>
      <trkpt lat="47.42911" lon="6.8066">
        <ele>457.6</ele>
        <time>2017-03-26T08:45:28.999Z</time>
      </trkpt>
      <trkpt lat="47.42912" lon="6.80669">
        <ele>457.6</ele>
        <time>2017-03-26T08:45:29.999Z</time>
      </trkpt>
      <trkpt lat="47.42914" lon="6.80675">
        <ele>457.6</ele>
        <time>2017-03-26T08:45:30.999Z</time>
      </trkpt>
      <trkpt lat="47.42916" lon="6.80678">
        <ele>457.6</ele>
        <time>2017-03-26T08:45:31.999Z</time>
      </trkpt>
      <trkpt lat="47.42917" lon="6.80684">
        <ele>457.7</ele>
        <time>2017-03-26T08:45:32.999Z</time>
      </trkpt>
      <trkpt lat="47.42918" lon="6.80692">
        <ele>457.8</ele>
        <time>2017-03-26T08:45:33.999Z</time>
      </trkpt>
      <trkpt lat="47.42921" lon="6.80699">
        <ele>458</ele>
        <time>2017-03-26T08:45:34.999Z</time>
      </trkpt>
      <trkpt lat="47.42922" lon="6.80705">
        <ele>458</ele>
        <time>2017-03-26T08:45:35.999Z</time>
      </trkpt>
      <trkpt lat="47.42924" lon="6.80711">
        <ele>458</ele>
        <time>2017-03-26T08:45:36.999Z</time>
      </trkpt>
      <trkpt lat="47.42926" lon="6.8072">
        <ele>458.1</ele>
        <time>2017-03-26T08:45:37.999Z</time>
      </trkpt>
      <trkpt lat="47.42928" lon="6.80728">
        <ele>458.2</ele>
        <time>2017-03-26T08:45:38.999Z</time>
      </trkpt>
      <trkpt lat="47.42931" lon="6.80736">
        <ele>458.2</ele>
        <time>2017-03-26T08:45:39.999Z</time>
      </trkpt>
      <trkpt lat="47.42935" lon="6.80746">
        <ele>458.2</ele>
        <time>2017-03-26T08:45:40.999Z</time>
      </trkpt>
      <trkpt lat="47.42939" lon="6.80751">
        <ele>458.1</ele>
        <time>2017-03-26T08:45:41.999Z</time>
      </trkpt>
      <trkpt lat="47.42944" lon="6.80759">
        <ele>458.1</ele>
        <time>2017-03-26T08:45:42.999Z</time>
      </trkpt>
      <trkpt lat="47.42946" lon="6.80765">
        <ele>457.9</ele>
        <time>2017-03-26T08:45:43.999Z</time>
      </trkpt>
      <trkpt lat="47.42948" lon="6.80771">
        <ele>456.7</ele>
        <time>2017-03-26T08:45:44.999Z</time>
      </trkpt>
      <trkpt lat="47.4295" lon="6.80776">
        <ele>456.6</ele>
        <time>2017-03-26T08:45:45.999Z</time>
      </trkpt>
      <trkpt lat="47.42954" lon="6.8078">
        <ele>456.4</ele>
        <time>2017-03-26T08:45:46.999Z</time>
      </trkpt>
      <trkpt lat="47.42959" lon="6.80787">
        <ele>456.2</ele>
        <time>2017-03-26T08:45:47.999Z</time>
      </trkpt>
      <trkpt lat="47.42962" lon="6.80791">
        <ele>455.8</ele>
        <time>2017-03-26T08:45:48.999Z</time>
      </trkpt>
      <trkpt lat="47.42964" lon="6.80793">
        <ele>455.5</ele>
        <time>2017-03-26T08:45:49.999Z</time>
      </trkpt>
      <trkpt lat="47.42967" lon="6.80794">
        <ele>455.4</ele>
        <time>2017-03-26T08:45:50.999Z</time>
      </trkpt>
      <trkpt lat="47.42968" lon="6.80796">
        <ele>455.4</ele>
        <time>2017-03-26T08:45:51.999Z</time>
      </trkpt>
      <trkpt lat="47.4297" lon="6.80798">
        <ele>455.3</ele>
        <time>2017-03-26T08:45:52.999Z</time>
      </trkpt>
      <trkpt lat="47.42973" lon="6.80802">
        <ele>455.3</ele>
        <time>2017-03-26T08:45:53.999Z</time>
      </trkpt>
      <trkpt lat="47.42975" lon="6.80804">
        <ele>455.3</ele>
        <time>2017-03-26T08:45:54.999Z</time>
      </trkpt>
      <trkpt lat="47.42978" lon="6.80807">
        <ele>455.5</ele>
        <time>2017-03-26T08:45:55.999Z</time>
      </trkpt>
      <trkpt lat="47.4298" lon="6.80811">
        <ele>455.6</ele>
        <time>2017-03-26T08:45:56.999Z</time>
      </trkpt>
      <trkpt lat="47.42983" lon="6.80816">
        <ele>455.7</ele>
        <time>2017-03-26T08:45:57.999Z</time>
      </trkpt>
      <trkpt lat="47.42989" lon="6.80827">
        <ele>455.7</ele>
        <time>2017-03-26T08:45:58.999Z</time>
      </trkpt>
      <trkpt lat="47.42992" lon="6.80833">
        <ele>455.8</ele>
        <time>2017-03-26T08:45:59.999Z</time>
      </trkpt>
      <trkpt lat="47.42995" lon="6.80837">
        <ele>455.9</ele>
        <time>2017-03-26T08:46:00.999Z</time>
      </trkpt>
      <trkpt lat="47.42997" lon="6.80842">
        <ele>455.9</ele>
        <time>2017-03-26T08:46:01.999Z</time>
      </trkpt>
      <trkpt lat="47.43001" lon="6.80848">
        <ele>455.9</ele>
        <time>2017-03-26T08:46:02.999Z</time>
      </trkpt>
      <trkpt lat="47.43003" lon="6.80851">
        <ele>456</ele>
        <time>2017-03-26T08:46:03.999Z</time>
      </trkpt>
      <trkpt lat="47.43006" lon="6.80855">
        <ele>456.1</ele>
        <time>2017-03-26T08:46:04.999Z</time>
      </trkpt>
      <trkpt lat="47.43009" lon="6.80859">
        <ele>456.1</ele>
        <time>2017-03-26T08:46:05.999Z</time>
      </trkpt>
      <trkpt lat="47.4301" lon="6.80864">
        <ele>456.2</ele>
        <time>2017-03-26T08:46:06.999Z</time>
      </trkpt>
      <trkpt lat="47.43011" lon="6.80868">
        <ele>456.3</ele>
        <time>2017-03-26T08:46:07.999Z</time>
      </trkpt>
      <trkpt lat="47.43013" lon="6.80873">
        <ele>456.4</ele>
        <time>2017-03-26T08:46:08.999Z</time>
      </trkpt>
      <trkpt lat="47.43015" lon="6.80879">
        <ele>456.6</ele>
        <time>2017-03-26T08:46:09.999Z</time>
      </trkpt>
      <trkpt lat="47.43017" lon="6.80884">
        <ele>456.5</ele>
        <time>2017-03-26T08:46:10.999Z</time>
      </trkpt>
      <trkpt lat="47.43017" lon="6.80886">
        <ele>456.5</ele>
        <time>2017-03-26T08:46:11.999Z</time>
      </trkpt>
      <trkpt lat="47.43019" lon="6.80889">
        <ele>456.6</ele>
        <time>2017-03-26T08:46:12.999Z</time>
      </trkpt>
      <trkpt lat="47.4302" lon="6.80892">
        <ele>456.7</ele>
        <time>2017-03-26T08:46:13.999Z</time>
      </trkpt>
      <trkpt lat="47.43022" lon="6.809">
        <ele>456.9</ele>
        <time>2017-03-26T08:46:14.999Z</time>
      </trkpt>
      <trkpt lat="47.43025" lon="6.80905">
        <ele>457.4</ele>
        <time>2017-03-26T08:46:16.999Z</time>
      </trkpt>
      <trkpt lat="47.43027" lon="6.80906">
        <ele>457.6</ele>
        <time>2017-03-26T08:46:17.999Z</time>
      </trkpt>
      <trkpt lat="47.43029" lon="6.8091">
        <ele>457.9</ele>
        <time>2017-03-26T08:46:18.999Z</time>
      </trkpt>
      <trkpt lat="47.4303" lon="6.80911">
        <ele>458.1</ele>
        <time>2017-03-26T08:46:19.999Z</time>
      </trkpt>
      <trkpt lat="47.43033" lon="6.80914">
        <ele>458.1</ele>
        <time>2017-03-26T08:46:22.999Z</time>
      </trkpt>
      <trkpt lat="47.43034" lon="6.80917">
        <ele>457.8</ele>
        <time>2017-03-26T08:46:23.999Z</time>
      </trkpt>
      <trkpt lat="47.43038" lon="6.80919">
        <ele>456.2</ele>
        <time>2017-03-26T08:46:33.999Z</time>
      </trkpt>
      <trkpt lat="47.43038" lon="6.80919">
        <ele>455.9</ele>
        <time>2017-03-26T08:46:34.999Z</time>
      </trkpt>
      <trkpt lat="47.43034" lon="6.8092">
        <ele>455.7</ele>
        <time>2017-03-26T08:46:53.999Z</time>
      </trkpt>
      <trkpt lat="47.43032" lon="6.80919">
        <ele>456</ele>
        <time>2017-03-26T08:46:54.999Z</time>
      </trkpt>
      <trkpt lat="47.43034" lon="6.80913">
        <ele>458.7</ele>
        <time>2017-03-26T08:47:14.999Z</time>
      </trkpt>
      <trkpt lat="47.43035" lon="6.80912">
        <ele>459</ele>
        <time>2017-03-26T08:47:15.999Z</time>
      </trkpt>
      <trkpt lat="47.43035" lon="6.80918">
        <ele>458.3</ele>
        <time>2017-03-26T08:47:31.999Z</time>
      </trkpt>
      <trkpt lat="47.43037" lon="6.8092">
        <ele>458.3</ele>
        <time>2017-03-26T08:47:32.999Z</time>
      </trkpt>
      <trkpt lat="47.43038" lon="6.80923">
        <ele>458.1</ele>
        <time>2017-03-26T08:47:33.999Z</time>
      </trkpt>
      <trkpt lat="47.4304" lon="6.80926">
        <ele>458.1</ele>
        <time>2017-03-26T08:47:34.999Z</time>
      </trkpt>
      <trkpt lat="47.43042" lon="6.80931">
        <ele>458.1</ele>
        <time>2017-03-26T08:47:35.999Z</time>
      </trkpt>
      <trkpt lat="47.43043" lon="6.80935">
        <ele>458.2</ele>
        <time>2017-03-26T08:47:36.999Z</time>
      </trkpt>
      <trkpt lat="47.43045" lon="6.8094">
        <ele>458.3</ele>
        <time>2017-03-26T08:47:37.999Z</time>
      </trkpt>
      <trkpt lat="47.43046" lon="6.80944">
        <ele>458.4</ele>
        <time>2017-03-26T08:47:38.999Z</time>
      </trkpt>
      <trkpt lat="47.43047" lon="6.8095">
        <ele>458</ele>
        <time>2017-03-26T08:47:44.999Z</time>
      </trkpt>
      <trkpt lat="47.43048" lon="6.80951">
        <ele>457.9</ele>
        <time>2017-03-26T08:47:45.999Z</time>
      </trkpt>
      <trkpt lat="47.43051" lon="6.80955">
        <ele>457.5</ele>
        <time>2017-03-26T08:47:47.999Z</time>
      </trkpt>
      <trkpt lat="47.43052" lon="6.80959">
        <ele>457.5</ele>
        <time>2017-03-26T08:47:48.999Z</time>
      </trkpt>
      <trkpt lat="47.43053" lon="6.80964">
        <ele>457.2</ele>
        <time>2017-03-26T08:47:54.999Z</time>
      </trkpt>
      <trkpt lat="47.43053" lon="6.80965">
        <ele>457</ele>
        <time>2017-03-26T08:47:55.999Z</time>
      </trkpt>
      <trkpt lat="47.43056" lon="6.80969">
        <ele>456.8</ele>
        <time>2017-03-26T08:47:58.999Z</time>
      </trkpt>
      <trkpt lat="47.43057" lon="6.8097">
        <ele>456.7</ele>
        <time>2017-03-26T08:47:59.999Z</time>
      </trkpt>
      <trkpt lat="47.43059" lon="6.80975">
        <ele>456.5</ele>
        <time>2017-03-26T08:48:00.999Z</time>
      </trkpt>
      <trkpt lat="47.4306" lon="6.80977">
        <ele>456.3</ele>
        <time>2017-03-26T08:48:01.999Z</time>
      </trkpt>
      <trkpt lat="47.43061" lon="6.8098">
        <ele>456.2</ele>
        <time>2017-03-26T08:48:02.999Z</time>
      </trkpt>
      <trkpt lat="47.43063" lon="6.80984">
        <ele>456.1</ele>
        <time>2017-03-26T08:48:03.999Z</time>
      </trkpt>
      <trkpt lat="47.43064" lon="6.80988">
        <ele>456</ele>
        <time>2017-03-26T08:48:04.999Z</time>
      </trkpt>
      <trkpt lat="47.43069" lon="6.80993">
        <ele>456</ele>
        <time>2017-03-26T08:48:05.999Z</time>
      </trkpt>
      <trkpt lat="47.43073" lon="6.81">
        <ele>455.7</ele>
        <time>2017-03-26T08:48:06.999Z</time>
      </trkpt>
      <trkpt lat="47.43071" lon="6.81005">
        <ele>455.5</ele>
        <time>2017-03-26T08:48:08.999Z</time>
      </trkpt>
      <trkpt lat="47.43075" lon="6.81015">
        <ele>455.3</ele>
        <time>2017-03-26T08:48:09.999Z</time>
      </trkpt>
      <trkpt lat="47.43079" lon="6.81021">
        <ele>455.1</ele>
        <time>2017-03-26T08:48:10.999Z</time>
      </trkpt>
      <trkpt lat="47.43083" lon="6.81026">
        <ele>454.9</ele>
        <time>2017-03-26T08:48:11.999Z</time>
      </trkpt>
      <trkpt lat="47.43084" lon="6.81031">
        <ele>454.3</ele>
        <time>2017-03-26T08:48:13.999Z</time>
      </trkpt>
      <trkpt lat="47.43085" lon="6.81034">
        <ele>453.9</ele>
        <time>2017-03-26T08:48:14.999Z</time>
      </trkpt>
      <trkpt lat="47.43087" lon="6.81038">
        <ele>453.5</ele>
        <time>2017-03-26T08:48:15.999Z</time>
      </trkpt>
      <trkpt lat="47.4309" lon="6.81042">
        <ele>453</ele>
        <time>2017-03-26T08:48:16.999Z</time>
      </trkpt>
      <trkpt lat="47.43093" lon="6.81044">
        <ele>452.5</ele>
        <time>2017-03-26T08:48:17.999Z</time>
      </trkpt>
      <trkpt lat="47.43098" lon="6.81046">
        <ele>451.9</ele>
        <time>2017-03-26T08:48:18.999Z</time>
      </trkpt>
      <trkpt lat="47.43101" lon="6.81049">
        <ele>450.9</ele>
        <time>2017-03-26T08:48:20.999Z</time>
      </trkpt>
      <trkpt lat="47.43102" lon="6.81051">
        <ele>450.4</ele>
        <time>2017-03-26T08:48:21.999Z</time>
      </trkpt>
      <trkpt lat="47.43103" lon="6.81054">
        <ele>449.9</ele>
        <time>2017-03-26T08:48:22.999Z</time>
      </trkpt>
      <trkpt lat="47.43106" lon="6.81061">
        <ele>449.4</ele>
        <time>2017-03-26T08:48:23.999Z</time>
      </trkpt>
      <trkpt lat="47.43108" lon="6.81065">
        <ele>448.9</ele>
        <time>2017-03-26T08:48:24.999Z</time>
      </trkpt>
      <trkpt lat="47.43111" lon="6.81068">
        <ele>448.4</ele>
        <time>2017-03-26T08:48:25.999Z</time>
      </trkpt>
      <trkpt lat="47.43117" lon="6.81076">
        <ele>447.7</ele>
        <time>2017-03-26T08:48:26.999Z</time>
      </trkpt>
      <trkpt lat="47.4312" lon="6.81078">
        <ele>447</ele>
        <time>2017-03-26T08:48:28.999Z</time>
      </trkpt>
      <trkpt lat="47.43123" lon="6.81081">
        <ele>446.3</ele>
        <time>2017-03-26T08:48:29.999Z</time>
      </trkpt>
      <trkpt lat="47.43126" lon="6.81086">
        <ele>445.8</ele>
        <time>2017-03-26T08:48:30.999Z</time>
      </trkpt>
      <trkpt lat="47.43129" lon="6.81089">
        <ele>445.3</ele>
        <time>2017-03-26T08:48:31.999Z</time>
      </trkpt>
      <trkpt lat="47.43133" lon="6.81093">
        <ele>444.8</ele>
        <time>2017-03-26T08:48:32.999Z</time>
      </trkpt>
      <trkpt lat="47.43138" lon="6.81096">
        <ele>444.4</ele>
        <time>2017-03-26T08:48:33.999Z</time>
      </trkpt>
      <trkpt lat="47.43142" lon="6.81101">
        <ele>444.1</ele>
        <time>2017-03-26T08:48:34.999Z</time>
      </trkpt>
      <trkpt lat="47.43147" lon="6.81107">
        <ele>443.9</ele>
        <time>2017-03-26T08:48:35.999Z</time>
      </trkpt>
      <trkpt lat="47.43152" lon="6.81112">
        <ele>443.5</ele>
        <time>2017-03-26T08:48:36.999Z</time>
      </trkpt>
      <trkpt lat="47.43157" lon="6.81116">
        <ele>443.1</ele>
        <time>2017-03-26T08:48:37.999Z</time>
      </trkpt>
      <trkpt lat="47.43162" lon="6.81121">
        <ele>442.8</ele>
        <time>2017-03-26T08:48:38.999Z</time>
      </trkpt>
      <trkpt lat="47.43168" lon="6.81126">
        <ele>442.4</ele>
        <time>2017-03-26T08:48:39.999Z</time>
      </trkpt>
      <trkpt lat="47.43172" lon="6.81131">
        <ele>442.1</ele>
        <time>2017-03-26T08:48:40.999Z</time>
      </trkpt>
      <trkpt lat="47.43176" lon="6.81137">
        <ele>442</ele>
        <time>2017-03-26T08:48:41.999Z</time>
      </trkpt>
      <trkpt lat="47.4318" lon="6.81143">
        <ele>442.4</ele>
        <time>2017-03-26T08:48:42.999Z</time>
      </trkpt>
      <trkpt lat="47.43183" lon="6.81148">
        <ele>442.3</ele>
        <time>2017-03-26T08:48:43.999Z</time>
      </trkpt>
      <trkpt lat="47.43187" lon="6.81152">
        <ele>442.2</ele>
        <time>2017-03-26T08:48:44.999Z</time>
      </trkpt>
      <trkpt lat="47.43192" lon="6.81155">
        <ele>442</ele>
        <time>2017-03-26T08:48:45.999Z</time>
      </trkpt>
      <trkpt lat="47.43196" lon="6.81159">
        <ele>441.9</ele>
        <time>2017-03-26T08:48:46.999Z</time>
      </trkpt>
      <trkpt lat="47.432" lon="6.81163">
        <ele>442</ele>
        <time>2017-03-26T08:48:47.999Z</time>
      </trkpt>
      <trkpt lat="47.43205" lon="6.81167">
        <ele>442.1</ele>
        <time>2017-03-26T08:48:48.999Z</time>
      </trkpt>
      <trkpt lat="47.4321" lon="6.81171">
        <ele>442.1</ele>
        <time>2017-03-26T08:48:49.999Z</time>
      </trkpt>
      <trkpt lat="47.43214" lon="6.81176">
        <ele>442.3</ele>
        <time>2017-03-26T08:48:50.999Z</time>
      </trkpt>
      <trkpt lat="47.43219" lon="6.81181">
        <ele>442.3</ele>
        <time>2017-03-26T08:48:51.999Z</time>
      </trkpt>
      <trkpt lat="47.43223" lon="6.81187">
        <ele>442.3</ele>
        <time>2017-03-26T08:48:52.999Z</time>
      </trkpt>
      <trkpt lat="47.43228" lon="6.81194">
        <ele>442.2</ele>
        <time>2017-03-26T08:48:53.999Z</time>
      </trkpt>
      <trkpt lat="47.43231" lon="6.812">
        <ele>442.2</ele>
        <time>2017-03-26T08:48:54.999Z</time>
      </trkpt>
      <trkpt lat="47.43237" lon="6.81206">
        <ele>442.3</ele>
        <time>2017-03-26T08:48:55.999Z</time>
      </trkpt>
      <trkpt lat="47.43241" lon="6.81211">
        <ele>442.2</ele>
        <time>2017-03-26T08:48:56.999Z</time>
      </trkpt>
      <trkpt lat="47.43244" lon="6.8121">
        <ele>442</ele>
        <time>2017-03-26T08:48:57.999Z</time>
      </trkpt>
      <trkpt lat="47.43249" lon="6.81211">
        <ele>441.8</ele>
        <time>2017-03-26T08:48:58.999Z</time>
      </trkpt>
      <trkpt lat="47.43255" lon="6.81213">
        <ele>441.6</ele>
        <time>2017-03-26T08:48:59.999Z</time>
      </trkpt>
      <trkpt lat="47.43259" lon="6.81218">
        <ele>441.4</ele>
        <time>2017-03-26T08:49:00.999Z</time>
      </trkpt>
      <trkpt lat="47.43263" lon="6.81223">
        <ele>441.1</ele>
        <time>2017-03-26T08:49:01.999Z</time>
      </trkpt>
      <trkpt lat="47.43269" lon="6.81226">
        <ele>440.7</ele>
        <time>2017-03-26T08:49:02.999Z</time>
      </trkpt>
      <trkpt lat="47.43271" lon="6.81229">
        <ele>440.3</ele>
        <time>2017-03-26T08:49:03.999Z</time>
      </trkpt>
      <trkpt lat="47.43274" lon="6.81235">
        <ele>439.8</ele>
        <time>2017-03-26T08:49:04.999Z</time>
      </trkpt>
      <trkpt lat="47.43278" lon="6.8124">
        <ele>439.3</ele>
        <time>2017-03-26T08:49:05.999Z</time>
      </trkpt>
      <trkpt lat="47.43282" lon="6.81245">
        <ele>438.9</ele>
        <time>2017-03-26T08:49:06.999Z</time>
      </trkpt>
      <trkpt lat="47.43285" lon="6.81253">
        <ele>438.5</ele>
        <time>2017-03-26T08:49:07.999Z</time>
      </trkpt>
      <trkpt lat="47.43286" lon="6.81257">
        <ele>438.1</ele>
        <time>2017-03-26T08:49:08.999Z</time>
      </trkpt>
      <trkpt lat="47.43289" lon="6.8126">
        <ele>437.8</ele>
        <time>2017-03-26T08:49:09.999Z</time>
      </trkpt>
      <trkpt lat="47.43291" lon="6.81263">
        <ele>437.7</ele>
        <time>2017-03-26T08:49:10.999Z</time>
      </trkpt>
      <trkpt lat="47.43295" lon="6.81268">
        <ele>437.5</ele>
        <time>2017-03-26T08:49:11.999Z</time>
      </trkpt>
      <trkpt lat="47.43295" lon="6.81272">
        <ele>437.2</ele>
        <time>2017-03-26T08:49:12.999Z</time>
      </trkpt>
      <trkpt lat="47.43298" lon="6.81275">
        <ele>437</ele>
        <time>2017-03-26T08:49:13.999Z</time>
      </trkpt>
      <trkpt lat="47.43302" lon="6.81277">
        <ele>436.8</ele>
        <time>2017-03-26T08:49:14.999Z</time>
      </trkpt>
      <trkpt lat="47.43307" lon="6.81278">
        <ele>436.5</ele>
        <time>2017-03-26T08:49:15.999Z</time>
      </trkpt>
      <trkpt lat="47.43312" lon="6.81279">
        <ele>436.1</ele>
        <time>2017-03-26T08:49:16.999Z</time>
      </trkpt>
      <trkpt lat="47.43313" lon="6.81279">
        <ele>435.6</ele>
        <time>2017-03-26T08:49:17.999Z</time>
      </trkpt>
      <trkpt lat="47.43317" lon="6.81281">
        <ele>435.3</ele>
        <time>2017-03-26T08:49:18.999Z</time>
      </trkpt>
      <trkpt lat="47.4332" lon="6.81282">
        <ele>435.1</ele>
        <time>2017-03-26T08:49:19.999Z</time>
      </trkpt>
      <trkpt lat="47.43323" lon="6.81284">
        <ele>434.8</ele>
        <time>2017-03-26T08:49:20.999Z</time>
      </trkpt>
      <trkpt lat="47.43325" lon="6.81281">
        <ele>433.8</ele>
        <time>2017-03-26T08:49:24.999Z</time>
      </trkpt>
      <trkpt lat="47.43328" lon="6.8128">
        <ele>433.6</ele>
        <time>2017-03-26T08:49:25.999Z</time>
      </trkpt>
      <trkpt lat="47.4333" lon="6.8128">
        <ele>433.5</ele>
        <time>2017-03-26T08:49:27.999Z</time>
      </trkpt>
      <trkpt lat="47.43334" lon="6.81281">
        <ele>433.6</ele>
        <time>2017-03-26T08:49:28.999Z</time>
      </trkpt>
      <trkpt lat="47.43338" lon="6.81283">
        <ele>433.6</ele>
        <time>2017-03-26T08:49:29.999Z</time>
      </trkpt>
      <trkpt lat="47.43342" lon="6.81284">
        <ele>433.7</ele>
        <time>2017-03-26T08:49:32.999Z</time>
      </trkpt>
      <trkpt lat="47.43345" lon="6.81285">
        <ele>433.8</ele>
        <time>2017-03-26T08:49:33.999Z</time>
      </trkpt>
      <trkpt lat="47.43348" lon="6.81287">
        <ele>433.9</ele>
        <time>2017-03-26T08:49:34.999Z</time>
      </trkpt>
      <trkpt lat="47.43352" lon="6.8129">
        <ele>433.9</ele>
        <time>2017-03-26T08:49:35.999Z</time>
      </trkpt>
      <trkpt lat="47.43358" lon="6.81295">
        <ele>434</ele>
        <time>2017-03-26T08:49:36.999Z</time>
      </trkpt>
      <trkpt lat="47.43364" lon="6.81299">
        <ele>433.8</ele>
        <time>2017-03-26T08:49:37.999Z</time>
      </trkpt>
      <trkpt lat="47.43369" lon="6.81302">
        <ele>433.8</ele>
        <time>2017-03-26T08:49:38.999Z</time>
      </trkpt>
      <trkpt lat="47.43375" lon="6.81306">
        <ele>433.9</ele>
        <time>2017-03-26T08:49:39.999Z</time>
      </trkpt>
      <trkpt lat="47.43381" lon="6.8131">
        <ele>433.9</ele>
        <time>2017-03-26T08:49:40.999Z</time>
      </trkpt>
      <trkpt lat="47.43392" lon="6.81315">
        <ele>434</ele>
        <time>2017-03-26T08:49:41.999Z</time>
      </trkpt>
      <trkpt lat="47.43401" lon="6.81319">
        <ele>434.2</ele>
        <time>2017-03-26T08:49:42.999Z</time>
      </trkpt>
      <trkpt lat="47.4341" lon="6.81325">
        <ele>434.3</ele>
        <time>2017-03-26T08:49:43.999Z</time>
      </trkpt>
      <trkpt lat="47.43416" lon="6.81329">
        <ele>434.4</ele>
        <time>2017-03-26T08:49:44.999Z</time>
      </trkpt>
      <trkpt lat="47.43418" lon="6.81329">
        <ele>434.4</ele>
        <time>2017-03-26T08:49:45.999Z</time>
      </trkpt>
      <trkpt lat="47.43422" lon="6.81331">
        <ele>434.5</ele>
        <time>2017-03-26T08:49:46.999Z</time>
      </trkpt>
      <trkpt lat="47.43427" lon="6.81334">
        <ele>434.6</ele>
        <time>2017-03-26T08:49:47.999Z</time>
      </trkpt>
      <trkpt lat="47.4343" lon="6.81341">
        <ele>434.8</ele>
        <time>2017-03-26T08:49:48.999Z</time>
      </trkpt>
      <trkpt lat="47.43434" lon="6.81348">
        <ele>434.8</ele>
        <time>2017-03-26T08:49:49.999Z</time>
      </trkpt>
      <trkpt lat="47.43437" lon="6.81353">
        <ele>434.8</ele>
        <time>2017-03-26T08:49:50.999Z</time>
      </trkpt>
      <trkpt lat="47.4344" lon="6.81357">
        <ele>434.7</ele>
        <time>2017-03-26T08:49:51.999Z</time>
      </trkpt>
      <trkpt lat="47.43443" lon="6.81361">
        <ele>434.6</ele>
        <time>2017-03-26T08:49:52.999Z</time>
      </trkpt>
      <trkpt lat="47.43448" lon="6.81365">
        <ele>432.3</ele>
        <time>2017-03-26T08:49:53.999Z</time>
      </trkpt>
      <trkpt lat="47.43452" lon="6.81366">
        <ele>432.2</ele>
        <time>2017-03-26T08:49:54.999Z</time>
      </trkpt>
      <trkpt lat="47.43456" lon="6.81368">
        <ele>431.8</ele>
        <time>2017-03-26T08:49:55.999Z</time>
      </trkpt>
      <trkpt lat="47.4346" lon="6.81373">
        <ele>431.7</ele>
        <time>2017-03-26T08:49:56.999Z</time>
      </trkpt>
      <trkpt lat="47.43464" lon="6.81378">
        <ele>431.7</ele>
        <time>2017-03-26T08:49:57.999Z</time>
      </trkpt>
      <trkpt lat="47.43468" lon="6.81384">
        <ele>431.6</ele>
        <time>2017-03-26T08:49:58.999Z</time>
      </trkpt>
      <trkpt lat="47.43473" lon="6.81391">
        <ele>431.2</ele>
        <time>2017-03-26T08:49:59.999Z</time>
      </trkpt>
      <trkpt lat="47.43479" lon="6.814">
        <ele>431.2</ele>
        <time>2017-03-26T08:50:00.999Z</time>
      </trkpt>
      <trkpt lat="47.43483" lon="6.81404">
        <ele>431.2</ele>
        <time>2017-03-26T08:50:01.999Z</time>
      </trkpt>
      <trkpt lat="47.4349" lon="6.81412">
        <ele>431.1</ele>
        <time>2017-03-26T08:50:02.999Z</time>
      </trkpt>
      <trkpt lat="47.43494" lon="6.81416">
        <ele>431.1</ele>
        <time>2017-03-26T08:50:03.999Z</time>
      </trkpt>
      <trkpt lat="47.43498" lon="6.81419">
        <ele>431</ele>
        <time>2017-03-26T08:50:04.999Z</time>
      </trkpt>
      <trkpt lat="47.43503" lon="6.81422">
        <ele>431</ele>
        <time>2017-03-26T08:50:05.999Z</time>
      </trkpt>
      <trkpt lat="47.43507" lon="6.81427">
        <ele>430.7</ele>
        <time>2017-03-26T08:50:06.999Z</time>
      </trkpt>
      <trkpt lat="47.43513" lon="6.81431">
        <ele>430.5</ele>
        <time>2017-03-26T08:50:07.999Z</time>
      </trkpt>
      <trkpt lat="47.43516" lon="6.81433">
        <ele>430.2</ele>
        <time>2017-03-26T08:50:08.999Z</time>
      </trkpt>
      <trkpt lat="47.43521" lon="6.81435">
        <ele>429.9</ele>
        <time>2017-03-26T08:50:09.999Z</time>
      </trkpt>
      <trkpt lat="47.43527" lon="6.81439">
        <ele>427.6</ele>
        <time>2017-03-26T08:50:10.999Z</time>
      </trkpt>
      <trkpt lat="47.43534" lon="6.81444">
        <ele>426</ele>
        <time>2017-03-26T08:50:11.999Z</time>
      </trkpt>
      <trkpt lat="47.43539" lon="6.8145">
        <ele>424.4</ele>
        <time>2017-03-26T08:50:12.999Z</time>
      </trkpt>
      <trkpt lat="47.43544" lon="6.81454">
        <ele>422.9</ele>
        <time>2017-03-26T08:50:13.999Z</time>
      </trkpt>
      <trkpt lat="47.43548" lon="6.81457">
        <ele>422.7</ele>
        <time>2017-03-26T08:50:14.999Z</time>
      </trkpt>
      <trkpt lat="47.43552" lon="6.81461">
        <ele>422.6</ele>
        <time>2017-03-26T08:50:15.999Z</time>
      </trkpt>
      <trkpt lat="47.43557" lon="6.81465">
        <ele>422.3</ele>
        <time>2017-03-26T08:50:16.999Z</time>
      </trkpt>
      <trkpt lat="47.43561" lon="6.81469">
        <ele>422.2</ele>
        <time>2017-03-26T08:50:17.999Z</time>
      </trkpt>
      <trkpt lat="47.43565" lon="6.81472">
        <ele>421.9</ele>
        <time>2017-03-26T08:50:18.999Z</time>
      </trkpt>
      <trkpt lat="47.43568" lon="6.81476">
        <ele>421.5</ele>
        <time>2017-03-26T08:50:19.999Z</time>
      </trkpt>
      <trkpt lat="47.4357" lon="6.8148">
        <ele>421.4</ele>
        <time>2017-03-26T08:50:20.999Z</time>
      </trkpt>
      <trkpt lat="47.43573" lon="6.81481">
        <ele>421.2</ele>
        <time>2017-03-26T08:50:21.999Z</time>
      </trkpt>
      <trkpt lat="47.43576" lon="6.81483">
        <ele>421.2</ele>
        <time>2017-03-26T08:50:22.999Z</time>
      </trkpt>
      <trkpt lat="47.43579" lon="6.81483">
        <ele>421.3</ele>
        <time>2017-03-26T08:50:23.999Z</time>
      </trkpt>
      <trkpt lat="47.43581" lon="6.81486">
        <ele>421.5</ele>
        <time>2017-03-26T08:50:25.999Z</time>
      </trkpt>
      <trkpt lat="47.43585" lon="6.81489">
        <ele>421.5</ele>
        <time>2017-03-26T08:50:26.999Z</time>
      </trkpt>
      <trkpt lat="47.43587" lon="6.81492">
        <ele>421.8</ele>
        <time>2017-03-26T08:50:28.999Z</time>
      </trkpt>
      <trkpt lat="47.43588" lon="6.81495">
        <ele>421.9</ele>
        <time>2017-03-26T08:50:29.999Z</time>
      </trkpt>
      <trkpt lat="47.43591" lon="6.81496">
        <ele>422.7</ele>
        <time>2017-03-26T08:50:34.999Z</time>
      </trkpt>
      <trkpt lat="47.43592" lon="6.81497">
        <ele>422.9</ele>
        <time>2017-03-26T08:50:35.999Z</time>
      </trkpt>
      <trkpt lat="47.43596" lon="6.81498">
        <ele>423.6</ele>
        <time>2017-03-26T08:50:37.999Z</time>
      </trkpt>
      <trkpt lat="47.43597" lon="6.81498">
        <ele>423.9</ele>
        <time>2017-03-26T08:50:38.999Z</time>
      </trkpt>
      <trkpt lat="47.43597" lon="6.81502">
        <ele>424.4</ele>
        <time>2017-03-26T08:50:40.999Z</time>
      </trkpt>
      <trkpt lat="47.436" lon="6.81504">
        <ele>424.6</ele>
        <time>2017-03-26T08:50:41.999Z</time>
      </trkpt>
      <trkpt lat="47.43604" lon="6.81506">
        <ele>425.7</ele>
        <time>2017-03-26T08:50:46.999Z</time>
      </trkpt>
      <trkpt lat="47.43605" lon="6.81507">
        <ele>425.7</ele>
        <time>2017-03-26T08:50:47.999Z</time>
      </trkpt>
      <trkpt lat="47.43607" lon="6.81508">
        <ele>426</ele>
        <time>2017-03-26T08:50:49.999Z</time>
      </trkpt>
      <trkpt lat="47.4361" lon="6.81509">
        <ele>426.3</ele>
        <time>2017-03-26T08:50:50.999Z</time>
      </trkpt>
      <trkpt lat="47.43614" lon="6.81511">
        <ele>426.7</ele>
        <time>2017-03-26T08:50:53.999Z</time>
      </trkpt>
      <trkpt lat="47.43615" lon="6.81511">
        <ele>426.9</ele>
        <time>2017-03-26T08:50:54.999Z</time>
      </trkpt>
      <trkpt lat="47.43618" lon="6.81513">
        <ele>427.4</ele>
        <time>2017-03-26T08:50:57.999Z</time>
      </trkpt>
      <trkpt lat="47.43621" lon="6.81516">
        <ele>427.5</ele>
        <time>2017-03-26T08:50:58.999Z</time>
      </trkpt>
      <trkpt lat="47.43624" lon="6.8152">
        <ele>427.9</ele>
        <time>2017-03-26T08:51:02.999Z</time>
      </trkpt>
      <trkpt lat="47.43624" lon="6.81521">
        <ele>428</ele>
        <time>2017-03-26T08:51:03.999Z</time>
      </trkpt>
      <trkpt lat="47.43628" lon="6.81523">
        <ele>428.4</ele>
        <time>2017-03-26T08:51:08.999Z</time>
      </trkpt>
      <trkpt lat="47.43629" lon="6.81523">
        <ele>428.4</ele>
        <time>2017-03-26T08:51:09.999Z</time>
      </trkpt>
      <trkpt lat="47.43632" lon="6.81521">
        <ele>428.8</ele>
        <time>2017-03-26T08:51:14.999Z</time>
      </trkpt>
      <trkpt lat="47.43633" lon="6.8152">
        <ele>428.8</ele>
        <time>2017-03-26T08:51:15.999Z</time>
      </trkpt>
      <trkpt lat="47.43636" lon="6.81518">
        <ele>428.6</ele>
        <time>2017-03-26T08:51:18.999Z</time>
      </trkpt>
      <trkpt lat="47.43639" lon="6.81516">
        <ele>428.6</ele>
        <time>2017-03-26T08:51:19.999Z</time>
      </trkpt>
      <trkpt lat="47.43641" lon="6.81511">
        <ele>428.6</ele>
        <time>2017-03-26T08:51:23.999Z</time>
      </trkpt>
      <trkpt lat="47.43641" lon="6.81509">
        <ele>428.6</ele>
        <time>2017-03-26T08:51:24.999Z</time>
      </trkpt>
      <trkpt lat="47.43642" lon="6.81502">
        <ele>428.6</ele>
        <time>2017-03-26T08:51:27.999Z</time>
      </trkpt>
      <trkpt lat="47.43642" lon="6.815">
        <ele>428.6</ele>
        <time>2017-03-26T08:51:28.999Z</time>
      </trkpt>
      <trkpt lat="47.4364" lon="6.81494">
        <ele>429.2</ele>
        <time>2017-03-26T08:51:36.999Z</time>
      </trkpt>
      <trkpt lat="47.43639" lon="6.81495">
        <ele>429.1</ele>
        <time>2017-03-26T08:51:37.999Z</time>
      </trkpt>
      <trkpt lat="47.43636" lon="6.81494">
        <ele>428.7</ele>
        <time>2017-03-26T08:51:39.999Z</time>
      </trkpt>
      <trkpt lat="47.43632" lon="6.81493">
        <ele>428.5</ele>
        <time>2017-03-26T08:51:40.999Z</time>
      </trkpt>
      <trkpt lat="47.43628" lon="6.81492">
        <ele>428.4</ele>
        <time>2017-03-26T08:51:42.999Z</time>
      </trkpt>
      <trkpt lat="47.43627" lon="6.81491">
        <ele>428.2</ele>
        <time>2017-03-26T08:51:43.999Z</time>
      </trkpt>
      <trkpt lat="47.43624" lon="6.81487">
        <ele>427.7</ele>
        <time>2017-03-26T08:51:47.999Z</time>
      </trkpt>
      <trkpt lat="47.43624" lon="6.81485">
        <ele>427.7</ele>
        <time>2017-03-26T08:51:48.999Z</time>
      </trkpt>
      <trkpt lat="47.43621" lon="6.81482">
        <ele>427.7</ele>
        <time>2017-03-26T08:51:51.999Z</time>
      </trkpt>
      <trkpt lat="47.4362" lon="6.81481">
        <ele>427.8</ele>
        <time>2017-03-26T08:51:52.999Z</time>
      </trkpt>
      <trkpt lat="47.43617" lon="6.81477">
        <ele>428</ele>
        <time>2017-03-26T08:51:56.999Z</time>
      </trkpt>
      <trkpt lat="47.43616" lon="6.81476">
        <ele>428.1</ele>
        <time>2017-03-26T08:51:57.999Z</time>
      </trkpt>
      <trkpt lat="47.43613" lon="6.81474">
        <ele>428.1</ele>
        <time>2017-03-26T08:51:58.999Z</time>
      </trkpt>
      <trkpt lat="47.4361" lon="6.81472">
        <ele>428.1</ele>
        <time>2017-03-26T08:51:59.999Z</time>
      </trkpt>
      <trkpt lat="47.43609" lon="6.81469">
        <ele>428.1</ele>
        <time>2017-03-26T08:52:01.999Z</time>
      </trkpt>
      <trkpt lat="47.43607" lon="6.81467">
        <ele>428.1</ele>
        <time>2017-03-26T08:52:02.999Z</time>
      </trkpt>
      <trkpt lat="47.43604" lon="6.81462">
        <ele>428.2</ele>
        <time>2017-03-26T08:52:04.999Z</time>
      </trkpt>
      <trkpt lat="47.43602" lon="6.81459">
        <ele>428.2</ele>
        <time>2017-03-26T08:52:05.999Z</time>
      </trkpt>
      <trkpt lat="47.43603" lon="6.81456">
        <ele>428.3</ele>
        <time>2017-03-26T08:52:07.999Z</time>
      </trkpt>
      <trkpt lat="47.43604" lon="6.8145">
        <ele>428.4</ele>
        <time>2017-03-26T08:52:08.999Z</time>
      </trkpt>
      <trkpt lat="47.43605" lon="6.81446">
        <ele>428.7</ele>
        <time>2017-03-26T08:52:10.999Z</time>
      </trkpt>
      <trkpt lat="47.43605" lon="6.81443">
        <ele>428.8</ele>
        <time>2017-03-26T08:52:11.999Z</time>
      </trkpt>
      <trkpt lat="47.43606" lon="6.81438">
        <ele>429.4</ele>
        <time>2017-03-26T08:52:13.999Z</time>
      </trkpt>
      <trkpt lat="47.43606" lon="6.81436">
        <ele>429.6</ele>
        <time>2017-03-26T08:52:14.999Z</time>
      </trkpt>
      <trkpt lat="47.43607" lon="6.8143">
        <ele>430.6</ele>
        <time>2017-03-26T08:52:17.999Z</time>
      </trkpt>
      <trkpt lat="47.43607" lon="6.81428">
        <ele>430.9</ele>
        <time>2017-03-26T08:52:18.999Z</time>
      </trkpt>
      <trkpt lat="47.43607" lon="6.81425">
        <ele>431.2</ele>
        <time>2017-03-26T08:52:19.999Z</time>
      </trkpt>
      <trkpt lat="47.43607" lon="6.81421">
        <ele>431.4</ele>
        <time>2017-03-26T08:52:20.999Z</time>
      </trkpt>
      <trkpt lat="47.43605" lon="6.81415">
        <ele>431.9</ele>
        <time>2017-03-26T08:52:23.999Z</time>
      </trkpt>
      <trkpt lat="47.43605" lon="6.81415">
        <ele>432.1</ele>
        <time>2017-03-26T08:52:24.999Z</time>
      </trkpt>
      <trkpt lat="47.43605" lon="6.81409">
        <ele>432.4</ele>
        <time>2017-03-26T08:52:29.999Z</time>
      </trkpt>
      <trkpt lat="47.43605" lon="6.81407">
        <ele>432.4</ele>
        <time>2017-03-26T08:52:30.999Z</time>
      </trkpt>
      <trkpt lat="47.43606" lon="6.81402">
        <ele>432.2</ele>
        <time>2017-03-26T08:52:33.999Z</time>
      </trkpt>
      <trkpt lat="47.43608" lon="6.814">
        <ele>432.2</ele>
        <time>2017-03-26T08:52:34.999Z</time>
      </trkpt>
      <trkpt lat="47.43608" lon="6.81396">
        <ele>432.2</ele>
        <time>2017-03-26T08:52:36.999Z</time>
      </trkpt>
      <trkpt lat="47.43609" lon="6.81393">
        <ele>432.2</ele>
        <time>2017-03-26T08:52:37.999Z</time>
      </trkpt>
      <trkpt lat="47.43611" lon="6.81387">
        <ele>432.2</ele>
        <time>2017-03-26T08:52:40.999Z</time>
      </trkpt>
      <trkpt lat="47.43611" lon="6.81386">
        <ele>432.1</ele>
        <time>2017-03-26T08:52:41.999Z</time>
      </trkpt>
      <trkpt lat="47.43613" lon="6.8138">
        <ele>431.9</ele>
        <time>2017-03-26T08:52:43.999Z</time>
      </trkpt>
      <trkpt lat="47.43614" lon="6.81378">
        <ele>432</ele>
        <time>2017-03-26T08:52:44.999Z</time>
      </trkpt>
      <trkpt lat="47.43615" lon="6.81374">
        <ele>432.2</ele>
        <time>2017-03-26T08:52:45.999Z</time>
      </trkpt>
      <trkpt lat="47.43616" lon="6.8137">
        <ele>432.4</ele>
        <time>2017-03-26T08:52:46.999Z</time>
      </trkpt>
      <trkpt lat="47.43618" lon="6.81367">
        <ele>432.6</ele>
        <time>2017-03-26T08:52:47.999Z</time>
      </trkpt>
      <trkpt lat="47.43619" lon="6.81364">
        <ele>432.7</ele>
        <time>2017-03-26T08:52:48.999Z</time>
      </trkpt>
      <trkpt lat="47.4362" lon="6.81361">
        <ele>432.8</ele>
        <time>2017-03-26T08:52:49.999Z</time>
      </trkpt>
      <trkpt lat="47.43622" lon="6.81358">
        <ele>433.1</ele>
        <time>2017-03-26T08:52:50.999Z</time>
      </trkpt>
      <trkpt lat="47.43624" lon="6.81354">
        <ele>433.7</ele>
        <time>2017-03-26T08:52:53.999Z</time>
      </trkpt>
      <trkpt lat="47.43625" lon="6.81351">
        <ele>433.8</ele>
        <time>2017-03-26T08:52:54.999Z</time>
      </trkpt>
      <trkpt lat="47.43627" lon="6.81348">
        <ele>434</ele>
        <time>2017-03-26T08:52:55.999Z</time>
      </trkpt>
      <trkpt lat="47.43627" lon="6.81345">
        <ele>434.2</ele>
        <time>2017-03-26T08:52:56.999Z</time>
      </trkpt>
      <trkpt lat="47.43628" lon="6.81339">
        <ele>434.8</ele>
        <time>2017-03-26T08:52:58.999Z</time>
      </trkpt>
      <trkpt lat="47.43628" lon="6.81338">
        <ele>435.2</ele>
        <time>2017-03-26T08:52:59.999Z</time>
      </trkpt>
      <trkpt lat="47.43628" lon="6.81333">
        <ele>435.8</ele>
        <time>2017-03-26T08:53:01.999Z</time>
      </trkpt>
      <trkpt lat="47.43629" lon="6.81331">
        <ele>436.1</ele>
        <time>2017-03-26T08:53:02.999Z</time>
      </trkpt>
      <trkpt lat="47.43629" lon="6.81326">
        <ele>436.6</ele>
        <time>2017-03-26T08:53:04.999Z</time>
      </trkpt>
      <trkpt lat="47.4363" lon="6.81324">
        <ele>436.9</ele>
        <time>2017-03-26T08:53:05.999Z</time>
      </trkpt>
      <trkpt lat="47.43632" lon="6.81319">
        <ele>437.3</ele>
        <time>2017-03-26T08:53:07.999Z</time>
      </trkpt>
      <trkpt lat="47.43634" lon="6.81314">
        <ele>437.5</ele>
        <time>2017-03-26T08:53:08.999Z</time>
      </trkpt>
      <trkpt lat="47.43637" lon="6.81311">
        <ele>438.1</ele>
        <time>2017-03-26T08:53:10.999Z</time>
      </trkpt>
      <trkpt lat="47.43639" lon="6.81309">
        <ele>438.4</ele>
        <time>2017-03-26T08:53:11.999Z</time>
      </trkpt>
      <trkpt lat="47.4364" lon="6.81305">
        <ele>438.9</ele>
        <time>2017-03-26T08:53:13.999Z</time>
      </trkpt>
      <trkpt lat="47.43641" lon="6.81303">
        <ele>439</ele>
        <time>2017-03-26T08:53:14.999Z</time>
      </trkpt>
      <trkpt lat="47.43643" lon="6.81299">
        <ele>439.7</ele>
        <time>2017-03-26T08:53:17.999Z</time>
      </trkpt>
      <trkpt lat="47.43644" lon="6.81298">
        <ele>439.9</ele>
        <time>2017-03-26T08:53:18.999Z</time>
      </trkpt>
      <trkpt lat="47.43646" lon="6.81295">
        <ele>440.2</ele>
        <time>2017-03-26T08:53:20.999Z</time>
      </trkpt>
      <trkpt lat="47.43647" lon="6.81293">
        <ele>440.3</ele>
        <time>2017-03-26T08:53:21.999Z</time>
      </trkpt>
      <trkpt lat="47.43649" lon="6.81287">
        <ele>440.5</ele>
        <time>2017-03-26T08:53:23.999Z</time>
      </trkpt>
      <trkpt lat="47.43649" lon="6.81284">
        <ele>440.6</ele>
        <time>2017-03-26T08:53:24.999Z</time>
      </trkpt>
      <trkpt lat="47.43651" lon="6.81279">
        <ele>440.8</ele>
        <time>2017-03-26T08:53:26.999Z</time>
      </trkpt>
      <trkpt lat="47.43652" lon="6.81276">
        <ele>440.9</ele>
        <time>2017-03-26T08:53:27.999Z</time>
      </trkpt>
      <trkpt lat="47.43654" lon="6.81274">
        <ele>440.9</ele>
        <time>2017-03-26T08:53:28.999Z</time>
      </trkpt>
      <trkpt lat="47.43656" lon="6.8127">
        <ele>441</ele>
        <time>2017-03-26T08:53:29.999Z</time>
      </trkpt>
      <trkpt lat="47.43659" lon="6.81265">
        <ele>441.1</ele>
        <time>2017-03-26T08:53:31.999Z</time>
      </trkpt>
      <trkpt lat="47.43663" lon="6.81263">
        <ele>441</ele>
        <time>2017-03-26T08:53:32.999Z</time>
      </trkpt>
      <trkpt lat="47.43666" lon="6.8126">
        <ele>441</ele>
        <time>2017-03-26T08:53:33.999Z</time>
      </trkpt>
      <trkpt lat="47.43669" lon="6.81255">
        <ele>441.1</ele>
        <time>2017-03-26T08:53:34.999Z</time>
      </trkpt>
      <trkpt lat="47.43671" lon="6.81253">
        <ele>441.1</ele>
        <time>2017-03-26T08:53:35.999Z</time>
      </trkpt>
      <trkpt lat="47.43674" lon="6.8125">
        <ele>441.2</ele>
        <time>2017-03-26T08:53:36.999Z</time>
      </trkpt>
      <trkpt lat="47.43677" lon="6.81247">
        <ele>441.2</ele>
        <time>2017-03-26T08:53:37.999Z</time>
      </trkpt>
      <trkpt lat="47.43679" lon="6.81244">
        <ele>441.3</ele>
        <time>2017-03-26T08:53:38.999Z</time>
      </trkpt>
      <trkpt lat="47.4368" lon="6.81241">
        <ele>441.4</ele>
        <time>2017-03-26T08:53:39.999Z</time>
      </trkpt>
      <trkpt lat="47.43683" lon="6.81237">
        <ele>441.4</ele>
        <time>2017-03-26T08:53:40.999Z</time>
      </trkpt>
      <trkpt lat="47.43685" lon="6.81233">
        <ele>441.5</ele>
        <time>2017-03-26T08:53:41.999Z</time>
      </trkpt>
      <trkpt lat="47.43688" lon="6.8123">
        <ele>441.6</ele>
        <time>2017-03-26T08:53:42.999Z</time>
      </trkpt>
      <trkpt lat="47.4369" lon="6.81227">
        <ele>441.7</ele>
        <time>2017-03-26T08:53:43.999Z</time>
      </trkpt>
      <trkpt lat="47.43691" lon="6.81223">
        <ele>441.8</ele>
        <time>2017-03-26T08:53:44.999Z</time>
      </trkpt>
      <trkpt lat="47.43693" lon="6.81219">
        <ele>441.9</ele>
        <time>2017-03-26T08:53:45.999Z</time>
      </trkpt>
      <trkpt lat="47.43694" lon="6.81217">
        <ele>441.9</ele>
        <time>2017-03-26T08:53:46.999Z</time>
      </trkpt>
      <trkpt lat="47.43696" lon="6.81212">
        <ele>442</ele>
        <time>2017-03-26T08:53:47.999Z</time>
      </trkpt>
      <trkpt lat="47.43698" lon="6.81208">
        <ele>442</ele>
        <time>2017-03-26T08:53:48.999Z</time>
      </trkpt>
      <trkpt lat="47.437" lon="6.81205">
        <ele>442.1</ele>
        <time>2017-03-26T08:53:49.999Z</time>
      </trkpt>
      <trkpt lat="47.43702" lon="6.81201">
        <ele>442.2</ele>
        <time>2017-03-26T08:53:50.999Z</time>
      </trkpt>
      <trkpt lat="47.43704" lon="6.81198">
        <ele>442.3</ele>
        <time>2017-03-26T08:53:51.999Z</time>
      </trkpt>
      <trkpt lat="47.43704" lon="6.81195">
        <ele>442.3</ele>
        <time>2017-03-26T08:53:52.999Z</time>
      </trkpt>
      <trkpt lat="47.43707" lon="6.81192">
        <ele>442.4</ele>
        <time>2017-03-26T08:53:54.999Z</time>
      </trkpt>
      <trkpt lat="47.43709" lon="6.81188">
        <ele>442.6</ele>
        <time>2017-03-26T08:53:55.999Z</time>
      </trkpt>
      <trkpt lat="47.4371" lon="6.81185">
        <ele>442.7</ele>
        <time>2017-03-26T08:53:56.999Z</time>
      </trkpt>
      <trkpt lat="47.43713" lon="6.81182">
        <ele>442.9</ele>
        <time>2017-03-26T08:53:57.999Z</time>
      </trkpt>
      <trkpt lat="47.43715" lon="6.81176">
        <ele>443</ele>
        <time>2017-03-26T08:53:59.999Z</time>
      </trkpt>
      <trkpt lat="47.43716" lon="6.81171">
        <ele>443.1</ele>
        <time>2017-03-26T08:54:00.999Z</time>
      </trkpt>
      <trkpt lat="47.43719" lon="6.81168">
        <ele>443.2</ele>
        <time>2017-03-26T08:54:01.999Z</time>
      </trkpt>
      <trkpt lat="47.43721" lon="6.81164">
        <ele>443.2</ele>
        <time>2017-03-26T08:54:02.999Z</time>
      </trkpt>
      <trkpt lat="47.43725" lon="6.81161">
        <ele>443.2</ele>
        <time>2017-03-26T08:54:03.999Z</time>
      </trkpt>
      <trkpt lat="47.43726" lon="6.81156">
        <ele>443.1</ele>
        <time>2017-03-26T08:54:04.999Z</time>
      </trkpt>
      <trkpt lat="47.43729" lon="6.81151">
        <ele>443.1</ele>
        <time>2017-03-26T08:54:05.999Z</time>
      </trkpt>
      <trkpt lat="47.43731" lon="6.81148">
        <ele>443.2</ele>
        <time>2017-03-26T08:54:06.999Z</time>
      </trkpt>
      <trkpt lat="47.43732" lon="6.81145">
        <ele>443.2</ele>
        <time>2017-03-26T08:54:07.999Z</time>
      </trkpt>
      <trkpt lat="47.43733" lon="6.81142">
        <ele>443.2</ele>
        <time>2017-03-26T08:54:08.999Z</time>
      </trkpt>
      <trkpt lat="47.43736" lon="6.81138">
        <ele>443.1</ele>
        <time>2017-03-26T08:54:09.999Z</time>
      </trkpt>
      <trkpt lat="47.43738" lon="6.81134">
        <ele>443.1</ele>
        <time>2017-03-26T08:54:10.999Z</time>
      </trkpt>
      <trkpt lat="47.4374" lon="6.81128">
        <ele>443</ele>
        <time>2017-03-26T08:54:11.999Z</time>
      </trkpt>
      <trkpt lat="47.43742" lon="6.81123">
        <ele>442.9</ele>
        <time>2017-03-26T08:54:12.999Z</time>
      </trkpt>
      <trkpt lat="47.43745" lon="6.81119">
        <ele>442.8</ele>
        <time>2017-03-26T08:54:13.999Z</time>
      </trkpt>
      <trkpt lat="47.43749" lon="6.81116">
        <ele>442.6</ele>
        <time>2017-03-26T08:54:14.999Z</time>
      </trkpt>
      <trkpt lat="47.43751" lon="6.81113">
        <ele>442.4</ele>
        <time>2017-03-26T08:54:15.999Z</time>
      </trkpt>
      <trkpt lat="47.43754" lon="6.8111">
        <ele>442.3</ele>
        <time>2017-03-26T08:54:16.999Z</time>
      </trkpt>
      <trkpt lat="47.43757" lon="6.81106">
        <ele>442.1</ele>
        <time>2017-03-26T08:54:17.999Z</time>
      </trkpt>
      <trkpt lat="47.43759" lon="6.81102">
        <ele>441.9</ele>
        <time>2017-03-26T08:54:18.999Z</time>
      </trkpt>
      <trkpt lat="47.43762" lon="6.81099">
        <ele>441.7</ele>
        <time>2017-03-26T08:54:19.999Z</time>
      </trkpt>
      <trkpt lat="47.43764" lon="6.81097">
        <ele>441.5</ele>
        <time>2017-03-26T08:54:20.999Z</time>
      </trkpt>
      <trkpt lat="47.43768" lon="6.81093">
        <ele>441.4</ele>
        <time>2017-03-26T08:54:21.999Z</time>
      </trkpt>
      <trkpt lat="47.43771" lon="6.81088">
        <ele>439.4</ele>
        <time>2017-03-26T08:54:22.999Z</time>
      </trkpt>
      <trkpt lat="47.43774" lon="6.81082">
        <ele>439.3</ele>
        <time>2017-03-26T08:54:23.999Z</time>
      </trkpt>
      <trkpt lat="47.43775" lon="6.81078">
        <ele>439.1</ele>
        <time>2017-03-26T08:54:24.999Z</time>
      </trkpt>
      <trkpt lat="47.43778" lon="6.81073">
        <ele>438.9</ele>
        <time>2017-03-26T08:54:25.999Z</time>
      </trkpt>
      <trkpt lat="47.43779" lon="6.81068">
        <ele>438.7</ele>
        <time>2017-03-26T08:54:26.999Z</time>
      </trkpt>
      <trkpt lat="47.43781" lon="6.81064">
        <ele>438.4</ele>
        <time>2017-03-26T08:54:27.999Z</time>
      </trkpt>
      <trkpt lat="47.43782" lon="6.81058">
        <ele>438.2</ele>
        <time>2017-03-26T08:54:28.999Z</time>
      </trkpt>
      <trkpt lat="47.43784" lon="6.81052">
        <ele>438</ele>
        <time>2017-03-26T08:54:29.999Z</time>
      </trkpt>
      <trkpt lat="47.43786" lon="6.81045">
        <ele>437.8</ele>
        <time>2017-03-26T08:54:30.999Z</time>
      </trkpt>
      <trkpt lat="47.43787" lon="6.8104">
        <ele>437.5</ele>
        <time>2017-03-26T08:54:31.999Z</time>
      </trkpt>
      <trkpt lat="47.43788" lon="6.81034">
        <ele>437.3</ele>
        <time>2017-03-26T08:54:32.999Z</time>
      </trkpt>
      <trkpt lat="47.4379" lon="6.81029">
        <ele>437</ele>
        <time>2017-03-26T08:54:33.999Z</time>
      </trkpt>
      <trkpt lat="47.43792" lon="6.81026">
        <ele>436.6</ele>
        <time>2017-03-26T08:54:34.999Z</time>
      </trkpt>
      <trkpt lat="47.43794" lon="6.81022">
        <ele>436.2</ele>
        <time>2017-03-26T08:54:35.999Z</time>
      </trkpt>
      <trkpt lat="47.43796" lon="6.81018">
        <ele>435.9</ele>
        <time>2017-03-26T08:54:36.999Z</time>
      </trkpt>
      <trkpt lat="47.43801" lon="6.81013">
        <ele>435.9</ele>
        <time>2017-03-26T08:54:37.999Z</time>
      </trkpt>
      <trkpt lat="47.43806" lon="6.81004">
        <ele>436.1</ele>
        <time>2017-03-26T08:54:38.999Z</time>
      </trkpt>
      <trkpt lat="47.4381" lon="6.80996">
        <ele>436.4</ele>
        <time>2017-03-26T08:54:39.999Z</time>
      </trkpt>
      <trkpt lat="47.43814" lon="6.8099">
        <ele>436.7</ele>
        <time>2017-03-26T08:54:40.999Z</time>
      </trkpt>
      <trkpt lat="47.43818" lon="6.80985">
        <ele>437</ele>
        <time>2017-03-26T08:54:41.999Z</time>
      </trkpt>
      <trkpt lat="47.4382" lon="6.80982">
        <ele>437.3</ele>
        <time>2017-03-26T08:54:42.999Z</time>
      </trkpt>
      <trkpt lat="47.43825" lon="6.80981">
        <ele>437.4</ele>
        <time>2017-03-26T08:54:43.999Z</time>
      </trkpt>
      <trkpt lat="47.43828" lon="6.80979">
        <ele>437.5</ele>
        <time>2017-03-26T08:54:44.999Z</time>
      </trkpt>
      <trkpt lat="47.43832" lon="6.80977">
        <ele>437.6</ele>
        <time>2017-03-26T08:54:45.999Z</time>
      </trkpt>
      <trkpt lat="47.43836" lon="6.80974">
        <ele>437.7</ele>
        <time>2017-03-26T08:54:46.999Z</time>
      </trkpt>
      <trkpt lat="47.4384" lon="6.80973">
        <ele>437.7</ele>
        <time>2017-03-26T08:54:47.999Z</time>
      </trkpt>
      <trkpt lat="47.43843" lon="6.80969">
        <ele>437.8</ele>
        <time>2017-03-26T08:54:48.999Z</time>
      </trkpt>
      <trkpt lat="47.43846" lon="6.80966">
        <ele>437.9</ele>
        <time>2017-03-26T08:54:49.999Z</time>
      </trkpt>
      <trkpt lat="47.4385" lon="6.80964">
        <ele>438.1</ele>
        <time>2017-03-26T08:54:50.999Z</time>
      </trkpt>
      <trkpt lat="47.43853" lon="6.80961">
        <ele>438.2</ele>
        <time>2017-03-26T08:54:51.999Z</time>
      </trkpt>
      <trkpt lat="47.43857" lon="6.80959">
        <ele>438.3</ele>
        <time>2017-03-26T08:54:52.999Z</time>
      </trkpt>
      <trkpt lat="47.43858" lon="6.80957">
        <ele>438.4</ele>
        <time>2017-03-26T08:54:53.999Z</time>
      </trkpt>
      <trkpt lat="47.43862" lon="6.80955">
        <ele>438.4</ele>
        <time>2017-03-26T08:54:54.999Z</time>
      </trkpt>
      <trkpt lat="47.43866" lon="6.80951">
        <ele>438.5</ele>
        <time>2017-03-26T08:54:55.999Z</time>
      </trkpt>
      <trkpt lat="47.43875" lon="6.80945">
        <ele>438.7</ele>
        <time>2017-03-26T08:54:56.999Z</time>
      </trkpt>
      <trkpt lat="47.43882" lon="6.8094">
        <ele>438.9</ele>
        <time>2017-03-26T08:54:57.999Z</time>
      </trkpt>
      <trkpt lat="47.43886" lon="6.80935">
        <ele>439.1</ele>
        <time>2017-03-26T08:54:58.999Z</time>
      </trkpt>
      <trkpt lat="47.4389" lon="6.80929">
        <ele>439.3</ele>
        <time>2017-03-26T08:54:59.999Z</time>
      </trkpt>
      <trkpt lat="47.43892" lon="6.80923">
        <ele>439.6</ele>
        <time>2017-03-26T08:55:00.999Z</time>
      </trkpt>
      <trkpt lat="47.43894" lon="6.80918">
        <ele>439.9</ele>
        <time>2017-03-26T08:55:01.999Z</time>
      </trkpt>
      <trkpt lat="47.43896" lon="6.80913">
        <ele>440.1</ele>
        <time>2017-03-26T08:55:02.999Z</time>
      </trkpt>
      <trkpt lat="47.43899" lon="6.80909">
        <ele>440.4</ele>
        <time>2017-03-26T08:55:03.999Z</time>
      </trkpt>
      <trkpt lat="47.43902" lon="6.80897">
        <ele>440.6</ele>
        <time>2017-03-26T08:55:04.999Z</time>
      </trkpt>
      <trkpt lat="47.43905" lon="6.80888">
        <ele>440.8</ele>
        <time>2017-03-26T08:55:05.999Z</time>
      </trkpt>
      <trkpt lat="47.43907" lon="6.80879">
        <ele>440.9</ele>
        <time>2017-03-26T08:55:06.999Z</time>
      </trkpt>
      <trkpt lat="47.4391" lon="6.8087">
        <ele>441</ele>
        <time>2017-03-26T08:55:07.999Z</time>
      </trkpt>
      <trkpt lat="47.43912" lon="6.80863">
        <ele>441.2</ele>
        <time>2017-03-26T08:55:08.999Z</time>
      </trkpt>
      <trkpt lat="47.43914" lon="6.8086">
        <ele>441.3</ele>
        <time>2017-03-26T08:55:09.999Z</time>
      </trkpt>
      <trkpt lat="47.43916" lon="6.80854">
        <ele>441.3</ele>
        <time>2017-03-26T08:55:10.999Z</time>
      </trkpt>
      <trkpt lat="47.43918" lon="6.80847">
        <ele>441.2</ele>
        <time>2017-03-26T08:55:11.999Z</time>
      </trkpt>
      <trkpt lat="47.43919" lon="6.80841">
        <ele>441.2</ele>
        <time>2017-03-26T08:55:12.999Z</time>
      </trkpt>
      <trkpt lat="47.4392" lon="6.80835">
        <ele>441.1</ele>
        <time>2017-03-26T08:55:13.999Z</time>
      </trkpt>
      <trkpt lat="47.43921" lon="6.8083">
        <ele>441</ele>
        <time>2017-03-26T08:55:14.999Z</time>
      </trkpt>
      <trkpt lat="47.43923" lon="6.80824">
        <ele>440.7</ele>
        <time>2017-03-26T08:55:15.999Z</time>
      </trkpt>
      <trkpt lat="47.43925" lon="6.80818">
        <ele>437.9</ele>
        <time>2017-03-26T08:55:16.999Z</time>
      </trkpt>
      <trkpt lat="47.43926" lon="6.80812">
        <ele>436.2</ele>
        <time>2017-03-26T08:55:17.999Z</time>
      </trkpt>
      <trkpt lat="47.43928" lon="6.80808">
        <ele>436</ele>
        <time>2017-03-26T08:55:18.999Z</time>
      </trkpt>
      <trkpt lat="47.43929" lon="6.80803">
        <ele>435.9</ele>
        <time>2017-03-26T08:55:19.999Z</time>
      </trkpt>
      <trkpt lat="47.43931" lon="6.80798">
        <ele>435.6</ele>
        <time>2017-03-26T08:55:20.999Z</time>
      </trkpt>
      <trkpt lat="47.43934" lon="6.80791">
        <ele>433.3</ele>
        <time>2017-03-26T08:55:21.999Z</time>
      </trkpt>
      <trkpt lat="47.43937" lon="6.80783">
        <ele>433.1</ele>
        <time>2017-03-26T08:55:22.999Z</time>
      </trkpt>
      <trkpt lat="47.43941" lon="6.80771">
        <ele>433.1</ele>
        <time>2017-03-26T08:55:23.999Z</time>
      </trkpt>
      <trkpt lat="47.43943" lon="6.80763">
        <ele>433.1</ele>
        <time>2017-03-26T08:55:24.999Z</time>
      </trkpt>
      <trkpt lat="47.43946" lon="6.80756">
        <ele>433.2</ele>
        <time>2017-03-26T08:55:25.999Z</time>
      </trkpt>
      <trkpt lat="47.43949" lon="6.80748">
        <ele>433.3</ele>
        <time>2017-03-26T08:55:26.999Z</time>
      </trkpt>
      <trkpt lat="47.43951" lon="6.80741">
        <ele>433.4</ele>
        <time>2017-03-26T08:55:27.999Z</time>
      </trkpt>
      <trkpt lat="47.43952" lon="6.80736">
        <ele>433.4</ele>
        <time>2017-03-26T08:55:28.999Z</time>
      </trkpt>
      <trkpt lat="47.43954" lon="6.80731">
        <ele>433.3</ele>
        <time>2017-03-26T08:55:29.999Z</time>
      </trkpt>
      <trkpt lat="47.43957" lon="6.80725">
        <ele>433.2</ele>
        <time>2017-03-26T08:55:30.999Z</time>
      </trkpt>
      <trkpt lat="47.43959" lon="6.80719">
        <ele>433.1</ele>
        <time>2017-03-26T08:55:31.999Z</time>
      </trkpt>
      <trkpt lat="47.43961" lon="6.80713">
        <ele>433.2</ele>
        <time>2017-03-26T08:55:32.999Z</time>
      </trkpt>
      <trkpt lat="47.43964" lon="6.80707">
        <ele>433.1</ele>
        <time>2017-03-26T08:55:33.999Z</time>
      </trkpt>
      <trkpt lat="47.43967" lon="6.80703">
        <ele>433.2</ele>
        <time>2017-03-26T08:55:34.999Z</time>
      </trkpt>
      <trkpt lat="47.43968" lon="6.80698">
        <ele>433.3</ele>
        <time>2017-03-26T08:55:35.999Z</time>
      </trkpt>
      <trkpt lat="47.4397" lon="6.80693">
        <ele>433.3</ele>
        <time>2017-03-26T08:55:36.999Z</time>
      </trkpt>
      <trkpt lat="47.43972" lon="6.80688">
        <ele>433.4</ele>
        <time>2017-03-26T08:55:37.999Z</time>
      </trkpt>
      <trkpt lat="47.43974" lon="6.80682">
        <ele>433.5</ele>
        <time>2017-03-26T08:55:38.999Z</time>
      </trkpt>
      <trkpt lat="47.43974" lon="6.80675">
        <ele>433.5</ele>
        <time>2017-03-26T08:55:39.999Z</time>
      </trkpt>
      <trkpt lat="47.43974" lon="6.8067">
        <ele>433.4</ele>
        <time>2017-03-26T08:55:40.999Z</time>
      </trkpt>
      <trkpt lat="47.43973" lon="6.80664">
        <ele>433.4</ele>
        <time>2017-03-26T08:55:41.999Z</time>
      </trkpt>
      <trkpt lat="47.43973" lon="6.80658">
        <ele>433.5</ele>
        <time>2017-03-26T08:55:42.999Z</time>
      </trkpt>
      <trkpt lat="47.43973" lon="6.80653">
        <ele>433.8</ele>
        <time>2017-03-26T08:55:43.999Z</time>
      </trkpt>
      <trkpt lat="47.43973" lon="6.80646">
        <ele>434.1</ele>
        <time>2017-03-26T08:55:44.999Z</time>
      </trkpt>
      <trkpt lat="47.43973" lon="6.80643">
        <ele>434.4</ele>
        <time>2017-03-26T08:55:45.999Z</time>
      </trkpt>
      <trkpt lat="47.43974" lon="6.8064">
        <ele>434.5</ele>
        <time>2017-03-26T08:55:46.999Z</time>
      </trkpt>
      <trkpt lat="47.43975" lon="6.80636">
        <ele>434.7</ele>
        <time>2017-03-26T08:55:47.999Z</time>
      </trkpt>
      <trkpt lat="47.43977" lon="6.80626">
        <ele>435</ele>
        <time>2017-03-26T08:55:48.999Z</time>
      </trkpt>
      <trkpt lat="47.43979" lon="6.80618">
        <ele>435.3</ele>
        <time>2017-03-26T08:55:49.999Z</time>
      </trkpt>
      <trkpt lat="47.43979" lon="6.80613">
        <ele>435.7</ele>
        <time>2017-03-26T08:55:50.999Z</time>
      </trkpt>
      <trkpt lat="47.4398" lon="6.80612">
        <ele>436</ele>
        <time>2017-03-26T08:55:51.999Z</time>
      </trkpt>
      <trkpt lat="47.43981" lon="6.80607">
        <ele>436.5</ele>
        <time>2017-03-26T08:55:53.999Z</time>
      </trkpt>
      <trkpt lat="47.4398" lon="6.80604">
        <ele>436.7</ele>
        <time>2017-03-26T08:55:54.999Z</time>
      </trkpt>
      <trkpt lat="47.4398" lon="6.80601">
        <ele>436.9</ele>
        <time>2017-03-26T08:55:55.999Z</time>
      </trkpt>
      <trkpt lat="47.43981" lon="6.80596">
        <ele>436.9</ele>
        <time>2017-03-26T08:55:56.999Z</time>
      </trkpt>
      <trkpt lat="47.43983" lon="6.80592">
        <ele>437</ele>
        <time>2017-03-26T08:55:58.999Z</time>
      </trkpt>
      <trkpt lat="47.43984" lon="6.80589">
        <ele>436.9</ele>
        <time>2017-03-26T08:55:59.999Z</time>
      </trkpt>
      <trkpt lat="47.43985" lon="6.80583">
        <ele>436.6</ele>
        <time>2017-03-26T08:56:01.999Z</time>
      </trkpt>
      <trkpt lat="47.43984" lon="6.80578">
        <ele>436.5</ele>
        <time>2017-03-26T08:56:02.999Z</time>
      </trkpt>
      <trkpt lat="47.43983" lon="6.80574">
        <ele>436.3</ele>
        <time>2017-03-26T08:56:03.999Z</time>
      </trkpt>
      <trkpt lat="47.43981" lon="6.80572">
        <ele>436.1</ele>
        <time>2017-03-26T08:56:04.999Z</time>
      </trkpt>
      <trkpt lat="47.43979" lon="6.80567">
        <ele>435.9</ele>
        <time>2017-03-26T08:56:05.999Z</time>
      </trkpt>
      <trkpt lat="47.43978" lon="6.80564">
        <ele>435.7</ele>
        <time>2017-03-26T08:56:06.999Z</time>
      </trkpt>
      <trkpt lat="47.43977" lon="6.80562">
        <ele>435.5</ele>
        <time>2017-03-26T08:56:07.999Z</time>
      </trkpt>
      <trkpt lat="47.43973" lon="6.80558">
        <ele>435.3</ele>
        <time>2017-03-26T08:56:08.999Z</time>
      </trkpt>
      <trkpt lat="47.43971" lon="6.80553">
        <ele>432.7</ele>
        <time>2017-03-26T08:56:09.999Z</time>
      </trkpt>
      <trkpt lat="47.43969" lon="6.80548">
        <ele>431</ele>
        <time>2017-03-26T08:56:10.999Z</time>
      </trkpt>
      <trkpt lat="47.43966" lon="6.80546">
        <ele>430.9</ele>
        <time>2017-03-26T08:56:11.999Z</time>
      </trkpt>
      <trkpt lat="47.43962" lon="6.80543">
        <ele>429.6</ele>
        <time>2017-03-26T08:56:12.999Z</time>
      </trkpt>
      <trkpt lat="47.43957" lon="6.80536">
        <ele>429.5</ele>
        <time>2017-03-26T08:56:13.999Z</time>
      </trkpt>
      <trkpt lat="47.4395" lon="6.8052">
        <ele>429.5</ele>
        <time>2017-03-26T08:56:14.999Z</time>
      </trkpt>
      <trkpt lat="47.43948" lon="6.8051">
        <ele>429.5</ele>
        <time>2017-03-26T08:56:15.999Z</time>
      </trkpt>
      <trkpt lat="47.43951" lon="6.805">
        <ele>429.6</ele>
        <time>2017-03-26T08:56:16.999Z</time>
      </trkpt>
      <trkpt lat="47.43955" lon="6.80492">
        <ele>430.2</ele>
        <time>2017-03-26T08:56:17.999Z</time>
      </trkpt>
      <trkpt lat="47.43959" lon="6.80486">
        <ele>430.2</ele>
        <time>2017-03-26T08:56:18.999Z</time>
      </trkpt>
      <trkpt lat="47.43961" lon="6.80484">
        <ele>430.1</ele>
        <time>2017-03-26T08:56:19.999Z</time>
      </trkpt>
      <trkpt lat="47.43963" lon="6.80483">
        <ele>430.1</ele>
        <time>2017-03-26T08:56:20.999Z</time>
      </trkpt>
      <trkpt lat="47.43967" lon="6.80481">
        <ele>430.1</ele>
        <time>2017-03-26T08:56:22.999Z</time>
      </trkpt>
      <trkpt lat="47.4397" lon="6.80479">
        <ele>430.1</ele>
        <time>2017-03-26T08:56:23.999Z</time>
      </trkpt>
      <trkpt lat="47.4397" lon="6.80475">
        <ele>430.1</ele>
        <time>2017-03-26T08:56:25.999Z</time>
      </trkpt>
      <trkpt lat="47.43971" lon="6.80472">
        <ele>430.2</ele>
        <time>2017-03-26T08:56:26.999Z</time>
      </trkpt>
      <trkpt lat="47.43973" lon="6.80466">
        <ele>430.8</ele>
        <time>2017-03-26T08:56:29.999Z</time>
      </trkpt>
      <trkpt lat="47.43976" lon="6.80463">
        <ele>430.9</ele>
        <time>2017-03-26T08:56:30.999Z</time>
      </trkpt>
      <trkpt lat="47.4398" lon="6.8046">
        <ele>431.1</ele>
        <time>2017-03-26T08:56:31.999Z</time>
      </trkpt>
      <trkpt lat="47.43983" lon="6.80457">
        <ele>431.2</ele>
        <time>2017-03-26T08:56:32.999Z</time>
      </trkpt>
      <trkpt lat="47.43986" lon="6.80455">
        <ele>431.5</ele>
        <time>2017-03-26T08:56:33.999Z</time>
      </trkpt>
      <trkpt lat="47.43989" lon="6.80452">
        <ele>431.8</ele>
        <time>2017-03-26T08:56:34.999Z</time>
      </trkpt>
      <trkpt lat="47.43992" lon="6.80449">
        <ele>432.1</ele>
        <time>2017-03-26T08:56:35.999Z</time>
      </trkpt>
      <trkpt lat="47.43997" lon="6.80448">
        <ele>432.3</ele>
        <time>2017-03-26T08:56:36.999Z</time>
      </trkpt>
      <trkpt lat="47.44001" lon="6.80448">
        <ele>432.6</ele>
        <time>2017-03-26T08:56:37.999Z</time>
      </trkpt>
      <trkpt lat="47.44005" lon="6.80447">
        <ele>432.8</ele>
        <time>2017-03-26T08:56:38.999Z</time>
      </trkpt>
      <trkpt lat="47.44008" lon="6.80445">
        <ele>432.8</ele>
        <time>2017-03-26T08:56:39.999Z</time>
      </trkpt>
      <trkpt lat="47.4401" lon="6.80444">
        <ele>432.9</ele>
        <time>2017-03-26T08:56:40.999Z</time>
      </trkpt>
      <trkpt lat="47.44012" lon="6.80442">
        <ele>432.9</ele>
        <time>2017-03-26T08:56:41.999Z</time>
      </trkpt>
      <trkpt lat="47.44015" lon="6.8044">
        <ele>433</ele>
        <time>2017-03-26T08:56:42.999Z</time>
      </trkpt>
      <trkpt lat="47.44018" lon="6.80437">
        <ele>432.9</ele>
        <time>2017-03-26T08:56:43.999Z</time>
      </trkpt>
      <trkpt lat="47.44022" lon="6.80434">
        <ele>432.9</ele>
        <time>2017-03-26T08:56:44.999Z</time>
      </trkpt>
      <trkpt lat="47.44025" lon="6.80431">
        <ele>432.8</ele>
        <time>2017-03-26T08:56:45.999Z</time>
      </trkpt>
      <trkpt lat="47.44028" lon="6.80427">
        <ele>432.8</ele>
        <time>2017-03-26T08:56:46.999Z</time>
      </trkpt>
      <trkpt lat="47.44031" lon="6.80423">
        <ele>432.2</ele>
        <time>2017-03-26T08:56:47.999Z</time>
      </trkpt>
      <trkpt lat="47.44035" lon="6.80419">
        <ele>432.2</ele>
        <time>2017-03-26T08:56:48.999Z</time>
      </trkpt>
      <trkpt lat="47.44038" lon="6.80413">
        <ele>432.2</ele>
        <time>2017-03-26T08:56:49.999Z</time>
      </trkpt>
      <trkpt lat="47.4404" lon="6.80409">
        <ele>432.2</ele>
        <time>2017-03-26T08:56:50.999Z</time>
      </trkpt>
      <trkpt lat="47.44043" lon="6.80405">
        <ele>432.1</ele>
        <time>2017-03-26T08:56:51.999Z</time>
      </trkpt>
      <trkpt lat="47.44046" lon="6.80401">
        <ele>432.1</ele>
        <time>2017-03-26T08:56:52.999Z</time>
      </trkpt>
      <trkpt lat="47.44047" lon="6.80395">
        <ele>432</ele>
        <time>2017-03-26T08:56:53.999Z</time>
      </trkpt>
      <trkpt lat="47.44048" lon="6.80391">
        <ele>431.9</ele>
        <time>2017-03-26T08:56:54.999Z</time>
      </trkpt>
      <trkpt lat="47.44049" lon="6.80386">
        <ele>431.8</ele>
        <time>2017-03-26T08:56:55.999Z</time>
      </trkpt>
      <trkpt lat="47.44052" lon="6.8038">
        <ele>431.8</ele>
        <time>2017-03-26T08:56:56.999Z</time>
      </trkpt>
      <trkpt lat="47.44054" lon="6.80377">
        <ele>431.6</ele>
        <time>2017-03-26T08:56:57.999Z</time>
      </trkpt>
      <trkpt lat="47.44056" lon="6.80375">
        <ele>431.5</ele>
        <time>2017-03-26T08:56:58.999Z</time>
      </trkpt>
      <trkpt lat="47.44057" lon="6.80371">
        <ele>431.2</ele>
        <time>2017-03-26T08:57:00.999Z</time>
      </trkpt>
      <trkpt lat="47.44059" lon="6.80368">
        <ele>431</ele>
        <time>2017-03-26T08:57:01.999Z</time>
      </trkpt>
      <trkpt lat="47.44061" lon="6.80364">
        <ele>430.8</ele>
        <time>2017-03-26T08:57:02.999Z</time>
      </trkpt>
      <trkpt lat="47.44062" lon="6.80361">
        <ele>430.7</ele>
        <time>2017-03-26T08:57:03.999Z</time>
      </trkpt>
      <trkpt lat="47.44064" lon="6.80357">
        <ele>430.5</ele>
        <time>2017-03-26T08:57:05.999Z</time>
      </trkpt>
      <trkpt lat="47.44064" lon="6.80354">
        <ele>430.3</ele>
        <time>2017-03-26T08:57:06.999Z</time>
      </trkpt>
      <trkpt lat="47.44067" lon="6.80348">
        <ele>430.4</ele>
        <time>2017-03-26T08:57:07.999Z</time>
      </trkpt>
      <trkpt lat="47.44069" lon="6.80342">
        <ele>430.5</ele>
        <time>2017-03-26T08:57:08.999Z</time>
      </trkpt>
      <trkpt lat="47.44071" lon="6.80337">
        <ele>430.5</ele>
        <time>2017-03-26T08:57:09.999Z</time>
      </trkpt>
      <trkpt lat="47.44073" lon="6.80333">
        <ele>430.6</ele>
        <time>2017-03-26T08:57:10.999Z</time>
      </trkpt>
      <trkpt lat="47.44075" lon="6.80329">
        <ele>430.7</ele>
        <time>2017-03-26T08:57:11.999Z</time>
      </trkpt>
      <trkpt lat="47.44078" lon="6.80326">
        <ele>431.2</ele>
        <time>2017-03-26T08:57:13.999Z</time>
      </trkpt>
      <trkpt lat="47.44079" lon="6.80322">
        <ele>431.5</ele>
        <time>2017-03-26T08:57:14.999Z</time>
      </trkpt>
      <trkpt lat="47.4408" lon="6.80318">
        <ele>431.9</ele>
        <time>2017-03-26T08:57:15.999Z</time>
      </trkpt>
      <trkpt lat="47.4408" lon="6.80314">
        <ele>432.3</ele>
        <time>2017-03-26T08:57:16.999Z</time>
      </trkpt>
      <trkpt lat="47.44082" lon="6.80309">
        <ele>432.7</ele>
        <time>2017-03-26T08:57:17.999Z</time>
      </trkpt>
      <trkpt lat="47.44083" lon="6.80299">
        <ele>433.1</ele>
        <time>2017-03-26T08:57:18.999Z</time>
      </trkpt>
      <trkpt lat="47.44086" lon="6.80295">
        <ele>433.4</ele>
        <time>2017-03-26T08:57:19.999Z</time>
      </trkpt>
      <trkpt lat="47.44088" lon="6.80292">
        <ele>433.8</ele>
        <time>2017-03-26T08:57:20.999Z</time>
      </trkpt>
      <trkpt lat="47.4409" lon="6.80286">
        <ele>434.7</ele>
        <time>2017-03-26T08:57:23.999Z</time>
      </trkpt>
      <trkpt lat="47.44092" lon="6.80283">
        <ele>434.9</ele>
        <time>2017-03-26T08:57:24.999Z</time>
      </trkpt>
      <trkpt lat="47.44093" lon="6.80277">
        <ele>435.5</ele>
        <time>2017-03-26T08:57:27.999Z</time>
      </trkpt>
      <trkpt lat="47.44094" lon="6.80275">
        <ele>435.6</ele>
        <time>2017-03-26T08:57:28.999Z</time>
      </trkpt>
      <trkpt lat="47.44093" lon="6.8027">
        <ele>435.7</ele>
        <time>2017-03-26T08:57:31.999Z</time>
      </trkpt>
      <trkpt lat="47.44093" lon="6.80267">
        <ele>435.6</ele>
        <time>2017-03-26T08:57:32.999Z</time>
      </trkpt>
      <trkpt lat="47.44094" lon="6.80262">
        <ele>435.4</ele>
        <time>2017-03-26T08:57:34.999Z</time>
      </trkpt>
      <trkpt lat="47.44094" lon="6.80258">
        <ele>435.3</ele>
        <time>2017-03-26T08:57:35.999Z</time>
      </trkpt>
      <trkpt lat="47.44094" lon="6.80255">
        <ele>435.3</ele>
        <time>2017-03-26T08:57:36.999Z</time>
      </trkpt>
      <trkpt lat="47.44095" lon="6.8025">
        <ele>435.5</ele>
        <time>2017-03-26T08:57:37.999Z</time>
      </trkpt>
      <trkpt lat="47.44097" lon="6.80245">
        <ele>435.7</ele>
        <time>2017-03-26T08:57:38.999Z</time>
      </trkpt>
      <trkpt lat="47.44098" lon="6.8024">
        <ele>435.9</ele>
        <time>2017-03-26T08:57:39.999Z</time>
      </trkpt>
      <trkpt lat="47.441" lon="6.80235">
        <ele>436.2</ele>
        <time>2017-03-26T08:57:40.999Z</time>
      </trkpt>
      <trkpt lat="47.44102" lon="6.80231">
        <ele>436.6</ele>
        <time>2017-03-26T08:57:41.999Z</time>
      </trkpt>
      <trkpt lat="47.44105" lon="6.80228">
        <ele>437.1</ele>
        <time>2017-03-26T08:57:42.999Z</time>
      </trkpt>
      <trkpt lat="47.44107" lon="6.80226">
        <ele>437.5</ele>
        <time>2017-03-26T08:57:43.999Z</time>
      </trkpt>
      <trkpt lat="47.44109" lon="6.80224">
        <ele>438.1</ele>
        <time>2017-03-26T08:57:44.999Z</time>
      </trkpt>
      <trkpt lat="47.44111" lon="6.80221">
        <ele>438.5</ele>
        <time>2017-03-26T08:57:45.999Z</time>
      </trkpt>
      <trkpt lat="47.44113" lon="6.80218">
        <ele>438.9</ele>
        <time>2017-03-26T08:57:46.999Z</time>
      </trkpt>
      <trkpt lat="47.44115" lon="6.80214">
        <ele>439.3</ele>
        <time>2017-03-26T08:57:47.999Z</time>
      </trkpt>
      <trkpt lat="47.44118" lon="6.80211">
        <ele>440.3</ele>
        <time>2017-03-26T08:57:52.999Z</time>
      </trkpt>
      <trkpt lat="47.4412" lon="6.8021">
        <ele>440.5</ele>
        <time>2017-03-26T08:57:53.999Z</time>
      </trkpt>
      <trkpt lat="47.44123" lon="6.80208">
        <ele>440.8</ele>
        <time>2017-03-26T08:57:56.999Z</time>
      </trkpt>
      <trkpt lat="47.44125" lon="6.80207">
        <ele>440.7</ele>
        <time>2017-03-26T08:57:57.999Z</time>
      </trkpt>
      <trkpt lat="47.44129" lon="6.80204">
        <ele>440.7</ele>
        <time>2017-03-26T08:57:58.999Z</time>
      </trkpt>
      <trkpt lat="47.44131" lon="6.802">
        <ele>440.6</ele>
        <time>2017-03-26T08:57:59.999Z</time>
      </trkpt>
      <trkpt lat="47.44134" lon="6.80198">
        <ele>440.4</ele>
        <time>2017-03-26T08:58:00.999Z</time>
      </trkpt>
      <trkpt lat="47.44136" lon="6.80196">
        <ele>440.3</ele>
        <time>2017-03-26T08:58:01.999Z</time>
      </trkpt>
      <trkpt lat="47.4414" lon="6.80199">
        <ele>440</ele>
        <time>2017-03-26T08:58:03.999Z</time>
      </trkpt>
      <trkpt lat="47.4414" lon="6.80205">
        <ele>439.8</ele>
        <time>2017-03-26T08:58:04.999Z</time>
      </trkpt>
      <trkpt lat="47.4414" lon="6.8021">
        <ele>439.5</ele>
        <time>2017-03-26T08:58:05.999Z</time>
      </trkpt>
      <trkpt lat="47.44141" lon="6.80218">
        <ele>439.3</ele>
        <time>2017-03-26T08:58:06.999Z</time>
      </trkpt>
      <trkpt lat="47.44142" lon="6.80224">
        <ele>439.1</ele>
        <time>2017-03-26T08:58:07.999Z</time>
      </trkpt>
      <trkpt lat="47.44143" lon="6.8023">
        <ele>439</ele>
        <time>2017-03-26T08:58:08.999Z</time>
      </trkpt>
      <trkpt lat="47.44146" lon="6.80237">
        <ele>438.8</ele>
        <time>2017-03-26T08:58:09.999Z</time>
      </trkpt>
      <trkpt lat="47.44151" lon="6.80242">
        <ele>437.6</ele>
        <time>2017-03-26T08:58:10.999Z</time>
      </trkpt>
      <trkpt lat="47.44156" lon="6.80247">
        <ele>436.9</ele>
        <time>2017-03-26T08:58:11.999Z</time>
      </trkpt>
      <trkpt lat="47.44161" lon="6.80251">
        <ele>436</ele>
        <time>2017-03-26T08:58:12.999Z</time>
      </trkpt>
      <trkpt lat="47.44168" lon="6.80254">
        <ele>435.3</ele>
        <time>2017-03-26T08:58:13.999Z</time>
      </trkpt>
      <trkpt lat="47.44175" lon="6.80259">
        <ele>434.5</ele>
        <time>2017-03-26T08:58:14.999Z</time>
      </trkpt>
      <trkpt lat="47.44181" lon="6.80263">
        <ele>434.2</ele>
        <time>2017-03-26T08:58:15.999Z</time>
      </trkpt>
      <trkpt lat="47.44188" lon="6.80269">
        <ele>433.4</ele>
        <time>2017-03-26T08:58:16.999Z</time>
      </trkpt>
      <trkpt lat="47.44196" lon="6.80273">
        <ele>432.3</ele>
        <time>2017-03-26T08:58:17.999Z</time>
      </trkpt>
      <trkpt lat="47.44202" lon="6.80273">
        <ele>432.3</ele>
        <time>2017-03-26T08:58:18.999Z</time>
      </trkpt>
      <trkpt lat="47.44208" lon="6.80269">
        <ele>431.5</ele>
        <time>2017-03-26T08:58:19.999Z</time>
      </trkpt>
      <trkpt lat="47.44214" lon="6.80267">
        <ele>431.3</ele>
        <time>2017-03-26T08:58:20.999Z</time>
      </trkpt>
      <trkpt lat="47.4422" lon="6.80267">
        <ele>431.3</ele>
        <time>2017-03-26T08:58:21.999Z</time>
      </trkpt>
      <trkpt lat="47.44226" lon="6.80267">
        <ele>431</ele>
        <time>2017-03-26T08:58:22.999Z</time>
      </trkpt>
      <trkpt lat="47.44233" lon="6.80267">
        <ele>430.5</ele>
        <time>2017-03-26T08:58:23.999Z</time>
      </trkpt>
      <trkpt lat="47.44239" lon="6.80267">
        <ele>430.6</ele>
        <time>2017-03-26T08:58:24.999Z</time>
      </trkpt>
      <trkpt lat="47.44243" lon="6.80265">
        <ele>430.3</ele>
        <time>2017-03-26T08:58:25.999Z</time>
      </trkpt>
      <trkpt lat="47.44249" lon="6.80262">
        <ele>428.9</ele>
        <time>2017-03-26T08:58:26.999Z</time>
      </trkpt>
      <trkpt lat="47.44252" lon="6.8026">
        <ele>428.8</ele>
        <time>2017-03-26T08:58:27.999Z</time>
      </trkpt>
      <trkpt lat="47.44255" lon="6.80255">
        <ele>427.5</ele>
        <time>2017-03-26T08:58:28.999Z</time>
      </trkpt>
      <trkpt lat="47.44258" lon="6.80248">
        <ele>426.2</ele>
        <time>2017-03-26T08:58:29.999Z</time>
      </trkpt>
      <trkpt lat="47.4426" lon="6.80242">
        <ele>426.1</ele>
        <time>2017-03-26T08:58:30.999Z</time>
      </trkpt>
      <trkpt lat="47.44264" lon="6.80231">
        <ele>426</ele>
        <time>2017-03-26T08:58:31.999Z</time>
      </trkpt>
      <trkpt lat="47.44266" lon="6.80222">
        <ele>426</ele>
        <time>2017-03-26T08:58:32.999Z</time>
      </trkpt>
      <trkpt lat="47.44267" lon="6.80215">
        <ele>426</ele>
        <time>2017-03-26T08:58:33.999Z</time>
      </trkpt>
      <trkpt lat="47.44265" lon="6.80208">
        <ele>425.5</ele>
        <time>2017-03-26T08:58:34.999Z</time>
      </trkpt>
      <trkpt lat="47.44264" lon="6.80202">
        <ele>425.4</ele>
        <time>2017-03-26T08:58:35.999Z</time>
      </trkpt>
      <trkpt lat="47.44265" lon="6.80193">
        <ele>425.4</ele>
        <time>2017-03-26T08:58:36.999Z</time>
      </trkpt>
      <trkpt lat="47.44265" lon="6.80185">
        <ele>425.3</ele>
        <time>2017-03-26T08:58:37.999Z</time>
      </trkpt>
      <trkpt lat="47.44265" lon="6.80181">
        <ele>425.3</ele>
        <time>2017-03-26T08:58:38.999Z</time>
      </trkpt>
      <trkpt lat="47.44266" lon="6.80178">
        <ele>425</ele>
        <time>2017-03-26T08:58:39.999Z</time>
      </trkpt>
      <trkpt lat="47.4427" lon="6.80173">
        <ele>424.8</ele>
        <time>2017-03-26T08:58:40.999Z</time>
      </trkpt>
      <trkpt lat="47.44273" lon="6.80171">
        <ele>424.7</ele>
        <time>2017-03-26T08:58:41.999Z</time>
      </trkpt>
      <trkpt lat="47.44275" lon="6.80167">
        <ele>424.5</ele>
        <time>2017-03-26T08:58:42.999Z</time>
      </trkpt>
      <trkpt lat="47.44279" lon="6.80162">
        <ele>422.5</ele>
        <time>2017-03-26T08:58:43.999Z</time>
      </trkpt>
      <trkpt lat="47.44283" lon="6.80156">
        <ele>420.6</ele>
        <time>2017-03-26T08:58:44.999Z</time>
      </trkpt>
      <trkpt lat="47.44287" lon="6.80149">
        <ele>418.5</ele>
        <time>2017-03-26T08:58:45.999Z</time>
      </trkpt>
      <trkpt lat="47.44289" lon="6.80141">
        <ele>416.9</ele>
        <time>2017-03-26T08:58:46.999Z</time>
      </trkpt>
      <trkpt lat="47.44291" lon="6.80134">
        <ele>416.2</ele>
        <time>2017-03-26T08:58:47.999Z</time>
      </trkpt>
      <trkpt lat="47.44293" lon="6.80126">
        <ele>415.4</ele>
        <time>2017-03-26T08:58:48.999Z</time>
      </trkpt>
      <trkpt lat="47.44295" lon="6.80118">
        <ele>414.5</ele>
        <time>2017-03-26T08:58:49.999Z</time>
      </trkpt>
      <trkpt lat="47.44296" lon="6.80112">
        <ele>414.4</ele>
        <time>2017-03-26T08:58:50.999Z</time>
      </trkpt>
      <trkpt lat="47.44297" lon="6.80106">
        <ele>414.4</ele>
        <time>2017-03-26T08:58:51.999Z</time>
      </trkpt>
      <trkpt lat="47.44298" lon="6.80099">
        <ele>414.4</ele>
        <time>2017-03-26T08:58:52.999Z</time>
      </trkpt>
      <trkpt lat="47.443" lon="6.80093">
        <ele>414.3</ele>
        <time>2017-03-26T08:58:53.999Z</time>
      </trkpt>
      <trkpt lat="47.44301" lon="6.80087">
        <ele>414.3</ele>
        <time>2017-03-26T08:58:54.999Z</time>
      </trkpt>
      <trkpt lat="47.44302" lon="6.8008">
        <ele>414.3</ele>
        <time>2017-03-26T08:58:55.999Z</time>
      </trkpt>
      <trkpt lat="47.44303" lon="6.80074">
        <ele>414.2</ele>
        <time>2017-03-26T08:58:56.999Z</time>
      </trkpt>
      <trkpt lat="47.44304" lon="6.80067">
        <ele>414</ele>
        <time>2017-03-26T08:58:57.999Z</time>
      </trkpt>
      <trkpt lat="47.44304" lon="6.80061">
        <ele>413.9</ele>
        <time>2017-03-26T08:58:58.999Z</time>
      </trkpt>
      <trkpt lat="47.44305" lon="6.80055">
        <ele>413.7</ele>
        <time>2017-03-26T08:58:59.999Z</time>
      </trkpt>
      <trkpt lat="47.44305" lon="6.80043">
        <ele>413.7</ele>
        <time>2017-03-26T08:59:00.999Z</time>
      </trkpt>
      <trkpt lat="47.44306" lon="6.80036">
        <ele>413.6</ele>
        <time>2017-03-26T08:59:01.999Z</time>
      </trkpt>
      <trkpt lat="47.44307" lon="6.80031">
        <ele>413.5</ele>
        <time>2017-03-26T08:59:02.999Z</time>
      </trkpt>
      <trkpt lat="47.44308" lon="6.8002">
        <ele>413.6</ele>
        <time>2017-03-26T08:59:03.999Z</time>
      </trkpt>
      <trkpt lat="47.4431" lon="6.80014">
        <ele>413.7</ele>
        <time>2017-03-26T08:59:04.999Z</time>
      </trkpt>
      <trkpt lat="47.44311" lon="6.80008">
        <ele>413.7</ele>
        <time>2017-03-26T08:59:05.999Z</time>
      </trkpt>
      <trkpt lat="47.44312" lon="6.80004">
        <ele>413.7</ele>
        <time>2017-03-26T08:59:06.999Z</time>
      </trkpt>
      <trkpt lat="47.44313" lon="6.79998">
        <ele>413.6</ele>
        <time>2017-03-26T08:59:07.999Z</time>
      </trkpt>
      <trkpt lat="47.44313" lon="6.79993">
        <ele>413.4</ele>
        <time>2017-03-26T08:59:08.999Z</time>
      </trkpt>
      <trkpt lat="47.44312" lon="6.79988">
        <ele>413.2</ele>
        <time>2017-03-26T08:59:09.999Z</time>
      </trkpt>
      <trkpt lat="47.44313" lon="6.79983">
        <ele>412.9</ele>
        <time>2017-03-26T08:59:10.999Z</time>
      </trkpt>
      <trkpt lat="47.44314" lon="6.79978">
        <ele>412.7</ele>
        <time>2017-03-26T08:59:11.999Z</time>
      </trkpt>
      <trkpt lat="47.44315" lon="6.7997">
        <ele>412.4</ele>
        <time>2017-03-26T08:59:12.999Z</time>
      </trkpt>
      <trkpt lat="47.44317" lon="6.79963">
        <ele>412.2</ele>
        <time>2017-03-26T08:59:13.999Z</time>
      </trkpt>
      <trkpt lat="47.4432" lon="6.79956">
        <ele>411.9</ele>
        <time>2017-03-26T08:59:14.999Z</time>
      </trkpt>
      <trkpt lat="47.44322" lon="6.7995">
        <ele>411.6</ele>
        <time>2017-03-26T08:59:15.999Z</time>
      </trkpt>
      <trkpt lat="47.44324" lon="6.79943">
        <ele>411.4</ele>
        <time>2017-03-26T08:59:16.999Z</time>
      </trkpt>
      <trkpt lat="47.44328" lon="6.79937">
        <ele>408.3</ele>
        <time>2017-03-26T08:59:17.999Z</time>
      </trkpt>
      <trkpt lat="47.4433" lon="6.79931">
        <ele>408.1</ele>
        <time>2017-03-26T08:59:18.999Z</time>
      </trkpt>
      <trkpt lat="47.44334" lon="6.79922">
        <ele>408.3</ele>
        <time>2017-03-26T08:59:19.999Z</time>
      </trkpt>
      <trkpt lat="47.44338" lon="6.79915">
        <ele>408.3</ele>
        <time>2017-03-26T08:59:20.999Z</time>
      </trkpt>
      <trkpt lat="47.44342" lon="6.79907">
        <ele>408.4</ele>
        <time>2017-03-26T08:59:21.999Z</time>
      </trkpt>
      <trkpt lat="47.44346" lon="6.79902">
        <ele>408.5</ele>
        <time>2017-03-26T08:59:22.999Z</time>
      </trkpt>
      <trkpt lat="47.4435" lon="6.79895">
        <ele>408.5</ele>
        <time>2017-03-26T08:59:23.999Z</time>
      </trkpt>
      <trkpt lat="47.44354" lon="6.79887">
        <ele>408.1</ele>
        <time>2017-03-26T08:59:24.999Z</time>
      </trkpt>
      <trkpt lat="47.44357" lon="6.79882">
        <ele>408</ele>
        <time>2017-03-26T08:59:25.999Z</time>
      </trkpt>
      <trkpt lat="47.44361" lon="6.79879">
        <ele>408</ele>
        <time>2017-03-26T08:59:26.999Z</time>
      </trkpt>
      <trkpt lat="47.4437" lon="6.79873">
        <ele>408.1</ele>
        <time>2017-03-26T08:59:27.999Z</time>
      </trkpt>
      <trkpt lat="47.44378" lon="6.7987">
        <ele>408.3</ele>
        <time>2017-03-26T08:59:28.999Z</time>
      </trkpt>
      <trkpt lat="47.44383" lon="6.7987">
        <ele>408.7</ele>
        <time>2017-03-26T08:59:29.999Z</time>
      </trkpt>
      <trkpt lat="47.44387" lon="6.79872">
        <ele>409.1</ele>
        <time>2017-03-26T08:59:30.999Z</time>
      </trkpt>
      <trkpt lat="47.44393" lon="6.79875">
        <ele>409.5</ele>
        <time>2017-03-26T08:59:31.999Z</time>
      </trkpt>
      <trkpt lat="47.444" lon="6.79876">
        <ele>412.7</ele>
        <time>2017-03-26T08:59:32.999Z</time>
      </trkpt>
      <trkpt lat="47.44407" lon="6.79879">
        <ele>414.4</ele>
        <time>2017-03-26T08:59:33.999Z</time>
      </trkpt>
      <trkpt lat="47.44415" lon="6.79882">
        <ele>415.3</ele>
        <time>2017-03-26T08:59:34.999Z</time>
      </trkpt>
      <trkpt lat="47.44422" lon="6.79885">
        <ele>417</ele>
        <time>2017-03-26T08:59:35.999Z</time>
      </trkpt>
      <trkpt lat="47.4443" lon="6.79889">
        <ele>418.3</ele>
        <time>2017-03-26T08:59:36.999Z</time>
      </trkpt>
      <trkpt lat="47.44437" lon="6.79893">
        <ele>419.4</ele>
        <time>2017-03-26T08:59:37.999Z</time>
      </trkpt>
      <trkpt lat="47.44445" lon="6.79896">
        <ele>419.9</ele>
        <time>2017-03-26T08:59:38.999Z</time>
      </trkpt>
      <trkpt lat="47.44453" lon="6.799">
        <ele>420.9</ele>
        <time>2017-03-26T08:59:39.999Z</time>
      </trkpt>
      <trkpt lat="47.44461" lon="6.79904">
        <ele>421.3</ele>
        <time>2017-03-26T08:59:40.999Z</time>
      </trkpt>
      <trkpt lat="47.44468" lon="6.79907">
        <ele>421.5</ele>
        <time>2017-03-26T08:59:41.999Z</time>
      </trkpt>
      <trkpt lat="47.44476" lon="6.7991">
        <ele>421.1</ele>
        <time>2017-03-26T08:59:42.999Z</time>
      </trkpt>
      <trkpt lat="47.44484" lon="6.79914">
        <ele>420.6</ele>
        <time>2017-03-26T08:59:43.999Z</time>
      </trkpt>
      <trkpt lat="47.44492" lon="6.79916">
        <ele>420.3</ele>
        <time>2017-03-26T08:59:44.999Z</time>
      </trkpt>
      <trkpt lat="47.445" lon="6.79917">
        <ele>419.7</ele>
        <time>2017-03-26T08:59:45.999Z</time>
      </trkpt>
      <trkpt lat="47.44509" lon="6.79918">
        <ele>419.7</ele>
        <time>2017-03-26T08:59:46.999Z</time>
      </trkpt>
      <trkpt lat="47.44518" lon="6.79919">
        <ele>419.6</ele>
        <time>2017-03-26T08:59:47.999Z</time>
      </trkpt>
      <trkpt lat="47.44526" lon="6.79919">
        <ele>418.7</ele>
        <time>2017-03-26T08:59:48.999Z</time>
      </trkpt>
      <trkpt lat="47.44534" lon="6.7992">
        <ele>418.2</ele>
        <time>2017-03-26T08:59:49.999Z</time>
      </trkpt>
      <trkpt lat="47.44542" lon="6.79922">
        <ele>417.9</ele>
        <time>2017-03-26T08:59:50.999Z</time>
      </trkpt>
      <trkpt lat="47.44549" lon="6.79924">
        <ele>417.3</ele>
        <time>2017-03-26T08:59:51.999Z</time>
      </trkpt>
      <trkpt lat="47.44556" lon="6.79926">
        <ele>417.1</ele>
        <time>2017-03-26T08:59:52.999Z</time>
      </trkpt>
      <trkpt lat="47.44564" lon="6.79929">
        <ele>416.8</ele>
        <time>2017-03-26T08:59:53.999Z</time>
      </trkpt>
      <trkpt lat="47.44571" lon="6.79931">
        <ele>416.3</ele>
        <time>2017-03-26T08:59:54.999Z</time>
      </trkpt>
      <trkpt lat="47.44578" lon="6.79934">
        <ele>416.2</ele>
        <time>2017-03-26T08:59:55.999Z</time>
      </trkpt>
      <trkpt lat="47.44585" lon="6.79937">
        <ele>415.8</ele>
        <time>2017-03-26T08:59:56.999Z</time>
      </trkpt>
      <trkpt lat="47.44592" lon="6.79939">
        <ele>415.5</ele>
        <time>2017-03-26T08:59:57.999Z</time>
      </trkpt>
      <trkpt lat="47.44598" lon="6.79942">
        <ele>415.3</ele>
        <time>2017-03-26T08:59:58.999Z</time>
      </trkpt>
      <trkpt lat="47.44605" lon="6.79944">
        <ele>415.4</ele>
        <time>2017-03-26T08:59:59.999Z</time>
      </trkpt>
      <trkpt lat="47.44613" lon="6.79947">
        <ele>415.6</ele>
        <time>2017-03-26T09:00:00.999Z</time>
      </trkpt>
      <trkpt lat="47.44619" lon="6.7995">
        <ele>415.3</ele>
        <time>2017-03-26T09:00:01.999Z</time>
      </trkpt>
      <trkpt lat="47.44626" lon="6.79953">
        <ele>415</ele>
        <time>2017-03-26T09:00:02.999Z</time>
      </trkpt>
      <trkpt lat="47.44632" lon="6.79955">
        <ele>415</ele>
        <time>2017-03-26T09:00:03.999Z</time>
      </trkpt>
      <trkpt lat="47.44637" lon="6.79957">
        <ele>415.7</ele>
        <time>2017-03-26T09:00:04.999Z</time>
      </trkpt>
      <trkpt lat="47.44643" lon="6.79958">
        <ele>415.9</ele>
        <time>2017-03-26T09:00:05.999Z</time>
      </trkpt>
      <trkpt lat="47.4465" lon="6.7996">
        <ele>416.5</ele>
        <time>2017-03-26T09:00:06.999Z</time>
      </trkpt>
      <trkpt lat="47.44656" lon="6.79961">
        <ele>416.2</ele>
        <time>2017-03-26T09:00:07.999Z</time>
      </trkpt>
      <trkpt lat="47.44662" lon="6.79962">
        <ele>416</ele>
        <time>2017-03-26T09:00:08.999Z</time>
      </trkpt>
      <trkpt lat="47.44669" lon="6.79964">
        <ele>415.7</ele>
        <time>2017-03-26T09:00:09.999Z</time>
      </trkpt>
      <trkpt lat="47.44676" lon="6.79965">
        <ele>416.2</ele>
        <time>2017-03-26T09:00:10.999Z</time>
      </trkpt>
      <trkpt lat="47.44683" lon="6.79966">
        <ele>416.4</ele>
        <time>2017-03-26T09:00:11.999Z</time>
      </trkpt>
      <trkpt lat="47.4469" lon="6.79967">
        <ele>415.7</ele>
        <time>2017-03-26T09:00:12.999Z</time>
      </trkpt>
      <trkpt lat="47.44696" lon="6.79968">
        <ele>414.9</ele>
        <time>2017-03-26T09:00:13.999Z</time>
      </trkpt>
      <trkpt lat="47.44703" lon="6.79968">
        <ele>414.1</ele>
        <time>2017-03-26T09:00:14.999Z</time>
      </trkpt>
      <trkpt lat="47.4471" lon="6.79969">
        <ele>413.5</ele>
        <time>2017-03-26T09:00:15.999Z</time>
      </trkpt>
      <trkpt lat="47.44717" lon="6.7997">
        <ele>413.2</ele>
        <time>2017-03-26T09:00:16.999Z</time>
      </trkpt>
      <trkpt lat="47.44723" lon="6.79971">
        <ele>413.6</ele>
        <time>2017-03-26T09:00:17.999Z</time>
      </trkpt>
      <trkpt lat="47.4473" lon="6.79972">
        <ele>413.5</ele>
        <time>2017-03-26T09:00:18.999Z</time>
      </trkpt>
      <trkpt lat="47.44736" lon="6.79974">
        <ele>413</ele>
        <time>2017-03-26T09:00:19.999Z</time>
      </trkpt>
      <trkpt lat="47.44742" lon="6.79974">
        <ele>412.3</ele>
        <time>2017-03-26T09:00:20.999Z</time>
      </trkpt>
      <trkpt lat="47.44748" lon="6.79975">
        <ele>411.7</ele>
        <time>2017-03-26T09:00:21.999Z</time>
      </trkpt>
      <trkpt lat="47.44755" lon="6.79976">
        <ele>411</ele>
        <time>2017-03-26T09:00:22.999Z</time>
      </trkpt>
      <trkpt lat="47.44761" lon="6.79978">
        <ele>410.4</ele>
        <time>2017-03-26T09:00:23.999Z</time>
      </trkpt>
      <trkpt lat="47.44768" lon="6.79979">
        <ele>410.3</ele>
        <time>2017-03-26T09:00:24.999Z</time>
      </trkpt>
      <trkpt lat="47.44773" lon="6.79981">
        <ele>410.2</ele>
        <time>2017-03-26T09:00:25.999Z</time>
      </trkpt>
      <trkpt lat="47.44779" lon="6.79982">
        <ele>410.1</ele>
        <time>2017-03-26T09:00:26.999Z</time>
      </trkpt>
      <trkpt lat="47.44783" lon="6.79983">
        <ele>409.8</ele>
        <time>2017-03-26T09:00:27.999Z</time>
      </trkpt>
      <trkpt lat="47.44786" lon="6.79979">
        <ele>409.8</ele>
        <time>2017-03-26T09:00:30.999Z</time>
      </trkpt>
      <trkpt lat="47.44786" lon="6.79975">
        <ele>409.8</ele>
        <time>2017-03-26T09:00:31.999Z</time>
      </trkpt>
      <trkpt lat="47.44788" lon="6.79973">
        <ele>409.9</ele>
        <time>2017-03-26T09:00:32.999Z</time>
      </trkpt>
      <trkpt lat="47.44789" lon="6.79967">
        <ele>409.9</ele>
        <time>2017-03-26T09:00:33.999Z</time>
      </trkpt>
      <trkpt lat="47.4479" lon="6.79961">
        <ele>409.9</ele>
        <time>2017-03-26T09:00:34.999Z</time>
      </trkpt>
      <trkpt lat="47.4479" lon="6.79956">
        <ele>409.8</ele>
        <time>2017-03-26T09:00:35.999Z</time>
      </trkpt>
      <trkpt lat="47.44791" lon="6.79951">
        <ele>409.7</ele>
        <time>2017-03-26T09:00:36.999Z</time>
      </trkpt>
      <trkpt lat="47.44792" lon="6.79945">
        <ele>409.7</ele>
        <time>2017-03-26T09:00:37.999Z</time>
      </trkpt>
      <trkpt lat="47.44792" lon="6.7994">
        <ele>409.6</ele>
        <time>2017-03-26T09:00:38.999Z</time>
      </trkpt>
      <trkpt lat="47.44793" lon="6.79936">
        <ele>409.6</ele>
        <time>2017-03-26T09:00:39.999Z</time>
      </trkpt>
      <trkpt lat="47.44794" lon="6.7993">
        <ele>409.6</ele>
        <time>2017-03-26T09:00:40.999Z</time>
      </trkpt>
      <trkpt lat="47.44795" lon="6.79926">
        <ele>409.3</ele>
        <time>2017-03-26T09:00:41.999Z</time>
      </trkpt>
      <trkpt lat="47.44796" lon="6.79921">
        <ele>409.2</ele>
        <time>2017-03-26T09:00:42.999Z</time>
      </trkpt>
      <trkpt lat="47.44796" lon="6.79916">
        <ele>408.9</ele>
        <time>2017-03-26T09:00:43.999Z</time>
      </trkpt>
      <trkpt lat="47.44797" lon="6.7991">
        <ele>408.5</ele>
        <time>2017-03-26T09:00:44.999Z</time>
      </trkpt>
      <trkpt lat="47.44798" lon="6.79904">
        <ele>408.4</ele>
        <time>2017-03-26T09:00:45.999Z</time>
      </trkpt>
      <trkpt lat="47.44798" lon="6.79898">
        <ele>408.4</ele>
        <time>2017-03-26T09:00:46.999Z</time>
      </trkpt>
      <trkpt lat="47.44799" lon="6.79892">
        <ele>408.5</ele>
        <time>2017-03-26T09:00:47.999Z</time>
      </trkpt>
      <trkpt lat="47.448" lon="6.79885">
        <ele>409.2</ele>
        <time>2017-03-26T09:00:48.999Z</time>
      </trkpt>
      <trkpt lat="47.448" lon="6.79879">
        <ele>409.7</ele>
        <time>2017-03-26T09:00:49.999Z</time>
      </trkpt>
      <trkpt lat="47.44801" lon="6.79873">
        <ele>410.1</ele>
        <time>2017-03-26T09:00:50.999Z</time>
      </trkpt>
      <trkpt lat="47.44802" lon="6.79868">
        <ele>410.5</ele>
        <time>2017-03-26T09:00:51.999Z</time>
      </trkpt>
      <trkpt lat="47.44803" lon="6.79862">
        <ele>410.4</ele>
        <time>2017-03-26T09:00:52.999Z</time>
      </trkpt>
      <trkpt lat="47.44804" lon="6.79856">
        <ele>410.4</ele>
        <time>2017-03-26T09:00:53.999Z</time>
      </trkpt>
      <trkpt lat="47.44805" lon="6.7985">
        <ele>410.3</ele>
        <time>2017-03-26T09:00:54.999Z</time>
      </trkpt>
      <trkpt lat="47.44806" lon="6.79844">
        <ele>409.8</ele>
        <time>2017-03-26T09:00:55.999Z</time>
      </trkpt>
      <trkpt lat="47.44807" lon="6.79839">
        <ele>409.9</ele>
        <time>2017-03-26T09:00:56.999Z</time>
      </trkpt>
      <trkpt lat="47.44807" lon="6.79834">
        <ele>409.9</ele>
        <time>2017-03-26T09:00:57.999Z</time>
      </trkpt>
      <trkpt lat="47.44807" lon="6.7983">
        <ele>409.9</ele>
        <time>2017-03-26T09:00:58.999Z</time>
      </trkpt>
      <trkpt lat="47.44808" lon="6.79826">
        <ele>409.8</ele>
        <time>2017-03-26T09:00:59.999Z</time>
      </trkpt>
      <trkpt lat="47.44807" lon="6.7982">
        <ele>408.9</ele>
        <time>2017-03-26T09:01:00.999Z</time>
      </trkpt>
      <trkpt lat="47.44808" lon="6.79817">
        <ele>408.4</ele>
        <time>2017-03-26T09:01:29.999Z</time>
      </trkpt>
      <trkpt lat="47.44811" lon="6.79805">
        <ele>408.3</ele>
        <time>2017-03-26T09:01:30.999Z</time>
      </trkpt>
      <trkpt lat="47.44812" lon="6.798">
        <ele>408.3</ele>
        <time>2017-03-26T09:01:31.999Z</time>
      </trkpt>
      <trkpt lat="47.44812" lon="6.79795">
        <ele>408.2</ele>
        <time>2017-03-26T09:01:32.999Z</time>
      </trkpt>
      <trkpt lat="47.44813" lon="6.79789">
        <ele>408.1</ele>
        <time>2017-03-26T09:01:33.999Z</time>
      </trkpt>
      <trkpt lat="47.44813" lon="6.79784">
        <ele>408.1</ele>
        <time>2017-03-26T09:01:34.999Z</time>
      </trkpt>
      <trkpt lat="47.44814" lon="6.79778">
        <ele>408.1</ele>
        <time>2017-03-26T09:01:35.999Z</time>
      </trkpt>
      <trkpt lat="47.44815" lon="6.79772">
        <ele>408.2</ele>
        <time>2017-03-26T09:01:36.999Z</time>
      </trkpt>
      <trkpt lat="47.44815" lon="6.79768">
        <ele>408.1</ele>
        <time>2017-03-26T09:01:37.999Z</time>
      </trkpt>
      <trkpt lat="47.44816" lon="6.79763">
        <ele>407.7</ele>
        <time>2017-03-26T09:01:38.999Z</time>
      </trkpt>
      <trkpt lat="47.44817" lon="6.79758">
        <ele>407.7</ele>
        <time>2017-03-26T09:01:39.999Z</time>
      </trkpt>
      <trkpt lat="47.44818" lon="6.79753">
        <ele>407.7</ele>
        <time>2017-03-26T09:01:40.999Z</time>
      </trkpt>
      <trkpt lat="47.44819" lon="6.79746">
        <ele>407.6</ele>
        <time>2017-03-26T09:01:41.999Z</time>
      </trkpt>
      <trkpt lat="47.4482" lon="6.79741">
        <ele>407.6</ele>
        <time>2017-03-26T09:01:42.999Z</time>
      </trkpt>
      <trkpt lat="47.44819" lon="6.79737">
        <ele>407.6</ele>
        <time>2017-03-26T09:01:43.999Z</time>
      </trkpt>
      <trkpt lat="47.4482" lon="6.79732">
        <ele>407.6</ele>
        <time>2017-03-26T09:01:44.999Z</time>
      </trkpt>
      <trkpt lat="47.44821" lon="6.79727">
        <ele>407.5</ele>
        <time>2017-03-26T09:01:45.999Z</time>
      </trkpt>
      <trkpt lat="47.44826" lon="6.79723">
        <ele>405.6</ele>
        <time>2017-03-26T09:01:46.999Z</time>
      </trkpt>
      <trkpt lat="47.4483" lon="6.7972">
        <ele>404.4</ele>
        <time>2017-03-26T09:01:47.999Z</time>
      </trkpt>
      <trkpt lat="47.44835" lon="6.79718">
        <ele>403.7</ele>
        <time>2017-03-26T09:01:48.999Z</time>
      </trkpt>
      <trkpt lat="47.44841" lon="6.79716">
        <ele>403</ele>
        <time>2017-03-26T09:01:49.999Z</time>
      </trkpt>
      <trkpt lat="47.44846" lon="6.79715">
        <ele>402.9</ele>
        <time>2017-03-26T09:01:50.999Z</time>
      </trkpt>
      <trkpt lat="47.4485" lon="6.79715">
        <ele>403</ele>
        <time>2017-03-26T09:01:51.999Z</time>
      </trkpt>
      <trkpt lat="47.44854" lon="6.79716">
        <ele>403.8</ele>
        <time>2017-03-26T09:01:52.999Z</time>
      </trkpt>
      <trkpt lat="47.44858" lon="6.79718">
        <ele>404.2</ele>
        <time>2017-03-26T09:01:53.999Z</time>
      </trkpt>
      <trkpt lat="47.44862" lon="6.79719">
        <ele>404.5</ele>
        <time>2017-03-26T09:01:54.999Z</time>
      </trkpt>
      <trkpt lat="47.44866" lon="6.79721">
        <ele>404.6</ele>
        <time>2017-03-26T09:01:55.999Z</time>
      </trkpt>
      <trkpt lat="47.4487" lon="6.79723">
        <ele>404.8</ele>
        <time>2017-03-26T09:01:56.999Z</time>
      </trkpt>
      <trkpt lat="47.44874" lon="6.79726">
        <ele>405.8</ele>
        <time>2017-03-26T09:01:57.999Z</time>
      </trkpt>
      <trkpt lat="47.44878" lon="6.79729">
        <ele>405.4</ele>
        <time>2017-03-26T09:01:58.999Z</time>
      </trkpt>
      <trkpt lat="47.44883" lon="6.79732">
        <ele>405.4</ele>
        <time>2017-03-26T09:01:59.999Z</time>
      </trkpt>
      <trkpt lat="47.44887" lon="6.79735">
        <ele>405.4</ele>
        <time>2017-03-26T09:02:00.999Z</time>
      </trkpt>
      <trkpt lat="47.44891" lon="6.79738">
        <ele>405.2</ele>
        <time>2017-03-26T09:02:01.999Z</time>
      </trkpt>
      <trkpt lat="47.44897" lon="6.79739">
        <ele>404.7</ele>
        <time>2017-03-26T09:02:02.999Z</time>
      </trkpt>
      <trkpt lat="47.44902" lon="6.7974">
        <ele>404</ele>
        <time>2017-03-26T09:02:03.999Z</time>
      </trkpt>
      <trkpt lat="47.44907" lon="6.79741">
        <ele>403.5</ele>
        <time>2017-03-26T09:02:04.999Z</time>
      </trkpt>
      <trkpt lat="47.44912" lon="6.7974">
        <ele>404.3</ele>
        <time>2017-03-26T09:02:05.999Z</time>
      </trkpt>
      <trkpt lat="47.44917" lon="6.79737">
        <ele>404.3</ele>
        <time>2017-03-26T09:02:06.999Z</time>
      </trkpt>
      <trkpt lat="47.44922" lon="6.79733">
        <ele>403.6</ele>
        <time>2017-03-26T09:02:07.999Z</time>
      </trkpt>
      <trkpt lat="47.44928" lon="6.7973">
        <ele>403.2</ele>
        <time>2017-03-26T09:02:08.999Z</time>
      </trkpt>
      <trkpt lat="47.44932" lon="6.79727">
        <ele>402.4</ele>
        <time>2017-03-26T09:02:09.999Z</time>
      </trkpt>
      <trkpt lat="47.44937" lon="6.79725">
        <ele>401.9</ele>
        <time>2017-03-26T09:02:10.999Z</time>
      </trkpt>
      <trkpt lat="47.44942" lon="6.79722">
        <ele>401.4</ele>
        <time>2017-03-26T09:02:11.999Z</time>
      </trkpt>
      <trkpt lat="47.44948" lon="6.7972">
        <ele>400.8</ele>
        <time>2017-03-26T09:02:12.999Z</time>
      </trkpt>
      <trkpt lat="47.44953" lon="6.79719">
        <ele>401</ele>
        <time>2017-03-26T09:02:13.999Z</time>
      </trkpt>
      <trkpt lat="47.44958" lon="6.7972">
        <ele>401.3</ele>
        <time>2017-03-26T09:02:14.999Z</time>
      </trkpt>
      <trkpt lat="47.44962" lon="6.79721">
        <ele>401.4</ele>
        <time>2017-03-26T09:02:15.999Z</time>
      </trkpt>
      <trkpt lat="47.44967" lon="6.79723">
        <ele>401.5</ele>
        <time>2017-03-26T09:02:16.999Z</time>
      </trkpt>
      <trkpt lat="47.44971" lon="6.79723">
        <ele>400.5</ele>
        <time>2017-03-26T09:02:17.999Z</time>
      </trkpt>
      <trkpt lat="47.44975" lon="6.79724">
        <ele>399.6</ele>
        <time>2017-03-26T09:02:18.999Z</time>
      </trkpt>
      <trkpt lat="47.44979" lon="6.79725">
        <ele>398.9</ele>
        <time>2017-03-26T09:02:19.999Z</time>
      </trkpt>
      <trkpt lat="47.44985" lon="6.79725">
        <ele>398.2</ele>
        <time>2017-03-26T09:02:20.999Z</time>
      </trkpt>
      <trkpt lat="47.44991" lon="6.79726">
        <ele>396.5</ele>
        <time>2017-03-26T09:02:21.999Z</time>
      </trkpt>
      <trkpt lat="47.45" lon="6.79727">
        <ele>395.5</ele>
        <time>2017-03-26T09:02:22.999Z</time>
      </trkpt>
      <trkpt lat="47.45008" lon="6.79727">
        <ele>394.2</ele>
        <time>2017-03-26T09:02:23.999Z</time>
      </trkpt>
      <trkpt lat="47.45013" lon="6.79724">
        <ele>392.7</ele>
        <time>2017-03-26T09:02:24.999Z</time>
      </trkpt>
      <trkpt lat="47.45018" lon="6.79722">
        <ele>391.9</ele>
        <time>2017-03-26T09:02:25.999Z</time>
      </trkpt>
      <trkpt lat="47.45025" lon="6.7972">
        <ele>391.2</ele>
        <time>2017-03-26T09:02:26.999Z</time>
      </trkpt>
      <trkpt lat="47.4503" lon="6.79715">
        <ele>390.8</ele>
        <time>2017-03-26T09:02:27.999Z</time>
      </trkpt>
      <trkpt lat="47.45035" lon="6.79708">
        <ele>389.6</ele>
        <time>2017-03-26T09:02:28.999Z</time>
      </trkpt>
      <trkpt lat="47.45037" lon="6.79698">
        <ele>389.1</ele>
        <time>2017-03-26T09:02:29.999Z</time>
      </trkpt>
      <trkpt lat="47.45038" lon="6.79685">
        <ele>387.8</ele>
        <time>2017-03-26T09:02:30.999Z</time>
      </trkpt>
      <trkpt lat="47.4504" lon="6.79673">
        <ele>386.8</ele>
        <time>2017-03-26T09:02:31.999Z</time>
      </trkpt>
      <trkpt lat="47.45041" lon="6.79662">
        <ele>385.7</ele>
        <time>2017-03-26T09:02:32.999Z</time>
      </trkpt>
      <trkpt lat="47.45043" lon="6.79652">
        <ele>384.7</ele>
        <time>2017-03-26T09:02:33.999Z</time>
      </trkpt>
      <trkpt lat="47.45045" lon="6.79642">
        <ele>383.2</ele>
        <time>2017-03-26T09:02:34.999Z</time>
      </trkpt>
      <trkpt lat="47.45046" lon="6.79635">
        <ele>381.5</ele>
        <time>2017-03-26T09:02:35.999Z</time>
      </trkpt>
      <trkpt lat="47.45048" lon="6.79628">
        <ele>379.7</ele>
        <time>2017-03-26T09:02:36.999Z</time>
      </trkpt>
      <trkpt lat="47.45051" lon="6.79623">
        <ele>378.2</ele>
        <time>2017-03-26T09:02:37.999Z</time>
      </trkpt>
      <trkpt lat="47.45054" lon="6.79619">
        <ele>378.1</ele>
        <time>2017-03-26T09:02:38.999Z</time>
      </trkpt>
      <trkpt lat="47.45059" lon="6.79613">
        <ele>378.1</ele>
        <time>2017-03-26T09:02:39.999Z</time>
      </trkpt>
      <trkpt lat="47.45064" lon="6.79607">
        <ele>377.9</ele>
        <time>2017-03-26T09:02:40.999Z</time>
      </trkpt>
      <trkpt lat="47.45069" lon="6.79601">
        <ele>378</ele>
        <time>2017-03-26T09:02:41.999Z</time>
      </trkpt>
      <trkpt lat="47.45073" lon="6.79597">
        <ele>377.4</ele>
        <time>2017-03-26T09:02:42.999Z</time>
      </trkpt>
      <trkpt lat="47.45077" lon="6.79591">
        <ele>377.9</ele>
        <time>2017-03-26T09:02:43.999Z</time>
      </trkpt>
      <trkpt lat="47.45081" lon="6.79587">
        <ele>378.7</ele>
        <time>2017-03-26T09:02:44.999Z</time>
      </trkpt>
      <trkpt lat="47.45084" lon="6.79582">
        <ele>379</ele>
        <time>2017-03-26T09:02:45.999Z</time>
      </trkpt>
      <trkpt lat="47.45088" lon="6.79578">
        <ele>379.1</ele>
        <time>2017-03-26T09:02:46.999Z</time>
      </trkpt>
      <trkpt lat="47.45091" lon="6.79574">
        <ele>380</ele>
        <time>2017-03-26T09:02:47.999Z</time>
      </trkpt>
      <trkpt lat="47.45094" lon="6.79571">
        <ele>380</ele>
        <time>2017-03-26T09:02:48.999Z</time>
      </trkpt>
      <trkpt lat="47.45096" lon="6.79568">
        <ele>380.1</ele>
        <time>2017-03-26T09:02:49.999Z</time>
      </trkpt>
      <trkpt lat="47.45099" lon="6.79564">
        <ele>380.1</ele>
        <time>2017-03-26T09:02:50.999Z</time>
      </trkpt>
      <trkpt lat="47.45103" lon="6.79559">
        <ele>381.1</ele>
        <time>2017-03-26T09:02:51.999Z</time>
      </trkpt>
      <trkpt lat="47.45106" lon="6.79555">
        <ele>381.8</ele>
        <time>2017-03-26T09:02:52.999Z</time>
      </trkpt>
      <trkpt lat="47.45109" lon="6.79551">
        <ele>381.8</ele>
        <time>2017-03-26T09:02:53.999Z</time>
      </trkpt>
      <trkpt lat="47.45112" lon="6.79547">
        <ele>381.9</ele>
        <time>2017-03-26T09:02:54.999Z</time>
      </trkpt>
      <trkpt lat="47.45114" lon="6.79543">
        <ele>381.9</ele>
        <time>2017-03-26T09:02:55.999Z</time>
      </trkpt>
      <trkpt lat="47.45116" lon="6.79539">
        <ele>383.1</ele>
        <time>2017-03-26T09:02:56.999Z</time>
      </trkpt>
      <trkpt lat="47.45119" lon="6.79534">
        <ele>383.2</ele>
        <time>2017-03-26T09:02:57.999Z</time>
      </trkpt>
      <trkpt lat="47.45121" lon="6.7953">
        <ele>383.3</ele>
        <time>2017-03-26T09:02:58.999Z</time>
      </trkpt>
      <trkpt lat="47.45123" lon="6.79527">
        <ele>383.4</ele>
        <time>2017-03-26T09:02:59.999Z</time>
      </trkpt>
      <trkpt lat="47.45125" lon="6.79523">
        <ele>383.4</ele>
        <time>2017-03-26T09:03:00.999Z</time>
      </trkpt>
      <trkpt lat="47.45126" lon="6.7952">
        <ele>383.5</ele>
        <time>2017-03-26T09:03:01.999Z</time>
      </trkpt>
      <trkpt lat="47.45127" lon="6.79517">
        <ele>383.6</ele>
        <time>2017-03-26T09:03:02.999Z</time>
      </trkpt>
      <trkpt lat="47.45128" lon="6.79512">
        <ele>383.6</ele>
        <time>2017-03-26T09:03:03.999Z</time>
      </trkpt>
      <trkpt lat="47.45129" lon="6.79508">
        <ele>383.7</ele>
        <time>2017-03-26T09:03:04.999Z</time>
      </trkpt>
      <trkpt lat="47.45129" lon="6.79504">
        <ele>383.7</ele>
        <time>2017-03-26T09:03:05.999Z</time>
      </trkpt>
      <trkpt lat="47.4513" lon="6.795">
        <ele>383.8</ele>
        <time>2017-03-26T09:03:06.999Z</time>
      </trkpt>
      <trkpt lat="47.45131" lon="6.79496">
        <ele>383.7</ele>
        <time>2017-03-26T09:03:07.999Z</time>
      </trkpt>
      <trkpt lat="47.45131" lon="6.79492">
        <ele>383.7</ele>
        <time>2017-03-26T09:03:08.999Z</time>
      </trkpt>
      <trkpt lat="47.45133" lon="6.79489">
        <ele>383.8</ele>
        <time>2017-03-26T09:03:09.999Z</time>
      </trkpt>
      <trkpt lat="47.45134" lon="6.79485">
        <ele>383.8</ele>
        <time>2017-03-26T09:03:10.999Z</time>
      </trkpt>
      <trkpt lat="47.45134" lon="6.79482">
        <ele>383.7</ele>
        <time>2017-03-26T09:03:11.999Z</time>
      </trkpt>
      <trkpt lat="47.45135" lon="6.79478">
        <ele>383.7</ele>
        <time>2017-03-26T09:03:12.999Z</time>
      </trkpt>
      <trkpt lat="47.45136" lon="6.79475">
        <ele>383.6</ele>
        <time>2017-03-26T09:03:13.999Z</time>
      </trkpt>
      <trkpt lat="47.45137" lon="6.79472">
        <ele>383.6</ele>
        <time>2017-03-26T09:03:14.999Z</time>
      </trkpt>
      <trkpt lat="47.45137" lon="6.79467">
        <ele>383.6</ele>
        <time>2017-03-26T09:03:15.999Z</time>
      </trkpt>
      <trkpt lat="47.45138" lon="6.79461">
        <ele>383.6</ele>
        <time>2017-03-26T09:03:16.999Z</time>
      </trkpt>
      <trkpt lat="47.45139" lon="6.79453">
        <ele>383.6</ele>
        <time>2017-03-26T09:03:17.999Z</time>
      </trkpt>
      <trkpt lat="47.45141" lon="6.79446">
        <ele>383.6</ele>
        <time>2017-03-26T09:03:18.999Z</time>
      </trkpt>
      <trkpt lat="47.45142" lon="6.79442">
        <ele>383.6</ele>
        <time>2017-03-26T09:03:19.999Z</time>
      </trkpt>
      <trkpt lat="47.45144" lon="6.79437">
        <ele>383.7</ele>
        <time>2017-03-26T09:03:20.999Z</time>
      </trkpt>
      <trkpt lat="47.45145" lon="6.79432">
        <ele>384.4</ele>
        <time>2017-03-26T09:03:21.999Z</time>
      </trkpt>
      <trkpt lat="47.45147" lon="6.79426">
        <ele>384.5</ele>
        <time>2017-03-26T09:03:22.999Z</time>
      </trkpt>
      <trkpt lat="47.45149" lon="6.79418">
        <ele>384.6</ele>
        <time>2017-03-26T09:03:23.999Z</time>
      </trkpt>
      <trkpt lat="47.45151" lon="6.79411">
        <ele>386</ele>
        <time>2017-03-26T09:03:24.999Z</time>
      </trkpt>
      <trkpt lat="47.45153" lon="6.79406">
        <ele>386.1</ele>
        <time>2017-03-26T09:03:25.999Z</time>
      </trkpt>
      <trkpt lat="47.45153" lon="6.794">
        <ele>386.1</ele>
        <time>2017-03-26T09:03:26.999Z</time>
      </trkpt>
      <trkpt lat="47.45156" lon="6.79395">
        <ele>386.2</ele>
        <time>2017-03-26T09:03:28.999Z</time>
      </trkpt>
      <trkpt lat="47.45158" lon="6.79391">
        <ele>386.2</ele>
        <time>2017-03-26T09:03:29.999Z</time>
      </trkpt>
      <trkpt lat="47.45161" lon="6.79387">
        <ele>386.2</ele>
        <time>2017-03-26T09:03:30.999Z</time>
      </trkpt>
      <trkpt lat="47.45163" lon="6.79382">
        <ele>386</ele>
        <time>2017-03-26T09:03:31.999Z</time>
      </trkpt>
      <trkpt lat="47.45165" lon="6.79378">
        <ele>386.3</ele>
        <time>2017-03-26T09:03:32.999Z</time>
      </trkpt>
      <trkpt lat="47.45167" lon="6.79372">
        <ele>386.2</ele>
        <time>2017-03-26T09:03:33.999Z</time>
      </trkpt>
      <trkpt lat="47.4517" lon="6.79365">
        <ele>386.8</ele>
        <time>2017-03-26T09:03:34.999Z</time>
      </trkpt>
      <trkpt lat="47.45172" lon="6.79359">
        <ele>387</ele>
        <time>2017-03-26T09:03:35.999Z</time>
      </trkpt>
      <trkpt lat="47.45173" lon="6.79353">
        <ele>386.7</ele>
        <time>2017-03-26T09:03:36.999Z</time>
      </trkpt>
      <trkpt lat="47.45175" lon="6.79347">
        <ele>386.3</ele>
        <time>2017-03-26T09:03:37.999Z</time>
      </trkpt>
      <trkpt lat="47.45176" lon="6.79342">
        <ele>385.9</ele>
        <time>2017-03-26T09:03:38.999Z</time>
      </trkpt>
      <trkpt lat="47.45177" lon="6.79336">
        <ele>385.6</ele>
        <time>2017-03-26T09:03:39.999Z</time>
      </trkpt>
      <trkpt lat="47.45179" lon="6.79329">
        <ele>385.1</ele>
        <time>2017-03-26T09:03:40.999Z</time>
      </trkpt>
      <trkpt lat="47.45181" lon="6.79322">
        <ele>384.7</ele>
        <time>2017-03-26T09:03:41.999Z</time>
      </trkpt>
      <trkpt lat="47.45182" lon="6.79316">
        <ele>385</ele>
        <time>2017-03-26T09:03:42.999Z</time>
      </trkpt>
      <trkpt lat="47.45184" lon="6.79309">
        <ele>385.1</ele>
        <time>2017-03-26T09:03:43.999Z</time>
      </trkpt>
      <trkpt lat="47.45185" lon="6.79304">
        <ele>385.1</ele>
        <time>2017-03-26T09:03:44.999Z</time>
      </trkpt>
      <trkpt lat="47.45187" lon="6.79297">
        <ele>385.4</ele>
        <time>2017-03-26T09:03:45.999Z</time>
      </trkpt>
      <trkpt lat="47.45188" lon="6.7929">
        <ele>385.6</ele>
        <time>2017-03-26T09:03:46.999Z</time>
      </trkpt>
      <trkpt lat="47.4519" lon="6.79283">
        <ele>386.2</ele>
        <time>2017-03-26T09:03:47.999Z</time>
      </trkpt>
      <trkpt lat="47.45192" lon="6.79275">
        <ele>386.4</ele>
        <time>2017-03-26T09:03:48.999Z</time>
      </trkpt>
      <trkpt lat="47.45193" lon="6.79271">
        <ele>386.7</ele>
        <time>2017-03-26T09:03:49.999Z</time>
      </trkpt>
      <trkpt lat="47.45195" lon="6.79265">
        <ele>387.2</ele>
        <time>2017-03-26T09:03:50.999Z</time>
      </trkpt>
      <trkpt lat="47.45196" lon="6.79259">
        <ele>387.3</ele>
        <time>2017-03-26T09:03:51.999Z</time>
      </trkpt>
      <trkpt lat="47.45198" lon="6.79253">
        <ele>387.2</ele>
        <time>2017-03-26T09:03:52.999Z</time>
      </trkpt>
      <trkpt lat="47.452" lon="6.79247">
        <ele>387.1</ele>
        <time>2017-03-26T09:03:53.999Z</time>
      </trkpt>
      <trkpt lat="47.45202" lon="6.79244">
        <ele>387.2</ele>
        <time>2017-03-26T09:03:54.999Z</time>
      </trkpt>
      <trkpt lat="47.45202" lon="6.79239">
        <ele>386.9</ele>
        <time>2017-03-26T09:03:55.999Z</time>
      </trkpt>
      <trkpt lat="47.45203" lon="6.79232">
        <ele>387.1</ele>
        <time>2017-03-26T09:03:56.999Z</time>
      </trkpt>
      <trkpt lat="47.45204" lon="6.79226">
        <ele>387</ele>
        <time>2017-03-26T09:03:57.999Z</time>
      </trkpt>
      <trkpt lat="47.45204" lon="6.7922">
        <ele>387</ele>
        <time>2017-03-26T09:03:58.999Z</time>
      </trkpt>
      <trkpt lat="47.45206" lon="6.79214">
        <ele>386.9</ele>
        <time>2017-03-26T09:03:59.999Z</time>
      </trkpt>
      <trkpt lat="47.45206" lon="6.79208">
        <ele>386.9</ele>
        <time>2017-03-26T09:04:00.999Z</time>
      </trkpt>
      <trkpt lat="47.45208" lon="6.79202">
        <ele>387.5</ele>
        <time>2017-03-26T09:04:01.999Z</time>
      </trkpt>
      <trkpt lat="47.45209" lon="6.79197">
        <ele>387.5</ele>
        <time>2017-03-26T09:04:02.999Z</time>
      </trkpt>
      <trkpt lat="47.45211" lon="6.7919">
        <ele>387.1</ele>
        <time>2017-03-26T09:04:03.999Z</time>
      </trkpt>
      <trkpt lat="47.45213" lon="6.79183">
        <ele>387.1</ele>
        <time>2017-03-26T09:04:04.999Z</time>
      </trkpt>
      <trkpt lat="47.45214" lon="6.79178">
        <ele>387.7</ele>
        <time>2017-03-26T09:04:05.999Z</time>
      </trkpt>
      <trkpt lat="47.45216" lon="6.79172">
        <ele>387.8</ele>
        <time>2017-03-26T09:04:06.999Z</time>
      </trkpt>
      <trkpt lat="47.45217" lon="6.79165">
        <ele>387.8</ele>
        <time>2017-03-26T09:04:07.999Z</time>
      </trkpt>
      <trkpt lat="47.45218" lon="6.7916">
        <ele>387.6</ele>
        <time>2017-03-26T09:04:08.999Z</time>
      </trkpt>
      <trkpt lat="47.4522" lon="6.79156">
        <ele>387.1</ele>
        <time>2017-03-26T09:04:09.999Z</time>
      </trkpt>
      <trkpt lat="47.45221" lon="6.7915">
        <ele>387.2</ele>
        <time>2017-03-26T09:04:10.999Z</time>
      </trkpt>
      <trkpt lat="47.45223" lon="6.79143">
        <ele>386.8</ele>
        <time>2017-03-26T09:04:11.999Z</time>
      </trkpt>
      <trkpt lat="47.45227" lon="6.79138">
        <ele>386.8</ele>
        <time>2017-03-26T09:04:12.999Z</time>
      </trkpt>
      <trkpt lat="47.4523" lon="6.79135">
        <ele>386.1</ele>
        <time>2017-03-26T09:04:13.999Z</time>
      </trkpt>
      <trkpt lat="47.45235" lon="6.79132">
        <ele>385.4</ele>
        <time>2017-03-26T09:04:14.999Z</time>
      </trkpt>
      <trkpt lat="47.45241" lon="6.79129">
        <ele>384.6</ele>
        <time>2017-03-26T09:04:15.999Z</time>
      </trkpt>
      <trkpt lat="47.45245" lon="6.79125">
        <ele>384.6</ele>
        <time>2017-03-26T09:04:16.999Z</time>
      </trkpt>
      <trkpt lat="47.45249" lon="6.79119">
        <ele>384.3</ele>
        <time>2017-03-26T09:04:17.999Z</time>
      </trkpt>
      <trkpt lat="47.45252" lon="6.79112">
        <ele>384</ele>
        <time>2017-03-26T09:04:18.999Z</time>
      </trkpt>
      <trkpt lat="47.45255" lon="6.79105">
        <ele>384.1</ele>
        <time>2017-03-26T09:04:19.999Z</time>
      </trkpt>
      <trkpt lat="47.45257" lon="6.79101">
        <ele>383.9</ele>
        <time>2017-03-26T09:04:20.999Z</time>
      </trkpt>
      <trkpt lat="47.45259" lon="6.79094">
        <ele>384.4</ele>
        <time>2017-03-26T09:04:21.999Z</time>
      </trkpt>
      <trkpt lat="47.45262" lon="6.79086">
        <ele>384.4</ele>
        <time>2017-03-26T09:04:22.999Z</time>
      </trkpt>
      <trkpt lat="47.45265" lon="6.79078">
        <ele>384.5</ele>
        <time>2017-03-26T09:04:23.999Z</time>
      </trkpt>
      <trkpt lat="47.45268" lon="6.79071">
        <ele>383.3</ele>
        <time>2017-03-26T09:04:24.999Z</time>
      </trkpt>
      <trkpt lat="47.4527" lon="6.79062">
        <ele>382.1</ele>
        <time>2017-03-26T09:04:25.999Z</time>
      </trkpt>
      <trkpt lat="47.45273" lon="6.79054">
        <ele>380.6</ele>
        <time>2017-03-26T09:04:26.999Z</time>
      </trkpt>
      <trkpt lat="47.45275" lon="6.79045">
        <ele>379.6</ele>
        <time>2017-03-26T09:04:27.999Z</time>
      </trkpt>
      <trkpt lat="47.45277" lon="6.79038">
        <ele>379.3</ele>
        <time>2017-03-26T09:04:28.999Z</time>
      </trkpt>
      <trkpt lat="47.45281" lon="6.7903">
        <ele>378.8</ele>
        <time>2017-03-26T09:04:29.999Z</time>
      </trkpt>
      <trkpt lat="47.45285" lon="6.79024">
        <ele>379.5</ele>
        <time>2017-03-26T09:04:30.999Z</time>
      </trkpt>
      <trkpt lat="47.45289" lon="6.79016">
        <ele>379.3</ele>
        <time>2017-03-26T09:04:31.999Z</time>
      </trkpt>
      <trkpt lat="47.45293" lon="6.79009">
        <ele>379.2</ele>
        <time>2017-03-26T09:04:32.999Z</time>
      </trkpt>
      <trkpt lat="47.45297" lon="6.79004">
        <ele>379.7</ele>
        <time>2017-03-26T09:04:33.999Z</time>
      </trkpt>
      <trkpt lat="47.453" lon="6.78997">
        <ele>379.4</ele>
        <time>2017-03-26T09:04:34.999Z</time>
      </trkpt>
      <trkpt lat="47.45304" lon="6.78992">
        <ele>379.3</ele>
        <time>2017-03-26T09:04:35.999Z</time>
      </trkpt>
      <trkpt lat="47.45307" lon="6.78987">
        <ele>379.2</ele>
        <time>2017-03-26T09:04:36.999Z</time>
      </trkpt>
      <trkpt lat="47.4531" lon="6.78981">
        <ele>379.3</ele>
        <time>2017-03-26T09:04:37.999Z</time>
      </trkpt>
      <trkpt lat="47.45314" lon="6.78975">
        <ele>378.5</ele>
        <time>2017-03-26T09:04:38.999Z</time>
      </trkpt>
      <trkpt lat="47.45318" lon="6.78969">
        <ele>377.8</ele>
        <time>2017-03-26T09:04:39.999Z</time>
      </trkpt>
      <trkpt lat="47.45322" lon="6.78964">
        <ele>377.7</ele>
        <time>2017-03-26T09:04:40.999Z</time>
      </trkpt>
      <trkpt lat="47.45325" lon="6.78959">
        <ele>378.2</ele>
        <time>2017-03-26T09:04:41.999Z</time>
      </trkpt>
      <trkpt lat="47.45329" lon="6.78954">
        <ele>378.2</ele>
        <time>2017-03-26T09:04:42.999Z</time>
      </trkpt>
      <trkpt lat="47.45332" lon="6.7895">
        <ele>378.2</ele>
        <time>2017-03-26T09:04:43.999Z</time>
      </trkpt>
      <trkpt lat="47.45336" lon="6.78944">
        <ele>378.3</ele>
        <time>2017-03-26T09:04:44.999Z</time>
      </trkpt>
      <trkpt lat="47.45339" lon="6.78939">
        <ele>378.4</ele>
        <time>2017-03-26T09:04:45.999Z</time>
      </trkpt>
      <trkpt lat="47.45344" lon="6.78934">
        <ele>378.6</ele>
        <time>2017-03-26T09:04:46.999Z</time>
      </trkpt>
      <trkpt lat="47.45347" lon="6.7893">
        <ele>378.6</ele>
        <time>2017-03-26T09:04:47.999Z</time>
      </trkpt>
      <trkpt lat="47.45351" lon="6.78925">
        <ele>378.9</ele>
        <time>2017-03-26T09:04:48.999Z</time>
      </trkpt>
      <trkpt lat="47.45354" lon="6.78919">
        <ele>379.2</ele>
        <time>2017-03-26T09:04:49.999Z</time>
      </trkpt>
      <trkpt lat="47.45358" lon="6.78913">
        <ele>379.4</ele>
        <time>2017-03-26T09:04:50.999Z</time>
      </trkpt>
      <trkpt lat="47.45362" lon="6.78908">
        <ele>379.7</ele>
        <time>2017-03-26T09:04:51.999Z</time>
      </trkpt>
      <trkpt lat="47.45365" lon="6.78904">
        <ele>379.9</ele>
        <time>2017-03-26T09:04:52.999Z</time>
      </trkpt>
      <trkpt lat="47.45368" lon="6.789">
        <ele>380</ele>
        <time>2017-03-26T09:04:53.999Z</time>
      </trkpt>
      <trkpt lat="47.45372" lon="6.78895">
        <ele>379.9</ele>
        <time>2017-03-26T09:04:54.999Z</time>
      </trkpt>
      <trkpt lat="47.45375" lon="6.78891">
        <ele>379.3</ele>
        <time>2017-03-26T09:04:55.999Z</time>
      </trkpt>
      <trkpt lat="47.45377" lon="6.78887">
        <ele>379.5</ele>
        <time>2017-03-26T09:04:56.999Z</time>
      </trkpt>
      <trkpt lat="47.4538" lon="6.78882">
        <ele>379.7</ele>
        <time>2017-03-26T09:04:57.999Z</time>
      </trkpt>
      <trkpt lat="47.45384" lon="6.78877">
        <ele>379.8</ele>
        <time>2017-03-26T09:04:58.999Z</time>
      </trkpt>
      <trkpt lat="47.45386" lon="6.78873">
        <ele>379.5</ele>
        <time>2017-03-26T09:04:59.999Z</time>
      </trkpt>
      <trkpt lat="47.45389" lon="6.7887">
        <ele>379.8</ele>
        <time>2017-03-26T09:05:00.999Z</time>
      </trkpt>
      <trkpt lat="47.45392" lon="6.78865">
        <ele>379.8</ele>
        <time>2017-03-26T09:05:01.999Z</time>
      </trkpt>
      <trkpt lat="47.45394" lon="6.78861">
        <ele>379.8</ele>
        <time>2017-03-26T09:05:02.999Z</time>
      </trkpt>
      <trkpt lat="47.45397" lon="6.78858">
        <ele>381.1</ele>
        <time>2017-03-26T09:05:03.999Z</time>
      </trkpt>
      <trkpt lat="47.45399" lon="6.78855">
        <ele>381.2</ele>
        <time>2017-03-26T09:05:04.999Z</time>
      </trkpt>
      <trkpt lat="47.45404" lon="6.78852">
        <ele>382</ele>
        <time>2017-03-26T09:05:05.999Z</time>
      </trkpt>
      <trkpt lat="47.45408" lon="6.78849">
        <ele>382</ele>
        <time>2017-03-26T09:05:06.999Z</time>
      </trkpt>
      <trkpt lat="47.45411" lon="6.78846">
        <ele>382.1</ele>
        <time>2017-03-26T09:05:07.999Z</time>
      </trkpt>
      <trkpt lat="47.45414" lon="6.78843">
        <ele>382.3</ele>
        <time>2017-03-26T09:05:08.999Z</time>
      </trkpt>
      <trkpt lat="47.45417" lon="6.78841">
        <ele>382.3</ele>
        <time>2017-03-26T09:05:09.999Z</time>
      </trkpt>
      <trkpt lat="47.45419" lon="6.78837">
        <ele>382.2</ele>
        <time>2017-03-26T09:05:10.999Z</time>
      </trkpt>
      <trkpt lat="47.45422" lon="6.78832">
        <ele>382.2</ele>
        <time>2017-03-26T09:05:11.999Z</time>
      </trkpt>
      <trkpt lat="47.45424" lon="6.78829">
        <ele>382.5</ele>
        <time>2017-03-26T09:05:12.999Z</time>
      </trkpt>
      <trkpt lat="47.45427" lon="6.78825">
        <ele>382.2</ele>
        <time>2017-03-26T09:05:13.999Z</time>
      </trkpt>
      <trkpt lat="47.45429" lon="6.78822">
        <ele>382.2</ele>
        <time>2017-03-26T09:05:14.999Z</time>
      </trkpt>
      <trkpt lat="47.45433" lon="6.78818">
        <ele>382.2</ele>
        <time>2017-03-26T09:05:15.999Z</time>
      </trkpt>
      <trkpt lat="47.45436" lon="6.78815">
        <ele>382.2</ele>
        <time>2017-03-26T09:05:16.999Z</time>
      </trkpt>
      <trkpt lat="47.45439" lon="6.78811">
        <ele>382</ele>
        <time>2017-03-26T09:05:17.999Z</time>
      </trkpt>
      <trkpt lat="47.45442" lon="6.78807">
        <ele>382</ele>
        <time>2017-03-26T09:05:18.999Z</time>
      </trkpt>
      <trkpt lat="47.45444" lon="6.78805">
        <ele>382</ele>
        <time>2017-03-26T09:05:19.999Z</time>
      </trkpt>
      <trkpt lat="47.45446" lon="6.78802">
        <ele>382</ele>
        <time>2017-03-26T09:05:20.999Z</time>
      </trkpt>
      <trkpt lat="47.4545" lon="6.78798">
        <ele>382</ele>
        <time>2017-03-26T09:05:21.999Z</time>
      </trkpt>
      <trkpt lat="47.45452" lon="6.78795">
        <ele>382.2</ele>
        <time>2017-03-26T09:05:22.999Z</time>
      </trkpt>
      <trkpt lat="47.45455" lon="6.78792">
        <ele>382.2</ele>
        <time>2017-03-26T09:05:23.999Z</time>
      </trkpt>
      <trkpt lat="47.45457" lon="6.7879">
        <ele>382.3</ele>
        <time>2017-03-26T09:05:24.999Z</time>
      </trkpt>
      <trkpt lat="47.45461" lon="6.78785">
        <ele>382.7</ele>
        <time>2017-03-26T09:05:25.999Z</time>
      </trkpt>
      <trkpt lat="47.45465" lon="6.78781">
        <ele>383.5</ele>
        <time>2017-03-26T09:05:26.999Z</time>
      </trkpt>
      <trkpt lat="47.45469" lon="6.78777">
        <ele>384.4</ele>
        <time>2017-03-26T09:05:27.999Z</time>
      </trkpt>
      <trkpt lat="47.45472" lon="6.78773">
        <ele>384.4</ele>
        <time>2017-03-26T09:05:28.999Z</time>
      </trkpt>
      <trkpt lat="47.45475" lon="6.7877">
        <ele>384.4</ele>
        <time>2017-03-26T09:05:29.999Z</time>
      </trkpt>
      <trkpt lat="47.45477" lon="6.78768">
        <ele>384.4</ele>
        <time>2017-03-26T09:05:30.999Z</time>
      </trkpt>
      <trkpt lat="47.45479" lon="6.78766">
        <ele>384.5</ele>
        <time>2017-03-26T09:05:31.999Z</time>
      </trkpt>
      <trkpt lat="47.45482" lon="6.78762">
        <ele>384.5</ele>
        <time>2017-03-26T09:05:33.999Z</time>
      </trkpt>
      <trkpt lat="47.45485" lon="6.78759">
        <ele>384.5</ele>
        <time>2017-03-26T09:05:34.999Z</time>
      </trkpt>
      <trkpt lat="47.45486" lon="6.78756">
        <ele>384.5</ele>
        <time>2017-03-26T09:05:35.999Z</time>
      </trkpt>
      <trkpt lat="47.45486" lon="6.78753">
        <ele>384.5</ele>
        <time>2017-03-26T09:05:36.999Z</time>
      </trkpt>
      <trkpt lat="47.45486" lon="6.78749">
        <ele>384.5</ele>
        <time>2017-03-26T09:05:37.999Z</time>
      </trkpt>
      <trkpt lat="47.45485" lon="6.78745">
        <ele>384.5</ele>
        <time>2017-03-26T09:05:38.999Z</time>
      </trkpt>
      <trkpt lat="47.45483" lon="6.78741">
        <ele>384.5</ele>
        <time>2017-03-26T09:05:39.999Z</time>
      </trkpt>
      <trkpt lat="47.4548" lon="6.78736">
        <ele>384.2</ele>
        <time>2017-03-26T09:05:40.999Z</time>
      </trkpt>
      <trkpt lat="47.45478" lon="6.78732">
        <ele>384.2</ele>
        <time>2017-03-26T09:05:41.999Z</time>
      </trkpt>
      <trkpt lat="47.45476" lon="6.78728">
        <ele>384.2</ele>
        <time>2017-03-26T09:05:42.999Z</time>
      </trkpt>
      <trkpt lat="47.45474" lon="6.78722">
        <ele>384.2</ele>
        <time>2017-03-26T09:05:43.999Z</time>
      </trkpt>
      <trkpt lat="47.45471" lon="6.78717">
        <ele>384</ele>
        <time>2017-03-26T09:05:44.999Z</time>
      </trkpt>
      <trkpt lat="47.4547" lon="6.78714">
        <ele>383.9</ele>
        <time>2017-03-26T09:05:45.999Z</time>
      </trkpt>
      <trkpt lat="47.45467" lon="6.78709">
        <ele>384.1</ele>
        <time>2017-03-26T09:05:46.999Z</time>
      </trkpt>
      <trkpt lat="47.45464" lon="6.78703">
        <ele>384.3</ele>
        <time>2017-03-26T09:05:47.999Z</time>
      </trkpt>
      <trkpt lat="47.45461" lon="6.78698">
        <ele>384.6</ele>
        <time>2017-03-26T09:05:48.999Z</time>
      </trkpt>
      <trkpt lat="47.45459" lon="6.78693">
        <ele>384.5</ele>
        <time>2017-03-26T09:05:49.999Z</time>
      </trkpt>
      <trkpt lat="47.45456" lon="6.78689">
        <ele>384.4</ele>
        <time>2017-03-26T09:05:50.999Z</time>
      </trkpt>
      <trkpt lat="47.45454" lon="6.78685">
        <ele>384.3</ele>
        <time>2017-03-26T09:05:51.999Z</time>
      </trkpt>
      <trkpt lat="47.45452" lon="6.78681">
        <ele>383.8</ele>
        <time>2017-03-26T09:05:52.999Z</time>
      </trkpt>
      <trkpt lat="47.4545" lon="6.78676">
        <ele>383.2</ele>
        <time>2017-03-26T09:05:53.999Z</time>
      </trkpt>
      <trkpt lat="47.45447" lon="6.7867">
        <ele>383</ele>
        <time>2017-03-26T09:05:54.999Z</time>
      </trkpt>
      <trkpt lat="47.45444" lon="6.78665">
        <ele>383.2</ele>
        <time>2017-03-26T09:05:55.999Z</time>
      </trkpt>
      <trkpt lat="47.45441" lon="6.78659">
        <ele>383.6</ele>
        <time>2017-03-26T09:05:56.999Z</time>
      </trkpt>
      <trkpt lat="47.45439" lon="6.78656">
        <ele>383.3</ele>
        <time>2017-03-26T09:05:57.999Z</time>
      </trkpt>
      <trkpt lat="47.45437" lon="6.78651">
        <ele>383.5</ele>
        <time>2017-03-26T09:05:58.999Z</time>
      </trkpt>
      <trkpt lat="47.45433" lon="6.78644">
        <ele>383.6</ele>
        <time>2017-03-26T09:05:59.999Z</time>
      </trkpt>
      <trkpt lat="47.45431" lon="6.7864">
        <ele>383.4</ele>
        <time>2017-03-26T09:06:00.999Z</time>
      </trkpt>
      <trkpt lat="47.45428" lon="6.78635">
        <ele>383.5</ele>
        <time>2017-03-26T09:06:01.999Z</time>
      </trkpt>
      <trkpt lat="47.45425" lon="6.7863">
        <ele>383.7</ele>
        <time>2017-03-26T09:06:02.999Z</time>
      </trkpt>
      <trkpt lat="47.45423" lon="6.78625">
        <ele>383.8</ele>
        <time>2017-03-26T09:06:03.999Z</time>
      </trkpt>
      <trkpt lat="47.45421" lon="6.7862">
        <ele>383.8</ele>
        <time>2017-03-26T09:06:04.999Z</time>
      </trkpt>
      <trkpt lat="47.45418" lon="6.78616">
        <ele>383.7</ele>
        <time>2017-03-26T09:06:05.999Z</time>
      </trkpt>
      <trkpt lat="47.45416" lon="6.78612">
        <ele>383.8</ele>
        <time>2017-03-26T09:06:06.999Z</time>
      </trkpt>
      <trkpt lat="47.45414" lon="6.78607">
        <ele>383.5</ele>
        <time>2017-03-26T09:06:07.999Z</time>
      </trkpt>
      <trkpt lat="47.45412" lon="6.78602">
        <ele>383.5</ele>
        <time>2017-03-26T09:06:08.999Z</time>
      </trkpt>
      <trkpt lat="47.45409" lon="6.78598">
        <ele>383.7</ele>
        <time>2017-03-26T09:06:09.999Z</time>
      </trkpt>
      <trkpt lat="47.45407" lon="6.78593">
        <ele>384.3</ele>
        <time>2017-03-26T09:06:10.999Z</time>
      </trkpt>
      <trkpt lat="47.45404" lon="6.78588">
        <ele>384.4</ele>
        <time>2017-03-26T09:06:11.999Z</time>
      </trkpt>
      <trkpt lat="47.45401" lon="6.78582">
        <ele>385.1</ele>
        <time>2017-03-26T09:06:12.999Z</time>
      </trkpt>
      <trkpt lat="47.45399" lon="6.78577">
        <ele>384.9</ele>
        <time>2017-03-26T09:06:13.999Z</time>
      </trkpt>
      <trkpt lat="47.45398" lon="6.78574">
        <ele>384.1</ele>
        <time>2017-03-26T09:06:14.999Z</time>
      </trkpt>
      <trkpt lat="47.45395" lon="6.7857">
        <ele>384.4</ele>
        <time>2017-03-26T09:06:15.999Z</time>
      </trkpt>
      <trkpt lat="47.45393" lon="6.78566">
        <ele>384.4</ele>
        <time>2017-03-26T09:06:16.999Z</time>
      </trkpt>
      <trkpt lat="47.45392" lon="6.78563">
        <ele>384.4</ele>
        <time>2017-03-26T09:06:17.999Z</time>
      </trkpt>
      <trkpt lat="47.45389" lon="6.78559">
        <ele>384.3</ele>
        <time>2017-03-26T09:06:18.999Z</time>
      </trkpt>
      <trkpt lat="47.45387" lon="6.78554">
        <ele>384.3</ele>
        <time>2017-03-26T09:06:19.999Z</time>
      </trkpt>
      <trkpt lat="47.45384" lon="6.78548">
        <ele>384.3</ele>
        <time>2017-03-26T09:06:20.999Z</time>
      </trkpt>
      <trkpt lat="47.45382" lon="6.78543">
        <ele>384.4</ele>
        <time>2017-03-26T09:06:21.999Z</time>
      </trkpt>
      <trkpt lat="47.45381" lon="6.78539">
        <ele>384.5</ele>
        <time>2017-03-26T09:06:22.999Z</time>
      </trkpt>
      <trkpt lat="47.45379" lon="6.78535">
        <ele>384.6</ele>
        <time>2017-03-26T09:06:23.999Z</time>
      </trkpt>
      <trkpt lat="47.45377" lon="6.78528">
        <ele>384.6</ele>
        <time>2017-03-26T09:06:24.999Z</time>
      </trkpt>
      <trkpt lat="47.45376" lon="6.7852">
        <ele>384.6</ele>
        <time>2017-03-26T09:06:25.999Z</time>
      </trkpt>
      <trkpt lat="47.45375" lon="6.78515">
        <ele>384.6</ele>
        <time>2017-03-26T09:06:26.999Z</time>
      </trkpt>
      <trkpt lat="47.45375" lon="6.78511">
        <ele>384.7</ele>
        <time>2017-03-26T09:06:27.999Z</time>
      </trkpt>
      <trkpt lat="47.45374" lon="6.78508">
        <ele>384.9</ele>
        <time>2017-03-26T09:06:28.999Z</time>
      </trkpt>
      <trkpt lat="47.45374" lon="6.78503">
        <ele>384.9</ele>
        <time>2017-03-26T09:06:29.999Z</time>
      </trkpt>
      <trkpt lat="47.45374" lon="6.78498">
        <ele>384.9</ele>
        <time>2017-03-26T09:06:30.999Z</time>
      </trkpt>
      <trkpt lat="47.45374" lon="6.78492">
        <ele>384.8</ele>
        <time>2017-03-26T09:06:31.999Z</time>
      </trkpt>
      <trkpt lat="47.45374" lon="6.78487">
        <ele>384.8</ele>
        <time>2017-03-26T09:06:32.999Z</time>
      </trkpt>
      <trkpt lat="47.45373" lon="6.78481">
        <ele>384.9</ele>
        <time>2017-03-26T09:06:33.999Z</time>
      </trkpt>
      <trkpt lat="47.45376" lon="6.78476">
        <ele>384.9</ele>
        <time>2017-03-26T09:06:35.999Z</time>
      </trkpt>
      <trkpt lat="47.45379" lon="6.78474">
        <ele>385</ele>
        <time>2017-03-26T09:06:36.999Z</time>
      </trkpt>
      <trkpt lat="47.45381" lon="6.78476">
        <ele>385.2</ele>
        <time>2017-03-26T09:06:37.999Z</time>
      </trkpt>
      <trkpt lat="47.45383" lon="6.78478">
        <ele>385.2</ele>
        <time>2017-03-26T09:06:38.999Z</time>
      </trkpt>
      <trkpt lat="47.45386" lon="6.78481">
        <ele>385.2</ele>
        <time>2017-03-26T09:06:39.999Z</time>
      </trkpt>
      <trkpt lat="47.45389" lon="6.78483">
        <ele>385.3</ele>
        <time>2017-03-26T09:06:40.999Z</time>
      </trkpt>
      <trkpt lat="47.4539" lon="6.78485">
        <ele>385.3</ele>
        <time>2017-03-26T09:06:41.999Z</time>
      </trkpt>
      <trkpt lat="47.45392" lon="6.78487">
        <ele>385.4</ele>
        <time>2017-03-26T09:06:42.999Z</time>
      </trkpt>
      <trkpt lat="47.45395" lon="6.7849">
        <ele>385.4</ele>
        <time>2017-03-26T09:06:43.999Z</time>
      </trkpt>
      <trkpt lat="47.45397" lon="6.78492">
        <ele>385.3</ele>
        <time>2017-03-26T09:06:44.999Z</time>
      </trkpt>
      <trkpt lat="47.45399" lon="6.78495">
        <ele>385.4</ele>
        <time>2017-03-26T09:06:45.999Z</time>
      </trkpt>
      <trkpt lat="47.45401" lon="6.78497">
        <ele>385.5</ele>
        <time>2017-03-26T09:06:46.999Z</time>
      </trkpt>
      <trkpt lat="47.45404" lon="6.785">
        <ele>385.6</ele>
        <time>2017-03-26T09:06:47.999Z</time>
      </trkpt>
      <trkpt lat="47.45406" lon="6.78502">
        <ele>385.6</ele>
        <time>2017-03-26T09:06:48.999Z</time>
      </trkpt>
      <trkpt lat="47.45408" lon="6.78505">
        <ele>385.6</ele>
        <time>2017-03-26T09:06:49.999Z</time>
      </trkpt>
      <trkpt lat="47.4541" lon="6.78506">
        <ele>385.6</ele>
        <time>2017-03-26T09:06:50.999Z</time>
      </trkpt>
      <trkpt lat="47.45414" lon="6.78508">
        <ele>385.7</ele>
        <time>2017-03-26T09:06:52.999Z</time>
      </trkpt>
      <trkpt lat="47.45416" lon="6.78509">
        <ele>385.7</ele>
        <time>2017-03-26T09:06:53.999Z</time>
      </trkpt>
      <trkpt lat="47.45419" lon="6.7851">
        <ele>385.9</ele>
        <time>2017-03-26T09:06:54.999Z</time>
      </trkpt>
      <trkpt lat="47.45421" lon="6.7851">
        <ele>386</ele>
        <time>2017-03-26T09:06:55.999Z</time>
      </trkpt>
      <trkpt lat="47.45423" lon="6.78511">
        <ele>386.1</ele>
        <time>2017-03-26T09:06:56.999Z</time>
      </trkpt>
      <trkpt lat="47.45426" lon="6.78511">
        <ele>386.1</ele>
        <time>2017-03-26T09:06:57.999Z</time>
      </trkpt>
      <trkpt lat="47.4543" lon="6.78511">
        <ele>386.3</ele>
        <time>2017-03-26T09:06:59.999Z</time>
      </trkpt>
      <trkpt lat="47.45433" lon="6.78511">
        <ele>386.5</ele>
        <time>2017-03-26T09:07:00.999Z</time>
      </trkpt>
      <trkpt lat="47.45435" lon="6.78511">
        <ele>386.6</ele>
        <time>2017-03-26T09:07:01.999Z</time>
      </trkpt>
      <trkpt lat="47.45437" lon="6.7851">
        <ele>386.8</ele>
        <time>2017-03-26T09:07:02.999Z</time>
      </trkpt>
      <trkpt lat="47.45439" lon="6.78509">
        <ele>387</ele>
        <time>2017-03-26T09:07:03.999Z</time>
      </trkpt>
      <trkpt lat="47.45442" lon="6.78508">
        <ele>387.2</ele>
        <time>2017-03-26T09:07:04.999Z</time>
      </trkpt>
      <trkpt lat="47.45444" lon="6.78507">
        <ele>387.4</ele>
        <time>2017-03-26T09:07:05.999Z</time>
      </trkpt>
      <trkpt lat="47.45446" lon="6.78506">
        <ele>387.6</ele>
        <time>2017-03-26T09:07:06.999Z</time>
      </trkpt>
      <trkpt lat="47.45449" lon="6.78505">
        <ele>387.8</ele>
        <time>2017-03-26T09:07:07.999Z</time>
      </trkpt>
      <trkpt lat="47.45451" lon="6.78504">
        <ele>388</ele>
        <time>2017-03-26T09:07:08.999Z</time>
      </trkpt>
      <trkpt lat="47.45453" lon="6.78503">
        <ele>388.3</ele>
        <time>2017-03-26T09:07:09.999Z</time>
      </trkpt>
      <trkpt lat="47.45456" lon="6.78501">
        <ele>388.6</ele>
        <time>2017-03-26T09:07:10.999Z</time>
      </trkpt>
      <trkpt lat="47.45458" lon="6.785">
        <ele>388.9</ele>
        <time>2017-03-26T09:07:11.999Z</time>
      </trkpt>
      <trkpt lat="47.4546" lon="6.78499">
        <ele>389.3</ele>
        <time>2017-03-26T09:07:12.999Z</time>
      </trkpt>
      <trkpt lat="47.45464" lon="6.78496">
        <ele>389.9</ele>
        <time>2017-03-26T09:07:14.999Z</time>
      </trkpt>
      <trkpt lat="47.45466" lon="6.78495">
        <ele>390.1</ele>
        <time>2017-03-26T09:07:15.999Z</time>
      </trkpt>
      <trkpt lat="47.4547" lon="6.78494">
        <ele>390.6</ele>
        <time>2017-03-26T09:07:17.999Z</time>
      </trkpt>
      <trkpt lat="47.45472" lon="6.78493">
        <ele>390.8</ele>
        <time>2017-03-26T09:07:18.999Z</time>
      </trkpt>
      <trkpt lat="47.45475" lon="6.78492">
        <ele>391.1</ele>
        <time>2017-03-26T09:07:19.999Z</time>
      </trkpt>
      <trkpt lat="47.45477" lon="6.7849">
        <ele>391.4</ele>
        <time>2017-03-26T09:07:20.999Z</time>
      </trkpt>
      <trkpt lat="47.45479" lon="6.78488">
        <ele>391.7</ele>
        <time>2017-03-26T09:07:21.999Z</time>
      </trkpt>
      <trkpt lat="47.45481" lon="6.78487">
        <ele>391.9</ele>
        <time>2017-03-26T09:07:22.999Z</time>
      </trkpt>
      <trkpt lat="47.45483" lon="6.78485">
        <ele>392.2</ele>
        <time>2017-03-26T09:07:23.999Z</time>
      </trkpt>
      <trkpt lat="47.45486" lon="6.78484">
        <ele>392.4</ele>
        <time>2017-03-26T09:07:24.999Z</time>
      </trkpt>
      <trkpt lat="47.45489" lon="6.7848">
        <ele>392.8</ele>
        <time>2017-03-26T09:07:26.999Z</time>
      </trkpt>
      <trkpt lat="47.45492" lon="6.78479">
        <ele>393</ele>
        <time>2017-03-26T09:07:27.999Z</time>
      </trkpt>
      <trkpt lat="47.45494" lon="6.78478">
        <ele>393.2</ele>
        <time>2017-03-26T09:07:28.999Z</time>
      </trkpt>
      <trkpt lat="47.45496" lon="6.78476">
        <ele>393.4</ele>
        <time>2017-03-26T09:07:29.999Z</time>
      </trkpt>
      <trkpt lat="47.45499" lon="6.78474">
        <ele>393.6</ele>
        <time>2017-03-26T09:07:30.999Z</time>
      </trkpt>
      <trkpt lat="47.45501" lon="6.78473">
        <ele>393.7</ele>
        <time>2017-03-26T09:07:31.999Z</time>
      </trkpt>
      <trkpt lat="47.45504" lon="6.7847">
        <ele>394</ele>
        <time>2017-03-26T09:07:33.999Z</time>
      </trkpt>
      <trkpt lat="47.45506" lon="6.78469">
        <ele>394.2</ele>
        <time>2017-03-26T09:07:34.999Z</time>
      </trkpt>
      <trkpt lat="47.45509" lon="6.78467">
        <ele>394.3</ele>
        <time>2017-03-26T09:07:35.999Z</time>
      </trkpt>
      <trkpt lat="47.45512" lon="6.78465">
        <ele>394.4</ele>
        <time>2017-03-26T09:07:36.999Z</time>
      </trkpt>
      <trkpt lat="47.45515" lon="6.78464">
        <ele>394.6</ele>
        <time>2017-03-26T09:07:37.999Z</time>
      </trkpt>
      <trkpt lat="47.45518" lon="6.78462">
        <ele>394.7</ele>
        <time>2017-03-26T09:07:38.999Z</time>
      </trkpt>
      <trkpt lat="47.45521" lon="6.7846">
        <ele>394.9</ele>
        <time>2017-03-26T09:07:39.999Z</time>
      </trkpt>
      <trkpt lat="47.45524" lon="6.78458">
        <ele>395</ele>
        <time>2017-03-26T09:07:40.999Z</time>
      </trkpt>
      <trkpt lat="47.45526" lon="6.78457">
        <ele>395.1</ele>
        <time>2017-03-26T09:07:41.999Z</time>
      </trkpt>
      <trkpt lat="47.45528" lon="6.78456">
        <ele>395.3</ele>
        <time>2017-03-26T09:07:42.999Z</time>
      </trkpt>
      <trkpt lat="47.45531" lon="6.78454">
        <ele>395.5</ele>
        <time>2017-03-26T09:07:43.999Z</time>
      </trkpt>
      <trkpt lat="47.45535" lon="6.78451">
        <ele>395.7</ele>
        <time>2017-03-26T09:07:44.999Z</time>
      </trkpt>
      <trkpt lat="47.45537" lon="6.7845">
        <ele>395.9</ele>
        <time>2017-03-26T09:07:45.999Z</time>
      </trkpt>
      <trkpt lat="47.4554" lon="6.78447">
        <ele>396.2</ele>
        <time>2017-03-26T09:07:46.999Z</time>
      </trkpt>
      <trkpt lat="47.45542" lon="6.78446">
        <ele>396.3</ele>
        <time>2017-03-26T09:07:47.999Z</time>
      </trkpt>
      <trkpt lat="47.45545" lon="6.78444">
        <ele>396.4</ele>
        <time>2017-03-26T09:07:48.999Z</time>
      </trkpt>
      <trkpt lat="47.45547" lon="6.78443">
        <ele>396.5</ele>
        <time>2017-03-26T09:07:49.999Z</time>
      </trkpt>
      <trkpt lat="47.4555" lon="6.78441">
        <ele>396.5</ele>
        <time>2017-03-26T09:07:50.999Z</time>
      </trkpt>
      <trkpt lat="47.45552" lon="6.7844">
        <ele>396.6</ele>
        <time>2017-03-26T09:07:51.999Z</time>
      </trkpt>
      <trkpt lat="47.45555" lon="6.78438">
        <ele>396.7</ele>
        <time>2017-03-26T09:07:52.999Z</time>
      </trkpt>
      <trkpt lat="47.45558" lon="6.78436">
        <ele>396.8</ele>
        <time>2017-03-26T09:07:53.999Z</time>
      </trkpt>
      <trkpt lat="47.4556" lon="6.78435">
        <ele>396.9</ele>
        <time>2017-03-26T09:07:54.999Z</time>
      </trkpt>
      <trkpt lat="47.45562" lon="6.78434">
        <ele>397</ele>
        <time>2017-03-26T09:07:55.999Z</time>
      </trkpt>
      <trkpt lat="47.45565" lon="6.78433">
        <ele>397</ele>
        <time>2017-03-26T09:07:56.999Z</time>
      </trkpt>
      <trkpt lat="47.45567" lon="6.78432">
        <ele>397</ele>
        <time>2017-03-26T09:07:57.999Z</time>
      </trkpt>
      <trkpt lat="47.4557" lon="6.78431">
        <ele>397</ele>
        <time>2017-03-26T09:07:58.999Z</time>
      </trkpt>
      <trkpt lat="47.45572" lon="6.7843">
        <ele>397</ele>
        <time>2017-03-26T09:07:59.999Z</time>
      </trkpt>
      <trkpt lat="47.45576" lon="6.78428">
        <ele>397.1</ele>
        <time>2017-03-26T09:08:00.999Z</time>
      </trkpt>
      <trkpt lat="47.45579" lon="6.78427">
        <ele>397.2</ele>
        <time>2017-03-26T09:08:01.999Z</time>
      </trkpt>
      <trkpt lat="47.45582" lon="6.78425">
        <ele>397.3</ele>
        <time>2017-03-26T09:08:02.999Z</time>
      </trkpt>
      <trkpt lat="47.45585" lon="6.78424">
        <ele>397.4</ele>
        <time>2017-03-26T09:08:03.999Z</time>
      </trkpt>
      <trkpt lat="47.45588" lon="6.78422">
        <ele>397.5</ele>
        <time>2017-03-26T09:08:04.999Z</time>
      </trkpt>
      <trkpt lat="47.45591" lon="6.78421">
        <ele>397.7</ele>
        <time>2017-03-26T09:08:05.999Z</time>
      </trkpt>
      <trkpt lat="47.45593" lon="6.78419">
        <ele>397.8</ele>
        <time>2017-03-26T09:08:06.999Z</time>
      </trkpt>
      <trkpt lat="47.45596" lon="6.78418">
        <ele>397.9</ele>
        <time>2017-03-26T09:08:07.999Z</time>
      </trkpt>
      <trkpt lat="47.45599" lon="6.78417">
        <ele>398</ele>
        <time>2017-03-26T09:08:08.999Z</time>
      </trkpt>
      <trkpt lat="47.45602" lon="6.78415">
        <ele>398.1</ele>
        <time>2017-03-26T09:08:09.999Z</time>
      </trkpt>
      <trkpt lat="47.45605" lon="6.78413">
        <ele>398.2</ele>
        <time>2017-03-26T09:08:10.999Z</time>
      </trkpt>
      <trkpt lat="47.45608" lon="6.78412">
        <ele>398.3</ele>
        <time>2017-03-26T09:08:11.999Z</time>
      </trkpt>
      <trkpt lat="47.4561" lon="6.78411">
        <ele>398.4</ele>
        <time>2017-03-26T09:08:12.999Z</time>
      </trkpt>
      <trkpt lat="47.45613" lon="6.78409">
        <ele>398.3</ele>
        <time>2017-03-26T09:08:13.999Z</time>
      </trkpt>
      <trkpt lat="47.45617" lon="6.78407">
        <ele>398.3</ele>
        <time>2017-03-26T09:08:14.999Z</time>
      </trkpt>
      <trkpt lat="47.4562" lon="6.78406">
        <ele>398.3</ele>
        <time>2017-03-26T09:08:15.999Z</time>
      </trkpt>
      <trkpt lat="47.45622" lon="6.78404">
        <ele>398.3</ele>
        <time>2017-03-26T09:08:16.999Z</time>
      </trkpt>
      <trkpt lat="47.45625" lon="6.78403">
        <ele>398.3</ele>
        <time>2017-03-26T09:08:17.999Z</time>
      </trkpt>
      <trkpt lat="47.45627" lon="6.78402">
        <ele>398.3</ele>
        <time>2017-03-26T09:08:18.999Z</time>
      </trkpt>
      <trkpt lat="47.4563" lon="6.78401">
        <ele>398.2</ele>
        <time>2017-03-26T09:08:19.999Z</time>
      </trkpt>
      <trkpt lat="47.45632" lon="6.784">
        <ele>398.2</ele>
        <time>2017-03-26T09:08:20.999Z</time>
      </trkpt>
      <trkpt lat="47.45635" lon="6.784">
        <ele>398.1</ele>
        <time>2017-03-26T09:08:21.999Z</time>
      </trkpt>
      <trkpt lat="47.45638" lon="6.78399">
        <ele>398.1</ele>
        <time>2017-03-26T09:08:22.999Z</time>
      </trkpt>
      <trkpt lat="47.45641" lon="6.78397">
        <ele>398.2</ele>
        <time>2017-03-26T09:08:23.999Z</time>
      </trkpt>
      <trkpt lat="47.45645" lon="6.78396">
        <ele>398.1</ele>
        <time>2017-03-26T09:08:24.999Z</time>
      </trkpt>
      <trkpt lat="47.45649" lon="6.78393">
        <ele>398.2</ele>
        <time>2017-03-26T09:08:25.999Z</time>
      </trkpt>
      <trkpt lat="47.45652" lon="6.78392">
        <ele>398.2</ele>
        <time>2017-03-26T09:08:26.999Z</time>
      </trkpt>
      <trkpt lat="47.45654" lon="6.78391">
        <ele>398.3</ele>
        <time>2017-03-26T09:08:27.999Z</time>
      </trkpt>
      <trkpt lat="47.45656" lon="6.7839">
        <ele>398.4</ele>
        <time>2017-03-26T09:08:28.999Z</time>
      </trkpt>
      <trkpt lat="47.4566" lon="6.78388">
        <ele>398.5</ele>
        <time>2017-03-26T09:08:29.999Z</time>
      </trkpt>
      <trkpt lat="47.45663" lon="6.78387">
        <ele>398.6</ele>
        <time>2017-03-26T09:08:30.999Z</time>
      </trkpt>
      <trkpt lat="47.45666" lon="6.78386">
        <ele>398.7</ele>
        <time>2017-03-26T09:08:31.999Z</time>
      </trkpt>
      <trkpt lat="47.4567" lon="6.78385">
        <ele>398.6</ele>
        <time>2017-03-26T09:08:32.999Z</time>
      </trkpt>
      <trkpt lat="47.45672" lon="6.78385">
        <ele>398.5</ele>
        <time>2017-03-26T09:08:33.999Z</time>
      </trkpt>
      <trkpt lat="47.45675" lon="6.78384">
        <ele>398.5</ele>
        <time>2017-03-26T09:08:34.999Z</time>
      </trkpt>
      <trkpt lat="47.45678" lon="6.78384">
        <ele>398.4</ele>
        <time>2017-03-26T09:08:35.999Z</time>
      </trkpt>
      <trkpt lat="47.45681" lon="6.78384">
        <ele>398.3</ele>
        <time>2017-03-26T09:08:36.999Z</time>
      </trkpt>
      <trkpt lat="47.45683" lon="6.78384">
        <ele>398.2</ele>
        <time>2017-03-26T09:08:37.999Z</time>
      </trkpt>
      <trkpt lat="47.45685" lon="6.78384">
        <ele>398.4</ele>
        <time>2017-03-26T09:08:38.999Z</time>
      </trkpt>
      <trkpt lat="47.45688" lon="6.78385">
        <ele>398.5</ele>
        <time>2017-03-26T09:08:39.999Z</time>
      </trkpt>
      <trkpt lat="47.45691" lon="6.78385">
        <ele>398.6</ele>
        <time>2017-03-26T09:08:40.999Z</time>
      </trkpt>
      <trkpt lat="47.45695" lon="6.78385">
        <ele>398.7</ele>
        <time>2017-03-26T09:08:41.999Z</time>
      </trkpt>
      <trkpt lat="47.45698" lon="6.78385">
        <ele>398.8</ele>
        <time>2017-03-26T09:08:42.999Z</time>
      </trkpt>
      <trkpt lat="47.45701" lon="6.78385">
        <ele>398.8</ele>
        <time>2017-03-26T09:08:43.999Z</time>
      </trkpt>
      <trkpt lat="47.45703" lon="6.78385">
        <ele>398.8</ele>
        <time>2017-03-26T09:08:44.999Z</time>
      </trkpt>
      <trkpt lat="47.45706" lon="6.78385">
        <ele>398.8</ele>
        <time>2017-03-26T09:08:45.999Z</time>
      </trkpt>
      <trkpt lat="47.45709" lon="6.78385">
        <ele>398.8</ele>
        <time>2017-03-26T09:08:46.999Z</time>
      </trkpt>
      <trkpt lat="47.45711" lon="6.78386">
        <ele>398.8</ele>
        <time>2017-03-26T09:08:47.999Z</time>
      </trkpt>
      <trkpt lat="47.45715" lon="6.78386">
        <ele>398.8</ele>
        <time>2017-03-26T09:08:48.999Z</time>
      </trkpt>
      <trkpt lat="47.45717" lon="6.78387">
        <ele>398.9</ele>
        <time>2017-03-26T09:08:49.999Z</time>
      </trkpt>
      <trkpt lat="47.45719" lon="6.78387">
        <ele>398.9</ele>
        <time>2017-03-26T09:08:50.999Z</time>
      </trkpt>
      <trkpt lat="47.45723" lon="6.78388">
        <ele>399.1</ele>
        <time>2017-03-26T09:08:52.999Z</time>
      </trkpt>
      <trkpt lat="47.45727" lon="6.78389">
        <ele>399.2</ele>
        <time>2017-03-26T09:08:53.999Z</time>
      </trkpt>
      <trkpt lat="47.4573" lon="6.78389">
        <ele>399.2</ele>
        <time>2017-03-26T09:08:54.999Z</time>
      </trkpt>
      <trkpt lat="47.45733" lon="6.7839">
        <ele>399.3</ele>
        <time>2017-03-26T09:08:55.999Z</time>
      </trkpt>
      <trkpt lat="47.45737" lon="6.7839">
        <ele>399.3</ele>
        <time>2017-03-26T09:08:56.999Z</time>
      </trkpt>
      <trkpt lat="47.4574" lon="6.78391">
        <ele>399.3</ele>
        <time>2017-03-26T09:08:57.999Z</time>
      </trkpt>
      <trkpt lat="47.45742" lon="6.78391">
        <ele>399.5</ele>
        <time>2017-03-26T09:08:58.999Z</time>
      </trkpt>
      <trkpt lat="47.45745" lon="6.78392">
        <ele>399.5</ele>
        <time>2017-03-26T09:08:59.999Z</time>
      </trkpt>
      <trkpt lat="47.45747" lon="6.78392">
        <ele>399.5</ele>
        <time>2017-03-26T09:09:00.999Z</time>
      </trkpt>
      <trkpt lat="47.4575" lon="6.78393">
        <ele>399.4</ele>
        <time>2017-03-26T09:09:01.999Z</time>
      </trkpt>
      <trkpt lat="47.45752" lon="6.78394">
        <ele>399.4</ele>
        <time>2017-03-26T09:09:02.999Z</time>
      </trkpt>
      <trkpt lat="47.45755" lon="6.78394">
        <ele>399.5</ele>
        <time>2017-03-26T09:09:03.999Z</time>
      </trkpt>
      <trkpt lat="47.45758" lon="6.78395">
        <ele>399.4</ele>
        <time>2017-03-26T09:09:04.999Z</time>
      </trkpt>
      <trkpt lat="47.4576" lon="6.78396">
        <ele>399.4</ele>
        <time>2017-03-26T09:09:05.999Z</time>
      </trkpt>
      <trkpt lat="47.45762" lon="6.78397">
        <ele>399.5</ele>
        <time>2017-03-26T09:09:06.999Z</time>
      </trkpt>
      <trkpt lat="47.45765" lon="6.78399">
        <ele>399.7</ele>
        <time>2017-03-26T09:09:07.999Z</time>
      </trkpt>
      <trkpt lat="47.45768" lon="6.784">
        <ele>399.9</ele>
        <time>2017-03-26T09:09:08.999Z</time>
      </trkpt>
      <trkpt lat="47.4577" lon="6.78402">
        <ele>399.9</ele>
        <time>2017-03-26T09:09:09.999Z</time>
      </trkpt>
      <trkpt lat="47.45773" lon="6.78403">
        <ele>400</ele>
        <time>2017-03-26T09:09:10.999Z</time>
      </trkpt>
      <trkpt lat="47.45776" lon="6.78405">
        <ele>400.2</ele>
        <time>2017-03-26T09:09:11.999Z</time>
      </trkpt>
      <trkpt lat="47.45778" lon="6.78406">
        <ele>400.3</ele>
        <time>2017-03-26T09:09:12.999Z</time>
      </trkpt>
      <trkpt lat="47.45781" lon="6.78407">
        <ele>400.3</ele>
        <time>2017-03-26T09:09:13.999Z</time>
      </trkpt>
      <trkpt lat="47.45783" lon="6.78409">
        <ele>400.3</ele>
        <time>2017-03-26T09:09:14.999Z</time>
      </trkpt>
      <trkpt lat="47.45786" lon="6.7841">
        <ele>400.2</ele>
        <time>2017-03-26T09:09:15.999Z</time>
      </trkpt>
      <trkpt lat="47.45789" lon="6.78413">
        <ele>400.4</ele>
        <time>2017-03-26T09:09:17.999Z</time>
      </trkpt>
      <trkpt lat="47.45792" lon="6.78415">
        <ele>400.5</ele>
        <time>2017-03-26T09:09:18.999Z</time>
      </trkpt>
      <trkpt lat="47.45795" lon="6.78419">
        <ele>400.8</ele>
        <time>2017-03-26T09:09:20.999Z</time>
      </trkpt>
      <trkpt lat="47.45797" lon="6.7842">
        <ele>400.8</ele>
        <time>2017-03-26T09:09:21.999Z</time>
      </trkpt>
      <trkpt lat="47.458" lon="6.78424">
        <ele>400.9</ele>
        <time>2017-03-26T09:09:23.999Z</time>
      </trkpt>
      <trkpt lat="47.45801" lon="6.78426">
        <ele>400.9</ele>
        <time>2017-03-26T09:09:24.999Z</time>
      </trkpt>
      <trkpt lat="47.45804" lon="6.78431">
        <ele>400.9</ele>
        <time>2017-03-26T09:09:27.999Z</time>
      </trkpt>
      <trkpt lat="47.45805" lon="6.78432">
        <ele>400.9</ele>
        <time>2017-03-26T09:09:28.999Z</time>
      </trkpt>
      <trkpt lat="47.45806" lon="6.78437">
        <ele>400.8</ele>
        <time>2017-03-26T09:09:31.999Z</time>
      </trkpt>
      <trkpt lat="47.45808" lon="6.78439">
        <ele>400.8</ele>
        <time>2017-03-26T09:09:32.999Z</time>
      </trkpt>
      <trkpt lat="47.45812" lon="6.78441">
        <ele>400.9</ele>
        <time>2017-03-26T09:09:34.999Z</time>
      </trkpt>
      <trkpt lat="47.45813" lon="6.78441">
        <ele>401</ele>
        <time>2017-03-26T09:09:35.999Z</time>
      </trkpt>
      <trkpt lat="47.45816" lon="6.78442">
        <ele>401.7</ele>
        <time>2017-03-26T09:09:39.999Z</time>
      </trkpt>
      <trkpt lat="47.45818" lon="6.78444">
        <ele>402</ele>
        <time>2017-03-26T09:09:40.999Z</time>
      </trkpt>
      <trkpt lat="47.45821" lon="6.78448">
        <ele>402.6</ele>
        <time>2017-03-26T09:09:42.999Z</time>
      </trkpt>
      <trkpt lat="47.45823" lon="6.78449">
        <ele>402.9</ele>
        <time>2017-03-26T09:09:43.999Z</time>
      </trkpt>
      <trkpt lat="47.45825" lon="6.78452">
        <ele>403.2</ele>
        <time>2017-03-26T09:09:45.999Z</time>
      </trkpt>
      <trkpt lat="47.45827" lon="6.78452">
        <ele>403.4</ele>
        <time>2017-03-26T09:09:46.999Z</time>
      </trkpt>
      <trkpt lat="47.4583" lon="6.78454">
        <ele>403.7</ele>
        <time>2017-03-26T09:09:48.999Z</time>
      </trkpt>
      <trkpt lat="47.45832" lon="6.78455">
        <ele>403.9</ele>
        <time>2017-03-26T09:09:49.999Z</time>
      </trkpt>
      <trkpt lat="47.45835" lon="6.78458">
        <ele>404.1</ele>
        <time>2017-03-26T09:09:51.999Z</time>
      </trkpt>
      <trkpt lat="47.45837" lon="6.7846">
        <ele>404.1</ele>
        <time>2017-03-26T09:09:52.999Z</time>
      </trkpt>
      <trkpt lat="47.4584" lon="6.78463">
        <ele>404.3</ele>
        <time>2017-03-26T09:09:54.999Z</time>
      </trkpt>
      <trkpt lat="47.45841" lon="6.78465">
        <ele>404.5</ele>
        <time>2017-03-26T09:09:55.999Z</time>
      </trkpt>
      <trkpt lat="47.45845" lon="6.78469">
        <ele>405</ele>
        <time>2017-03-26T09:09:57.999Z</time>
      </trkpt>
      <trkpt lat="47.45847" lon="6.7847">
        <ele>405.1</ele>
        <time>2017-03-26T09:09:58.999Z</time>
      </trkpt>
      <trkpt lat="47.4585" lon="6.78472">
        <ele>405.4</ele>
        <time>2017-03-26T09:10:00.999Z</time>
      </trkpt>
      <trkpt lat="47.45852" lon="6.78473">
        <ele>405.6</ele>
        <time>2017-03-26T09:10:01.999Z</time>
      </trkpt>
      <trkpt lat="47.45855" lon="6.78476">
        <ele>406</ele>
        <time>2017-03-26T09:10:03.999Z</time>
      </trkpt>
      <trkpt lat="47.45856" lon="6.78478">
        <ele>406.1</ele>
        <time>2017-03-26T09:10:04.999Z</time>
      </trkpt>
      <trkpt lat="47.4586" lon="6.78482">
        <ele>406.6</ele>
        <time>2017-03-26T09:10:06.999Z</time>
      </trkpt>
      <trkpt lat="47.45861" lon="6.78485">
        <ele>406.7</ele>
        <time>2017-03-26T09:10:07.999Z</time>
      </trkpt>
      <trkpt lat="47.45864" lon="6.78489">
        <ele>407.2</ele>
        <time>2017-03-26T09:10:09.999Z</time>
      </trkpt>
      <trkpt lat="47.45866" lon="6.7849">
        <ele>407.3</ele>
        <time>2017-03-26T09:10:10.999Z</time>
      </trkpt>
      <trkpt lat="47.45868" lon="6.78492">
        <ele>407.5</ele>
        <time>2017-03-26T09:10:12.999Z</time>
      </trkpt>
      <trkpt lat="47.4587" lon="6.78494">
        <ele>407.7</ele>
        <time>2017-03-26T09:10:13.999Z</time>
      </trkpt>
      <trkpt lat="47.45873" lon="6.78496">
        <ele>408.1</ele>
        <time>2017-03-26T09:10:15.999Z</time>
      </trkpt>
      <trkpt lat="47.45875" lon="6.78498">
        <ele>408.3</ele>
        <time>2017-03-26T09:10:16.999Z</time>
      </trkpt>
      <trkpt lat="47.45877" lon="6.785">
        <ele>408.5</ele>
        <time>2017-03-26T09:10:17.999Z</time>
      </trkpt>
      <trkpt lat="47.45879" lon="6.78502">
        <ele>408.7</ele>
        <time>2017-03-26T09:10:18.999Z</time>
      </trkpt>
      <trkpt lat="47.45881" lon="6.78505">
        <ele>409.1</ele>
        <time>2017-03-26T09:10:20.999Z</time>
      </trkpt>
      <trkpt lat="47.45883" lon="6.78506">
        <ele>409.3</ele>
        <time>2017-03-26T09:10:21.999Z</time>
      </trkpt>
      <trkpt lat="47.45885" lon="6.7851">
        <ele>409.5</ele>
        <time>2017-03-26T09:10:23.999Z</time>
      </trkpt>
      <trkpt lat="47.45888" lon="6.78512">
        <ele>409.7</ele>
        <time>2017-03-26T09:10:24.999Z</time>
      </trkpt>
      <trkpt lat="47.45891" lon="6.78516">
        <ele>409.9</ele>
        <time>2017-03-26T09:10:26.999Z</time>
      </trkpt>
      <trkpt lat="47.45892" lon="6.78519">
        <ele>410.1</ele>
        <time>2017-03-26T09:10:27.999Z</time>
      </trkpt>
      <trkpt lat="47.45895" lon="6.78522">
        <ele>410.4</ele>
        <time>2017-03-26T09:10:28.999Z</time>
      </trkpt>
      <trkpt lat="47.45897" lon="6.78524">
        <ele>410.5</ele>
        <time>2017-03-26T09:10:29.999Z</time>
      </trkpt>
      <trkpt lat="47.45898" lon="6.78527">
        <ele>410.7</ele>
        <time>2017-03-26T09:10:30.999Z</time>
      </trkpt>
      <trkpt lat="47.459" lon="6.78529">
        <ele>411</ele>
        <time>2017-03-26T09:10:31.999Z</time>
      </trkpt>
      <trkpt lat="47.45903" lon="6.78534">
        <ele>411.3</ele>
        <time>2017-03-26T09:10:33.999Z</time>
      </trkpt>
      <trkpt lat="47.45905" lon="6.78536">
        <ele>411.6</ele>
        <time>2017-03-26T09:10:34.999Z</time>
      </trkpt>
      <trkpt lat="47.45908" lon="6.78539">
        <ele>412.6</ele>
        <time>2017-03-26T09:10:37.999Z</time>
      </trkpt>
      <trkpt lat="47.45909" lon="6.7854">
        <ele>412.8</ele>
        <time>2017-03-26T09:10:38.999Z</time>
      </trkpt>
      <trkpt lat="47.45911" lon="6.78541">
        <ele>413.2</ele>
        <time>2017-03-26T09:10:40.999Z</time>
      </trkpt>
      <trkpt lat="47.45913" lon="6.78543">
        <ele>413.4</ele>
        <time>2017-03-26T09:10:41.999Z</time>
      </trkpt>
      <trkpt lat="47.45916" lon="6.78544">
        <ele>413.7</ele>
        <time>2017-03-26T09:10:43.999Z</time>
      </trkpt>
      <trkpt lat="47.45918" lon="6.78544">
        <ele>413.9</ele>
        <time>2017-03-26T09:10:44.999Z</time>
      </trkpt>
      <trkpt lat="47.45921" lon="6.78544">
        <ele>414</ele>
        <time>2017-03-26T09:10:46.999Z</time>
      </trkpt>
      <trkpt lat="47.45923" lon="6.78544">
        <ele>414</ele>
        <time>2017-03-26T09:10:47.999Z</time>
      </trkpt>
      <trkpt lat="47.45926" lon="6.78545">
        <ele>413.9</ele>
        <time>2017-03-26T09:10:49.999Z</time>
      </trkpt>
      <trkpt lat="47.45928" lon="6.78544">
        <ele>413.9</ele>
        <time>2017-03-26T09:10:50.999Z</time>
      </trkpt>
      <trkpt lat="47.45931" lon="6.78542">
        <ele>413.7</ele>
        <time>2017-03-26T09:10:52.999Z</time>
      </trkpt>
      <trkpt lat="47.45933" lon="6.7854">
        <ele>413.7</ele>
        <time>2017-03-26T09:10:53.999Z</time>
      </trkpt>
      <trkpt lat="47.45934" lon="6.78536">
        <ele>413.6</ele>
        <time>2017-03-26T09:10:55.999Z</time>
      </trkpt>
      <trkpt lat="47.45935" lon="6.78534">
        <ele>413.5</ele>
        <time>2017-03-26T09:10:56.999Z</time>
      </trkpt>
      <trkpt lat="47.45935" lon="6.78532">
        <ele>413.5</ele>
        <time>2017-03-26T09:10:57.999Z</time>
      </trkpt>
      <trkpt lat="47.45935" lon="6.78527">
        <ele>413.4</ele>
        <time>2017-03-26T09:10:58.999Z</time>
      </trkpt>
      <trkpt lat="47.45934" lon="6.78523">
        <ele>413.4</ele>
        <time>2017-03-26T09:10:59.999Z</time>
      </trkpt>
      <trkpt lat="47.45933" lon="6.78519">
        <ele>413.3</ele>
        <time>2017-03-26T09:11:00.999Z</time>
      </trkpt>
      <trkpt lat="47.45932" lon="6.78515">
        <ele>413.3</ele>
        <time>2017-03-26T09:11:01.999Z</time>
      </trkpt>
      <trkpt lat="47.45932" lon="6.78511">
        <ele>413.3</ele>
        <time>2017-03-26T09:11:02.999Z</time>
      </trkpt>
      <trkpt lat="47.45932" lon="6.78505">
        <ele>413.3</ele>
        <time>2017-03-26T09:11:04.999Z</time>
      </trkpt>
      <trkpt lat="47.45931" lon="6.78502">
        <ele>413.4</ele>
        <time>2017-03-26T09:11:05.999Z</time>
      </trkpt>
      <trkpt lat="47.4593" lon="6.78499">
        <ele>413.4</ele>
        <time>2017-03-26T09:11:06.999Z</time>
      </trkpt>
      <trkpt lat="47.4593" lon="6.78495">
        <ele>413.5</ele>
        <time>2017-03-26T09:11:07.999Z</time>
      </trkpt>
      <trkpt lat="47.45929" lon="6.78491">
        <ele>413.6</ele>
        <time>2017-03-26T09:11:08.999Z</time>
      </trkpt>
      <trkpt lat="47.45928" lon="6.78488">
        <ele>413.7</ele>
        <time>2017-03-26T09:11:09.999Z</time>
      </trkpt>
      <trkpt lat="47.45927" lon="6.78483">
        <ele>413.8</ele>
        <time>2017-03-26T09:11:10.999Z</time>
      </trkpt>
      <trkpt lat="47.45926" lon="6.78479">
        <ele>414</ele>
        <time>2017-03-26T09:11:11.999Z</time>
      </trkpt>
      <trkpt lat="47.45925" lon="6.78474">
        <ele>414.3</ele>
        <time>2017-03-26T09:11:12.999Z</time>
      </trkpt>
      <trkpt lat="47.45925" lon="6.78469">
        <ele>414.4</ele>
        <time>2017-03-26T09:11:13.999Z</time>
      </trkpt>
      <trkpt lat="47.45926" lon="6.78465">
        <ele>414.6</ele>
        <time>2017-03-26T09:11:14.999Z</time>
      </trkpt>
      <trkpt lat="47.45926" lon="6.78462">
        <ele>414.7</ele>
        <time>2017-03-26T09:11:15.999Z</time>
      </trkpt>
      <trkpt lat="47.45928" lon="6.78457">
        <ele>415</ele>
        <time>2017-03-26T09:11:17.999Z</time>
      </trkpt>
      <trkpt lat="47.45929" lon="6.78454">
        <ele>415.1</ele>
        <time>2017-03-26T09:11:18.999Z</time>
      </trkpt>
      <trkpt lat="47.45933" lon="6.7845">
        <ele>415.1</ele>
        <time>2017-03-26T09:11:19.999Z</time>
      </trkpt>
      <trkpt lat="47.45936" lon="6.78446">
        <ele>415.2</ele>
        <time>2017-03-26T09:11:21.999Z</time>
      </trkpt>
      <trkpt lat="47.4594" lon="6.78443">
        <ele>415</ele>
        <time>2017-03-26T09:11:22.999Z</time>
      </trkpt>
      <trkpt lat="47.45943" lon="6.7844">
        <ele>414.9</ele>
        <time>2017-03-26T09:11:23.999Z</time>
      </trkpt>
      <trkpt lat="47.45945" lon="6.78437">
        <ele>414.8</ele>
        <time>2017-03-26T09:11:24.999Z</time>
      </trkpt>
      <trkpt lat="47.45947" lon="6.78434">
        <ele>414.5</ele>
        <time>2017-03-26T09:11:26.999Z</time>
      </trkpt>
      <trkpt lat="47.45948" lon="6.78432">
        <ele>414.2</ele>
        <time>2017-03-26T09:11:27.999Z</time>
      </trkpt>
      <trkpt lat="47.45951" lon="6.78428">
        <ele>413.2</ele>
        <time>2017-03-26T09:11:30.999Z</time>
      </trkpt>
      <trkpt lat="47.45951" lon="6.78427">
        <ele>412.9</ele>
        <time>2017-03-26T09:11:31.999Z</time>
      </trkpt>
      <trkpt lat="47.45954" lon="6.7843">
        <ele>412</ele>
        <time>2017-03-26T09:11:35.999Z</time>
      </trkpt>
      <trkpt lat="47.45955" lon="6.78431">
        <ele>411.7</ele>
        <time>2017-03-26T09:11:36.999Z</time>
      </trkpt>
      <trkpt lat="47.45958" lon="6.78434">
        <ele>411.1</ele>
        <time>2017-03-26T09:11:39.999Z</time>
      </trkpt>
      <trkpt lat="47.4596" lon="6.78434">
        <ele>411.6</ele>
        <time>2017-03-26T09:11:40.999Z</time>
      </trkpt>
      <trkpt lat="47.45962" lon="6.78438">
        <ele>414.5</ele>
        <time>2017-03-26T09:11:47.000Z</time>
      </trkpt>
      <trkpt lat="47.45963" lon="6.7844">
        <ele>415.3</ele>
        <time>2017-03-26T09:11:47.999Z</time>
      </trkpt>
      <trkpt lat="47.45965" lon="6.78443">
        <ele>418.5</ele>
        <time>2017-03-26T09:11:52.000Z</time>
      </trkpt>
      <trkpt lat="47.45966" lon="6.78445">
        <ele>419.3</ele>
        <time>2017-03-26T09:11:53.000Z</time>
      </trkpt>
      <trkpt lat="47.45969" lon="6.7845">
        <ele>421.5</ele>
        <time>2017-03-26T09:11:59.000Z</time>
      </trkpt>
      <trkpt lat="47.4597" lon="6.78452">
        <ele>422</ele>
        <time>2017-03-26T09:12:00.000Z</time>
      </trkpt>
      <trkpt lat="47.4597" lon="6.78455">
        <ele>423.9</ele>
        <time>2017-03-26T09:12:04.000Z</time>
      </trkpt>
      <trkpt lat="47.45971" lon="6.78458">
        <ele>424.3</ele>
        <time>2017-03-26T09:12:05.000Z</time>
      </trkpt>
      <trkpt lat="47.45974" lon="6.78462">
        <ele>425.4</ele>
        <time>2017-03-26T09:12:08.000Z</time>
      </trkpt>
      <trkpt lat="47.45976" lon="6.78465">
        <ele>425.9</ele>
        <time>2017-03-26T09:12:09.000Z</time>
      </trkpt>
      <trkpt lat="47.45978" lon="6.78468">
        <ele>426.5</ele>
        <time>2017-03-26T09:12:10.000Z</time>
      </trkpt>
      <trkpt lat="47.45985" lon="6.78474">
        <ele>427.1</ele>
        <time>2017-03-26T09:12:11.000Z</time>
      </trkpt>
      <trkpt lat="47.45989" lon="6.78476">
        <ele>427.6</ele>
        <time>2017-03-26T09:12:12.000Z</time>
      </trkpt>
      <trkpt lat="47.4599" lon="6.78475">
        <ele>428.1</ele>
        <time>2017-03-26T09:12:13.000Z</time>
      </trkpt>
      <trkpt lat="47.45994" lon="6.78474">
        <ele>428.9</ele>
        <time>2017-03-26T09:12:15.000Z</time>
      </trkpt>
      <trkpt lat="47.45996" lon="6.78473">
        <ele>429</ele>
        <time>2017-03-26T09:12:16.000Z</time>
      </trkpt>
      <trkpt lat="47.45997" lon="6.78473">
        <ele>429.3</ele>
        <time>2017-03-26T09:12:17.000Z</time>
      </trkpt>
      <trkpt lat="47.46001" lon="6.78472">
        <ele>429.6</ele>
        <time>2017-03-26T09:12:18.000Z</time>
      </trkpt>
      <trkpt lat="47.46004" lon="6.78472">
        <ele>429.7</ele>
        <time>2017-03-26T09:12:19.000Z</time>
      </trkpt>
      <trkpt lat="47.46006" lon="6.78473">
        <ele>429.8</ele>
        <time>2017-03-26T09:12:20.000Z</time>
      </trkpt>
      <trkpt lat="47.4601" lon="6.78472">
        <ele>430.2</ele>
        <time>2017-03-26T09:12:23.000Z</time>
      </trkpt>
      <trkpt lat="47.46011" lon="6.78473">
        <ele>430.3</ele>
        <time>2017-03-26T09:12:24.000Z</time>
      </trkpt>
      <trkpt lat="47.46015" lon="6.78474">
        <ele>430.3</ele>
        <time>2017-03-26T09:12:25.000Z</time>
      </trkpt>
      <trkpt lat="47.46017" lon="6.78475">
        <ele>430.4</ele>
        <time>2017-03-26T09:12:26.000Z</time>
      </trkpt>
      <trkpt lat="47.46021" lon="6.78478">
        <ele>430.4</ele>
        <time>2017-03-26T09:12:27.000Z</time>
      </trkpt>
      <trkpt lat="47.46023" lon="6.78479">
        <ele>430.6</ele>
        <time>2017-03-26T09:12:28.000Z</time>
      </trkpt>
      <trkpt lat="47.46027" lon="6.78478">
        <ele>431.1</ele>
        <time>2017-03-26T09:12:33.000Z</time>
      </trkpt>
      <trkpt lat="47.4603" lon="6.78479">
        <ele>431.2</ele>
        <time>2017-03-26T09:12:34.000Z</time>
      </trkpt>
      <trkpt lat="47.46034" lon="6.7848">
        <ele>431.1</ele>
        <time>2017-03-26T09:12:37.000Z</time>
      </trkpt>
      <trkpt lat="47.46036" lon="6.78481">
        <ele>431</ele>
        <time>2017-03-26T09:12:38.000Z</time>
      </trkpt>
      <trkpt lat="47.46038" lon="6.78483">
        <ele>431.1</ele>
        <time>2017-03-26T09:12:39.000Z</time>
      </trkpt>
      <trkpt lat="47.46041" lon="6.78485">
        <ele>431.2</ele>
        <time>2017-03-26T09:12:40.000Z</time>
      </trkpt>
      <trkpt lat="47.46044" lon="6.78486">
        <ele>431.1</ele>
        <time>2017-03-26T09:12:41.000Z</time>
      </trkpt>
      <trkpt lat="47.46046" lon="6.78487">
        <ele>431.2</ele>
        <time>2017-03-26T09:12:42.000Z</time>
      </trkpt>
      <trkpt lat="47.46049" lon="6.78489">
        <ele>431.4</ele>
        <time>2017-03-26T09:12:43.000Z</time>
      </trkpt>
      <trkpt lat="47.46051" lon="6.7849">
        <ele>431.5</ele>
        <time>2017-03-26T09:12:44.000Z</time>
      </trkpt>
      <trkpt lat="47.46053" lon="6.78492">
        <ele>431.5</ele>
        <time>2017-03-26T09:12:45.000Z</time>
      </trkpt>
      <trkpt lat="47.46056" lon="6.78495">
        <ele>431.7</ele>
        <time>2017-03-26T09:12:46.000Z</time>
      </trkpt>
      <trkpt lat="47.46059" lon="6.78498">
        <ele>432.5</ele>
        <time>2017-03-26T09:12:49.000Z</time>
      </trkpt>
      <trkpt lat="47.4606" lon="6.785">
        <ele>432.7</ele>
        <time>2017-03-26T09:12:50.000Z</time>
      </trkpt>
      <trkpt lat="47.46061" lon="6.78501">
        <ele>432.9</ele>
        <time>2017-03-26T09:12:51.000Z</time>
      </trkpt>
      <trkpt lat="47.46063" lon="6.78504">
        <ele>433.2</ele>
        <time>2017-03-26T09:12:52.000Z</time>
      </trkpt>
      <trkpt lat="47.46066" lon="6.78508">
        <ele>434</ele>
        <time>2017-03-26T09:12:55.000Z</time>
      </trkpt>
      <trkpt lat="47.46066" lon="6.7851">
        <ele>434.1</ele>
        <time>2017-03-26T09:12:56.000Z</time>
      </trkpt>
      <trkpt lat="47.46069" lon="6.78514">
        <ele>434.7</ele>
        <time>2017-03-26T09:13:00.000Z</time>
      </trkpt>
      <trkpt lat="47.46071" lon="6.78516">
        <ele>435</ele>
        <time>2017-03-26T09:13:01.000Z</time>
      </trkpt>
      <trkpt lat="47.46074" lon="6.7852">
        <ele>435.5</ele>
        <time>2017-03-26T09:13:03.000Z</time>
      </trkpt>
      <trkpt lat="47.46076" lon="6.78522">
        <ele>435.8</ele>
        <time>2017-03-26T09:13:04.000Z</time>
      </trkpt>
      <trkpt lat="47.46079" lon="6.78524">
        <ele>436.2</ele>
        <time>2017-03-26T09:13:06.000Z</time>
      </trkpt>
      <trkpt lat="47.46082" lon="6.78526">
        <ele>436.5</ele>
        <time>2017-03-26T09:13:07.000Z</time>
      </trkpt>
      <trkpt lat="47.46085" lon="6.78528">
        <ele>436.8</ele>
        <time>2017-03-26T09:13:08.000Z</time>
      </trkpt>
      <trkpt lat="47.46086" lon="6.78529">
        <ele>437</ele>
        <time>2017-03-26T09:13:09.000Z</time>
      </trkpt>
      <trkpt lat="47.46091" lon="6.78529">
        <ele>437.9</ele>
        <time>2017-03-26T09:13:14.000Z</time>
      </trkpt>
      <trkpt lat="47.46091" lon="6.78529">
        <ele>437.9</ele>
        <time>2017-03-26T09:13:15.000Z</time>
      </trkpt>
      <trkpt lat="47.46096" lon="6.78528">
        <ele>437.6</ele>
        <time>2017-03-26T09:13:18.000Z</time>
      </trkpt>
      <trkpt lat="47.46097" lon="6.78528">
        <ele>437.4</ele>
        <time>2017-03-26T09:13:19.000Z</time>
      </trkpt>
      <trkpt lat="47.46101" lon="6.78526">
        <ele>436.9</ele>
        <time>2017-03-26T09:13:22.000Z</time>
      </trkpt>
      <trkpt lat="47.46102" lon="6.78526">
        <ele>436.7</ele>
        <time>2017-03-26T09:13:23.000Z</time>
      </trkpt>
      <trkpt lat="47.46106" lon="6.78524">
        <ele>435.6</ele>
        <time>2017-03-26T09:13:27.000Z</time>
      </trkpt>
      <trkpt lat="47.46108" lon="6.78524">
        <ele>435.3</ele>
        <time>2017-03-26T09:13:28.000Z</time>
      </trkpt>
      <trkpt lat="47.4611" lon="6.78523">
        <ele>435.1</ele>
        <time>2017-03-26T09:13:29.000Z</time>
      </trkpt>
      <trkpt lat="47.46112" lon="6.78522">
        <ele>434.9</ele>
        <time>2017-03-26T09:13:30.000Z</time>
      </trkpt>
      <trkpt lat="47.46116" lon="6.78521">
        <ele>434.6</ele>
        <time>2017-03-26T09:13:32.000Z</time>
      </trkpt>
      <trkpt lat="47.46118" lon="6.7852">
        <ele>434.6</ele>
        <time>2017-03-26T09:13:33.000Z</time>
      </trkpt>
      <trkpt lat="47.46122" lon="6.78518">
        <ele>434.7</ele>
        <time>2017-03-26T09:13:34.000Z</time>
      </trkpt>
      <trkpt lat="47.46125" lon="6.78518">
        <ele>434.8</ele>
        <time>2017-03-26T09:13:35.000Z</time>
      </trkpt>
      <trkpt lat="47.46128" lon="6.78516">
        <ele>434.9</ele>
        <time>2017-03-26T09:13:37.000Z</time>
      </trkpt>
      <trkpt lat="47.46132" lon="6.78514">
        <ele>435</ele>
        <time>2017-03-26T09:13:38.000Z</time>
      </trkpt>
      <trkpt lat="47.46135" lon="6.78513">
        <ele>435.3</ele>
        <time>2017-03-26T09:13:39.000Z</time>
      </trkpt>
      <trkpt lat="47.46138" lon="6.78511">
        <ele>435.6</ele>
        <time>2017-03-26T09:13:40.000Z</time>
      </trkpt>
      <trkpt lat="47.46142" lon="6.78511">
        <ele>435.9</ele>
        <time>2017-03-26T09:13:41.000Z</time>
      </trkpt>
      <trkpt lat="47.46145" lon="6.78509">
        <ele>436.2</ele>
        <time>2017-03-26T09:13:42.000Z</time>
      </trkpt>
      <trkpt lat="47.46149" lon="6.78506">
        <ele>436.5</ele>
        <time>2017-03-26T09:13:43.000Z</time>
      </trkpt>
      <trkpt lat="47.46152" lon="6.78504">
        <ele>436.7</ele>
        <time>2017-03-26T09:13:44.000Z</time>
      </trkpt>
      <trkpt lat="47.46155" lon="6.78502">
        <ele>436.9</ele>
        <time>2017-03-26T09:13:45.000Z</time>
      </trkpt>
      <trkpt lat="47.46159" lon="6.78499">
        <ele>437.1</ele>
        <time>2017-03-26T09:13:46.000Z</time>
      </trkpt>
      <trkpt lat="47.46165" lon="6.78497">
        <ele>437.5</ele>
        <time>2017-03-26T09:13:47.000Z</time>
      </trkpt>
      <trkpt lat="47.4617" lon="6.78495">
        <ele>437.9</ele>
        <time>2017-03-26T09:13:48.000Z</time>
      </trkpt>
      <trkpt lat="47.46175" lon="6.78493">
        <ele>438.3</ele>
        <time>2017-03-26T09:13:49.000Z</time>
      </trkpt>
      <trkpt lat="47.46179" lon="6.7849">
        <ele>438.6</ele>
        <time>2017-03-26T09:13:50.000Z</time>
      </trkpt>
      <trkpt lat="47.46185" lon="6.78487">
        <ele>438.7</ele>
        <time>2017-03-26T09:13:51.000Z</time>
      </trkpt>
      <trkpt lat="47.46193" lon="6.78485">
        <ele>440.3</ele>
        <time>2017-03-26T09:13:52.000Z</time>
      </trkpt>
      <trkpt lat="47.46199" lon="6.78484">
        <ele>440.5</ele>
        <time>2017-03-26T09:13:53.000Z</time>
      </trkpt>
      <trkpt lat="47.46205" lon="6.78481">
        <ele>440.8</ele>
        <time>2017-03-26T09:13:54.000Z</time>
      </trkpt>
      <trkpt lat="47.4621" lon="6.78478">
        <ele>441</ele>
        <time>2017-03-26T09:13:55.000Z</time>
      </trkpt>
      <trkpt lat="47.46217" lon="6.78474">
        <ele>441.2</ele>
        <time>2017-03-26T09:13:56.000Z</time>
      </trkpt>
      <trkpt lat="47.46224" lon="6.78468">
        <ele>441.4</ele>
        <time>2017-03-26T09:13:57.000Z</time>
      </trkpt>
      <trkpt lat="47.46229" lon="6.78464">
        <ele>441.5</ele>
        <time>2017-03-26T09:13:58.000Z</time>
      </trkpt>
      <trkpt lat="47.46235" lon="6.78461">
        <ele>441.5</ele>
        <time>2017-03-26T09:13:59.000Z</time>
      </trkpt>
      <trkpt lat="47.46241" lon="6.78461">
        <ele>441.5</ele>
        <time>2017-03-26T09:14:00.000Z</time>
      </trkpt>
      <trkpt lat="47.46246" lon="6.78459">
        <ele>441.4</ele>
        <time>2017-03-26T09:14:01.000Z</time>
      </trkpt>
      <trkpt lat="47.46252" lon="6.78457">
        <ele>441.2</ele>
        <time>2017-03-26T09:14:02.000Z</time>
      </trkpt>
      <trkpt lat="47.46257" lon="6.78456">
        <ele>440.9</ele>
        <time>2017-03-26T09:14:03.000Z</time>
      </trkpt>
      <trkpt lat="47.46263" lon="6.78455">
        <ele>440.7</ele>
        <time>2017-03-26T09:14:04.000Z</time>
      </trkpt>
      <trkpt lat="47.46269" lon="6.78454">
        <ele>440.3</ele>
        <time>2017-03-26T09:14:05.000Z</time>
      </trkpt>
      <trkpt lat="47.46275" lon="6.78453">
        <ele>439.9</ele>
        <time>2017-03-26T09:14:06.000Z</time>
      </trkpt>
      <trkpt lat="47.46281" lon="6.78453">
        <ele>439.4</ele>
        <time>2017-03-26T09:14:07.000Z</time>
      </trkpt>
      <trkpt lat="47.46288" lon="6.78452">
        <ele>438.8</ele>
        <time>2017-03-26T09:14:08.000Z</time>
      </trkpt>
      <trkpt lat="47.46293" lon="6.78452">
        <ele>438.3</ele>
        <time>2017-03-26T09:14:09.000Z</time>
      </trkpt>
      <trkpt lat="47.46296" lon="6.78452">
        <ele>437.7</ele>
        <time>2017-03-26T09:14:10.000Z</time>
      </trkpt>
      <trkpt lat="47.463" lon="6.78449">
        <ele>437.2</ele>
        <time>2017-03-26T09:14:11.000Z</time>
      </trkpt>
      <trkpt lat="47.46304" lon="6.78448">
        <ele>436.6</ele>
        <time>2017-03-26T09:14:12.000Z</time>
      </trkpt>
      <trkpt lat="47.46308" lon="6.78448">
        <ele>436.1</ele>
        <time>2017-03-26T09:14:13.000Z</time>
      </trkpt>
      <trkpt lat="47.46313" lon="6.78447">
        <ele>435.4</ele>
        <time>2017-03-26T09:14:14.000Z</time>
      </trkpt>
      <trkpt lat="47.46317" lon="6.78446">
        <ele>434.7</ele>
        <time>2017-03-26T09:14:15.000Z</time>
      </trkpt>
      <trkpt lat="47.46322" lon="6.78446">
        <ele>433.9</ele>
        <time>2017-03-26T09:14:16.000Z</time>
      </trkpt>
      <trkpt lat="47.46327" lon="6.78446">
        <ele>433.1</ele>
        <time>2017-03-26T09:14:17.000Z</time>
      </trkpt>
      <trkpt lat="47.46332" lon="6.78446">
        <ele>432.3</ele>
        <time>2017-03-26T09:14:18.000Z</time>
      </trkpt>
      <trkpt lat="47.46336" lon="6.78448">
        <ele>431.4</ele>
        <time>2017-03-26T09:14:19.000Z</time>
      </trkpt>
      <trkpt lat="47.46343" lon="6.7845">
        <ele>430.7</ele>
        <time>2017-03-26T09:14:20.000Z</time>
      </trkpt>
      <trkpt lat="47.46349" lon="6.78441">
        <ele>423.2</ele>
        <time>2017-03-26T09:14:21.000Z</time>
      </trkpt>
      <trkpt lat="47.4635" lon="6.78434">
        <ele>416.5</ele>
        <time>2017-03-26T09:14:22.000Z</time>
      </trkpt>
      <trkpt lat="47.46352" lon="6.78425">
        <ele>411.1</ele>
        <time>2017-03-26T09:14:23.000Z</time>
      </trkpt>
      <trkpt lat="47.46354" lon="6.78415">
        <ele>406.4</ele>
        <time>2017-03-26T09:14:24.000Z</time>
      </trkpt>
      <trkpt lat="47.46358" lon="6.78403">
        <ele>401.7</ele>
        <time>2017-03-26T09:14:25.000Z</time>
      </trkpt>
      <trkpt lat="47.46364" lon="6.78396">
        <ele>398.5</ele>
        <time>2017-03-26T09:14:26.000Z</time>
      </trkpt>
      <trkpt lat="47.4637" lon="6.78388">
        <ele>396.6</ele>
        <time>2017-03-26T09:14:27.000Z</time>
      </trkpt>
      <trkpt lat="47.46374" lon="6.78381">
        <ele>396.5</ele>
        <time>2017-03-26T09:14:28.000Z</time>
      </trkpt>
      <trkpt lat="47.46378" lon="6.78379">
        <ele>396.3</ele>
        <time>2017-03-26T09:14:29.000Z</time>
      </trkpt>
      <trkpt lat="47.46387" lon="6.78376">
        <ele>396.2</ele>
        <time>2017-03-26T09:14:30.000Z</time>
      </trkpt>
      <trkpt lat="47.46393" lon="6.78376">
        <ele>394.7</ele>
        <time>2017-03-26T09:14:31.000Z</time>
      </trkpt>
      <trkpt lat="47.46401" lon="6.78373">
        <ele>392.9</ele>
        <time>2017-03-26T09:14:32.000Z</time>
      </trkpt>
      <trkpt lat="47.46408" lon="6.78371">
        <ele>392.3</ele>
        <time>2017-03-26T09:14:33.000Z</time>
      </trkpt>
      <trkpt lat="47.46416" lon="6.78367">
        <ele>392.8</ele>
        <time>2017-03-26T09:14:34.000Z</time>
      </trkpt>
      <trkpt lat="47.46423" lon="6.78361">
        <ele>393.1</ele>
        <time>2017-03-26T09:14:35.000Z</time>
      </trkpt>
      <trkpt lat="47.46431" lon="6.78354">
        <ele>394.1</ele>
        <time>2017-03-26T09:14:36.000Z</time>
      </trkpt>
      <trkpt lat="47.46437" lon="6.78347">
        <ele>393.1</ele>
        <time>2017-03-26T09:14:37.000Z</time>
      </trkpt>
      <trkpt lat="47.46444" lon="6.78344">
        <ele>394.9</ele>
        <time>2017-03-26T09:14:38.000Z</time>
      </trkpt>
      <trkpt lat="47.46451" lon="6.78341">
        <ele>395.4</ele>
        <time>2017-03-26T09:14:39.000Z</time>
      </trkpt>
      <trkpt lat="47.46459" lon="6.78344">
        <ele>397.7</ele>
        <time>2017-03-26T09:14:40.000Z</time>
      </trkpt>
      <trkpt lat="47.46472" lon="6.78347">
        <ele>400.9</ele>
        <time>2017-03-26T09:14:41.000Z</time>
      </trkpt>
      <trkpt lat="47.46482" lon="6.7835">
        <ele>404.7</ele>
        <time>2017-03-26T09:14:42.000Z</time>
      </trkpt>
      <trkpt lat="47.46489" lon="6.78354">
        <ele>407.8</ele>
        <time>2017-03-26T09:14:43.000Z</time>
      </trkpt>
      <trkpt lat="47.46496" lon="6.7836">
        <ele>410.2</ele>
        <time>2017-03-26T09:14:44.000Z</time>
      </trkpt>
      <trkpt lat="47.46502" lon="6.78365">
        <ele>413.3</ele>
        <time>2017-03-26T09:14:45.000Z</time>
      </trkpt>
      <trkpt lat="47.46508" lon="6.78368">
        <ele>415.4</ele>
        <time>2017-03-26T09:14:46.000Z</time>
      </trkpt>
      <trkpt lat="47.46513" lon="6.78372">
        <ele>416.9</ele>
        <time>2017-03-26T09:14:47.000Z</time>
      </trkpt>
      <trkpt lat="47.46519" lon="6.78375">
        <ele>418.5</ele>
        <time>2017-03-26T09:14:48.000Z</time>
      </trkpt>
      <trkpt lat="47.46524" lon="6.78378">
        <ele>419.9</ele>
        <time>2017-03-26T09:14:49.000Z</time>
      </trkpt>
      <trkpt lat="47.46529" lon="6.78382">
        <ele>421.5</ele>
        <time>2017-03-26T09:14:50.000Z</time>
      </trkpt>
      <trkpt lat="47.46534" lon="6.78386">
        <ele>423.2</ele>
        <time>2017-03-26T09:14:51.000Z</time>
      </trkpt>
      <trkpt lat="47.46539" lon="6.7839">
        <ele>423.6</ele>
        <time>2017-03-26T09:14:52.000Z</time>
      </trkpt>
      <trkpt lat="47.46544" lon="6.78394">
        <ele>423.4</ele>
        <time>2017-03-26T09:14:53.000Z</time>
      </trkpt>
      <trkpt lat="47.46548" lon="6.78399">
        <ele>424.6</ele>
        <time>2017-03-26T09:14:54.000Z</time>
      </trkpt>
      <trkpt lat="47.46552" lon="6.78407">
        <ele>425.7</ele>
        <time>2017-03-26T09:14:55.000Z</time>
      </trkpt>
      <trkpt lat="47.46555" lon="6.78413">
        <ele>425.8</ele>
        <time>2017-03-26T09:14:56.000Z</time>
      </trkpt>
      <trkpt lat="47.46556" lon="6.78419">
        <ele>425.8</ele>
        <time>2017-03-26T09:14:57.000Z</time>
      </trkpt>
      <trkpt lat="47.46556" lon="6.78423">
        <ele>425.9</ele>
        <time>2017-03-26T09:14:58.000Z</time>
      </trkpt>
      <trkpt lat="47.46556" lon="6.78427">
        <ele>426</ele>
        <time>2017-03-26T09:14:59.000Z</time>
      </trkpt>
      <trkpt lat="47.46556" lon="6.7843">
        <ele>426.1</ele>
        <time>2017-03-26T09:15:00.000Z</time>
      </trkpt>
      <trkpt lat="47.46555" lon="6.78436">
        <ele>426.1</ele>
        <time>2017-03-26T09:15:02.000Z</time>
      </trkpt>
      <trkpt lat="47.46555" lon="6.78439">
        <ele>426</ele>
        <time>2017-03-26T09:15:03.000Z</time>
      </trkpt>
      <trkpt lat="47.46555" lon="6.78445">
        <ele>425.9</ele>
        <time>2017-03-26T09:15:05.000Z</time>
      </trkpt>
      <trkpt lat="47.46555" lon="6.78448">
        <ele>426</ele>
        <time>2017-03-26T09:15:06.000Z</time>
      </trkpt>
      <trkpt lat="47.46555" lon="6.78453">
        <ele>426</ele>
        <time>2017-03-26T09:15:08.000Z</time>
      </trkpt>
      <trkpt lat="47.46555" lon="6.78456">
        <ele>426.1</ele>
        <time>2017-03-26T09:15:09.000Z</time>
      </trkpt>
      <trkpt lat="47.46555" lon="6.78461">
        <ele>426.1</ele>
        <time>2017-03-26T09:15:11.000Z</time>
      </trkpt>
      <trkpt lat="47.46556" lon="6.78464">
        <ele>426.2</ele>
        <time>2017-03-26T09:15:12.000Z</time>
      </trkpt>
      <trkpt lat="47.46556" lon="6.78467">
        <ele>426.3</ele>
        <time>2017-03-26T09:15:13.000Z</time>
      </trkpt>
      <trkpt lat="47.46555" lon="6.78471">
        <ele>426.4</ele>
        <time>2017-03-26T09:15:14.000Z</time>
      </trkpt>
      <trkpt lat="47.46555" lon="6.78474">
        <ele>426.4</ele>
        <time>2017-03-26T09:15:15.000Z</time>
      </trkpt>
      <trkpt lat="47.46554" lon="6.78477">
        <ele>426.5</ele>
        <time>2017-03-26T09:15:16.000Z</time>
      </trkpt>
      <trkpt lat="47.46554" lon="6.78481">
        <ele>426.6</ele>
        <time>2017-03-26T09:15:17.000Z</time>
      </trkpt>
      <trkpt lat="47.46554" lon="6.78485">
        <ele>426.7</ele>
        <time>2017-03-26T09:15:18.000Z</time>
      </trkpt>
      <trkpt lat="47.46553" lon="6.78488">
        <ele>426.8</ele>
        <time>2017-03-26T09:15:19.000Z</time>
      </trkpt>
      <trkpt lat="47.46553" lon="6.78492">
        <ele>427</ele>
        <time>2017-03-26T09:15:20.000Z</time>
      </trkpt>
      <trkpt lat="47.46553" lon="6.78498">
        <ele>427.1</ele>
        <time>2017-03-26T09:15:21.000Z</time>
      </trkpt>
      <trkpt lat="47.46552" lon="6.785">
        <ele>427.3</ele>
        <time>2017-03-26T09:15:22.000Z</time>
      </trkpt>
      <trkpt lat="47.46552" lon="6.78507">
        <ele>427.4</ele>
        <time>2017-03-26T09:15:24.000Z</time>
      </trkpt>
      <trkpt lat="47.46552" lon="6.78509">
        <ele>427.4</ele>
        <time>2017-03-26T09:15:25.000Z</time>
      </trkpt>
      <trkpt lat="47.46551" lon="6.78514">
        <ele>427.6</ele>
        <time>2017-03-26T09:15:27.000Z</time>
      </trkpt>
      <trkpt lat="47.46551" lon="6.78519">
        <ele>427.7</ele>
        <time>2017-03-26T09:15:28.000Z</time>
      </trkpt>
      <trkpt lat="47.4655" lon="6.78525">
        <ele>427.8</ele>
        <time>2017-03-26T09:15:31.000Z</time>
      </trkpt>
      <trkpt lat="47.4655" lon="6.78526">
        <ele>427.8</ele>
        <time>2017-03-26T09:15:32.000Z</time>
      </trkpt>
      <trkpt lat="47.4655" lon="6.78531">
        <ele>428</ele>
        <time>2017-03-26T09:15:38.000Z</time>
      </trkpt>
      <trkpt lat="47.46547" lon="6.78541">
        <ele>428</ele>
        <time>2017-03-26T09:15:39.000Z</time>
      </trkpt>
      <trkpt lat="47.46547" lon="6.78541">
        <ele>428</ele>
        <time>2017-03-26T09:15:41.000Z</time>
      </trkpt>
      <trkpt lat="47.46547" lon="6.78554">
        <ele>428</ele>
        <time>2017-03-26T09:15:42.000Z</time>
      </trkpt>
      <trkpt lat="47.46547" lon="6.78556">
        <ele>428.1</ele>
        <time>2017-03-26T09:15:43.000Z</time>
      </trkpt>
      <trkpt lat="47.46549" lon="6.78562">
        <ele>428.1</ele>
        <time>2017-03-26T09:15:44.000Z</time>
      </trkpt>
      <trkpt lat="47.46549" lon="6.78567">
        <ele>428</ele>
        <time>2017-03-26T09:15:45.000Z</time>
      </trkpt>
      <trkpt lat="47.4655" lon="6.78571">
        <ele>428.1</ele>
        <time>2017-03-26T09:15:46.000Z</time>
      </trkpt>
      <trkpt lat="47.46551" lon="6.78574">
        <ele>428.1</ele>
        <time>2017-03-26T09:15:47.000Z</time>
      </trkpt>
      <trkpt lat="47.46551" lon="6.78579">
        <ele>428.1</ele>
        <time>2017-03-26T09:15:48.000Z</time>
      </trkpt>
      <trkpt lat="47.46551" lon="6.78584">
        <ele>428.1</ele>
        <time>2017-03-26T09:15:49.000Z</time>
      </trkpt>
      <trkpt lat="47.46552" lon="6.7859">
        <ele>428.1</ele>
        <time>2017-03-26T09:15:50.000Z</time>
      </trkpt>
      <trkpt lat="47.46552" lon="6.78596">
        <ele>428.1</ele>
        <time>2017-03-26T09:15:52.000Z</time>
      </trkpt>
      <trkpt lat="47.46553" lon="6.78598">
        <ele>428</ele>
        <time>2017-03-26T09:15:53.000Z</time>
      </trkpt>
      <trkpt lat="47.46553" lon="6.78603">
        <ele>428</ele>
        <time>2017-03-26T09:15:54.000Z</time>
      </trkpt>
      <trkpt lat="47.46554" lon="6.78608">
        <ele>428</ele>
        <time>2017-03-26T09:15:55.000Z</time>
      </trkpt>
      <trkpt lat="47.46554" lon="6.78613">
        <ele>427.9</ele>
        <time>2017-03-26T09:15:56.000Z</time>
      </trkpt>
      <trkpt lat="47.46554" lon="6.78615">
        <ele>427.8</ele>
        <time>2017-03-26T09:15:57.000Z</time>
      </trkpt>
      <trkpt lat="47.46554" lon="6.78619">
        <ele>427.8</ele>
        <time>2017-03-26T09:15:58.000Z</time>
      </trkpt>
      <trkpt lat="47.46554" lon="6.78623">
        <ele>427.8</ele>
        <time>2017-03-26T09:15:59.000Z</time>
      </trkpt>
      <trkpt lat="47.46555" lon="6.78627">
        <ele>427.9</ele>
        <time>2017-03-26T09:16:00.000Z</time>
      </trkpt>
      <trkpt lat="47.46554" lon="6.7863">
        <ele>427.8</ele>
        <time>2017-03-26T09:16:01.000Z</time>
      </trkpt>
      <trkpt lat="47.46554" lon="6.78635">
        <ele>427.8</ele>
        <time>2017-03-26T09:16:02.000Z</time>
      </trkpt>
      <trkpt lat="47.46553" lon="6.7864">
        <ele>427.8</ele>
        <time>2017-03-26T09:16:03.000Z</time>
      </trkpt>
      <trkpt lat="47.46553" lon="6.78645">
        <ele>427.8</ele>
        <time>2017-03-26T09:16:04.000Z</time>
      </trkpt>
      <trkpt lat="47.46553" lon="6.78648">
        <ele>427.7</ele>
        <time>2017-03-26T09:16:05.000Z</time>
      </trkpt>
      <trkpt lat="47.46553" lon="6.78652">
        <ele>427.8</ele>
        <time>2017-03-26T09:16:06.000Z</time>
      </trkpt>
      <trkpt lat="47.46554" lon="6.78657">
        <ele>427.9</ele>
        <time>2017-03-26T09:16:07.000Z</time>
      </trkpt>
      <trkpt lat="47.46554" lon="6.78661">
        <ele>427.9</ele>
        <time>2017-03-26T09:16:08.000Z</time>
      </trkpt>
      <trkpt lat="47.46555" lon="6.78664">
        <ele>428</ele>
        <time>2017-03-26T09:16:09.000Z</time>
      </trkpt>
      <trkpt lat="47.46556" lon="6.78669">
        <ele>428.2</ele>
        <time>2017-03-26T09:16:10.000Z</time>
      </trkpt>
      <trkpt lat="47.46556" lon="6.78671">
        <ele>428.4</ele>
        <time>2017-03-26T09:16:11.000Z</time>
      </trkpt>
      <trkpt lat="47.46556" lon="6.78677">
        <ele>428.5</ele>
        <time>2017-03-26T09:16:12.000Z</time>
      </trkpt>
      <trkpt lat="47.46555" lon="6.7868">
        <ele>428.6</ele>
        <time>2017-03-26T09:16:13.000Z</time>
      </trkpt>
      <trkpt lat="47.46555" lon="6.78683">
        <ele>429.1</ele>
        <time>2017-03-26T09:16:22.000Z</time>
      </trkpt>
      <trkpt lat="47.46567" lon="6.78701">
        <ele>429.2</ele>
        <time>2017-03-26T09:16:23.000Z</time>
      </trkpt>
      <trkpt lat="47.4657" lon="6.78702">
        <ele>429.2</ele>
        <time>2017-03-26T09:16:24.000Z</time>
      </trkpt>
      <trkpt lat="47.46574" lon="6.78703">
        <ele>429</ele>
        <time>2017-03-26T09:16:25.000Z</time>
      </trkpt>
      <trkpt lat="47.46578" lon="6.78705">
        <ele>428.9</ele>
        <time>2017-03-26T09:16:26.000Z</time>
      </trkpt>
      <trkpt lat="47.46582" lon="6.78705">
        <ele>428.7</ele>
        <time>2017-03-26T09:16:27.000Z</time>
      </trkpt>
      <trkpt lat="47.46587" lon="6.78706">
        <ele>426.7</ele>
        <time>2017-03-26T09:16:28.000Z</time>
      </trkpt>
      <trkpt lat="47.46592" lon="6.78706">
        <ele>424.8</ele>
        <time>2017-03-26T09:16:29.000Z</time>
      </trkpt>
      <trkpt lat="47.46598" lon="6.78707">
        <ele>423.7</ele>
        <time>2017-03-26T09:16:30.000Z</time>
      </trkpt>
      <trkpt lat="47.46605" lon="6.78708">
        <ele>423.6</ele>
        <time>2017-03-26T09:16:31.000Z</time>
      </trkpt>
      <trkpt lat="47.46612" lon="6.7871">
        <ele>423.9</ele>
        <time>2017-03-26T09:16:32.000Z</time>
      </trkpt>
      <trkpt lat="47.46618" lon="6.78709">
        <ele>423.7</ele>
        <time>2017-03-26T09:16:33.000Z</time>
      </trkpt>
      <trkpt lat="47.46627" lon="6.78709">
        <ele>423</ele>
        <time>2017-03-26T09:16:34.000Z</time>
      </trkpt>
      <trkpt lat="47.46634" lon="6.78709">
        <ele>422.1</ele>
        <time>2017-03-26T09:16:35.000Z</time>
      </trkpt>
      <trkpt lat="47.4664" lon="6.78709">
        <ele>421.9</ele>
        <time>2017-03-26T09:16:36.000Z</time>
      </trkpt>
      <trkpt lat="47.46647" lon="6.78708">
        <ele>421.5</ele>
        <time>2017-03-26T09:16:37.000Z</time>
      </trkpt>
      <trkpt lat="47.46653" lon="6.78708">
        <ele>421</ele>
        <time>2017-03-26T09:16:38.000Z</time>
      </trkpt>
      <trkpt lat="47.46659" lon="6.78708">
        <ele>420.2</ele>
        <time>2017-03-26T09:16:39.000Z</time>
      </trkpt>
      <trkpt lat="47.46667" lon="6.78709">
        <ele>419</ele>
        <time>2017-03-26T09:16:40.000Z</time>
      </trkpt>
      <trkpt lat="47.46674" lon="6.78709">
        <ele>417.4</ele>
        <time>2017-03-26T09:16:41.000Z</time>
      </trkpt>
      <trkpt lat="47.46681" lon="6.78709">
        <ele>415.2</ele>
        <time>2017-03-26T09:16:42.000Z</time>
      </trkpt>
      <trkpt lat="47.46688" lon="6.78709">
        <ele>414</ele>
        <time>2017-03-26T09:16:43.000Z</time>
      </trkpt>
      <trkpt lat="47.46695" lon="6.78709">
        <ele>413.4</ele>
        <time>2017-03-26T09:16:44.000Z</time>
      </trkpt>
      <trkpt lat="47.46702" lon="6.78709">
        <ele>412.4</ele>
        <time>2017-03-26T09:16:45.000Z</time>
      </trkpt>
      <trkpt lat="47.46708" lon="6.78709">
        <ele>411.2</ele>
        <time>2017-03-26T09:16:46.000Z</time>
      </trkpt>
      <trkpt lat="47.46713" lon="6.78709">
        <ele>411.1</ele>
        <time>2017-03-26T09:16:47.000Z</time>
      </trkpt>
      <trkpt lat="47.46719" lon="6.78704">
        <ele>409.8</ele>
        <time>2017-03-26T09:16:48.000Z</time>
      </trkpt>
      <trkpt lat="47.46724" lon="6.78701">
        <ele>409.7</ele>
        <time>2017-03-26T09:16:49.000Z</time>
      </trkpt>
      <trkpt lat="47.46727" lon="6.78698">
        <ele>409.7</ele>
        <time>2017-03-26T09:16:50.000Z</time>
      </trkpt>
      <trkpt lat="47.46731" lon="6.78696">
        <ele>409.5</ele>
        <time>2017-03-26T09:16:51.000Z</time>
      </trkpt>
      <trkpt lat="47.46734" lon="6.78697">
        <ele>409.4</ele>
        <time>2017-03-26T09:16:52.000Z</time>
      </trkpt>
      <trkpt lat="47.46736" lon="6.78698">
        <ele>409.3</ele>
        <time>2017-03-26T09:16:53.000Z</time>
      </trkpt>
      <trkpt lat="47.46739" lon="6.78699">
        <ele>409.2</ele>
        <time>2017-03-26T09:16:54.000Z</time>
      </trkpt>
      <trkpt lat="47.46742" lon="6.78697">
        <ele>409.1</ele>
        <time>2017-03-26T09:16:55.000Z</time>
      </trkpt>
      <trkpt lat="47.46746" lon="6.78692">
        <ele>408.9</ele>
        <time>2017-03-26T09:16:56.000Z</time>
      </trkpt>
      <trkpt lat="47.4675" lon="6.78685">
        <ele>408.6</ele>
        <time>2017-03-26T09:16:57.000Z</time>
      </trkpt>
      <trkpt lat="47.46753" lon="6.78679">
        <ele>408</ele>
        <time>2017-03-26T09:16:58.000Z</time>
      </trkpt>
      <trkpt lat="47.46756" lon="6.78672">
        <ele>407.4</ele>
        <time>2017-03-26T09:16:59.000Z</time>
      </trkpt>
      <trkpt lat="47.46757" lon="6.78667">
        <ele>407</ele>
        <time>2017-03-26T09:17:00.000Z</time>
      </trkpt>
      <trkpt lat="47.46759" lon="6.78662">
        <ele>406.4</ele>
        <time>2017-03-26T09:17:01.000Z</time>
      </trkpt>
      <trkpt lat="47.4676" lon="6.78663">
        <ele>405.3</ele>
        <time>2017-03-26T09:17:03.000Z</time>
      </trkpt>
      <trkpt lat="47.46764" lon="6.78659">
        <ele>400.6</ele>
        <time>2017-03-26T09:17:04.000Z</time>
      </trkpt>
      <trkpt lat="47.46767" lon="6.78653">
        <ele>395.1</ele>
        <time>2017-03-26T09:17:05.000Z</time>
      </trkpt>
      <trkpt lat="47.4677" lon="6.78646">
        <ele>394.6</ele>
        <time>2017-03-26T09:17:06.000Z</time>
      </trkpt>
      <trkpt lat="47.46773" lon="6.78641">
        <ele>394.1</ele>
        <time>2017-03-26T09:17:07.000Z</time>
      </trkpt>
      <trkpt lat="47.46777" lon="6.78635">
        <ele>389.1</ele>
        <time>2017-03-26T09:17:08.000Z</time>
      </trkpt>
      <trkpt lat="47.46781" lon="6.7863">
        <ele>384.2</ele>
        <time>2017-03-26T09:17:09.000Z</time>
      </trkpt>
      <trkpt lat="47.46785" lon="6.78624">
        <ele>380.9</ele>
        <time>2017-03-26T09:17:10.000Z</time>
      </trkpt>
      <trkpt lat="47.46789" lon="6.78619">
        <ele>378.8</ele>
        <time>2017-03-26T09:17:11.000Z</time>
      </trkpt>
      <trkpt lat="47.46798" lon="6.78611">
        <ele>380.4</ele>
        <time>2017-03-26T09:17:12.000Z</time>
      </trkpt>
      <trkpt lat="47.46808" lon="6.78601">
        <ele>383.3</ele>
        <time>2017-03-26T09:17:13.000Z</time>
      </trkpt>
      <trkpt lat="47.46818" lon="6.78592">
        <ele>387</ele>
        <time>2017-03-26T09:17:14.000Z</time>
      </trkpt>
      <trkpt lat="47.46825" lon="6.78587">
        <ele>390.4</ele>
        <time>2017-03-26T09:17:15.000Z</time>
      </trkpt>
      <trkpt lat="47.46831" lon="6.78583">
        <ele>390.7</ele>
        <time>2017-03-26T09:17:16.000Z</time>
      </trkpt>
      <trkpt lat="47.46837" lon="6.78582">
        <ele>393.5</ele>
        <time>2017-03-26T09:17:17.000Z</time>
      </trkpt>
      <trkpt lat="47.46844" lon="6.78581">
        <ele>395.3</ele>
        <time>2017-03-26T09:17:18.000Z</time>
      </trkpt>
      <trkpt lat="47.46851" lon="6.78582">
        <ele>395.5</ele>
        <time>2017-03-26T09:17:19.000Z</time>
      </trkpt>
      <trkpt lat="47.4686" lon="6.78584">
        <ele>394.2</ele>
        <time>2017-03-26T09:17:20.000Z</time>
      </trkpt>
      <trkpt lat="47.46866" lon="6.78586">
        <ele>393.6</ele>
        <time>2017-03-26T09:17:21.000Z</time>
      </trkpt>
      <trkpt lat="47.46875" lon="6.78589">
        <ele>392.2</ele>
        <time>2017-03-26T09:17:22.000Z</time>
      </trkpt>
      <trkpt lat="47.46883" lon="6.78592">
        <ele>390.2</ele>
        <time>2017-03-26T09:17:23.000Z</time>
      </trkpt>
      <trkpt lat="47.4689" lon="6.78598">
        <ele>388.6</ele>
        <time>2017-03-26T09:17:24.000Z</time>
      </trkpt>
      <trkpt lat="47.46896" lon="6.78602">
        <ele>387.5</ele>
        <time>2017-03-26T09:17:25.000Z</time>
      </trkpt>
      <trkpt lat="47.46902" lon="6.78604">
        <ele>387.4</ele>
        <time>2017-03-26T09:17:26.000Z</time>
      </trkpt>
      <trkpt lat="47.46908" lon="6.78603">
        <ele>387.4</ele>
        <time>2017-03-26T09:17:27.000Z</time>
      </trkpt>
      <trkpt lat="47.46912" lon="6.786">
        <ele>387.3</ele>
        <time>2017-03-26T09:17:28.000Z</time>
      </trkpt>
      <trkpt lat="47.46915" lon="6.78599">
        <ele>387.4</ele>
        <time>2017-03-26T09:17:29.000Z</time>
      </trkpt>
      <trkpt lat="47.46915" lon="6.78599">
        <ele>388.1</ele>
        <time>2017-03-26T09:17:35.000Z</time>
      </trkpt>
      <trkpt lat="47.46929" lon="6.78603">
        <ele>388.1</ele>
        <time>2017-03-26T09:17:36.000Z</time>
      </trkpt>
      <trkpt lat="47.46929" lon="6.78603">
        <ele>388.4</ele>
        <time>2017-03-26T09:17:38.000Z</time>
      </trkpt>
      <trkpt lat="47.46939" lon="6.786">
        <ele>388.7</ele>
        <time>2017-03-26T09:17:39.000Z</time>
      </trkpt>
      <trkpt lat="47.46939" lon="6.786">
        <ele>390.3</ele>
        <time>2017-03-26T09:17:46.000Z</time>
      </trkpt>
      <trkpt lat="47.46949" lon="6.7859">
        <ele>390.7</ele>
        <time>2017-03-26T09:17:47.000Z</time>
      </trkpt>
      <trkpt lat="47.46949" lon="6.7859">
        <ele>393.3</ele>
        <time>2017-03-26T09:17:53.000Z</time>
      </trkpt>
      <trkpt lat="47.46958" lon="6.7858">
        <ele>393.9</ele>
        <time>2017-03-26T09:17:54.000Z</time>
      </trkpt>
      <trkpt lat="47.46958" lon="6.7858">
        <ele>396</ele>
        <time>2017-03-26T09:18:04.000Z</time>
      </trkpt>
      <trkpt lat="47.46968" lon="6.78579">
        <ele>396.3</ele>
        <time>2017-03-26T09:18:05.000Z</time>
      </trkpt>
      <trkpt lat="47.46968" lon="6.78579">
        <ele>397.1</ele>
        <time>2017-03-26T09:18:10.000Z</time>
      </trkpt>
      <trkpt lat="47.46977" lon="6.78584">
        <ele>397.3</ele>
        <time>2017-03-26T09:18:11.000Z</time>
      </trkpt>
      <trkpt lat="47.46977" lon="6.78584">
        <ele>398.6</ele>
        <time>2017-03-26T09:18:29.000Z</time>
      </trkpt>
      <trkpt lat="47.46993" lon="6.78563">
        <ele>398.6</ele>
        <time>2017-03-26T09:18:30.000Z</time>
      </trkpt>
      <trkpt lat="47.46993" lon="6.78563">
        <ele>398.4</ele>
        <time>2017-03-26T09:18:34.000Z</time>
      </trkpt>
      <trkpt lat="47.47003" lon="6.78549">
        <ele>398.4</ele>
        <time>2017-03-26T09:18:35.000Z</time>
      </trkpt>
      <trkpt lat="47.47003" lon="6.78549">
        <ele>398.7</ele>
        <time>2017-03-26T09:18:39.000Z</time>
      </trkpt>
      <trkpt lat="47.47014" lon="6.78539">
        <ele>398.9</ele>
        <time>2017-03-26T09:18:40.000Z</time>
      </trkpt>
      <trkpt lat="47.47014" lon="6.78539">
        <ele>400.6</ele>
        <time>2017-03-26T09:18:49.000Z</time>
      </trkpt>
      <trkpt lat="47.47026" lon="6.78533">
        <ele>401.1</ele>
        <time>2017-03-26T09:18:50.000Z</time>
      </trkpt>
      <trkpt lat="47.47026" lon="6.78533">
        <ele>402.3</ele>
        <time>2017-03-26T09:18:54.000Z</time>
      </trkpt>
      <trkpt lat="47.47043" lon="6.78534">
        <ele>402.5</ele>
        <time>2017-03-26T09:18:55.000Z</time>
      </trkpt>
      <trkpt lat="47.47043" lon="6.78534">
        <ele>402.7</ele>
        <time>2017-03-26T09:18:56.000Z</time>
      </trkpt>
      <trkpt lat="47.47049" lon="6.78534">
        <ele>402.8</ele>
        <time>2017-03-26T09:18:57.000Z</time>
      </trkpt>
      <trkpt lat="47.47052" lon="6.78533">
        <ele>402.8</ele>
        <time>2017-03-26T09:18:58.000Z</time>
      </trkpt>
      <trkpt lat="47.47054" lon="6.78532">
        <ele>402.7</ele>
        <time>2017-03-26T09:18:59.000Z</time>
      </trkpt>
      <trkpt lat="47.47057" lon="6.78531">
        <ele>402.7</ele>
        <time>2017-03-26T09:19:00.000Z</time>
      </trkpt>
      <trkpt lat="47.47061" lon="6.78529">
        <ele>402.7</ele>
        <time>2017-03-26T09:19:01.000Z</time>
      </trkpt>
      <trkpt lat="47.47065" lon="6.78528">
        <ele>402.7</ele>
        <time>2017-03-26T09:19:02.000Z</time>
      </trkpt>
      <trkpt lat="47.47067" lon="6.78527">
        <ele>402.7</ele>
        <time>2017-03-26T09:19:03.000Z</time>
      </trkpt>
      <trkpt lat="47.47069" lon="6.78525">
        <ele>402.6</ele>
        <time>2017-03-26T09:19:04.000Z</time>
      </trkpt>
      <trkpt lat="47.47071" lon="6.78522">
        <ele>402.5</ele>
        <time>2017-03-26T09:19:05.000Z</time>
      </trkpt>
      <trkpt lat="47.47074" lon="6.7852">
        <ele>402.4</ele>
        <time>2017-03-26T09:19:06.000Z</time>
      </trkpt>
      <trkpt lat="47.47078" lon="6.78517">
        <ele>402.3</ele>
        <time>2017-03-26T09:19:07.000Z</time>
      </trkpt>
      <trkpt lat="47.4708" lon="6.78515">
        <ele>402.1</ele>
        <time>2017-03-26T09:19:08.000Z</time>
      </trkpt>
      <trkpt lat="47.47085" lon="6.7851">
        <ele>402</ele>
        <time>2017-03-26T09:19:09.000Z</time>
      </trkpt>
      <trkpt lat="47.4709" lon="6.78507">
        <ele>402</ele>
        <time>2017-03-26T09:19:10.000Z</time>
      </trkpt>
      <trkpt lat="47.47093" lon="6.78504">
        <ele>401.8</ele>
        <time>2017-03-26T09:19:11.000Z</time>
      </trkpt>
      <trkpt lat="47.47096" lon="6.78501">
        <ele>401.7</ele>
        <time>2017-03-26T09:19:12.000Z</time>
      </trkpt>
      <trkpt lat="47.471" lon="6.78503">
        <ele>401.5</ele>
        <time>2017-03-26T09:19:14.000Z</time>
      </trkpt>
      <trkpt lat="47.47102" lon="6.78502">
        <ele>401.3</ele>
        <time>2017-03-26T09:19:15.000Z</time>
      </trkpt>
      <trkpt lat="47.47104" lon="6.78502">
        <ele>401.3</ele>
        <time>2017-03-26T09:19:16.000Z</time>
      </trkpt>
      <trkpt lat="47.47107" lon="6.78501">
        <ele>401.2</ele>
        <time>2017-03-26T09:19:17.000Z</time>
      </trkpt>
      <trkpt lat="47.4711" lon="6.78497">
        <ele>401</ele>
        <time>2017-03-26T09:19:19.000Z</time>
      </trkpt>
      <trkpt lat="47.47111" lon="6.78496">
        <ele>400.9</ele>
        <time>2017-03-26T09:19:20.000Z</time>
      </trkpt>
      <trkpt lat="47.47114" lon="6.78495">
        <ele>400.4</ele>
        <time>2017-03-26T09:19:23.000Z</time>
      </trkpt>
      <trkpt lat="47.47116" lon="6.78493">
        <ele>400.5</ele>
        <time>2017-03-26T09:19:24.000Z</time>
      </trkpt>
      <trkpt lat="47.47119" lon="6.7849">
        <ele>400.3</ele>
        <time>2017-03-26T09:19:27.000Z</time>
      </trkpt>
      <trkpt lat="47.4712" lon="6.78489">
        <ele>400.2</ele>
        <time>2017-03-26T09:19:28.000Z</time>
      </trkpt>
      <trkpt lat="47.47122" lon="6.78488">
        <ele>400.3</ele>
        <time>2017-03-26T09:19:29.000Z</time>
      </trkpt>
      <trkpt lat="47.47124" lon="6.78486">
        <ele>400</ele>
        <time>2017-03-26T09:19:30.000Z</time>
      </trkpt>
      <trkpt lat="47.47127" lon="6.78485">
        <ele>399.9</ele>
        <time>2017-03-26T09:19:31.000Z</time>
      </trkpt>
      <trkpt lat="47.47129" lon="6.78483">
        <ele>399.6</ele>
        <time>2017-03-26T09:19:32.000Z</time>
      </trkpt>
      <trkpt lat="47.4713" lon="6.78483">
        <ele>399.6</ele>
        <time>2017-03-26T09:19:33.000Z</time>
      </trkpt>
      <trkpt lat="47.47134" lon="6.78481">
        <ele>399.6</ele>
        <time>2017-03-26T09:19:34.000Z</time>
      </trkpt>
      <trkpt lat="47.47137" lon="6.78478">
        <ele>399.6</ele>
        <time>2017-03-26T09:19:35.000Z</time>
      </trkpt>
      <trkpt lat="47.47138" lon="6.78477">
        <ele>399.7</ele>
        <time>2017-03-26T09:19:36.000Z</time>
      </trkpt>
      <trkpt lat="47.47138" lon="6.78477">
        <ele>399.5</ele>
        <time>2017-03-26T09:19:39.000Z</time>
      </trkpt>
      <trkpt lat="47.47146" lon="6.78467">
        <ele>399.4</ele>
        <time>2017-03-26T09:19:40.000Z</time>
      </trkpt>
      <trkpt lat="47.47146" lon="6.78467">
        <ele>399.4</ele>
        <time>2017-03-26T09:19:41.000Z</time>
      </trkpt>
      <trkpt lat="47.47151" lon="6.7846">
        <ele>399.5</ele>
        <time>2017-03-26T09:19:42.000Z</time>
      </trkpt>
      <trkpt lat="47.47155" lon="6.78458">
        <ele>399.7</ele>
        <time>2017-03-26T09:19:44.000Z</time>
      </trkpt>
      <trkpt lat="47.47156" lon="6.78459">
        <ele>399.8</ele>
        <time>2017-03-26T09:19:45.000Z</time>
      </trkpt>
      <trkpt lat="47.47159" lon="6.7846">
        <ele>399.9</ele>
        <time>2017-03-26T09:19:46.000Z</time>
      </trkpt>
      <trkpt lat="47.47161" lon="6.78462">
        <ele>400.1</ele>
        <time>2017-03-26T09:19:47.000Z</time>
      </trkpt>
      <trkpt lat="47.47165" lon="6.78464">
        <ele>400.1</ele>
        <time>2017-03-26T09:19:48.000Z</time>
      </trkpt>
      <trkpt lat="47.47168" lon="6.78465">
        <ele>400.1</ele>
        <time>2017-03-26T09:19:49.000Z</time>
      </trkpt>
      <trkpt lat="47.4717" lon="6.78466">
        <ele>400.1</ele>
        <time>2017-03-26T09:19:50.000Z</time>
      </trkpt>
      <trkpt lat="47.47172" lon="6.78468">
        <ele>400.1</ele>
        <time>2017-03-26T09:19:51.000Z</time>
      </trkpt>
      <trkpt lat="47.47174" lon="6.78471">
        <ele>400.2</ele>
        <time>2017-03-26T09:19:52.000Z</time>
      </trkpt>
      <trkpt lat="47.47177" lon="6.78472">
        <ele>400.2</ele>
        <time>2017-03-26T09:19:53.000Z</time>
      </trkpt>
      <trkpt lat="47.47181" lon="6.78474">
        <ele>400.4</ele>
        <time>2017-03-26T09:19:55.000Z</time>
      </trkpt>
      <trkpt lat="47.47182" lon="6.78475">
        <ele>400.5</ele>
        <time>2017-03-26T09:19:56.000Z</time>
      </trkpt>
      <trkpt lat="47.47186" lon="6.78478">
        <ele>400.6</ele>
        <time>2017-03-26T09:19:59.000Z</time>
      </trkpt>
      <trkpt lat="47.47188" lon="6.78479">
        <ele>400.6</ele>
        <time>2017-03-26T09:20:00.000Z</time>
      </trkpt>
      <trkpt lat="47.47192" lon="6.78481">
        <ele>400.5</ele>
        <time>2017-03-26T09:20:02.000Z</time>
      </trkpt>
      <trkpt lat="47.47193" lon="6.78482">
        <ele>400.5</ele>
        <time>2017-03-26T09:20:03.000Z</time>
      </trkpt>
      <trkpt lat="47.47197" lon="6.78484">
        <ele>400.6</ele>
        <time>2017-03-26T09:20:05.000Z</time>
      </trkpt>
      <trkpt lat="47.47198" lon="6.78485">
        <ele>400.4</ele>
        <time>2017-03-26T09:20:06.000Z</time>
      </trkpt>
      <trkpt lat="47.47201" lon="6.78487">
        <ele>400.4</ele>
        <time>2017-03-26T09:20:07.000Z</time>
      </trkpt>
      <trkpt lat="47.47203" lon="6.78488">
        <ele>400.3</ele>
        <time>2017-03-26T09:20:08.000Z</time>
      </trkpt>
      <trkpt lat="47.47206" lon="6.78489">
        <ele>400.3</ele>
        <time>2017-03-26T09:20:09.000Z</time>
      </trkpt>
      <trkpt lat="47.47208" lon="6.78489">
        <ele>400.5</ele>
        <time>2017-03-26T09:20:10.000Z</time>
      </trkpt>
      <trkpt lat="47.47211" lon="6.7849">
        <ele>400.5</ele>
        <time>2017-03-26T09:20:11.000Z</time>
      </trkpt>
      <trkpt lat="47.47214" lon="6.78492">
        <ele>400.7</ele>
        <time>2017-03-26T09:20:12.000Z</time>
      </trkpt>
      <trkpt lat="47.47217" lon="6.78492">
        <ele>400.8</ele>
        <time>2017-03-26T09:20:13.000Z</time>
      </trkpt>
      <trkpt lat="47.4722" lon="6.78493">
        <ele>400.9</ele>
        <time>2017-03-26T09:20:14.000Z</time>
      </trkpt>
      <trkpt lat="47.47222" lon="6.78494">
        <ele>401.1</ele>
        <time>2017-03-26T09:20:15.000Z</time>
      </trkpt>
      <trkpt lat="47.47224" lon="6.78495">
        <ele>401.2</ele>
        <time>2017-03-26T09:20:16.000Z</time>
      </trkpt>
      <trkpt lat="47.47227" lon="6.78496">
        <ele>401.3</ele>
        <time>2017-03-26T09:20:17.000Z</time>
      </trkpt>
      <trkpt lat="47.47231" lon="6.78497">
        <ele>401.4</ele>
        <time>2017-03-26T09:20:18.000Z</time>
      </trkpt>
      <trkpt lat="47.47233" lon="6.78498">
        <ele>401.4</ele>
        <time>2017-03-26T09:20:19.000Z</time>
      </trkpt>
      <trkpt lat="47.47237" lon="6.78498">
        <ele>401.4</ele>
        <time>2017-03-26T09:20:20.000Z</time>
      </trkpt>
      <trkpt lat="47.47239" lon="6.78499">
        <ele>401.2</ele>
        <time>2017-03-26T09:20:21.000Z</time>
      </trkpt>
      <trkpt lat="47.47242" lon="6.785">
        <ele>401.2</ele>
        <time>2017-03-26T09:20:22.000Z</time>
      </trkpt>
      <trkpt lat="47.47245" lon="6.78501">
        <ele>401.1</ele>
        <time>2017-03-26T09:20:23.000Z</time>
      </trkpt>
      <trkpt lat="47.47248" lon="6.78502">
        <ele>401.1</ele>
        <time>2017-03-26T09:20:24.000Z</time>
      </trkpt>
      <trkpt lat="47.47251" lon="6.78504">
        <ele>401.1</ele>
        <time>2017-03-26T09:20:25.000Z</time>
      </trkpt>
      <trkpt lat="47.47253" lon="6.78506">
        <ele>401.1</ele>
        <time>2017-03-26T09:20:26.000Z</time>
      </trkpt>
      <trkpt lat="47.47256" lon="6.78507">
        <ele>401.1</ele>
        <time>2017-03-26T09:20:27.000Z</time>
      </trkpt>
      <trkpt lat="47.47259" lon="6.78508">
        <ele>401.2</ele>
        <time>2017-03-26T09:20:28.000Z</time>
      </trkpt>
      <trkpt lat="47.47261" lon="6.78509">
        <ele>401.3</ele>
        <time>2017-03-26T09:20:29.000Z</time>
      </trkpt>
      <trkpt lat="47.47264" lon="6.78511">
        <ele>401.4</ele>
        <time>2017-03-26T09:20:30.000Z</time>
      </trkpt>
      <trkpt lat="47.47266" lon="6.78512">
        <ele>401.6</ele>
        <time>2017-03-26T09:20:31.000Z</time>
      </trkpt>
      <trkpt lat="47.47269" lon="6.78512">
        <ele>401.8</ele>
        <time>2017-03-26T09:20:32.000Z</time>
      </trkpt>
      <trkpt lat="47.47271" lon="6.78513">
        <ele>401.9</ele>
        <time>2017-03-26T09:20:33.000Z</time>
      </trkpt>
      <trkpt lat="47.47273" lon="6.78512">
        <ele>402.1</ele>
        <time>2017-03-26T09:20:34.000Z</time>
      </trkpt>
      <trkpt lat="47.47276" lon="6.78512">
        <ele>402.1</ele>
        <time>2017-03-26T09:20:35.000Z</time>
      </trkpt>
      <trkpt lat="47.47279" lon="6.78514">
        <ele>402.1</ele>
        <time>2017-03-26T09:20:36.000Z</time>
      </trkpt>
      <trkpt lat="47.47281" lon="6.78516">
        <ele>402.1</ele>
        <time>2017-03-26T09:20:37.000Z</time>
      </trkpt>
      <trkpt lat="47.47284" lon="6.78518">
        <ele>402.1</ele>
        <time>2017-03-26T09:20:38.000Z</time>
      </trkpt>
      <trkpt lat="47.47287" lon="6.7852">
        <ele>402.2</ele>
        <time>2017-03-26T09:20:39.000Z</time>
      </trkpt>
      <trkpt lat="47.47289" lon="6.78521">
        <ele>402.3</ele>
        <time>2017-03-26T09:20:40.000Z</time>
      </trkpt>
      <trkpt lat="47.47292" lon="6.78523">
        <ele>402.4</ele>
        <time>2017-03-26T09:20:41.000Z</time>
      </trkpt>
      <trkpt lat="47.47294" lon="6.78525">
        <ele>402.6</ele>
        <time>2017-03-26T09:20:42.000Z</time>
      </trkpt>
      <trkpt lat="47.47296" lon="6.78526">
        <ele>402.8</ele>
        <time>2017-03-26T09:20:43.000Z</time>
      </trkpt>
      <trkpt lat="47.47299" lon="6.78527">
        <ele>403</ele>
        <time>2017-03-26T09:20:44.000Z</time>
      </trkpt>
      <trkpt lat="47.47301" lon="6.78528">
        <ele>403.2</ele>
        <time>2017-03-26T09:20:45.000Z</time>
      </trkpt>
      <trkpt lat="47.47304" lon="6.78528">
        <ele>403.5</ele>
        <time>2017-03-26T09:20:46.000Z</time>
      </trkpt>
      <trkpt lat="47.47307" lon="6.7853">
        <ele>403.8</ele>
        <time>2017-03-26T09:20:47.000Z</time>
      </trkpt>
      <trkpt lat="47.4731" lon="6.78531">
        <ele>404.1</ele>
        <time>2017-03-26T09:20:48.000Z</time>
      </trkpt>
      <trkpt lat="47.47315" lon="6.78534">
        <ele>404.7</ele>
        <time>2017-03-26T09:20:50.000Z</time>
      </trkpt>
      <trkpt lat="47.47318" lon="6.78536">
        <ele>404.8</ele>
        <time>2017-03-26T09:20:51.000Z</time>
      </trkpt>
      <trkpt lat="47.47321" lon="6.78538">
        <ele>405.1</ele>
        <time>2017-03-26T09:20:52.000Z</time>
      </trkpt>
      <trkpt lat="47.47323" lon="6.78539">
        <ele>405.3</ele>
        <time>2017-03-26T09:20:53.000Z</time>
      </trkpt>
      <trkpt lat="47.47326" lon="6.7854">
        <ele>405.5</ele>
        <time>2017-03-26T09:20:54.000Z</time>
      </trkpt>
      <trkpt lat="47.4733" lon="6.78542">
        <ele>405.8</ele>
        <time>2017-03-26T09:20:56.000Z</time>
      </trkpt>
      <trkpt lat="47.47332" lon="6.78543">
        <ele>405.9</ele>
        <time>2017-03-26T09:20:57.000Z</time>
      </trkpt>
      <trkpt lat="47.47334" lon="6.78544">
        <ele>406</ele>
        <time>2017-03-26T09:20:58.000Z</time>
      </trkpt>
      <trkpt lat="47.47336" lon="6.78545">
        <ele>406.2</ele>
        <time>2017-03-26T09:20:59.000Z</time>
      </trkpt>
      <trkpt lat="47.47339" lon="6.78546">
        <ele>406.3</ele>
        <time>2017-03-26T09:21:00.000Z</time>
      </trkpt>
      <trkpt lat="47.47341" lon="6.78547">
        <ele>406.4</ele>
        <time>2017-03-26T09:21:01.000Z</time>
      </trkpt>
      <trkpt lat="47.47344" lon="6.7855">
        <ele>406.7</ele>
        <time>2017-03-26T09:21:03.000Z</time>
      </trkpt>
      <trkpt lat="47.47345" lon="6.78551">
        <ele>406.7</ele>
        <time>2017-03-26T09:21:04.000Z</time>
      </trkpt>
      <trkpt lat="47.47349" lon="6.78554">
        <ele>406.9</ele>
        <time>2017-03-26T09:21:06.000Z</time>
      </trkpt>
      <trkpt lat="47.47351" lon="6.78556">
        <ele>406.9</ele>
        <time>2017-03-26T09:21:07.000Z</time>
      </trkpt>
      <trkpt lat="47.47355" lon="6.78558">
        <ele>407.2</ele>
        <time>2017-03-26T09:21:09.000Z</time>
      </trkpt>
      <trkpt lat="47.47358" lon="6.7856">
        <ele>407.3</ele>
        <time>2017-03-26T09:21:10.000Z</time>
      </trkpt>
      <trkpt lat="47.4736" lon="6.78561">
        <ele>407.5</ele>
        <time>2017-03-26T09:21:11.000Z</time>
      </trkpt>
      <trkpt lat="47.47363" lon="6.78562">
        <ele>407.6</ele>
        <time>2017-03-26T09:21:12.000Z</time>
      </trkpt>
      <trkpt lat="47.47366" lon="6.78564">
        <ele>407.9</ele>
        <time>2017-03-26T09:21:14.000Z</time>
      </trkpt>
      <trkpt lat="47.47368" lon="6.78564">
        <ele>408</ele>
        <time>2017-03-26T09:21:15.000Z</time>
      </trkpt>
      <trkpt lat="47.47372" lon="6.78566">
        <ele>408.3</ele>
        <time>2017-03-26T09:21:17.000Z</time>
      </trkpt>
      <trkpt lat="47.47374" lon="6.78567">
        <ele>408.5</ele>
        <time>2017-03-26T09:21:18.000Z</time>
      </trkpt>
      <trkpt lat="47.47378" lon="6.78568">
        <ele>408.7</ele>
        <time>2017-03-26T09:21:20.000Z</time>
      </trkpt>
      <trkpt lat="47.47381" lon="6.78569">
        <ele>408.8</ele>
        <time>2017-03-26T09:21:21.000Z</time>
      </trkpt>
      <trkpt lat="47.47384" lon="6.78571">
        <ele>409</ele>
        <time>2017-03-26T09:21:23.000Z</time>
      </trkpt>
      <trkpt lat="47.47386" lon="6.78572">
        <ele>409.1</ele>
        <time>2017-03-26T09:21:24.000Z</time>
      </trkpt>
      <trkpt lat="47.47388" lon="6.78573">
        <ele>409.2</ele>
        <time>2017-03-26T09:21:25.000Z</time>
      </trkpt>
      <trkpt lat="47.47391" lon="6.78574">
        <ele>409.3</ele>
        <time>2017-03-26T09:21:26.000Z</time>
      </trkpt>
      <trkpt lat="47.47393" lon="6.78575">
        <ele>409.4</ele>
        <time>2017-03-26T09:21:27.000Z</time>
      </trkpt>
      <trkpt lat="47.47396" lon="6.78577">
        <ele>409.4</ele>
        <time>2017-03-26T09:21:28.000Z</time>
      </trkpt>
      <trkpt lat="47.47398" lon="6.78579">
        <ele>409.4</ele>
        <time>2017-03-26T09:21:29.000Z</time>
      </trkpt>
      <trkpt lat="47.47401" lon="6.7858">
        <ele>409.4</ele>
        <time>2017-03-26T09:21:30.000Z</time>
      </trkpt>
      <trkpt lat="47.47405" lon="6.78583">
        <ele>409.4</ele>
        <time>2017-03-26T09:21:32.000Z</time>
      </trkpt>
      <trkpt lat="47.47407" lon="6.78584">
        <ele>409.4</ele>
        <time>2017-03-26T09:21:33.000Z</time>
      </trkpt>
      <trkpt lat="47.47411" lon="6.78587">
        <ele>409.6</ele>
        <time>2017-03-26T09:21:35.000Z</time>
      </trkpt>
      <trkpt lat="47.47414" lon="6.78589">
        <ele>409.5</ele>
        <time>2017-03-26T09:21:36.000Z</time>
      </trkpt>
      <trkpt lat="47.47417" lon="6.78591">
        <ele>409.4</ele>
        <time>2017-03-26T09:21:37.000Z</time>
      </trkpt>
      <trkpt lat="47.47419" lon="6.78592">
        <ele>409.4</ele>
        <time>2017-03-26T09:21:38.000Z</time>
      </trkpt>
      <trkpt lat="47.47421" lon="6.78594">
        <ele>409.4</ele>
        <time>2017-03-26T09:21:39.000Z</time>
      </trkpt>
      <trkpt lat="47.47422" lon="6.78597">
        <ele>409.4</ele>
        <time>2017-03-26T09:21:40.000Z</time>
      </trkpt>
      <trkpt lat="47.47425" lon="6.786">
        <ele>409.3</ele>
        <time>2017-03-26T09:21:42.000Z</time>
      </trkpt>
      <trkpt lat="47.47426" lon="6.78602">
        <ele>409.3</ele>
        <time>2017-03-26T09:21:43.000Z</time>
      </trkpt>
      <trkpt lat="47.4743" lon="6.78605">
        <ele>409.1</ele>
        <time>2017-03-26T09:21:51.000Z</time>
      </trkpt>
      <trkpt lat="47.47446" lon="6.78603">
        <ele>409</ele>
        <time>2017-03-26T09:21:52.000Z</time>
      </trkpt>
      <trkpt lat="47.47446" lon="6.78603">
        <ele>408.8</ele>
        <time>2017-03-26T09:21:53.000Z</time>
      </trkpt>
      <trkpt lat="47.47451" lon="6.78603">
        <ele>408.5</ele>
        <time>2017-03-26T09:21:54.000Z</time>
      </trkpt>
      <trkpt lat="47.47454" lon="6.78604">
        <ele>408.2</ele>
        <time>2017-03-26T09:21:55.000Z</time>
      </trkpt>
      <trkpt lat="47.47458" lon="6.78605">
        <ele>405.4</ele>
        <time>2017-03-26T09:21:56.000Z</time>
      </trkpt>
      <trkpt lat="47.47461" lon="6.78606">
        <ele>402.5</ele>
        <time>2017-03-26T09:21:57.000Z</time>
      </trkpt>
      <trkpt lat="47.47466" lon="6.78606">
        <ele>399.4</ele>
        <time>2017-03-26T09:21:58.000Z</time>
      </trkpt>
      <trkpt lat="47.47471" lon="6.78605">
        <ele>396.8</ele>
        <time>2017-03-26T09:21:59.000Z</time>
      </trkpt>
      <trkpt lat="47.47478" lon="6.78601">
        <ele>394.3</ele>
        <time>2017-03-26T09:22:00.000Z</time>
      </trkpt>
      <trkpt lat="47.47487" lon="6.78593">
        <ele>392.9</ele>
        <time>2017-03-26T09:22:01.000Z</time>
      </trkpt>
      <trkpt lat="47.47495" lon="6.78585">
        <ele>391.5</ele>
        <time>2017-03-26T09:22:02.000Z</time>
      </trkpt>
      <trkpt lat="47.47502" lon="6.78577">
        <ele>390.8</ele>
        <time>2017-03-26T09:22:03.000Z</time>
      </trkpt>
      <trkpt lat="47.47509" lon="6.78568">
        <ele>390.4</ele>
        <time>2017-03-26T09:22:04.000Z</time>
      </trkpt>
      <trkpt lat="47.47516" lon="6.78559">
        <ele>390.3</ele>
        <time>2017-03-26T09:22:05.000Z</time>
      </trkpt>
      <trkpt lat="47.47523" lon="6.78551">
        <ele>390.4</ele>
        <time>2017-03-26T09:22:06.000Z</time>
      </trkpt>
      <trkpt lat="47.4753" lon="6.78543">
        <ele>390.1</ele>
        <time>2017-03-26T09:22:07.000Z</time>
      </trkpt>
      <trkpt lat="47.47536" lon="6.78536">
        <ele>389.6</ele>
        <time>2017-03-26T09:22:08.000Z</time>
      </trkpt>
      <trkpt lat="47.47544" lon="6.78526">
        <ele>389.5</ele>
        <time>2017-03-26T09:22:09.000Z</time>
      </trkpt>
      <trkpt lat="47.47552" lon="6.78516">
        <ele>389.7</ele>
        <time>2017-03-26T09:22:10.000Z</time>
      </trkpt>
      <trkpt lat="47.47559" lon="6.78507">
        <ele>390.4</ele>
        <time>2017-03-26T09:22:11.000Z</time>
      </trkpt>
      <trkpt lat="47.47565" lon="6.78498">
        <ele>390.6</ele>
        <time>2017-03-26T09:22:12.000Z</time>
      </trkpt>
      <trkpt lat="47.47571" lon="6.78492">
        <ele>391.1</ele>
        <time>2017-03-26T09:22:13.000Z</time>
      </trkpt>
      <trkpt lat="47.47577" lon="6.78485">
        <ele>391.5</ele>
        <time>2017-03-26T09:22:14.000Z</time>
      </trkpt>
      <trkpt lat="47.47582" lon="6.78479">
        <ele>392</ele>
        <time>2017-03-26T09:22:15.000Z</time>
      </trkpt>
      <trkpt lat="47.47588" lon="6.78472">
        <ele>392.4</ele>
        <time>2017-03-26T09:22:16.000Z</time>
      </trkpt>
      <trkpt lat="47.47591" lon="6.78463">
        <ele>393.6</ele>
        <time>2017-03-26T09:22:17.000Z</time>
      </trkpt>
      <trkpt lat="47.47595" lon="6.78455">
        <ele>394.3</ele>
        <time>2017-03-26T09:22:18.000Z</time>
      </trkpt>
      <trkpt lat="47.476" lon="6.7845">
        <ele>393.6</ele>
        <time>2017-03-26T09:22:19.000Z</time>
      </trkpt>
      <trkpt lat="47.47604" lon="6.78442">
        <ele>393.5</ele>
        <time>2017-03-26T09:22:20.000Z</time>
      </trkpt>
      <trkpt lat="47.47608" lon="6.78435">
        <ele>392.9</ele>
        <time>2017-03-26T09:22:21.000Z</time>
      </trkpt>
      <trkpt lat="47.47612" lon="6.78429">
        <ele>393.1</ele>
        <time>2017-03-26T09:22:22.000Z</time>
      </trkpt>
      <trkpt lat="47.47615" lon="6.78423">
        <ele>393</ele>
        <time>2017-03-26T09:22:23.000Z</time>
      </trkpt>
      <trkpt lat="47.4762" lon="6.78417">
        <ele>392.6</ele>
        <time>2017-03-26T09:22:24.000Z</time>
      </trkpt>
      <trkpt lat="47.47623" lon="6.78409">
        <ele>392.9</ele>
        <time>2017-03-26T09:22:25.000Z</time>
      </trkpt>
      <trkpt lat="47.47627" lon="6.78402">
        <ele>392.7</ele>
        <time>2017-03-26T09:22:26.000Z</time>
      </trkpt>
      <trkpt lat="47.47631" lon="6.78398">
        <ele>392.6</ele>
        <time>2017-03-26T09:22:27.000Z</time>
      </trkpt>
      <trkpt lat="47.47634" lon="6.78398">
        <ele>392.6</ele>
        <time>2017-03-26T09:22:28.000Z</time>
      </trkpt>
      <trkpt lat="47.4764" lon="6.784">
        <ele>392</ele>
        <time>2017-03-26T09:22:29.000Z</time>
      </trkpt>
      <trkpt lat="47.47642" lon="6.78404">
        <ele>389.2</ele>
        <time>2017-03-26T09:22:47.000Z</time>
      </trkpt>
      <trkpt lat="47.47649" lon="6.78398">
        <ele>388.9</ele>
        <time>2017-03-26T09:22:48.000Z</time>
      </trkpt>
      <trkpt lat="47.47649" lon="6.78398">
        <ele>387.8</ele>
        <time>2017-03-26T09:23:16.000Z</time>
      </trkpt>
      <trkpt lat="47.47649" lon="6.78412">
        <ele>387.6</ele>
        <time>2017-03-26T09:23:17.000Z</time>
      </trkpt>
      <trkpt lat="47.4765" lon="6.78419">
        <ele>387.6</ele>
        <time>2017-03-26T09:23:18.000Z</time>
      </trkpt>
      <trkpt lat="47.47653" lon="6.78424">
        <ele>386.6</ele>
        <time>2017-03-26T09:23:19.000Z</time>
      </trkpt>
      <trkpt lat="47.47657" lon="6.78427">
        <ele>386.6</ele>
        <time>2017-03-26T09:23:20.000Z</time>
      </trkpt>
      <trkpt lat="47.47657" lon="6.78421">
        <ele>386.2</ele>
        <time>2017-03-26T09:23:22.000Z</time>
      </trkpt>
      <trkpt lat="47.47658" lon="6.78417">
        <ele>386.1</ele>
        <time>2017-03-26T09:23:23.000Z</time>
      </trkpt>
      <trkpt lat="47.4766" lon="6.78412">
        <ele>384.9</ele>
        <time>2017-03-26T09:23:24.000Z</time>
      </trkpt>
      <trkpt lat="47.47662" lon="6.78406">
        <ele>383.7</ele>
        <time>2017-03-26T09:23:25.000Z</time>
      </trkpt>
      <trkpt lat="47.47664" lon="6.784">
        <ele>382.5</ele>
        <time>2017-03-26T09:23:26.000Z</time>
      </trkpt>
      <trkpt lat="47.47666" lon="6.78395">
        <ele>382.4</ele>
        <time>2017-03-26T09:23:27.000Z</time>
      </trkpt>
      <trkpt lat="47.4767" lon="6.7839">
        <ele>381.3</ele>
        <time>2017-03-26T09:23:28.000Z</time>
      </trkpt>
      <trkpt lat="47.47674" lon="6.78384">
        <ele>381.2</ele>
        <time>2017-03-26T09:23:29.000Z</time>
      </trkpt>
      <trkpt lat="47.47682" lon="6.78374">
        <ele>383.1</ele>
        <time>2017-03-26T09:23:31.000Z</time>
      </trkpt>
      <trkpt lat="47.47686" lon="6.78368">
        <ele>383.5</ele>
        <time>2017-03-26T09:23:32.000Z</time>
      </trkpt>
      <trkpt lat="47.47688" lon="6.78363">
        <ele>383.5</ele>
        <time>2017-03-26T09:23:33.000Z</time>
      </trkpt>
      <trkpt lat="47.47691" lon="6.7836">
        <ele>383.5</ele>
        <time>2017-03-26T09:23:34.000Z</time>
      </trkpt>
      <trkpt lat="47.47694" lon="6.78357">
        <ele>383.5</ele>
        <time>2017-03-26T09:23:35.000Z</time>
      </trkpt>
      <trkpt lat="47.47696" lon="6.78353">
        <ele>383.6</ele>
        <time>2017-03-26T09:23:36.000Z</time>
      </trkpt>
      <trkpt lat="47.47699" lon="6.78346">
        <ele>383.5</ele>
        <time>2017-03-26T09:23:37.000Z</time>
      </trkpt>
      <trkpt lat="47.47702" lon="6.78341">
        <ele>383.6</ele>
        <time>2017-03-26T09:23:38.000Z</time>
      </trkpt>
      <trkpt lat="47.47705" lon="6.78335">
        <ele>383.7</ele>
        <time>2017-03-26T09:23:39.000Z</time>
      </trkpt>
      <trkpt lat="47.47708" lon="6.78329">
        <ele>384.6</ele>
        <time>2017-03-26T09:23:40.000Z</time>
      </trkpt>
      <trkpt lat="47.4771" lon="6.78321">
        <ele>384.8</ele>
        <time>2017-03-26T09:23:41.000Z</time>
      </trkpt>
      <trkpt lat="47.47712" lon="6.78311">
        <ele>384.9</ele>
        <time>2017-03-26T09:23:42.000Z</time>
      </trkpt>
      <trkpt lat="47.47711" lon="6.78304">
        <ele>385.2</ele>
        <time>2017-03-26T09:23:43.000Z</time>
      </trkpt>
      <trkpt lat="47.4771" lon="6.78297">
        <ele>384.9</ele>
        <time>2017-03-26T09:23:44.000Z</time>
      </trkpt>
      <trkpt lat="47.47709" lon="6.7829">
        <ele>384.7</ele>
        <time>2017-03-26T09:23:45.000Z</time>
      </trkpt>
      <trkpt lat="47.47708" lon="6.78282">
        <ele>384.3</ele>
        <time>2017-03-26T09:23:46.000Z</time>
      </trkpt>
      <trkpt lat="47.47706" lon="6.78271">
        <ele>384.2</ele>
        <time>2017-03-26T09:23:47.000Z</time>
      </trkpt>
      <trkpt lat="47.47703" lon="6.78262">
        <ele>384.6</ele>
        <time>2017-03-26T09:23:48.000Z</time>
      </trkpt>
      <trkpt lat="47.477" lon="6.78251">
        <ele>384.8</ele>
        <time>2017-03-26T09:23:49.000Z</time>
      </trkpt>
      <trkpt lat="47.47697" lon="6.7824">
        <ele>384.9</ele>
        <time>2017-03-26T09:23:50.000Z</time>
      </trkpt>
      <trkpt lat="47.47694" lon="6.78229">
        <ele>385.2</ele>
        <time>2017-03-26T09:23:51.000Z</time>
      </trkpt>
      <trkpt lat="47.4769" lon="6.78216">
        <ele>384.8</ele>
        <time>2017-03-26T09:23:52.000Z</time>
      </trkpt>
      <trkpt lat="47.47689" lon="6.78203">
        <ele>384.4</ele>
        <time>2017-03-26T09:23:53.000Z</time>
      </trkpt>
      <trkpt lat="47.47688" lon="6.78191">
        <ele>383.9</ele>
        <time>2017-03-26T09:23:54.000Z</time>
      </trkpt>
      <trkpt lat="47.47687" lon="6.7818">
        <ele>383.2</ele>
        <time>2017-03-26T09:23:55.000Z</time>
      </trkpt>
      <trkpt lat="47.47687" lon="6.78167">
        <ele>381.6</ele>
        <time>2017-03-26T09:23:56.000Z</time>
      </trkpt>
      <trkpt lat="47.4769" lon="6.78154">
        <ele>380.8</ele>
        <time>2017-03-26T09:23:57.000Z</time>
      </trkpt>
      <trkpt lat="47.47693" lon="6.78141">
        <ele>380.8</ele>
        <time>2017-03-26T09:23:58.000Z</time>
      </trkpt>
      <trkpt lat="47.47697" lon="6.78129">
        <ele>379.9</ele>
        <time>2017-03-26T09:23:59.000Z</time>
      </trkpt>
      <trkpt lat="47.47703" lon="6.78115">
        <ele>378.1</ele>
        <time>2017-03-26T09:24:00.000Z</time>
      </trkpt>
      <trkpt lat="47.47709" lon="6.78102">
        <ele>376.2</ele>
        <time>2017-03-26T09:24:01.000Z</time>
      </trkpt>
      <trkpt lat="47.47714" lon="6.7809">
        <ele>374</ele>
        <time>2017-03-26T09:24:02.000Z</time>
      </trkpt>
      <trkpt lat="47.4772" lon="6.78076">
        <ele>371.6</ele>
        <time>2017-03-26T09:24:03.000Z</time>
      </trkpt>
      <trkpt lat="47.47724" lon="6.78062">
        <ele>369.7</ele>
        <time>2017-03-26T09:24:04.000Z</time>
      </trkpt>
      <trkpt lat="47.47726" lon="6.7805">
        <ele>368.4</ele>
        <time>2017-03-26T09:24:05.000Z</time>
      </trkpt>
      <trkpt lat="47.47729" lon="6.78035">
        <ele>367.6</ele>
        <time>2017-03-26T09:24:06.000Z</time>
      </trkpt>
      <trkpt lat="47.47731" lon="6.78022">
        <ele>367.6</ele>
        <time>2017-03-26T09:24:07.000Z</time>
      </trkpt>
      <trkpt lat="47.4773" lon="6.78008">
        <ele>367.5</ele>
        <time>2017-03-26T09:24:08.000Z</time>
      </trkpt>
      <trkpt lat="47.47728" lon="6.77996">
        <ele>367.2</ele>
        <time>2017-03-26T09:24:09.000Z</time>
      </trkpt>
      <trkpt lat="47.47727" lon="6.77985">
        <ele>367.4</ele>
        <time>2017-03-26T09:24:10.000Z</time>
      </trkpt>
      <trkpt lat="47.47725" lon="6.77972">
        <ele>368</ele>
        <time>2017-03-26T09:24:11.000Z</time>
      </trkpt>
      <trkpt lat="47.47723" lon="6.77959">
        <ele>368.1</ele>
        <time>2017-03-26T09:24:12.000Z</time>
      </trkpt>
      <trkpt lat="47.47721" lon="6.77949">
        <ele>368.2</ele>
        <time>2017-03-26T09:24:13.000Z</time>
      </trkpt>
      <trkpt lat="47.47717" lon="6.77939">
        <ele>368.5</ele>
        <time>2017-03-26T09:24:14.000Z</time>
      </trkpt>
      <trkpt lat="47.47714" lon="6.77929">
        <ele>368.8</ele>
        <time>2017-03-26T09:24:15.000Z</time>
      </trkpt>
      <trkpt lat="47.47711" lon="6.77919">
        <ele>368.8</ele>
        <time>2017-03-26T09:24:16.000Z</time>
      </trkpt>
      <trkpt lat="47.47709" lon="6.77908">
        <ele>368.1</ele>
        <time>2017-03-26T09:24:17.000Z</time>
      </trkpt>
      <trkpt lat="47.47707" lon="6.77898">
        <ele>367.9</ele>
        <time>2017-03-26T09:24:18.000Z</time>
      </trkpt>
      <trkpt lat="47.47705" lon="6.77889">
        <ele>368.5</ele>
        <time>2017-03-26T09:24:19.000Z</time>
      </trkpt>
      <trkpt lat="47.47704" lon="6.7788">
        <ele>369.1</ele>
        <time>2017-03-26T09:24:20.000Z</time>
      </trkpt>
      <trkpt lat="47.47703" lon="6.77868">
        <ele>369.6</ele>
        <time>2017-03-26T09:24:21.000Z</time>
      </trkpt>
      <trkpt lat="47.47703" lon="6.77858">
        <ele>370.2</ele>
        <time>2017-03-26T09:24:22.000Z</time>
      </trkpt>
      <trkpt lat="47.47702" lon="6.77847">
        <ele>370</ele>
        <time>2017-03-26T09:24:23.000Z</time>
      </trkpt>
      <trkpt lat="47.47702" lon="6.77837">
        <ele>370.4</ele>
        <time>2017-03-26T09:24:24.000Z</time>
      </trkpt>
      <trkpt lat="47.47702" lon="6.77827">
        <ele>371</ele>
        <time>2017-03-26T09:24:25.000Z</time>
      </trkpt>
      <trkpt lat="47.47703" lon="6.77815">
        <ele>370.6</ele>
        <time>2017-03-26T09:24:26.000Z</time>
      </trkpt>
      <trkpt lat="47.47703" lon="6.77804">
        <ele>369.7</ele>
        <time>2017-03-26T09:24:27.000Z</time>
      </trkpt>
      <trkpt lat="47.47704" lon="6.77793">
        <ele>368.3</ele>
        <time>2017-03-26T09:24:28.000Z</time>
      </trkpt>
      <trkpt lat="47.47704" lon="6.77782">
        <ele>367.1</ele>
        <time>2017-03-26T09:24:29.000Z</time>
      </trkpt>
      <trkpt lat="47.47705" lon="6.77771">
        <ele>366</ele>
        <time>2017-03-26T09:24:30.000Z</time>
      </trkpt>
      <trkpt lat="47.47706" lon="6.7776">
        <ele>365.1</ele>
        <time>2017-03-26T09:24:31.000Z</time>
      </trkpt>
      <trkpt lat="47.47707" lon="6.77748">
        <ele>364.4</ele>
        <time>2017-03-26T09:24:32.000Z</time>
      </trkpt>
      <trkpt lat="47.47708" lon="6.77737">
        <ele>364.2</ele>
        <time>2017-03-26T09:24:33.000Z</time>
      </trkpt>
      <trkpt lat="47.4771" lon="6.7773">
        <ele>363</ele>
        <time>2017-03-26T09:24:34.000Z</time>
      </trkpt>
      <trkpt lat="47.47713" lon="6.77723">
        <ele>362</ele>
        <time>2017-03-26T09:24:35.000Z</time>
      </trkpt>
      <trkpt lat="47.47716" lon="6.77716">
        <ele>361.5</ele>
        <time>2017-03-26T09:24:36.000Z</time>
      </trkpt>
      <trkpt lat="47.4772" lon="6.77711">
        <ele>361.5</ele>
        <time>2017-03-26T09:24:37.000Z</time>
      </trkpt>
      <trkpt lat="47.47723" lon="6.77707">
        <ele>361.5</ele>
        <time>2017-03-26T09:24:38.000Z</time>
      </trkpt>
      <trkpt lat="47.47725" lon="6.77703">
        <ele>361.5</ele>
        <time>2017-03-26T09:24:39.000Z</time>
      </trkpt>
      <trkpt lat="47.47725" lon="6.77697">
        <ele>361.6</ele>
        <time>2017-03-26T09:24:40.000Z</time>
      </trkpt>
      <trkpt lat="47.47724" lon="6.77691">
        <ele>361.7</ele>
        <time>2017-03-26T09:24:41.000Z</time>
      </trkpt>
      <trkpt lat="47.47721" lon="6.7769">
        <ele>361</ele>
        <time>2017-03-26T09:24:42.000Z</time>
      </trkpt>
      <trkpt lat="47.47719" lon="6.77685">
        <ele>360.8</ele>
        <time>2017-03-26T09:24:43.000Z</time>
      </trkpt>
      <trkpt lat="47.47716" lon="6.77678">
        <ele>360</ele>
        <time>2017-03-26T09:24:44.000Z</time>
      </trkpt>
      <trkpt lat="47.47714" lon="6.77671">
        <ele>359.4</ele>
        <time>2017-03-26T09:24:45.000Z</time>
      </trkpt>
      <trkpt lat="47.47712" lon="6.77663">
        <ele>358.4</ele>
        <time>2017-03-26T09:24:46.000Z</time>
      </trkpt>
      <trkpt lat="47.4771" lon="6.77656">
        <ele>358.7</ele>
        <time>2017-03-26T09:24:47.000Z</time>
      </trkpt>
      <trkpt lat="47.47707" lon="6.77648">
        <ele>359.2</ele>
        <time>2017-03-26T09:24:48.000Z</time>
      </trkpt>
      <trkpt lat="47.47705" lon="6.77641">
        <ele>359.2</ele>
        <time>2017-03-26T09:24:49.000Z</time>
      </trkpt>
      <trkpt lat="47.47704" lon="6.77632">
        <ele>359.2</ele>
        <time>2017-03-26T09:24:50.000Z</time>
      </trkpt>
      <trkpt lat="47.47703" lon="6.77624">
        <ele>360.1</ele>
        <time>2017-03-26T09:24:51.000Z</time>
      </trkpt>
      <trkpt lat="47.47703" lon="6.77618">
        <ele>360.1</ele>
        <time>2017-03-26T09:24:52.000Z</time>
      </trkpt>
      <trkpt lat="47.47701" lon="6.77612">
        <ele>360.2</ele>
        <time>2017-03-26T09:24:53.000Z</time>
      </trkpt>
      <trkpt lat="47.477" lon="6.77605">
        <ele>360.3</ele>
        <time>2017-03-26T09:24:54.000Z</time>
      </trkpt>
      <trkpt lat="47.47698" lon="6.77599">
        <ele>360.3</ele>
        <time>2017-03-26T09:24:55.000Z</time>
      </trkpt>
      <trkpt lat="47.47694" lon="6.77593">
        <ele>360.5</ele>
        <time>2017-03-26T09:24:56.000Z</time>
      </trkpt>
      <trkpt lat="47.47691" lon="6.77587">
        <ele>361.5</ele>
        <time>2017-03-26T09:24:57.000Z</time>
      </trkpt>
      <trkpt lat="47.47688" lon="6.77583">
        <ele>361.6</ele>
        <time>2017-03-26T09:24:58.000Z</time>
      </trkpt>
      <trkpt lat="47.47685" lon="6.77577">
        <ele>362.7</ele>
        <time>2017-03-26T09:24:59.000Z</time>
      </trkpt>
      <trkpt lat="47.47681" lon="6.77571">
        <ele>363.2</ele>
        <time>2017-03-26T09:25:00.000Z</time>
      </trkpt>
      <trkpt lat="47.47676" lon="6.77565">
        <ele>363</ele>
        <time>2017-03-26T09:25:01.000Z</time>
      </trkpt>
      <trkpt lat="47.47673" lon="6.77561">
        <ele>362.8</ele>
        <time>2017-03-26T09:25:02.000Z</time>
      </trkpt>
      <trkpt lat="47.4767" lon="6.77556">
        <ele>363</ele>
        <time>2017-03-26T09:25:03.000Z</time>
      </trkpt>
      <trkpt lat="47.47667" lon="6.77551">
        <ele>363</ele>
        <time>2017-03-26T09:25:04.000Z</time>
      </trkpt>
      <trkpt lat="47.47664" lon="6.77547">
        <ele>363.8</ele>
        <time>2017-03-26T09:25:05.000Z</time>
      </trkpt>
      <trkpt lat="47.47661" lon="6.77543">
        <ele>363.8</ele>
        <time>2017-03-26T09:25:06.000Z</time>
      </trkpt>
      <trkpt lat="47.47658" lon="6.77537">
        <ele>364.2</ele>
        <time>2017-03-26T09:25:07.000Z</time>
      </trkpt>
      <trkpt lat="47.47654" lon="6.77533">
        <ele>365.1</ele>
        <time>2017-03-26T09:25:08.000Z</time>
      </trkpt>
      <trkpt lat="47.47649" lon="6.77528">
        <ele>365.5</ele>
        <time>2017-03-26T09:25:09.000Z</time>
      </trkpt>
      <trkpt lat="47.47646" lon="6.77522">
        <ele>365.5</ele>
        <time>2017-03-26T09:25:10.000Z</time>
      </trkpt>
      <trkpt lat="47.47643" lon="6.77516">
        <ele>365.7</ele>
        <time>2017-03-26T09:25:11.000Z</time>
      </trkpt>
      <trkpt lat="47.47639" lon="6.7751">
        <ele>365.8</ele>
        <time>2017-03-26T09:25:12.000Z</time>
      </trkpt>
      <trkpt lat="47.47636" lon="6.77506">
        <ele>366</ele>
        <time>2017-03-26T09:25:13.000Z</time>
      </trkpt>
      <trkpt lat="47.47632" lon="6.77502">
        <ele>365.8</ele>
        <time>2017-03-26T09:25:14.000Z</time>
      </trkpt>
      <trkpt lat="47.47629" lon="6.77497">
        <ele>365.7</ele>
        <time>2017-03-26T09:25:15.000Z</time>
      </trkpt>
      <trkpt lat="47.47625" lon="6.77493">
        <ele>365</ele>
        <time>2017-03-26T09:25:16.000Z</time>
      </trkpt>
      <trkpt lat="47.47621" lon="6.7749">
        <ele>364.9</ele>
        <time>2017-03-26T09:25:17.000Z</time>
      </trkpt>
      <trkpt lat="47.47618" lon="6.77487">
        <ele>364.6</ele>
        <time>2017-03-26T09:25:18.000Z</time>
      </trkpt>
      <trkpt lat="47.47615" lon="6.77484">
        <ele>364.5</ele>
        <time>2017-03-26T09:25:19.000Z</time>
      </trkpt>
      <trkpt lat="47.47613" lon="6.77482">
        <ele>364.5</ele>
        <time>2017-03-26T09:25:20.000Z</time>
      </trkpt>
      <trkpt lat="47.4761" lon="6.77478">
        <ele>363.5</ele>
        <time>2017-03-26T09:25:21.000Z</time>
      </trkpt>
      <trkpt lat="47.47608" lon="6.77474">
        <ele>362.1</ele>
        <time>2017-03-26T09:25:22.000Z</time>
      </trkpt>
      <trkpt lat="47.47605" lon="6.7747">
        <ele>360.7</ele>
        <time>2017-03-26T09:25:23.000Z</time>
      </trkpt>
      <trkpt lat="47.47603" lon="6.77467">
        <ele>360.6</ele>
        <time>2017-03-26T09:25:24.000Z</time>
      </trkpt>
      <trkpt lat="47.47599" lon="6.77462">
        <ele>360.5</ele>
        <time>2017-03-26T09:25:25.000Z</time>
      </trkpt>
      <trkpt lat="47.47595" lon="6.77457">
        <ele>360.4</ele>
        <time>2017-03-26T09:25:26.000Z</time>
      </trkpt>
      <trkpt lat="47.47592" lon="6.7745">
        <ele>360.4</ele>
        <time>2017-03-26T09:25:27.000Z</time>
      </trkpt>
      <trkpt lat="47.47591" lon="6.77446">
        <ele>360.2</ele>
        <time>2017-03-26T09:25:28.000Z</time>
      </trkpt>
      <trkpt lat="47.47592" lon="6.77439">
        <ele>359.9</ele>
        <time>2017-03-26T09:25:29.000Z</time>
      </trkpt>
      <trkpt lat="47.47594" lon="6.77435">
        <ele>360.1</ele>
        <time>2017-03-26T09:25:30.000Z</time>
      </trkpt>
      <trkpt lat="47.47595" lon="6.77428">
        <ele>360.1</ele>
        <time>2017-03-26T09:25:31.000Z</time>
      </trkpt>
      <trkpt lat="47.47597" lon="6.77421">
        <ele>360.7</ele>
        <time>2017-03-26T09:25:32.000Z</time>
      </trkpt>
      <trkpt lat="47.476" lon="6.77414">
        <ele>361.2</ele>
        <time>2017-03-26T09:25:33.000Z</time>
      </trkpt>
      <trkpt lat="47.47602" lon="6.77408">
        <ele>361.5</ele>
        <time>2017-03-26T09:25:34.000Z</time>
      </trkpt>
      <trkpt lat="47.47603" lon="6.77401">
        <ele>361.3</ele>
        <time>2017-03-26T09:25:35.000Z</time>
      </trkpt>
      <trkpt lat="47.47605" lon="6.77395">
        <ele>360.7</ele>
        <time>2017-03-26T09:25:36.000Z</time>
      </trkpt>
      <trkpt lat="47.47607" lon="6.7739">
        <ele>360</ele>
        <time>2017-03-26T09:25:37.000Z</time>
      </trkpt>
      <trkpt lat="47.4761" lon="6.77383">
        <ele>359.7</ele>
        <time>2017-03-26T09:25:38.000Z</time>
      </trkpt>
      <trkpt lat="47.47611" lon="6.77378">
        <ele>359.4</ele>
        <time>2017-03-26T09:25:39.000Z</time>
      </trkpt>
      <trkpt lat="47.47613" lon="6.77371">
        <ele>359.4</ele>
        <time>2017-03-26T09:25:40.000Z</time>
      </trkpt>
      <trkpt lat="47.47614" lon="6.77364">
        <ele>359.7</ele>
        <time>2017-03-26T09:25:41.000Z</time>
      </trkpt>
      <trkpt lat="47.47616" lon="6.77357">
        <ele>359.4</ele>
        <time>2017-03-26T09:25:42.000Z</time>
      </trkpt>
      <trkpt lat="47.47618" lon="6.77351">
        <ele>358.6</ele>
        <time>2017-03-26T09:25:43.000Z</time>
      </trkpt>
      <trkpt lat="47.4762" lon="6.77347">
        <ele>357.6</ele>
        <time>2017-03-26T09:25:44.000Z</time>
      </trkpt>
      <trkpt lat="47.47622" lon="6.77341">
        <ele>357.1</ele>
        <time>2017-03-26T09:25:45.000Z</time>
      </trkpt>
      <trkpt lat="47.47624" lon="6.77335">
        <ele>356.9</ele>
        <time>2017-03-26T09:25:46.000Z</time>
      </trkpt>
      <trkpt lat="47.47626" lon="6.77329">
        <ele>356.9</ele>
        <time>2017-03-26T09:25:47.000Z</time>
      </trkpt>
      <trkpt lat="47.47628" lon="6.77323">
        <ele>356.9</ele>
        <time>2017-03-26T09:25:48.000Z</time>
      </trkpt>
      <trkpt lat="47.47631" lon="6.77318">
        <ele>356.8</ele>
        <time>2017-03-26T09:25:49.000Z</time>
      </trkpt>
      <trkpt lat="47.47633" lon="6.77313">
        <ele>357</ele>
        <time>2017-03-26T09:25:50.000Z</time>
      </trkpt>
      <trkpt lat="47.47634" lon="6.77308">
        <ele>357</ele>
        <time>2017-03-26T09:25:51.000Z</time>
      </trkpt>
      <trkpt lat="47.47634" lon="6.77304">
        <ele>356.9</ele>
        <time>2017-03-26T09:25:52.000Z</time>
      </trkpt>
      <trkpt lat="47.47634" lon="6.77298">
        <ele>356.9</ele>
        <time>2017-03-26T09:25:53.000Z</time>
      </trkpt>
      <trkpt lat="47.47634" lon="6.77293">
        <ele>356.9</ele>
        <time>2017-03-26T09:25:54.000Z</time>
      </trkpt>
      <trkpt lat="47.47634" lon="6.77288">
        <ele>356.9</ele>
        <time>2017-03-26T09:25:55.000Z</time>
      </trkpt>
      <trkpt lat="47.47633" lon="6.77282">
        <ele>356.6</ele>
        <time>2017-03-26T09:25:56.000Z</time>
      </trkpt>
      <trkpt lat="47.47632" lon="6.77277">
        <ele>357.4</ele>
        <time>2017-03-26T09:25:57.000Z</time>
      </trkpt>
      <trkpt lat="47.47629" lon="6.77274">
        <ele>357.8</ele>
        <time>2017-03-26T09:25:58.000Z</time>
      </trkpt>
      <trkpt lat="47.47627" lon="6.77271">
        <ele>357.9</ele>
        <time>2017-03-26T09:25:59.000Z</time>
      </trkpt>
      <trkpt lat="47.47625" lon="6.77268">
        <ele>357.9</ele>
        <time>2017-03-26T09:26:00.000Z</time>
      </trkpt>
      <trkpt lat="47.47623" lon="6.77265">
        <ele>358.1</ele>
        <time>2017-03-26T09:26:01.000Z</time>
      </trkpt>
      <trkpt lat="47.4762" lon="6.77262">
        <ele>358</ele>
        <time>2017-03-26T09:26:02.000Z</time>
      </trkpt>
      <trkpt lat="47.47616" lon="6.77258">
        <ele>357.9</ele>
        <time>2017-03-26T09:26:03.000Z</time>
      </trkpt>
      <trkpt lat="47.47612" lon="6.77255">
        <ele>357.5</ele>
        <time>2017-03-26T09:26:04.000Z</time>
      </trkpt>
      <trkpt lat="47.47608" lon="6.77251">
        <ele>357.5</ele>
        <time>2017-03-26T09:26:05.000Z</time>
      </trkpt>
      <trkpt lat="47.47604" lon="6.77248">
        <ele>357.6</ele>
        <time>2017-03-26T09:26:06.000Z</time>
      </trkpt>
      <trkpt lat="47.47601" lon="6.77245">
        <ele>357.6</ele>
        <time>2017-03-26T09:26:07.000Z</time>
      </trkpt>
      <trkpt lat="47.47597" lon="6.77241">
        <ele>357.6</ele>
        <time>2017-03-26T09:26:08.000Z</time>
      </trkpt>
      <trkpt lat="47.47593" lon="6.77238">
        <ele>357.8</ele>
        <time>2017-03-26T09:26:09.000Z</time>
      </trkpt>
      <trkpt lat="47.47589" lon="6.77235">
        <ele>357.5</ele>
        <time>2017-03-26T09:26:10.000Z</time>
      </trkpt>
      <trkpt lat="47.47586" lon="6.77232">
        <ele>357.5</ele>
        <time>2017-03-26T09:26:11.000Z</time>
      </trkpt>
      <trkpt lat="47.47582" lon="6.7723">
        <ele>356.2</ele>
        <time>2017-03-26T09:26:12.000Z</time>
      </trkpt>
      <trkpt lat="47.47578" lon="6.77227">
        <ele>355.8</ele>
        <time>2017-03-26T09:26:13.000Z</time>
      </trkpt>
      <trkpt lat="47.47574" lon="6.77224">
        <ele>355.6</ele>
        <time>2017-03-26T09:26:14.000Z</time>
      </trkpt>
      <trkpt lat="47.47572" lon="6.77222">
        <ele>355.6</ele>
        <time>2017-03-26T09:26:15.000Z</time>
      </trkpt>
      <trkpt lat="47.47569" lon="6.77219">
        <ele>355.6</ele>
        <time>2017-03-26T09:26:16.000Z</time>
      </trkpt>
      <trkpt lat="47.47565" lon="6.77216">
        <ele>355.9</ele>
        <time>2017-03-26T09:26:17.000Z</time>
      </trkpt>
      <trkpt lat="47.47562" lon="6.77213">
        <ele>355.9</ele>
        <time>2017-03-26T09:26:18.000Z</time>
      </trkpt>
      <trkpt lat="47.47558" lon="6.7721">
        <ele>355.9</ele>
        <time>2017-03-26T09:26:19.000Z</time>
      </trkpt>
      <trkpt lat="47.47555" lon="6.77207">
        <ele>355.9</ele>
        <time>2017-03-26T09:26:20.000Z</time>
      </trkpt>
      <trkpt lat="47.47551" lon="6.77204">
        <ele>356</ele>
        <time>2017-03-26T09:26:21.000Z</time>
      </trkpt>
      <trkpt lat="47.47548" lon="6.77202">
        <ele>356.2</ele>
        <time>2017-03-26T09:26:22.000Z</time>
      </trkpt>
      <trkpt lat="47.47545" lon="6.772">
        <ele>356.2</ele>
        <time>2017-03-26T09:26:23.000Z</time>
      </trkpt>
      <trkpt lat="47.4754" lon="6.77197">
        <ele>356.2</ele>
        <time>2017-03-26T09:26:24.000Z</time>
      </trkpt>
      <trkpt lat="47.47535" lon="6.77193">
        <ele>356.2</ele>
        <time>2017-03-26T09:26:25.000Z</time>
      </trkpt>
      <trkpt lat="47.47531" lon="6.7719">
        <ele>356.2</ele>
        <time>2017-03-26T09:26:26.000Z</time>
      </trkpt>
      <trkpt lat="47.47526" lon="6.77188">
        <ele>356.8</ele>
        <time>2017-03-26T09:26:27.000Z</time>
      </trkpt>
      <trkpt lat="47.47522" lon="6.77185">
        <ele>357</ele>
        <time>2017-03-26T09:26:28.000Z</time>
      </trkpt>
      <trkpt lat="47.47517" lon="6.7718">
        <ele>357.1</ele>
        <time>2017-03-26T09:26:29.000Z</time>
      </trkpt>
      <trkpt lat="47.47515" lon="6.77176">
        <ele>357.1</ele>
        <time>2017-03-26T09:26:30.000Z</time>
      </trkpt>
      <trkpt lat="47.47515" lon="6.77173">
        <ele>357.1</ele>
        <time>2017-03-26T09:26:31.000Z</time>
      </trkpt>
      <trkpt lat="47.47516" lon="6.7717">
        <ele>357.1</ele>
        <time>2017-03-26T09:26:32.000Z</time>
      </trkpt>
      <trkpt lat="47.47518" lon="6.77166">
        <ele>355.6</ele>
        <time>2017-03-26T09:26:33.000Z</time>
      </trkpt>
      <trkpt lat="47.47518" lon="6.7716">
        <ele>354.9</ele>
        <time>2017-03-26T09:26:35.000Z</time>
      </trkpt>
      <trkpt lat="47.47519" lon="6.77159">
        <ele>354.8</ele>
        <time>2017-03-26T09:26:36.000Z</time>
      </trkpt>
      <trkpt lat="47.47523" lon="6.77157">
        <ele>354.4</ele>
        <time>2017-03-26T09:26:38.000Z</time>
      </trkpt>
      <trkpt lat="47.47526" lon="6.77158">
        <ele>354.2</ele>
        <time>2017-03-26T09:26:39.000Z</time>
      </trkpt>
      <trkpt lat="47.47531" lon="6.7716">
        <ele>352</ele>
        <time>2017-03-26T09:26:40.000Z</time>
      </trkpt>
      <trkpt lat="47.47534" lon="6.7716">
        <ele>350.4</ele>
        <time>2017-03-26T09:26:41.000Z</time>
      </trkpt>
      <trkpt lat="47.47537" lon="6.7716">
        <ele>350.4</ele>
        <time>2017-03-26T09:26:42.000Z</time>
      </trkpt>
      <trkpt lat="47.47541" lon="6.77161">
        <ele>350.4</ele>
        <time>2017-03-26T09:26:43.000Z</time>
      </trkpt>
      <trkpt lat="47.47545" lon="6.77162">
        <ele>350.5</ele>
        <time>2017-03-26T09:26:44.000Z</time>
      </trkpt>
      <trkpt lat="47.4755" lon="6.77163">
        <ele>350.4</ele>
        <time>2017-03-26T09:26:45.000Z</time>
      </trkpt>
      <trkpt lat="47.47557" lon="6.77165">
        <ele>350.9</ele>
        <time>2017-03-26T09:26:46.000Z</time>
      </trkpt>
      <trkpt lat="47.47564" lon="6.77167">
        <ele>351.2</ele>
        <time>2017-03-26T09:26:47.000Z</time>
      </trkpt>
      <trkpt lat="47.4757" lon="6.77169">
        <ele>351.2</ele>
        <time>2017-03-26T09:26:48.000Z</time>
      </trkpt>
      <trkpt lat="47.47574" lon="6.77171">
        <ele>351.9</ele>
        <time>2017-03-26T09:26:49.000Z</time>
      </trkpt>
      <trkpt lat="47.47578" lon="6.77174">
        <ele>351.9</ele>
        <time>2017-03-26T09:26:50.000Z</time>
      </trkpt>
      <trkpt lat="47.47583" lon="6.77177">
        <ele>352.3</ele>
        <time>2017-03-26T09:26:51.000Z</time>
      </trkpt>
      <trkpt lat="47.47587" lon="6.7718">
        <ele>353</ele>
        <time>2017-03-26T09:26:52.000Z</time>
      </trkpt>
      <trkpt lat="47.47592" lon="6.77183">
        <ele>353.8</ele>
        <time>2017-03-26T09:26:53.000Z</time>
      </trkpt>
      <trkpt lat="47.47596" lon="6.77184">
        <ele>354.9</ele>
        <time>2017-03-26T09:26:54.000Z</time>
      </trkpt>
      <trkpt lat="47.476" lon="6.77187">
        <ele>355.6</ele>
        <time>2017-03-26T09:26:55.000Z</time>
      </trkpt>
      <trkpt lat="47.47603" lon="6.7719">
        <ele>355.9</ele>
        <time>2017-03-26T09:26:56.000Z</time>
      </trkpt>
      <trkpt lat="47.47607" lon="6.77189">
        <ele>356</ele>
        <time>2017-03-26T09:26:57.000Z</time>
      </trkpt>
      <trkpt lat="47.47611" lon="6.77187">
        <ele>356</ele>
        <time>2017-03-26T09:26:58.000Z</time>
      </trkpt>
      <trkpt lat="47.47615" lon="6.77182">
        <ele>356.1</ele>
        <time>2017-03-26T09:26:59.000Z</time>
      </trkpt>
      <trkpt lat="47.47618" lon="6.77176">
        <ele>355.4</ele>
        <time>2017-03-26T09:27:00.000Z</time>
      </trkpt>
      <trkpt lat="47.47621" lon="6.7717">
        <ele>355.3</ele>
        <time>2017-03-26T09:27:01.000Z</time>
      </trkpt>
      <trkpt lat="47.47623" lon="6.77166">
        <ele>355.3</ele>
        <time>2017-03-26T09:27:02.000Z</time>
      </trkpt>
      <trkpt lat="47.47625" lon="6.77161">
        <ele>355.3</ele>
        <time>2017-03-26T09:27:03.000Z</time>
      </trkpt>
      <trkpt lat="47.47626" lon="6.77156">
        <ele>355.4</ele>
        <time>2017-03-26T09:27:04.000Z</time>
      </trkpt>
      <trkpt lat="47.47628" lon="6.77151">
        <ele>355.4</ele>
        <time>2017-03-26T09:27:05.000Z</time>
      </trkpt>
      <trkpt lat="47.4763" lon="6.77146">
        <ele>355.5</ele>
        <time>2017-03-26T09:27:06.000Z</time>
      </trkpt>
      <trkpt lat="47.47631" lon="6.77141">
        <ele>355.6</ele>
        <time>2017-03-26T09:27:07.000Z</time>
      </trkpt>
      <trkpt lat="47.47633" lon="6.77137">
        <ele>355.6</ele>
        <time>2017-03-26T09:27:08.000Z</time>
      </trkpt>
      <trkpt lat="47.47633" lon="6.77133">
        <ele>355.8</ele>
        <time>2017-03-26T09:27:09.000Z</time>
      </trkpt>
      <trkpt lat="47.47634" lon="6.77129">
        <ele>355.9</ele>
        <time>2017-03-26T09:27:10.000Z</time>
      </trkpt>
      <trkpt lat="47.47634" lon="6.77126">
        <ele>356</ele>
        <time>2017-03-26T09:27:11.000Z</time>
      </trkpt>
      <trkpt lat="47.47634" lon="6.77122">
        <ele>356.1</ele>
        <time>2017-03-26T09:27:12.000Z</time>
      </trkpt>
      <trkpt lat="47.47635" lon="6.77116">
        <ele>356.3</ele>
        <time>2017-03-26T09:27:13.000Z</time>
      </trkpt>
      <trkpt lat="47.47636" lon="6.77111">
        <ele>356.5</ele>
        <time>2017-03-26T09:27:14.000Z</time>
      </trkpt>
      <trkpt lat="47.47636" lon="6.77106">
        <ele>356.6</ele>
        <time>2017-03-26T09:27:15.000Z</time>
      </trkpt>
      <trkpt lat="47.47636" lon="6.77102">
        <ele>356.7</ele>
        <time>2017-03-26T09:27:16.000Z</time>
      </trkpt>
      <trkpt lat="47.47637" lon="6.77096">
        <ele>356.9</ele>
        <time>2017-03-26T09:27:17.000Z</time>
      </trkpt>
      <trkpt lat="47.47637" lon="6.77094">
        <ele>357</ele>
        <time>2017-03-26T09:27:18.000Z</time>
      </trkpt>
      <trkpt lat="47.47637" lon="6.77089">
        <ele>357</ele>
        <time>2017-03-26T09:27:19.000Z</time>
      </trkpt>
      <trkpt lat="47.47638" lon="6.77085">
        <ele>357.2</ele>
        <time>2017-03-26T09:27:20.000Z</time>
      </trkpt>
      <trkpt lat="47.47639" lon="6.77082">
        <ele>357.3</ele>
        <time>2017-03-26T09:27:21.000Z</time>
      </trkpt>
      <trkpt lat="47.4764" lon="6.77076">
        <ele>357.7</ele>
        <time>2017-03-26T09:27:23.000Z</time>
      </trkpt>
      <trkpt lat="47.47641" lon="6.77072">
        <ele>357.8</ele>
        <time>2017-03-26T09:27:24.000Z</time>
      </trkpt>
      <trkpt lat="47.47642" lon="6.77066">
        <ele>357.9</ele>
        <time>2017-03-26T09:27:25.000Z</time>
      </trkpt>
      <trkpt lat="47.47643" lon="6.77062">
        <ele>358</ele>
        <time>2017-03-26T09:27:26.000Z</time>
      </trkpt>
      <trkpt lat="47.47643" lon="6.77059">
        <ele>358</ele>
        <time>2017-03-26T09:27:27.000Z</time>
      </trkpt>
      <trkpt lat="47.47644" lon="6.77055">
        <ele>358</ele>
        <time>2017-03-26T09:27:28.000Z</time>
      </trkpt>
      <trkpt lat="47.47645" lon="6.77049">
        <ele>358</ele>
        <time>2017-03-26T09:27:29.000Z</time>
      </trkpt>
      <trkpt lat="47.47645" lon="6.77044">
        <ele>358</ele>
        <time>2017-03-26T09:27:30.000Z</time>
      </trkpt>
      <trkpt lat="47.47644" lon="6.77039">
        <ele>358</ele>
        <time>2017-03-26T09:27:31.000Z</time>
      </trkpt>
      <trkpt lat="47.47645" lon="6.77035">
        <ele>357.4</ele>
        <time>2017-03-26T09:27:32.000Z</time>
      </trkpt>
      <trkpt lat="47.47645" lon="6.77027">
        <ele>357.1</ele>
        <time>2017-03-26T09:27:33.000Z</time>
      </trkpt>
      <trkpt lat="47.47646" lon="6.77018">
        <ele>356.6</ele>
        <time>2017-03-26T09:27:34.000Z</time>
      </trkpt>
      <trkpt lat="47.47646" lon="6.77009">
        <ele>356.9</ele>
        <time>2017-03-26T09:27:35.000Z</time>
      </trkpt>
      <trkpt lat="47.47648" lon="6.77">
        <ele>356.4</ele>
        <time>2017-03-26T09:27:36.000Z</time>
      </trkpt>
      <trkpt lat="47.47651" lon="6.76994">
        <ele>356.9</ele>
        <time>2017-03-26T09:27:37.000Z</time>
      </trkpt>
      <trkpt lat="47.47655" lon="6.76986">
        <ele>357.3</ele>
        <time>2017-03-26T09:27:38.000Z</time>
      </trkpt>
      <trkpt lat="47.47659" lon="6.76978">
        <ele>357.9</ele>
        <time>2017-03-26T09:27:39.000Z</time>
      </trkpt>
      <trkpt lat="47.47663" lon="6.76968">
        <ele>357.9</ele>
        <time>2017-03-26T09:27:40.000Z</time>
      </trkpt>
      <trkpt lat="47.47667" lon="6.76958">
        <ele>357</ele>
        <time>2017-03-26T09:27:41.000Z</time>
      </trkpt>
      <trkpt lat="47.47671" lon="6.76949">
        <ele>355.6</ele>
        <time>2017-03-26T09:27:42.000Z</time>
      </trkpt>
      <trkpt lat="47.47674" lon="6.7694">
        <ele>354.4</ele>
        <time>2017-03-26T09:27:43.000Z</time>
      </trkpt>
      <trkpt lat="47.47676" lon="6.76933">
        <ele>353.4</ele>
        <time>2017-03-26T09:27:44.000Z</time>
      </trkpt>
      <trkpt lat="47.47679" lon="6.76926">
        <ele>352.7</ele>
        <time>2017-03-26T09:27:45.000Z</time>
      </trkpt>
      <trkpt lat="47.47682" lon="6.76919">
        <ele>352.4</ele>
        <time>2017-03-26T09:27:46.000Z</time>
      </trkpt>
      <trkpt lat="47.47684" lon="6.76913">
        <ele>351.6</ele>
        <time>2017-03-26T09:27:47.000Z</time>
      </trkpt>
      <trkpt lat="47.47685" lon="6.76905">
        <ele>351.1</ele>
        <time>2017-03-26T09:27:48.000Z</time>
      </trkpt>
      <trkpt lat="47.47687" lon="6.76899">
        <ele>351</ele>
        <time>2017-03-26T09:27:49.000Z</time>
      </trkpt>
      <trkpt lat="47.47689" lon="6.76892">
        <ele>351.3</ele>
        <time>2017-03-26T09:27:50.000Z</time>
      </trkpt>
      <trkpt lat="47.47692" lon="6.76884">
        <ele>351.2</ele>
        <time>2017-03-26T09:27:51.000Z</time>
      </trkpt>
      <trkpt lat="47.47696" lon="6.76878">
        <ele>350.3</ele>
        <time>2017-03-26T09:27:52.000Z</time>
      </trkpt>
      <trkpt lat="47.47699" lon="6.76872">
        <ele>350.3</ele>
        <time>2017-03-26T09:27:53.000Z</time>
      </trkpt>
      <trkpt lat="47.47701" lon="6.76866">
        <ele>350.4</ele>
        <time>2017-03-26T09:27:54.000Z</time>
      </trkpt>
      <trkpt lat="47.47703" lon="6.76861">
        <ele>350.3</ele>
        <time>2017-03-26T09:27:55.000Z</time>
      </trkpt>
      <trkpt lat="47.47704" lon="6.76852">
        <ele>350.2</ele>
        <time>2017-03-26T09:27:56.000Z</time>
      </trkpt>
      <trkpt lat="47.47707" lon="6.76844">
        <ele>350.3</ele>
        <time>2017-03-26T09:27:57.000Z</time>
      </trkpt>
      <trkpt lat="47.4771" lon="6.76837">
        <ele>349.8</ele>
        <time>2017-03-26T09:27:58.000Z</time>
      </trkpt>
      <trkpt lat="47.47714" lon="6.76829">
        <ele>349.2</ele>
        <time>2017-03-26T09:27:59.000Z</time>
      </trkpt>
      <trkpt lat="47.47718" lon="6.76821">
        <ele>349.4</ele>
        <time>2017-03-26T09:28:00.000Z</time>
      </trkpt>
      <trkpt lat="47.47721" lon="6.76814">
        <ele>349.5</ele>
        <time>2017-03-26T09:28:01.000Z</time>
      </trkpt>
      <trkpt lat="47.47724" lon="6.76807">
        <ele>350.2</ele>
        <time>2017-03-26T09:28:02.000Z</time>
      </trkpt>
      <trkpt lat="47.47728" lon="6.76803">
        <ele>351.2</ele>
        <time>2017-03-26T09:28:03.000Z</time>
      </trkpt>
      <trkpt lat="47.47731" lon="6.768">
        <ele>352.2</ele>
        <time>2017-03-26T09:28:04.000Z</time>
      </trkpt>
      <trkpt lat="47.47735" lon="6.76798">
        <ele>353.2</ele>
        <time>2017-03-26T09:28:05.000Z</time>
      </trkpt>
      <trkpt lat="47.47738" lon="6.76797">
        <ele>353.3</ele>
        <time>2017-03-26T09:28:06.000Z</time>
      </trkpt>
      <trkpt lat="47.47741" lon="6.76796">
        <ele>353.3</ele>
        <time>2017-03-26T09:28:07.000Z</time>
      </trkpt>
      <trkpt lat="47.47745" lon="6.76796">
        <ele>353.3</ele>
        <time>2017-03-26T09:28:08.000Z</time>
      </trkpt>
      <trkpt lat="47.47748" lon="6.76795">
        <ele>353.4</ele>
        <time>2017-03-26T09:28:09.000Z</time>
      </trkpt>
      <trkpt lat="47.47751" lon="6.76795">
        <ele>353.5</ele>
        <time>2017-03-26T09:28:10.000Z</time>
      </trkpt>
      <trkpt lat="47.47756" lon="6.76795">
        <ele>353.7</ele>
        <time>2017-03-26T09:28:11.000Z</time>
      </trkpt>
      <trkpt lat="47.47762" lon="6.76796">
        <ele>353.8</ele>
        <time>2017-03-26T09:28:12.000Z</time>
      </trkpt>
      <trkpt lat="47.47768" lon="6.76797">
        <ele>355.5</ele>
        <time>2017-03-26T09:28:13.000Z</time>
      </trkpt>
      <trkpt lat="47.47773" lon="6.76798">
        <ele>356.9</ele>
        <time>2017-03-26T09:28:14.000Z</time>
      </trkpt>
      <trkpt lat="47.47779" lon="6.768">
        <ele>357.8</ele>
        <time>2017-03-26T09:28:15.000Z</time>
      </trkpt>
      <trkpt lat="47.47784" lon="6.76802">
        <ele>358.2</ele>
        <time>2017-03-26T09:28:16.000Z</time>
      </trkpt>
      <trkpt lat="47.47789" lon="6.76805">
        <ele>358.2</ele>
        <time>2017-03-26T09:28:17.000Z</time>
      </trkpt>
      <trkpt lat="47.47794" lon="6.76808">
        <ele>358</ele>
        <time>2017-03-26T09:28:18.000Z</time>
      </trkpt>
      <trkpt lat="47.47798" lon="6.7681">
        <ele>358.2</ele>
        <time>2017-03-26T09:28:19.000Z</time>
      </trkpt>
      <trkpt lat="47.47803" lon="6.76812">
        <ele>357.8</ele>
        <time>2017-03-26T09:28:20.000Z</time>
      </trkpt>
      <trkpt lat="47.47808" lon="6.76813">
        <ele>357.9</ele>
        <time>2017-03-26T09:28:21.000Z</time>
      </trkpt>
      <trkpt lat="47.47813" lon="6.76815">
        <ele>358</ele>
        <time>2017-03-26T09:28:22.000Z</time>
      </trkpt>
      <trkpt lat="47.47817" lon="6.76816">
        <ele>357.9</ele>
        <time>2017-03-26T09:28:23.000Z</time>
      </trkpt>
      <trkpt lat="47.47822" lon="6.76814">
        <ele>358.3</ele>
        <time>2017-03-26T09:28:24.000Z</time>
      </trkpt>
      <trkpt lat="47.47828" lon="6.76812">
        <ele>358.5</ele>
        <time>2017-03-26T09:28:25.000Z</time>
      </trkpt>
      <trkpt lat="47.47833" lon="6.76806">
        <ele>358.7</ele>
        <time>2017-03-26T09:28:26.000Z</time>
      </trkpt>
      <trkpt lat="47.47836" lon="6.768">
        <ele>358.6</ele>
        <time>2017-03-26T09:28:27.000Z</time>
      </trkpt>
      <trkpt lat="47.47839" lon="6.76795">
        <ele>357.8</ele>
        <time>2017-03-26T09:28:28.000Z</time>
      </trkpt>
      <trkpt lat="47.47842" lon="6.76789">
        <ele>357.4</ele>
        <time>2017-03-26T09:28:29.000Z</time>
      </trkpt>
      <trkpt lat="47.47844" lon="6.76781">
        <ele>357.3</ele>
        <time>2017-03-26T09:28:30.000Z</time>
      </trkpt>
      <trkpt lat="47.47847" lon="6.76773">
        <ele>357.4</ele>
        <time>2017-03-26T09:28:31.000Z</time>
      </trkpt>
      <trkpt lat="47.4785" lon="6.76764">
        <ele>357.1</ele>
        <time>2017-03-26T09:28:32.000Z</time>
      </trkpt>
      <trkpt lat="47.47853" lon="6.76758">
        <ele>357.4</ele>
        <time>2017-03-26T09:28:33.000Z</time>
      </trkpt>
      <trkpt lat="47.47856" lon="6.7675">
        <ele>357.8</ele>
        <time>2017-03-26T09:28:34.000Z</time>
      </trkpt>
      <trkpt lat="47.47859" lon="6.76743">
        <ele>357.5</ele>
        <time>2017-03-26T09:28:35.000Z</time>
      </trkpt>
      <trkpt lat="47.47862" lon="6.76737">
        <ele>357.7</ele>
        <time>2017-03-26T09:28:36.000Z</time>
      </trkpt>
      <trkpt lat="47.47865" lon="6.76731">
        <ele>358.3</ele>
        <time>2017-03-26T09:28:37.000Z</time>
      </trkpt>
      <trkpt lat="47.47868" lon="6.76726">
        <ele>357.6</ele>
        <time>2017-03-26T09:28:38.000Z</time>
      </trkpt>
      <trkpt lat="47.47872" lon="6.76719">
        <ele>357.5</ele>
        <time>2017-03-26T09:28:39.000Z</time>
      </trkpt>
      <trkpt lat="47.47875" lon="6.76713">
        <ele>357.2</ele>
        <time>2017-03-26T09:28:40.000Z</time>
      </trkpt>
      <trkpt lat="47.47878" lon="6.76706">
        <ele>357.6</ele>
        <time>2017-03-26T09:28:41.000Z</time>
      </trkpt>
      <trkpt lat="47.47882" lon="6.76699">
        <ele>358.2</ele>
        <time>2017-03-26T09:28:42.000Z</time>
      </trkpt>
      <trkpt lat="47.47885" lon="6.76693">
        <ele>358.1</ele>
        <time>2017-03-26T09:28:43.000Z</time>
      </trkpt>
      <trkpt lat="47.47888" lon="6.76686">
        <ele>357.5</ele>
        <time>2017-03-26T09:28:44.000Z</time>
      </trkpt>
      <trkpt lat="47.4789" lon="6.7668">
        <ele>356.7</ele>
        <time>2017-03-26T09:28:45.000Z</time>
      </trkpt>
      <trkpt lat="47.47894" lon="6.76673">
        <ele>355.7</ele>
        <time>2017-03-26T09:28:46.000Z</time>
      </trkpt>
      <trkpt lat="47.47898" lon="6.76667">
        <ele>355.4</ele>
        <time>2017-03-26T09:28:47.000Z</time>
      </trkpt>
      <trkpt lat="47.47901" lon="6.76662">
        <ele>355.7</ele>
        <time>2017-03-26T09:28:48.000Z</time>
      </trkpt>
      <trkpt lat="47.47905" lon="6.76655">
        <ele>355.9</ele>
        <time>2017-03-26T09:28:49.000Z</time>
      </trkpt>
      <trkpt lat="47.47909" lon="6.76651">
        <ele>356.9</ele>
        <time>2017-03-26T09:28:50.000Z</time>
      </trkpt>
      <trkpt lat="47.47914" lon="6.76648">
        <ele>358.4</ele>
        <time>2017-03-26T09:28:51.000Z</time>
      </trkpt>
      <trkpt lat="47.47917" lon="6.76646">
        <ele>359.2</ele>
        <time>2017-03-26T09:28:52.000Z</time>
      </trkpt>
      <trkpt lat="47.47921" lon="6.76642">
        <ele>360.2</ele>
        <time>2017-03-26T09:28:53.000Z</time>
      </trkpt>
      <trkpt lat="47.47925" lon="6.76638">
        <ele>360.6</ele>
        <time>2017-03-26T09:28:54.000Z</time>
      </trkpt>
      <trkpt lat="47.4793" lon="6.76635">
        <ele>360.4</ele>
        <time>2017-03-26T09:28:55.000Z</time>
      </trkpt>
      <trkpt lat="47.47933" lon="6.76633">
        <ele>359.6</ele>
        <time>2017-03-26T09:28:56.000Z</time>
      </trkpt>
      <trkpt lat="47.47935" lon="6.76632">
        <ele>359.5</ele>
        <time>2017-03-26T09:28:57.000Z</time>
      </trkpt>
      <trkpt lat="47.47938" lon="6.76631">
        <ele>359.5</ele>
        <time>2017-03-26T09:28:58.000Z</time>
      </trkpt>
      <trkpt lat="47.47942" lon="6.76629">
        <ele>359.3</ele>
        <time>2017-03-26T09:28:59.000Z</time>
      </trkpt>
      <trkpt lat="47.47947" lon="6.76626">
        <ele>359.1</ele>
        <time>2017-03-26T09:29:00.000Z</time>
      </trkpt>
      <trkpt lat="47.47951" lon="6.76624">
        <ele>358.9</ele>
        <time>2017-03-26T09:29:01.000Z</time>
      </trkpt>
      <trkpt lat="47.47955" lon="6.76623">
        <ele>358.8</ele>
        <time>2017-03-26T09:29:02.000Z</time>
      </trkpt>
      <trkpt lat="47.4796" lon="6.7662">
        <ele>358.8</ele>
        <time>2017-03-26T09:29:03.000Z</time>
      </trkpt>
      <trkpt lat="47.47963" lon="6.76619">
        <ele>358.8</ele>
        <time>2017-03-26T09:29:04.000Z</time>
      </trkpt>
      <trkpt lat="47.47967" lon="6.76617">
        <ele>357.6</ele>
        <time>2017-03-26T09:29:05.000Z</time>
      </trkpt>
      <trkpt lat="47.47971" lon="6.76615">
        <ele>357.6</ele>
        <time>2017-03-26T09:29:06.000Z</time>
      </trkpt>
      <trkpt lat="47.47975" lon="6.76613">
        <ele>357.3</ele>
        <time>2017-03-26T09:29:07.000Z</time>
      </trkpt>
      <trkpt lat="47.4798" lon="6.7661">
        <ele>357.4</ele>
        <time>2017-03-26T09:29:08.000Z</time>
      </trkpt>
      <trkpt lat="47.47984" lon="6.76608">
        <ele>357.3</ele>
        <time>2017-03-26T09:29:09.000Z</time>
      </trkpt>
      <trkpt lat="47.47987" lon="6.76605">
        <ele>357.3</ele>
        <time>2017-03-26T09:29:10.000Z</time>
      </trkpt>
      <trkpt lat="47.47992" lon="6.76602">
        <ele>357.4</ele>
        <time>2017-03-26T09:29:11.000Z</time>
      </trkpt>
      <trkpt lat="47.47996" lon="6.76599">
        <ele>357.4</ele>
        <time>2017-03-26T09:29:12.000Z</time>
      </trkpt>
      <trkpt lat="47.47999" lon="6.76596">
        <ele>357.5</ele>
        <time>2017-03-26T09:29:13.000Z</time>
      </trkpt>
      <trkpt lat="47.48003" lon="6.76593">
        <ele>357.6</ele>
        <time>2017-03-26T09:29:14.000Z</time>
      </trkpt>
      <trkpt lat="47.48007" lon="6.76591">
        <ele>359.3</ele>
        <time>2017-03-26T09:29:15.000Z</time>
      </trkpt>
      <trkpt lat="47.4801" lon="6.7659">
        <ele>359.5</ele>
        <time>2017-03-26T09:29:16.000Z</time>
      </trkpt>
      <trkpt lat="47.48014" lon="6.76589">
        <ele>360.2</ele>
        <time>2017-03-26T09:29:17.000Z</time>
      </trkpt>
      <trkpt lat="47.48017" lon="6.76587">
        <ele>360.2</ele>
        <time>2017-03-26T09:29:18.000Z</time>
      </trkpt>
      <trkpt lat="47.4802" lon="6.76584">
        <ele>360.2</ele>
        <time>2017-03-26T09:29:19.000Z</time>
      </trkpt>
      <trkpt lat="47.48023" lon="6.76581">
        <ele>359.5</ele>
        <time>2017-03-26T09:29:20.000Z</time>
      </trkpt>
      <trkpt lat="47.48025" lon="6.76578">
        <ele>359.2</ele>
        <time>2017-03-26T09:29:21.000Z</time>
      </trkpt>
      <trkpt lat="47.48027" lon="6.76576">
        <ele>359.2</ele>
        <time>2017-03-26T09:29:22.000Z</time>
      </trkpt>
      <trkpt lat="47.48031" lon="6.76572">
        <ele>357.9</ele>
        <time>2017-03-26T09:29:23.000Z</time>
      </trkpt>
      <trkpt lat="47.48036" lon="6.76568">
        <ele>357.9</ele>
        <time>2017-03-26T09:29:24.000Z</time>
      </trkpt>
      <trkpt lat="47.48041" lon="6.76564">
        <ele>357.8</ele>
        <time>2017-03-26T09:29:25.000Z</time>
      </trkpt>
      <trkpt lat="47.48046" lon="6.76559">
        <ele>356.4</ele>
        <time>2017-03-26T09:29:26.000Z</time>
      </trkpt>
      <trkpt lat="47.48052" lon="6.76554">
        <ele>354.5</ele>
        <time>2017-03-26T09:29:27.000Z</time>
      </trkpt>
      <trkpt lat="47.48057" lon="6.76549">
        <ele>352.5</ele>
        <time>2017-03-26T09:29:28.000Z</time>
      </trkpt>
      <trkpt lat="47.48061" lon="6.76546">
        <ele>351.2</ele>
        <time>2017-03-26T09:29:29.000Z</time>
      </trkpt>
      <trkpt lat="47.48066" lon="6.76542">
        <ele>348.7</ele>
        <time>2017-03-26T09:29:30.000Z</time>
      </trkpt>
      <trkpt lat="47.48071" lon="6.76537">
        <ele>347</ele>
        <time>2017-03-26T09:29:31.000Z</time>
      </trkpt>
      <trkpt lat="47.48075" lon="6.76533">
        <ele>346.9</ele>
        <time>2017-03-26T09:29:32.000Z</time>
      </trkpt>
      <trkpt lat="47.48078" lon="6.76529">
        <ele>346.8</ele>
        <time>2017-03-26T09:29:33.000Z</time>
      </trkpt>
      <trkpt lat="47.48082" lon="6.76525">
        <ele>345.2</ele>
        <time>2017-03-26T09:29:34.000Z</time>
      </trkpt>
      <trkpt lat="47.48086" lon="6.7652">
        <ele>345</ele>
        <time>2017-03-26T09:29:35.000Z</time>
      </trkpt>
      <trkpt lat="47.4809" lon="6.76516">
        <ele>342.9</ele>
        <time>2017-03-26T09:29:36.000Z</time>
      </trkpt>
      <trkpt lat="47.48093" lon="6.76512">
        <ele>342.7</ele>
        <time>2017-03-26T09:29:37.000Z</time>
      </trkpt>
      <trkpt lat="47.48097" lon="6.76509">
        <ele>342.4</ele>
        <time>2017-03-26T09:29:39.000Z</time>
      </trkpt>
      <trkpt lat="47.481" lon="6.76516">
        <ele>342.2</ele>
        <time>2017-03-26T09:29:40.000Z</time>
      </trkpt>
      <trkpt lat="47.48103" lon="6.76522">
        <ele>342</ele>
        <time>2017-03-26T09:29:41.000Z</time>
      </trkpt>
      <trkpt lat="47.48108" lon="6.76532">
        <ele>341.9</ele>
        <time>2017-03-26T09:29:42.000Z</time>
      </trkpt>
      <trkpt lat="47.48113" lon="6.76538">
        <ele>341.9</ele>
        <time>2017-03-26T09:29:43.000Z</time>
      </trkpt>
      <trkpt lat="47.48116" lon="6.76542">
        <ele>342.1</ele>
        <time>2017-03-26T09:29:44.000Z</time>
      </trkpt>
      <trkpt lat="47.48115" lon="6.76549">
        <ele>342.3</ele>
        <time>2017-03-26T09:29:45.000Z</time>
      </trkpt>
      <trkpt lat="47.48113" lon="6.76554">
        <ele>341.9</ele>
        <time>2017-03-26T09:29:46.000Z</time>
      </trkpt>
      <trkpt lat="47.48112" lon="6.76558">
        <ele>342.2</ele>
        <time>2017-03-26T09:29:47.000Z</time>
      </trkpt>
      <trkpt lat="47.4811" lon="6.76565">
        <ele>342</ele>
        <time>2017-03-26T09:29:48.000Z</time>
      </trkpt>
      <trkpt lat="47.48108" lon="6.76573">
        <ele>341</ele>
        <time>2017-03-26T09:29:49.000Z</time>
      </trkpt>
      <trkpt lat="47.48106" lon="6.76581">
        <ele>340.9</ele>
        <time>2017-03-26T09:29:50.000Z</time>
      </trkpt>
      <trkpt lat="47.48103" lon="6.76589">
        <ele>340.8</ele>
        <time>2017-03-26T09:29:51.000Z</time>
      </trkpt>
      <trkpt lat="47.481" lon="6.76598">
        <ele>340.8</ele>
        <time>2017-03-26T09:29:52.000Z</time>
      </trkpt>
      <trkpt lat="47.481" lon="6.76605">
        <ele>341</ele>
        <time>2017-03-26T09:29:53.000Z</time>
      </trkpt>
      <trkpt lat="47.48101" lon="6.76614">
        <ele>341</ele>
        <time>2017-03-26T09:29:54.000Z</time>
      </trkpt>
      <trkpt lat="47.48103" lon="6.7662">
        <ele>341.2</ele>
        <time>2017-03-26T09:29:55.000Z</time>
      </trkpt>
      <trkpt lat="47.48104" lon="6.76627">
        <ele>341.3</ele>
        <time>2017-03-26T09:29:56.000Z</time>
      </trkpt>
      <trkpt lat="47.48106" lon="6.76632">
        <ele>341.6</ele>
        <time>2017-03-26T09:29:57.000Z</time>
      </trkpt>
      <trkpt lat="47.48109" lon="6.76638">
        <ele>344.3</ele>
        <time>2017-03-26T09:29:58.000Z</time>
      </trkpt>
      <trkpt lat="47.48112" lon="6.76644">
        <ele>345.9</ele>
        <time>2017-03-26T09:29:59.000Z</time>
      </trkpt>
      <trkpt lat="47.48117" lon="6.76652">
        <ele>347.6</ele>
        <time>2017-03-26T09:30:00.000Z</time>
      </trkpt>
      <trkpt lat="47.4812" lon="6.76659">
        <ele>348.5</ele>
        <time>2017-03-26T09:30:01.000Z</time>
      </trkpt>
      <trkpt lat="47.48123" lon="6.76666">
        <ele>348.7</ele>
        <time>2017-03-26T09:30:02.000Z</time>
      </trkpt>
      <trkpt lat="47.48126" lon="6.76673">
        <ele>348.6</ele>
        <time>2017-03-26T09:30:03.000Z</time>
      </trkpt>
      <trkpt lat="47.48129" lon="6.7668">
        <ele>349.5</ele>
        <time>2017-03-26T09:30:04.000Z</time>
      </trkpt>
      <trkpt lat="47.48133" lon="6.76687">
        <ele>349.5</ele>
        <time>2017-03-26T09:30:05.000Z</time>
      </trkpt>
      <trkpt lat="47.48136" lon="6.76695">
        <ele>348.8</ele>
        <time>2017-03-26T09:30:06.000Z</time>
      </trkpt>
      <trkpt lat="47.48138" lon="6.76701">
        <ele>348</ele>
        <time>2017-03-26T09:30:07.000Z</time>
      </trkpt>
      <trkpt lat="47.4814" lon="6.76707">
        <ele>347.2</ele>
        <time>2017-03-26T09:30:08.000Z</time>
      </trkpt>
      <trkpt lat="47.48143" lon="6.76714">
        <ele>347.1</ele>
        <time>2017-03-26T09:30:09.000Z</time>
      </trkpt>
      <trkpt lat="47.48146" lon="6.76722">
        <ele>347.7</ele>
        <time>2017-03-26T09:30:10.000Z</time>
      </trkpt>
      <trkpt lat="47.48149" lon="6.76729">
        <ele>347.6</ele>
        <time>2017-03-26T09:30:11.000Z</time>
      </trkpt>
      <trkpt lat="47.48152" lon="6.76736">
        <ele>347.3</ele>
        <time>2017-03-26T09:30:12.000Z</time>
      </trkpt>
      <trkpt lat="47.48155" lon="6.76741">
        <ele>347.3</ele>
        <time>2017-03-26T09:30:13.000Z</time>
      </trkpt>
      <trkpt lat="47.48158" lon="6.76746">
        <ele>347.2</ele>
        <time>2017-03-26T09:30:14.000Z</time>
      </trkpt>
      <trkpt lat="47.48162" lon="6.76752">
        <ele>347.5</ele>
        <time>2017-03-26T09:30:15.000Z</time>
      </trkpt>
      <trkpt lat="47.48166" lon="6.76757">
        <ele>347.5</ele>
        <time>2017-03-26T09:30:16.000Z</time>
      </trkpt>
      <trkpt lat="47.48169" lon="6.76762">
        <ele>347.1</ele>
        <time>2017-03-26T09:30:17.000Z</time>
      </trkpt>
      <trkpt lat="47.48173" lon="6.76768">
        <ele>347.9</ele>
        <time>2017-03-26T09:30:18.000Z</time>
      </trkpt>
      <trkpt lat="47.48178" lon="6.76773">
        <ele>348.2</ele>
        <time>2017-03-26T09:30:19.000Z</time>
      </trkpt>
      <trkpt lat="47.48184" lon="6.76778">
        <ele>347.6</ele>
        <time>2017-03-26T09:30:20.000Z</time>
      </trkpt>
      <trkpt lat="47.48189" lon="6.76781">
        <ele>346.8</ele>
        <time>2017-03-26T09:30:21.000Z</time>
      </trkpt>
      <trkpt lat="47.48194" lon="6.76785">
        <ele>346.8</ele>
        <time>2017-03-26T09:30:22.000Z</time>
      </trkpt>
      <trkpt lat="47.48199" lon="6.76788">
        <ele>347</ele>
        <time>2017-03-26T09:30:23.000Z</time>
      </trkpt>
      <trkpt lat="47.48204" lon="6.76792">
        <ele>347.3</ele>
        <time>2017-03-26T09:30:24.000Z</time>
      </trkpt>
      <trkpt lat="47.48209" lon="6.76795">
        <ele>347.6</ele>
        <time>2017-03-26T09:30:25.000Z</time>
      </trkpt>
      <trkpt lat="47.48214" lon="6.76796">
        <ele>347.4</ele>
        <time>2017-03-26T09:30:26.000Z</time>
      </trkpt>
      <trkpt lat="47.48218" lon="6.76798">
        <ele>347.1</ele>
        <time>2017-03-26T09:30:27.000Z</time>
      </trkpt>
      <trkpt lat="47.48224" lon="6.76799">
        <ele>346.5</ele>
        <time>2017-03-26T09:30:28.000Z</time>
      </trkpt>
      <trkpt lat="47.48229" lon="6.768">
        <ele>344.9</ele>
        <time>2017-03-26T09:30:29.000Z</time>
      </trkpt>
      <trkpt lat="47.48234" lon="6.76802">
        <ele>343.6</ele>
        <time>2017-03-26T09:30:30.000Z</time>
      </trkpt>
      <trkpt lat="47.48238" lon="6.76805">
        <ele>342.4</ele>
        <time>2017-03-26T09:30:31.000Z</time>
      </trkpt>
      <trkpt lat="47.48242" lon="6.76808">
        <ele>341.9</ele>
        <time>2017-03-26T09:30:32.000Z</time>
      </trkpt>
      <trkpt lat="47.48246" lon="6.76812">
        <ele>341.3</ele>
        <time>2017-03-26T09:30:33.000Z</time>
      </trkpt>
      <trkpt lat="47.48252" lon="6.76816">
        <ele>342.2</ele>
        <time>2017-03-26T09:30:34.000Z</time>
      </trkpt>
      <trkpt lat="47.48256" lon="6.76823">
        <ele>343.1</ele>
        <time>2017-03-26T09:30:35.000Z</time>
      </trkpt>
      <trkpt lat="47.48261" lon="6.7683">
        <ele>345.4</ele>
        <time>2017-03-26T09:30:36.000Z</time>
      </trkpt>
      <trkpt lat="47.48267" lon="6.76837">
        <ele>347.6</ele>
        <time>2017-03-26T09:30:37.000Z</time>
      </trkpt>
      <trkpt lat="47.48271" lon="6.76844">
        <ele>349.5</ele>
        <time>2017-03-26T09:30:38.000Z</time>
      </trkpt>
      <trkpt lat="47.48275" lon="6.76851">
        <ele>351.1</ele>
        <time>2017-03-26T09:30:39.000Z</time>
      </trkpt>
      <trkpt lat="47.48279" lon="6.76857">
        <ele>352.4</ele>
        <time>2017-03-26T09:30:40.000Z</time>
      </trkpt>
      <trkpt lat="47.48282" lon="6.76864">
        <ele>352.5</ele>
        <time>2017-03-26T09:30:41.000Z</time>
      </trkpt>
      <trkpt lat="47.48286" lon="6.7687">
        <ele>353.4</ele>
        <time>2017-03-26T09:30:42.000Z</time>
      </trkpt>
      <trkpt lat="47.4829" lon="6.76876">
        <ele>353.8</ele>
        <time>2017-03-26T09:30:43.000Z</time>
      </trkpt>
      <trkpt lat="47.48293" lon="6.7688">
        <ele>353.1</ele>
        <time>2017-03-26T09:30:44.000Z</time>
      </trkpt>
      <trkpt lat="47.48297" lon="6.76884">
        <ele>352.2</ele>
        <time>2017-03-26T09:30:45.000Z</time>
      </trkpt>
      <trkpt lat="47.48301" lon="6.76888">
        <ele>351.3</ele>
        <time>2017-03-26T09:30:46.000Z</time>
      </trkpt>
      <trkpt lat="47.48306" lon="6.76892">
        <ele>351.6</ele>
        <time>2017-03-26T09:30:47.000Z</time>
      </trkpt>
      <trkpt lat="47.48311" lon="6.76896">
        <ele>351.7</ele>
        <time>2017-03-26T09:30:48.000Z</time>
      </trkpt>
      <trkpt lat="47.48315" lon="6.76899">
        <ele>350.8</ele>
        <time>2017-03-26T09:30:49.000Z</time>
      </trkpt>
      <trkpt lat="47.4832" lon="6.76903">
        <ele>350.4</ele>
        <time>2017-03-26T09:30:50.000Z</time>
      </trkpt>
      <trkpt lat="47.48324" lon="6.76907">
        <ele>350.1</ele>
        <time>2017-03-26T09:30:51.000Z</time>
      </trkpt>
      <trkpt lat="47.48328" lon="6.7691">
        <ele>349.1</ele>
        <time>2017-03-26T09:30:52.000Z</time>
      </trkpt>
      <trkpt lat="47.48333" lon="6.76913">
        <ele>349.4</ele>
        <time>2017-03-26T09:30:53.000Z</time>
      </trkpt>
      <trkpt lat="47.48336" lon="6.76915">
        <ele>349.2</ele>
        <time>2017-03-26T09:30:54.000Z</time>
      </trkpt>
      <trkpt lat="47.48341" lon="6.76918">
        <ele>349.8</ele>
        <time>2017-03-26T09:30:55.000Z</time>
      </trkpt>
      <trkpt lat="47.48346" lon="6.76921">
        <ele>350.2</ele>
        <time>2017-03-26T09:30:56.000Z</time>
      </trkpt>
      <trkpt lat="47.48351" lon="6.76923">
        <ele>349.7</ele>
        <time>2017-03-26T09:30:57.000Z</time>
      </trkpt>
      <trkpt lat="47.48355" lon="6.76925">
        <ele>348.9</ele>
        <time>2017-03-26T09:30:58.000Z</time>
      </trkpt>
      <trkpt lat="47.4836" lon="6.76928">
        <ele>347.5</ele>
        <time>2017-03-26T09:30:59.000Z</time>
      </trkpt>
      <trkpt lat="47.48365" lon="6.76932">
        <ele>347.3</ele>
        <time>2017-03-26T09:31:00.000Z</time>
      </trkpt>
      <trkpt lat="47.48371" lon="6.76935">
        <ele>347.5</ele>
        <time>2017-03-26T09:31:01.000Z</time>
      </trkpt>
      <trkpt lat="47.48376" lon="6.76939">
        <ele>348.4</ele>
        <time>2017-03-26T09:31:02.000Z</time>
      </trkpt>
      <trkpt lat="47.4838" lon="6.76941">
        <ele>348.6</ele>
        <time>2017-03-26T09:31:03.000Z</time>
      </trkpt>
      <trkpt lat="47.48385" lon="6.76944">
        <ele>348.7</ele>
        <time>2017-03-26T09:31:04.000Z</time>
      </trkpt>
      <trkpt lat="47.48389" lon="6.76947">
        <ele>348.7</ele>
        <time>2017-03-26T09:31:05.000Z</time>
      </trkpt>
      <trkpt lat="47.48394" lon="6.76949">
        <ele>349.1</ele>
        <time>2017-03-26T09:31:06.000Z</time>
      </trkpt>
      <trkpt lat="47.48399" lon="6.76952">
        <ele>349.2</ele>
        <time>2017-03-26T09:31:07.000Z</time>
      </trkpt>
      <trkpt lat="47.48404" lon="6.76955">
        <ele>349.8</ele>
        <time>2017-03-26T09:31:08.000Z</time>
      </trkpt>
      <trkpt lat="47.48409" lon="6.76958">
        <ele>349.9</ele>
        <time>2017-03-26T09:31:09.000Z</time>
      </trkpt>
      <trkpt lat="47.48413" lon="6.7696">
        <ele>350.4</ele>
        <time>2017-03-26T09:31:10.000Z</time>
      </trkpt>
      <trkpt lat="47.48417" lon="6.76962">
        <ele>350.5</ele>
        <time>2017-03-26T09:31:11.000Z</time>
      </trkpt>
      <trkpt lat="47.48422" lon="6.76964">
        <ele>350.9</ele>
        <time>2017-03-26T09:31:12.000Z</time>
      </trkpt>
      <trkpt lat="47.48426" lon="6.76966">
        <ele>351.5</ele>
        <time>2017-03-26T09:31:13.000Z</time>
      </trkpt>
      <trkpt lat="47.48431" lon="6.76968">
        <ele>352</ele>
        <time>2017-03-26T09:31:14.000Z</time>
      </trkpt>
      <trkpt lat="47.48436" lon="6.7697">
        <ele>352.3</ele>
        <time>2017-03-26T09:31:15.000Z</time>
      </trkpt>
      <trkpt lat="47.48439" lon="6.76972">
        <ele>352.2</ele>
        <time>2017-03-26T09:31:16.000Z</time>
      </trkpt>
      <trkpt lat="47.48444" lon="6.76975">
        <ele>352.6</ele>
        <time>2017-03-26T09:31:17.000Z</time>
      </trkpt>
      <trkpt lat="47.48448" lon="6.76978">
        <ele>353.2</ele>
        <time>2017-03-26T09:31:18.000Z</time>
      </trkpt>
      <trkpt lat="47.48452" lon="6.76981">
        <ele>353.7</ele>
        <time>2017-03-26T09:31:19.000Z</time>
      </trkpt>
      <trkpt lat="47.48457" lon="6.76985">
        <ele>354</ele>
        <time>2017-03-26T09:31:20.000Z</time>
      </trkpt>
      <trkpt lat="47.48462" lon="6.76987">
        <ele>353.9</ele>
        <time>2017-03-26T09:31:21.000Z</time>
      </trkpt>
      <trkpt lat="47.48467" lon="6.7699">
        <ele>353.6</ele>
        <time>2017-03-26T09:31:22.000Z</time>
      </trkpt>
      <trkpt lat="47.48471" lon="6.76993">
        <ele>353.3</ele>
        <time>2017-03-26T09:31:23.000Z</time>
      </trkpt>
      <trkpt lat="47.48475" lon="6.76995">
        <ele>353.1</ele>
        <time>2017-03-26T09:31:24.000Z</time>
      </trkpt>
      <trkpt lat="47.48479" lon="6.76998">
        <ele>353.2</ele>
        <time>2017-03-26T09:31:25.000Z</time>
      </trkpt>
      <trkpt lat="47.48485" lon="6.77002">
        <ele>354.1</ele>
        <time>2017-03-26T09:31:26.000Z</time>
      </trkpt>
      <trkpt lat="47.48489" lon="6.77004">
        <ele>353.6</ele>
        <time>2017-03-26T09:31:27.000Z</time>
      </trkpt>
      <trkpt lat="47.48493" lon="6.77007">
        <ele>353</ele>
        <time>2017-03-26T09:31:28.000Z</time>
      </trkpt>
      <trkpt lat="47.48498" lon="6.77009">
        <ele>352.4</ele>
        <time>2017-03-26T09:31:29.000Z</time>
      </trkpt>
      <trkpt lat="47.48503" lon="6.77013">
        <ele>352.6</ele>
        <time>2017-03-26T09:31:30.000Z</time>
      </trkpt>
      <trkpt lat="47.48507" lon="6.77016">
        <ele>351.9</ele>
        <time>2017-03-26T09:31:31.000Z</time>
      </trkpt>
      <trkpt lat="47.48512" lon="6.77019">
        <ele>351.9</ele>
        <time>2017-03-26T09:31:32.000Z</time>
      </trkpt>
      <trkpt lat="47.48516" lon="6.77022">
        <ele>352.5</ele>
        <time>2017-03-26T09:31:33.000Z</time>
      </trkpt>
      <trkpt lat="47.4852" lon="6.77025">
        <ele>352.4</ele>
        <time>2017-03-26T09:31:34.000Z</time>
      </trkpt>
      <trkpt lat="47.48523" lon="6.77029">
        <ele>351.1</ele>
        <time>2017-03-26T09:31:35.000Z</time>
      </trkpt>
      <trkpt lat="47.48527" lon="6.77032">
        <ele>349.3</ele>
        <time>2017-03-26T09:31:36.000Z</time>
      </trkpt>
      <trkpt lat="47.48531" lon="6.77035">
        <ele>347.3</ele>
        <time>2017-03-26T09:31:37.000Z</time>
      </trkpt>
      <trkpt lat="47.48535" lon="6.77037">
        <ele>344.9</ele>
        <time>2017-03-26T09:31:38.000Z</time>
      </trkpt>
      <trkpt lat="47.48539" lon="6.7704">
        <ele>344.2</ele>
        <time>2017-03-26T09:31:39.000Z</time>
      </trkpt>
      <trkpt lat="47.48543" lon="6.77042">
        <ele>344.3</ele>
        <time>2017-03-26T09:31:40.000Z</time>
      </trkpt>
      <trkpt lat="47.48546" lon="6.77043">
        <ele>344.4</ele>
        <time>2017-03-26T09:31:41.000Z</time>
      </trkpt>
      <trkpt lat="47.4855" lon="6.77045">
        <ele>344.3</ele>
        <time>2017-03-26T09:31:42.000Z</time>
      </trkpt>
      <trkpt lat="47.48553" lon="6.77046">
        <ele>344.3</ele>
        <time>2017-03-26T09:31:43.000Z</time>
      </trkpt>
      <trkpt lat="47.48555" lon="6.77048">
        <ele>344.2</ele>
        <time>2017-03-26T09:31:44.000Z</time>
      </trkpt>
      <trkpt lat="47.48558" lon="6.7705">
        <ele>344</ele>
        <time>2017-03-26T09:31:45.000Z</time>
      </trkpt>
      <trkpt lat="47.48561" lon="6.77052">
        <ele>341.5</ele>
        <time>2017-03-26T09:31:46.000Z</time>
      </trkpt>
      <trkpt lat="47.48564" lon="6.77054">
        <ele>341.3</ele>
        <time>2017-03-26T09:31:47.000Z</time>
      </trkpt>
      <trkpt lat="47.48569" lon="6.77057">
        <ele>341.2</ele>
        <time>2017-03-26T09:31:48.000Z</time>
      </trkpt>
      <trkpt lat="47.4858" lon="6.77062">
        <ele>339.5</ele>
        <time>2017-03-26T09:31:50.000Z</time>
      </trkpt>
      <trkpt lat="47.48587" lon="6.77066">
        <ele>340.3</ele>
        <time>2017-03-26T09:31:51.000Z</time>
      </trkpt>
      <trkpt lat="47.48592" lon="6.77069">
        <ele>341.8</ele>
        <time>2017-03-26T09:31:52.000Z</time>
      </trkpt>
      <trkpt lat="47.48598" lon="6.77072">
        <ele>343</ele>
        <time>2017-03-26T09:31:53.000Z</time>
      </trkpt>
      <trkpt lat="47.48605" lon="6.77076">
        <ele>344.2</ele>
        <time>2017-03-26T09:31:54.000Z</time>
      </trkpt>
      <trkpt lat="47.48611" lon="6.7708">
        <ele>345.1</ele>
        <time>2017-03-26T09:31:55.000Z</time>
      </trkpt>
      <trkpt lat="47.48615" lon="6.77083">
        <ele>345.6</ele>
        <time>2017-03-26T09:31:56.000Z</time>
      </trkpt>
      <trkpt lat="47.48621" lon="6.77086">
        <ele>346.2</ele>
        <time>2017-03-26T09:31:57.000Z</time>
      </trkpt>
      <trkpt lat="47.48626" lon="6.77089">
        <ele>347.8</ele>
        <time>2017-03-26T09:31:58.000Z</time>
      </trkpt>
      <trkpt lat="47.48631" lon="6.7709">
        <ele>347.9</ele>
        <time>2017-03-26T09:31:59.000Z</time>
      </trkpt>
      <trkpt lat="47.48635" lon="6.77094">
        <ele>347.7</ele>
        <time>2017-03-26T09:32:00.000Z</time>
      </trkpt>
      <trkpt lat="47.48638" lon="6.77097">
        <ele>347.7</ele>
        <time>2017-03-26T09:32:01.000Z</time>
      </trkpt>
      <trkpt lat="47.48642" lon="6.77102">
        <ele>347.1</ele>
        <time>2017-03-26T09:32:02.000Z</time>
      </trkpt>
      <trkpt lat="47.48646" lon="6.77106">
        <ele>346.5</ele>
        <time>2017-03-26T09:32:03.000Z</time>
      </trkpt>
      <trkpt lat="47.48651" lon="6.77112">
        <ele>346.3</ele>
        <time>2017-03-26T09:32:04.000Z</time>
      </trkpt>
      <trkpt lat="47.48655" lon="6.77118">
        <ele>346.8</ele>
        <time>2017-03-26T09:32:05.000Z</time>
      </trkpt>
      <trkpt lat="47.4866" lon="6.77123">
        <ele>347.3</ele>
        <time>2017-03-26T09:32:06.000Z</time>
      </trkpt>
      <trkpt lat="47.48664" lon="6.77129">
        <ele>347.8</ele>
        <time>2017-03-26T09:32:07.000Z</time>
      </trkpt>
      <trkpt lat="47.48668" lon="6.77134">
        <ele>347.6</ele>
        <time>2017-03-26T09:32:08.000Z</time>
      </trkpt>
      <trkpt lat="47.48672" lon="6.77139">
        <ele>347.6</ele>
        <time>2017-03-26T09:32:09.000Z</time>
      </trkpt>
      <trkpt lat="47.48676" lon="6.77145">
        <ele>347.7</ele>
        <time>2017-03-26T09:32:10.000Z</time>
      </trkpt>
      <trkpt lat="47.4868" lon="6.77149">
        <ele>347.8</ele>
        <time>2017-03-26T09:32:11.000Z</time>
      </trkpt>
      <trkpt lat="47.48685" lon="6.77154">
        <ele>347.6</ele>
        <time>2017-03-26T09:32:12.000Z</time>
      </trkpt>
      <trkpt lat="47.48689" lon="6.77158">
        <ele>347.3</ele>
        <time>2017-03-26T09:32:13.000Z</time>
      </trkpt>
      <trkpt lat="47.48693" lon="6.77164">
        <ele>347.6</ele>
        <time>2017-03-26T09:32:14.000Z</time>
      </trkpt>
      <trkpt lat="47.48697" lon="6.77168">
        <ele>348</ele>
        <time>2017-03-26T09:32:15.000Z</time>
      </trkpt>
      <trkpt lat="47.48702" lon="6.77172">
        <ele>349.1</ele>
        <time>2017-03-26T09:32:16.000Z</time>
      </trkpt>
      <trkpt lat="47.48706" lon="6.77175">
        <ele>349.6</ele>
        <time>2017-03-26T09:32:17.000Z</time>
      </trkpt>
      <trkpt lat="47.48712" lon="6.77179">
        <ele>350.7</ele>
        <time>2017-03-26T09:32:18.000Z</time>
      </trkpt>
      <trkpt lat="47.48717" lon="6.77183">
        <ele>351.9</ele>
        <time>2017-03-26T09:32:19.000Z</time>
      </trkpt>
      <trkpt lat="47.48721" lon="6.77185">
        <ele>352.1</ele>
        <time>2017-03-26T09:32:20.000Z</time>
      </trkpt>
      <trkpt lat="47.48726" lon="6.77188">
        <ele>352.4</ele>
        <time>2017-03-26T09:32:21.000Z</time>
      </trkpt>
      <trkpt lat="47.4873" lon="6.77191">
        <ele>352.8</ele>
        <time>2017-03-26T09:32:22.000Z</time>
      </trkpt>
      <trkpt lat="47.48735" lon="6.77194">
        <ele>353.8</ele>
        <time>2017-03-26T09:32:23.000Z</time>
      </trkpt>
      <trkpt lat="47.4874" lon="6.77196">
        <ele>354.9</ele>
        <time>2017-03-26T09:32:24.000Z</time>
      </trkpt>
      <trkpt lat="47.48744" lon="6.77199">
        <ele>355.1</ele>
        <time>2017-03-26T09:32:25.000Z</time>
      </trkpt>
      <trkpt lat="47.48747" lon="6.77202">
        <ele>355.1</ele>
        <time>2017-03-26T09:32:26.000Z</time>
      </trkpt>
      <trkpt lat="47.48751" lon="6.77205">
        <ele>355.1</ele>
        <time>2017-03-26T09:32:27.000Z</time>
      </trkpt>
      <trkpt lat="47.48755" lon="6.77208">
        <ele>355.1</ele>
        <time>2017-03-26T09:32:28.000Z</time>
      </trkpt>
      <trkpt lat="47.4876" lon="6.77212">
        <ele>355.2</ele>
        <time>2017-03-26T09:32:29.000Z</time>
      </trkpt>
      <trkpt lat="47.48764" lon="6.77216">
        <ele>355.9</ele>
        <time>2017-03-26T09:32:30.000Z</time>
      </trkpt>
      <trkpt lat="47.48768" lon="6.77219">
        <ele>355.4</ele>
        <time>2017-03-26T09:32:31.000Z</time>
      </trkpt>
      <trkpt lat="47.48772" lon="6.77222">
        <ele>354.5</ele>
        <time>2017-03-26T09:32:32.000Z</time>
      </trkpt>
      <trkpt lat="47.48776" lon="6.77225">
        <ele>355</ele>
        <time>2017-03-26T09:32:33.000Z</time>
      </trkpt>
      <trkpt lat="47.48781" lon="6.77229">
        <ele>355.5</ele>
        <time>2017-03-26T09:32:34.000Z</time>
      </trkpt>
      <trkpt lat="47.48785" lon="6.77232">
        <ele>355.9</ele>
        <time>2017-03-26T09:32:35.000Z</time>
      </trkpt>
      <trkpt lat="47.4879" lon="6.77235">
        <ele>356</ele>
        <time>2017-03-26T09:32:36.000Z</time>
      </trkpt>
      <trkpt lat="47.48794" lon="6.77238">
        <ele>356.2</ele>
        <time>2017-03-26T09:32:37.000Z</time>
      </trkpt>
      <trkpt lat="47.48798" lon="6.77241">
        <ele>356.7</ele>
        <time>2017-03-26T09:32:38.000Z</time>
      </trkpt>
      <trkpt lat="47.48802" lon="6.77244">
        <ele>356.4</ele>
        <time>2017-03-26T09:32:39.000Z</time>
      </trkpt>
      <trkpt lat="47.48806" lon="6.77247">
        <ele>356.4</ele>
        <time>2017-03-26T09:32:40.000Z</time>
      </trkpt>
      <trkpt lat="47.4881" lon="6.7725">
        <ele>355.9</ele>
        <time>2017-03-26T09:32:41.000Z</time>
      </trkpt>
      <trkpt lat="47.48813" lon="6.77254">
        <ele>355.2</ele>
        <time>2017-03-26T09:32:42.000Z</time>
      </trkpt>
      <trkpt lat="47.48818" lon="6.77259">
        <ele>355</ele>
        <time>2017-03-26T09:32:43.000Z</time>
      </trkpt>
      <trkpt lat="47.48822" lon="6.77263">
        <ele>354.5</ele>
        <time>2017-03-26T09:32:44.000Z</time>
      </trkpt>
      <trkpt lat="47.48826" lon="6.77267">
        <ele>354.3</ele>
        <time>2017-03-26T09:32:45.000Z</time>
      </trkpt>
      <trkpt lat="47.4883" lon="6.77271">
        <ele>354.8</ele>
        <time>2017-03-26T09:32:46.000Z</time>
      </trkpt>
      <trkpt lat="47.48834" lon="6.77275">
        <ele>356.3</ele>
        <time>2017-03-26T09:32:47.000Z</time>
      </trkpt>
      <trkpt lat="47.48838" lon="6.77278">
        <ele>356.4</ele>
        <time>2017-03-26T09:32:48.000Z</time>
      </trkpt>
      <trkpt lat="47.48843" lon="6.77281">
        <ele>356.5</ele>
        <time>2017-03-26T09:32:49.000Z</time>
      </trkpt>
      <trkpt lat="47.48847" lon="6.77284">
        <ele>356.6</ele>
        <time>2017-03-26T09:32:50.000Z</time>
      </trkpt>
      <trkpt lat="47.48853" lon="6.77287">
        <ele>356.6</ele>
        <time>2017-03-26T09:32:51.000Z</time>
      </trkpt>
      <trkpt lat="47.48858" lon="6.77289">
        <ele>356.8</ele>
        <time>2017-03-26T09:32:52.000Z</time>
      </trkpt>
      <trkpt lat="47.48862" lon="6.77291">
        <ele>356.8</ele>
        <time>2017-03-26T09:32:53.000Z</time>
      </trkpt>
      <trkpt lat="47.48867" lon="6.77294">
        <ele>356.9</ele>
        <time>2017-03-26T09:32:54.000Z</time>
      </trkpt>
      <trkpt lat="47.48872" lon="6.77296">
        <ele>357.4</ele>
        <time>2017-03-26T09:32:55.000Z</time>
      </trkpt>
      <trkpt lat="47.48877" lon="6.77298">
        <ele>357.7</ele>
        <time>2017-03-26T09:32:56.000Z</time>
      </trkpt>
      <trkpt lat="47.48882" lon="6.77299">
        <ele>358.6</ele>
        <time>2017-03-26T09:32:57.000Z</time>
      </trkpt>
      <trkpt lat="47.48886" lon="6.77299">
        <ele>359.7</ele>
        <time>2017-03-26T09:32:58.000Z</time>
      </trkpt>
      <trkpt lat="47.4889" lon="6.773">
        <ele>360.4</ele>
        <time>2017-03-26T09:32:59.000Z</time>
      </trkpt>
      <trkpt lat="47.48895" lon="6.773">
        <ele>360.4</ele>
        <time>2017-03-26T09:33:00.000Z</time>
      </trkpt>
      <trkpt lat="47.489" lon="6.773">
        <ele>360.4</ele>
        <time>2017-03-26T09:33:01.000Z</time>
      </trkpt>
      <trkpt lat="47.48905" lon="6.77301">
        <ele>360.4</ele>
        <time>2017-03-26T09:33:02.000Z</time>
      </trkpt>
      <trkpt lat="47.4891" lon="6.77303">
        <ele>360.2</ele>
        <time>2017-03-26T09:33:03.000Z</time>
      </trkpt>
      <trkpt lat="47.48914" lon="6.77305">
        <ele>359.5</ele>
        <time>2017-03-26T09:33:04.000Z</time>
      </trkpt>
      <trkpt lat="47.48918" lon="6.77306">
        <ele>359.9</ele>
        <time>2017-03-26T09:33:05.000Z</time>
      </trkpt>
      <trkpt lat="47.48923" lon="6.77308">
        <ele>359.6</ele>
        <time>2017-03-26T09:33:06.000Z</time>
      </trkpt>
      <trkpt lat="47.48927" lon="6.77309">
        <ele>359.2</ele>
        <time>2017-03-26T09:33:07.000Z</time>
      </trkpt>
      <trkpt lat="47.48932" lon="6.77311">
        <ele>359</ele>
        <time>2017-03-26T09:33:08.000Z</time>
      </trkpt>
      <trkpt lat="47.48937" lon="6.77312">
        <ele>359</ele>
        <time>2017-03-26T09:33:09.000Z</time>
      </trkpt>
      <trkpt lat="47.48942" lon="6.77313">
        <ele>358.5</ele>
        <time>2017-03-26T09:33:10.000Z</time>
      </trkpt>
      <trkpt lat="47.48947" lon="6.77314">
        <ele>357.2</ele>
        <time>2017-03-26T09:33:11.000Z</time>
      </trkpt>
      <trkpt lat="47.48952" lon="6.77315">
        <ele>355.9</ele>
        <time>2017-03-26T09:33:12.000Z</time>
      </trkpt>
      <trkpt lat="47.48957" lon="6.77317">
        <ele>354.6</ele>
        <time>2017-03-26T09:33:13.000Z</time>
      </trkpt>
      <trkpt lat="47.48962" lon="6.77319">
        <ele>353.7</ele>
        <time>2017-03-26T09:33:14.000Z</time>
      </trkpt>
      <trkpt lat="47.48967" lon="6.77321">
        <ele>354</ele>
        <time>2017-03-26T09:33:15.000Z</time>
      </trkpt>
      <trkpt lat="47.48972" lon="6.77323">
        <ele>354.7</ele>
        <time>2017-03-26T09:33:16.000Z</time>
      </trkpt>
      <trkpt lat="47.48977" lon="6.77324">
        <ele>355.4</ele>
        <time>2017-03-26T09:33:17.000Z</time>
      </trkpt>
      <trkpt lat="47.48982" lon="6.77324">
        <ele>355.4</ele>
        <time>2017-03-26T09:33:18.000Z</time>
      </trkpt>
      <trkpt lat="47.48987" lon="6.77325">
        <ele>355.3</ele>
        <time>2017-03-26T09:33:19.000Z</time>
      </trkpt>
      <trkpt lat="47.48991" lon="6.77325">
        <ele>354.6</ele>
        <time>2017-03-26T09:33:20.000Z</time>
      </trkpt>
      <trkpt lat="47.48995" lon="6.77326">
        <ele>354.9</ele>
        <time>2017-03-26T09:33:21.000Z</time>
      </trkpt>
      <trkpt lat="47.49" lon="6.77326">
        <ele>354.8</ele>
        <time>2017-03-26T09:33:22.000Z</time>
      </trkpt>
      <trkpt lat="47.49005" lon="6.77327">
        <ele>354</ele>
        <time>2017-03-26T09:33:23.000Z</time>
      </trkpt>
      <trkpt lat="47.49009" lon="6.77327">
        <ele>353.9</ele>
        <time>2017-03-26T09:33:24.000Z</time>
      </trkpt>
      <trkpt lat="47.49014" lon="6.77327">
        <ele>353.9</ele>
        <time>2017-03-26T09:33:25.000Z</time>
      </trkpt>
      <trkpt lat="47.49019" lon="6.77327">
        <ele>354.1</ele>
        <time>2017-03-26T09:33:26.000Z</time>
      </trkpt>
      <trkpt lat="47.49025" lon="6.77328">
        <ele>354.7</ele>
        <time>2017-03-26T09:33:27.000Z</time>
      </trkpt>
      <trkpt lat="47.4903" lon="6.77328">
        <ele>355</ele>
        <time>2017-03-26T09:33:28.000Z</time>
      </trkpt>
      <trkpt lat="47.49036" lon="6.77328">
        <ele>354.7</ele>
        <time>2017-03-26T09:33:29.000Z</time>
      </trkpt>
      <trkpt lat="47.49041" lon="6.77328">
        <ele>354.6</ele>
        <time>2017-03-26T09:33:30.000Z</time>
      </trkpt>
      <trkpt lat="47.49046" lon="6.77328">
        <ele>353.4</ele>
        <time>2017-03-26T09:33:31.000Z</time>
      </trkpt>
      <trkpt lat="47.49052" lon="6.77328">
        <ele>353</ele>
        <time>2017-03-26T09:33:32.000Z</time>
      </trkpt>
      <trkpt lat="47.49057" lon="6.77328">
        <ele>352.5</ele>
        <time>2017-03-26T09:33:33.000Z</time>
      </trkpt>
      <trkpt lat="47.49062" lon="6.77329">
        <ele>352.3</ele>
        <time>2017-03-26T09:33:34.000Z</time>
      </trkpt>
      <trkpt lat="47.49067" lon="6.77329">
        <ele>351.8</ele>
        <time>2017-03-26T09:33:35.000Z</time>
      </trkpt>
      <trkpt lat="47.49071" lon="6.77329">
        <ele>351.7</ele>
        <time>2017-03-26T09:33:36.000Z</time>
      </trkpt>
      <trkpt lat="47.49076" lon="6.77329">
        <ele>351.7</ele>
        <time>2017-03-26T09:33:37.000Z</time>
      </trkpt>
      <trkpt lat="47.49081" lon="6.7733">
        <ele>351.7</ele>
        <time>2017-03-26T09:33:38.000Z</time>
      </trkpt>
      <trkpt lat="47.49086" lon="6.7733">
        <ele>352.1</ele>
        <time>2017-03-26T09:33:39.000Z</time>
      </trkpt>
      <trkpt lat="47.49091" lon="6.77331">
        <ele>353.6</ele>
        <time>2017-03-26T09:33:40.000Z</time>
      </trkpt>
      <trkpt lat="47.49096" lon="6.77331">
        <ele>353.8</ele>
        <time>2017-03-26T09:33:41.000Z</time>
      </trkpt>
      <trkpt lat="47.49102" lon="6.77331">
        <ele>354.1</ele>
        <time>2017-03-26T09:33:42.000Z</time>
      </trkpt>
      <trkpt lat="47.49107" lon="6.77331">
        <ele>353.8</ele>
        <time>2017-03-26T09:33:43.000Z</time>
      </trkpt>
      <trkpt lat="47.49113" lon="6.77332">
        <ele>354.2</ele>
        <time>2017-03-26T09:33:44.000Z</time>
      </trkpt>
      <trkpt lat="47.49117" lon="6.77332">
        <ele>354.8</ele>
        <time>2017-03-26T09:33:45.000Z</time>
      </trkpt>
      <trkpt lat="47.49122" lon="6.77332">
        <ele>354.8</ele>
        <time>2017-03-26T09:33:46.000Z</time>
      </trkpt>
      <trkpt lat="47.49126" lon="6.77333">
        <ele>354.7</ele>
        <time>2017-03-26T09:33:47.000Z</time>
      </trkpt>
      <trkpt lat="47.49131" lon="6.77333">
        <ele>354.6</ele>
        <time>2017-03-26T09:33:48.000Z</time>
      </trkpt>
      <trkpt lat="47.49135" lon="6.77334">
        <ele>354</ele>
        <time>2017-03-26T09:33:49.000Z</time>
      </trkpt>
      <trkpt lat="47.49139" lon="6.77334">
        <ele>354</ele>
        <time>2017-03-26T09:33:50.000Z</time>
      </trkpt>
      <trkpt lat="47.49144" lon="6.77335">
        <ele>354</ele>
        <time>2017-03-26T09:33:51.000Z</time>
      </trkpt>
      <trkpt lat="47.49149" lon="6.77337">
        <ele>354</ele>
        <time>2017-03-26T09:33:52.000Z</time>
      </trkpt>
      <trkpt lat="47.49154" lon="6.77337">
        <ele>355.2</ele>
        <time>2017-03-26T09:33:53.000Z</time>
      </trkpt>
      <trkpt lat="47.49158" lon="6.77338">
        <ele>356.3</ele>
        <time>2017-03-26T09:33:54.000Z</time>
      </trkpt>
      <trkpt lat="47.49161" lon="6.77337">
        <ele>356.5</ele>
        <time>2017-03-26T09:33:55.000Z</time>
      </trkpt>
      <trkpt lat="47.49165" lon="6.77337">
        <ele>356.6</ele>
        <time>2017-03-26T09:33:56.000Z</time>
      </trkpt>
      <trkpt lat="47.49169" lon="6.77337">
        <ele>357.1</ele>
        <time>2017-03-26T09:33:57.000Z</time>
      </trkpt>
      <trkpt lat="47.49172" lon="6.77337">
        <ele>357.8</ele>
        <time>2017-03-26T09:33:58.000Z</time>
      </trkpt>
      <trkpt lat="47.49176" lon="6.77336">
        <ele>357.9</ele>
        <time>2017-03-26T09:33:59.000Z</time>
      </trkpt>
      <trkpt lat="47.4918" lon="6.77335">
        <ele>357.9</ele>
        <time>2017-03-26T09:34:00.000Z</time>
      </trkpt>
      <trkpt lat="47.49183" lon="6.77334">
        <ele>357.9</ele>
        <time>2017-03-26T09:34:01.000Z</time>
      </trkpt>
      <trkpt lat="47.49186" lon="6.77334">
        <ele>357.9</ele>
        <time>2017-03-26T09:34:02.000Z</time>
      </trkpt>
      <trkpt lat="47.49188" lon="6.77334">
        <ele>357.9</ele>
        <time>2017-03-26T09:34:03.000Z</time>
      </trkpt>
      <trkpt lat="47.4919" lon="6.77329">
        <ele>358.5</ele>
        <time>2017-03-26T09:34:25.000Z</time>
      </trkpt>
      <trkpt lat="47.49191" lon="6.77329">
        <ele>358.5</ele>
        <time>2017-03-26T09:34:26.000Z</time>
      </trkpt>
      <trkpt lat="47.49195" lon="6.77328">
        <ele>358.5</ele>
        <time>2017-03-26T09:34:30.000Z</time>
      </trkpt>
      <trkpt lat="47.49196" lon="6.77329">
        <ele>358.2</ele>
        <time>2017-03-26T09:34:31.000Z</time>
      </trkpt>
      <trkpt lat="47.492" lon="6.7733">
        <ele>358.1</ele>
        <time>2017-03-26T09:34:34.000Z</time>
      </trkpt>
      <trkpt lat="47.49201" lon="6.7733">
        <ele>358.1</ele>
        <time>2017-03-26T09:34:35.000Z</time>
      </trkpt>
      <trkpt lat="47.49204" lon="6.77335">
        <ele>357.9</ele>
        <time>2017-03-26T09:34:40.000Z</time>
      </trkpt>
      <trkpt lat="47.49205" lon="6.77336">
        <ele>357.9</ele>
        <time>2017-03-26T09:34:41.000Z</time>
      </trkpt>
      <trkpt lat="47.49207" lon="6.77337">
        <ele>358.7</ele>
        <time>2017-03-26T09:37:02.000Z</time>
      </trkpt>
      <trkpt lat="47.4921" lon="6.77338">
        <ele>358.6</ele>
        <time>2017-03-26T09:37:03.000Z</time>
      </trkpt>
      <trkpt lat="47.49213" lon="6.77338">
        <ele>358.5</ele>
        <time>2017-03-26T09:37:04.000Z</time>
      </trkpt>
      <trkpt lat="47.49216" lon="6.77338">
        <ele>357.9</ele>
        <time>2017-03-26T09:37:05.000Z</time>
      </trkpt>
      <trkpt lat="47.4922" lon="6.77338">
        <ele>357.4</ele>
        <time>2017-03-26T09:37:06.000Z</time>
      </trkpt>
      <trkpt lat="47.49224" lon="6.77338">
        <ele>356.9</ele>
        <time>2017-03-26T09:37:07.000Z</time>
      </trkpt>
      <trkpt lat="47.49228" lon="6.77338">
        <ele>355.7</ele>
        <time>2017-03-26T09:37:08.000Z</time>
      </trkpt>
      <trkpt lat="47.49232" lon="6.77339">
        <ele>355.3</ele>
        <time>2017-03-26T09:37:09.000Z</time>
      </trkpt>
      <trkpt lat="47.49236" lon="6.77338">
        <ele>355.5</ele>
        <time>2017-03-26T09:37:10.000Z</time>
      </trkpt>
      <trkpt lat="47.49241" lon="6.77338">
        <ele>355.6</ele>
        <time>2017-03-26T09:37:11.000Z</time>
      </trkpt>
      <trkpt lat="47.49245" lon="6.77337">
        <ele>355.3</ele>
        <time>2017-03-26T09:37:12.000Z</time>
      </trkpt>
      <trkpt lat="47.49249" lon="6.77335">
        <ele>355.3</ele>
        <time>2017-03-26T09:37:13.000Z</time>
      </trkpt>
      <trkpt lat="47.49252" lon="6.77332">
        <ele>354.9</ele>
        <time>2017-03-26T09:37:14.000Z</time>
      </trkpt>
      <trkpt lat="47.49257" lon="6.77329">
        <ele>354.4</ele>
        <time>2017-03-26T09:37:15.000Z</time>
      </trkpt>
      <trkpt lat="47.49262" lon="6.77327">
        <ele>353.5</ele>
        <time>2017-03-26T09:37:16.000Z</time>
      </trkpt>
      <trkpt lat="47.49268" lon="6.77327">
        <ele>353.1</ele>
        <time>2017-03-26T09:37:17.000Z</time>
      </trkpt>
      <trkpt lat="47.49274" lon="6.77327">
        <ele>353.3</ele>
        <time>2017-03-26T09:37:18.000Z</time>
      </trkpt>
      <trkpt lat="47.49279" lon="6.77326">
        <ele>353.5</ele>
        <time>2017-03-26T09:37:19.000Z</time>
      </trkpt>
      <trkpt lat="47.49286" lon="6.77327">
        <ele>353.8</ele>
        <time>2017-03-26T09:37:20.000Z</time>
      </trkpt>
      <trkpt lat="47.49291" lon="6.77328">
        <ele>354.4</ele>
        <time>2017-03-26T09:37:21.000Z</time>
      </trkpt>
      <trkpt lat="47.49297" lon="6.77328">
        <ele>354.1</ele>
        <time>2017-03-26T09:37:22.000Z</time>
      </trkpt>
      <trkpt lat="47.49302" lon="6.77328">
        <ele>354.4</ele>
        <time>2017-03-26T09:37:23.000Z</time>
      </trkpt>
      <trkpt lat="47.49308" lon="6.77329">
        <ele>353.9</ele>
        <time>2017-03-26T09:37:24.000Z</time>
      </trkpt>
      <trkpt lat="47.49313" lon="6.7733">
        <ele>353.6</ele>
        <time>2017-03-26T09:37:25.000Z</time>
      </trkpt>
      <trkpt lat="47.49318" lon="6.77332">
        <ele>353.3</ele>
        <time>2017-03-26T09:37:26.000Z</time>
      </trkpt>
      <trkpt lat="47.49322" lon="6.77333">
        <ele>353.7</ele>
        <time>2017-03-26T09:37:27.000Z</time>
      </trkpt>
      <trkpt lat="47.49326" lon="6.77334">
        <ele>354</ele>
        <time>2017-03-26T09:37:28.000Z</time>
      </trkpt>
      <trkpt lat="47.49331" lon="6.77337">
        <ele>354.8</ele>
        <time>2017-03-26T09:37:29.000Z</time>
      </trkpt>
      <trkpt lat="47.49334" lon="6.7734">
        <ele>354.5</ele>
        <time>2017-03-26T09:37:30.000Z</time>
      </trkpt>
      <trkpt lat="47.49337" lon="6.77342">
        <ele>354.4</ele>
        <time>2017-03-26T09:37:31.000Z</time>
      </trkpt>
      <trkpt lat="47.4934" lon="6.77343">
        <ele>354.3</ele>
        <time>2017-03-26T09:37:32.000Z</time>
      </trkpt>
      <trkpt lat="47.49344" lon="6.77343">
        <ele>354.2</ele>
        <time>2017-03-26T09:37:33.000Z</time>
      </trkpt>
      <trkpt lat="47.49348" lon="6.77344">
        <ele>354.6</ele>
        <time>2017-03-26T09:37:34.000Z</time>
      </trkpt>
      <trkpt lat="47.49353" lon="6.77345">
        <ele>355.7</ele>
        <time>2017-03-26T09:37:35.000Z</time>
      </trkpt>
      <trkpt lat="47.49358" lon="6.77346">
        <ele>356.6</ele>
        <time>2017-03-26T09:37:36.000Z</time>
      </trkpt>
      <trkpt lat="47.49364" lon="6.77347">
        <ele>357.4</ele>
        <time>2017-03-26T09:37:37.000Z</time>
      </trkpt>
      <trkpt lat="47.4937" lon="6.77349">
        <ele>358.1</ele>
        <time>2017-03-26T09:37:38.000Z</time>
      </trkpt>
      <trkpt lat="47.49376" lon="6.77349">
        <ele>359</ele>
        <time>2017-03-26T09:37:39.000Z</time>
      </trkpt>
      <trkpt lat="47.49381" lon="6.7735">
        <ele>359.7</ele>
        <time>2017-03-26T09:37:40.000Z</time>
      </trkpt>
      <trkpt lat="47.49385" lon="6.7735">
        <ele>360.2</ele>
        <time>2017-03-26T09:37:41.000Z</time>
      </trkpt>
      <trkpt lat="47.4939" lon="6.7735">
        <ele>360.3</ele>
        <time>2017-03-26T09:37:42.000Z</time>
      </trkpt>
      <trkpt lat="47.49394" lon="6.7735">
        <ele>359.5</ele>
        <time>2017-03-26T09:37:43.000Z</time>
      </trkpt>
      <trkpt lat="47.49399" lon="6.77351">
        <ele>358.7</ele>
        <time>2017-03-26T09:37:44.000Z</time>
      </trkpt>
      <trkpt lat="47.49404" lon="6.77352">
        <ele>358.1</ele>
        <time>2017-03-26T09:37:45.000Z</time>
      </trkpt>
      <trkpt lat="47.4941" lon="6.77353">
        <ele>357.6</ele>
        <time>2017-03-26T09:37:46.000Z</time>
      </trkpt>
      <trkpt lat="47.49415" lon="6.77352">
        <ele>357.2</ele>
        <time>2017-03-26T09:37:47.000Z</time>
      </trkpt>
      <trkpt lat="47.4942" lon="6.77353">
        <ele>356.8</ele>
        <time>2017-03-26T09:37:48.000Z</time>
      </trkpt>
      <trkpt lat="47.49425" lon="6.77353">
        <ele>356.2</ele>
        <time>2017-03-26T09:37:49.000Z</time>
      </trkpt>
      <trkpt lat="47.4943" lon="6.77353">
        <ele>355.5</ele>
        <time>2017-03-26T09:37:50.000Z</time>
      </trkpt>
      <trkpt lat="47.49435" lon="6.77353">
        <ele>354.5</ele>
        <time>2017-03-26T09:37:51.000Z</time>
      </trkpt>
      <trkpt lat="47.4944" lon="6.77353">
        <ele>353.3</ele>
        <time>2017-03-26T09:37:52.000Z</time>
      </trkpt>
      <trkpt lat="47.49445" lon="6.77353">
        <ele>352.1</ele>
        <time>2017-03-26T09:37:53.000Z</time>
      </trkpt>
      <trkpt lat="47.49449" lon="6.77354">
        <ele>350.7</ele>
        <time>2017-03-26T09:37:54.000Z</time>
      </trkpt>
      <trkpt lat="47.49453" lon="6.77354">
        <ele>349.5</ele>
        <time>2017-03-26T09:37:55.000Z</time>
      </trkpt>
      <trkpt lat="47.49458" lon="6.77354">
        <ele>348.8</ele>
        <time>2017-03-26T09:37:56.000Z</time>
      </trkpt>
      <trkpt lat="47.49463" lon="6.77355">
        <ele>348.8</ele>
        <time>2017-03-26T09:37:57.000Z</time>
      </trkpt>
      <trkpt lat="47.49468" lon="6.77356">
        <ele>349.1</ele>
        <time>2017-03-26T09:37:58.000Z</time>
      </trkpt>
      <trkpt lat="47.49472" lon="6.77357">
        <ele>349.1</ele>
        <time>2017-03-26T09:37:59.000Z</time>
      </trkpt>
      <trkpt lat="47.49477" lon="6.77357">
        <ele>349.2</ele>
        <time>2017-03-26T09:38:00.000Z</time>
      </trkpt>
      <trkpt lat="47.49482" lon="6.77358">
        <ele>349.2</ele>
        <time>2017-03-26T09:38:01.000Z</time>
      </trkpt>
      <trkpt lat="47.49488" lon="6.77358">
        <ele>349.3</ele>
        <time>2017-03-26T09:38:02.000Z</time>
      </trkpt>
      <trkpt lat="47.49493" lon="6.77358">
        <ele>349.2</ele>
        <time>2017-03-26T09:38:03.000Z</time>
      </trkpt>
      <trkpt lat="47.49498" lon="6.77357">
        <ele>349.7</ele>
        <time>2017-03-26T09:38:04.000Z</time>
      </trkpt>
      <trkpt lat="47.49502" lon="6.77357">
        <ele>350.2</ele>
        <time>2017-03-26T09:38:05.000Z</time>
      </trkpt>
      <trkpt lat="47.49507" lon="6.77357">
        <ele>350.4</ele>
        <time>2017-03-26T09:38:06.000Z</time>
      </trkpt>
      <trkpt lat="47.49513" lon="6.77358">
        <ele>350.9</ele>
        <time>2017-03-26T09:38:07.000Z</time>
      </trkpt>
      <trkpt lat="47.49518" lon="6.77359">
        <ele>350.5</ele>
        <time>2017-03-26T09:38:08.000Z</time>
      </trkpt>
      <trkpt lat="47.49524" lon="6.77361">
        <ele>350.9</ele>
        <time>2017-03-26T09:38:09.000Z</time>
      </trkpt>
      <trkpt lat="47.4953" lon="6.77362">
        <ele>350.7</ele>
        <time>2017-03-26T09:38:10.000Z</time>
      </trkpt>
      <trkpt lat="47.49534" lon="6.77363">
        <ele>350.9</ele>
        <time>2017-03-26T09:38:11.000Z</time>
      </trkpt>
      <trkpt lat="47.4954" lon="6.77363">
        <ele>350.6</ele>
        <time>2017-03-26T09:38:12.000Z</time>
      </trkpt>
      <trkpt lat="47.49545" lon="6.77363">
        <ele>350.4</ele>
        <time>2017-03-26T09:38:13.000Z</time>
      </trkpt>
      <trkpt lat="47.4955" lon="6.77363">
        <ele>350.4</ele>
        <time>2017-03-26T09:38:14.000Z</time>
      </trkpt>
      <trkpt lat="47.49556" lon="6.77362">
        <ele>349.8</ele>
        <time>2017-03-26T09:38:15.000Z</time>
      </trkpt>
      <trkpt lat="47.49561" lon="6.77362">
        <ele>349.5</ele>
        <time>2017-03-26T09:38:16.000Z</time>
      </trkpt>
      <trkpt lat="47.49566" lon="6.77363">
        <ele>349.4</ele>
        <time>2017-03-26T09:38:17.000Z</time>
      </trkpt>
      <trkpt lat="47.49571" lon="6.77362">
        <ele>348.6</ele>
        <time>2017-03-26T09:38:18.000Z</time>
      </trkpt>
      <trkpt lat="47.49577" lon="6.77362">
        <ele>348.1</ele>
        <time>2017-03-26T09:38:19.000Z</time>
      </trkpt>
      <trkpt lat="47.49582" lon="6.77362">
        <ele>348.7</ele>
        <time>2017-03-26T09:38:20.000Z</time>
      </trkpt>
      <trkpt lat="47.49588" lon="6.77362">
        <ele>349.4</ele>
        <time>2017-03-26T09:38:21.000Z</time>
      </trkpt>
      <trkpt lat="47.49593" lon="6.77361">
        <ele>349.8</ele>
        <time>2017-03-26T09:38:22.000Z</time>
      </trkpt>
      <trkpt lat="47.49599" lon="6.7736">
        <ele>350</ele>
        <time>2017-03-26T09:38:23.000Z</time>
      </trkpt>
      <trkpt lat="47.49604" lon="6.77359">
        <ele>350.1</ele>
        <time>2017-03-26T09:38:24.000Z</time>
      </trkpt>
      <trkpt lat="47.49608" lon="6.77357">
        <ele>349.8</ele>
        <time>2017-03-26T09:38:25.000Z</time>
      </trkpt>
      <trkpt lat="47.49613" lon="6.77355">
        <ele>349.8</ele>
        <time>2017-03-26T09:38:26.000Z</time>
      </trkpt>
      <trkpt lat="47.49617" lon="6.77353">
        <ele>350.5</ele>
        <time>2017-03-26T09:38:27.000Z</time>
      </trkpt>
      <trkpt lat="47.49621" lon="6.77351">
        <ele>350.9</ele>
        <time>2017-03-26T09:38:28.000Z</time>
      </trkpt>
      <trkpt lat="47.49626" lon="6.77349">
        <ele>351.6</ele>
        <time>2017-03-26T09:38:29.000Z</time>
      </trkpt>
      <trkpt lat="47.49631" lon="6.77348">
        <ele>352</ele>
        <time>2017-03-26T09:38:30.000Z</time>
      </trkpt>
      <trkpt lat="47.49637" lon="6.77347">
        <ele>352.5</ele>
        <time>2017-03-26T09:38:31.000Z</time>
      </trkpt>
      <trkpt lat="47.49642" lon="6.77347">
        <ele>352.9</ele>
        <time>2017-03-26T09:38:32.000Z</time>
      </trkpt>
      <trkpt lat="47.49646" lon="6.77346">
        <ele>353.1</ele>
        <time>2017-03-26T09:38:33.000Z</time>
      </trkpt>
      <trkpt lat="47.4965" lon="6.77345">
        <ele>354.3</ele>
        <time>2017-03-26T09:38:34.000Z</time>
      </trkpt>
      <trkpt lat="47.49654" lon="6.77344">
        <ele>354.3</ele>
        <time>2017-03-26T09:38:35.000Z</time>
      </trkpt>
      <trkpt lat="47.49659" lon="6.77345">
        <ele>354.8</ele>
        <time>2017-03-26T09:38:36.000Z</time>
      </trkpt>
      <trkpt lat="47.49664" lon="6.77344">
        <ele>355.4</ele>
        <time>2017-03-26T09:38:37.000Z</time>
      </trkpt>
      <trkpt lat="47.49668" lon="6.77342">
        <ele>355.3</ele>
        <time>2017-03-26T09:38:38.000Z</time>
      </trkpt>
      <trkpt lat="47.49672" lon="6.7734">
        <ele>355.2</ele>
        <time>2017-03-26T09:38:39.000Z</time>
      </trkpt>
      <trkpt lat="47.49678" lon="6.7734">
        <ele>354.7</ele>
        <time>2017-03-26T09:38:40.000Z</time>
      </trkpt>
      <trkpt lat="47.49683" lon="6.77339">
        <ele>355.1</ele>
        <time>2017-03-26T09:38:41.000Z</time>
      </trkpt>
      <trkpt lat="47.49688" lon="6.77337">
        <ele>355.4</ele>
        <time>2017-03-26T09:38:42.000Z</time>
      </trkpt>
      <trkpt lat="47.49694" lon="6.77336">
        <ele>354.6</ele>
        <time>2017-03-26T09:38:43.000Z</time>
      </trkpt>
      <trkpt lat="47.49698" lon="6.77334">
        <ele>354.6</ele>
        <time>2017-03-26T09:38:44.000Z</time>
      </trkpt>
      <trkpt lat="47.497" lon="6.77333">
        <ele>354.7</ele>
        <time>2017-03-26T09:38:45.000Z</time>
      </trkpt>
      <trkpt lat="47.49705" lon="6.77332">
        <ele>354.6</ele>
        <time>2017-03-26T09:38:46.000Z</time>
      </trkpt>
      <trkpt lat="47.49709" lon="6.77332">
        <ele>354.5</ele>
        <time>2017-03-26T09:38:47.000Z</time>
      </trkpt>
      <trkpt lat="47.49712" lon="6.77332">
        <ele>354.4</ele>
        <time>2017-03-26T09:38:48.000Z</time>
      </trkpt>
      <trkpt lat="47.49716" lon="6.77332">
        <ele>354.3</ele>
        <time>2017-03-26T09:38:49.000Z</time>
      </trkpt>
      <trkpt lat="47.49721" lon="6.77331">
        <ele>354.3</ele>
        <time>2017-03-26T09:38:50.000Z</time>
      </trkpt>
      <trkpt lat="47.49726" lon="6.77329">
        <ele>354.4</ele>
        <time>2017-03-26T09:38:51.000Z</time>
      </trkpt>
      <trkpt lat="47.49729" lon="6.77327">
        <ele>354.3</ele>
        <time>2017-03-26T09:38:52.000Z</time>
      </trkpt>
      <trkpt lat="47.49732" lon="6.77325">
        <ele>354.3</ele>
        <time>2017-03-26T09:38:53.000Z</time>
      </trkpt>
      <trkpt lat="47.49737" lon="6.77323">
        <ele>354.2</ele>
        <time>2017-03-26T09:38:54.000Z</time>
      </trkpt>
      <trkpt lat="47.4974" lon="6.77321">
        <ele>354.1</ele>
        <time>2017-03-26T09:38:55.000Z</time>
      </trkpt>
      <trkpt lat="47.49743" lon="6.7732">
        <ele>354.1</ele>
        <time>2017-03-26T09:38:56.000Z</time>
      </trkpt>
      <trkpt lat="47.49746" lon="6.77318">
        <ele>354</ele>
        <time>2017-03-26T09:38:57.000Z</time>
      </trkpt>
      <trkpt lat="47.49749" lon="6.77316">
        <ele>353.9</ele>
        <time>2017-03-26T09:38:58.000Z</time>
      </trkpt>
      <trkpt lat="47.49751" lon="6.77316">
        <ele>353.8</ele>
        <time>2017-03-26T09:38:59.000Z</time>
      </trkpt>
      <trkpt lat="47.49753" lon="6.77315">
        <ele>353.8</ele>
        <time>2017-03-26T09:39:00.000Z</time>
      </trkpt>
      <trkpt lat="47.49758" lon="6.77312">
        <ele>353.7</ele>
        <time>2017-03-26T09:39:01.000Z</time>
      </trkpt>
      <trkpt lat="47.49761" lon="6.77309">
        <ele>353.6</ele>
        <time>2017-03-26T09:39:02.000Z</time>
      </trkpt>
      <trkpt lat="47.49764" lon="6.77309">
        <ele>353.6</ele>
        <time>2017-03-26T09:39:03.000Z</time>
      </trkpt>
      <trkpt lat="47.49768" lon="6.77309">
        <ele>353.6</ele>
        <time>2017-03-26T09:39:04.000Z</time>
      </trkpt>
      <trkpt lat="47.49771" lon="6.77308">
        <ele>353.6</ele>
        <time>2017-03-26T09:39:05.000Z</time>
      </trkpt>
      <trkpt lat="47.49776" lon="6.77307">
        <ele>353.4</ele>
        <time>2017-03-26T09:39:06.000Z</time>
      </trkpt>
      <trkpt lat="47.4978" lon="6.77306">
        <ele>351.8</ele>
        <time>2017-03-26T09:39:07.000Z</time>
      </trkpt>
      <trkpt lat="47.49785" lon="6.77306">
        <ele>351.7</ele>
        <time>2017-03-26T09:39:08.000Z</time>
      </trkpt>
      <trkpt lat="47.49789" lon="6.77307">
        <ele>351.7</ele>
        <time>2017-03-26T09:39:09.000Z</time>
      </trkpt>
      <trkpt lat="47.49794" lon="6.77307">
        <ele>351.6</ele>
        <time>2017-03-26T09:39:10.000Z</time>
      </trkpt>
      <trkpt lat="47.49799" lon="6.77306">
        <ele>351.4</ele>
        <time>2017-03-26T09:39:11.000Z</time>
      </trkpt>
      <trkpt lat="47.49803" lon="6.77306">
        <ele>351.2</ele>
        <time>2017-03-26T09:39:12.000Z</time>
      </trkpt>
      <trkpt lat="47.49808" lon="6.77305">
        <ele>351.1</ele>
        <time>2017-03-26T09:39:13.000Z</time>
      </trkpt>
      <trkpt lat="47.49813" lon="6.77305">
        <ele>350.9</ele>
        <time>2017-03-26T09:39:14.000Z</time>
      </trkpt>
      <trkpt lat="47.49818" lon="6.77304">
        <ele>350.7</ele>
        <time>2017-03-26T09:39:15.000Z</time>
      </trkpt>
      <trkpt lat="47.49822" lon="6.77303">
        <ele>350.5</ele>
        <time>2017-03-26T09:39:16.000Z</time>
      </trkpt>
      <trkpt lat="47.49827" lon="6.77302">
        <ele>350.3</ele>
        <time>2017-03-26T09:39:17.000Z</time>
      </trkpt>
      <trkpt lat="47.49831" lon="6.77301">
        <ele>350.1</ele>
        <time>2017-03-26T09:39:18.000Z</time>
      </trkpt>
      <trkpt lat="47.49836" lon="6.77299">
        <ele>347.3</ele>
        <time>2017-03-26T09:39:19.000Z</time>
      </trkpt>
      <trkpt lat="47.49839" lon="6.77297">
        <ele>347</ele>
        <time>2017-03-26T09:39:20.000Z</time>
      </trkpt>
      <trkpt lat="47.49842" lon="6.77297">
        <ele>346.9</ele>
        <time>2017-03-26T09:39:21.000Z</time>
      </trkpt>
      <trkpt lat="47.49846" lon="6.77296">
        <ele>346.7</ele>
        <time>2017-03-26T09:39:22.000Z</time>
      </trkpt>
      <trkpt lat="47.4985" lon="6.77295">
        <ele>346.6</ele>
        <time>2017-03-26T09:39:23.000Z</time>
      </trkpt>
      <trkpt lat="47.49856" lon="6.77295">
        <ele>346.5</ele>
        <time>2017-03-26T09:39:24.000Z</time>
      </trkpt>
      <trkpt lat="47.49862" lon="6.77294">
        <ele>346.5</ele>
        <time>2017-03-26T09:39:25.000Z</time>
      </trkpt>
      <trkpt lat="47.49867" lon="6.77293">
        <ele>346.4</ele>
        <time>2017-03-26T09:39:26.000Z</time>
      </trkpt>
      <trkpt lat="47.49872" lon="6.77291">
        <ele>346.3</ele>
        <time>2017-03-26T09:39:27.000Z</time>
      </trkpt>
      <trkpt lat="47.49877" lon="6.77291">
        <ele>346</ele>
        <time>2017-03-26T09:39:28.000Z</time>
      </trkpt>
      <trkpt lat="47.49881" lon="6.7729">
        <ele>345.9</ele>
        <time>2017-03-26T09:39:29.000Z</time>
      </trkpt>
      <trkpt lat="47.49885" lon="6.77289">
        <ele>345.7</ele>
        <time>2017-03-26T09:39:30.000Z</time>
      </trkpt>
      <trkpt lat="47.4989" lon="6.77288">
        <ele>345.5</ele>
        <time>2017-03-26T09:39:31.000Z</time>
      </trkpt>
      <trkpt lat="47.49894" lon="6.77287">
        <ele>345.3</ele>
        <time>2017-03-26T09:39:32.000Z</time>
      </trkpt>
      <trkpt lat="47.49897" lon="6.77285">
        <ele>345.1</ele>
        <time>2017-03-26T09:39:33.000Z</time>
      </trkpt>
      <trkpt lat="47.49901" lon="6.77282">
        <ele>344.9</ele>
        <time>2017-03-26T09:39:34.000Z</time>
      </trkpt>
      <trkpt lat="47.49904" lon="6.77279">
        <ele>344.6</ele>
        <time>2017-03-26T09:39:35.000Z</time>
      </trkpt>
      <trkpt lat="47.49908" lon="6.77276">
        <ele>344.4</ele>
        <time>2017-03-26T09:39:36.000Z</time>
      </trkpt>
      <trkpt lat="47.49912" lon="6.77273">
        <ele>344.2</ele>
        <time>2017-03-26T09:39:37.000Z</time>
      </trkpt>
      <trkpt lat="47.49917" lon="6.7727">
        <ele>344.1</ele>
        <time>2017-03-26T09:39:38.000Z</time>
      </trkpt>
      <trkpt lat="47.49921" lon="6.77268">
        <ele>343.9</ele>
        <time>2017-03-26T09:39:39.000Z</time>
      </trkpt>
      <trkpt lat="47.49924" lon="6.77265">
        <ele>343.8</ele>
        <time>2017-03-26T09:39:40.000Z</time>
      </trkpt>
      <trkpt lat="47.49927" lon="6.77263">
        <ele>343.6</ele>
        <time>2017-03-26T09:39:41.000Z</time>
      </trkpt>
      <trkpt lat="47.4993" lon="6.77261">
        <ele>343.5</ele>
        <time>2017-03-26T09:39:42.000Z</time>
      </trkpt>
      <trkpt lat="47.49934" lon="6.77259">
        <ele>343.3</ele>
        <time>2017-03-26T09:39:43.000Z</time>
      </trkpt>
      <trkpt lat="47.49937" lon="6.77256">
        <ele>343.2</ele>
        <time>2017-03-26T09:39:44.000Z</time>
      </trkpt>
      <trkpt lat="47.49939" lon="6.77254">
        <ele>343</ele>
        <time>2017-03-26T09:39:45.000Z</time>
      </trkpt>
      <trkpt lat="47.49942" lon="6.77251">
        <ele>342.9</ele>
        <time>2017-03-26T09:39:46.000Z</time>
      </trkpt>
      <trkpt lat="47.49945" lon="6.77247">
        <ele>341.3</ele>
        <time>2017-03-26T09:39:47.000Z</time>
      </trkpt>
      <trkpt lat="47.4995" lon="6.77245">
        <ele>340.5</ele>
        <time>2017-03-26T09:39:48.000Z</time>
      </trkpt>
      <trkpt lat="47.49954" lon="6.77243">
        <ele>339.8</ele>
        <time>2017-03-26T09:39:49.000Z</time>
      </trkpt>
      <trkpt lat="47.49959" lon="6.7724">
        <ele>338.7</ele>
        <time>2017-03-26T09:39:50.000Z</time>
      </trkpt>
      <trkpt lat="47.49964" lon="6.77237">
        <ele>338.4</ele>
        <time>2017-03-26T09:39:51.000Z</time>
      </trkpt>
      <trkpt lat="47.49968" lon="6.77235">
        <ele>337.7</ele>
        <time>2017-03-26T09:39:52.000Z</time>
      </trkpt>
      <trkpt lat="47.49971" lon="6.77233">
        <ele>338.4</ele>
        <time>2017-03-26T09:39:53.000Z</time>
      </trkpt>
      <trkpt lat="47.49975" lon="6.77232">
        <ele>338.7</ele>
        <time>2017-03-26T09:39:54.000Z</time>
      </trkpt>
      <trkpt lat="47.49979" lon="6.77231">
        <ele>338.4</ele>
        <time>2017-03-26T09:39:55.000Z</time>
      </trkpt>
      <trkpt lat="47.49983" lon="6.77229">
        <ele>338.5</ele>
        <time>2017-03-26T09:39:57.000Z</time>
      </trkpt>
      <trkpt lat="47.49985" lon="6.77228">
        <ele>338.5</ele>
        <time>2017-03-26T09:39:58.000Z</time>
      </trkpt>
      <trkpt lat="47.49988" lon="6.77227">
        <ele>338.6</ele>
        <time>2017-03-26T09:40:02.000Z</time>
      </trkpt>
      <trkpt lat="47.4999" lon="6.77228">
        <ele>338.6</ele>
        <time>2017-03-26T09:40:03.000Z</time>
      </trkpt>
      <trkpt lat="47.49993" lon="6.77229">
        <ele>338.6</ele>
        <time>2017-03-26T09:40:04.000Z</time>
      </trkpt>
      <trkpt lat="47.49998" lon="6.77229">
        <ele>338.5</ele>
        <time>2017-03-26T09:40:05.000Z</time>
      </trkpt>
      <trkpt lat="47.50004" lon="6.77228">
        <ele>338.4</ele>
        <time>2017-03-26T09:40:06.000Z</time>
      </trkpt>
      <trkpt lat="47.5001" lon="6.77225">
        <ele>338.4</ele>
        <time>2017-03-26T09:40:07.000Z</time>
      </trkpt>
      <trkpt lat="47.5002" lon="6.77221">
        <ele>338.5</ele>
        <time>2017-03-26T09:40:08.000Z</time>
      </trkpt>
      <trkpt lat="47.50026" lon="6.77219">
        <ele>338.5</ele>
        <time>2017-03-26T09:40:09.000Z</time>
      </trkpt>
      <trkpt lat="47.50031" lon="6.77217">
        <ele>338.5</ele>
        <time>2017-03-26T09:40:10.000Z</time>
      </trkpt>
      <trkpt lat="47.50036" lon="6.77215">
        <ele>338.6</ele>
        <time>2017-03-26T09:40:11.000Z</time>
      </trkpt>
      <trkpt lat="47.50042" lon="6.77212">
        <ele>338.6</ele>
        <time>2017-03-26T09:40:12.000Z</time>
      </trkpt>
      <trkpt lat="47.50047" lon="6.77211">
        <ele>338.6</ele>
        <time>2017-03-26T09:40:13.000Z</time>
      </trkpt>
      <trkpt lat="47.50055" lon="6.77209">
        <ele>338.7</ele>
        <time>2017-03-26T09:40:14.000Z</time>
      </trkpt>
      <trkpt lat="47.50059" lon="6.77206">
        <ele>338.7</ele>
        <time>2017-03-26T09:40:15.000Z</time>
      </trkpt>
      <trkpt lat="47.50064" lon="6.77205">
        <ele>340</ele>
        <time>2017-03-26T09:40:16.000Z</time>
      </trkpt>
      <trkpt lat="47.50069" lon="6.77204">
        <ele>341.6</ele>
        <time>2017-03-26T09:40:17.000Z</time>
      </trkpt>
      <trkpt lat="47.50074" lon="6.77202">
        <ele>343.6</ele>
        <time>2017-03-26T09:40:18.000Z</time>
      </trkpt>
      <trkpt lat="47.50079" lon="6.77201">
        <ele>345.6</ele>
        <time>2017-03-26T09:40:19.000Z</time>
      </trkpt>
      <trkpt lat="47.50084" lon="6.772">
        <ele>347.2</ele>
        <time>2017-03-26T09:40:20.000Z</time>
      </trkpt>
      <trkpt lat="47.50089" lon="6.77198">
        <ele>349</ele>
        <time>2017-03-26T09:40:21.000Z</time>
      </trkpt>
      <trkpt lat="47.50094" lon="6.77197">
        <ele>349.7</ele>
        <time>2017-03-26T09:40:22.000Z</time>
      </trkpt>
      <trkpt lat="47.50099" lon="6.77195">
        <ele>350</ele>
        <time>2017-03-26T09:40:23.000Z</time>
      </trkpt>
      <trkpt lat="47.50105" lon="6.77196">
        <ele>350.9</ele>
        <time>2017-03-26T09:40:24.000Z</time>
      </trkpt>
      <trkpt lat="47.50112" lon="6.77198">
        <ele>351.6</ele>
        <time>2017-03-26T09:40:25.000Z</time>
      </trkpt>
      <trkpt lat="47.50118" lon="6.772">
        <ele>351.4</ele>
        <time>2017-03-26T09:40:26.000Z</time>
      </trkpt>
      <trkpt lat="47.50124" lon="6.77201">
        <ele>351.5</ele>
        <time>2017-03-26T09:40:27.000Z</time>
      </trkpt>
      <trkpt lat="47.5013" lon="6.77203">
        <ele>351.3</ele>
        <time>2017-03-26T09:40:28.000Z</time>
      </trkpt>
      <trkpt lat="47.50137" lon="6.77204">
        <ele>350.6</ele>
        <time>2017-03-26T09:40:29.000Z</time>
      </trkpt>
      <trkpt lat="47.50144" lon="6.77205">
        <ele>350.8</ele>
        <time>2017-03-26T09:40:30.000Z</time>
      </trkpt>
      <trkpt lat="47.5015" lon="6.77207">
        <ele>350.8</ele>
        <time>2017-03-26T09:40:31.000Z</time>
      </trkpt>
      <trkpt lat="47.50155" lon="6.77212">
        <ele>350.6</ele>
        <time>2017-03-26T09:40:32.000Z</time>
      </trkpt>
      <trkpt lat="47.5016" lon="6.77217">
        <ele>350</ele>
        <time>2017-03-26T09:40:33.000Z</time>
      </trkpt>
      <trkpt lat="47.50165" lon="6.77222">
        <ele>349.2</ele>
        <time>2017-03-26T09:40:34.000Z</time>
      </trkpt>
      <trkpt lat="47.50169" lon="6.77226">
        <ele>349.4</ele>
        <time>2017-03-26T09:40:35.000Z</time>
      </trkpt>
      <trkpt lat="47.50173" lon="6.7723">
        <ele>349.9</ele>
        <time>2017-03-26T09:40:36.000Z</time>
      </trkpt>
      <trkpt lat="47.50178" lon="6.77235">
        <ele>350.5</ele>
        <time>2017-03-26T09:40:37.000Z</time>
      </trkpt>
      <trkpt lat="47.50181" lon="6.77239">
        <ele>350.1</ele>
        <time>2017-03-26T09:40:38.000Z</time>
      </trkpt>
      <trkpt lat="47.50186" lon="6.77244">
        <ele>350.2</ele>
        <time>2017-03-26T09:40:39.000Z</time>
      </trkpt>
      <trkpt lat="47.50191" lon="6.77248">
        <ele>350.8</ele>
        <time>2017-03-26T09:40:40.000Z</time>
      </trkpt>
      <trkpt lat="47.50196" lon="6.77252">
        <ele>350.9</ele>
        <time>2017-03-26T09:40:41.000Z</time>
      </trkpt>
      <trkpt lat="47.502" lon="6.77256">
        <ele>351</ele>
        <time>2017-03-26T09:40:42.000Z</time>
      </trkpt>
      <trkpt lat="47.50205" lon="6.7726">
        <ele>351.2</ele>
        <time>2017-03-26T09:40:43.000Z</time>
      </trkpt>
      <trkpt lat="47.5021" lon="6.77265">
        <ele>351.2</ele>
        <time>2017-03-26T09:40:44.000Z</time>
      </trkpt>
      <trkpt lat="47.50214" lon="6.7727">
        <ele>350.9</ele>
        <time>2017-03-26T09:40:45.000Z</time>
      </trkpt>
      <trkpt lat="47.50219" lon="6.77274">
        <ele>351.2</ele>
        <time>2017-03-26T09:40:46.000Z</time>
      </trkpt>
      <trkpt lat="47.50223" lon="6.77277">
        <ele>351.5</ele>
        <time>2017-03-26T09:40:47.000Z</time>
      </trkpt>
      <trkpt lat="47.50228" lon="6.7728">
        <ele>351.9</ele>
        <time>2017-03-26T09:40:48.000Z</time>
      </trkpt>
      <trkpt lat="47.50233" lon="6.77284">
        <ele>351.8</ele>
        <time>2017-03-26T09:40:49.000Z</time>
      </trkpt>
      <trkpt lat="47.50237" lon="6.77288">
        <ele>352.5</ele>
        <time>2017-03-26T09:40:50.000Z</time>
      </trkpt>
      <trkpt lat="47.50242" lon="6.77292">
        <ele>352.8</ele>
        <time>2017-03-26T09:40:51.000Z</time>
      </trkpt>
      <trkpt lat="47.50246" lon="6.77295">
        <ele>353.4</ele>
        <time>2017-03-26T09:40:52.000Z</time>
      </trkpt>
      <trkpt lat="47.5025" lon="6.77298">
        <ele>353.5</ele>
        <time>2017-03-26T09:40:53.000Z</time>
      </trkpt>
      <trkpt lat="47.50253" lon="6.773">
        <ele>353.5</ele>
        <time>2017-03-26T09:40:54.000Z</time>
      </trkpt>
      <trkpt lat="47.50257" lon="6.77303">
        <ele>354.2</ele>
        <time>2017-03-26T09:40:55.000Z</time>
      </trkpt>
      <trkpt lat="47.50261" lon="6.77306">
        <ele>355</ele>
        <time>2017-03-26T09:40:56.000Z</time>
      </trkpt>
      <trkpt lat="47.50265" lon="6.77309">
        <ele>354.9</ele>
        <time>2017-03-26T09:40:57.000Z</time>
      </trkpt>
      <trkpt lat="47.50269" lon="6.77311">
        <ele>354.8</ele>
        <time>2017-03-26T09:40:58.000Z</time>
      </trkpt>
      <trkpt lat="47.50273" lon="6.77313">
        <ele>354.6</ele>
        <time>2017-03-26T09:40:59.000Z</time>
      </trkpt>
      <trkpt lat="47.50277" lon="6.77316">
        <ele>353.8</ele>
        <time>2017-03-26T09:41:00.000Z</time>
      </trkpt>
      <trkpt lat="47.50281" lon="6.77319">
        <ele>353</ele>
        <time>2017-03-26T09:41:01.000Z</time>
      </trkpt>
      <trkpt lat="47.50285" lon="6.77321">
        <ele>352.8</ele>
        <time>2017-03-26T09:41:02.000Z</time>
      </trkpt>
      <trkpt lat="47.5029" lon="6.77324">
        <ele>352.6</ele>
        <time>2017-03-26T09:41:03.000Z</time>
      </trkpt>
      <trkpt lat="47.50294" lon="6.77327">
        <ele>352.5</ele>
        <time>2017-03-26T09:41:04.000Z</time>
      </trkpt>
      <trkpt lat="47.50299" lon="6.7733">
        <ele>351.8</ele>
        <time>2017-03-26T09:41:05.000Z</time>
      </trkpt>
      <trkpt lat="47.50303" lon="6.77334">
        <ele>351.3</ele>
        <time>2017-03-26T09:41:06.000Z</time>
      </trkpt>
      <trkpt lat="47.50306" lon="6.77336">
        <ele>350.8</ele>
        <time>2017-03-26T09:41:07.000Z</time>
      </trkpt>
      <trkpt lat="47.5031" lon="6.77339">
        <ele>350.4</ele>
        <time>2017-03-26T09:41:08.000Z</time>
      </trkpt>
      <trkpt lat="47.50315" lon="6.77342">
        <ele>350</ele>
        <time>2017-03-26T09:41:09.000Z</time>
      </trkpt>
      <trkpt lat="47.5032" lon="6.77345">
        <ele>350</ele>
        <time>2017-03-26T09:41:10.000Z</time>
      </trkpt>
      <trkpt lat="47.50325" lon="6.77348">
        <ele>350.6</ele>
        <time>2017-03-26T09:41:11.000Z</time>
      </trkpt>
      <trkpt lat="47.50329" lon="6.77351">
        <ele>351</ele>
        <time>2017-03-26T09:41:12.000Z</time>
      </trkpt>
      <trkpt lat="47.50334" lon="6.77355">
        <ele>351.5</ele>
        <time>2017-03-26T09:41:13.000Z</time>
      </trkpt>
      <trkpt lat="47.50339" lon="6.77357">
        <ele>351.1</ele>
        <time>2017-03-26T09:41:14.000Z</time>
      </trkpt>
      <trkpt lat="47.50344" lon="6.77362">
        <ele>351.6</ele>
        <time>2017-03-26T09:41:15.000Z</time>
      </trkpt>
      <trkpt lat="47.50349" lon="6.77366">
        <ele>352</ele>
        <time>2017-03-26T09:41:16.000Z</time>
      </trkpt>
      <trkpt lat="47.50354" lon="6.7737">
        <ele>351.8</ele>
        <time>2017-03-26T09:41:17.000Z</time>
      </trkpt>
      <trkpt lat="47.50358" lon="6.77374">
        <ele>351.9</ele>
        <time>2017-03-26T09:41:18.000Z</time>
      </trkpt>
      <trkpt lat="47.50362" lon="6.77376">
        <ele>352.1</ele>
        <time>2017-03-26T09:41:19.000Z</time>
      </trkpt>
      <trkpt lat="47.50366" lon="6.7738">
        <ele>352.5</ele>
        <time>2017-03-26T09:41:20.000Z</time>
      </trkpt>
      <trkpt lat="47.5037" lon="6.77384">
        <ele>353</ele>
        <time>2017-03-26T09:41:21.000Z</time>
      </trkpt>
      <trkpt lat="47.50374" lon="6.77388">
        <ele>354.5</ele>
        <time>2017-03-26T09:41:22.000Z</time>
      </trkpt>
      <trkpt lat="47.50378" lon="6.77392">
        <ele>355.5</ele>
        <time>2017-03-26T09:41:23.000Z</time>
      </trkpt>
      <trkpt lat="47.50382" lon="6.77395">
        <ele>355.2</ele>
        <time>2017-03-26T09:41:24.000Z</time>
      </trkpt>
      <trkpt lat="47.50387" lon="6.77399">
        <ele>356.1</ele>
        <time>2017-03-26T09:41:25.000Z</time>
      </trkpt>
      <trkpt lat="47.50392" lon="6.77403">
        <ele>357.4</ele>
        <time>2017-03-26T09:41:26.000Z</time>
      </trkpt>
      <trkpt lat="47.50396" lon="6.77406">
        <ele>358.3</ele>
        <time>2017-03-26T09:41:27.000Z</time>
      </trkpt>
      <trkpt lat="47.504" lon="6.77409">
        <ele>358.7</ele>
        <time>2017-03-26T09:41:28.000Z</time>
      </trkpt>
      <trkpt lat="47.50405" lon="6.77413">
        <ele>359.3</ele>
        <time>2017-03-26T09:41:29.000Z</time>
      </trkpt>
      <trkpt lat="47.50409" lon="6.77416">
        <ele>359.5</ele>
        <time>2017-03-26T09:41:30.000Z</time>
      </trkpt>
      <trkpt lat="47.50412" lon="6.7742">
        <ele>359.3</ele>
        <time>2017-03-26T09:41:31.000Z</time>
      </trkpt>
      <trkpt lat="47.50416" lon="6.77424">
        <ele>359.1</ele>
        <time>2017-03-26T09:41:32.000Z</time>
      </trkpt>
      <trkpt lat="47.5042" lon="6.77427">
        <ele>359</ele>
        <time>2017-03-26T09:41:33.000Z</time>
      </trkpt>
      <trkpt lat="47.50423" lon="6.77431">
        <ele>358</ele>
        <time>2017-03-26T09:41:34.000Z</time>
      </trkpt>
      <trkpt lat="47.50427" lon="6.77436">
        <ele>357.3</ele>
        <time>2017-03-26T09:41:35.000Z</time>
      </trkpt>
      <trkpt lat="47.50431" lon="6.7744">
        <ele>356.7</ele>
        <time>2017-03-26T09:41:36.000Z</time>
      </trkpt>
      <trkpt lat="47.50435" lon="6.77444">
        <ele>356.1</ele>
        <time>2017-03-26T09:41:37.000Z</time>
      </trkpt>
      <trkpt lat="47.50438" lon="6.77448">
        <ele>355.4</ele>
        <time>2017-03-26T09:41:38.000Z</time>
      </trkpt>
      <trkpt lat="47.50442" lon="6.7745">
        <ele>354.8</ele>
        <time>2017-03-26T09:41:39.000Z</time>
      </trkpt>
      <trkpt lat="47.50446" lon="6.77454">
        <ele>354.1</ele>
        <time>2017-03-26T09:41:40.000Z</time>
      </trkpt>
      <trkpt lat="47.5045" lon="6.77458">
        <ele>353.3</ele>
        <time>2017-03-26T09:41:41.000Z</time>
      </trkpt>
      <trkpt lat="47.50454" lon="6.7746">
        <ele>352.5</ele>
        <time>2017-03-26T09:41:42.000Z</time>
      </trkpt>
      <trkpt lat="47.50458" lon="6.77464">
        <ele>352.4</ele>
        <time>2017-03-26T09:41:43.000Z</time>
      </trkpt>
      <trkpt lat="47.50463" lon="6.77468">
        <ele>352.4</ele>
        <time>2017-03-26T09:41:44.000Z</time>
      </trkpt>
      <trkpt lat="47.50468" lon="6.77472">
        <ele>352.9</ele>
        <time>2017-03-26T09:41:45.000Z</time>
      </trkpt>
      <trkpt lat="47.50473" lon="6.77475">
        <ele>351.8</ele>
        <time>2017-03-26T09:41:46.000Z</time>
      </trkpt>
      <trkpt lat="47.50476" lon="6.77479">
        <ele>351.7</ele>
        <time>2017-03-26T09:41:47.000Z</time>
      </trkpt>
      <trkpt lat="47.5048" lon="6.77483">
        <ele>351.5</ele>
        <time>2017-03-26T09:41:48.000Z</time>
      </trkpt>
      <trkpt lat="47.50484" lon="6.77487">
        <ele>350.5</ele>
        <time>2017-03-26T09:41:49.000Z</time>
      </trkpt>
      <trkpt lat="47.50487" lon="6.7749">
        <ele>349.5</ele>
        <time>2017-03-26T09:41:50.000Z</time>
      </trkpt>
      <trkpt lat="47.50491" lon="6.77493">
        <ele>349.2</ele>
        <time>2017-03-26T09:41:51.000Z</time>
      </trkpt>
      <trkpt lat="47.50495" lon="6.77496">
        <ele>348.4</ele>
        <time>2017-03-26T09:41:52.000Z</time>
      </trkpt>
      <trkpt lat="47.505" lon="6.77499">
        <ele>348.1</ele>
        <time>2017-03-26T09:41:53.000Z</time>
      </trkpt>
      <trkpt lat="47.50504" lon="6.77502">
        <ele>348.5</ele>
        <time>2017-03-26T09:41:54.000Z</time>
      </trkpt>
      <trkpt lat="47.50509" lon="6.77505">
        <ele>348</ele>
        <time>2017-03-26T09:41:55.000Z</time>
      </trkpt>
      <trkpt lat="47.50513" lon="6.77507">
        <ele>347.9</ele>
        <time>2017-03-26T09:41:56.000Z</time>
      </trkpt>
      <trkpt lat="47.50519" lon="6.77511">
        <ele>347.9</ele>
        <time>2017-03-26T09:41:57.000Z</time>
      </trkpt>
      <trkpt lat="47.50523" lon="6.77513">
        <ele>348</ele>
        <time>2017-03-26T09:41:58.000Z</time>
      </trkpt>
      <trkpt lat="47.50527" lon="6.77516">
        <ele>348.3</ele>
        <time>2017-03-26T09:41:59.000Z</time>
      </trkpt>
      <trkpt lat="47.50531" lon="6.77519">
        <ele>348.3</ele>
        <time>2017-03-26T09:42:00.000Z</time>
      </trkpt>
      <trkpt lat="47.50534" lon="6.77522">
        <ele>348.3</ele>
        <time>2017-03-26T09:42:01.000Z</time>
      </trkpt>
      <trkpt lat="47.50538" lon="6.77526">
        <ele>348.4</ele>
        <time>2017-03-26T09:42:02.000Z</time>
      </trkpt>
      <trkpt lat="47.50544" lon="6.77531">
        <ele>349.1</ele>
        <time>2017-03-26T09:42:03.000Z</time>
      </trkpt>
      <trkpt lat="47.50548" lon="6.77538">
        <ele>349.2</ele>
        <time>2017-03-26T09:42:04.000Z</time>
      </trkpt>
      <trkpt lat="47.50552" lon="6.77542">
        <ele>349.3</ele>
        <time>2017-03-26T09:42:05.000Z</time>
      </trkpt>
      <trkpt lat="47.50556" lon="6.77544">
        <ele>349.4</ele>
        <time>2017-03-26T09:42:06.000Z</time>
      </trkpt>
      <trkpt lat="47.50561" lon="6.77546">
        <ele>349.9</ele>
        <time>2017-03-26T09:42:07.000Z</time>
      </trkpt>
      <trkpt lat="47.50564" lon="6.77547">
        <ele>349.9</ele>
        <time>2017-03-26T09:42:08.000Z</time>
      </trkpt>
      <trkpt lat="47.50568" lon="6.77548">
        <ele>349.9</ele>
        <time>2017-03-26T09:42:09.000Z</time>
      </trkpt>
      <trkpt lat="47.50573" lon="6.7755">
        <ele>349.8</ele>
        <time>2017-03-26T09:42:10.000Z</time>
      </trkpt>
      <trkpt lat="47.50578" lon="6.77549">
        <ele>350</ele>
        <time>2017-03-26T09:42:11.000Z</time>
      </trkpt>
      <trkpt lat="47.5058" lon="6.77545">
        <ele>350.1</ele>
        <time>2017-03-26T09:42:12.000Z</time>
      </trkpt>
      <trkpt lat="47.50582" lon="6.77542">
        <ele>350.4</ele>
        <time>2017-03-26T09:42:14.000Z</time>
      </trkpt>
      <trkpt lat="47.50586" lon="6.77539">
        <ele>350.5</ele>
        <time>2017-03-26T09:42:15.000Z</time>
      </trkpt>
      <trkpt lat="47.5059" lon="6.77537">
        <ele>350.5</ele>
        <time>2017-03-26T09:42:16.000Z</time>
      </trkpt>
      <trkpt lat="47.50592" lon="6.77538">
        <ele>350.6</ele>
        <time>2017-03-26T09:42:17.000Z</time>
      </trkpt>
      <trkpt lat="47.50596" lon="6.7754">
        <ele>350.6</ele>
        <time>2017-03-26T09:42:18.000Z</time>
      </trkpt>
      <trkpt lat="47.506" lon="6.77541">
        <ele>350.7</ele>
        <time>2017-03-26T09:42:19.000Z</time>
      </trkpt>
      <trkpt lat="47.50605" lon="6.77542">
        <ele>351.3</ele>
        <time>2017-03-26T09:42:20.000Z</time>
      </trkpt>
      <trkpt lat="47.50609" lon="6.77541">
        <ele>351.3</ele>
        <time>2017-03-26T09:42:21.000Z</time>
      </trkpt>
      <trkpt lat="47.50614" lon="6.77541">
        <ele>351.3</ele>
        <time>2017-03-26T09:42:22.000Z</time>
      </trkpt>
      <trkpt lat="47.50619" lon="6.77541">
        <ele>352.2</ele>
        <time>2017-03-26T09:42:23.000Z</time>
      </trkpt>
      <trkpt lat="47.50624" lon="6.77541">
        <ele>352.3</ele>
        <time>2017-03-26T09:42:24.000Z</time>
      </trkpt>
      <trkpt lat="47.50628" lon="6.77538">
        <ele>352.4</ele>
        <time>2017-03-26T09:42:25.000Z</time>
      </trkpt>
      <trkpt lat="47.50632" lon="6.77536">
        <ele>352.7</ele>
        <time>2017-03-26T09:42:26.000Z</time>
      </trkpt>
      <trkpt lat="47.50637" lon="6.77537">
        <ele>353</ele>
        <time>2017-03-26T09:42:27.000Z</time>
      </trkpt>
      <trkpt lat="47.50642" lon="6.77537">
        <ele>352.9</ele>
        <time>2017-03-26T09:42:28.000Z</time>
      </trkpt>
      <trkpt lat="47.50647" lon="6.77538">
        <ele>352.8</ele>
        <time>2017-03-26T09:42:29.000Z</time>
      </trkpt>
      <trkpt lat="47.50651" lon="6.77538">
        <ele>352.8</ele>
        <time>2017-03-26T09:42:30.000Z</time>
      </trkpt>
      <trkpt lat="47.50656" lon="6.77537">
        <ele>352.8</ele>
        <time>2017-03-26T09:42:31.000Z</time>
      </trkpt>
      <trkpt lat="47.50662" lon="6.77537">
        <ele>352.7</ele>
        <time>2017-03-26T09:42:32.000Z</time>
      </trkpt>
      <trkpt lat="47.50668" lon="6.77537">
        <ele>352.8</ele>
        <time>2017-03-26T09:42:33.000Z</time>
      </trkpt>
      <trkpt lat="47.50675" lon="6.77535">
        <ele>352.9</ele>
        <time>2017-03-26T09:42:34.000Z</time>
      </trkpt>
      <trkpt lat="47.5068" lon="6.77533">
        <ele>353.5</ele>
        <time>2017-03-26T09:42:35.000Z</time>
      </trkpt>
      <trkpt lat="47.50685" lon="6.77532">
        <ele>354.7</ele>
        <time>2017-03-26T09:42:36.000Z</time>
      </trkpt>
      <trkpt lat="47.5069" lon="6.77531">
        <ele>355.9</ele>
        <time>2017-03-26T09:42:37.000Z</time>
      </trkpt>
      <trkpt lat="47.50695" lon="6.7753">
        <ele>357.4</ele>
        <time>2017-03-26T09:42:38.000Z</time>
      </trkpt>
      <trkpt lat="47.507" lon="6.7753">
        <ele>358.2</ele>
        <time>2017-03-26T09:42:39.000Z</time>
      </trkpt>
      <trkpt lat="47.50704" lon="6.7753">
        <ele>358.9</ele>
        <time>2017-03-26T09:42:40.000Z</time>
      </trkpt>
      <trkpt lat="47.50709" lon="6.77531">
        <ele>359.5</ele>
        <time>2017-03-26T09:42:41.000Z</time>
      </trkpt>
      <trkpt lat="47.50715" lon="6.77532">
        <ele>359.7</ele>
        <time>2017-03-26T09:42:42.000Z</time>
      </trkpt>
      <trkpt lat="47.50719" lon="6.77535">
        <ele>359.7</ele>
        <time>2017-03-26T09:42:43.000Z</time>
      </trkpt>
      <trkpt lat="47.50723" lon="6.77538">
        <ele>359.3</ele>
        <time>2017-03-26T09:42:44.000Z</time>
      </trkpt>
      <trkpt lat="47.50727" lon="6.77542">
        <ele>359.3</ele>
        <time>2017-03-26T09:42:45.000Z</time>
      </trkpt>
      <trkpt lat="47.50732" lon="6.77546">
        <ele>359.3</ele>
        <time>2017-03-26T09:42:46.000Z</time>
      </trkpt>
      <trkpt lat="47.50734" lon="6.7755">
        <ele>359.3</ele>
        <time>2017-03-26T09:42:47.000Z</time>
      </trkpt>
      <trkpt lat="47.50737" lon="6.77554">
        <ele>359.3</ele>
        <time>2017-03-26T09:42:48.000Z</time>
      </trkpt>
      <trkpt lat="47.50741" lon="6.77558">
        <ele>359.3</ele>
        <time>2017-03-26T09:42:49.000Z</time>
      </trkpt>
      <trkpt lat="47.50744" lon="6.77562">
        <ele>359.3</ele>
        <time>2017-03-26T09:42:50.000Z</time>
      </trkpt>
      <trkpt lat="47.50747" lon="6.77568">
        <ele>359.4</ele>
        <time>2017-03-26T09:42:51.000Z</time>
      </trkpt>
      <trkpt lat="47.50752" lon="6.77573">
        <ele>359.4</ele>
        <time>2017-03-26T09:42:52.000Z</time>
      </trkpt>
      <trkpt lat="47.50757" lon="6.77575">
        <ele>359.4</ele>
        <time>2017-03-26T09:42:53.000Z</time>
      </trkpt>
      <trkpt lat="47.50762" lon="6.77578">
        <ele>359.4</ele>
        <time>2017-03-26T09:42:54.000Z</time>
      </trkpt>
      <trkpt lat="47.5077" lon="6.77582">
        <ele>360.3</ele>
        <time>2017-03-26T09:42:55.000Z</time>
      </trkpt>
      <trkpt lat="47.50775" lon="6.77584">
        <ele>360.3</ele>
        <time>2017-03-26T09:42:56.000Z</time>
      </trkpt>
      <trkpt lat="47.50779" lon="6.77587">
        <ele>360.2</ele>
        <time>2017-03-26T09:42:57.000Z</time>
      </trkpt>
      <trkpt lat="47.50782" lon="6.77589">
        <ele>360.1</ele>
        <time>2017-03-26T09:42:58.000Z</time>
      </trkpt>
      <trkpt lat="47.50785" lon="6.77594">
        <ele>360.1</ele>
        <time>2017-03-26T09:42:59.000Z</time>
      </trkpt>
      <trkpt lat="47.50787" lon="6.77597">
        <ele>360.1</ele>
        <time>2017-03-26T09:43:00.000Z</time>
      </trkpt>
      <trkpt lat="47.5079" lon="6.77601">
        <ele>360</ele>
        <time>2017-03-26T09:43:01.000Z</time>
      </trkpt>
      <trkpt lat="47.50792" lon="6.77605">
        <ele>359.9</ele>
        <time>2017-03-26T09:43:02.000Z</time>
      </trkpt>
      <trkpt lat="47.50794" lon="6.77608">
        <ele>359.8</ele>
        <time>2017-03-26T09:43:03.000Z</time>
      </trkpt>
      <trkpt lat="47.50797" lon="6.77612">
        <ele>359.7</ele>
        <time>2017-03-26T09:43:04.000Z</time>
      </trkpt>
      <trkpt lat="47.50802" lon="6.77615">
        <ele>357.9</ele>
        <time>2017-03-26T09:43:05.000Z</time>
      </trkpt>
      <trkpt lat="47.50803" lon="6.77618">
        <ele>357.8</ele>
        <time>2017-03-26T09:43:06.000Z</time>
      </trkpt>
      <trkpt lat="47.50805" lon="6.77621">
        <ele>357.6</ele>
        <time>2017-03-26T09:43:07.000Z</time>
      </trkpt>
      <trkpt lat="47.50809" lon="6.77623">
        <ele>357.3</ele>
        <time>2017-03-26T09:43:08.000Z</time>
      </trkpt>
      <trkpt lat="47.50813" lon="6.77625">
        <ele>357</ele>
        <time>2017-03-26T09:43:09.000Z</time>
      </trkpt>
      <trkpt lat="47.50816" lon="6.7763">
        <ele>356.8</ele>
        <time>2017-03-26T09:43:10.000Z</time>
      </trkpt>
      <trkpt lat="47.5082" lon="6.77634">
        <ele>356.5</ele>
        <time>2017-03-26T09:43:11.000Z</time>
      </trkpt>
      <trkpt lat="47.50823" lon="6.77636">
        <ele>356.1</ele>
        <time>2017-03-26T09:43:12.000Z</time>
      </trkpt>
      <trkpt lat="47.50828" lon="6.77642">
        <ele>355.9</ele>
        <time>2017-03-26T09:43:13.000Z</time>
      </trkpt>
      <trkpt lat="47.50833" lon="6.77648">
        <ele>355.6</ele>
        <time>2017-03-26T09:43:14.000Z</time>
      </trkpt>
      <trkpt lat="47.50836" lon="6.77652">
        <ele>355.4</ele>
        <time>2017-03-26T09:43:15.000Z</time>
      </trkpt>
      <trkpt lat="47.50838" lon="6.77654">
        <ele>355</ele>
        <time>2017-03-26T09:43:16.000Z</time>
      </trkpt>
      <trkpt lat="47.50842" lon="6.77658">
        <ele>354.6</ele>
        <time>2017-03-26T09:43:17.000Z</time>
      </trkpt>
      <trkpt lat="47.50845" lon="6.77663">
        <ele>354.2</ele>
        <time>2017-03-26T09:43:18.000Z</time>
      </trkpt>
      <trkpt lat="47.50851" lon="6.77669">
        <ele>353.8</ele>
        <time>2017-03-26T09:43:19.000Z</time>
      </trkpt>
      <trkpt lat="47.50857" lon="6.77674">
        <ele>353.3</ele>
        <time>2017-03-26T09:43:20.000Z</time>
      </trkpt>
      <trkpt lat="47.50862" lon="6.77681">
        <ele>347.6</ele>
        <time>2017-03-26T09:43:21.000Z</time>
      </trkpt>
      <trkpt lat="47.50866" lon="6.77687">
        <ele>347.2</ele>
        <time>2017-03-26T09:43:22.000Z</time>
      </trkpt>
      <trkpt lat="47.5087" lon="6.77692">
        <ele>347</ele>
        <time>2017-03-26T09:43:23.000Z</time>
      </trkpt>
      <trkpt lat="47.50875" lon="6.77697">
        <ele>346.8</ele>
        <time>2017-03-26T09:43:24.000Z</time>
      </trkpt>
      <trkpt lat="47.50882" lon="6.77701">
        <ele>346.7</ele>
        <time>2017-03-26T09:43:25.000Z</time>
      </trkpt>
      <trkpt lat="47.50887" lon="6.77702">
        <ele>346.2</ele>
        <time>2017-03-26T09:43:26.000Z</time>
      </trkpt>
      <trkpt lat="47.50892" lon="6.77701">
        <ele>346.2</ele>
        <time>2017-03-26T09:43:27.000Z</time>
      </trkpt>
      <trkpt lat="47.50896" lon="6.77701">
        <ele>346.3</ele>
        <time>2017-03-26T09:43:28.000Z</time>
      </trkpt>
      <trkpt lat="47.50899" lon="6.77701">
        <ele>346.4</ele>
        <time>2017-03-26T09:43:29.000Z</time>
      </trkpt>
      <trkpt lat="47.50903" lon="6.777">
        <ele>346.5</ele>
        <time>2017-03-26T09:43:30.000Z</time>
      </trkpt>
      <trkpt lat="47.50908" lon="6.777">
        <ele>346.6</ele>
        <time>2017-03-26T09:43:31.000Z</time>
      </trkpt>
      <trkpt lat="47.50912" lon="6.777">
        <ele>346.7</ele>
        <time>2017-03-26T09:43:32.000Z</time>
      </trkpt>
      <trkpt lat="47.50916" lon="6.777">
        <ele>347.3</ele>
        <time>2017-03-26T09:43:33.000Z</time>
      </trkpt>
      <trkpt lat="47.50918" lon="6.777">
        <ele>347.4</ele>
        <time>2017-03-26T09:43:34.000Z</time>
      </trkpt>
      <trkpt lat="47.50923" lon="6.777">
        <ele>347.6</ele>
        <time>2017-03-26T09:43:35.000Z</time>
      </trkpt>
      <trkpt lat="47.50927" lon="6.77701">
        <ele>347.7</ele>
        <time>2017-03-26T09:43:36.000Z</time>
      </trkpt>
      <trkpt lat="47.5093" lon="6.77701">
        <ele>347.9</ele>
        <time>2017-03-26T09:43:37.000Z</time>
      </trkpt>
      <trkpt lat="47.50932" lon="6.77701">
        <ele>348</ele>
        <time>2017-03-26T09:43:38.000Z</time>
      </trkpt>
      <trkpt lat="47.50936" lon="6.77701">
        <ele>348.2</ele>
        <time>2017-03-26T09:43:40.000Z</time>
      </trkpt>
      <trkpt lat="47.50937" lon="6.777">
        <ele>348.4</ele>
        <time>2017-03-26T09:43:41.000Z</time>
      </trkpt>
      <trkpt lat="47.50937" lon="6.777">
        <ele>351.2</ele>
        <time>2017-03-26T09:44:07.000Z</time>
      </trkpt>
      <trkpt lat="47.5095" lon="6.777">
        <ele>351.5</ele>
        <time>2017-03-26T09:44:08.000Z</time>
      </trkpt>
      <trkpt lat="47.50953" lon="6.77697">
        <ele>351.8</ele>
        <time>2017-03-26T09:44:09.000Z</time>
      </trkpt>
      <trkpt lat="47.50956" lon="6.77693">
        <ele>352</ele>
        <time>2017-03-26T09:44:10.000Z</time>
      </trkpt>
      <trkpt lat="47.5096" lon="6.77693">
        <ele>352.2</ele>
        <time>2017-03-26T09:44:11.000Z</time>
      </trkpt>
      <trkpt lat="47.50963" lon="6.77696">
        <ele>352.3</ele>
        <time>2017-03-26T09:44:12.000Z</time>
      </trkpt>
      <trkpt lat="47.50964" lon="6.77699">
        <ele>352.8</ele>
        <time>2017-03-26T09:44:13.000Z</time>
      </trkpt>
      <trkpt lat="47.50967" lon="6.77698">
        <ele>352.9</ele>
        <time>2017-03-26T09:44:14.000Z</time>
      </trkpt>
      <trkpt lat="47.50972" lon="6.77699">
        <ele>352.8</ele>
        <time>2017-03-26T09:44:15.000Z</time>
      </trkpt>
      <trkpt lat="47.50975" lon="6.77701">
        <ele>352.9</ele>
        <time>2017-03-26T09:44:16.000Z</time>
      </trkpt>
      <trkpt lat="47.50978" lon="6.77704">
        <ele>353.1</ele>
        <time>2017-03-26T09:44:17.000Z</time>
      </trkpt>
      <trkpt lat="47.5098" lon="6.77708">
        <ele>353.3</ele>
        <time>2017-03-26T09:44:18.000Z</time>
      </trkpt>
      <trkpt lat="47.50983" lon="6.77711">
        <ele>353.4</ele>
        <time>2017-03-26T09:44:19.000Z</time>
      </trkpt>
      <trkpt lat="47.50986" lon="6.77714">
        <ele>353.5</ele>
        <time>2017-03-26T09:44:20.000Z</time>
      </trkpt>
      <trkpt lat="47.50988" lon="6.77717">
        <ele>353.6</ele>
        <time>2017-03-26T09:44:21.000Z</time>
      </trkpt>
      <trkpt lat="47.50991" lon="6.77721">
        <ele>353.5</ele>
        <time>2017-03-26T09:44:22.000Z</time>
      </trkpt>
      <trkpt lat="47.50994" lon="6.77725">
        <ele>353.6</ele>
        <time>2017-03-26T09:44:23.000Z</time>
      </trkpt>
      <trkpt lat="47.50998" lon="6.77732">
        <ele>353.5</ele>
        <time>2017-03-26T09:44:24.000Z</time>
      </trkpt>
      <trkpt lat="47.50998" lon="6.77732">
        <ele>352.3</ele>
        <time>2017-03-26T09:44:30.000Z</time>
      </trkpt>
      <trkpt lat="47.51008" lon="6.77742">
        <ele>352.2</ele>
        <time>2017-03-26T09:44:31.000Z</time>
      </trkpt>
      <trkpt lat="47.51012" lon="6.77745">
        <ele>352.2</ele>
        <time>2017-03-26T09:44:32.000Z</time>
      </trkpt>
      <trkpt lat="47.51016" lon="6.77749">
        <ele>352.2</ele>
        <time>2017-03-26T09:44:33.000Z</time>
      </trkpt>
      <trkpt lat="47.51019" lon="6.77753">
        <ele>352.3</ele>
        <time>2017-03-26T09:44:34.000Z</time>
      </trkpt>
      <trkpt lat="47.51022" lon="6.77755">
        <ele>352.4</ele>
        <time>2017-03-26T09:44:35.000Z</time>
      </trkpt>
      <trkpt lat="47.51031" lon="6.7776">
        <ele>352.4</ele>
        <time>2017-03-26T09:44:36.000Z</time>
      </trkpt>
      <trkpt lat="47.51038" lon="6.77763">
        <ele>352.6</ele>
        <time>2017-03-26T09:44:37.000Z</time>
      </trkpt>
      <trkpt lat="47.51043" lon="6.77767">
        <ele>352.7</ele>
        <time>2017-03-26T09:44:38.000Z</time>
      </trkpt>
      <trkpt lat="47.51047" lon="6.77769">
        <ele>352.8</ele>
        <time>2017-03-26T09:44:39.000Z</time>
      </trkpt>
      <trkpt lat="47.51051" lon="6.77772">
        <ele>353</ele>
        <time>2017-03-26T09:44:40.000Z</time>
      </trkpt>
      <trkpt lat="47.51054" lon="6.77773">
        <ele>353.1</ele>
        <time>2017-03-26T09:44:41.000Z</time>
      </trkpt>
      <trkpt lat="47.51057" lon="6.77773">
        <ele>353.2</ele>
        <time>2017-03-26T09:44:42.000Z</time>
      </trkpt>
      <trkpt lat="47.51062" lon="6.77773">
        <ele>353.2</ele>
        <time>2017-03-26T09:44:43.000Z</time>
      </trkpt>
      <trkpt lat="47.51066" lon="6.77773">
        <ele>353.3</ele>
        <time>2017-03-26T09:44:44.000Z</time>
      </trkpt>
      <trkpt lat="47.51068" lon="6.77773">
        <ele>353.5</ele>
        <time>2017-03-26T09:44:45.000Z</time>
      </trkpt>
      <trkpt lat="47.51071" lon="6.77774">
        <ele>353.7</ele>
        <time>2017-03-26T09:44:46.000Z</time>
      </trkpt>
      <trkpt lat="47.51074" lon="6.77774">
        <ele>353.9</ele>
        <time>2017-03-26T09:44:47.000Z</time>
      </trkpt>
      <trkpt lat="47.51079" lon="6.77776">
        <ele>355.9</ele>
        <time>2017-03-26T09:44:48.000Z</time>
      </trkpt>
      <trkpt lat="47.51082" lon="6.77777">
        <ele>356</ele>
        <time>2017-03-26T09:44:49.000Z</time>
      </trkpt>
      <trkpt lat="47.51085" lon="6.77778">
        <ele>356.2</ele>
        <time>2017-03-26T09:44:50.000Z</time>
      </trkpt>
      <trkpt lat="47.51088" lon="6.7778">
        <ele>356.4</ele>
        <time>2017-03-26T09:44:51.000Z</time>
      </trkpt>
      <trkpt lat="47.51091" lon="6.7778">
        <ele>356.6</ele>
        <time>2017-03-26T09:44:52.000Z</time>
      </trkpt>
      <trkpt lat="47.51094" lon="6.77781">
        <ele>356.8</ele>
        <time>2017-03-26T09:44:53.000Z</time>
      </trkpt>
      <trkpt lat="47.511" lon="6.77781">
        <ele>357</ele>
        <time>2017-03-26T09:44:54.000Z</time>
      </trkpt>
      <trkpt lat="47.51104" lon="6.77781">
        <ele>357.2</ele>
        <time>2017-03-26T09:44:55.000Z</time>
      </trkpt>
      <trkpt lat="47.5111" lon="6.77782">
        <ele>357.5</ele>
        <time>2017-03-26T09:44:56.000Z</time>
      </trkpt>
      <trkpt lat="47.51115" lon="6.77783">
        <ele>357.7</ele>
        <time>2017-03-26T09:44:57.000Z</time>
      </trkpt>
      <trkpt lat="47.5112" lon="6.77783">
        <ele>358</ele>
        <time>2017-03-26T09:44:58.000Z</time>
      </trkpt>
      <trkpt lat="47.51124" lon="6.77783">
        <ele>358.2</ele>
        <time>2017-03-26T09:44:59.000Z</time>
      </trkpt>
      <trkpt lat="47.51127" lon="6.77783">
        <ele>358.5</ele>
        <time>2017-03-26T09:45:00.000Z</time>
      </trkpt>
      <trkpt lat="47.5113" lon="6.77784">
        <ele>358.9</ele>
        <time>2017-03-26T09:45:01.000Z</time>
      </trkpt>
      <trkpt lat="47.51133" lon="6.77784">
        <ele>359.2</ele>
        <time>2017-03-26T09:45:02.000Z</time>
      </trkpt>
      <trkpt lat="47.51136" lon="6.77785">
        <ele>359.5</ele>
        <time>2017-03-26T09:45:03.000Z</time>
      </trkpt>
      <trkpt lat="47.51139" lon="6.77786">
        <ele>359.8</ele>
        <time>2017-03-26T09:45:04.000Z</time>
      </trkpt>
      <trkpt lat="47.51141" lon="6.77786">
        <ele>360.1</ele>
        <time>2017-03-26T09:45:05.000Z</time>
      </trkpt>
      <trkpt lat="47.51143" lon="6.77786">
        <ele>360.4</ele>
        <time>2017-03-26T09:45:06.000Z</time>
      </trkpt>
      <trkpt lat="47.51146" lon="6.77786">
        <ele>360.7</ele>
        <time>2017-03-26T09:45:07.000Z</time>
      </trkpt>
      <trkpt lat="47.5115" lon="6.77786">
        <ele>361.4</ele>
        <time>2017-03-26T09:45:09.000Z</time>
      </trkpt>
      <trkpt lat="47.51153" lon="6.77787">
        <ele>361.7</ele>
        <time>2017-03-26T09:45:10.000Z</time>
      </trkpt>
      <trkpt lat="47.51155" lon="6.77787">
        <ele>361.9</ele>
        <time>2017-03-26T09:45:11.000Z</time>
      </trkpt>
      <trkpt lat="47.51158" lon="6.77787">
        <ele>362.1</ele>
        <time>2017-03-26T09:45:12.000Z</time>
      </trkpt>
      <trkpt lat="47.5116" lon="6.77788">
        <ele>362.3</ele>
        <time>2017-03-26T09:45:13.000Z</time>
      </trkpt>
      <trkpt lat="47.51163" lon="6.77788">
        <ele>362.5</ele>
        <time>2017-03-26T09:45:14.000Z</time>
      </trkpt>
      <trkpt lat="47.51166" lon="6.77788">
        <ele>362.6</ele>
        <time>2017-03-26T09:45:15.000Z</time>
      </trkpt>
      <trkpt lat="47.51169" lon="6.77787">
        <ele>362.7</ele>
        <time>2017-03-26T09:45:16.000Z</time>
      </trkpt>
      <trkpt lat="47.51172" lon="6.77786">
        <ele>362.8</ele>
        <time>2017-03-26T09:45:17.000Z</time>
      </trkpt>
      <trkpt lat="47.51175" lon="6.77785">
        <ele>362.8</ele>
        <time>2017-03-26T09:45:18.000Z</time>
      </trkpt>
      <trkpt lat="47.51177" lon="6.77785">
        <ele>362.9</ele>
        <time>2017-03-26T09:45:19.000Z</time>
      </trkpt>
      <trkpt lat="47.5118" lon="6.77784">
        <ele>363</ele>
        <time>2017-03-26T09:45:20.000Z</time>
      </trkpt>
      <trkpt lat="47.51183" lon="6.77784">
        <ele>363.2</ele>
        <time>2017-03-26T09:45:21.000Z</time>
      </trkpt>
      <trkpt lat="47.51185" lon="6.77784">
        <ele>363.4</ele>
        <time>2017-03-26T09:45:22.000Z</time>
      </trkpt>
      <trkpt lat="47.51189" lon="6.77785">
        <ele>363.7</ele>
        <time>2017-03-26T09:45:24.000Z</time>
      </trkpt>
      <trkpt lat="47.51191" lon="6.77785">
        <ele>364</ele>
        <time>2017-03-26T09:45:25.000Z</time>
      </trkpt>
      <trkpt lat="47.51193" lon="6.77785">
        <ele>364.3</ele>
        <time>2017-03-26T09:45:26.000Z</time>
      </trkpt>
      <trkpt lat="47.51195" lon="6.77784">
        <ele>364.4</ele>
        <time>2017-03-26T09:45:27.000Z</time>
      </trkpt>
      <trkpt lat="47.51198" lon="6.77784">
        <ele>364.5</ele>
        <time>2017-03-26T09:45:28.000Z</time>
      </trkpt>
      <trkpt lat="47.512" lon="6.77784">
        <ele>364.6</ele>
        <time>2017-03-26T09:45:29.000Z</time>
      </trkpt>
      <trkpt lat="47.51203" lon="6.77785">
        <ele>364.7</ele>
        <time>2017-03-26T09:45:30.000Z</time>
      </trkpt>
      <trkpt lat="47.51205" lon="6.77786">
        <ele>364.8</ele>
        <time>2017-03-26T09:45:31.000Z</time>
      </trkpt>
      <trkpt lat="47.51209" lon="6.77786">
        <ele>364.8</ele>
        <time>2017-03-26T09:45:33.000Z</time>
      </trkpt>
      <trkpt lat="47.51211" lon="6.77785">
        <ele>364.9</ele>
        <time>2017-03-26T09:45:34.000Z</time>
      </trkpt>
      <trkpt lat="47.51215" lon="6.77783">
        <ele>365.2</ele>
        <time>2017-03-26T09:45:37.000Z</time>
      </trkpt>
      <trkpt lat="47.51216" lon="6.77783">
        <ele>365.4</ele>
        <time>2017-03-26T09:45:38.000Z</time>
      </trkpt>
      <trkpt lat="47.51219" lon="6.77783">
        <ele>365.8</ele>
        <time>2017-03-26T09:45:41.000Z</time>
      </trkpt>
      <trkpt lat="47.51221" lon="6.77783">
        <ele>366</ele>
        <time>2017-03-26T09:45:42.000Z</time>
      </trkpt>
      <trkpt lat="47.51225" lon="6.77782">
        <ele>366.4</ele>
        <time>2017-03-26T09:45:44.000Z</time>
      </trkpt>
      <trkpt lat="47.51227" lon="6.77782">
        <ele>366.5</ele>
        <time>2017-03-26T09:45:45.000Z</time>
      </trkpt>
      <trkpt lat="47.5123" lon="6.77781">
        <ele>366.7</ele>
        <time>2017-03-26T09:45:47.000Z</time>
      </trkpt>
      <trkpt lat="47.51232" lon="6.77781">
        <ele>366.9</ele>
        <time>2017-03-26T09:45:48.000Z</time>
      </trkpt>
      <trkpt lat="47.51236" lon="6.77782">
        <ele>367.3</ele>
        <time>2017-03-26T09:45:50.000Z</time>
      </trkpt>
      <trkpt lat="47.51238" lon="6.77782">
        <ele>367.5</ele>
        <time>2017-03-26T09:45:51.000Z</time>
      </trkpt>
      <trkpt lat="47.5124" lon="6.77782">
        <ele>367.9</ele>
        <time>2017-03-26T09:45:53.000Z</time>
      </trkpt>
      <trkpt lat="47.51242" lon="6.77782">
        <ele>368.1</ele>
        <time>2017-03-26T09:45:54.000Z</time>
      </trkpt>
      <trkpt lat="47.51245" lon="6.7778">
        <ele>368.5</ele>
        <time>2017-03-26T09:45:56.000Z</time>
      </trkpt>
      <trkpt lat="47.51247" lon="6.7778">
        <ele>368.7</ele>
        <time>2017-03-26T09:45:57.000Z</time>
      </trkpt>
      <trkpt lat="47.51249" lon="6.7778">
        <ele>368.8</ele>
        <time>2017-03-26T09:45:59.000Z</time>
      </trkpt>
      <trkpt lat="47.51253" lon="6.77779">
        <ele>369</ele>
        <time>2017-03-26T09:46:00.000Z</time>
      </trkpt>
      <trkpt lat="47.51255" lon="6.7778">
        <ele>369.1</ele>
        <time>2017-03-26T09:46:01.000Z</time>
      </trkpt>
      <trkpt lat="47.51257" lon="6.77781">
        <ele>369.3</ele>
        <time>2017-03-26T09:46:02.000Z</time>
      </trkpt>
      <trkpt lat="47.5126" lon="6.77781">
        <ele>369.8</ele>
        <time>2017-03-26T09:46:06.000Z</time>
      </trkpt>
      <trkpt lat="47.51262" lon="6.7778">
        <ele>370</ele>
        <time>2017-03-26T09:46:07.000Z</time>
      </trkpt>
      <trkpt lat="47.51264" lon="6.77779">
        <ele>370.5</ele>
        <time>2017-03-26T09:46:09.000Z</time>
      </trkpt>
      <trkpt lat="47.51267" lon="6.77779">
        <ele>370.6</ele>
        <time>2017-03-26T09:46:10.000Z</time>
      </trkpt>
      <trkpt lat="47.51271" lon="6.77779">
        <ele>371</ele>
        <time>2017-03-26T09:46:12.000Z</time>
      </trkpt>
      <trkpt lat="47.51273" lon="6.77779">
        <ele>371.2</ele>
        <time>2017-03-26T09:46:13.000Z</time>
      </trkpt>
      <trkpt lat="47.51277" lon="6.77778">
        <ele>372.1</ele>
        <time>2017-03-26T09:46:16.000Z</time>
      </trkpt>
      <trkpt lat="47.51279" lon="6.77778">
        <ele>372.5</ele>
        <time>2017-03-26T09:46:17.000Z</time>
      </trkpt>
      <trkpt lat="47.51281" lon="6.77779">
        <ele>372.7</ele>
        <time>2017-03-26T09:46:18.000Z</time>
      </trkpt>
      <trkpt lat="47.51284" lon="6.77779">
        <ele>373</ele>
        <time>2017-03-26T09:46:19.000Z</time>
      </trkpt>
      <trkpt lat="47.51288" lon="6.77778">
        <ele>373.8</ele>
        <time>2017-03-26T09:46:21.000Z</time>
      </trkpt>
      <trkpt lat="47.51291" lon="6.77778">
        <ele>374.2</ele>
        <time>2017-03-26T09:46:22.000Z</time>
      </trkpt>
      <trkpt lat="47.51294" lon="6.77778">
        <ele>374.4</ele>
        <time>2017-03-26T09:46:23.000Z</time>
      </trkpt>
      <trkpt lat="47.51296" lon="6.77778">
        <ele>374.7</ele>
        <time>2017-03-26T09:46:24.000Z</time>
      </trkpt>
      <trkpt lat="47.513" lon="6.77776">
        <ele>375.1</ele>
        <time>2017-03-26T09:46:26.000Z</time>
      </trkpt>
      <trkpt lat="47.51301" lon="6.77775">
        <ele>375.3</ele>
        <time>2017-03-26T09:46:27.000Z</time>
      </trkpt>
      <trkpt lat="47.51304" lon="6.77775">
        <ele>375.7</ele>
        <time>2017-03-26T09:46:29.000Z</time>
      </trkpt>
      <trkpt lat="47.51306" lon="6.77775">
        <ele>375.9</ele>
        <time>2017-03-26T09:46:30.000Z</time>
      </trkpt>
      <trkpt lat="47.5131" lon="6.77776">
        <ele>376.2</ele>
        <time>2017-03-26T09:46:32.000Z</time>
      </trkpt>
      <trkpt lat="47.51312" lon="6.77776">
        <ele>376.2</ele>
        <time>2017-03-26T09:46:33.000Z</time>
      </trkpt>
      <trkpt lat="47.51315" lon="6.77774">
        <ele>376.4</ele>
        <time>2017-03-26T09:46:35.000Z</time>
      </trkpt>
      <trkpt lat="47.51317" lon="6.77774">
        <ele>376.5</ele>
        <time>2017-03-26T09:46:36.000Z</time>
      </trkpt>
      <trkpt lat="47.51319" lon="6.77774">
        <ele>376.5</ele>
        <time>2017-03-26T09:46:37.000Z</time>
      </trkpt>
      <trkpt lat="47.51321" lon="6.77774">
        <ele>376.6</ele>
        <time>2017-03-26T09:46:38.000Z</time>
      </trkpt>
      <trkpt lat="47.51325" lon="6.77773">
        <ele>376.9</ele>
        <time>2017-03-26T09:46:40.000Z</time>
      </trkpt>
      <trkpt lat="47.51326" lon="6.77773">
        <ele>377.1</ele>
        <time>2017-03-26T09:46:41.000Z</time>
      </trkpt>
      <trkpt lat="47.5133" lon="6.77774">
        <ele>377.5</ele>
        <time>2017-03-26T09:46:45.000Z</time>
      </trkpt>
      <trkpt lat="47.51331" lon="6.77775">
        <ele>377.6</ele>
        <time>2017-03-26T09:46:46.000Z</time>
      </trkpt>
      <trkpt lat="47.51335" lon="6.77777">
        <ele>377.6</ele>
        <time>2017-03-26T09:46:50.000Z</time>
      </trkpt>
      <trkpt lat="47.51336" lon="6.77777">
        <ele>377.7</ele>
        <time>2017-03-26T09:46:51.000Z</time>
      </trkpt>
      <trkpt lat="47.51341" lon="6.77778">
        <ele>377.7</ele>
        <time>2017-03-26T09:46:53.000Z</time>
      </trkpt>
      <trkpt lat="47.51342" lon="6.77777">
        <ele>377.7</ele>
        <time>2017-03-26T09:46:54.000Z</time>
      </trkpt>
      <trkpt lat="47.51344" lon="6.77776">
        <ele>377.7</ele>
        <time>2017-03-26T09:46:55.000Z</time>
      </trkpt>
      <trkpt lat="47.51346" lon="6.77774">
        <ele>377.8</ele>
        <time>2017-03-26T09:46:56.000Z</time>
      </trkpt>
      <trkpt lat="47.51349" lon="6.77772">
        <ele>378</ele>
        <time>2017-03-26T09:46:57.000Z</time>
      </trkpt>
      <trkpt lat="47.51351" lon="6.7777">
        <ele>378.2</ele>
        <time>2017-03-26T09:46:58.000Z</time>
      </trkpt>
      <trkpt lat="47.51352" lon="6.77768">
        <ele>378.3</ele>
        <time>2017-03-26T09:46:59.000Z</time>
      </trkpt>
      <trkpt lat="47.51356" lon="6.77766">
        <ele>378.5</ele>
        <time>2017-03-26T09:47:00.000Z</time>
      </trkpt>
      <trkpt lat="47.5136" lon="6.77765">
        <ele>379</ele>
        <time>2017-03-26T09:47:02.000Z</time>
      </trkpt>
      <trkpt lat="47.51361" lon="6.77764">
        <ele>379.2</ele>
        <time>2017-03-26T09:47:03.000Z</time>
      </trkpt>
      <trkpt lat="47.51363" lon="6.77763">
        <ele>379.5</ele>
        <time>2017-03-26T09:47:04.000Z</time>
      </trkpt>
      <trkpt lat="47.51365" lon="6.77761">
        <ele>379.7</ele>
        <time>2017-03-26T09:47:05.000Z</time>
      </trkpt>
      <trkpt lat="47.51369" lon="6.77757">
        <ele>380.6</ele>
        <time>2017-03-26T09:47:09.000Z</time>
      </trkpt>
      <trkpt lat="47.5137" lon="6.77756">
        <ele>380.9</ele>
        <time>2017-03-26T09:47:10.000Z</time>
      </trkpt>
      <trkpt lat="47.51374" lon="6.77756">
        <ele>381.2</ele>
        <time>2017-03-26T09:47:12.000Z</time>
      </trkpt>
      <trkpt lat="47.51376" lon="6.77756">
        <ele>381.4</ele>
        <time>2017-03-26T09:47:13.000Z</time>
      </trkpt>
      <trkpt lat="47.51379" lon="6.77756">
        <ele>381.9</ele>
        <time>2017-03-26T09:47:15.000Z</time>
      </trkpt>
      <trkpt lat="47.51381" lon="6.77755">
        <ele>382.1</ele>
        <time>2017-03-26T09:47:16.000Z</time>
      </trkpt>
      <trkpt lat="47.51385" lon="6.77755">
        <ele>382.6</ele>
        <time>2017-03-26T09:47:18.000Z</time>
      </trkpt>
      <trkpt lat="47.51386" lon="6.77754">
        <ele>382.7</ele>
        <time>2017-03-26T09:47:19.000Z</time>
      </trkpt>
      <trkpt lat="47.51389" lon="6.77751">
        <ele>383</ele>
        <time>2017-03-26T09:47:22.000Z</time>
      </trkpt>
      <trkpt lat="47.5139" lon="6.77751">
        <ele>383</ele>
        <time>2017-03-26T09:47:23.000Z</time>
      </trkpt>
      <trkpt lat="47.51394" lon="6.7775">
        <ele>383.1</ele>
        <time>2017-03-26T09:47:25.000Z</time>
      </trkpt>
      <trkpt lat="47.51395" lon="6.77749">
        <ele>383.1</ele>
        <time>2017-03-26T09:47:26.000Z</time>
      </trkpt>
      <trkpt lat="47.51398" lon="6.77748">
        <ele>383.1</ele>
        <time>2017-03-26T09:47:27.999Z</time>
      </trkpt>
      <trkpt lat="47.514" lon="6.77747">
        <ele>383.2</ele>
        <time>2017-03-26T09:47:28.999Z</time>
      </trkpt>
      <trkpt lat="47.51404" lon="6.77745">
        <ele>383.4</ele>
        <time>2017-03-26T09:47:31.999Z</time>
      </trkpt>
      <trkpt lat="47.51406" lon="6.77746">
        <ele>383.6</ele>
        <time>2017-03-26T09:47:32.999Z</time>
      </trkpt>
      <trkpt lat="47.5141" lon="6.77744">
        <ele>384</ele>
        <time>2017-03-26T09:47:35.999Z</time>
      </trkpt>
      <trkpt lat="47.51412" lon="6.77743">
        <ele>384.3</ele>
        <time>2017-03-26T09:47:36.999Z</time>
      </trkpt>
      <trkpt lat="47.51414" lon="6.7774">
        <ele>384.7</ele>
        <time>2017-03-26T09:47:38.999Z</time>
      </trkpt>
      <trkpt lat="47.51416" lon="6.77737">
        <ele>384.9</ele>
        <time>2017-03-26T09:47:39.999Z</time>
      </trkpt>
      <trkpt lat="47.51418" lon="6.77735">
        <ele>385.3</ele>
        <time>2017-03-26T09:47:40.999Z</time>
      </trkpt>
      <trkpt lat="47.5142" lon="6.77733">
        <ele>385.7</ele>
        <time>2017-03-26T09:47:41.999Z</time>
      </trkpt>
      <trkpt lat="47.51423" lon="6.7773">
        <ele>386.6</ele>
        <time>2017-03-26T09:47:43.999Z</time>
      </trkpt>
      <trkpt lat="47.51424" lon="6.77728">
        <ele>387.1</ele>
        <time>2017-03-26T09:47:44.999Z</time>
      </trkpt>
      <trkpt lat="47.51427" lon="6.77727">
        <ele>389.1</ele>
        <time>2017-03-26T09:47:50.999Z</time>
      </trkpt>
      <trkpt lat="47.51429" lon="6.77726">
        <ele>389.4</ele>
        <time>2017-03-26T09:47:51.999Z</time>
      </trkpt>
      <trkpt lat="47.51433" lon="6.77727">
        <ele>390.1</ele>
        <time>2017-03-26T09:47:54.999Z</time>
      </trkpt>
      <trkpt lat="47.51434" lon="6.77727">
        <ele>390.3</ele>
        <time>2017-03-26T09:47:55.999Z</time>
      </trkpt>
      <trkpt lat="47.51438" lon="6.77727">
        <ele>390.8</ele>
        <time>2017-03-26T09:47:57.999Z</time>
      </trkpt>
      <trkpt lat="47.51441" lon="6.77727">
        <ele>391.3</ele>
        <time>2017-03-26T09:47:58.999Z</time>
      </trkpt>
      <trkpt lat="47.51444" lon="6.77727">
        <ele>392</ele>
        <time>2017-03-26T09:48:00.999Z</time>
      </trkpt>
      <trkpt lat="47.51446" lon="6.77726">
        <ele>392.4</ele>
        <time>2017-03-26T09:48:01.999Z</time>
      </trkpt>
      <trkpt lat="47.5145" lon="6.77725">
        <ele>393.6</ele>
        <time>2017-03-26T09:48:04.999Z</time>
      </trkpt>
      <trkpt lat="47.51451" lon="6.77726">
        <ele>394</ele>
        <time>2017-03-26T09:48:05.999Z</time>
      </trkpt>
      <trkpt lat="47.51454" lon="6.77726">
        <ele>396</ele>
        <time>2017-03-26T09:48:10.999Z</time>
      </trkpt>
      <trkpt lat="47.51456" lon="6.77727">
        <ele>396.1</ele>
        <time>2017-03-26T09:48:11.999Z</time>
      </trkpt>
      <trkpt lat="47.5146" lon="6.77725">
        <ele>396.7</ele>
        <time>2017-03-26T09:48:16.999Z</time>
      </trkpt>
      <trkpt lat="47.51461" lon="6.77725">
        <ele>396.8</ele>
        <time>2017-03-26T09:48:17.999Z</time>
      </trkpt>
      <trkpt lat="47.51465" lon="6.77725">
        <ele>397</ele>
        <time>2017-03-26T09:48:24.999Z</time>
      </trkpt>
      <trkpt lat="47.51466" lon="6.77724">
        <ele>396.9</ele>
        <time>2017-03-26T09:48:25.999Z</time>
      </trkpt>
      <trkpt lat="47.51469" lon="6.77724">
        <ele>396.6</ele>
        <time>2017-03-26T09:48:27.999Z</time>
      </trkpt>
      <trkpt lat="47.51471" lon="6.77723">
        <ele>396.4</ele>
        <time>2017-03-26T09:48:28.999Z</time>
      </trkpt>
      <trkpt lat="47.51474" lon="6.77723">
        <ele>396.2</ele>
        <time>2017-03-26T09:48:30.999Z</time>
      </trkpt>
      <trkpt lat="47.51476" lon="6.77724">
        <ele>396.2</ele>
        <time>2017-03-26T09:48:31.999Z</time>
      </trkpt>
      <trkpt lat="47.5148" lon="6.77725">
        <ele>396.1</ele>
        <time>2017-03-26T09:48:33.999Z</time>
      </trkpt>
      <trkpt lat="47.51482" lon="6.77725">
        <ele>396.1</ele>
        <time>2017-03-26T09:48:34.999Z</time>
      </trkpt>
      <trkpt lat="47.51486" lon="6.77727">
        <ele>396.3</ele>
        <time>2017-03-26T09:48:37.999Z</time>
      </trkpt>
      <trkpt lat="47.51488" lon="6.77727">
        <ele>396.3</ele>
        <time>2017-03-26T09:48:38.999Z</time>
      </trkpt>
      <trkpt lat="47.51491" lon="6.77726">
        <ele>396.4</ele>
        <time>2017-03-26T09:48:40.999Z</time>
      </trkpt>
      <trkpt lat="47.51493" lon="6.77727">
        <ele>396.5</ele>
        <time>2017-03-26T09:48:41.999Z</time>
      </trkpt>
      <trkpt lat="47.51497" lon="6.77726">
        <ele>396.8</ele>
        <time>2017-03-26T09:48:45.999Z</time>
      </trkpt>
      <trkpt lat="47.51499" lon="6.77725">
        <ele>396.9</ele>
        <time>2017-03-26T09:48:46.999Z</time>
      </trkpt>
      <trkpt lat="47.51503" lon="6.77723">
        <ele>397.2</ele>
        <time>2017-03-26T09:48:49.999Z</time>
      </trkpt>
      <trkpt lat="47.51506" lon="6.77724">
        <ele>397.3</ele>
        <time>2017-03-26T09:48:50.999Z</time>
      </trkpt>
      <trkpt lat="47.51509" lon="6.77722">
        <ele>397.7</ele>
        <time>2017-03-26T09:48:53.999Z</time>
      </trkpt>
      <trkpt lat="47.5151" lon="6.77722">
        <ele>397.8</ele>
        <time>2017-03-26T09:48:54.999Z</time>
      </trkpt>
      <trkpt lat="47.51514" lon="6.77722">
        <ele>398.1</ele>
        <time>2017-03-26T09:48:56.999Z</time>
      </trkpt>
      <trkpt lat="47.51516" lon="6.77723">
        <ele>398.4</ele>
        <time>2017-03-26T09:48:57.999Z</time>
      </trkpt>
      <trkpt lat="47.5152" lon="6.77723">
        <ele>399.1</ele>
        <time>2017-03-26T09:49:00.999Z</time>
      </trkpt>
      <trkpt lat="47.51521" lon="6.77723">
        <ele>399.4</ele>
        <time>2017-03-26T09:49:01.999Z</time>
      </trkpt>
      <trkpt lat="47.51525" lon="6.77724">
        <ele>399.9</ele>
        <time>2017-03-26T09:49:04.999Z</time>
      </trkpt>
      <trkpt lat="47.51527" lon="6.77724">
        <ele>400.2</ele>
        <time>2017-03-26T09:49:05.999Z</time>
      </trkpt>
      <trkpt lat="47.5153" lon="6.77722">
        <ele>400.6</ele>
        <time>2017-03-26T09:49:08.999Z</time>
      </trkpt>
      <trkpt lat="47.51531" lon="6.77721">
        <ele>400.8</ele>
        <time>2017-03-26T09:49:09.999Z</time>
      </trkpt>
      <trkpt lat="47.51535" lon="6.7772">
        <ele>401.2</ele>
        <time>2017-03-26T09:49:11.999Z</time>
      </trkpt>
      <trkpt lat="47.51537" lon="6.77719">
        <ele>401.4</ele>
        <time>2017-03-26T09:49:12.999Z</time>
      </trkpt>
      <trkpt lat="47.51541" lon="6.7772">
        <ele>401.8</ele>
        <time>2017-03-26T09:49:14.999Z</time>
      </trkpt>
      <trkpt lat="47.51542" lon="6.7772">
        <ele>402.2</ele>
        <time>2017-03-26T09:49:15.999Z</time>
      </trkpt>
      <trkpt lat="47.51546" lon="6.77722">
        <ele>403.2</ele>
        <time>2017-03-26T09:49:18.999Z</time>
      </trkpt>
      <trkpt lat="47.51548" lon="6.77723">
        <ele>403.4</ele>
        <time>2017-03-26T09:49:19.999Z</time>
      </trkpt>
      <trkpt lat="47.51551" lon="6.77723">
        <ele>403.9</ele>
        <time>2017-03-26T09:49:22.999Z</time>
      </trkpt>
      <trkpt lat="47.51553" lon="6.77723">
        <ele>404.1</ele>
        <time>2017-03-26T09:49:23.999Z</time>
      </trkpt>
      <trkpt lat="47.51556" lon="6.77724">
        <ele>404.2</ele>
        <time>2017-03-26T09:49:26.999Z</time>
      </trkpt>
      <trkpt lat="47.51557" lon="6.77725">
        <ele>404.2</ele>
        <time>2017-03-26T09:49:27.999Z</time>
      </trkpt>
      <trkpt lat="47.5156" lon="6.77727">
        <ele>404.1</ele>
        <time>2017-03-26T09:49:30.999Z</time>
      </trkpt>
      <trkpt lat="47.51561" lon="6.77729">
        <ele>404.2</ele>
        <time>2017-03-26T09:49:31.999Z</time>
      </trkpt>
      <trkpt lat="47.51565" lon="6.7773">
        <ele>404.1</ele>
        <time>2017-03-26T09:49:36.999Z</time>
      </trkpt>
      <trkpt lat="47.51567" lon="6.7773">
        <ele>404.1</ele>
        <time>2017-03-26T09:49:37.999Z</time>
      </trkpt>
      <trkpt lat="47.5157" lon="6.77732">
        <ele>404.2</ele>
        <time>2017-03-26T09:49:39.999Z</time>
      </trkpt>
      <trkpt lat="47.51571" lon="6.77732">
        <ele>404.3</ele>
        <time>2017-03-26T09:49:40.999Z</time>
      </trkpt>
      <trkpt lat="47.51575" lon="6.77733">
        <ele>405.6</ele>
        <time>2017-03-26T09:49:44.999Z</time>
      </trkpt>
      <trkpt lat="47.51576" lon="6.77733">
        <ele>406</ele>
        <time>2017-03-26T09:49:45.999Z</time>
      </trkpt>
      <trkpt lat="47.51579" lon="6.77734">
        <ele>408.2</ele>
        <time>2017-03-26T09:49:49.999Z</time>
      </trkpt>
      <trkpt lat="47.51582" lon="6.77734">
        <ele>408.8</ele>
        <time>2017-03-26T09:49:50.999Z</time>
      </trkpt>
      <trkpt lat="47.51585" lon="6.77731">
        <ele>410.9</ele>
        <time>2017-03-26T09:49:53.999Z</time>
      </trkpt>
      <trkpt lat="47.51586" lon="6.7773">
        <ele>411.6</ele>
        <time>2017-03-26T09:49:54.999Z</time>
      </trkpt>
      <trkpt lat="47.51591" lon="6.77731">
        <ele>412.9</ele>
        <time>2017-03-26T09:49:56.999Z</time>
      </trkpt>
      <trkpt lat="47.51592" lon="6.77732">
        <ele>413.3</ele>
        <time>2017-03-26T09:49:57.999Z</time>
      </trkpt>
      <trkpt lat="47.51595" lon="6.77735">
        <ele>414.1</ele>
        <time>2017-03-26T09:49:59.999Z</time>
      </trkpt>
      <trkpt lat="47.51597" lon="6.77738">
        <ele>414.5</ele>
        <time>2017-03-26T09:50:00.999Z</time>
      </trkpt>
      <trkpt lat="47.51599" lon="6.77742">
        <ele>414.7</ele>
        <time>2017-03-26T09:50:01.999Z</time>
      </trkpt>
      <trkpt lat="47.51601" lon="6.77744">
        <ele>414.9</ele>
        <time>2017-03-26T09:50:02.999Z</time>
      </trkpt>
      <trkpt lat="47.51605" lon="6.77747">
        <ele>416.3</ele>
        <time>2017-03-26T09:50:06.999Z</time>
      </trkpt>
      <trkpt lat="47.51607" lon="6.77747">
        <ele>416.6</ele>
        <time>2017-03-26T09:50:07.999Z</time>
      </trkpt>
      <trkpt lat="47.51611" lon="6.77747">
        <ele>417.4</ele>
        <time>2017-03-26T09:50:11.999Z</time>
      </trkpt>
      <trkpt lat="47.51613" lon="6.77748">
        <ele>417.6</ele>
        <time>2017-03-26T09:50:12.999Z</time>
      </trkpt>
      <trkpt lat="47.51616" lon="6.77747">
        <ele>417.9</ele>
        <time>2017-03-26T09:50:17.999Z</time>
      </trkpt>
      <trkpt lat="47.51619" lon="6.77748">
        <ele>418</ele>
        <time>2017-03-26T09:50:18.999Z</time>
      </trkpt>
      <trkpt lat="47.51623" lon="6.77749">
        <ele>418.1</ele>
        <time>2017-03-26T09:50:19.999Z</time>
      </trkpt>
      <trkpt lat="47.51625" lon="6.77748">
        <ele>418.1</ele>
        <time>2017-03-26T09:50:20.999Z</time>
      </trkpt>
      <trkpt lat="47.51628" lon="6.77748">
        <ele>418.1</ele>
        <time>2017-03-26T09:50:21.999Z</time>
      </trkpt>
      <trkpt lat="47.51631" lon="6.77748">
        <ele>418.2</ele>
        <time>2017-03-26T09:50:22.999Z</time>
      </trkpt>
      <trkpt lat="47.51635" lon="6.77749">
        <ele>418.1</ele>
        <time>2017-03-26T09:50:27.999Z</time>
      </trkpt>
      <trkpt lat="47.51637" lon="6.77749">
        <ele>417.9</ele>
        <time>2017-03-26T09:50:28.999Z</time>
      </trkpt>
      <trkpt lat="47.51639" lon="6.77749">
        <ele>417.7</ele>
        <time>2017-03-26T09:50:29.999Z</time>
      </trkpt>
      <trkpt lat="47.51641" lon="6.7775">
        <ele>417.5</ele>
        <time>2017-03-26T09:50:30.999Z</time>
      </trkpt>
      <trkpt lat="47.51644" lon="6.7775">
        <ele>417.3</ele>
        <time>2017-03-26T09:50:31.999Z</time>
      </trkpt>
      <trkpt lat="47.51646" lon="6.77749">
        <ele>417.1</ele>
        <time>2017-03-26T09:50:32.999Z</time>
      </trkpt>
      <trkpt lat="47.51648" lon="6.77748">
        <ele>416.9</ele>
        <time>2017-03-26T09:50:34.999Z</time>
      </trkpt>
      <trkpt lat="47.51651" lon="6.77749">
        <ele>416.9</ele>
        <time>2017-03-26T09:50:35.999Z</time>
      </trkpt>
      <trkpt lat="47.51655" lon="6.77749">
        <ele>416.8</ele>
        <time>2017-03-26T09:50:36.999Z</time>
      </trkpt>
      <trkpt lat="47.51658" lon="6.7775">
        <ele>416.8</ele>
        <time>2017-03-26T09:50:37.999Z</time>
      </trkpt>
      <trkpt lat="47.51661" lon="6.7775">
        <ele>416.8</ele>
        <time>2017-03-26T09:50:38.999Z</time>
      </trkpt>
      <trkpt lat="47.51664" lon="6.77752">
        <ele>416.9</ele>
        <time>2017-03-26T09:50:39.999Z</time>
      </trkpt>
      <trkpt lat="47.51671" lon="6.77756">
        <ele>417</ele>
        <time>2017-03-26T09:50:40.999Z</time>
      </trkpt>
      <trkpt lat="47.51675" lon="6.77758">
        <ele>417</ele>
        <time>2017-03-26T09:50:41.999Z</time>
      </trkpt>
      <trkpt lat="47.51676" lon="6.77758">
        <ele>417</ele>
        <time>2017-03-26T09:50:42.999Z</time>
      </trkpt>
      <trkpt lat="47.5168" lon="6.77759">
        <ele>417</ele>
        <time>2017-03-26T09:50:45.999Z</time>
      </trkpt>
      <trkpt lat="47.51682" lon="6.77759">
        <ele>417</ele>
        <time>2017-03-26T09:50:46.999Z</time>
      </trkpt>
      <trkpt lat="47.51685" lon="6.7776">
        <ele>417.2</ele>
        <time>2017-03-26T09:50:51.999Z</time>
      </trkpt>
      <trkpt lat="47.51686" lon="6.7776">
        <ele>417.2</ele>
        <time>2017-03-26T09:50:52.999Z</time>
      </trkpt>
      <trkpt lat="47.5169" lon="6.7776">
        <ele>417.2</ele>
        <time>2017-03-26T09:50:55.999Z</time>
      </trkpt>
      <trkpt lat="47.51691" lon="6.7776">
        <ele>417.1</ele>
        <time>2017-03-26T09:50:56.999Z</time>
      </trkpt>
      <trkpt lat="47.51695" lon="6.7776">
        <ele>417.2</ele>
        <time>2017-03-26T09:50:58.999Z</time>
      </trkpt>
      <trkpt lat="47.51696" lon="6.77759">
        <ele>417.3</ele>
        <time>2017-03-26T09:50:59.999Z</time>
      </trkpt>
      <trkpt lat="47.51698" lon="6.77758">
        <ele>417.3</ele>
        <time>2017-03-26T09:51:01.999Z</time>
      </trkpt>
      <trkpt lat="47.517" lon="6.77756">
        <ele>417.3</ele>
        <time>2017-03-26T09:51:02.999Z</time>
      </trkpt>
      <trkpt lat="47.51703" lon="6.77751">
        <ele>417.5</ele>
        <time>2017-03-26T09:51:04.999Z</time>
      </trkpt>
      <trkpt lat="47.51705" lon="6.77749">
        <ele>417.5</ele>
        <time>2017-03-26T09:51:05.999Z</time>
      </trkpt>
      <trkpt lat="47.51706" lon="6.77745">
        <ele>417.5</ele>
        <time>2017-03-26T09:51:08.999Z</time>
      </trkpt>
      <trkpt lat="47.51706" lon="6.77742">
        <ele>417.6</ele>
        <time>2017-03-26T09:51:09.999Z</time>
      </trkpt>
      <trkpt lat="47.51705" lon="6.7774">
        <ele>417.9</ele>
        <time>2017-03-26T09:51:11.999Z</time>
      </trkpt>
      <trkpt lat="47.51705" lon="6.77736">
        <ele>418</ele>
        <time>2017-03-26T09:51:12.999Z</time>
      </trkpt>
      <trkpt lat="47.51704" lon="6.77731">
        <ele>418.3</ele>
        <time>2017-03-26T09:51:14.999Z</time>
      </trkpt>
      <trkpt lat="47.51704" lon="6.77729">
        <ele>418.4</ele>
        <time>2017-03-26T09:51:15.999Z</time>
      </trkpt>
      <trkpt lat="47.51706" lon="6.77726">
        <ele>419</ele>
        <time>2017-03-26T09:51:19.999Z</time>
      </trkpt>
      <trkpt lat="47.51707" lon="6.77724">
        <ele>419.2</ele>
        <time>2017-03-26T09:51:20.999Z</time>
      </trkpt>
      <trkpt lat="47.51709" lon="6.77719">
        <ele>419.7</ele>
        <time>2017-03-26T09:51:22.999Z</time>
      </trkpt>
      <trkpt lat="47.5171" lon="6.77716">
        <ele>420</ele>
        <time>2017-03-26T09:51:23.999Z</time>
      </trkpt>
      <trkpt lat="47.5171" lon="6.77711">
        <ele>420.3</ele>
        <time>2017-03-26T09:51:25.999Z</time>
      </trkpt>
      <trkpt lat="47.5171" lon="6.77709">
        <ele>420.5</ele>
        <time>2017-03-26T09:51:26.999Z</time>
      </trkpt>
      <trkpt lat="47.51711" lon="6.77703">
        <ele>421</ele>
        <time>2017-03-26T09:51:29.999Z</time>
      </trkpt>
      <trkpt lat="47.51711" lon="6.777">
        <ele>421.2</ele>
        <time>2017-03-26T09:51:30.999Z</time>
      </trkpt>
      <trkpt lat="47.51711" lon="6.77695">
        <ele>421.7</ele>
        <time>2017-03-26T09:51:32.999Z</time>
      </trkpt>
      <trkpt lat="47.51711" lon="6.77692">
        <ele>421.9</ele>
        <time>2017-03-26T09:51:33.999Z</time>
      </trkpt>
      <trkpt lat="47.5171" lon="6.77689">
        <ele>422.1</ele>
        <time>2017-03-26T09:51:34.999Z</time>
      </trkpt>
      <trkpt lat="47.51709" lon="6.77686">
        <ele>422.3</ele>
        <time>2017-03-26T09:51:35.999Z</time>
      </trkpt>
      <trkpt lat="47.51708" lon="6.7768">
        <ele>422.8</ele>
        <time>2017-03-26T09:51:38.999Z</time>
      </trkpt>
      <trkpt lat="47.51707" lon="6.77678">
        <ele>423</ele>
        <time>2017-03-26T09:51:39.999Z</time>
      </trkpt>
      <trkpt lat="47.51708" lon="6.77673">
        <ele>423.4</ele>
        <time>2017-03-26T09:51:41.999Z</time>
      </trkpt>
      <trkpt lat="47.51708" lon="6.77671">
        <ele>423.6</ele>
        <time>2017-03-26T09:51:42.999Z</time>
      </trkpt>
      <trkpt lat="47.51708" lon="6.77664">
        <ele>423.9</ele>
        <time>2017-03-26T09:51:44.999Z</time>
      </trkpt>
      <trkpt lat="47.51708" lon="6.77661">
        <ele>424.1</ele>
        <time>2017-03-26T09:51:45.999Z</time>
      </trkpt>
      <trkpt lat="47.51709" lon="6.77656">
        <ele>424.5</ele>
        <time>2017-03-26T09:51:47.999Z</time>
      </trkpt>
      <trkpt lat="47.51709" lon="6.77653">
        <ele>424.6</ele>
        <time>2017-03-26T09:51:48.999Z</time>
      </trkpt>
      <trkpt lat="47.51709" lon="6.77648">
        <ele>425.1</ele>
        <time>2017-03-26T09:51:50.999Z</time>
      </trkpt>
      <trkpt lat="47.5171" lon="6.77645">
        <ele>425.3</ele>
        <time>2017-03-26T09:51:51.999Z</time>
      </trkpt>
      <trkpt lat="47.51711" lon="6.77641">
        <ele>425.8</ele>
        <time>2017-03-26T09:51:53.999Z</time>
      </trkpt>
      <trkpt lat="47.51711" lon="6.77638">
        <ele>426</ele>
        <time>2017-03-26T09:51:54.999Z</time>
      </trkpt>
      <trkpt lat="47.51711" lon="6.77633">
        <ele>426.4</ele>
        <time>2017-03-26T09:51:56.999Z</time>
      </trkpt>
      <trkpt lat="47.51711" lon="6.77631">
        <ele>426.6</ele>
        <time>2017-03-26T09:51:57.999Z</time>
      </trkpt>
      <trkpt lat="47.51712" lon="6.77626">
        <ele>427</ele>
        <time>2017-03-26T09:51:59.999Z</time>
      </trkpt>
      <trkpt lat="47.51712" lon="6.77623">
        <ele>427.2</ele>
        <time>2017-03-26T09:52:00.999Z</time>
      </trkpt>
      <trkpt lat="47.51712" lon="6.77619">
        <ele>427.5</ele>
        <time>2017-03-26T09:52:02.999Z</time>
      </trkpt>
      <trkpt lat="47.51712" lon="6.77616">
        <ele>427.7</ele>
        <time>2017-03-26T09:52:03.999Z</time>
      </trkpt>
      <trkpt lat="47.51711" lon="6.77611">
        <ele>428</ele>
        <time>2017-03-26T09:52:05.999Z</time>
      </trkpt>
      <trkpt lat="47.51712" lon="6.77608">
        <ele>428.1</ele>
        <time>2017-03-26T09:52:06.999Z</time>
      </trkpt>
      <trkpt lat="47.51713" lon="6.77602">
        <ele>428.6</ele>
        <time>2017-03-26T09:52:08.999Z</time>
      </trkpt>
      <trkpt lat="47.51713" lon="6.776">
        <ele>428.8</ele>
        <time>2017-03-26T09:52:09.999Z</time>
      </trkpt>
      <trkpt lat="47.51715" lon="6.77595">
        <ele>429.5</ele>
        <time>2017-03-26T09:52:12.999Z</time>
      </trkpt>
      <trkpt lat="47.51715" lon="6.77593">
        <ele>429.7</ele>
        <time>2017-03-26T09:52:13.999Z</time>
      </trkpt>
      <trkpt lat="47.51715" lon="6.77587">
        <ele>429.9</ele>
        <time>2017-03-26T09:52:15.999Z</time>
      </trkpt>
      <trkpt lat="47.51716" lon="6.77586">
        <ele>430.1</ele>
        <time>2017-03-26T09:52:16.999Z</time>
      </trkpt>
      <trkpt lat="47.51718" lon="6.77585">
        <ele>430.4</ele>
        <time>2017-03-26T09:52:18.999Z</time>
      </trkpt>
      <trkpt lat="47.5172" lon="6.77583">
        <ele>430.7</ele>
        <time>2017-03-26T09:52:19.999Z</time>
      </trkpt>
      <trkpt lat="47.5172" lon="6.77579">
        <ele>431.2</ele>
        <time>2017-03-26T09:52:21.999Z</time>
      </trkpt>
      <trkpt lat="47.5172" lon="6.77574">
        <ele>431.4</ele>
        <time>2017-03-26T09:52:22.999Z</time>
      </trkpt>
      <trkpt lat="47.5172" lon="6.77569">
        <ele>431.6</ele>
        <time>2017-03-26T09:52:23.999Z</time>
      </trkpt>
      <trkpt lat="47.51718" lon="6.77564">
        <ele>431.8</ele>
        <time>2017-03-26T09:52:24.999Z</time>
      </trkpt>
      <trkpt lat="47.51717" lon="6.7756">
        <ele>432</ele>
        <time>2017-03-26T09:52:25.999Z</time>
      </trkpt>
      <trkpt lat="47.51717" lon="6.77556">
        <ele>432.2</ele>
        <time>2017-03-26T09:52:26.999Z</time>
      </trkpt>
      <trkpt lat="47.51718" lon="6.77551">
        <ele>432.4</ele>
        <time>2017-03-26T09:52:27.999Z</time>
      </trkpt>
      <trkpt lat="47.51719" lon="6.77547">
        <ele>432.6</ele>
        <time>2017-03-26T09:52:28.999Z</time>
      </trkpt>
      <trkpt lat="47.5172" lon="6.77541">
        <ele>432.7</ele>
        <time>2017-03-26T09:52:29.999Z</time>
      </trkpt>
      <trkpt lat="47.5172" lon="6.77536">
        <ele>433.3</ele>
        <time>2017-03-26T09:52:30.999Z</time>
      </trkpt>
      <trkpt lat="47.51721" lon="6.77531">
        <ele>434</ele>
        <time>2017-03-26T09:52:31.999Z</time>
      </trkpt>
      <trkpt lat="47.51721" lon="6.77526">
        <ele>434.4</ele>
        <time>2017-03-26T09:52:32.999Z</time>
      </trkpt>
      <trkpt lat="47.51722" lon="6.77521">
        <ele>434.4</ele>
        <time>2017-03-26T09:52:33.999Z</time>
      </trkpt>
      <trkpt lat="47.51723" lon="6.77518">
        <ele>434.5</ele>
        <time>2017-03-26T09:52:34.999Z</time>
      </trkpt>
      <trkpt lat="47.51724" lon="6.77514">
        <ele>434.4</ele>
        <time>2017-03-26T09:52:35.999Z</time>
      </trkpt>
      <trkpt lat="47.51724" lon="6.77509">
        <ele>434.3</ele>
        <time>2017-03-26T09:52:36.999Z</time>
      </trkpt>
      <trkpt lat="47.51725" lon="6.77505">
        <ele>434.3</ele>
        <time>2017-03-26T09:52:37.999Z</time>
      </trkpt>
      <trkpt lat="47.51726" lon="6.77501">
        <ele>434.3</ele>
        <time>2017-03-26T09:52:38.999Z</time>
      </trkpt>
      <trkpt lat="47.51726" lon="6.77498">
        <ele>434.3</ele>
        <time>2017-03-26T09:52:39.999Z</time>
      </trkpt>
      <trkpt lat="47.51727" lon="6.77493">
        <ele>434.2</ele>
        <time>2017-03-26T09:52:40.999Z</time>
      </trkpt>
      <trkpt lat="47.51728" lon="6.77489">
        <ele>434.1</ele>
        <time>2017-03-26T09:52:41.999Z</time>
      </trkpt>
      <trkpt lat="47.51729" lon="6.77486">
        <ele>434</ele>
        <time>2017-03-26T09:52:42.999Z</time>
      </trkpt>
      <trkpt lat="47.5173" lon="6.77482">
        <ele>433.9</ele>
        <time>2017-03-26T09:52:43.999Z</time>
      </trkpt>
      <trkpt lat="47.51732" lon="6.7748">
        <ele>433.9</ele>
        <time>2017-03-26T09:52:44.999Z</time>
      </trkpt>
      <trkpt lat="47.51735" lon="6.77479">
        <ele>433.8</ele>
        <time>2017-03-26T09:52:46.999Z</time>
      </trkpt>
      <trkpt lat="47.51737" lon="6.77481">
        <ele>433.8</ele>
        <time>2017-03-26T09:52:47.999Z</time>
      </trkpt>
      <trkpt lat="47.5174" lon="6.77481">
        <ele>433.7</ele>
        <time>2017-03-26T09:52:49.999Z</time>
      </trkpt>
      <trkpt lat="47.51742" lon="6.77481">
        <ele>433.8</ele>
        <time>2017-03-26T09:52:50.999Z</time>
      </trkpt>
      <trkpt lat="47.51746" lon="6.77481">
        <ele>433.8</ele>
        <time>2017-03-26T09:52:51.999Z</time>
      </trkpt>
      <trkpt lat="47.51749" lon="6.77482">
        <ele>433.9</ele>
        <time>2017-03-26T09:52:52.999Z</time>
      </trkpt>
      <trkpt lat="47.51751" lon="6.77484">
        <ele>433.9</ele>
        <time>2017-03-26T09:52:53.999Z</time>
      </trkpt>
      <trkpt lat="47.51753" lon="6.77485">
        <ele>434</ele>
        <time>2017-03-26T09:52:54.999Z</time>
      </trkpt>
      <trkpt lat="47.51756" lon="6.77486">
        <ele>434</ele>
        <time>2017-03-26T09:52:55.999Z</time>
      </trkpt>
      <trkpt lat="47.51759" lon="6.77486">
        <ele>434.1</ele>
        <time>2017-03-26T09:52:56.999Z</time>
      </trkpt>
      <trkpt lat="47.51762" lon="6.77487">
        <ele>434.1</ele>
        <time>2017-03-26T09:52:57.999Z</time>
      </trkpt>
      <trkpt lat="47.51766" lon="6.77487">
        <ele>434.2</ele>
        <time>2017-03-26T09:52:58.999Z</time>
      </trkpt>
      <trkpt lat="47.51769" lon="6.77488">
        <ele>434.3</ele>
        <time>2017-03-26T09:52:59.999Z</time>
      </trkpt>
      <trkpt lat="47.51773" lon="6.77489">
        <ele>434.4</ele>
        <time>2017-03-26T09:53:00.999Z</time>
      </trkpt>
      <trkpt lat="47.51776" lon="6.77489">
        <ele>434.5</ele>
        <time>2017-03-26T09:53:01.999Z</time>
      </trkpt>
      <trkpt lat="47.51778" lon="6.77489">
        <ele>434.6</ele>
        <time>2017-03-26T09:53:02.999Z</time>
      </trkpt>
      <trkpt lat="47.51781" lon="6.7749">
        <ele>434.6</ele>
        <time>2017-03-26T09:53:03.999Z</time>
      </trkpt>
      <trkpt lat="47.51784" lon="6.77491">
        <ele>434.5</ele>
        <time>2017-03-26T09:53:04.999Z</time>
      </trkpt>
      <trkpt lat="47.51787" lon="6.77493">
        <ele>434.5</ele>
        <time>2017-03-26T09:53:05.999Z</time>
      </trkpt>
      <trkpt lat="47.51789" lon="6.77496">
        <ele>434.4</ele>
        <time>2017-03-26T09:53:06.999Z</time>
      </trkpt>
      <trkpt lat="47.51793" lon="6.77499">
        <ele>434.3</ele>
        <time>2017-03-26T09:53:07.999Z</time>
      </trkpt>
      <trkpt lat="47.51796" lon="6.775">
        <ele>434.2</ele>
        <time>2017-03-26T09:53:08.999Z</time>
      </trkpt>
      <trkpt lat="47.518" lon="6.775">
        <ele>434</ele>
        <time>2017-03-26T09:53:09.999Z</time>
      </trkpt>
      <trkpt lat="47.51802" lon="6.77502">
        <ele>433.8</ele>
        <time>2017-03-26T09:53:10.999Z</time>
      </trkpt>
      <trkpt lat="47.51806" lon="6.77503">
        <ele>433.5</ele>
        <time>2017-03-26T09:53:11.999Z</time>
      </trkpt>
      <trkpt lat="47.51809" lon="6.77503">
        <ele>433.4</ele>
        <time>2017-03-26T09:53:12.999Z</time>
      </trkpt>
      <trkpt lat="47.51811" lon="6.775">
        <ele>433.4</ele>
        <time>2017-03-26T09:53:13.999Z</time>
      </trkpt>
      <trkpt lat="47.51813" lon="6.77497">
        <ele>433.3</ele>
        <time>2017-03-26T09:53:14.999Z</time>
      </trkpt>
      <trkpt lat="47.51813" lon="6.77493">
        <ele>433.3</ele>
        <time>2017-03-26T09:53:15.999Z</time>
      </trkpt>
      <trkpt lat="47.51812" lon="6.77489">
        <ele>433.3</ele>
        <time>2017-03-26T09:53:16.999Z</time>
      </trkpt>
      <trkpt lat="47.51807" lon="6.77491">
        <ele>433.4</ele>
        <time>2017-03-26T09:53:17.999Z</time>
      </trkpt>
      <trkpt lat="47.51803" lon="6.77492">
        <ele>433.5</ele>
        <time>2017-03-26T09:53:18.999Z</time>
      </trkpt>
      <trkpt lat="47.51798" lon="6.7749">
        <ele>433.5</ele>
        <time>2017-03-26T09:53:19.999Z</time>
      </trkpt>
      <trkpt lat="47.51795" lon="6.7749">
        <ele>433.5</ele>
        <time>2017-03-26T09:53:20.999Z</time>
      </trkpt>
      <trkpt lat="47.51792" lon="6.7749">
        <ele>433.6</ele>
        <time>2017-03-26T09:53:21.999Z</time>
      </trkpt>
      <trkpt lat="47.51791" lon="6.77493">
        <ele>433.8</ele>
        <time>2017-03-26T09:53:24.999Z</time>
      </trkpt>
      <trkpt lat="47.51796" lon="6.77494">
        <ele>434.8</ele>
        <time>2017-03-26T09:53:25.999Z</time>
      </trkpt>
      <trkpt lat="47.51799" lon="6.77495">
        <ele>435.8</ele>
        <time>2017-03-26T09:53:26.999Z</time>
      </trkpt>
      <trkpt lat="47.51804" lon="6.77492">
        <ele>435.8</ele>
        <time>2017-03-26T09:53:27.999Z</time>
      </trkpt>
      <trkpt lat="47.51806" lon="6.77486">
        <ele>435.4</ele>
        <time>2017-03-26T09:53:28.999Z</time>
      </trkpt>
      <trkpt lat="47.51806" lon="6.77479">
        <ele>435.3</ele>
        <time>2017-03-26T09:53:29.999Z</time>
      </trkpt>
      <trkpt lat="47.51806" lon="6.77472">
        <ele>434.7</ele>
        <time>2017-03-26T09:53:30.999Z</time>
      </trkpt>
      <trkpt lat="47.51805" lon="6.77466">
        <ele>434.7</ele>
        <time>2017-03-26T09:53:31.999Z</time>
      </trkpt>
      <trkpt lat="47.51804" lon="6.77465">
        <ele>434.6</ele>
        <time>2017-03-26T09:53:32.999Z</time>
      </trkpt>
      <trkpt lat="47.51801" lon="6.77461">
        <ele>434.1</ele>
        <time>2017-03-26T09:53:41.999Z</time>
      </trkpt>
      <trkpt lat="47.518" lon="6.77461">
        <ele>434</ele>
        <time>2017-03-26T09:53:42.999Z</time>
      </trkpt>
      <trkpt lat="47.51798" lon="6.77463">
        <ele>433.8</ele>
        <time>2017-03-26T09:53:44.999Z</time>
      </trkpt>
      <trkpt lat="47.51795" lon="6.7746">
        <ele>433.8</ele>
        <time>2017-03-26T09:53:45.999Z</time>
      </trkpt>
      <trkpt lat="47.51792" lon="6.77453">
        <ele>433.8</ele>
        <time>2017-03-26T09:53:46.999Z</time>
      </trkpt>
      <trkpt lat="47.51787" lon="6.77453">
        <ele>433.9</ele>
        <time>2017-03-26T09:53:49.999Z</time>
      </trkpt>
      <trkpt lat="47.51787" lon="6.77455">
        <ele>433.8</ele>
        <time>2017-03-26T09:53:50.999Z</time>
      </trkpt>
      <trkpt lat="47.51788" lon="6.77458">
        <ele>433.9</ele>
        <time>2017-03-26T09:53:51.999Z</time>
      </trkpt>
      <trkpt lat="47.51789" lon="6.77463">
        <ele>434</ele>
        <time>2017-03-26T09:53:52.999Z</time>
      </trkpt>
      <trkpt lat="47.51791" lon="6.77468">
        <ele>434.1</ele>
        <time>2017-03-26T09:53:54.999Z</time>
      </trkpt>
      <trkpt lat="47.51793" lon="6.77471">
        <ele>434.3</ele>
        <time>2017-03-26T09:53:55.999Z</time>
      </trkpt>
      <trkpt lat="47.51795" lon="6.77474">
        <ele>434.4</ele>
        <time>2017-03-26T09:53:56.999Z</time>
      </trkpt>
      <trkpt lat="47.51798" lon="6.77476">
        <ele>434.4</ele>
        <time>2017-03-26T09:53:57.999Z</time>
      </trkpt>
      <trkpt lat="47.518" lon="6.77476">
        <ele>434.5</ele>
        <time>2017-03-26T09:53:58.999Z</time>
      </trkpt>
      <trkpt lat="47.51803" lon="6.77478">
        <ele>434.6</ele>
        <time>2017-03-26T09:53:59.999Z</time>
      </trkpt>
      <trkpt lat="47.51807" lon="6.77477">
        <ele>435</ele>
        <time>2017-03-26T09:54:04.999Z</time>
      </trkpt>
      <trkpt lat="47.51808" lon="6.77478">
        <ele>435</ele>
        <time>2017-03-26T09:54:05.999Z</time>
      </trkpt>
      <trkpt lat="47.51804" lon="6.77476">
        <ele>429.7</ele>
        <time>2017-03-26T09:55:15.999Z</time>
      </trkpt>
      <trkpt lat="47.51803" lon="6.77475">
        <ele>429.4</ele>
        <time>2017-03-26T09:55:16.999Z</time>
      </trkpt>
      <trkpt lat="47.51804" lon="6.77476">
        <ele>425.4</ele>
        <time>2017-03-26T09:56:14.999Z</time>
      </trkpt>
    </trkseg>
  </trk>
</gpx>